<?xml version="1.0" encoding="UTF-8" standalone="no" ?>
<gpx xmlns="http://www.topografix.com/GPX/1/1" xmlns:xsi="http://www.w3.org/2001/XMLSchema-instance" xsi:schemaLocation="http://www.topografix.com/GPX/1/1 http://www.topografix.com/GPX/1/1/gpx.xsd" version="1.1" creator="VisuGPX - https://www.visugpx.com">
  <metadata>
    <name>20190919-Valenciennes-Momignies</name>
    <desc><![CDATA[4ème jour de notre tour de France]]></desc>
  </metadata>
  <trk>
    <name><![CDATA[Tracé 20190919-092252]]></name>
    <trkseg>
      <trkpt lat="50.3539" lon="3.5037">
        <ele>53.835</ele>
        <time>2019-09-19T07:22:52.000Z</time>
      </trkpt>
      <trkpt lat="50.35389" lon="3.50371">
        <ele>56.539</ele>
        <time>2019-09-19T07:26:22.000Z</time>
      </trkpt>
      <trkpt lat="50.35382" lon="3.50395">
        <ele>56.848</ele>
        <time>2019-09-19T07:26:25.000Z</time>
      </trkpt>
      <trkpt lat="50.35378" lon="3.50409">
        <ele>57.373</ele>
        <time>2019-09-19T07:26:28.000Z</time>
      </trkpt>
      <trkpt lat="50.35374" lon="3.50426">
        <ele>56.066</ele>
        <time>2019-09-19T07:26:31.000Z</time>
      </trkpt>
      <trkpt lat="50.35372" lon="3.50445">
        <ele>55.637</ele>
        <time>2019-09-19T07:26:34.000Z</time>
      </trkpt>
      <trkpt lat="50.35369" lon="3.50466">
        <ele>54.389</ele>
        <time>2019-09-19T07:26:37.000Z</time>
      </trkpt>
      <trkpt lat="50.35366" lon="3.50483">
        <ele>53.927</ele>
        <time>2019-09-19T07:26:40.000Z</time>
      </trkpt>
      <trkpt lat="50.35364" lon="3.505">
        <ele>53.476</ele>
        <time>2019-09-19T07:26:43.000Z</time>
      </trkpt>
      <trkpt lat="50.35363" lon="3.50517">
        <ele>53.913</ele>
        <time>2019-09-19T07:26:46.000Z</time>
      </trkpt>
      <trkpt lat="50.35359" lon="3.50536">
        <ele>54.474</ele>
        <time>2019-09-19T07:26:49.000Z</time>
      </trkpt>
      <trkpt lat="50.35356" lon="3.50558">
        <ele>55.044</ele>
        <time>2019-09-19T07:26:52.000Z</time>
      </trkpt>
      <trkpt lat="50.3535" lon="3.50582">
        <ele>54.469</ele>
        <time>2019-09-19T07:26:55.000Z</time>
      </trkpt>
      <trkpt lat="50.35341" lon="3.50608">
        <ele>53.723</ele>
        <time>2019-09-19T07:26:58.000Z</time>
      </trkpt>
      <trkpt lat="50.35333" lon="3.50635">
        <ele>53.691</ele>
        <time>2019-09-19T07:27:01.000Z</time>
      </trkpt>
      <trkpt lat="50.35324" lon="3.50662">
        <ele>52.263</ele>
        <time>2019-09-19T07:27:04.000Z</time>
      </trkpt>
      <trkpt lat="50.35318" lon="3.50688">
        <ele>51.569</ele>
        <time>2019-09-19T07:27:07.000Z</time>
      </trkpt>
      <trkpt lat="50.35312" lon="3.50715">
        <ele>50.486</ele>
        <time>2019-09-19T07:27:10.000Z</time>
      </trkpt>
      <trkpt lat="50.35304" lon="3.5074">
        <ele>48.093</ele>
        <time>2019-09-19T07:27:13.000Z</time>
      </trkpt>
      <trkpt lat="50.35297" lon="3.50765">
        <ele>46.301</ele>
        <time>2019-09-19T07:27:16.000Z</time>
      </trkpt>
      <trkpt lat="50.35289" lon="3.50785">
        <ele>43.608</ele>
        <time>2019-09-19T07:27:19.000Z</time>
      </trkpt>
      <trkpt lat="50.35285" lon="3.50799">
        <ele>41.815</ele>
        <time>2019-09-19T07:27:22.000Z</time>
      </trkpt>
      <trkpt lat="50.35283" lon="3.5081">
        <ele>41.104</ele>
        <time>2019-09-19T07:27:25.000Z</time>
      </trkpt>
      <trkpt lat="50.35282" lon="3.5083">
        <ele>38.918</ele>
        <time>2019-09-19T07:27:28.000Z</time>
      </trkpt>
      <trkpt lat="50.35285" lon="3.50854">
        <ele>37.388</ele>
        <time>2019-09-19T07:27:31.000Z</time>
      </trkpt>
      <trkpt lat="50.35292" lon="3.50878">
        <ele>36.428</ele>
        <time>2019-09-19T07:27:34.000Z</time>
      </trkpt>
      <trkpt lat="50.35297" lon="3.509">
        <ele>35.61</ele>
        <time>2019-09-19T07:27:37.000Z</time>
      </trkpt>
      <trkpt lat="50.35304" lon="3.50923">
        <ele>35.419</ele>
        <time>2019-09-19T07:27:40.000Z</time>
      </trkpt>
      <trkpt lat="50.35313" lon="3.50944">
        <ele>35.1</ele>
        <time>2019-09-19T07:27:43.000Z</time>
      </trkpt>
      <trkpt lat="50.35328" lon="3.50955">
        <ele>36</ele>
        <time>2019-09-19T07:27:46.000Z</time>
      </trkpt>
      <trkpt lat="50.35341" lon="3.5096">
        <ele>35.01</ele>
        <time>2019-09-19T07:27:49.000Z</time>
      </trkpt>
      <trkpt lat="50.35349" lon="3.50964">
        <ele>36.153</ele>
        <time>2019-09-19T07:27:52.000Z</time>
      </trkpt>
      <trkpt lat="50.35356" lon="3.50966">
        <ele>36.443</ele>
        <time>2019-09-19T07:27:55.000Z</time>
      </trkpt>
      <trkpt lat="50.35363" lon="3.50972">
        <ele>37.523</ele>
        <time>2019-09-19T07:27:58.000Z</time>
      </trkpt>
      <trkpt lat="50.35365" lon="3.50984">
        <ele>35.537</ele>
        <time>2019-09-19T07:28:01.000Z</time>
      </trkpt>
      <trkpt lat="50.35362" lon="3.50999">
        <ele>34.874</ele>
        <time>2019-09-19T07:28:04.000Z</time>
      </trkpt>
      <trkpt lat="50.35356" lon="3.51017">
        <ele>34.429</ele>
        <time>2019-09-19T07:28:07.000Z</time>
      </trkpt>
      <trkpt lat="50.35349" lon="3.51036">
        <ele>33.795</ele>
        <time>2019-09-19T07:28:10.000Z</time>
      </trkpt>
      <trkpt lat="50.3534" lon="3.51057">
        <ele>33.856</ele>
        <time>2019-09-19T07:28:13.000Z</time>
      </trkpt>
      <trkpt lat="50.35332" lon="3.51082">
        <ele>33.013</ele>
        <time>2019-09-19T07:28:16.000Z</time>
      </trkpt>
      <trkpt lat="50.35328" lon="3.51112">
        <ele>31.827</ele>
        <time>2019-09-19T07:28:19.000Z</time>
      </trkpt>
      <trkpt lat="50.35327" lon="3.51145">
        <ele>31.578</ele>
        <time>2019-09-19T07:28:22.000Z</time>
      </trkpt>
      <trkpt lat="50.35328" lon="3.51181">
        <ele>31.315</ele>
        <time>2019-09-19T07:28:25.000Z</time>
      </trkpt>
      <trkpt lat="50.35326" lon="3.51219">
        <ele>31.811</ele>
        <time>2019-09-19T07:28:28.000Z</time>
      </trkpt>
      <trkpt lat="50.35325" lon="3.51255">
        <ele>31.601</ele>
        <time>2019-09-19T07:28:31.000Z</time>
      </trkpt>
      <trkpt lat="50.35322" lon="3.51287">
        <ele>31.823</ele>
        <time>2019-09-19T07:28:34.000Z</time>
      </trkpt>
      <trkpt lat="50.35321" lon="3.51317">
        <ele>32.035</ele>
        <time>2019-09-19T07:28:37.000Z</time>
      </trkpt>
      <trkpt lat="50.35319" lon="3.51348">
        <ele>31.688</ele>
        <time>2019-09-19T07:28:40.000Z</time>
      </trkpt>
      <trkpt lat="50.35315" lon="3.51378">
        <ele>29.648</ele>
        <time>2019-09-19T07:28:43.000Z</time>
      </trkpt>
      <trkpt lat="50.35313" lon="3.51407">
        <ele>27.98</ele>
        <time>2019-09-19T07:28:46.000Z</time>
      </trkpt>
      <trkpt lat="50.35311" lon="3.51434">
        <ele>27.216</ele>
        <time>2019-09-19T07:28:49.000Z</time>
      </trkpt>
      <trkpt lat="50.35313" lon="3.5146">
        <ele>27.28</ele>
        <time>2019-09-19T07:28:52.000Z</time>
      </trkpt>
      <trkpt lat="50.35316" lon="3.51483">
        <ele>27.658</ele>
        <time>2019-09-19T07:28:55.000Z</time>
      </trkpt>
      <trkpt lat="50.35319" lon="3.51505">
        <ele>27.495</ele>
        <time>2019-09-19T07:28:58.000Z</time>
      </trkpt>
      <trkpt lat="50.35322" lon="3.51524">
        <ele>26.973</ele>
        <time>2019-09-19T07:29:01.000Z</time>
      </trkpt>
      <trkpt lat="50.35331" lon="3.5154">
        <ele>26.2</ele>
        <time>2019-09-19T07:29:04.000Z</time>
      </trkpt>
      <trkpt lat="50.35343" lon="3.5155">
        <ele>27.381</ele>
        <time>2019-09-19T07:29:07.000Z</time>
      </trkpt>
      <trkpt lat="50.35356" lon="3.51556">
        <ele>27.389</ele>
        <time>2019-09-19T07:29:10.000Z</time>
      </trkpt>
      <trkpt lat="50.35369" lon="3.51564">
        <ele>26.965</ele>
        <time>2019-09-19T07:29:13.000Z</time>
      </trkpt>
      <trkpt lat="50.35381" lon="3.51573">
        <ele>26.831</ele>
        <time>2019-09-19T07:29:16.000Z</time>
      </trkpt>
      <trkpt lat="50.35393" lon="3.51581">
        <ele>26.969</ele>
        <time>2019-09-19T07:29:19.000Z</time>
      </trkpt>
      <trkpt lat="50.35406" lon="3.5159">
        <ele>27.152</ele>
        <time>2019-09-19T07:29:22.000Z</time>
      </trkpt>
      <trkpt lat="50.35414" lon="3.51604">
        <ele>27.602</ele>
        <time>2019-09-19T07:29:25.000Z</time>
      </trkpt>
      <trkpt lat="50.3542" lon="3.5162">
        <ele>28.448</ele>
        <time>2019-09-19T07:29:28.000Z</time>
      </trkpt>
      <trkpt lat="50.35426" lon="3.51636">
        <ele>28.968</ele>
        <time>2019-09-19T07:29:31.000Z</time>
      </trkpt>
      <trkpt lat="50.35433" lon="3.51653">
        <ele>29.181</ele>
        <time>2019-09-19T07:29:34.000Z</time>
      </trkpt>
      <trkpt lat="50.35438" lon="3.5167">
        <ele>28.516</ele>
        <time>2019-09-19T07:29:37.000Z</time>
      </trkpt>
      <trkpt lat="50.35436" lon="3.51687">
        <ele>27.959</ele>
        <time>2019-09-19T07:29:40.000Z</time>
      </trkpt>
      <trkpt lat="50.35429" lon="3.51703">
        <ele>28.97</ele>
        <time>2019-09-19T07:29:43.000Z</time>
      </trkpt>
      <trkpt lat="50.35429" lon="3.5172">
        <ele>29.1</ele>
        <time>2019-09-19T07:29:46.000Z</time>
      </trkpt>
      <trkpt lat="50.35433" lon="3.51733">
        <ele>28.722</ele>
        <time>2019-09-19T07:29:49.000Z</time>
      </trkpt>
      <trkpt lat="50.35435" lon="3.5176">
        <ele>28.315</ele>
        <time>2019-09-19T07:29:52.000Z</time>
      </trkpt>
      <trkpt lat="50.35431" lon="3.51789">
        <ele>29.551</ele>
        <time>2019-09-19T07:29:55.000Z</time>
      </trkpt>
      <trkpt lat="50.35422" lon="3.51822">
        <ele>29.523</ele>
        <time>2019-09-19T07:29:58.000Z</time>
      </trkpt>
      <trkpt lat="50.35415" lon="3.51855">
        <ele>29.315</ele>
        <time>2019-09-19T07:30:01.000Z</time>
      </trkpt>
      <trkpt lat="50.35407" lon="3.51886">
        <ele>30.023</ele>
        <time>2019-09-19T07:30:04.000Z</time>
      </trkpt>
      <trkpt lat="50.354" lon="3.51916">
        <ele>30.459</ele>
        <time>2019-09-19T07:30:07.000Z</time>
      </trkpt>
      <trkpt lat="50.35398" lon="3.51944">
        <ele>30.872</ele>
        <time>2019-09-19T07:30:10.000Z</time>
      </trkpt>
      <trkpt lat="50.35399" lon="3.5197">
        <ele>30.787</ele>
        <time>2019-09-19T07:30:13.000Z</time>
      </trkpt>
      <trkpt lat="50.35395" lon="3.51989">
        <ele>30.37</ele>
        <time>2019-09-19T07:30:16.000Z</time>
      </trkpt>
      <trkpt lat="50.35384" lon="3.52002">
        <ele>30.671</ele>
        <time>2019-09-19T07:30:19.000Z</time>
      </trkpt>
      <trkpt lat="50.35374" lon="3.52018">
        <ele>30.516</ele>
        <time>2019-09-19T07:30:22.000Z</time>
      </trkpt>
      <trkpt lat="50.35366" lon="3.52036">
        <ele>30.688</ele>
        <time>2019-09-19T07:30:25.000Z</time>
      </trkpt>
      <trkpt lat="50.35358" lon="3.52053">
        <ele>30.769</ele>
        <time>2019-09-19T07:30:28.000Z</time>
      </trkpt>
      <trkpt lat="50.35349" lon="3.5207">
        <ele>30.485</ele>
        <time>2019-09-19T07:30:31.000Z</time>
      </trkpt>
      <trkpt lat="50.35341" lon="3.52086">
        <ele>30.659</ele>
        <time>2019-09-19T07:30:34.000Z</time>
      </trkpt>
      <trkpt lat="50.35334" lon="3.52101">
        <ele>31.634</ele>
        <time>2019-09-19T07:30:37.000Z</time>
      </trkpt>
      <trkpt lat="50.35327" lon="3.52117">
        <ele>31.937</ele>
        <time>2019-09-19T07:30:40.000Z</time>
      </trkpt>
      <trkpt lat="50.35317" lon="3.52132">
        <ele>32.09</ele>
        <time>2019-09-19T07:30:43.000Z</time>
      </trkpt>
      <trkpt lat="50.35307" lon="3.52149">
        <ele>32.228</ele>
        <time>2019-09-19T07:30:46.000Z</time>
      </trkpt>
      <trkpt lat="50.35298" lon="3.52164">
        <ele>33.137</ele>
        <time>2019-09-19T07:30:49.000Z</time>
      </trkpt>
      <trkpt lat="50.3529" lon="3.52179">
        <ele>34.096</ele>
        <time>2019-09-19T07:30:52.000Z</time>
      </trkpt>
      <trkpt lat="50.3528" lon="3.52192">
        <ele>35.07</ele>
        <time>2019-09-19T07:30:55.000Z</time>
      </trkpt>
      <trkpt lat="50.35271" lon="3.522">
        <ele>34.916</ele>
        <time>2019-09-19T07:30:58.000Z</time>
      </trkpt>
      <trkpt lat="50.35264" lon="3.52208">
        <ele>34.508</ele>
        <time>2019-09-19T07:31:01.000Z</time>
      </trkpt>
      <trkpt lat="50.35254" lon="3.52213">
        <ele>33.799</ele>
        <time>2019-09-19T07:31:04.000Z</time>
      </trkpt>
      <trkpt lat="50.3524" lon="3.52212">
        <ele>32.326</ele>
        <time>2019-09-19T07:31:07.000Z</time>
      </trkpt>
      <trkpt lat="50.35225" lon="3.52207">
        <ele>31.49</ele>
        <time>2019-09-19T07:31:10.000Z</time>
      </trkpt>
      <trkpt lat="50.35209" lon="3.522">
        <ele>30.561</ele>
        <time>2019-09-19T07:31:13.000Z</time>
      </trkpt>
      <trkpt lat="50.35193" lon="3.52197">
        <ele>30.232</ele>
        <time>2019-09-19T07:31:16.000Z</time>
      </trkpt>
      <trkpt lat="50.35179" lon="3.52202">
        <ele>30.37</ele>
        <time>2019-09-19T07:31:19.000Z</time>
      </trkpt>
      <trkpt lat="50.35173" lon="3.5221">
        <ele>30.468</ele>
        <time>2019-09-19T07:31:22.000Z</time>
      </trkpt>
      <trkpt lat="50.35173" lon="3.52213">
        <ele>31.044</ele>
        <time>2019-09-19T07:31:25.000Z</time>
      </trkpt>
      <trkpt lat="50.35172" lon="3.52213">
        <ele>30.736</ele>
        <time>2019-09-19T07:31:37.000Z</time>
      </trkpt>
      <trkpt lat="50.35172" lon="3.52214">
        <ele>31.084</ele>
        <time>2019-09-19T07:31:40.000Z</time>
      </trkpt>
      <trkpt lat="50.35167" lon="3.52222">
        <ele>32.697</ele>
        <time>2019-09-19T07:31:46.000Z</time>
      </trkpt>
      <trkpt lat="50.35164" lon="3.5223">
        <ele>33.659</ele>
        <time>2019-09-19T07:31:49.000Z</time>
      </trkpt>
      <trkpt lat="50.35162" lon="3.52242">
        <ele>34.51</ele>
        <time>2019-09-19T07:31:52.000Z</time>
      </trkpt>
      <trkpt lat="50.35159" lon="3.52259">
        <ele>34.577</ele>
        <time>2019-09-19T07:31:55.000Z</time>
      </trkpt>
      <trkpt lat="50.35158" lon="3.52276">
        <ele>34.506</ele>
        <time>2019-09-19T07:31:58.000Z</time>
      </trkpt>
      <trkpt lat="50.35162" lon="3.52292">
        <ele>35.112</ele>
        <time>2019-09-19T07:32:01.000Z</time>
      </trkpt>
      <trkpt lat="50.35172" lon="3.52306">
        <ele>35.152</ele>
        <time>2019-09-19T07:32:04.000Z</time>
      </trkpt>
      <trkpt lat="50.3518" lon="3.52323">
        <ele>35.524</ele>
        <time>2019-09-19T07:32:07.000Z</time>
      </trkpt>
      <trkpt lat="50.35178" lon="3.52344">
        <ele>36.25</ele>
        <time>2019-09-19T07:32:10.000Z</time>
      </trkpt>
      <trkpt lat="50.35165" lon="3.52356">
        <ele>37.028</ele>
        <time>2019-09-19T07:32:13.000Z</time>
      </trkpt>
      <trkpt lat="50.35154" lon="3.52364">
        <ele>37.787</ele>
        <time>2019-09-19T07:32:16.000Z</time>
      </trkpt>
      <trkpt lat="50.35144" lon="3.52372">
        <ele>38.975</ele>
        <time>2019-09-19T07:32:19.000Z</time>
      </trkpt>
      <trkpt lat="50.35135" lon="3.5238">
        <ele>39.708</ele>
        <time>2019-09-19T07:32:22.000Z</time>
      </trkpt>
      <trkpt lat="50.35126" lon="3.52386">
        <ele>38.996</ele>
        <time>2019-09-19T07:32:25.000Z</time>
      </trkpt>
      <trkpt lat="50.35116" lon="3.52388">
        <ele>38.694</ele>
        <time>2019-09-19T07:32:28.000Z</time>
      </trkpt>
      <trkpt lat="50.35107" lon="3.52391">
        <ele>39.028</ele>
        <time>2019-09-19T07:32:31.000Z</time>
      </trkpt>
      <trkpt lat="50.351" lon="3.52397">
        <ele>40.107</ele>
        <time>2019-09-19T07:32:34.000Z</time>
      </trkpt>
      <trkpt lat="50.35092" lon="3.52402">
        <ele>41.773</ele>
        <time>2019-09-19T07:32:37.000Z</time>
      </trkpt>
      <trkpt lat="50.35084" lon="3.52407">
        <ele>42.753</ele>
        <time>2019-09-19T07:32:40.000Z</time>
      </trkpt>
      <trkpt lat="50.35076" lon="3.5241">
        <ele>43.335</ele>
        <time>2019-09-19T07:32:43.000Z</time>
      </trkpt>
      <trkpt lat="50.35069" lon="3.52416">
        <ele>44.611</ele>
        <time>2019-09-19T07:32:46.000Z</time>
      </trkpt>
      <trkpt lat="50.3506" lon="3.52423">
        <ele>46.131</ele>
        <time>2019-09-19T07:32:49.000Z</time>
      </trkpt>
      <trkpt lat="50.35051" lon="3.5243">
        <ele>47.138</ele>
        <time>2019-09-19T07:32:52.000Z</time>
      </trkpt>
      <trkpt lat="50.35041" lon="3.52435">
        <ele>47.796</ele>
        <time>2019-09-19T07:32:55.000Z</time>
      </trkpt>
      <trkpt lat="50.35033" lon="3.5244">
        <ele>48.79</ele>
        <time>2019-09-19T07:32:58.000Z</time>
      </trkpt>
      <trkpt lat="50.35023" lon="3.52444">
        <ele>49.186</ele>
        <time>2019-09-19T07:33:01.000Z</time>
      </trkpt>
      <trkpt lat="50.35009" lon="3.52448">
        <ele>49.498</ele>
        <time>2019-09-19T07:33:04.000Z</time>
      </trkpt>
      <trkpt lat="50.34994" lon="3.52452">
        <ele>49.467</ele>
        <time>2019-09-19T07:33:07.000Z</time>
      </trkpt>
      <trkpt lat="50.34981" lon="3.52454">
        <ele>51.334</ele>
        <time>2019-09-19T07:33:10.000Z</time>
      </trkpt>
      <trkpt lat="50.34967" lon="3.52454">
        <ele>55.297</ele>
        <time>2019-09-19T07:33:13.000Z</time>
      </trkpt>
      <trkpt lat="50.34957" lon="3.52453">
        <ele>54.743</ele>
        <time>2019-09-19T07:33:16.000Z</time>
      </trkpt>
      <trkpt lat="50.34949" lon="3.52454">
        <ele>51.953</ele>
        <time>2019-09-19T07:33:19.000Z</time>
      </trkpt>
      <trkpt lat="50.34942" lon="3.52455">
        <ele>49.471</ele>
        <time>2019-09-19T07:33:22.000Z</time>
      </trkpt>
      <trkpt lat="50.34933" lon="3.52456">
        <ele>47.918</ele>
        <time>2019-09-19T07:33:25.000Z</time>
      </trkpt>
      <trkpt lat="50.34924" lon="3.52457">
        <ele>47.12</ele>
        <time>2019-09-19T07:33:28.000Z</time>
      </trkpt>
      <trkpt lat="50.34915" lon="3.52458">
        <ele>47.599</ele>
        <time>2019-09-19T07:33:31.000Z</time>
      </trkpt>
      <trkpt lat="50.34906" lon="3.52458">
        <ele>48.262</ele>
        <time>2019-09-19T07:33:34.000Z</time>
      </trkpt>
      <trkpt lat="50.34897" lon="3.52459">
        <ele>48.844</ele>
        <time>2019-09-19T07:33:37.000Z</time>
      </trkpt>
      <trkpt lat="50.34888" lon="3.52461">
        <ele>49.876</ele>
        <time>2019-09-19T07:33:40.000Z</time>
      </trkpt>
      <trkpt lat="50.34879" lon="3.52462">
        <ele>49.953</ele>
        <time>2019-09-19T07:33:43.000Z</time>
      </trkpt>
      <trkpt lat="50.3487" lon="3.52463">
        <ele>49.385</ele>
        <time>2019-09-19T07:33:46.000Z</time>
      </trkpt>
      <trkpt lat="50.34862" lon="3.52465">
        <ele>49.401</ele>
        <time>2019-09-19T07:33:49.000Z</time>
      </trkpt>
      <trkpt lat="50.34853" lon="3.52466">
        <ele>49.078</ele>
        <time>2019-09-19T07:33:52.000Z</time>
      </trkpt>
      <trkpt lat="50.34844" lon="3.52468">
        <ele>49.017</ele>
        <time>2019-09-19T07:33:55.000Z</time>
      </trkpt>
      <trkpt lat="50.34835" lon="3.52471">
        <ele>49.015</ele>
        <time>2019-09-19T07:33:58.000Z</time>
      </trkpt>
      <trkpt lat="50.34825" lon="3.52473">
        <ele>49.508</ele>
        <time>2019-09-19T07:34:01.000Z</time>
      </trkpt>
      <trkpt lat="50.34815" lon="3.52476">
        <ele>50.172</ele>
        <time>2019-09-19T07:34:04.000Z</time>
      </trkpt>
      <trkpt lat="50.34806" lon="3.52477">
        <ele>50.663</ele>
        <time>2019-09-19T07:34:07.000Z</time>
      </trkpt>
      <trkpt lat="50.34799" lon="3.52478">
        <ele>51.362</ele>
        <time>2019-09-19T07:34:10.000Z</time>
      </trkpt>
      <trkpt lat="50.34791" lon="3.52481">
        <ele>51.696</ele>
        <time>2019-09-19T07:34:13.000Z</time>
      </trkpt>
      <trkpt lat="50.34783" lon="3.52484">
        <ele>52.619</ele>
        <time>2019-09-19T07:34:16.000Z</time>
      </trkpt>
      <trkpt lat="50.34773" lon="3.52486">
        <ele>53.863</ele>
        <time>2019-09-19T07:34:19.000Z</time>
      </trkpt>
      <trkpt lat="50.34765" lon="3.52488">
        <ele>53.731</ele>
        <time>2019-09-19T07:34:22.000Z</time>
      </trkpt>
      <trkpt lat="50.34756" lon="3.52489">
        <ele>53.498</ele>
        <time>2019-09-19T07:34:25.000Z</time>
      </trkpt>
      <trkpt lat="50.34748" lon="3.5249">
        <ele>54.553</ele>
        <time>2019-09-19T07:34:28.000Z</time>
      </trkpt>
      <trkpt lat="50.3474" lon="3.52489">
        <ele>55.595</ele>
        <time>2019-09-19T07:34:31.000Z</time>
      </trkpt>
      <trkpt lat="50.34729" lon="3.52491">
        <ele>56.094</ele>
        <time>2019-09-19T07:34:34.000Z</time>
      </trkpt>
      <trkpt lat="50.34719" lon="3.52495">
        <ele>56.729</ele>
        <time>2019-09-19T07:34:37.000Z</time>
      </trkpt>
      <trkpt lat="50.3471" lon="3.52498">
        <ele>57.648</ele>
        <time>2019-09-19T07:34:40.000Z</time>
      </trkpt>
      <trkpt lat="50.347" lon="3.52502">
        <ele>57.957</ele>
        <time>2019-09-19T07:34:43.000Z</time>
      </trkpt>
      <trkpt lat="50.34691" lon="3.52503">
        <ele>57.94</ele>
        <time>2019-09-19T07:34:46.000Z</time>
      </trkpt>
      <trkpt lat="50.34682" lon="3.52505">
        <ele>57.695</ele>
        <time>2019-09-19T07:34:49.000Z</time>
      </trkpt>
      <trkpt lat="50.34675" lon="3.52508">
        <ele>57.978</ele>
        <time>2019-09-19T07:34:52.000Z</time>
      </trkpt>
      <trkpt lat="50.34667" lon="3.5251">
        <ele>57.84</ele>
        <time>2019-09-19T07:34:55.000Z</time>
      </trkpt>
      <trkpt lat="50.34659" lon="3.52511">
        <ele>58.422</ele>
        <time>2019-09-19T07:34:58.000Z</time>
      </trkpt>
      <trkpt lat="50.3465" lon="3.52514">
        <ele>58.351</ele>
        <time>2019-09-19T07:35:01.000Z</time>
      </trkpt>
      <trkpt lat="50.34643" lon="3.52518">
        <ele>57.688</ele>
        <time>2019-09-19T07:35:04.000Z</time>
      </trkpt>
      <trkpt lat="50.34635" lon="3.5252">
        <ele>57.164</ele>
        <time>2019-09-19T07:35:07.000Z</time>
      </trkpt>
      <trkpt lat="50.34626" lon="3.52522">
        <ele>57.564</ele>
        <time>2019-09-19T07:35:10.000Z</time>
      </trkpt>
      <trkpt lat="50.34617" lon="3.52526">
        <ele>57.746</ele>
        <time>2019-09-19T07:35:13.000Z</time>
      </trkpt>
      <trkpt lat="50.34606" lon="3.52529">
        <ele>58.073</ele>
        <time>2019-09-19T07:35:16.000Z</time>
      </trkpt>
      <trkpt lat="50.34597" lon="3.52534">
        <ele>59.097</ele>
        <time>2019-09-19T07:35:19.000Z</time>
      </trkpt>
      <trkpt lat="50.34588" lon="3.52538">
        <ele>60.085</ele>
        <time>2019-09-19T07:35:22.000Z</time>
      </trkpt>
      <trkpt lat="50.34579" lon="3.52544">
        <ele>61.025</ele>
        <time>2019-09-19T07:35:25.000Z</time>
      </trkpt>
      <trkpt lat="50.34569" lon="3.52548">
        <ele>62.057</ele>
        <time>2019-09-19T07:35:28.000Z</time>
      </trkpt>
      <trkpt lat="50.34561" lon="3.52553">
        <ele>63.028</ele>
        <time>2019-09-19T07:35:31.000Z</time>
      </trkpt>
      <trkpt lat="50.34549" lon="3.5256">
        <ele>63.521</ele>
        <time>2019-09-19T07:35:34.000Z</time>
      </trkpt>
      <trkpt lat="50.34539" lon="3.52565">
        <ele>63.346</ele>
        <time>2019-09-19T07:35:37.000Z</time>
      </trkpt>
      <trkpt lat="50.3453" lon="3.52568">
        <ele>64.4</ele>
        <time>2019-09-19T07:35:40.000Z</time>
      </trkpt>
      <trkpt lat="50.34518" lon="3.52572">
        <ele>65.665</ele>
        <time>2019-09-19T07:35:43.000Z</time>
      </trkpt>
      <trkpt lat="50.34506" lon="3.52578">
        <ele>66.28</ele>
        <time>2019-09-19T07:35:46.000Z</time>
      </trkpt>
      <trkpt lat="50.34494" lon="3.52584">
        <ele>65.651</ele>
        <time>2019-09-19T07:35:49.000Z</time>
      </trkpt>
      <trkpt lat="50.34483" lon="3.52585">
        <ele>63.717</ele>
        <time>2019-09-19T07:35:52.000Z</time>
      </trkpt>
      <trkpt lat="50.3447" lon="3.52586">
        <ele>64.487</ele>
        <time>2019-09-19T07:35:55.000Z</time>
      </trkpt>
      <trkpt lat="50.34458" lon="3.52586">
        <ele>64.44</ele>
        <time>2019-09-19T07:35:58.000Z</time>
      </trkpt>
      <trkpt lat="50.34449" lon="3.52586">
        <ele>63.467</ele>
        <time>2019-09-19T07:36:01.000Z</time>
      </trkpt>
      <trkpt lat="50.34438" lon="3.52585">
        <ele>61.969</ele>
        <time>2019-09-19T07:36:04.000Z</time>
      </trkpt>
      <trkpt lat="50.34429" lon="3.52585">
        <ele>61.19</ele>
        <time>2019-09-19T07:36:07.000Z</time>
      </trkpt>
      <trkpt lat="50.34418" lon="3.52586">
        <ele>60.723</ele>
        <time>2019-09-19T07:36:10.000Z</time>
      </trkpt>
      <trkpt lat="50.34407" lon="3.52586">
        <ele>60.739</ele>
        <time>2019-09-19T07:36:13.000Z</time>
      </trkpt>
      <trkpt lat="50.34396" lon="3.52586">
        <ele>60.811</ele>
        <time>2019-09-19T07:36:16.000Z</time>
      </trkpt>
      <trkpt lat="50.34384" lon="3.52586">
        <ele>60.538</ele>
        <time>2019-09-19T07:36:19.000Z</time>
      </trkpt>
      <trkpt lat="50.34373" lon="3.52587">
        <ele>60.476</ele>
        <time>2019-09-19T07:36:22.000Z</time>
      </trkpt>
      <trkpt lat="50.34362" lon="3.52588">
        <ele>61.219</ele>
        <time>2019-09-19T07:36:25.000Z</time>
      </trkpt>
      <trkpt lat="50.34351" lon="3.52589">
        <ele>61.499</ele>
        <time>2019-09-19T07:36:28.000Z</time>
      </trkpt>
      <trkpt lat="50.34339" lon="3.52588">
        <ele>62.385</ele>
        <time>2019-09-19T07:36:31.000Z</time>
      </trkpt>
      <trkpt lat="50.34327" lon="3.52588">
        <ele>63.006</ele>
        <time>2019-09-19T07:36:34.000Z</time>
      </trkpt>
      <trkpt lat="50.34317" lon="3.52587">
        <ele>62.914</ele>
        <time>2019-09-19T07:36:37.000Z</time>
      </trkpt>
      <trkpt lat="50.34304" lon="3.52585">
        <ele>63.143</ele>
        <time>2019-09-19T07:36:40.000Z</time>
      </trkpt>
      <trkpt lat="50.3429" lon="3.52585">
        <ele>63.514</ele>
        <time>2019-09-19T07:36:43.000Z</time>
      </trkpt>
      <trkpt lat="50.34275" lon="3.52587">
        <ele>63.773</ele>
        <time>2019-09-19T07:36:46.000Z</time>
      </trkpt>
      <trkpt lat="50.34261" lon="3.52586">
        <ele>63.744</ele>
        <time>2019-09-19T07:36:49.000Z</time>
      </trkpt>
      <trkpt lat="50.34248" lon="3.52585">
        <ele>63.105</ele>
        <time>2019-09-19T07:36:52.000Z</time>
      </trkpt>
      <trkpt lat="50.34233" lon="3.52585">
        <ele>61.599</ele>
        <time>2019-09-19T07:36:55.000Z</time>
      </trkpt>
      <trkpt lat="50.3422" lon="3.52585">
        <ele>60.436</ele>
        <time>2019-09-19T07:36:58.000Z</time>
      </trkpt>
      <trkpt lat="50.34207" lon="3.52586">
        <ele>59.496</ele>
        <time>2019-09-19T07:37:01.000Z</time>
      </trkpt>
      <trkpt lat="50.34197" lon="3.52586">
        <ele>60.193</ele>
        <time>2019-09-19T07:37:04.000Z</time>
      </trkpt>
      <trkpt lat="50.34189" lon="3.52586">
        <ele>60.618</ele>
        <time>2019-09-19T07:37:07.000Z</time>
      </trkpt>
      <trkpt lat="50.3418" lon="3.52583">
        <ele>61.633</ele>
        <time>2019-09-19T07:37:10.000Z</time>
      </trkpt>
      <trkpt lat="50.34173" lon="3.52581">
        <ele>63.765</ele>
        <time>2019-09-19T07:37:13.000Z</time>
      </trkpt>
      <trkpt lat="50.3417" lon="3.52581">
        <ele>65.214</ele>
        <time>2019-09-19T07:37:16.000Z</time>
      </trkpt>
      <trkpt lat="50.3417" lon="3.52581">
        <ele>65.462</ele>
        <time>2019-09-19T07:37:22.000Z</time>
      </trkpt>
      <trkpt lat="50.34169" lon="3.52581">
        <ele>66.756</ele>
        <time>2019-09-19T07:37:25.000Z</time>
      </trkpt>
      <trkpt lat="50.34159" lon="3.52586">
        <ele>70.058</ele>
        <time>2019-09-19T07:37:31.000Z</time>
      </trkpt>
      <trkpt lat="50.34155" lon="3.52587">
        <ele>69.524</ele>
        <time>2019-09-19T07:37:34.000Z</time>
      </trkpt>
      <trkpt lat="50.34155" lon="3.52587">
        <ele>69.524</ele>
        <time>2019-09-19T07:37:40.000Z</time>
      </trkpt>
      <trkpt lat="50.34152" lon="3.52593">
        <ele>67.884</ele>
        <time>2019-09-19T07:37:43.000Z</time>
      </trkpt>
      <trkpt lat="50.34146" lon="3.52599">
        <ele>65.926</ele>
        <time>2019-09-19T07:37:46.000Z</time>
      </trkpt>
      <trkpt lat="50.34138" lon="3.526">
        <ele>64.268</ele>
        <time>2019-09-19T07:37:49.000Z</time>
      </trkpt>
      <trkpt lat="50.34128" lon="3.526">
        <ele>62.75</ele>
        <time>2019-09-19T07:37:52.000Z</time>
      </trkpt>
      <trkpt lat="50.34115" lon="3.52604">
        <ele>61.429</ele>
        <time>2019-09-19T07:37:55.000Z</time>
      </trkpt>
      <trkpt lat="50.34102" lon="3.52609">
        <ele>60.466</ele>
        <time>2019-09-19T07:37:58.000Z</time>
      </trkpt>
      <trkpt lat="50.3409" lon="3.52613">
        <ele>60.293</ele>
        <time>2019-09-19T07:38:01.000Z</time>
      </trkpt>
      <trkpt lat="50.34076" lon="3.52617">
        <ele>59.982</ele>
        <time>2019-09-19T07:38:04.000Z</time>
      </trkpt>
      <trkpt lat="50.34062" lon="3.52622">
        <ele>59.628</ele>
        <time>2019-09-19T07:38:07.000Z</time>
      </trkpt>
      <trkpt lat="50.34049" lon="3.52626">
        <ele>58.79</ele>
        <time>2019-09-19T07:38:10.000Z</time>
      </trkpt>
      <trkpt lat="50.34035" lon="3.52631">
        <ele>57.793</ele>
        <time>2019-09-19T07:38:13.000Z</time>
      </trkpt>
      <trkpt lat="50.34022" lon="3.52636">
        <ele>57.198</ele>
        <time>2019-09-19T07:38:16.000Z</time>
      </trkpt>
      <trkpt lat="50.34011" lon="3.5264">
        <ele>57.4</ele>
        <time>2019-09-19T07:38:19.000Z</time>
      </trkpt>
      <trkpt lat="50.33999" lon="3.52645">
        <ele>57.605</ele>
        <time>2019-09-19T07:38:22.000Z</time>
      </trkpt>
      <trkpt lat="50.33985" lon="3.52651">
        <ele>58.549</ele>
        <time>2019-09-19T07:38:25.000Z</time>
      </trkpt>
      <trkpt lat="50.33971" lon="3.52656">
        <ele>58.023</ele>
        <time>2019-09-19T07:38:28.000Z</time>
      </trkpt>
      <trkpt lat="50.33956" lon="3.52661">
        <ele>57.562</ele>
        <time>2019-09-19T07:38:31.000Z</time>
      </trkpt>
      <trkpt lat="50.33942" lon="3.52667">
        <ele>57.236</ele>
        <time>2019-09-19T07:38:34.000Z</time>
      </trkpt>
      <trkpt lat="50.33929" lon="3.52672">
        <ele>56.512</ele>
        <time>2019-09-19T07:38:37.000Z</time>
      </trkpt>
      <trkpt lat="50.33916" lon="3.52678">
        <ele>56.258</ele>
        <time>2019-09-19T07:38:40.000Z</time>
      </trkpt>
      <trkpt lat="50.33905" lon="3.52684">
        <ele>55.836</ele>
        <time>2019-09-19T07:38:43.000Z</time>
      </trkpt>
      <trkpt lat="50.33894" lon="3.52691">
        <ele>55.901</ele>
        <time>2019-09-19T07:38:46.000Z</time>
      </trkpt>
      <trkpt lat="50.33883" lon="3.52699">
        <ele>55.755</ele>
        <time>2019-09-19T07:38:49.000Z</time>
      </trkpt>
      <trkpt lat="50.33871" lon="3.52707">
        <ele>55.499</ele>
        <time>2019-09-19T07:38:52.000Z</time>
      </trkpt>
      <trkpt lat="50.33859" lon="3.52713">
        <ele>55.169</ele>
        <time>2019-09-19T07:38:55.000Z</time>
      </trkpt>
      <trkpt lat="50.33846" lon="3.52719">
        <ele>55.28</ele>
        <time>2019-09-19T07:38:58.000Z</time>
      </trkpt>
      <trkpt lat="50.33833" lon="3.52722">
        <ele>54.999</ele>
        <time>2019-09-19T07:39:01.000Z</time>
      </trkpt>
      <trkpt lat="50.33818" lon="3.52725">
        <ele>54.719</ele>
        <time>2019-09-19T07:39:04.000Z</time>
      </trkpt>
      <trkpt lat="50.33801" lon="3.52727">
        <ele>54.237</ele>
        <time>2019-09-19T07:39:07.000Z</time>
      </trkpt>
      <trkpt lat="50.33783" lon="3.52728">
        <ele>53.787</ele>
        <time>2019-09-19T07:39:10.000Z</time>
      </trkpt>
      <trkpt lat="50.33765" lon="3.52728">
        <ele>53.74</ele>
        <time>2019-09-19T07:39:13.000Z</time>
      </trkpt>
      <trkpt lat="50.33749" lon="3.52729">
        <ele>53.824</ele>
        <time>2019-09-19T07:39:16.000Z</time>
      </trkpt>
      <trkpt lat="50.33732" lon="3.5273">
        <ele>53.548</ele>
        <time>2019-09-19T07:39:19.000Z</time>
      </trkpt>
      <trkpt lat="50.33717" lon="3.52731">
        <ele>53.566</ele>
        <time>2019-09-19T07:39:22.000Z</time>
      </trkpt>
      <trkpt lat="50.33702" lon="3.52733">
        <ele>53.81</ele>
        <time>2019-09-19T07:39:25.000Z</time>
      </trkpt>
      <trkpt lat="50.33687" lon="3.52735">
        <ele>54.214</ele>
        <time>2019-09-19T07:39:28.000Z</time>
      </trkpt>
      <trkpt lat="50.33673" lon="3.52736">
        <ele>55.101</ele>
        <time>2019-09-19T07:39:31.000Z</time>
      </trkpt>
      <trkpt lat="50.3366" lon="3.52737">
        <ele>55.841</ele>
        <time>2019-09-19T07:39:34.000Z</time>
      </trkpt>
      <trkpt lat="50.33646" lon="3.5274">
        <ele>56.816</ele>
        <time>2019-09-19T07:39:37.000Z</time>
      </trkpt>
      <trkpt lat="50.33632" lon="3.52742">
        <ele>57.43</ele>
        <time>2019-09-19T07:39:40.000Z</time>
      </trkpt>
      <trkpt lat="50.33621" lon="3.52743">
        <ele>57.67</ele>
        <time>2019-09-19T07:39:43.000Z</time>
      </trkpt>
      <trkpt lat="50.33607" lon="3.52745">
        <ele>58.447</ele>
        <time>2019-09-19T07:39:46.000Z</time>
      </trkpt>
      <trkpt lat="50.33595" lon="3.52748">
        <ele>59.166</ele>
        <time>2019-09-19T07:39:49.000Z</time>
      </trkpt>
      <trkpt lat="50.33582" lon="3.52752">
        <ele>60.028</ele>
        <time>2019-09-19T07:39:52.000Z</time>
      </trkpt>
      <trkpt lat="50.33568" lon="3.52756">
        <ele>61.638</ele>
        <time>2019-09-19T07:39:55.000Z</time>
      </trkpt>
      <trkpt lat="50.33555" lon="3.52758">
        <ele>62.583</ele>
        <time>2019-09-19T07:39:58.000Z</time>
      </trkpt>
      <trkpt lat="50.33541" lon="3.52762">
        <ele>63.471</ele>
        <time>2019-09-19T07:40:01.000Z</time>
      </trkpt>
      <trkpt lat="50.33527" lon="3.52765">
        <ele>64.526</ele>
        <time>2019-09-19T07:40:04.000Z</time>
      </trkpt>
      <trkpt lat="50.33513" lon="3.52767">
        <ele>64.836</ele>
        <time>2019-09-19T07:40:07.000Z</time>
      </trkpt>
      <trkpt lat="50.33499" lon="3.5277">
        <ele>63.705</ele>
        <time>2019-09-19T07:40:10.000Z</time>
      </trkpt>
      <trkpt lat="50.33484" lon="3.52773">
        <ele>63.369</ele>
        <time>2019-09-19T07:40:13.000Z</time>
      </trkpt>
      <trkpt lat="50.33469" lon="3.52775">
        <ele>62.691</ele>
        <time>2019-09-19T07:40:16.000Z</time>
      </trkpt>
      <trkpt lat="50.33454" lon="3.52775">
        <ele>62.691</ele>
        <time>2019-09-19T07:40:19.000Z</time>
      </trkpt>
      <trkpt lat="50.33439" lon="3.52776">
        <ele>62.572</ele>
        <time>2019-09-19T07:40:22.000Z</time>
      </trkpt>
      <trkpt lat="50.3342" lon="3.5278">
        <ele>63.166</ele>
        <time>2019-09-19T07:40:25.000Z</time>
      </trkpt>
      <trkpt lat="50.33403" lon="3.52783">
        <ele>63.428</ele>
        <time>2019-09-19T07:40:28.000Z</time>
      </trkpt>
      <trkpt lat="50.33384" lon="3.52788">
        <ele>63.614</ele>
        <time>2019-09-19T07:40:31.000Z</time>
      </trkpt>
      <trkpt lat="50.33365" lon="3.52794">
        <ele>63.885</ele>
        <time>2019-09-19T07:40:34.000Z</time>
      </trkpt>
      <trkpt lat="50.33348" lon="3.52798">
        <ele>63.668</ele>
        <time>2019-09-19T07:40:37.000Z</time>
      </trkpt>
      <trkpt lat="50.33331" lon="3.52801">
        <ele>62.511</ele>
        <time>2019-09-19T07:40:40.000Z</time>
      </trkpt>
      <trkpt lat="50.33317" lon="3.52805">
        <ele>61.082</ele>
        <time>2019-09-19T07:40:43.000Z</time>
      </trkpt>
      <trkpt lat="50.33307" lon="3.52809">
        <ele>61.068</ele>
        <time>2019-09-19T07:40:46.000Z</time>
      </trkpt>
      <trkpt lat="50.33301" lon="3.52815">
        <ele>60.638</ele>
        <time>2019-09-19T07:40:49.000Z</time>
      </trkpt>
      <trkpt lat="50.33301" lon="3.5283">
        <ele>58.659</ele>
        <time>2019-09-19T07:40:52.000Z</time>
      </trkpt>
      <trkpt lat="50.33302" lon="3.52842">
        <ele>57.048</ele>
        <time>2019-09-19T07:40:55.000Z</time>
      </trkpt>
      <trkpt lat="50.33299" lon="3.52856">
        <ele>55.712</ele>
        <time>2019-09-19T07:40:58.000Z</time>
      </trkpt>
      <trkpt lat="50.33294" lon="3.52871">
        <ele>53.456</ele>
        <time>2019-09-19T07:41:01.000Z</time>
      </trkpt>
      <trkpt lat="50.3329" lon="3.52886">
        <ele>51.715</ele>
        <time>2019-09-19T07:41:04.000Z</time>
      </trkpt>
      <trkpt lat="50.33286" lon="3.52897">
        <ele>49.543</ele>
        <time>2019-09-19T07:41:07.000Z</time>
      </trkpt>
      <trkpt lat="50.33286" lon="3.52903">
        <ele>47.312</ele>
        <time>2019-09-19T07:41:10.000Z</time>
      </trkpt>
      <trkpt lat="50.33286" lon="3.52903">
        <ele>47.312</ele>
        <time>2019-09-19T07:43:19.000Z</time>
      </trkpt>
      <trkpt lat="50.33287" lon="3.52904">
        <ele>47.741</ele>
        <time>2019-09-19T07:43:22.000Z</time>
      </trkpt>
      <trkpt lat="50.33289" lon="3.52902">
        <ele>48.166</ele>
        <time>2019-09-19T07:43:25.000Z</time>
      </trkpt>
      <trkpt lat="50.33289" lon="3.52902">
        <ele>48.138</ele>
        <time>2019-09-19T07:43:37.000Z</time>
      </trkpt>
      <trkpt lat="50.3329" lon="3.529">
        <ele>48.329</ele>
        <time>2019-09-19T07:43:40.000Z</time>
      </trkpt>
      <trkpt lat="50.33293" lon="3.52891">
        <ele>49.059</ele>
        <time>2019-09-19T07:43:46.000Z</time>
      </trkpt>
      <trkpt lat="50.33297" lon="3.52878">
        <ele>49.197</ele>
        <time>2019-09-19T07:43:52.000Z</time>
      </trkpt>
      <trkpt lat="50.33298" lon="3.5287">
        <ele>49.523</ele>
        <time>2019-09-19T07:43:55.000Z</time>
      </trkpt>
      <trkpt lat="50.333" lon="3.52856">
        <ele>50.214</ele>
        <time>2019-09-19T07:43:58.000Z</time>
      </trkpt>
      <trkpt lat="50.33302" lon="3.52844">
        <ele>51.1</ele>
        <time>2019-09-19T07:44:01.000Z</time>
      </trkpt>
      <trkpt lat="50.33301" lon="3.52831">
        <ele>51.886</ele>
        <time>2019-09-19T07:44:04.000Z</time>
      </trkpt>
      <trkpt lat="50.33295" lon="3.5282">
        <ele>51.581</ele>
        <time>2019-09-19T07:44:07.000Z</time>
      </trkpt>
      <trkpt lat="50.33286" lon="3.5282">
        <ele>50.191</ele>
        <time>2019-09-19T07:44:10.000Z</time>
      </trkpt>
      <trkpt lat="50.33275" lon="3.52825">
        <ele>50.527</ele>
        <time>2019-09-19T07:44:13.000Z</time>
      </trkpt>
      <trkpt lat="50.33264" lon="3.5283">
        <ele>50.918</ele>
        <time>2019-09-19T07:44:16.000Z</time>
      </trkpt>
      <trkpt lat="50.33252" lon="3.52838">
        <ele>51.707</ele>
        <time>2019-09-19T07:44:19.000Z</time>
      </trkpt>
      <trkpt lat="50.33237" lon="3.52847">
        <ele>52.543</ele>
        <time>2019-09-19T07:44:22.000Z</time>
      </trkpt>
      <trkpt lat="50.33221" lon="3.52855">
        <ele>52.817</ele>
        <time>2019-09-19T07:44:25.000Z</time>
      </trkpt>
      <trkpt lat="50.33206" lon="3.52862">
        <ele>53.642</ele>
        <time>2019-09-19T07:44:28.000Z</time>
      </trkpt>
      <trkpt lat="50.33191" lon="3.52869">
        <ele>54.824</ele>
        <time>2019-09-19T07:44:31.000Z</time>
      </trkpt>
      <trkpt lat="50.33173" lon="3.52874">
        <ele>55.324</ele>
        <time>2019-09-19T07:44:34.000Z</time>
      </trkpt>
      <trkpt lat="50.33154" lon="3.52876">
        <ele>54.211</ele>
        <time>2019-09-19T07:44:37.000Z</time>
      </trkpt>
      <trkpt lat="50.3314" lon="3.52877">
        <ele>53.641</ele>
        <time>2019-09-19T07:44:40.000Z</time>
      </trkpt>
      <trkpt lat="50.33128" lon="3.52876">
        <ele>53.412</ele>
        <time>2019-09-19T07:44:43.000Z</time>
      </trkpt>
      <trkpt lat="50.33117" lon="3.5287">
        <ele>53.272</ele>
        <time>2019-09-19T07:44:46.000Z</time>
      </trkpt>
      <trkpt lat="50.33106" lon="3.52863">
        <ele>52.739</ele>
        <time>2019-09-19T07:44:49.000Z</time>
      </trkpt>
      <trkpt lat="50.33096" lon="3.52857">
        <ele>52.232</ele>
        <time>2019-09-19T07:44:52.000Z</time>
      </trkpt>
      <trkpt lat="50.33087" lon="3.52851">
        <ele>53.057</ele>
        <time>2019-09-19T07:44:55.000Z</time>
      </trkpt>
      <trkpt lat="50.33077" lon="3.52844">
        <ele>53.27</ele>
        <time>2019-09-19T07:44:58.000Z</time>
      </trkpt>
      <trkpt lat="50.33065" lon="3.52838">
        <ele>54.845</ele>
        <time>2019-09-19T07:45:01.000Z</time>
      </trkpt>
      <trkpt lat="50.33057" lon="3.52831">
        <ele>56.051</ele>
        <time>2019-09-19T07:45:04.000Z</time>
      </trkpt>
      <trkpt lat="50.33049" lon="3.52824">
        <ele>56.512</ele>
        <time>2019-09-19T07:45:07.000Z</time>
      </trkpt>
      <trkpt lat="50.3304" lon="3.52818">
        <ele>57.516</ele>
        <time>2019-09-19T07:45:10.000Z</time>
      </trkpt>
      <trkpt lat="50.33032" lon="3.5281">
        <ele>58.337</ele>
        <time>2019-09-19T07:45:13.000Z</time>
      </trkpt>
      <trkpt lat="50.33019" lon="3.52801">
        <ele>58.362</ele>
        <time>2019-09-19T07:45:16.000Z</time>
      </trkpt>
      <trkpt lat="50.33006" lon="3.52791">
        <ele>58.066</ele>
        <time>2019-09-19T07:45:19.000Z</time>
      </trkpt>
      <trkpt lat="50.32992" lon="3.52783">
        <ele>58.042</ele>
        <time>2019-09-19T07:45:22.000Z</time>
      </trkpt>
      <trkpt lat="50.32979" lon="3.52777">
        <ele>57.925</ele>
        <time>2019-09-19T07:45:25.000Z</time>
      </trkpt>
      <trkpt lat="50.32967" lon="3.52773">
        <ele>57.024</ele>
        <time>2019-09-19T07:45:28.000Z</time>
      </trkpt>
      <trkpt lat="50.32955" lon="3.5277">
        <ele>58.32</ele>
        <time>2019-09-19T07:45:31.000Z</time>
      </trkpt>
      <trkpt lat="50.32943" lon="3.52761">
        <ele>58.086</ele>
        <time>2019-09-19T07:45:34.000Z</time>
      </trkpt>
      <trkpt lat="50.32932" lon="3.52753">
        <ele>57.357</ele>
        <time>2019-09-19T07:45:37.000Z</time>
      </trkpt>
      <trkpt lat="50.32918" lon="3.52747">
        <ele>54.998</ele>
        <time>2019-09-19T07:45:40.000Z</time>
      </trkpt>
      <trkpt lat="50.32906" lon="3.52741">
        <ele>53.705</ele>
        <time>2019-09-19T07:45:43.000Z</time>
      </trkpt>
      <trkpt lat="50.32893" lon="3.52735">
        <ele>51.796</ele>
        <time>2019-09-19T07:45:46.000Z</time>
      </trkpt>
      <trkpt lat="50.32881" lon="3.52728">
        <ele>51.408</ele>
        <time>2019-09-19T07:45:49.000Z</time>
      </trkpt>
      <trkpt lat="50.3287" lon="3.52721">
        <ele>50.43</ele>
        <time>2019-09-19T07:45:52.000Z</time>
      </trkpt>
      <trkpt lat="50.32859" lon="3.52715">
        <ele>50.149</ele>
        <time>2019-09-19T07:45:55.000Z</time>
      </trkpt>
      <trkpt lat="50.32847" lon="3.52709">
        <ele>50.207</ele>
        <time>2019-09-19T07:45:58.000Z</time>
      </trkpt>
      <trkpt lat="50.32835" lon="3.52705">
        <ele>51.074</ele>
        <time>2019-09-19T07:46:01.000Z</time>
      </trkpt>
      <trkpt lat="50.32827" lon="3.52704">
        <ele>51.502</ele>
        <time>2019-09-19T07:46:04.000Z</time>
      </trkpt>
      <trkpt lat="50.32812" lon="3.52697">
        <ele>51.402</ele>
        <time>2019-09-19T07:46:07.000Z</time>
      </trkpt>
      <trkpt lat="50.328" lon="3.52693">
        <ele>49.973</ele>
        <time>2019-09-19T07:46:10.000Z</time>
      </trkpt>
      <trkpt lat="50.32789" lon="3.52689">
        <ele>49.801</ele>
        <time>2019-09-19T07:46:13.000Z</time>
      </trkpt>
      <trkpt lat="50.32777" lon="3.52686">
        <ele>49.869</ele>
        <time>2019-09-19T07:46:16.000Z</time>
      </trkpt>
      <trkpt lat="50.32765" lon="3.52683">
        <ele>50.512</ele>
        <time>2019-09-19T07:46:19.000Z</time>
      </trkpt>
      <trkpt lat="50.32751" lon="3.5268">
        <ele>51.778</ele>
        <time>2019-09-19T07:46:22.000Z</time>
      </trkpt>
      <trkpt lat="50.32737" lon="3.52677">
        <ele>52.216</ele>
        <time>2019-09-19T07:46:25.000Z</time>
      </trkpt>
      <trkpt lat="50.32723" lon="3.52673">
        <ele>51.848</ele>
        <time>2019-09-19T07:46:28.000Z</time>
      </trkpt>
      <trkpt lat="50.32708" lon="3.52669">
        <ele>51.897</ele>
        <time>2019-09-19T07:46:31.000Z</time>
      </trkpt>
      <trkpt lat="50.32693" lon="3.52664">
        <ele>52.546</ele>
        <time>2019-09-19T07:46:34.000Z</time>
      </trkpt>
      <trkpt lat="50.32677" lon="3.5266">
        <ele>52.935</ele>
        <time>2019-09-19T07:46:37.000Z</time>
      </trkpt>
      <trkpt lat="50.32662" lon="3.52655">
        <ele>52.934</ele>
        <time>2019-09-19T07:46:40.000Z</time>
      </trkpt>
      <trkpt lat="50.32645" lon="3.52655">
        <ele>53.956</ele>
        <time>2019-09-19T07:46:43.000Z</time>
      </trkpt>
      <trkpt lat="50.32629" lon="3.52656">
        <ele>53.333</ele>
        <time>2019-09-19T07:46:46.000Z</time>
      </trkpt>
      <trkpt lat="50.32611" lon="3.52664">
        <ele>52.157</ele>
        <time>2019-09-19T07:46:49.000Z</time>
      </trkpt>
      <trkpt lat="50.32593" lon="3.52671">
        <ele>51.076</ele>
        <time>2019-09-19T07:46:52.000Z</time>
      </trkpt>
      <trkpt lat="50.32577" lon="3.52677">
        <ele>50.366</ele>
        <time>2019-09-19T07:46:55.000Z</time>
      </trkpt>
      <trkpt lat="50.32562" lon="3.52685">
        <ele>49.743</ele>
        <time>2019-09-19T07:46:58.000Z</time>
      </trkpt>
      <trkpt lat="50.32547" lon="3.5269">
        <ele>48.899</ele>
        <time>2019-09-19T07:47:01.000Z</time>
      </trkpt>
      <trkpt lat="50.32532" lon="3.52696">
        <ele>48.125</ele>
        <time>2019-09-19T07:47:04.000Z</time>
      </trkpt>
      <trkpt lat="50.32518" lon="3.527">
        <ele>46.873</ele>
        <time>2019-09-19T07:47:07.000Z</time>
      </trkpt>
      <trkpt lat="50.32503" lon="3.52704">
        <ele>45.865</ele>
        <time>2019-09-19T07:47:10.000Z</time>
      </trkpt>
      <trkpt lat="50.32488" lon="3.52709">
        <ele>44.562</ele>
        <time>2019-09-19T07:47:13.000Z</time>
      </trkpt>
      <trkpt lat="50.32474" lon="3.52713">
        <ele>43.966</ele>
        <time>2019-09-19T07:47:16.000Z</time>
      </trkpt>
      <trkpt lat="50.32458" lon="3.52717">
        <ele>43.913</ele>
        <time>2019-09-19T07:47:19.000Z</time>
      </trkpt>
      <trkpt lat="50.32443" lon="3.5272">
        <ele>43.195</ele>
        <time>2019-09-19T07:47:22.000Z</time>
      </trkpt>
      <trkpt lat="50.32428" lon="3.52723">
        <ele>41.321</ele>
        <time>2019-09-19T07:47:25.000Z</time>
      </trkpt>
      <trkpt lat="50.32413" lon="3.52726">
        <ele>40.509</ele>
        <time>2019-09-19T07:47:28.000Z</time>
      </trkpt>
      <trkpt lat="50.32397" lon="3.52728">
        <ele>40.683</ele>
        <time>2019-09-19T07:47:31.000Z</time>
      </trkpt>
      <trkpt lat="50.32381" lon="3.5273">
        <ele>41.112</ele>
        <time>2019-09-19T07:47:34.000Z</time>
      </trkpt>
      <trkpt lat="50.32366" lon="3.52731">
        <ele>41.496</ele>
        <time>2019-09-19T07:47:37.000Z</time>
      </trkpt>
      <trkpt lat="50.32351" lon="3.52732">
        <ele>41.17</ele>
        <time>2019-09-19T07:47:40.000Z</time>
      </trkpt>
      <trkpt lat="50.32336" lon="3.52732">
        <ele>40.342</ele>
        <time>2019-09-19T07:47:43.000Z</time>
      </trkpt>
      <trkpt lat="50.32322" lon="3.52731">
        <ele>40.143</ele>
        <time>2019-09-19T07:47:46.000Z</time>
      </trkpt>
      <trkpt lat="50.32309" lon="3.5273">
        <ele>40.094</ele>
        <time>2019-09-19T07:47:49.000Z</time>
      </trkpt>
      <trkpt lat="50.32296" lon="3.5273">
        <ele>40.065</ele>
        <time>2019-09-19T07:47:52.000Z</time>
      </trkpt>
      <trkpt lat="50.32282" lon="3.52729">
        <ele>40.237</ele>
        <time>2019-09-19T07:47:55.000Z</time>
      </trkpt>
      <trkpt lat="50.32267" lon="3.52729">
        <ele>40.169</ele>
        <time>2019-09-19T07:47:58.000Z</time>
      </trkpt>
      <trkpt lat="50.32253" lon="3.52729">
        <ele>40.084</ele>
        <time>2019-09-19T07:48:01.000Z</time>
      </trkpt>
      <trkpt lat="50.32238" lon="3.52729">
        <ele>40.386</ele>
        <time>2019-09-19T07:48:04.000Z</time>
      </trkpt>
      <trkpt lat="50.32225" lon="3.5273">
        <ele>40.689</ele>
        <time>2019-09-19T07:48:07.000Z</time>
      </trkpt>
      <trkpt lat="50.32212" lon="3.52729">
        <ele>41.136</ele>
        <time>2019-09-19T07:48:10.000Z</time>
      </trkpt>
      <trkpt lat="50.32197" lon="3.52731">
        <ele>41.26</ele>
        <time>2019-09-19T07:48:13.000Z</time>
      </trkpt>
      <trkpt lat="50.32182" lon="3.52734">
        <ele>41.715</ele>
        <time>2019-09-19T07:48:16.000Z</time>
      </trkpt>
      <trkpt lat="50.32167" lon="3.5274">
        <ele>41.998</ele>
        <time>2019-09-19T07:48:19.000Z</time>
      </trkpt>
      <trkpt lat="50.32151" lon="3.52742">
        <ele>40.693</ele>
        <time>2019-09-19T07:48:22.000Z</time>
      </trkpt>
      <trkpt lat="50.32138" lon="3.52746">
        <ele>39.884</ele>
        <time>2019-09-19T07:48:25.000Z</time>
      </trkpt>
      <trkpt lat="50.32126" lon="3.52749">
        <ele>39.693</ele>
        <time>2019-09-19T07:48:28.000Z</time>
      </trkpt>
      <trkpt lat="50.32114" lon="3.52753">
        <ele>39.751</ele>
        <time>2019-09-19T07:48:31.000Z</time>
      </trkpt>
      <trkpt lat="50.321" lon="3.52756">
        <ele>39.813</ele>
        <time>2019-09-19T07:48:34.000Z</time>
      </trkpt>
      <trkpt lat="50.32087" lon="3.52759">
        <ele>39.887</ele>
        <time>2019-09-19T07:48:37.000Z</time>
      </trkpt>
      <trkpt lat="50.32073" lon="3.52763">
        <ele>39.946</ele>
        <time>2019-09-19T07:48:40.000Z</time>
      </trkpt>
      <trkpt lat="50.32061" lon="3.52765">
        <ele>39.824</ele>
        <time>2019-09-19T07:48:43.000Z</time>
      </trkpt>
      <trkpt lat="50.32048" lon="3.52769">
        <ele>39.81</ele>
        <time>2019-09-19T07:48:46.000Z</time>
      </trkpt>
      <trkpt lat="50.32036" lon="3.52771">
        <ele>39.753</ele>
        <time>2019-09-19T07:48:49.000Z</time>
      </trkpt>
      <trkpt lat="50.32022" lon="3.52775">
        <ele>40.062</ele>
        <time>2019-09-19T07:48:52.000Z</time>
      </trkpt>
      <trkpt lat="50.32009" lon="3.52777">
        <ele>40.001</ele>
        <time>2019-09-19T07:48:55.000Z</time>
      </trkpt>
      <trkpt lat="50.31996" lon="3.52781">
        <ele>39.922</ele>
        <time>2019-09-19T07:48:58.000Z</time>
      </trkpt>
      <trkpt lat="50.31983" lon="3.52787">
        <ele>40.058</ele>
        <time>2019-09-19T07:49:01.000Z</time>
      </trkpt>
      <trkpt lat="50.31969" lon="3.52796">
        <ele>39.595</ele>
        <time>2019-09-19T07:49:04.000Z</time>
      </trkpt>
      <trkpt lat="50.31956" lon="3.52806">
        <ele>39.481</ele>
        <time>2019-09-19T07:49:07.000Z</time>
      </trkpt>
      <trkpt lat="50.31942" lon="3.52816">
        <ele>39.535</ele>
        <time>2019-09-19T07:49:10.000Z</time>
      </trkpt>
      <trkpt lat="50.3193" lon="3.52825">
        <ele>39</ele>
        <time>2019-09-19T07:49:13.000Z</time>
      </trkpt>
      <trkpt lat="50.31917" lon="3.52829">
        <ele>39.137</ele>
        <time>2019-09-19T07:49:16.000Z</time>
      </trkpt>
      <trkpt lat="50.31904" lon="3.52831">
        <ele>39.284</ele>
        <time>2019-09-19T07:49:19.000Z</time>
      </trkpt>
      <trkpt lat="50.31892" lon="3.52832">
        <ele>39.148</ele>
        <time>2019-09-19T07:49:22.000Z</time>
      </trkpt>
      <trkpt lat="50.3188" lon="3.52834">
        <ele>39.124</ele>
        <time>2019-09-19T07:49:25.000Z</time>
      </trkpt>
      <trkpt lat="50.31868" lon="3.52837">
        <ele>39.485</ele>
        <time>2019-09-19T07:49:28.000Z</time>
      </trkpt>
      <trkpt lat="50.31856" lon="3.5284">
        <ele>39.564</ele>
        <time>2019-09-19T07:49:31.000Z</time>
      </trkpt>
      <trkpt lat="50.31844" lon="3.52847">
        <ele>40.14</ele>
        <time>2019-09-19T07:49:34.000Z</time>
      </trkpt>
      <trkpt lat="50.31833" lon="3.52858">
        <ele>40.546</ele>
        <time>2019-09-19T07:49:37.000Z</time>
      </trkpt>
      <trkpt lat="50.31821" lon="3.52868">
        <ele>40.765</ele>
        <time>2019-09-19T07:49:40.000Z</time>
      </trkpt>
      <trkpt lat="50.3181" lon="3.52878">
        <ele>41.093</ele>
        <time>2019-09-19T07:49:43.000Z</time>
      </trkpt>
      <trkpt lat="50.31799" lon="3.52887">
        <ele>41.622</ele>
        <time>2019-09-19T07:49:46.000Z</time>
      </trkpt>
      <trkpt lat="50.31787" lon="3.52897">
        <ele>42.011</ele>
        <time>2019-09-19T07:49:49.000Z</time>
      </trkpt>
      <trkpt lat="50.31775" lon="3.52908">
        <ele>42.61</ele>
        <time>2019-09-19T07:49:52.000Z</time>
      </trkpt>
      <trkpt lat="50.31763" lon="3.52918">
        <ele>43.029</ele>
        <time>2019-09-19T07:49:55.000Z</time>
      </trkpt>
      <trkpt lat="50.31752" lon="3.52928">
        <ele>42.912</ele>
        <time>2019-09-19T07:49:58.000Z</time>
      </trkpt>
      <trkpt lat="50.31739" lon="3.52939">
        <ele>42.854</ele>
        <time>2019-09-19T07:50:01.000Z</time>
      </trkpt>
      <trkpt lat="50.31727" lon="3.5295">
        <ele>42.84</ele>
        <time>2019-09-19T07:50:04.000Z</time>
      </trkpt>
      <trkpt lat="50.31715" lon="3.52963">
        <ele>42.565</ele>
        <time>2019-09-19T07:50:07.000Z</time>
      </trkpt>
      <trkpt lat="50.31706" lon="3.52976">
        <ele>42.452</ele>
        <time>2019-09-19T07:50:10.000Z</time>
      </trkpt>
      <trkpt lat="50.31696" lon="3.5299">
        <ele>42.882</ele>
        <time>2019-09-19T07:50:13.000Z</time>
      </trkpt>
      <trkpt lat="50.31687" lon="3.53002">
        <ele>43.35</ele>
        <time>2019-09-19T07:50:16.000Z</time>
      </trkpt>
      <trkpt lat="50.31678" lon="3.53014">
        <ele>43.715</ele>
        <time>2019-09-19T07:50:19.000Z</time>
      </trkpt>
      <trkpt lat="50.31668" lon="3.53025">
        <ele>43.632</ele>
        <time>2019-09-19T07:50:22.000Z</time>
      </trkpt>
      <trkpt lat="50.31656" lon="3.53036">
        <ele>43.49</ele>
        <time>2019-09-19T07:50:25.000Z</time>
      </trkpt>
      <trkpt lat="50.31645" lon="3.53045">
        <ele>42.859</ele>
        <time>2019-09-19T07:50:28.000Z</time>
      </trkpt>
      <trkpt lat="50.31633" lon="3.53055">
        <ele>41.997</ele>
        <time>2019-09-19T07:50:31.000Z</time>
      </trkpt>
      <trkpt lat="50.31622" lon="3.53065">
        <ele>42.064</ele>
        <time>2019-09-19T07:50:34.000Z</time>
      </trkpt>
      <trkpt lat="50.31611" lon="3.53076">
        <ele>41.72</ele>
        <time>2019-09-19T07:50:37.000Z</time>
      </trkpt>
      <trkpt lat="50.316" lon="3.5309">
        <ele>40.97</ele>
        <time>2019-09-19T07:50:40.000Z</time>
      </trkpt>
      <trkpt lat="50.31589" lon="3.53105">
        <ele>40.557</ele>
        <time>2019-09-19T07:50:43.000Z</time>
      </trkpt>
      <trkpt lat="50.3158" lon="3.5312">
        <ele>40.493</ele>
        <time>2019-09-19T07:50:46.000Z</time>
      </trkpt>
      <trkpt lat="50.31571" lon="3.53137">
        <ele>40.34</ele>
        <time>2019-09-19T07:50:49.000Z</time>
      </trkpt>
      <trkpt lat="50.31562" lon="3.53154">
        <ele>40.197</ele>
        <time>2019-09-19T07:50:52.000Z</time>
      </trkpt>
      <trkpt lat="50.31552" lon="3.53171">
        <ele>40.12</ele>
        <time>2019-09-19T07:50:55.000Z</time>
      </trkpt>
      <trkpt lat="50.31542" lon="3.53186">
        <ele>40.346</ele>
        <time>2019-09-19T07:50:58.000Z</time>
      </trkpt>
      <trkpt lat="50.31532" lon="3.53201">
        <ele>40.561</ele>
        <time>2019-09-19T07:51:01.000Z</time>
      </trkpt>
      <trkpt lat="50.31522" lon="3.53214">
        <ele>40.606</ele>
        <time>2019-09-19T07:51:04.000Z</time>
      </trkpt>
      <trkpt lat="50.31511" lon="3.53228">
        <ele>40.858</ele>
        <time>2019-09-19T07:51:07.000Z</time>
      </trkpt>
      <trkpt lat="50.31501" lon="3.53241">
        <ele>41.027</ele>
        <time>2019-09-19T07:51:10.000Z</time>
      </trkpt>
      <trkpt lat="50.31492" lon="3.53254">
        <ele>41.062</ele>
        <time>2019-09-19T07:51:13.000Z</time>
      </trkpt>
      <trkpt lat="50.31482" lon="3.53267">
        <ele>41.485</ele>
        <time>2019-09-19T07:51:16.000Z</time>
      </trkpt>
      <trkpt lat="50.31471" lon="3.53281">
        <ele>42.137</ele>
        <time>2019-09-19T07:51:19.000Z</time>
      </trkpt>
      <trkpt lat="50.31461" lon="3.53294">
        <ele>43.58</ele>
        <time>2019-09-19T07:51:22.000Z</time>
      </trkpt>
      <trkpt lat="50.31449" lon="3.53306">
        <ele>44.459</ele>
        <time>2019-09-19T07:51:25.000Z</time>
      </trkpt>
      <trkpt lat="50.31437" lon="3.53315">
        <ele>45.043</ele>
        <time>2019-09-19T07:51:28.000Z</time>
      </trkpt>
      <trkpt lat="50.31426" lon="3.53323">
        <ele>45.01</ele>
        <time>2019-09-19T07:51:31.000Z</time>
      </trkpt>
      <trkpt lat="50.31415" lon="3.53332">
        <ele>44.393</ele>
        <time>2019-09-19T07:51:34.000Z</time>
      </trkpt>
      <trkpt lat="50.31405" lon="3.53341">
        <ele>43.982</ele>
        <time>2019-09-19T07:51:37.000Z</time>
      </trkpt>
      <trkpt lat="50.31395" lon="3.53349">
        <ele>44.128</ele>
        <time>2019-09-19T07:51:40.000Z</time>
      </trkpt>
      <trkpt lat="50.31387" lon="3.53358">
        <ele>44.573</ele>
        <time>2019-09-19T07:51:43.000Z</time>
      </trkpt>
      <trkpt lat="50.31379" lon="3.53367">
        <ele>44.606</ele>
        <time>2019-09-19T07:51:46.000Z</time>
      </trkpt>
      <trkpt lat="50.31371" lon="3.53375">
        <ele>44.868</ele>
        <time>2019-09-19T07:51:49.000Z</time>
      </trkpt>
      <trkpt lat="50.31364" lon="3.53383">
        <ele>45.19</ele>
        <time>2019-09-19T07:51:52.000Z</time>
      </trkpt>
      <trkpt lat="50.31357" lon="3.53391">
        <ele>45.392</ele>
        <time>2019-09-19T07:51:55.000Z</time>
      </trkpt>
      <trkpt lat="50.3135" lon="3.53398">
        <ele>45.033</ele>
        <time>2019-09-19T07:51:58.000Z</time>
      </trkpt>
      <trkpt lat="50.31344" lon="3.53406">
        <ele>45.478</ele>
        <time>2019-09-19T07:52:01.000Z</time>
      </trkpt>
      <trkpt lat="50.31336" lon="3.53412">
        <ele>45.829</ele>
        <time>2019-09-19T07:52:04.000Z</time>
      </trkpt>
      <trkpt lat="50.31328" lon="3.5342">
        <ele>45.89</ele>
        <time>2019-09-19T07:52:07.000Z</time>
      </trkpt>
      <trkpt lat="50.31319" lon="3.53426">
        <ele>46.073</ele>
        <time>2019-09-19T07:52:10.000Z</time>
      </trkpt>
      <trkpt lat="50.3131" lon="3.53432">
        <ele>46.249</ele>
        <time>2019-09-19T07:52:13.000Z</time>
      </trkpt>
      <trkpt lat="50.31301" lon="3.53439">
        <ele>46.054</ele>
        <time>2019-09-19T07:52:16.000Z</time>
      </trkpt>
      <trkpt lat="50.31291" lon="3.53446">
        <ele>45.967</ele>
        <time>2019-09-19T07:52:19.000Z</time>
      </trkpt>
      <trkpt lat="50.31281" lon="3.53454">
        <ele>45.599</ele>
        <time>2019-09-19T07:52:22.000Z</time>
      </trkpt>
      <trkpt lat="50.3127" lon="3.53463">
        <ele>45.6</ele>
        <time>2019-09-19T07:52:25.000Z</time>
      </trkpt>
      <trkpt lat="50.31261" lon="3.53471">
        <ele>45.879</ele>
        <time>2019-09-19T07:52:28.000Z</time>
      </trkpt>
      <trkpt lat="50.31251" lon="3.53479">
        <ele>46.211</ele>
        <time>2019-09-19T07:52:31.000Z</time>
      </trkpt>
      <trkpt lat="50.31242" lon="3.53488">
        <ele>46.587</ele>
        <time>2019-09-19T07:52:34.000Z</time>
      </trkpt>
      <trkpt lat="50.31233" lon="3.53497">
        <ele>47.433</ele>
        <time>2019-09-19T07:52:37.000Z</time>
      </trkpt>
      <trkpt lat="50.31224" lon="3.53505">
        <ele>47.882</ele>
        <time>2019-09-19T07:52:40.000Z</time>
      </trkpt>
      <trkpt lat="50.31216" lon="3.53514">
        <ele>48.624</ele>
        <time>2019-09-19T07:52:43.000Z</time>
      </trkpt>
      <trkpt lat="50.31209" lon="3.53522">
        <ele>49.608</ele>
        <time>2019-09-19T07:52:46.000Z</time>
      </trkpt>
      <trkpt lat="50.31202" lon="3.53529">
        <ele>50.239</ele>
        <time>2019-09-19T07:52:49.000Z</time>
      </trkpt>
      <trkpt lat="50.31195" lon="3.53537">
        <ele>50.591</ele>
        <time>2019-09-19T07:52:52.000Z</time>
      </trkpt>
      <trkpt lat="50.31188" lon="3.53543">
        <ele>50.89</ele>
        <time>2019-09-19T07:52:55.000Z</time>
      </trkpt>
      <trkpt lat="50.31181" lon="3.53551">
        <ele>51.431</ele>
        <time>2019-09-19T07:52:58.000Z</time>
      </trkpt>
      <trkpt lat="50.31174" lon="3.53558">
        <ele>51.817</ele>
        <time>2019-09-19T07:53:01.000Z</time>
      </trkpt>
      <trkpt lat="50.31167" lon="3.53565">
        <ele>51.749</ele>
        <time>2019-09-19T07:53:04.000Z</time>
      </trkpt>
      <trkpt lat="50.31159" lon="3.53573">
        <ele>52.074</ele>
        <time>2019-09-19T07:53:07.000Z</time>
      </trkpt>
      <trkpt lat="50.31152" lon="3.53581">
        <ele>52.024</ele>
        <time>2019-09-19T07:53:10.000Z</time>
      </trkpt>
      <trkpt lat="50.31145" lon="3.53588">
        <ele>52.741</ele>
        <time>2019-09-19T07:53:13.000Z</time>
      </trkpt>
      <trkpt lat="50.31138" lon="3.53595">
        <ele>52.818</ele>
        <time>2019-09-19T07:53:16.000Z</time>
      </trkpt>
      <trkpt lat="50.3113" lon="3.53603">
        <ele>53.207</ele>
        <time>2019-09-19T07:53:19.000Z</time>
      </trkpt>
      <trkpt lat="50.31123" lon="3.5361">
        <ele>53.608</ele>
        <time>2019-09-19T07:53:22.000Z</time>
      </trkpt>
      <trkpt lat="50.31114" lon="3.53616">
        <ele>53.793</ele>
        <time>2019-09-19T07:53:25.000Z</time>
      </trkpt>
      <trkpt lat="50.31106" lon="3.53623">
        <ele>53.888</ele>
        <time>2019-09-19T07:53:28.000Z</time>
      </trkpt>
      <trkpt lat="50.31097" lon="3.53629">
        <ele>53.821</ele>
        <time>2019-09-19T07:53:31.000Z</time>
      </trkpt>
      <trkpt lat="50.31088" lon="3.53634">
        <ele>53.972</ele>
        <time>2019-09-19T07:53:34.000Z</time>
      </trkpt>
      <trkpt lat="50.3108" lon="3.53638">
        <ele>54.529</ele>
        <time>2019-09-19T07:53:37.000Z</time>
      </trkpt>
      <trkpt lat="50.31072" lon="3.53642">
        <ele>54.959</ele>
        <time>2019-09-19T07:53:40.000Z</time>
      </trkpt>
      <trkpt lat="50.31064" lon="3.53645">
        <ele>55.685</ele>
        <time>2019-09-19T07:53:43.000Z</time>
      </trkpt>
      <trkpt lat="50.31057" lon="3.53649">
        <ele>56.064</ele>
        <time>2019-09-19T07:53:46.000Z</time>
      </trkpt>
      <trkpt lat="50.31049" lon="3.53653">
        <ele>55.873</ele>
        <time>2019-09-19T07:53:49.000Z</time>
      </trkpt>
      <trkpt lat="50.3104" lon="3.53657">
        <ele>56.002</ele>
        <time>2019-09-19T07:53:52.000Z</time>
      </trkpt>
      <trkpt lat="50.31032" lon="3.5366">
        <ele>56.247</ele>
        <time>2019-09-19T07:53:55.000Z</time>
      </trkpt>
      <trkpt lat="50.31024" lon="3.53664">
        <ele>56.663</ele>
        <time>2019-09-19T07:53:58.000Z</time>
      </trkpt>
      <trkpt lat="50.31016" lon="3.53668">
        <ele>57.309</ele>
        <time>2019-09-19T07:54:01.000Z</time>
      </trkpt>
      <trkpt lat="50.31008" lon="3.53672">
        <ele>57.552</ele>
        <time>2019-09-19T07:54:04.000Z</time>
      </trkpt>
      <trkpt lat="50.31" lon="3.53675">
        <ele>57.691</ele>
        <time>2019-09-19T07:54:07.000Z</time>
      </trkpt>
      <trkpt lat="50.30991" lon="3.53679">
        <ele>57.453</ele>
        <time>2019-09-19T07:54:10.000Z</time>
      </trkpt>
      <trkpt lat="50.30983" lon="3.53683">
        <ele>57.575</ele>
        <time>2019-09-19T07:54:13.000Z</time>
      </trkpt>
      <trkpt lat="50.30974" lon="3.53688">
        <ele>57.855</ele>
        <time>2019-09-19T07:54:16.000Z</time>
      </trkpt>
      <trkpt lat="50.30965" lon="3.53693">
        <ele>58.415</ele>
        <time>2019-09-19T07:54:19.000Z</time>
      </trkpt>
      <trkpt lat="50.30956" lon="3.53698">
        <ele>59.002</ele>
        <time>2019-09-19T07:54:22.000Z</time>
      </trkpt>
      <trkpt lat="50.30946" lon="3.53704">
        <ele>59.553</ele>
        <time>2019-09-19T07:54:25.000Z</time>
      </trkpt>
      <trkpt lat="50.30937" lon="3.5371">
        <ele>60.177</ele>
        <time>2019-09-19T07:54:28.000Z</time>
      </trkpt>
      <trkpt lat="50.30929" lon="3.53718">
        <ele>60.651</ele>
        <time>2019-09-19T07:54:31.000Z</time>
      </trkpt>
      <trkpt lat="50.3092" lon="3.53725">
        <ele>60.85</ele>
        <time>2019-09-19T07:54:34.000Z</time>
      </trkpt>
      <trkpt lat="50.30911" lon="3.53734">
        <ele>60.509</ele>
        <time>2019-09-19T07:54:37.000Z</time>
      </trkpt>
      <trkpt lat="50.30903" lon="3.53742">
        <ele>60.842</ele>
        <time>2019-09-19T07:54:40.000Z</time>
      </trkpt>
      <trkpt lat="50.30895" lon="3.53749">
        <ele>61.483</ele>
        <time>2019-09-19T07:54:43.000Z</time>
      </trkpt>
      <trkpt lat="50.30886" lon="3.53758">
        <ele>61.754</ele>
        <time>2019-09-19T07:54:46.000Z</time>
      </trkpt>
      <trkpt lat="50.30878" lon="3.53766">
        <ele>61.637</ele>
        <time>2019-09-19T07:54:49.000Z</time>
      </trkpt>
      <trkpt lat="50.3087" lon="3.53772">
        <ele>61.529</ele>
        <time>2019-09-19T07:54:52.000Z</time>
      </trkpt>
      <trkpt lat="50.30861" lon="3.5378">
        <ele>61.213</ele>
        <time>2019-09-19T07:54:55.000Z</time>
      </trkpt>
      <trkpt lat="50.30854" lon="3.53786">
        <ele>61.476</ele>
        <time>2019-09-19T07:54:58.000Z</time>
      </trkpt>
      <trkpt lat="50.30846" lon="3.53791">
        <ele>62.071</ele>
        <time>2019-09-19T07:55:01.000Z</time>
      </trkpt>
      <trkpt lat="50.30838" lon="3.53795">
        <ele>62.174</ele>
        <time>2019-09-19T07:55:04.000Z</time>
      </trkpt>
      <trkpt lat="50.3083" lon="3.538">
        <ele>62.172</ele>
        <time>2019-09-19T07:55:07.000Z</time>
      </trkpt>
      <trkpt lat="50.30822" lon="3.53803">
        <ele>61.958</ele>
        <time>2019-09-19T07:55:10.000Z</time>
      </trkpt>
      <trkpt lat="50.30814" lon="3.53808">
        <ele>61.967</ele>
        <time>2019-09-19T07:55:13.000Z</time>
      </trkpt>
      <trkpt lat="50.30805" lon="3.5381">
        <ele>61.831</ele>
        <time>2019-09-19T07:55:16.000Z</time>
      </trkpt>
      <trkpt lat="50.30797" lon="3.53812">
        <ele>62.05</ele>
        <time>2019-09-19T07:55:19.000Z</time>
      </trkpt>
      <trkpt lat="50.30789" lon="3.53814">
        <ele>62.422</ele>
        <time>2019-09-19T07:55:22.000Z</time>
      </trkpt>
      <trkpt lat="50.30782" lon="3.53817">
        <ele>62.873</ele>
        <time>2019-09-19T07:55:25.000Z</time>
      </trkpt>
      <trkpt lat="50.30775" lon="3.53818">
        <ele>63.28</ele>
        <time>2019-09-19T07:55:28.000Z</time>
      </trkpt>
      <trkpt lat="50.30768" lon="3.5382">
        <ele>63.7</ele>
        <time>2019-09-19T07:55:31.001Z</time>
      </trkpt>
      <trkpt lat="50.3076" lon="3.53822">
        <ele>63.743</ele>
        <time>2019-09-19T07:55:34.001Z</time>
      </trkpt>
      <trkpt lat="50.30752" lon="3.53825">
        <ele>63.728</ele>
        <time>2019-09-19T07:55:37.001Z</time>
      </trkpt>
      <trkpt lat="50.30743" lon="3.53828">
        <ele>63.992</ele>
        <time>2019-09-19T07:55:40.001Z</time>
      </trkpt>
      <trkpt lat="50.30736" lon="3.53831">
        <ele>64.384</ele>
        <time>2019-09-19T07:55:43.001Z</time>
      </trkpt>
      <trkpt lat="50.30729" lon="3.53834">
        <ele>64.601</ele>
        <time>2019-09-19T07:55:46.001Z</time>
      </trkpt>
      <trkpt lat="50.30721" lon="3.53837">
        <ele>64.905</ele>
        <time>2019-09-19T07:55:49.001Z</time>
      </trkpt>
      <trkpt lat="50.30713" lon="3.5384">
        <ele>65.178</ele>
        <time>2019-09-19T07:55:52.001Z</time>
      </trkpt>
      <trkpt lat="50.30706" lon="3.53843">
        <ele>65.769</ele>
        <time>2019-09-19T07:55:55.001Z</time>
      </trkpt>
      <trkpt lat="50.30698" lon="3.53845">
        <ele>66.538</ele>
        <time>2019-09-19T07:55:58.001Z</time>
      </trkpt>
      <trkpt lat="50.3069" lon="3.53848">
        <ele>67.328</ele>
        <time>2019-09-19T07:56:01.001Z</time>
      </trkpt>
      <trkpt lat="50.30681" lon="3.53851">
        <ele>67.624</ele>
        <time>2019-09-19T07:56:04.001Z</time>
      </trkpt>
      <trkpt lat="50.30671" lon="3.53856">
        <ele>67.777</ele>
        <time>2019-09-19T07:56:07.001Z</time>
      </trkpt>
      <trkpt lat="50.3066" lon="3.5386">
        <ele>67.81</ele>
        <time>2019-09-19T07:56:10.001Z</time>
      </trkpt>
      <trkpt lat="50.30648" lon="3.53865">
        <ele>67.633</ele>
        <time>2019-09-19T07:56:13.001Z</time>
      </trkpt>
      <trkpt lat="50.30633" lon="3.5387">
        <ele>67.409</ele>
        <time>2019-09-19T07:56:16.000Z</time>
      </trkpt>
      <trkpt lat="50.30617" lon="3.53877">
        <ele>67.294</ele>
        <time>2019-09-19T07:56:19.001Z</time>
      </trkpt>
      <trkpt lat="50.30599" lon="3.53884">
        <ele>66.309</ele>
        <time>2019-09-19T07:56:22.001Z</time>
      </trkpt>
      <trkpt lat="50.30578" lon="3.53891">
        <ele>65.392</ele>
        <time>2019-09-19T07:56:25.001Z</time>
      </trkpt>
      <trkpt lat="50.30556" lon="3.53897">
        <ele>64.668</ele>
        <time>2019-09-19T07:56:28.001Z</time>
      </trkpt>
      <trkpt lat="50.30534" lon="3.53899">
        <ele>64.244</ele>
        <time>2019-09-19T07:56:31.001Z</time>
      </trkpt>
      <trkpt lat="50.30513" lon="3.539">
        <ele>63.449</ele>
        <time>2019-09-19T07:56:34.001Z</time>
      </trkpt>
      <trkpt lat="50.30495" lon="3.53899">
        <ele>63.199</ele>
        <time>2019-09-19T07:56:37.001Z</time>
      </trkpt>
      <trkpt lat="50.3048" lon="3.53899">
        <ele>62.875</ele>
        <time>2019-09-19T07:56:40.001Z</time>
      </trkpt>
      <trkpt lat="50.30466" lon="3.53899">
        <ele>62.415</ele>
        <time>2019-09-19T07:56:43.001Z</time>
      </trkpt>
      <trkpt lat="50.30451" lon="3.539">
        <ele>61.804</ele>
        <time>2019-09-19T07:56:46.001Z</time>
      </trkpt>
      <trkpt lat="50.30434" lon="3.53899">
        <ele>61.582</ele>
        <time>2019-09-19T07:56:49.001Z</time>
      </trkpt>
      <trkpt lat="50.30417" lon="3.53898">
        <ele>60.818</ele>
        <time>2019-09-19T07:56:52.001Z</time>
      </trkpt>
      <trkpt lat="50.30399" lon="3.53896">
        <ele>60.17</ele>
        <time>2019-09-19T07:56:55.001Z</time>
      </trkpt>
      <trkpt lat="50.30382" lon="3.53892">
        <ele>59.561</ele>
        <time>2019-09-19T07:56:58.001Z</time>
      </trkpt>
      <trkpt lat="50.30364" lon="3.53889">
        <ele>58.762</ele>
        <time>2019-09-19T07:57:01.001Z</time>
      </trkpt>
      <trkpt lat="50.30347" lon="3.53887">
        <ele>58.212</ele>
        <time>2019-09-19T07:57:04.001Z</time>
      </trkpt>
      <trkpt lat="50.30331" lon="3.53887">
        <ele>58.501</ele>
        <time>2019-09-19T07:57:07.001Z</time>
      </trkpt>
      <trkpt lat="50.30316" lon="3.53888">
        <ele>58.502</ele>
        <time>2019-09-19T07:57:10.001Z</time>
      </trkpt>
      <trkpt lat="50.30301" lon="3.53887">
        <ele>58.342</ele>
        <time>2019-09-19T07:57:13.001Z</time>
      </trkpt>
      <trkpt lat="50.30286" lon="3.53888">
        <ele>58.338</ele>
        <time>2019-09-19T07:57:16.000Z</time>
      </trkpt>
      <trkpt lat="50.30269" lon="3.53887">
        <ele>57.971</ele>
        <time>2019-09-19T07:57:19.001Z</time>
      </trkpt>
      <trkpt lat="50.30253" lon="3.53885">
        <ele>57.579</ele>
        <time>2019-09-19T07:57:22.001Z</time>
      </trkpt>
      <trkpt lat="50.30237" lon="3.53879">
        <ele>57.008</ele>
        <time>2019-09-19T07:57:25.001Z</time>
      </trkpt>
      <trkpt lat="50.3022" lon="3.53871">
        <ele>56.599</ele>
        <time>2019-09-19T07:57:28.001Z</time>
      </trkpt>
      <trkpt lat="50.30203" lon="3.53862">
        <ele>56.155</ele>
        <time>2019-09-19T07:57:31.001Z</time>
      </trkpt>
      <trkpt lat="50.30187" lon="3.53854">
        <ele>55.662</ele>
        <time>2019-09-19T07:57:34.001Z</time>
      </trkpt>
      <trkpt lat="50.30171" lon="3.53845">
        <ele>54.915</ele>
        <time>2019-09-19T07:57:37.001Z</time>
      </trkpt>
      <trkpt lat="50.30154" lon="3.53841">
        <ele>54.326</ele>
        <time>2019-09-19T07:57:40.001Z</time>
      </trkpt>
      <trkpt lat="50.30138" lon="3.53843">
        <ele>54.803</ele>
        <time>2019-09-19T07:57:43.001Z</time>
      </trkpt>
      <trkpt lat="50.30121" lon="3.53846">
        <ele>54.789</ele>
        <time>2019-09-19T07:57:46.001Z</time>
      </trkpt>
      <trkpt lat="50.30104" lon="3.53849">
        <ele>54.847</ele>
        <time>2019-09-19T07:57:49.001Z</time>
      </trkpt>
      <trkpt lat="50.30088" lon="3.53852">
        <ele>54.845</ele>
        <time>2019-09-19T07:57:52.001Z</time>
      </trkpt>
      <trkpt lat="50.30072" lon="3.53856">
        <ele>55.105</ele>
        <time>2019-09-19T07:57:55.001Z</time>
      </trkpt>
      <trkpt lat="50.30058" lon="3.53858">
        <ele>55.338</ele>
        <time>2019-09-19T07:57:58.001Z</time>
      </trkpt>
      <trkpt lat="50.30043" lon="3.53861">
        <ele>55.74</ele>
        <time>2019-09-19T07:58:01.001Z</time>
      </trkpt>
      <trkpt lat="50.30029" lon="3.53864">
        <ele>55.908</ele>
        <time>2019-09-19T07:58:04.001Z</time>
      </trkpt>
      <trkpt lat="50.30015" lon="3.53865">
        <ele>56.302</ele>
        <time>2019-09-19T07:58:07.001Z</time>
      </trkpt>
      <trkpt lat="50.30003" lon="3.53865">
        <ele>56.353</ele>
        <time>2019-09-19T07:58:10.001Z</time>
      </trkpt>
      <trkpt lat="50.2999" lon="3.53863">
        <ele>56.904</ele>
        <time>2019-09-19T07:58:13.001Z</time>
      </trkpt>
      <trkpt lat="50.29977" lon="3.53861">
        <ele>57.345</ele>
        <time>2019-09-19T07:58:16.000Z</time>
      </trkpt>
      <trkpt lat="50.29965" lon="3.5386">
        <ele>57.6</ele>
        <time>2019-09-19T07:58:19.001Z</time>
      </trkpt>
      <trkpt lat="50.29951" lon="3.53858">
        <ele>58.039</ele>
        <time>2019-09-19T07:58:22.001Z</time>
      </trkpt>
      <trkpt lat="50.29939" lon="3.53856">
        <ele>59.195</ele>
        <time>2019-09-19T07:58:25.001Z</time>
      </trkpt>
      <trkpt lat="50.29925" lon="3.53856">
        <ele>60.361</ele>
        <time>2019-09-19T07:58:28.001Z</time>
      </trkpt>
      <trkpt lat="50.29911" lon="3.53856">
        <ele>61.225</ele>
        <time>2019-09-19T07:58:31.001Z</time>
      </trkpt>
      <trkpt lat="50.29898" lon="3.53859">
        <ele>62.112</ele>
        <time>2019-09-19T07:58:34.001Z</time>
      </trkpt>
      <trkpt lat="50.29882" lon="3.53865">
        <ele>61.759</ele>
        <time>2019-09-19T07:58:37.001Z</time>
      </trkpt>
      <trkpt lat="50.29869" lon="3.53871">
        <ele>61.275</ele>
        <time>2019-09-19T07:58:40.001Z</time>
      </trkpt>
      <trkpt lat="50.29856" lon="3.53878">
        <ele>60.794</ele>
        <time>2019-09-19T07:58:43.001Z</time>
      </trkpt>
      <trkpt lat="50.29843" lon="3.53886">
        <ele>60.967</ele>
        <time>2019-09-19T07:58:46.001Z</time>
      </trkpt>
      <trkpt lat="50.29829" lon="3.53894">
        <ele>61.242</ele>
        <time>2019-09-19T07:58:49.001Z</time>
      </trkpt>
      <trkpt lat="50.29816" lon="3.53908">
        <ele>61.923</ele>
        <time>2019-09-19T07:58:52.001Z</time>
      </trkpt>
      <trkpt lat="50.29801" lon="3.53923">
        <ele>63.481</ele>
        <time>2019-09-19T07:58:55.001Z</time>
      </trkpt>
      <trkpt lat="50.29787" lon="3.53943">
        <ele>65.19</ele>
        <time>2019-09-19T07:58:58.001Z</time>
      </trkpt>
      <trkpt lat="50.29772" lon="3.53964">
        <ele>65.401</ele>
        <time>2019-09-19T07:59:01.001Z</time>
      </trkpt>
      <trkpt lat="50.29757" lon="3.53987">
        <ele>65.691</ele>
        <time>2019-09-19T07:59:04.001Z</time>
      </trkpt>
      <trkpt lat="50.29745" lon="3.54012">
        <ele>65.583</ele>
        <time>2019-09-19T07:59:07.001Z</time>
      </trkpt>
      <trkpt lat="50.29734" lon="3.54037">
        <ele>65.794</ele>
        <time>2019-09-19T07:59:10.001Z</time>
      </trkpt>
      <trkpt lat="50.29723" lon="3.54064">
        <ele>65.743</ele>
        <time>2019-09-19T07:59:13.001Z</time>
      </trkpt>
      <trkpt lat="50.29711" lon="3.54092">
        <ele>64.956</ele>
        <time>2019-09-19T07:59:16.000Z</time>
      </trkpt>
      <trkpt lat="50.29694" lon="3.5412">
        <ele>64.248</ele>
        <time>2019-09-19T07:59:19.001Z</time>
      </trkpt>
      <trkpt lat="50.29679" lon="3.54143">
        <ele>62.359</ele>
        <time>2019-09-19T07:59:22.001Z</time>
      </trkpt>
      <trkpt lat="50.2967" lon="3.54159">
        <ele>62.516</ele>
        <time>2019-09-19T07:59:25.001Z</time>
      </trkpt>
      <trkpt lat="50.29664" lon="3.54174">
        <ele>63.457</ele>
        <time>2019-09-19T07:59:28.001Z</time>
      </trkpt>
      <trkpt lat="50.29662" lon="3.5419">
        <ele>63.497</ele>
        <time>2019-09-19T07:59:31.001Z</time>
      </trkpt>
      <trkpt lat="50.29662" lon="3.54204">
        <ele>63.315</ele>
        <time>2019-09-19T07:59:34.001Z</time>
      </trkpt>
      <trkpt lat="50.29666" lon="3.54217">
        <ele>62.531</ele>
        <time>2019-09-19T07:59:37.001Z</time>
      </trkpt>
      <trkpt lat="50.29676" lon="3.54233">
        <ele>61.06</ele>
        <time>2019-09-19T07:59:40.001Z</time>
      </trkpt>
      <trkpt lat="50.29684" lon="3.5425">
        <ele>60.685</ele>
        <time>2019-09-19T07:59:43.001Z</time>
      </trkpt>
      <trkpt lat="50.29693" lon="3.54268">
        <ele>59.508</ele>
        <time>2019-09-19T07:59:46.001Z</time>
      </trkpt>
      <trkpt lat="50.29702" lon="3.54288">
        <ele>59.326</ele>
        <time>2019-09-19T07:59:49.001Z</time>
      </trkpt>
      <trkpt lat="50.29711" lon="3.5431">
        <ele>58.504</ele>
        <time>2019-09-19T07:59:52.001Z</time>
      </trkpt>
      <trkpt lat="50.29719" lon="3.54333">
        <ele>57.141</ele>
        <time>2019-09-19T07:59:55.001Z</time>
      </trkpt>
      <trkpt lat="50.29724" lon="3.54356">
        <ele>54.869</ele>
        <time>2019-09-19T07:59:58.001Z</time>
      </trkpt>
      <trkpt lat="50.29726" lon="3.54382">
        <ele>53.969</ele>
        <time>2019-09-19T08:00:01.001Z</time>
      </trkpt>
      <trkpt lat="50.29728" lon="3.54405">
        <ele>53.394</ele>
        <time>2019-09-19T08:00:04.001Z</time>
      </trkpt>
      <trkpt lat="50.2973" lon="3.54428">
        <ele>53.378</ele>
        <time>2019-09-19T08:00:07.001Z</time>
      </trkpt>
      <trkpt lat="50.29733" lon="3.54449">
        <ele>53.495</ele>
        <time>2019-09-19T08:00:10.001Z</time>
      </trkpt>
      <trkpt lat="50.29735" lon="3.54468">
        <ele>53.815</ele>
        <time>2019-09-19T08:00:13.001Z</time>
      </trkpt>
      <trkpt lat="50.29736" lon="3.54484">
        <ele>54.087</ele>
        <time>2019-09-19T08:00:16.000Z</time>
      </trkpt>
      <trkpt lat="50.29736" lon="3.54498">
        <ele>54.385</ele>
        <time>2019-09-19T08:00:19.001Z</time>
      </trkpt>
      <trkpt lat="50.29735" lon="3.54511">
        <ele>54.354</ele>
        <time>2019-09-19T08:00:22.001Z</time>
      </trkpt>
      <trkpt lat="50.29732" lon="3.54522">
        <ele>53.096</ele>
        <time>2019-09-19T08:00:25.001Z</time>
      </trkpt>
      <trkpt lat="50.29731" lon="3.54527">
        <ele>52.794</ele>
        <time>2019-09-19T08:00:28.001Z</time>
      </trkpt>
      <trkpt lat="50.29733" lon="3.54528">
        <ele>54.147</ele>
        <time>2019-09-19T08:02:16.000Z</time>
      </trkpt>
      <trkpt lat="50.29734" lon="3.5453">
        <ele>54.107</ele>
        <time>2019-09-19T08:02:19.001Z</time>
      </trkpt>
      <trkpt lat="50.2974" lon="3.54522">
        <ele>54.693</ele>
        <time>2019-09-19T08:02:25.001Z</time>
      </trkpt>
      <trkpt lat="50.29741" lon="3.54515">
        <ele>54.722</ele>
        <time>2019-09-19T08:02:28.001Z</time>
      </trkpt>
      <trkpt lat="50.2974" lon="3.54503">
        <ele>54.869</ele>
        <time>2019-09-19T08:02:31.001Z</time>
      </trkpt>
      <trkpt lat="50.29737" lon="3.54488">
        <ele>54.541</ele>
        <time>2019-09-19T08:02:34.001Z</time>
      </trkpt>
      <trkpt lat="50.29736" lon="3.5447">
        <ele>54.452</ele>
        <time>2019-09-19T08:02:37.001Z</time>
      </trkpt>
      <trkpt lat="50.29736" lon="3.54454">
        <ele>54.238</ele>
        <time>2019-09-19T08:02:40.001Z</time>
      </trkpt>
      <trkpt lat="50.29734" lon="3.54434">
        <ele>54.459</ele>
        <time>2019-09-19T08:02:43.001Z</time>
      </trkpt>
      <trkpt lat="50.29732" lon="3.54413">
        <ele>54.548</ele>
        <time>2019-09-19T08:02:46.001Z</time>
      </trkpt>
      <trkpt lat="50.29729" lon="3.54391">
        <ele>54.741</ele>
        <time>2019-09-19T08:02:49.001Z</time>
      </trkpt>
      <trkpt lat="50.29728" lon="3.54367">
        <ele>54.643</ele>
        <time>2019-09-19T08:02:52.001Z</time>
      </trkpt>
      <trkpt lat="50.29725" lon="3.54345">
        <ele>54.603</ele>
        <time>2019-09-19T08:02:55.001Z</time>
      </trkpt>
      <trkpt lat="50.2972" lon="3.54327">
        <ele>54.258</ele>
        <time>2019-09-19T08:02:58.001Z</time>
      </trkpt>
      <trkpt lat="50.29713" lon="3.5431">
        <ele>53.822</ele>
        <time>2019-09-19T08:03:01.001Z</time>
      </trkpt>
      <trkpt lat="50.29708" lon="3.54295">
        <ele>53.551</ele>
        <time>2019-09-19T08:03:04.001Z</time>
      </trkpt>
      <trkpt lat="50.29701" lon="3.54281">
        <ele>51.916</ele>
        <time>2019-09-19T08:03:07.001Z</time>
      </trkpt>
      <trkpt lat="50.29694" lon="3.54267">
        <ele>51.327</ele>
        <time>2019-09-19T08:03:10.001Z</time>
      </trkpt>
      <trkpt lat="50.29687" lon="3.54255">
        <ele>50.689</ele>
        <time>2019-09-19T08:03:13.001Z</time>
      </trkpt>
      <trkpt lat="50.2968" lon="3.54241">
        <ele>50.622</ele>
        <time>2019-09-19T08:03:16.000Z</time>
      </trkpt>
      <trkpt lat="50.29673" lon="3.5423">
        <ele>51.236</ele>
        <time>2019-09-19T08:03:19.001Z</time>
      </trkpt>
      <trkpt lat="50.29665" lon="3.5422">
        <ele>52.335</ele>
        <time>2019-09-19T08:03:22.001Z</time>
      </trkpt>
      <trkpt lat="50.29664" lon="3.54206">
        <ele>52.98</ele>
        <time>2019-09-19T08:03:25.001Z</time>
      </trkpt>
      <trkpt lat="50.29664" lon="3.54193">
        <ele>54.277</ele>
        <time>2019-09-19T08:03:28.001Z</time>
      </trkpt>
      <trkpt lat="50.29662" lon="3.54179">
        <ele>55.681</ele>
        <time>2019-09-19T08:03:31.001Z</time>
      </trkpt>
      <trkpt lat="50.29654" lon="3.54172">
        <ele>56.364</ele>
        <time>2019-09-19T08:03:34.001Z</time>
      </trkpt>
      <trkpt lat="50.29644" lon="3.54166">
        <ele>56.906</ele>
        <time>2019-09-19T08:03:37.001Z</time>
      </trkpt>
      <trkpt lat="50.29635" lon="3.54162">
        <ele>57.839</ele>
        <time>2019-09-19T08:03:40.001Z</time>
      </trkpt>
      <trkpt lat="50.29626" lon="3.54157">
        <ele>59.307</ele>
        <time>2019-09-19T08:03:43.001Z</time>
      </trkpt>
      <trkpt lat="50.29617" lon="3.54153">
        <ele>59.341</ele>
        <time>2019-09-19T08:03:46.001Z</time>
      </trkpt>
      <trkpt lat="50.29609" lon="3.54149">
        <ele>59.911</ele>
        <time>2019-09-19T08:03:49.001Z</time>
      </trkpt>
      <trkpt lat="50.29599" lon="3.54147">
        <ele>60.893</ele>
        <time>2019-09-19T08:03:52.001Z</time>
      </trkpt>
      <trkpt lat="50.29591" lon="3.54141">
        <ele>61.93</ele>
        <time>2019-09-19T08:03:55.001Z</time>
      </trkpt>
      <trkpt lat="50.29584" lon="3.54131">
        <ele>63.249</ele>
        <time>2019-09-19T08:03:58.001Z</time>
      </trkpt>
      <trkpt lat="50.29576" lon="3.54122">
        <ele>64.42</ele>
        <time>2019-09-19T08:04:01.001Z</time>
      </trkpt>
      <trkpt lat="50.2957" lon="3.5411">
        <ele>65.637</ele>
        <time>2019-09-19T08:04:04.001Z</time>
      </trkpt>
      <trkpt lat="50.29562" lon="3.54099">
        <ele>66.412</ele>
        <time>2019-09-19T08:04:07.001Z</time>
      </trkpt>
      <trkpt lat="50.29552" lon="3.54097">
        <ele>65.372</ele>
        <time>2019-09-19T08:04:10.001Z</time>
      </trkpt>
      <trkpt lat="50.29541" lon="3.54096">
        <ele>65.186</ele>
        <time>2019-09-19T08:04:13.001Z</time>
      </trkpt>
      <trkpt lat="50.29529" lon="3.54091">
        <ele>64.905</ele>
        <time>2019-09-19T08:04:16.000Z</time>
      </trkpt>
      <trkpt lat="50.29518" lon="3.5408">
        <ele>66.414</ele>
        <time>2019-09-19T08:04:19.001Z</time>
      </trkpt>
      <trkpt lat="50.29506" lon="3.54069">
        <ele>68.223</ele>
        <time>2019-09-19T08:04:22.001Z</time>
      </trkpt>
      <trkpt lat="50.29496" lon="3.54064">
        <ele>69.222</ele>
        <time>2019-09-19T08:04:25.001Z</time>
      </trkpt>
      <trkpt lat="50.29486" lon="3.54064">
        <ele>69.944</ele>
        <time>2019-09-19T08:04:28.001Z</time>
      </trkpt>
      <trkpt lat="50.29475" lon="3.54068">
        <ele>69.76</ele>
        <time>2019-09-19T08:04:31.001Z</time>
      </trkpt>
      <trkpt lat="50.29465" lon="3.54073">
        <ele>69.527</ele>
        <time>2019-09-19T08:04:34.001Z</time>
      </trkpt>
      <trkpt lat="50.29455" lon="3.54076">
        <ele>68.841</ele>
        <time>2019-09-19T08:04:37.001Z</time>
      </trkpt>
      <trkpt lat="50.29446" lon="3.54079">
        <ele>69.141</ele>
        <time>2019-09-19T08:04:40.001Z</time>
      </trkpt>
      <trkpt lat="50.29436" lon="3.5408">
        <ele>69.46</ele>
        <time>2019-09-19T08:04:43.001Z</time>
      </trkpt>
      <trkpt lat="50.29427" lon="3.5408">
        <ele>70.505</ele>
        <time>2019-09-19T08:04:46.001Z</time>
      </trkpt>
      <trkpt lat="50.29418" lon="3.54083">
        <ele>70.498</ele>
        <time>2019-09-19T08:04:49.001Z</time>
      </trkpt>
      <trkpt lat="50.29408" lon="3.54087">
        <ele>69.897</ele>
        <time>2019-09-19T08:04:52.001Z</time>
      </trkpt>
      <trkpt lat="50.29397" lon="3.54087">
        <ele>70.175</ele>
        <time>2019-09-19T08:04:55.001Z</time>
      </trkpt>
      <trkpt lat="50.29387" lon="3.54088">
        <ele>70.696</ele>
        <time>2019-09-19T08:04:58.001Z</time>
      </trkpt>
      <trkpt lat="50.29378" lon="3.5409">
        <ele>71.025</ele>
        <time>2019-09-19T08:05:01.001Z</time>
      </trkpt>
      <trkpt lat="50.2937" lon="3.54091">
        <ele>71.531</ele>
        <time>2019-09-19T08:05:04.001Z</time>
      </trkpt>
      <trkpt lat="50.29361" lon="3.54093">
        <ele>71.866</ele>
        <time>2019-09-19T08:05:07.001Z</time>
      </trkpt>
      <trkpt lat="50.29352" lon="3.54095">
        <ele>71.297</ele>
        <time>2019-09-19T08:05:10.001Z</time>
      </trkpt>
      <trkpt lat="50.29343" lon="3.54097">
        <ele>71.065</ele>
        <time>2019-09-19T08:05:13.001Z</time>
      </trkpt>
      <trkpt lat="50.29335" lon="3.54098">
        <ele>71.179</ele>
        <time>2019-09-19T08:05:16.000Z</time>
      </trkpt>
      <trkpt lat="50.29326" lon="3.54098">
        <ele>71.642</ele>
        <time>2019-09-19T08:05:19.001Z</time>
      </trkpt>
      <trkpt lat="50.29319" lon="3.54089">
        <ele>72.491</ele>
        <time>2019-09-19T08:05:22.001Z</time>
      </trkpt>
      <trkpt lat="50.29313" lon="3.5408">
        <ele>72.729</ele>
        <time>2019-09-19T08:05:25.001Z</time>
      </trkpt>
      <trkpt lat="50.29308" lon="3.54071">
        <ele>73.354</ele>
        <time>2019-09-19T08:05:28.001Z</time>
      </trkpt>
      <trkpt lat="50.29304" lon="3.54062">
        <ele>74.119</ele>
        <time>2019-09-19T08:05:31.001Z</time>
      </trkpt>
      <trkpt lat="50.29299" lon="3.54054">
        <ele>74.87</ele>
        <time>2019-09-19T08:05:34.001Z</time>
      </trkpt>
      <trkpt lat="50.29295" lon="3.54045">
        <ele>75.541</ele>
        <time>2019-09-19T08:05:37.001Z</time>
      </trkpt>
      <trkpt lat="50.29293" lon="3.54032">
        <ele>75.808</ele>
        <time>2019-09-19T08:05:40.001Z</time>
      </trkpt>
      <trkpt lat="50.29294" lon="3.54021">
        <ele>77.099</ele>
        <time>2019-09-19T08:05:43.001Z</time>
      </trkpt>
      <trkpt lat="50.29292" lon="3.5401">
        <ele>77.998</ele>
        <time>2019-09-19T08:05:46.001Z</time>
      </trkpt>
      <trkpt lat="50.29287" lon="3.54001">
        <ele>78.474</ele>
        <time>2019-09-19T08:05:49.001Z</time>
      </trkpt>
      <trkpt lat="50.29281" lon="3.53993">
        <ele>79.191</ele>
        <time>2019-09-19T08:05:52.001Z</time>
      </trkpt>
      <trkpt lat="50.29275" lon="3.53985">
        <ele>80.254</ele>
        <time>2019-09-19T08:05:55.001Z</time>
      </trkpt>
      <trkpt lat="50.29269" lon="3.53977">
        <ele>80.655</ele>
        <time>2019-09-19T08:05:58.001Z</time>
      </trkpt>
      <trkpt lat="50.29264" lon="3.53969">
        <ele>81.039</ele>
        <time>2019-09-19T08:06:01.001Z</time>
      </trkpt>
      <trkpt lat="50.29257" lon="3.53961">
        <ele>80.149</ele>
        <time>2019-09-19T08:06:04.001Z</time>
      </trkpt>
      <trkpt lat="50.2925" lon="3.53954">
        <ele>78.986</ele>
        <time>2019-09-19T08:06:07.001Z</time>
      </trkpt>
      <trkpt lat="50.29244" lon="3.53948">
        <ele>78.966</ele>
        <time>2019-09-19T08:06:10.001Z</time>
      </trkpt>
      <trkpt lat="50.29235" lon="3.53942">
        <ele>78.851</ele>
        <time>2019-09-19T08:06:13.001Z</time>
      </trkpt>
      <trkpt lat="50.29226" lon="3.53935">
        <ele>79.144</ele>
        <time>2019-09-19T08:06:16.000Z</time>
      </trkpt>
      <trkpt lat="50.29216" lon="3.53928">
        <ele>79.68</ele>
        <time>2019-09-19T08:06:19.001Z</time>
      </trkpt>
      <trkpt lat="50.29204" lon="3.53923">
        <ele>79.655</ele>
        <time>2019-09-19T08:06:22.001Z</time>
      </trkpt>
      <trkpt lat="50.29191" lon="3.53921">
        <ele>80.032</ele>
        <time>2019-09-19T08:06:25.001Z</time>
      </trkpt>
      <trkpt lat="50.2918" lon="3.5392">
        <ele>79.26</ele>
        <time>2019-09-19T08:06:28.001Z</time>
      </trkpt>
      <trkpt lat="50.29167" lon="3.5392">
        <ele>78.719</ele>
        <time>2019-09-19T08:06:31.001Z</time>
      </trkpt>
      <trkpt lat="50.29154" lon="3.53915">
        <ele>79.326</ele>
        <time>2019-09-19T08:06:34.001Z</time>
      </trkpt>
      <trkpt lat="50.29143" lon="3.53914">
        <ele>79.274</ele>
        <time>2019-09-19T08:06:37.001Z</time>
      </trkpt>
      <trkpt lat="50.29136" lon="3.53922">
        <ele>78.609</ele>
        <time>2019-09-19T08:06:40.001Z</time>
      </trkpt>
      <trkpt lat="50.29132" lon="3.53934">
        <ele>77.07</ele>
        <time>2019-09-19T08:06:43.001Z</time>
      </trkpt>
      <trkpt lat="50.29127" lon="3.53944">
        <ele>77.451</ele>
        <time>2019-09-19T08:06:46.001Z</time>
      </trkpt>
      <trkpt lat="50.29122" lon="3.53956">
        <ele>78.023</ele>
        <time>2019-09-19T08:06:49.001Z</time>
      </trkpt>
      <trkpt lat="50.29116" lon="3.53967">
        <ele>78.841</ele>
        <time>2019-09-19T08:06:52.001Z</time>
      </trkpt>
      <trkpt lat="50.29105" lon="3.5398">
        <ele>79.199</ele>
        <time>2019-09-19T08:06:55.001Z</time>
      </trkpt>
      <trkpt lat="50.29095" lon="3.53992">
        <ele>79.382</ele>
        <time>2019-09-19T08:06:58.001Z</time>
      </trkpt>
      <trkpt lat="50.29085" lon="3.54002">
        <ele>80.128</ele>
        <time>2019-09-19T08:07:01.001Z</time>
      </trkpt>
      <trkpt lat="50.29077" lon="3.54012">
        <ele>80.009</ele>
        <time>2019-09-19T08:07:04.001Z</time>
      </trkpt>
      <trkpt lat="50.29069" lon="3.54024">
        <ele>79.572</ele>
        <time>2019-09-19T08:07:07.001Z</time>
      </trkpt>
      <trkpt lat="50.29062" lon="3.54035">
        <ele>79.531</ele>
        <time>2019-09-19T08:07:10.001Z</time>
      </trkpt>
      <trkpt lat="50.29057" lon="3.54047">
        <ele>79.61</ele>
        <time>2019-09-19T08:07:13.001Z</time>
      </trkpt>
      <trkpt lat="50.29051" lon="3.54059">
        <ele>79.829</ele>
        <time>2019-09-19T08:07:16.000Z</time>
      </trkpt>
      <trkpt lat="50.29044" lon="3.54073">
        <ele>79.736</ele>
        <time>2019-09-19T08:07:19.001Z</time>
      </trkpt>
      <trkpt lat="50.29038" lon="3.54087">
        <ele>79.141</ele>
        <time>2019-09-19T08:07:22.001Z</time>
      </trkpt>
      <trkpt lat="50.29031" lon="3.541">
        <ele>78.101</ele>
        <time>2019-09-19T08:07:25.001Z</time>
      </trkpt>
      <trkpt lat="50.29023" lon="3.54114">
        <ele>77.33</ele>
        <time>2019-09-19T08:07:28.001Z</time>
      </trkpt>
      <trkpt lat="50.29014" lon="3.54126">
        <ele>77.126</ele>
        <time>2019-09-19T08:07:31.001Z</time>
      </trkpt>
      <trkpt lat="50.29005" lon="3.54137">
        <ele>76.404</ele>
        <time>2019-09-19T08:07:34.001Z</time>
      </trkpt>
      <trkpt lat="50.28995" lon="3.54147">
        <ele>75.896</ele>
        <time>2019-09-19T08:07:37.001Z</time>
      </trkpt>
      <trkpt lat="50.28985" lon="3.54158">
        <ele>75.786</ele>
        <time>2019-09-19T08:07:40.001Z</time>
      </trkpt>
      <trkpt lat="50.28975" lon="3.54168">
        <ele>75.634</ele>
        <time>2019-09-19T08:07:43.001Z</time>
      </trkpt>
      <trkpt lat="50.28967" lon="3.54178">
        <ele>75.249</ele>
        <time>2019-09-19T08:07:46.001Z</time>
      </trkpt>
      <trkpt lat="50.28957" lon="3.54189">
        <ele>75.869</ele>
        <time>2019-09-19T08:07:49.001Z</time>
      </trkpt>
      <trkpt lat="50.28947" lon="3.54198">
        <ele>76.238</ele>
        <time>2019-09-19T08:07:52.001Z</time>
      </trkpt>
      <trkpt lat="50.28938" lon="3.5421">
        <ele>76.874</ele>
        <time>2019-09-19T08:07:55.001Z</time>
      </trkpt>
      <trkpt lat="50.28928" lon="3.5422">
        <ele>77.93</ele>
        <time>2019-09-19T08:07:58.001Z</time>
      </trkpt>
      <trkpt lat="50.28919" lon="3.54232">
        <ele>79.843</ele>
        <time>2019-09-19T08:08:01.001Z</time>
      </trkpt>
      <trkpt lat="50.28911" lon="3.54242">
        <ele>80.509</ele>
        <time>2019-09-19T08:08:04.001Z</time>
      </trkpt>
      <trkpt lat="50.28904" lon="3.54251">
        <ele>81.039</ele>
        <time>2019-09-19T08:08:07.001Z</time>
      </trkpt>
      <trkpt lat="50.28895" lon="3.54262">
        <ele>81.289</ele>
        <time>2019-09-19T08:08:10.001Z</time>
      </trkpt>
      <trkpt lat="50.28887" lon="3.54272">
        <ele>81.564</ele>
        <time>2019-09-19T08:08:13.001Z</time>
      </trkpt>
      <trkpt lat="50.28879" lon="3.54282">
        <ele>81.67</ele>
        <time>2019-09-19T08:08:16.000Z</time>
      </trkpt>
      <trkpt lat="50.28871" lon="3.54293">
        <ele>82.158</ele>
        <time>2019-09-19T08:08:19.001Z</time>
      </trkpt>
      <trkpt lat="50.28865" lon="3.54305">
        <ele>82.9</ele>
        <time>2019-09-19T08:08:22.001Z</time>
      </trkpt>
      <trkpt lat="50.28858" lon="3.54314">
        <ele>83.22</ele>
        <time>2019-09-19T08:08:25.001Z</time>
      </trkpt>
      <trkpt lat="50.28852" lon="3.54323">
        <ele>83.234</ele>
        <time>2019-09-19T08:08:28.001Z</time>
      </trkpt>
      <trkpt lat="50.28845" lon="3.54332">
        <ele>83.383</ele>
        <time>2019-09-19T08:08:31.001Z</time>
      </trkpt>
      <trkpt lat="50.28839" lon="3.54341">
        <ele>83.779</ele>
        <time>2019-09-19T08:08:34.001Z</time>
      </trkpt>
      <trkpt lat="50.28833" lon="3.54351">
        <ele>84.295</ele>
        <time>2019-09-19T08:08:37.001Z</time>
      </trkpt>
      <trkpt lat="50.28826" lon="3.5436">
        <ele>85.014</ele>
        <time>2019-09-19T08:08:40.001Z</time>
      </trkpt>
      <trkpt lat="50.2882" lon="3.5437">
        <ele>86.06</ele>
        <time>2019-09-19T08:08:43.001Z</time>
      </trkpt>
      <trkpt lat="50.28814" lon="3.54379">
        <ele>87.222</ele>
        <time>2019-09-19T08:08:46.001Z</time>
      </trkpt>
      <trkpt lat="50.28809" lon="3.54389">
        <ele>87.954</ele>
        <time>2019-09-19T08:08:49.001Z</time>
      </trkpt>
      <trkpt lat="50.28804" lon="3.544">
        <ele>88.813</ele>
        <time>2019-09-19T08:08:52.001Z</time>
      </trkpt>
      <trkpt lat="50.28799" lon="3.5441">
        <ele>89.303</ele>
        <time>2019-09-19T08:08:55.001Z</time>
      </trkpt>
      <trkpt lat="50.28793" lon="3.54421">
        <ele>89.969</ele>
        <time>2019-09-19T08:08:58.001Z</time>
      </trkpt>
      <trkpt lat="50.28787" lon="3.54431">
        <ele>90.027</ele>
        <time>2019-09-19T08:09:01.001Z</time>
      </trkpt>
      <trkpt lat="50.28779" lon="3.54441">
        <ele>90.154</ele>
        <time>2019-09-19T08:09:04.001Z</time>
      </trkpt>
      <trkpt lat="50.28771" lon="3.5445">
        <ele>90.703</ele>
        <time>2019-09-19T08:09:07.001Z</time>
      </trkpt>
      <trkpt lat="50.28765" lon="3.54461">
        <ele>91.21</ele>
        <time>2019-09-19T08:09:10.001Z</time>
      </trkpt>
      <trkpt lat="50.2876" lon="3.54471">
        <ele>91.858</ele>
        <time>2019-09-19T08:09:13.001Z</time>
      </trkpt>
      <trkpt lat="50.28753" lon="3.54482">
        <ele>91.197</ele>
        <time>2019-09-19T08:09:16.000Z</time>
      </trkpt>
      <trkpt lat="50.28746" lon="3.54495">
        <ele>90.356</ele>
        <time>2019-09-19T08:09:19.001Z</time>
      </trkpt>
      <trkpt lat="50.28738" lon="3.5451">
        <ele>89.557</ele>
        <time>2019-09-19T08:09:22.001Z</time>
      </trkpt>
      <trkpt lat="50.28729" lon="3.54525">
        <ele>88.879</ele>
        <time>2019-09-19T08:09:25.001Z</time>
      </trkpt>
      <trkpt lat="50.28718" lon="3.54541">
        <ele>87.994</ele>
        <time>2019-09-19T08:09:28.001Z</time>
      </trkpt>
      <trkpt lat="50.28706" lon="3.54556">
        <ele>86.844</ele>
        <time>2019-09-19T08:09:31.001Z</time>
      </trkpt>
      <trkpt lat="50.28694" lon="3.54572">
        <ele>85.59</ele>
        <time>2019-09-19T08:09:34.001Z</time>
      </trkpt>
      <trkpt lat="50.2868" lon="3.54589">
        <ele>84.015</ele>
        <time>2019-09-19T08:09:37.001Z</time>
      </trkpt>
      <trkpt lat="50.28666" lon="3.54606">
        <ele>82.089</ele>
        <time>2019-09-19T08:09:40.001Z</time>
      </trkpt>
      <trkpt lat="50.28654" lon="3.54623">
        <ele>81.086</ele>
        <time>2019-09-19T08:09:43.001Z</time>
      </trkpt>
      <trkpt lat="50.28639" lon="3.54642">
        <ele>80.348</ele>
        <time>2019-09-19T08:09:46.001Z</time>
      </trkpt>
      <trkpt lat="50.28625" lon="3.54661">
        <ele>79.085</ele>
        <time>2019-09-19T08:09:49.001Z</time>
      </trkpt>
      <trkpt lat="50.28613" lon="3.54681">
        <ele>78.064</ele>
        <time>2019-09-19T08:09:52.001Z</time>
      </trkpt>
      <trkpt lat="50.286" lon="3.54701">
        <ele>77.7</ele>
        <time>2019-09-19T08:09:55.001Z</time>
      </trkpt>
      <trkpt lat="50.28591" lon="3.54723">
        <ele>77.31</ele>
        <time>2019-09-19T08:09:58.001Z</time>
      </trkpt>
      <trkpt lat="50.28585" lon="3.54746">
        <ele>76.848</ele>
        <time>2019-09-19T08:10:01.001Z</time>
      </trkpt>
      <trkpt lat="50.28581" lon="3.54768">
        <ele>77.091</ele>
        <time>2019-09-19T08:10:04.001Z</time>
      </trkpt>
      <trkpt lat="50.28577" lon="3.54788">
        <ele>76.872</ele>
        <time>2019-09-19T08:10:07.001Z</time>
      </trkpt>
      <trkpt lat="50.28571" lon="3.54808">
        <ele>77.344</ele>
        <time>2019-09-19T08:10:10.001Z</time>
      </trkpt>
      <trkpt lat="50.28566" lon="3.54828">
        <ele>78.085</ele>
        <time>2019-09-19T08:10:13.001Z</time>
      </trkpt>
      <trkpt lat="50.2856" lon="3.54845">
        <ele>78.982</ele>
        <time>2019-09-19T08:10:16.000Z</time>
      </trkpt>
      <trkpt lat="50.28554" lon="3.5486">
        <ele>79.956</ele>
        <time>2019-09-19T08:10:19.001Z</time>
      </trkpt>
      <trkpt lat="50.28549" lon="3.54879">
        <ele>80.794</ele>
        <time>2019-09-19T08:10:22.001Z</time>
      </trkpt>
      <trkpt lat="50.28542" lon="3.54899">
        <ele>81.552</ele>
        <time>2019-09-19T08:10:25.001Z</time>
      </trkpt>
      <trkpt lat="50.28534" lon="3.54919">
        <ele>81.893</ele>
        <time>2019-09-19T08:10:28.001Z</time>
      </trkpt>
      <trkpt lat="50.28525" lon="3.54939">
        <ele>82.68</ele>
        <time>2019-09-19T08:10:31.001Z</time>
      </trkpt>
      <trkpt lat="50.28515" lon="3.5496">
        <ele>83.04</ele>
        <time>2019-09-19T08:10:34.001Z</time>
      </trkpt>
      <trkpt lat="50.28502" lon="3.54984">
        <ele>83.21</ele>
        <time>2019-09-19T08:10:37.001Z</time>
      </trkpt>
      <trkpt lat="50.28487" lon="3.55009">
        <ele>82.784</ele>
        <time>2019-09-19T08:10:40.001Z</time>
      </trkpt>
      <trkpt lat="50.2847" lon="3.55032">
        <ele>81.408</ele>
        <time>2019-09-19T08:10:43.001Z</time>
      </trkpt>
      <trkpt lat="50.28452" lon="3.55054">
        <ele>79.912</ele>
        <time>2019-09-19T08:10:46.001Z</time>
      </trkpt>
      <trkpt lat="50.28436" lon="3.55076">
        <ele>78.686</ele>
        <time>2019-09-19T08:10:49.001Z</time>
      </trkpt>
      <trkpt lat="50.28419" lon="3.55099">
        <ele>77.236</ele>
        <time>2019-09-19T08:10:52.001Z</time>
      </trkpt>
      <trkpt lat="50.28404" lon="3.55122">
        <ele>75.819</ele>
        <time>2019-09-19T08:10:55.001Z</time>
      </trkpt>
      <trkpt lat="50.28391" lon="3.55144">
        <ele>75.556</ele>
        <time>2019-09-19T08:10:58.001Z</time>
      </trkpt>
      <trkpt lat="50.28378" lon="3.55164">
        <ele>75.474</ele>
        <time>2019-09-19T08:11:01.001Z</time>
      </trkpt>
      <trkpt lat="50.28364" lon="3.55183">
        <ele>75.608</ele>
        <time>2019-09-19T08:11:04.001Z</time>
      </trkpt>
      <trkpt lat="50.2835" lon="3.552">
        <ele>75.642</ele>
        <time>2019-09-19T08:11:07.001Z</time>
      </trkpt>
      <trkpt lat="50.28336" lon="3.55215">
        <ele>75.399</ele>
        <time>2019-09-19T08:11:10.001Z</time>
      </trkpt>
      <trkpt lat="50.28325" lon="3.5523">
        <ele>76.051</ele>
        <time>2019-09-19T08:11:13.001Z</time>
      </trkpt>
      <trkpt lat="50.28315" lon="3.55246">
        <ele>77.255</ele>
        <time>2019-09-19T08:11:16.000Z</time>
      </trkpt>
      <trkpt lat="50.28307" lon="3.55262">
        <ele>77.76</ele>
        <time>2019-09-19T08:11:19.001Z</time>
      </trkpt>
      <trkpt lat="50.28299" lon="3.55276">
        <ele>78.134</ele>
        <time>2019-09-19T08:11:22.001Z</time>
      </trkpt>
      <trkpt lat="50.28291" lon="3.5529">
        <ele>78.242</ele>
        <time>2019-09-19T08:11:25.001Z</time>
      </trkpt>
      <trkpt lat="50.28284" lon="3.55305">
        <ele>79.103</ele>
        <time>2019-09-19T08:11:28.001Z</time>
      </trkpt>
      <trkpt lat="50.28279" lon="3.5532">
        <ele>79.611</ele>
        <time>2019-09-19T08:11:31.001Z</time>
      </trkpt>
      <trkpt lat="50.28273" lon="3.55336">
        <ele>79.624</ele>
        <time>2019-09-19T08:11:34.001Z</time>
      </trkpt>
      <trkpt lat="50.28265" lon="3.55352">
        <ele>80.066</ele>
        <time>2019-09-19T08:11:37.001Z</time>
      </trkpt>
      <trkpt lat="50.28259" lon="3.55369">
        <ele>80.396</ele>
        <time>2019-09-19T08:11:40.001Z</time>
      </trkpt>
      <trkpt lat="50.28254" lon="3.55385">
        <ele>80.841</ele>
        <time>2019-09-19T08:11:43.001Z</time>
      </trkpt>
      <trkpt lat="50.28248" lon="3.554">
        <ele>81.676</ele>
        <time>2019-09-19T08:11:46.001Z</time>
      </trkpt>
      <trkpt lat="50.28242" lon="3.55415">
        <ele>82.31</ele>
        <time>2019-09-19T08:11:49.001Z</time>
      </trkpt>
      <trkpt lat="50.28236" lon="3.55431">
        <ele>82.825</ele>
        <time>2019-09-19T08:11:52.001Z</time>
      </trkpt>
      <trkpt lat="50.28231" lon="3.55446">
        <ele>83.445</ele>
        <time>2019-09-19T08:11:55.001Z</time>
      </trkpt>
      <trkpt lat="50.28227" lon="3.5546">
        <ele>83.725</ele>
        <time>2019-09-19T08:11:58.001Z</time>
      </trkpt>
      <trkpt lat="50.28222" lon="3.55473">
        <ele>84.344</ele>
        <time>2019-09-19T08:12:01.001Z</time>
      </trkpt>
      <trkpt lat="50.28217" lon="3.55486">
        <ele>84.756</ele>
        <time>2019-09-19T08:12:04.001Z</time>
      </trkpt>
      <trkpt lat="50.28213" lon="3.55496">
        <ele>85.749</ele>
        <time>2019-09-19T08:12:07.001Z</time>
      </trkpt>
      <trkpt lat="50.28208" lon="3.55506">
        <ele>86.619</ele>
        <time>2019-09-19T08:12:10.001Z</time>
      </trkpt>
      <trkpt lat="50.28203" lon="3.55519">
        <ele>87.348</ele>
        <time>2019-09-19T08:12:13.001Z</time>
      </trkpt>
      <trkpt lat="50.28199" lon="3.55531">
        <ele>88.345</ele>
        <time>2019-09-19T08:12:16.000Z</time>
      </trkpt>
      <trkpt lat="50.28195" lon="3.55545">
        <ele>88.845</ele>
        <time>2019-09-19T08:12:19.001Z</time>
      </trkpt>
      <trkpt lat="50.28191" lon="3.55563">
        <ele>89.051</ele>
        <time>2019-09-19T08:12:22.001Z</time>
      </trkpt>
      <trkpt lat="50.28187" lon="3.55584">
        <ele>88.776</ele>
        <time>2019-09-19T08:12:25.001Z</time>
      </trkpt>
      <trkpt lat="50.2818" lon="3.55607">
        <ele>88.063</ele>
        <time>2019-09-19T08:12:28.001Z</time>
      </trkpt>
      <trkpt lat="50.28175" lon="3.55632">
        <ele>87.551</ele>
        <time>2019-09-19T08:12:31.001Z</time>
      </trkpt>
      <trkpt lat="50.28173" lon="3.55655">
        <ele>87.836</ele>
        <time>2019-09-19T08:12:34.001Z</time>
      </trkpt>
      <trkpt lat="50.2818" lon="3.5568">
        <ele>86.939</ele>
        <time>2019-09-19T08:12:37.001Z</time>
      </trkpt>
      <trkpt lat="50.28193" lon="3.557">
        <ele>86.678</ele>
        <time>2019-09-19T08:12:40.001Z</time>
      </trkpt>
      <trkpt lat="50.28208" lon="3.55721">
        <ele>86.649</ele>
        <time>2019-09-19T08:12:43.001Z</time>
      </trkpt>
      <trkpt lat="50.28223" lon="3.55745">
        <ele>87.059</ele>
        <time>2019-09-19T08:12:46.001Z</time>
      </trkpt>
      <trkpt lat="50.28238" lon="3.55768">
        <ele>86.874</ele>
        <time>2019-09-19T08:12:49.001Z</time>
      </trkpt>
      <trkpt lat="50.2825" lon="3.55793">
        <ele>86.633</ele>
        <time>2019-09-19T08:12:52.001Z</time>
      </trkpt>
      <trkpt lat="50.28259" lon="3.55824">
        <ele>86.783</ele>
        <time>2019-09-19T08:12:55.001Z</time>
      </trkpt>
      <trkpt lat="50.28255" lon="3.55858">
        <ele>86.858</ele>
        <time>2019-09-19T08:12:58.001Z</time>
      </trkpt>
      <trkpt lat="50.28248" lon="3.55891">
        <ele>86.535</ele>
        <time>2019-09-19T08:13:01.001Z</time>
      </trkpt>
      <trkpt lat="50.28242" lon="3.55922">
        <ele>85.935</ele>
        <time>2019-09-19T08:13:04.001Z</time>
      </trkpt>
      <trkpt lat="50.28237" lon="3.55952">
        <ele>85.409</ele>
        <time>2019-09-19T08:13:07.001Z</time>
      </trkpt>
      <trkpt lat="50.28232" lon="3.5598">
        <ele>84.922</ele>
        <time>2019-09-19T08:13:10.001Z</time>
      </trkpt>
      <trkpt lat="50.28225" lon="3.56007">
        <ele>83.804</ele>
        <time>2019-09-19T08:13:13.001Z</time>
      </trkpt>
      <trkpt lat="50.28218" lon="3.56029">
        <ele>83.254</ele>
        <time>2019-09-19T08:13:16.000Z</time>
      </trkpt>
      <trkpt lat="50.28212" lon="3.56048">
        <ele>83.426</ele>
        <time>2019-09-19T08:13:19.001Z</time>
      </trkpt>
      <trkpt lat="50.28206" lon="3.56068">
        <ele>83.217</ele>
        <time>2019-09-19T08:13:22.001Z</time>
      </trkpt>
      <trkpt lat="50.28201" lon="3.56086">
        <ele>83.271</ele>
        <time>2019-09-19T08:13:25.001Z</time>
      </trkpt>
      <trkpt lat="50.28196" lon="3.56104">
        <ele>82.876</ele>
        <time>2019-09-19T08:13:28.001Z</time>
      </trkpt>
      <trkpt lat="50.28191" lon="3.56123">
        <ele>82.55</ele>
        <time>2019-09-19T08:13:31.001Z</time>
      </trkpt>
      <trkpt lat="50.2819" lon="3.56143">
        <ele>82.408</ele>
        <time>2019-09-19T08:13:34.001Z</time>
      </trkpt>
      <trkpt lat="50.28196" lon="3.56169">
        <ele>81.963</ele>
        <time>2019-09-19T08:13:37.001Z</time>
      </trkpt>
      <trkpt lat="50.28204" lon="3.56194">
        <ele>82.045</ele>
        <time>2019-09-19T08:13:40.001Z</time>
      </trkpt>
      <trkpt lat="50.28212" lon="3.56221">
        <ele>82.098</ele>
        <time>2019-09-19T08:13:43.001Z</time>
      </trkpt>
      <trkpt lat="50.28222" lon="3.56249">
        <ele>81.821</ele>
        <time>2019-09-19T08:13:46.001Z</time>
      </trkpt>
      <trkpt lat="50.28235" lon="3.56276">
        <ele>81.034</ele>
        <time>2019-09-19T08:13:49.001Z</time>
      </trkpt>
      <trkpt lat="50.28251" lon="3.56303">
        <ele>79.427</ele>
        <time>2019-09-19T08:13:52.001Z</time>
      </trkpt>
      <trkpt lat="50.28265" lon="3.56327">
        <ele>78.623</ele>
        <time>2019-09-19T08:13:55.001Z</time>
      </trkpt>
      <trkpt lat="50.28277" lon="3.56349">
        <ele>77.212</ele>
        <time>2019-09-19T08:13:58.001Z</time>
      </trkpt>
      <trkpt lat="50.28286" lon="3.56375">
        <ele>75.645</ele>
        <time>2019-09-19T08:14:01.001Z</time>
      </trkpt>
      <trkpt lat="50.28286" lon="3.564">
        <ele>74.163</ele>
        <time>2019-09-19T08:14:04.001Z</time>
      </trkpt>
      <trkpt lat="50.28273" lon="3.56416">
        <ele>73.551</ele>
        <time>2019-09-19T08:14:07.001Z</time>
      </trkpt>
      <trkpt lat="50.28257" lon="3.56423">
        <ele>72.967</ele>
        <time>2019-09-19T08:14:10.001Z</time>
      </trkpt>
      <trkpt lat="50.28243" lon="3.56422">
        <ele>72.391</ele>
        <time>2019-09-19T08:14:13.001Z</time>
      </trkpt>
      <trkpt lat="50.2823" lon="3.56415">
        <ele>72.108</ele>
        <time>2019-09-19T08:14:16.000Z</time>
      </trkpt>
      <trkpt lat="50.28217" lon="3.56409">
        <ele>71.666</ele>
        <time>2019-09-19T08:14:19.001Z</time>
      </trkpt>
      <trkpt lat="50.28205" lon="3.56401">
        <ele>72.314</ele>
        <time>2019-09-19T08:14:22.001Z</time>
      </trkpt>
      <trkpt lat="50.28193" lon="3.56394">
        <ele>73.197</ele>
        <time>2019-09-19T08:14:25.001Z</time>
      </trkpt>
      <trkpt lat="50.28182" lon="3.56386">
        <ele>74.33</ele>
        <time>2019-09-19T08:14:28.001Z</time>
      </trkpt>
      <trkpt lat="50.2817" lon="3.56378">
        <ele>75.419</ele>
        <time>2019-09-19T08:14:31.001Z</time>
      </trkpt>
      <trkpt lat="50.28159" lon="3.56372">
        <ele>75.668</ele>
        <time>2019-09-19T08:14:34.001Z</time>
      </trkpt>
      <trkpt lat="50.28148" lon="3.56366">
        <ele>75.312</ele>
        <time>2019-09-19T08:14:37.001Z</time>
      </trkpt>
      <trkpt lat="50.28138" lon="3.56358">
        <ele>75.8</ele>
        <time>2019-09-19T08:14:40.001Z</time>
      </trkpt>
      <trkpt lat="50.28126" lon="3.5635">
        <ele>76.403</ele>
        <time>2019-09-19T08:14:43.001Z</time>
      </trkpt>
      <trkpt lat="50.28115" lon="3.56344">
        <ele>76.756</ele>
        <time>2019-09-19T08:14:46.001Z</time>
      </trkpt>
      <trkpt lat="50.28103" lon="3.56341">
        <ele>77.714</ele>
        <time>2019-09-19T08:14:49.001Z</time>
      </trkpt>
      <trkpt lat="50.28092" lon="3.56337">
        <ele>78.949</ele>
        <time>2019-09-19T08:14:52.001Z</time>
      </trkpt>
      <trkpt lat="50.2808" lon="3.56336">
        <ele>80.109</ele>
        <time>2019-09-19T08:14:55.001Z</time>
      </trkpt>
      <trkpt lat="50.28069" lon="3.56337">
        <ele>80.038</ele>
        <time>2019-09-19T08:14:58.001Z</time>
      </trkpt>
      <trkpt lat="50.28058" lon="3.5634">
        <ele>80.81</ele>
        <time>2019-09-19T08:15:01.001Z</time>
      </trkpt>
      <trkpt lat="50.28046" lon="3.56342">
        <ele>82.04</ele>
        <time>2019-09-19T08:15:04.001Z</time>
      </trkpt>
      <trkpt lat="50.28033" lon="3.56344">
        <ele>82.796</ele>
        <time>2019-09-19T08:15:07.001Z</time>
      </trkpt>
      <trkpt lat="50.28021" lon="3.56343">
        <ele>83.482</ele>
        <time>2019-09-19T08:15:10.001Z</time>
      </trkpt>
      <trkpt lat="50.28009" lon="3.56342">
        <ele>83.551</ele>
        <time>2019-09-19T08:15:13.001Z</time>
      </trkpt>
      <trkpt lat="50.27997" lon="3.56338">
        <ele>83.249</ele>
        <time>2019-09-19T08:15:16.000Z</time>
      </trkpt>
      <trkpt lat="50.27985" lon="3.56334">
        <ele>83.718</ele>
        <time>2019-09-19T08:15:19.001Z</time>
      </trkpt>
      <trkpt lat="50.27974" lon="3.56324">
        <ele>83.972</ele>
        <time>2019-09-19T08:15:22.001Z</time>
      </trkpt>
      <trkpt lat="50.27964" lon="3.56312">
        <ele>84.553</ele>
        <time>2019-09-19T08:15:25.001Z</time>
      </trkpt>
      <trkpt lat="50.27954" lon="3.56303">
        <ele>84.552</ele>
        <time>2019-09-19T08:15:28.001Z</time>
      </trkpt>
      <trkpt lat="50.27944" lon="3.56294">
        <ele>84.223</ele>
        <time>2019-09-19T08:15:31.001Z</time>
      </trkpt>
      <trkpt lat="50.27936" lon="3.56285">
        <ele>84.469</ele>
        <time>2019-09-19T08:15:34.001Z</time>
      </trkpt>
      <trkpt lat="50.27926" lon="3.56281">
        <ele>84.75</ele>
        <time>2019-09-19T08:15:37.001Z</time>
      </trkpt>
      <trkpt lat="50.27919" lon="3.56273">
        <ele>83.7</ele>
        <time>2019-09-19T08:15:40.001Z</time>
      </trkpt>
      <trkpt lat="50.27909" lon="3.56276">
        <ele>84.916</ele>
        <time>2019-09-19T08:15:43.001Z</time>
      </trkpt>
      <trkpt lat="50.27902" lon="3.56291">
        <ele>85.735</ele>
        <time>2019-09-19T08:15:46.001Z</time>
      </trkpt>
      <trkpt lat="50.27898" lon="3.56305">
        <ele>86.682</ele>
        <time>2019-09-19T08:15:49.001Z</time>
      </trkpt>
      <trkpt lat="50.27892" lon="3.56318">
        <ele>86.833</ele>
        <time>2019-09-19T08:15:52.001Z</time>
      </trkpt>
      <trkpt lat="50.27886" lon="3.5633">
        <ele>87.332</ele>
        <time>2019-09-19T08:15:55.001Z</time>
      </trkpt>
      <trkpt lat="50.27875" lon="3.56343">
        <ele>87.409</ele>
        <time>2019-09-19T08:15:58.001Z</time>
      </trkpt>
      <trkpt lat="50.27864" lon="3.56354">
        <ele>87.462</ele>
        <time>2019-09-19T08:16:01.001Z</time>
      </trkpt>
      <trkpt lat="50.27852" lon="3.56363">
        <ele>88.127</ele>
        <time>2019-09-19T08:16:04.001Z</time>
      </trkpt>
      <trkpt lat="50.27841" lon="3.56371">
        <ele>88.677</ele>
        <time>2019-09-19T08:16:07.001Z</time>
      </trkpt>
      <trkpt lat="50.2783" lon="3.56376">
        <ele>88.83</ele>
        <time>2019-09-19T08:16:10.001Z</time>
      </trkpt>
      <trkpt lat="50.27819" lon="3.56382">
        <ele>88.795</ele>
        <time>2019-09-19T08:16:13.001Z</time>
      </trkpt>
      <trkpt lat="50.27809" lon="3.56388">
        <ele>89.281</ele>
        <time>2019-09-19T08:16:16.000Z</time>
      </trkpt>
      <trkpt lat="50.27799" lon="3.56395">
        <ele>89.867</ele>
        <time>2019-09-19T08:16:19.001Z</time>
      </trkpt>
      <trkpt lat="50.27788" lon="3.56401">
        <ele>90.117</ele>
        <time>2019-09-19T08:16:22.001Z</time>
      </trkpt>
      <trkpt lat="50.27777" lon="3.56407">
        <ele>90.318</ele>
        <time>2019-09-19T08:16:25.001Z</time>
      </trkpt>
      <trkpt lat="50.27765" lon="3.56414">
        <ele>90.963</ele>
        <time>2019-09-19T08:16:28.001Z</time>
      </trkpt>
      <trkpt lat="50.27754" lon="3.56418">
        <ele>90.888</ele>
        <time>2019-09-19T08:16:31.001Z</time>
      </trkpt>
      <trkpt lat="50.27744" lon="3.56424">
        <ele>91.373</ele>
        <time>2019-09-19T08:16:34.001Z</time>
      </trkpt>
      <trkpt lat="50.27733" lon="3.56431">
        <ele>91.303</ele>
        <time>2019-09-19T08:16:37.001Z</time>
      </trkpt>
      <trkpt lat="50.27721" lon="3.56437">
        <ele>90.554</ele>
        <time>2019-09-19T08:16:40.001Z</time>
      </trkpt>
      <trkpt lat="50.27712" lon="3.56443">
        <ele>90.016</ele>
        <time>2019-09-19T08:16:43.001Z</time>
      </trkpt>
      <trkpt lat="50.27702" lon="3.56448">
        <ele>89.842</ele>
        <time>2019-09-19T08:16:46.001Z</time>
      </trkpt>
      <trkpt lat="50.27694" lon="3.56453">
        <ele>89.89</ele>
        <time>2019-09-19T08:16:49.001Z</time>
      </trkpt>
      <trkpt lat="50.27687" lon="3.56458">
        <ele>89.961</ele>
        <time>2019-09-19T08:16:52.001Z</time>
      </trkpt>
      <trkpt lat="50.27679" lon="3.56462">
        <ele>89.257</ele>
        <time>2019-09-19T08:16:55.001Z</time>
      </trkpt>
      <trkpt lat="50.2767" lon="3.56467">
        <ele>88.657</ele>
        <time>2019-09-19T08:16:58.001Z</time>
      </trkpt>
      <trkpt lat="50.27662" lon="3.56471">
        <ele>88.043</ele>
        <time>2019-09-19T08:17:01.001Z</time>
      </trkpt>
      <trkpt lat="50.27655" lon="3.56475">
        <ele>87.725</ele>
        <time>2019-09-19T08:17:04.001Z</time>
      </trkpt>
      <trkpt lat="50.27647" lon="3.56481">
        <ele>87.368</ele>
        <time>2019-09-19T08:17:07.001Z</time>
      </trkpt>
      <trkpt lat="50.27641" lon="3.56487">
        <ele>86.863</ele>
        <time>2019-09-19T08:17:10.001Z</time>
      </trkpt>
      <trkpt lat="50.27633" lon="3.56494">
        <ele>86.755</ele>
        <time>2019-09-19T08:17:13.001Z</time>
      </trkpt>
      <trkpt lat="50.27626" lon="3.56501">
        <ele>86.135</ele>
        <time>2019-09-19T08:17:16.000Z</time>
      </trkpt>
      <trkpt lat="50.27618" lon="3.5651">
        <ele>85.868</ele>
        <time>2019-09-19T08:17:19.001Z</time>
      </trkpt>
      <trkpt lat="50.2761" lon="3.56518">
        <ele>85.819</ele>
        <time>2019-09-19T08:17:22.001Z</time>
      </trkpt>
      <trkpt lat="50.27603" lon="3.56527">
        <ele>85.699</ele>
        <time>2019-09-19T08:17:25.001Z</time>
      </trkpt>
      <trkpt lat="50.27596" lon="3.56536">
        <ele>85.698</ele>
        <time>2019-09-19T08:17:28.001Z</time>
      </trkpt>
      <trkpt lat="50.27588" lon="3.56545">
        <ele>85.839</ele>
        <time>2019-09-19T08:17:31.001Z</time>
      </trkpt>
      <trkpt lat="50.27581" lon="3.56555">
        <ele>85.961</ele>
        <time>2019-09-19T08:17:34.001Z</time>
      </trkpt>
      <trkpt lat="50.27572" lon="3.56565">
        <ele>86.197</ele>
        <time>2019-09-19T08:17:37.001Z</time>
      </trkpt>
      <trkpt lat="50.27563" lon="3.56576">
        <ele>86.458</ele>
        <time>2019-09-19T08:17:40.001Z</time>
      </trkpt>
      <trkpt lat="50.27554" lon="3.56586">
        <ele>86.178</ele>
        <time>2019-09-19T08:17:43.001Z</time>
      </trkpt>
      <trkpt lat="50.27544" lon="3.56597">
        <ele>86.009</ele>
        <time>2019-09-19T08:17:46.001Z</time>
      </trkpt>
      <trkpt lat="50.27535" lon="3.56609">
        <ele>85.901</ele>
        <time>2019-09-19T08:17:49.001Z</time>
      </trkpt>
      <trkpt lat="50.27525" lon="3.56619">
        <ele>85.847</ele>
        <time>2019-09-19T08:17:52.001Z</time>
      </trkpt>
      <trkpt lat="50.27516" lon="3.5663">
        <ele>85.758</ele>
        <time>2019-09-19T08:17:55.001Z</time>
      </trkpt>
      <trkpt lat="50.27507" lon="3.56641">
        <ele>85.811</ele>
        <time>2019-09-19T08:17:58.001Z</time>
      </trkpt>
      <trkpt lat="50.27498" lon="3.56652">
        <ele>85.964</ele>
        <time>2019-09-19T08:18:01.001Z</time>
      </trkpt>
      <trkpt lat="50.27489" lon="3.56664">
        <ele>86.223</ele>
        <time>2019-09-19T08:18:04.001Z</time>
      </trkpt>
      <trkpt lat="50.27479" lon="3.56675">
        <ele>86.055</ele>
        <time>2019-09-19T08:18:07.001Z</time>
      </trkpt>
      <trkpt lat="50.2747" lon="3.56686">
        <ele>86.49</ele>
        <time>2019-09-19T08:18:10.001Z</time>
      </trkpt>
      <trkpt lat="50.2746" lon="3.56697">
        <ele>86.51</ele>
        <time>2019-09-19T08:18:13.001Z</time>
      </trkpt>
      <trkpt lat="50.27451" lon="3.56708">
        <ele>86.606</ele>
        <time>2019-09-19T08:18:16.000Z</time>
      </trkpt>
      <trkpt lat="50.27441" lon="3.5672">
        <ele>86.902</ele>
        <time>2019-09-19T08:18:19.001Z</time>
      </trkpt>
      <trkpt lat="50.27432" lon="3.56731">
        <ele>86.834</ele>
        <time>2019-09-19T08:18:22.001Z</time>
      </trkpt>
      <trkpt lat="50.27422" lon="3.56743">
        <ele>86.76</ele>
        <time>2019-09-19T08:18:25.001Z</time>
      </trkpt>
      <trkpt lat="50.27413" lon="3.56755">
        <ele>86.822</ele>
        <time>2019-09-19T08:18:28.001Z</time>
      </trkpt>
      <trkpt lat="50.27403" lon="3.56767">
        <ele>87.098</ele>
        <time>2019-09-19T08:18:31.001Z</time>
      </trkpt>
      <trkpt lat="50.27394" lon="3.5678">
        <ele>87.166</ele>
        <time>2019-09-19T08:18:34.001Z</time>
      </trkpt>
      <trkpt lat="50.27384" lon="3.56792">
        <ele>87.347</ele>
        <time>2019-09-19T08:18:37.001Z</time>
      </trkpt>
      <trkpt lat="50.27375" lon="3.56804">
        <ele>87.362</ele>
        <time>2019-09-19T08:18:40.001Z</time>
      </trkpt>
      <trkpt lat="50.27366" lon="3.56815">
        <ele>87.254</ele>
        <time>2019-09-19T08:18:43.001Z</time>
      </trkpt>
      <trkpt lat="50.27357" lon="3.56827">
        <ele>87.391</ele>
        <time>2019-09-19T08:18:46.001Z</time>
      </trkpt>
      <trkpt lat="50.27348" lon="3.56839">
        <ele>87.874</ele>
        <time>2019-09-19T08:18:49.001Z</time>
      </trkpt>
      <trkpt lat="50.27338" lon="3.56851">
        <ele>87.978</ele>
        <time>2019-09-19T08:18:52.001Z</time>
      </trkpt>
      <trkpt lat="50.27329" lon="3.56863">
        <ele>88.233</ele>
        <time>2019-09-19T08:18:55.001Z</time>
      </trkpt>
      <trkpt lat="50.2732" lon="3.56875">
        <ele>88.526</ele>
        <time>2019-09-19T08:18:58.001Z</time>
      </trkpt>
      <trkpt lat="50.27311" lon="3.56886">
        <ele>88.552</ele>
        <time>2019-09-19T08:19:01.001Z</time>
      </trkpt>
      <trkpt lat="50.27302" lon="3.56899">
        <ele>88.908</ele>
        <time>2019-09-19T08:19:04.001Z</time>
      </trkpt>
      <trkpt lat="50.27292" lon="3.5691">
        <ele>88.713</ele>
        <time>2019-09-19T08:19:07.001Z</time>
      </trkpt>
      <trkpt lat="50.27283" lon="3.56922">
        <ele>89.034</ele>
        <time>2019-09-19T08:19:10.001Z</time>
      </trkpt>
      <trkpt lat="50.27274" lon="3.56934">
        <ele>89.018</ele>
        <time>2019-09-19T08:19:13.001Z</time>
      </trkpt>
      <trkpt lat="50.27264" lon="3.56945">
        <ele>89.054</ele>
        <time>2019-09-19T08:19:16.000Z</time>
      </trkpt>
      <trkpt lat="50.27255" lon="3.56957">
        <ele>89.26</ele>
        <time>2019-09-19T08:19:19.001Z</time>
      </trkpt>
      <trkpt lat="50.27245" lon="3.56968">
        <ele>89.495</ele>
        <time>2019-09-19T08:19:22.001Z</time>
      </trkpt>
      <trkpt lat="50.27236" lon="3.5698">
        <ele>89.756</ele>
        <time>2019-09-19T08:19:25.001Z</time>
      </trkpt>
      <trkpt lat="50.27227" lon="3.56992">
        <ele>89.833</ele>
        <time>2019-09-19T08:19:28.001Z</time>
      </trkpt>
      <trkpt lat="50.27217" lon="3.57003">
        <ele>89.845</ele>
        <time>2019-09-19T08:19:31.001Z</time>
      </trkpt>
      <trkpt lat="50.27207" lon="3.57014">
        <ele>89.9</ele>
        <time>2019-09-19T08:19:34.001Z</time>
      </trkpt>
      <trkpt lat="50.27198" lon="3.57025">
        <ele>89.923</ele>
        <time>2019-09-19T08:19:37.001Z</time>
      </trkpt>
      <trkpt lat="50.27188" lon="3.57037">
        <ele>90.104</ele>
        <time>2019-09-19T08:19:40.001Z</time>
      </trkpt>
      <trkpt lat="50.27179" lon="3.57048">
        <ele>89.787</ele>
        <time>2019-09-19T08:19:43.001Z</time>
      </trkpt>
      <trkpt lat="50.27169" lon="3.57058">
        <ele>90.087</ele>
        <time>2019-09-19T08:19:46.001Z</time>
      </trkpt>
      <trkpt lat="50.27159" lon="3.57069">
        <ele>90.278</ele>
        <time>2019-09-19T08:19:49.001Z</time>
      </trkpt>
      <trkpt lat="50.2715" lon="3.5708">
        <ele>90.382</ele>
        <time>2019-09-19T08:19:52.001Z</time>
      </trkpt>
      <trkpt lat="50.2714" lon="3.5709">
        <ele>90.644</ele>
        <time>2019-09-19T08:19:55.001Z</time>
      </trkpt>
      <trkpt lat="50.2713" lon="3.57102">
        <ele>90.995</ele>
        <time>2019-09-19T08:19:58.001Z</time>
      </trkpt>
      <trkpt lat="50.27121" lon="3.57113">
        <ele>91.091</ele>
        <time>2019-09-19T08:20:01.001Z</time>
      </trkpt>
      <trkpt lat="50.27112" lon="3.57124">
        <ele>91.453</ele>
        <time>2019-09-19T08:20:04.001Z</time>
      </trkpt>
      <trkpt lat="50.27102" lon="3.57134">
        <ele>91.831</ele>
        <time>2019-09-19T08:20:07.001Z</time>
      </trkpt>
      <trkpt lat="50.27094" lon="3.57145">
        <ele>91.917</ele>
        <time>2019-09-19T08:20:10.001Z</time>
      </trkpt>
      <trkpt lat="50.27085" lon="3.57155">
        <ele>92.242</ele>
        <time>2019-09-19T08:20:13.001Z</time>
      </trkpt>
      <trkpt lat="50.27077" lon="3.57167">
        <ele>92.308</ele>
        <time>2019-09-19T08:20:16.000Z</time>
      </trkpt>
      <trkpt lat="50.27069" lon="3.57179">
        <ele>92.413</ele>
        <time>2019-09-19T08:20:19.001Z</time>
      </trkpt>
      <trkpt lat="50.27061" lon="3.57192">
        <ele>92.571</ele>
        <time>2019-09-19T08:20:22.001Z</time>
      </trkpt>
      <trkpt lat="50.27055" lon="3.57205">
        <ele>92.444</ele>
        <time>2019-09-19T08:20:25.001Z</time>
      </trkpt>
      <trkpt lat="50.27047" lon="3.57219">
        <ele>92.55</ele>
        <time>2019-09-19T08:20:28.001Z</time>
      </trkpt>
      <trkpt lat="50.2704" lon="3.57233">
        <ele>93.145</ele>
        <time>2019-09-19T08:20:31.001Z</time>
      </trkpt>
      <trkpt lat="50.27034" lon="3.57246">
        <ele>93.323</ele>
        <time>2019-09-19T08:20:34.001Z</time>
      </trkpt>
      <trkpt lat="50.27026" lon="3.5726">
        <ele>93.71</ele>
        <time>2019-09-19T08:20:37.001Z</time>
      </trkpt>
      <trkpt lat="50.27019" lon="3.57273">
        <ele>94.115</ele>
        <time>2019-09-19T08:20:40.001Z</time>
      </trkpt>
      <trkpt lat="50.27012" lon="3.57285">
        <ele>94.574</ele>
        <time>2019-09-19T08:20:43.001Z</time>
      </trkpt>
      <trkpt lat="50.27004" lon="3.57297">
        <ele>95.007</ele>
        <time>2019-09-19T08:20:46.001Z</time>
      </trkpt>
      <trkpt lat="50.26996" lon="3.57308">
        <ele>95.531</ele>
        <time>2019-09-19T08:20:49.001Z</time>
      </trkpt>
      <trkpt lat="50.26989" lon="3.57319">
        <ele>95.802</ele>
        <time>2019-09-19T08:20:52.001Z</time>
      </trkpt>
      <trkpt lat="50.26981" lon="3.57331">
        <ele>95.992</ele>
        <time>2019-09-19T08:20:55.001Z</time>
      </trkpt>
      <trkpt lat="50.26975" lon="3.57342">
        <ele>96.451</ele>
        <time>2019-09-19T08:20:58.001Z</time>
      </trkpt>
      <trkpt lat="50.26969" lon="3.57354">
        <ele>95.722</ele>
        <time>2019-09-19T08:21:01.001Z</time>
      </trkpt>
      <trkpt lat="50.26963" lon="3.57364">
        <ele>95.926</ele>
        <time>2019-09-19T08:21:04.001Z</time>
      </trkpt>
      <trkpt lat="50.26957" lon="3.57372">
        <ele>96.185</ele>
        <time>2019-09-19T08:21:07.001Z</time>
      </trkpt>
      <trkpt lat="50.2695" lon="3.5738">
        <ele>96.665</ele>
        <time>2019-09-19T08:21:10.001Z</time>
      </trkpt>
      <trkpt lat="50.26944" lon="3.57387">
        <ele>97.448</ele>
        <time>2019-09-19T08:21:13.001Z</time>
      </trkpt>
      <trkpt lat="50.26937" lon="3.57393">
        <ele>98.25</ele>
        <time>2019-09-19T08:21:16.000Z</time>
      </trkpt>
      <trkpt lat="50.2693" lon="3.574">
        <ele>98.667</ele>
        <time>2019-09-19T08:21:19.001Z</time>
      </trkpt>
      <trkpt lat="50.26924" lon="3.57406">
        <ele>99.246</ele>
        <time>2019-09-19T08:21:22.001Z</time>
      </trkpt>
      <trkpt lat="50.26917" lon="3.57413">
        <ele>99.583</ele>
        <time>2019-09-19T08:21:25.001Z</time>
      </trkpt>
      <trkpt lat="50.26911" lon="3.57419">
        <ele>99.748</ele>
        <time>2019-09-19T08:21:28.001Z</time>
      </trkpt>
      <trkpt lat="50.26905" lon="3.57426">
        <ele>100.39</ele>
        <time>2019-09-19T08:21:31.001Z</time>
      </trkpt>
      <trkpt lat="50.26898" lon="3.57432">
        <ele>100.312</ele>
        <time>2019-09-19T08:21:34.001Z</time>
      </trkpt>
      <trkpt lat="50.26892" lon="3.57439">
        <ele>100.185</ele>
        <time>2019-09-19T08:21:37.001Z</time>
      </trkpt>
      <trkpt lat="50.26886" lon="3.57447">
        <ele>100.849</ele>
        <time>2019-09-19T08:21:40.001Z</time>
      </trkpt>
      <trkpt lat="50.26881" lon="3.57454">
        <ele>101.128</ele>
        <time>2019-09-19T08:21:43.001Z</time>
      </trkpt>
      <trkpt lat="50.26875" lon="3.57461">
        <ele>102.124</ele>
        <time>2019-09-19T08:21:46.001Z</time>
      </trkpt>
      <trkpt lat="50.26869" lon="3.5747">
        <ele>102.503</ele>
        <time>2019-09-19T08:21:49.001Z</time>
      </trkpt>
      <trkpt lat="50.26864" lon="3.57478">
        <ele>102.818</ele>
        <time>2019-09-19T08:21:52.001Z</time>
      </trkpt>
      <trkpt lat="50.26859" lon="3.57487">
        <ele>103.201</ele>
        <time>2019-09-19T08:21:55.001Z</time>
      </trkpt>
      <trkpt lat="50.26854" lon="3.57496">
        <ele>103.108</ele>
        <time>2019-09-19T08:21:58.001Z</time>
      </trkpt>
      <trkpt lat="50.26849" lon="3.57503">
        <ele>103.561</ele>
        <time>2019-09-19T08:22:01.001Z</time>
      </trkpt>
      <trkpt lat="50.26843" lon="3.5751">
        <ele>103.989</ele>
        <time>2019-09-19T08:22:04.001Z</time>
      </trkpt>
      <trkpt lat="50.26838" lon="3.57518">
        <ele>104.198</ele>
        <time>2019-09-19T08:22:07.001Z</time>
      </trkpt>
      <trkpt lat="50.26833" lon="3.57527">
        <ele>104.398</ele>
        <time>2019-09-19T08:22:10.001Z</time>
      </trkpt>
      <trkpt lat="50.26827" lon="3.57535">
        <ele>104.296</ele>
        <time>2019-09-19T08:22:13.001Z</time>
      </trkpt>
      <trkpt lat="50.26821" lon="3.57543">
        <ele>104.273</ele>
        <time>2019-09-19T08:22:16.000Z</time>
      </trkpt>
      <trkpt lat="50.26815" lon="3.57551">
        <ele>104.471</ele>
        <time>2019-09-19T08:22:19.001Z</time>
      </trkpt>
      <trkpt lat="50.26809" lon="3.57559">
        <ele>104.418</ele>
        <time>2019-09-19T08:22:22.001Z</time>
      </trkpt>
      <trkpt lat="50.26803" lon="3.57567">
        <ele>104.661</ele>
        <time>2019-09-19T08:22:25.001Z</time>
      </trkpt>
      <trkpt lat="50.26797" lon="3.57575">
        <ele>104.814</ele>
        <time>2019-09-19T08:22:28.001Z</time>
      </trkpt>
      <trkpt lat="50.26789" lon="3.57583">
        <ele>104.808</ele>
        <time>2019-09-19T08:22:31.001Z</time>
      </trkpt>
      <trkpt lat="50.26782" lon="3.57592">
        <ele>105.128</ele>
        <time>2019-09-19T08:22:34.001Z</time>
      </trkpt>
      <trkpt lat="50.26773" lon="3.57603">
        <ele>104.989</ele>
        <time>2019-09-19T08:22:37.001Z</time>
      </trkpt>
      <trkpt lat="50.26765" lon="3.57614">
        <ele>104.708</ele>
        <time>2019-09-19T08:22:40.001Z</time>
      </trkpt>
      <trkpt lat="50.26755" lon="3.57626">
        <ele>104.633</ele>
        <time>2019-09-19T08:22:43.001Z</time>
      </trkpt>
      <trkpt lat="50.26746" lon="3.57638">
        <ele>104.868</ele>
        <time>2019-09-19T08:22:46.001Z</time>
      </trkpt>
      <trkpt lat="50.26735" lon="3.5765">
        <ele>105.051</ele>
        <time>2019-09-19T08:22:49.001Z</time>
      </trkpt>
      <trkpt lat="50.26724" lon="3.57663">
        <ele>104.619</ele>
        <time>2019-09-19T08:22:52.001Z</time>
      </trkpt>
      <trkpt lat="50.26713" lon="3.57677">
        <ele>104.604</ele>
        <time>2019-09-19T08:22:55.001Z</time>
      </trkpt>
      <trkpt lat="50.26701" lon="3.57692">
        <ele>104.268</ele>
        <time>2019-09-19T08:22:58.001Z</time>
      </trkpt>
      <trkpt lat="50.26689" lon="3.57706">
        <ele>104.477</ele>
        <time>2019-09-19T08:23:01.001Z</time>
      </trkpt>
      <trkpt lat="50.26677" lon="3.5772">
        <ele>104.498</ele>
        <time>2019-09-19T08:23:04.001Z</time>
      </trkpt>
      <trkpt lat="50.26665" lon="3.57735">
        <ele>104.701</ele>
        <time>2019-09-19T08:23:07.001Z</time>
      </trkpt>
      <trkpt lat="50.26653" lon="3.57749">
        <ele>104.999</ele>
        <time>2019-09-19T08:23:10.001Z</time>
      </trkpt>
      <trkpt lat="50.2664" lon="3.57765">
        <ele>105.228</ele>
        <time>2019-09-19T08:23:13.001Z</time>
      </trkpt>
      <trkpt lat="50.26626" lon="3.5778">
        <ele>105.631</ele>
        <time>2019-09-19T08:23:16.000Z</time>
      </trkpt>
      <trkpt lat="50.26614" lon="3.57795">
        <ele>106.13</ele>
        <time>2019-09-19T08:23:19.001Z</time>
      </trkpt>
      <trkpt lat="50.26602" lon="3.5781">
        <ele>106.456</ele>
        <time>2019-09-19T08:23:22.001Z</time>
      </trkpt>
      <trkpt lat="50.26589" lon="3.57824">
        <ele>106.709</ele>
        <time>2019-09-19T08:23:25.001Z</time>
      </trkpt>
      <trkpt lat="50.26576" lon="3.57837">
        <ele>106.436</ele>
        <time>2019-09-19T08:23:28.001Z</time>
      </trkpt>
      <trkpt lat="50.26563" lon="3.57849">
        <ele>105.662</ele>
        <time>2019-09-19T08:23:31.001Z</time>
      </trkpt>
      <trkpt lat="50.2655" lon="3.5786">
        <ele>105.537</ele>
        <time>2019-09-19T08:23:34.001Z</time>
      </trkpt>
      <trkpt lat="50.26538" lon="3.57871">
        <ele>105.897</ele>
        <time>2019-09-19T08:23:37.001Z</time>
      </trkpt>
      <trkpt lat="50.26525" lon="3.57881">
        <ele>107.081</ele>
        <time>2019-09-19T08:23:40.001Z</time>
      </trkpt>
      <trkpt lat="50.26515" lon="3.57892">
        <ele>107.471</ele>
        <time>2019-09-19T08:23:43.001Z</time>
      </trkpt>
      <trkpt lat="50.26503" lon="3.57902">
        <ele>108.021</ele>
        <time>2019-09-19T08:23:46.001Z</time>
      </trkpt>
      <trkpt lat="50.2649" lon="3.57911">
        <ele>108.006</ele>
        <time>2019-09-19T08:23:49.001Z</time>
      </trkpt>
      <trkpt lat="50.26478" lon="3.5792">
        <ele>107.451</ele>
        <time>2019-09-19T08:23:52.001Z</time>
      </trkpt>
      <trkpt lat="50.26466" lon="3.57929">
        <ele>106.538</ele>
        <time>2019-09-19T08:23:55.001Z</time>
      </trkpt>
      <trkpt lat="50.26455" lon="3.57938">
        <ele>106.528</ele>
        <time>2019-09-19T08:23:58.001Z</time>
      </trkpt>
      <trkpt lat="50.26444" lon="3.57947">
        <ele>106.835</ele>
        <time>2019-09-19T08:24:01.001Z</time>
      </trkpt>
      <trkpt lat="50.26432" lon="3.57956">
        <ele>106.849</ele>
        <time>2019-09-19T08:24:04.001Z</time>
      </trkpt>
      <trkpt lat="50.26421" lon="3.57965">
        <ele>106.773</ele>
        <time>2019-09-19T08:24:07.001Z</time>
      </trkpt>
      <trkpt lat="50.2641" lon="3.57974">
        <ele>106.999</ele>
        <time>2019-09-19T08:24:10.001Z</time>
      </trkpt>
      <trkpt lat="50.26399" lon="3.57984">
        <ele>106.86</ele>
        <time>2019-09-19T08:24:13.001Z</time>
      </trkpt>
      <trkpt lat="50.26387" lon="3.57993">
        <ele>106.987</ele>
        <time>2019-09-19T08:24:16.000Z</time>
      </trkpt>
      <trkpt lat="50.26376" lon="3.58002">
        <ele>106.75</ele>
        <time>2019-09-19T08:24:19.001Z</time>
      </trkpt>
      <trkpt lat="50.26365" lon="3.58011">
        <ele>106.641</ele>
        <time>2019-09-19T08:24:22.001Z</time>
      </trkpt>
      <trkpt lat="50.26354" lon="3.58021">
        <ele>106.872</ele>
        <time>2019-09-19T08:24:25.001Z</time>
      </trkpt>
      <trkpt lat="50.26342" lon="3.5803">
        <ele>106.984</ele>
        <time>2019-09-19T08:24:28.001Z</time>
      </trkpt>
      <trkpt lat="50.26331" lon="3.5804">
        <ele>107.072</ele>
        <time>2019-09-19T08:24:31.001Z</time>
      </trkpt>
      <trkpt lat="50.26319" lon="3.5805">
        <ele>107.184</ele>
        <time>2019-09-19T08:24:34.001Z</time>
      </trkpt>
      <trkpt lat="50.26308" lon="3.58061">
        <ele>107.018</ele>
        <time>2019-09-19T08:24:37.001Z</time>
      </trkpt>
      <trkpt lat="50.26298" lon="3.58074">
        <ele>107.715</ele>
        <time>2019-09-19T08:24:40.001Z</time>
      </trkpt>
      <trkpt lat="50.26287" lon="3.58088">
        <ele>107.7</ele>
        <time>2019-09-19T08:24:43.001Z</time>
      </trkpt>
      <trkpt lat="50.26276" lon="3.58105">
        <ele>107.63</ele>
        <time>2019-09-19T08:24:46.001Z</time>
      </trkpt>
      <trkpt lat="50.26264" lon="3.58122">
        <ele>107.282</ele>
        <time>2019-09-19T08:24:49.001Z</time>
      </trkpt>
      <trkpt lat="50.26252" lon="3.58139">
        <ele>106.866</ele>
        <time>2019-09-19T08:24:52.001Z</time>
      </trkpt>
      <trkpt lat="50.2624" lon="3.58156">
        <ele>106.515</ele>
        <time>2019-09-19T08:24:55.001Z</time>
      </trkpt>
      <trkpt lat="50.26229" lon="3.58173">
        <ele>106.99</ele>
        <time>2019-09-19T08:24:58.001Z</time>
      </trkpt>
      <trkpt lat="50.26217" lon="3.5819">
        <ele>106.994</ele>
        <time>2019-09-19T08:25:01.001Z</time>
      </trkpt>
      <trkpt lat="50.26206" lon="3.58206">
        <ele>107.194</ele>
        <time>2019-09-19T08:25:04.001Z</time>
      </trkpt>
      <trkpt lat="50.26195" lon="3.5822">
        <ele>107.403</ele>
        <time>2019-09-19T08:25:07.001Z</time>
      </trkpt>
      <trkpt lat="50.26185" lon="3.58232">
        <ele>107.701</ele>
        <time>2019-09-19T08:25:10.001Z</time>
      </trkpt>
      <trkpt lat="50.26175" lon="3.58243">
        <ele>108.015</ele>
        <time>2019-09-19T08:25:13.001Z</time>
      </trkpt>
      <trkpt lat="50.26165" lon="3.58255">
        <ele>108.235</ele>
        <time>2019-09-19T08:25:16.000Z</time>
      </trkpt>
      <trkpt lat="50.26155" lon="3.58266">
        <ele>108.328</ele>
        <time>2019-09-19T08:25:19.001Z</time>
      </trkpt>
      <trkpt lat="50.26145" lon="3.58277">
        <ele>107.885</ele>
        <time>2019-09-19T08:25:22.001Z</time>
      </trkpt>
      <trkpt lat="50.26133" lon="3.58287">
        <ele>107.838</ele>
        <time>2019-09-19T08:25:25.001Z</time>
      </trkpt>
      <trkpt lat="50.2612" lon="3.58297">
        <ele>107.813</ele>
        <time>2019-09-19T08:25:28.001Z</time>
      </trkpt>
      <trkpt lat="50.26106" lon="3.58309">
        <ele>107.762</ele>
        <time>2019-09-19T08:25:31.001Z</time>
      </trkpt>
      <trkpt lat="50.26092" lon="3.5832">
        <ele>107.747</ele>
        <time>2019-09-19T08:25:34.001Z</time>
      </trkpt>
      <trkpt lat="50.26078" lon="3.5833">
        <ele>107.39</ele>
        <time>2019-09-19T08:25:37.001Z</time>
      </trkpt>
      <trkpt lat="50.26064" lon="3.58341">
        <ele>107.195</ele>
        <time>2019-09-19T08:25:40.001Z</time>
      </trkpt>
      <trkpt lat="50.2605" lon="3.58351">
        <ele>106.919</ele>
        <time>2019-09-19T08:25:43.001Z</time>
      </trkpt>
      <trkpt lat="50.26037" lon="3.58363">
        <ele>106.802</ele>
        <time>2019-09-19T08:25:46.001Z</time>
      </trkpt>
      <trkpt lat="50.26024" lon="3.58374">
        <ele>106.854</ele>
        <time>2019-09-19T08:25:49.001Z</time>
      </trkpt>
      <trkpt lat="50.26011" lon="3.58382">
        <ele>107.056</ele>
        <time>2019-09-19T08:25:52.001Z</time>
      </trkpt>
      <trkpt lat="50.25996" lon="3.58389">
        <ele>107.272</ele>
        <time>2019-09-19T08:25:55.001Z</time>
      </trkpt>
      <trkpt lat="50.25979" lon="3.58396">
        <ele>107.448</ele>
        <time>2019-09-19T08:25:58.001Z</time>
      </trkpt>
      <trkpt lat="50.25958" lon="3.584">
        <ele>107.521</ele>
        <time>2019-09-19T08:26:01.001Z</time>
      </trkpt>
      <trkpt lat="50.2594" lon="3.58401">
        <ele>107.949</ele>
        <time>2019-09-19T08:26:04.001Z</time>
      </trkpt>
      <trkpt lat="50.25921" lon="3.58401">
        <ele>108.461</ele>
        <time>2019-09-19T08:26:07.001Z</time>
      </trkpt>
      <trkpt lat="50.25902" lon="3.58402">
        <ele>108.877</ele>
        <time>2019-09-19T08:26:10.001Z</time>
      </trkpt>
      <trkpt lat="50.25884" lon="3.58403">
        <ele>109.266</ele>
        <time>2019-09-19T08:26:13.001Z</time>
      </trkpt>
      <trkpt lat="50.25871" lon="3.58403">
        <ele>109.583</ele>
        <time>2019-09-19T08:26:16.000Z</time>
      </trkpt>
      <trkpt lat="50.25862" lon="3.58403">
        <ele>109.8</ele>
        <time>2019-09-19T08:26:19.001Z</time>
      </trkpt>
      <trkpt lat="50.25857" lon="3.58403">
        <ele>109.295</ele>
        <time>2019-09-19T08:26:22.001Z</time>
      </trkpt>
      <trkpt lat="50.25853" lon="3.5841">
        <ele>109.005</ele>
        <time>2019-09-19T08:26:25.001Z</time>
      </trkpt>
      <trkpt lat="50.25853" lon="3.58427">
        <ele>108.905</ele>
        <time>2019-09-19T08:26:28.001Z</time>
      </trkpt>
      <trkpt lat="50.25851" lon="3.58448">
        <ele>108.999</ele>
        <time>2019-09-19T08:26:31.001Z</time>
      </trkpt>
      <trkpt lat="50.25851" lon="3.58469">
        <ele>109.332</ele>
        <time>2019-09-19T08:26:34.001Z</time>
      </trkpt>
      <trkpt lat="50.25852" lon="3.58491">
        <ele>109.791</ele>
        <time>2019-09-19T08:26:37.001Z</time>
      </trkpt>
      <trkpt lat="50.25856" lon="3.58517">
        <ele>110.398</ele>
        <time>2019-09-19T08:26:40.001Z</time>
      </trkpt>
      <trkpt lat="50.25862" lon="3.58542">
        <ele>109.901</ele>
        <time>2019-09-19T08:26:43.001Z</time>
      </trkpt>
      <trkpt lat="50.25868" lon="3.58565">
        <ele>108.818</ele>
        <time>2019-09-19T08:26:46.001Z</time>
      </trkpt>
      <trkpt lat="50.25873" lon="3.58586">
        <ele>108.028</ele>
        <time>2019-09-19T08:26:49.001Z</time>
      </trkpt>
      <trkpt lat="50.25874" lon="3.58609">
        <ele>107.52</ele>
        <time>2019-09-19T08:26:52.001Z</time>
      </trkpt>
      <trkpt lat="50.25874" lon="3.58632">
        <ele>106.826</ele>
        <time>2019-09-19T08:26:55.001Z</time>
      </trkpt>
      <trkpt lat="50.25873" lon="3.58657">
        <ele>106.314</ele>
        <time>2019-09-19T08:26:58.001Z</time>
      </trkpt>
      <trkpt lat="50.25873" lon="3.58682">
        <ele>106.262</ele>
        <time>2019-09-19T08:27:01.001Z</time>
      </trkpt>
      <trkpt lat="50.25872" lon="3.58704">
        <ele>106.207</ele>
        <time>2019-09-19T08:27:04.001Z</time>
      </trkpt>
      <trkpt lat="50.25869" lon="3.58726">
        <ele>106.272</ele>
        <time>2019-09-19T08:27:07.001Z</time>
      </trkpt>
      <trkpt lat="50.25866" lon="3.58748">
        <ele>106.946</ele>
        <time>2019-09-19T08:27:10.001Z</time>
      </trkpt>
      <trkpt lat="50.25865" lon="3.58767">
        <ele>106.559</ele>
        <time>2019-09-19T08:27:13.001Z</time>
      </trkpt>
      <trkpt lat="50.25863" lon="3.58787">
        <ele>106.777</ele>
        <time>2019-09-19T08:27:16.000Z</time>
      </trkpt>
      <trkpt lat="50.2586" lon="3.58809">
        <ele>106.553</ele>
        <time>2019-09-19T08:27:19.001Z</time>
      </trkpt>
      <trkpt lat="50.25858" lon="3.58832">
        <ele>106.158</ele>
        <time>2019-09-19T08:27:22.001Z</time>
      </trkpt>
      <trkpt lat="50.25854" lon="3.58854">
        <ele>106.053</ele>
        <time>2019-09-19T08:27:25.001Z</time>
      </trkpt>
      <trkpt lat="50.25849" lon="3.58874">
        <ele>106.429</ele>
        <time>2019-09-19T08:27:28.001Z</time>
      </trkpt>
      <trkpt lat="50.25845" lon="3.58894">
        <ele>106.424</ele>
        <time>2019-09-19T08:27:31.001Z</time>
      </trkpt>
      <trkpt lat="50.25841" lon="3.58914">
        <ele>106.651</ele>
        <time>2019-09-19T08:27:34.001Z</time>
      </trkpt>
      <trkpt lat="50.25837" lon="3.58932">
        <ele>106.938</ele>
        <time>2019-09-19T08:27:37.001Z</time>
      </trkpt>
      <trkpt lat="50.25828" lon="3.58946">
        <ele>106.566</ele>
        <time>2019-09-19T08:27:40.001Z</time>
      </trkpt>
      <trkpt lat="50.25814" lon="3.58953">
        <ele>106.428</ele>
        <time>2019-09-19T08:27:43.001Z</time>
      </trkpt>
      <trkpt lat="50.25804" lon="3.58969">
        <ele>105.442</ele>
        <time>2019-09-19T08:27:46.001Z</time>
      </trkpt>
      <trkpt lat="50.25805" lon="3.58993">
        <ele>104.381</ele>
        <time>2019-09-19T08:27:49.001Z</time>
      </trkpt>
      <trkpt lat="50.2581" lon="3.59013">
        <ele>103.802</ele>
        <time>2019-09-19T08:27:52.001Z</time>
      </trkpt>
      <trkpt lat="50.25811" lon="3.59034">
        <ele>103.852</ele>
        <time>2019-09-19T08:27:55.001Z</time>
      </trkpt>
      <trkpt lat="50.2581" lon="3.59052">
        <ele>103.897</ele>
        <time>2019-09-19T08:27:58.001Z</time>
      </trkpt>
      <trkpt lat="50.25805" lon="3.5907">
        <ele>103.7</ele>
        <time>2019-09-19T08:28:01.001Z</time>
      </trkpt>
      <trkpt lat="50.258" lon="3.59088">
        <ele>104.739</ele>
        <time>2019-09-19T08:28:04.001Z</time>
      </trkpt>
      <trkpt lat="50.25795" lon="3.59105">
        <ele>105.925</ele>
        <time>2019-09-19T08:28:07.001Z</time>
      </trkpt>
      <trkpt lat="50.25792" lon="3.59124">
        <ele>106.4</ele>
        <time>2019-09-19T08:28:10.001Z</time>
      </trkpt>
      <trkpt lat="50.25789" lon="3.59145">
        <ele>106.593</ele>
        <time>2019-09-19T08:28:13.001Z</time>
      </trkpt>
      <trkpt lat="50.25785" lon="3.59166">
        <ele>106.176</ele>
        <time>2019-09-19T08:28:16.000Z</time>
      </trkpt>
      <trkpt lat="50.25782" lon="3.59185">
        <ele>106.346</ele>
        <time>2019-09-19T08:28:19.001Z</time>
      </trkpt>
      <trkpt lat="50.25779" lon="3.59203">
        <ele>106.619</ele>
        <time>2019-09-19T08:28:22.001Z</time>
      </trkpt>
      <trkpt lat="50.25778" lon="3.59222">
        <ele>106.966</ele>
        <time>2019-09-19T08:28:25.001Z</time>
      </trkpt>
      <trkpt lat="50.25778" lon="3.59243">
        <ele>106.015</ele>
        <time>2019-09-19T08:28:28.001Z</time>
      </trkpt>
      <trkpt lat="50.25775" lon="3.59265">
        <ele>104.385</ele>
        <time>2019-09-19T08:28:31.001Z</time>
      </trkpt>
      <trkpt lat="50.25773" lon="3.59285">
        <ele>104.189</ele>
        <time>2019-09-19T08:28:34.001Z</time>
      </trkpt>
      <trkpt lat="50.25768" lon="3.59304">
        <ele>103.92</ele>
        <time>2019-09-19T08:28:37.001Z</time>
      </trkpt>
      <trkpt lat="50.25764" lon="3.59322">
        <ele>104.018</ele>
        <time>2019-09-19T08:28:40.001Z</time>
      </trkpt>
      <trkpt lat="50.25761" lon="3.5934">
        <ele>105.101</ele>
        <time>2019-09-19T08:28:43.001Z</time>
      </trkpt>
      <trkpt lat="50.25757" lon="3.59357">
        <ele>106.009</ele>
        <time>2019-09-19T08:28:46.001Z</time>
      </trkpt>
      <trkpt lat="50.25753" lon="3.59377">
        <ele>106.698</ele>
        <time>2019-09-19T08:28:49.001Z</time>
      </trkpt>
      <trkpt lat="50.2575" lon="3.59396">
        <ele>107.483</ele>
        <time>2019-09-19T08:28:52.001Z</time>
      </trkpt>
      <trkpt lat="50.25746" lon="3.59414">
        <ele>108.325</ele>
        <time>2019-09-19T08:28:55.001Z</time>
      </trkpt>
      <trkpt lat="50.25742" lon="3.59432">
        <ele>109.123</ele>
        <time>2019-09-19T08:28:58.001Z</time>
      </trkpt>
      <trkpt lat="50.25738" lon="3.59449">
        <ele>109.326</ele>
        <time>2019-09-19T08:29:01.001Z</time>
      </trkpt>
      <trkpt lat="50.25737" lon="3.59465">
        <ele>110.189</ele>
        <time>2019-09-19T08:29:04.001Z</time>
      </trkpt>
      <trkpt lat="50.25736" lon="3.5948">
        <ele>111.385</ele>
        <time>2019-09-19T08:29:07.001Z</time>
      </trkpt>
      <trkpt lat="50.25732" lon="3.59494">
        <ele>112.229</ele>
        <time>2019-09-19T08:29:10.001Z</time>
      </trkpt>
      <trkpt lat="50.25729" lon="3.59509">
        <ele>112.686</ele>
        <time>2019-09-19T08:29:13.001Z</time>
      </trkpt>
      <trkpt lat="50.25726" lon="3.59525">
        <ele>112.42</ele>
        <time>2019-09-19T08:29:16.000Z</time>
      </trkpt>
      <trkpt lat="50.25723" lon="3.59542">
        <ele>113.021</ele>
        <time>2019-09-19T08:29:19.001Z</time>
      </trkpt>
      <trkpt lat="50.25721" lon="3.5956">
        <ele>113.233</ele>
        <time>2019-09-19T08:29:22.001Z</time>
      </trkpt>
      <trkpt lat="50.25718" lon="3.59579">
        <ele>113.327</ele>
        <time>2019-09-19T08:29:25.001Z</time>
      </trkpt>
      <trkpt lat="50.25715" lon="3.59598">
        <ele>112.933</ele>
        <time>2019-09-19T08:29:28.001Z</time>
      </trkpt>
      <trkpt lat="50.25714" lon="3.59618">
        <ele>112.059</ele>
        <time>2019-09-19T08:29:31.001Z</time>
      </trkpt>
      <trkpt lat="50.25713" lon="3.59635">
        <ele>112.503</ele>
        <time>2019-09-19T08:29:34.001Z</time>
      </trkpt>
      <trkpt lat="50.2571" lon="3.59654">
        <ele>112.393</ele>
        <time>2019-09-19T08:29:37.001Z</time>
      </trkpt>
      <trkpt lat="50.25707" lon="3.59672">
        <ele>112.612</ele>
        <time>2019-09-19T08:29:40.001Z</time>
      </trkpt>
      <trkpt lat="50.25702" lon="3.59689">
        <ele>113.129</ele>
        <time>2019-09-19T08:29:43.001Z</time>
      </trkpt>
      <trkpt lat="50.25697" lon="3.59706">
        <ele>113.34</ele>
        <time>2019-09-19T08:29:46.001Z</time>
      </trkpt>
      <trkpt lat="50.25691" lon="3.59724">
        <ele>113.14</ele>
        <time>2019-09-19T08:29:49.001Z</time>
      </trkpt>
      <trkpt lat="50.25686" lon="3.59742">
        <ele>112.915</ele>
        <time>2019-09-19T08:29:52.001Z</time>
      </trkpt>
      <trkpt lat="50.25679" lon="3.59759">
        <ele>112.866</ele>
        <time>2019-09-19T08:29:55.001Z</time>
      </trkpt>
      <trkpt lat="50.25674" lon="3.59775">
        <ele>113.045</ele>
        <time>2019-09-19T08:29:58.001Z</time>
      </trkpt>
      <trkpt lat="50.25669" lon="3.59792">
        <ele>113.541</ele>
        <time>2019-09-19T08:30:01.001Z</time>
      </trkpt>
      <trkpt lat="50.25663" lon="3.59809">
        <ele>113.869</ele>
        <time>2019-09-19T08:30:04.001Z</time>
      </trkpt>
      <trkpt lat="50.25658" lon="3.59826">
        <ele>114.075</ele>
        <time>2019-09-19T08:30:07.001Z</time>
      </trkpt>
      <trkpt lat="50.25653" lon="3.59842">
        <ele>113.921</ele>
        <time>2019-09-19T08:30:10.001Z</time>
      </trkpt>
      <trkpt lat="50.25649" lon="3.59859">
        <ele>114.445</ele>
        <time>2019-09-19T08:30:13.001Z</time>
      </trkpt>
      <trkpt lat="50.25645" lon="3.59876">
        <ele>114.419</ele>
        <time>2019-09-19T08:30:16.000Z</time>
      </trkpt>
      <trkpt lat="50.25642" lon="3.59893">
        <ele>114.568</ele>
        <time>2019-09-19T08:30:19.001Z</time>
      </trkpt>
      <trkpt lat="50.25638" lon="3.59909">
        <ele>114.344</ele>
        <time>2019-09-19T08:30:22.001Z</time>
      </trkpt>
      <trkpt lat="50.25634" lon="3.59924">
        <ele>114.879</ele>
        <time>2019-09-19T08:30:25.001Z</time>
      </trkpt>
      <trkpt lat="50.25628" lon="3.59939">
        <ele>115.01</ele>
        <time>2019-09-19T08:30:28.001Z</time>
      </trkpt>
      <trkpt lat="50.25623" lon="3.59953">
        <ele>114.597</ele>
        <time>2019-09-19T08:30:31.001Z</time>
      </trkpt>
      <trkpt lat="50.25618" lon="3.59968">
        <ele>114.547</ele>
        <time>2019-09-19T08:30:34.001Z</time>
      </trkpt>
      <trkpt lat="50.25613" lon="3.59983">
        <ele>114.499</ele>
        <time>2019-09-19T08:30:37.001Z</time>
      </trkpt>
      <trkpt lat="50.25607" lon="3.59998">
        <ele>114.595</ele>
        <time>2019-09-19T08:30:40.001Z</time>
      </trkpt>
      <trkpt lat="50.25602" lon="3.60012">
        <ele>115.227</ele>
        <time>2019-09-19T08:30:43.001Z</time>
      </trkpt>
      <trkpt lat="50.25597" lon="3.60024">
        <ele>114.742</ele>
        <time>2019-09-19T08:30:46.001Z</time>
      </trkpt>
      <trkpt lat="50.25591" lon="3.60038">
        <ele>114.769</ele>
        <time>2019-09-19T08:30:49.001Z</time>
      </trkpt>
      <trkpt lat="50.25586" lon="3.6005">
        <ele>115.208</ele>
        <time>2019-09-19T08:30:52.001Z</time>
      </trkpt>
      <trkpt lat="50.25581" lon="3.60063">
        <ele>115.823</ele>
        <time>2019-09-19T08:30:55.001Z</time>
      </trkpt>
      <trkpt lat="50.25576" lon="3.60076">
        <ele>116.137</ele>
        <time>2019-09-19T08:30:58.001Z</time>
      </trkpt>
      <trkpt lat="50.25569" lon="3.60089">
        <ele>117.271</ele>
        <time>2019-09-19T08:31:01.001Z</time>
      </trkpt>
      <trkpt lat="50.25562" lon="3.60101">
        <ele>116.92</ele>
        <time>2019-09-19T08:31:04.001Z</time>
      </trkpt>
      <trkpt lat="50.25556" lon="3.60113">
        <ele>116.975</ele>
        <time>2019-09-19T08:31:07.001Z</time>
      </trkpt>
      <trkpt lat="50.25549" lon="3.60125">
        <ele>117.167</ele>
        <time>2019-09-19T08:31:10.001Z</time>
      </trkpt>
      <trkpt lat="50.25541" lon="3.60138">
        <ele>116.695</ele>
        <time>2019-09-19T08:31:13.001Z</time>
      </trkpt>
      <trkpt lat="50.25534" lon="3.60152">
        <ele>115.98</ele>
        <time>2019-09-19T08:31:16.000Z</time>
      </trkpt>
      <trkpt lat="50.25526" lon="3.60165">
        <ele>115.682</ele>
        <time>2019-09-19T08:31:19.001Z</time>
      </trkpt>
      <trkpt lat="50.25518" lon="3.60178">
        <ele>115.638</ele>
        <time>2019-09-19T08:31:22.001Z</time>
      </trkpt>
      <trkpt lat="50.2551" lon="3.60192">
        <ele>114.609</ele>
        <time>2019-09-19T08:31:25.001Z</time>
      </trkpt>
      <trkpt lat="50.25503" lon="3.60208">
        <ele>113.266</ele>
        <time>2019-09-19T08:31:28.001Z</time>
      </trkpt>
      <trkpt lat="50.25495" lon="3.60225">
        <ele>112.567</ele>
        <time>2019-09-19T08:31:31.001Z</time>
      </trkpt>
      <trkpt lat="50.25488" lon="3.60243">
        <ele>111.907</ele>
        <time>2019-09-19T08:31:34.001Z</time>
      </trkpt>
      <trkpt lat="50.25482" lon="3.60261">
        <ele>111.466</ele>
        <time>2019-09-19T08:31:37.001Z</time>
      </trkpt>
      <trkpt lat="50.25477" lon="3.60279">
        <ele>111.264</ele>
        <time>2019-09-19T08:31:40.001Z</time>
      </trkpt>
      <trkpt lat="50.25472" lon="3.60296">
        <ele>111.511</ele>
        <time>2019-09-19T08:31:43.001Z</time>
      </trkpt>
      <trkpt lat="50.25467" lon="3.60313">
        <ele>111.791</ele>
        <time>2019-09-19T08:31:46.001Z</time>
      </trkpt>
      <trkpt lat="50.25463" lon="3.60329">
        <ele>111.964</ele>
        <time>2019-09-19T08:31:49.001Z</time>
      </trkpt>
      <trkpt lat="50.25459" lon="3.60345">
        <ele>112.059</ele>
        <time>2019-09-19T08:31:52.001Z</time>
      </trkpt>
      <trkpt lat="50.25454" lon="3.60362">
        <ele>111.86</ele>
        <time>2019-09-19T08:31:55.001Z</time>
      </trkpt>
      <trkpt lat="50.25449" lon="3.6038">
        <ele>111.705</ele>
        <time>2019-09-19T08:31:58.001Z</time>
      </trkpt>
      <trkpt lat="50.25444" lon="3.60397">
        <ele>112.042</ele>
        <time>2019-09-19T08:32:01.001Z</time>
      </trkpt>
      <trkpt lat="50.2544" lon="3.60415">
        <ele>111.599</ele>
        <time>2019-09-19T08:32:04.001Z</time>
      </trkpt>
      <trkpt lat="50.25434" lon="3.60431">
        <ele>111.901</ele>
        <time>2019-09-19T08:32:07.001Z</time>
      </trkpt>
      <trkpt lat="50.25429" lon="3.60447">
        <ele>112.092</ele>
        <time>2019-09-19T08:32:10.001Z</time>
      </trkpt>
      <trkpt lat="50.25423" lon="3.60463">
        <ele>112.298</ele>
        <time>2019-09-19T08:32:13.001Z</time>
      </trkpt>
      <trkpt lat="50.25418" lon="3.6048">
        <ele>112.554</ele>
        <time>2019-09-19T08:32:16.000Z</time>
      </trkpt>
      <trkpt lat="50.25412" lon="3.60495">
        <ele>112.236</ele>
        <time>2019-09-19T08:32:19.001Z</time>
      </trkpt>
      <trkpt lat="50.25406" lon="3.60511">
        <ele>112.386</ele>
        <time>2019-09-19T08:32:22.001Z</time>
      </trkpt>
      <trkpt lat="50.254" lon="3.60526">
        <ele>112.415</ele>
        <time>2019-09-19T08:32:25.001Z</time>
      </trkpt>
      <trkpt lat="50.25394" lon="3.60541">
        <ele>112.514</ele>
        <time>2019-09-19T08:32:28.001Z</time>
      </trkpt>
      <trkpt lat="50.25388" lon="3.60556">
        <ele>112.618</ele>
        <time>2019-09-19T08:32:31.001Z</time>
      </trkpt>
      <trkpt lat="50.25381" lon="3.60571">
        <ele>112.898</ele>
        <time>2019-09-19T08:32:34.001Z</time>
      </trkpt>
      <trkpt lat="50.25375" lon="3.60586">
        <ele>112.706</ele>
        <time>2019-09-19T08:32:37.001Z</time>
      </trkpt>
      <trkpt lat="50.25369" lon="3.60601">
        <ele>112.86</ele>
        <time>2019-09-19T08:32:40.001Z</time>
      </trkpt>
      <trkpt lat="50.25363" lon="3.60616">
        <ele>113.243</ele>
        <time>2019-09-19T08:32:43.001Z</time>
      </trkpt>
      <trkpt lat="50.25358" lon="3.6063">
        <ele>113.643</ele>
        <time>2019-09-19T08:32:46.001Z</time>
      </trkpt>
      <trkpt lat="50.25352" lon="3.60646">
        <ele>113.503</ele>
        <time>2019-09-19T08:32:49.001Z</time>
      </trkpt>
      <trkpt lat="50.25346" lon="3.60661">
        <ele>113.416</ele>
        <time>2019-09-19T08:32:52.001Z</time>
      </trkpt>
      <trkpt lat="50.2534" lon="3.60676">
        <ele>113.841</ele>
        <time>2019-09-19T08:32:55.001Z</time>
      </trkpt>
      <trkpt lat="50.25334" lon="3.60692">
        <ele>114.293</ele>
        <time>2019-09-19T08:32:58.001Z</time>
      </trkpt>
      <trkpt lat="50.25327" lon="3.60707">
        <ele>115.114</ele>
        <time>2019-09-19T08:33:01.001Z</time>
      </trkpt>
      <trkpt lat="50.25321" lon="3.60723">
        <ele>114.9</ele>
        <time>2019-09-19T08:33:04.001Z</time>
      </trkpt>
      <trkpt lat="50.25316" lon="3.60738">
        <ele>115.21</ele>
        <time>2019-09-19T08:33:07.001Z</time>
      </trkpt>
      <trkpt lat="50.25311" lon="3.60753">
        <ele>115.434</ele>
        <time>2019-09-19T08:33:10.001Z</time>
      </trkpt>
      <trkpt lat="50.25306" lon="3.60768">
        <ele>115.792</ele>
        <time>2019-09-19T08:33:13.001Z</time>
      </trkpt>
      <trkpt lat="50.25301" lon="3.60784">
        <ele>115.959</ele>
        <time>2019-09-19T08:33:16.000Z</time>
      </trkpt>
      <trkpt lat="50.25297" lon="3.608">
        <ele>116.168</ele>
        <time>2019-09-19T08:33:19.001Z</time>
      </trkpt>
      <trkpt lat="50.25293" lon="3.60816">
        <ele>116.005</ele>
        <time>2019-09-19T08:33:22.001Z</time>
      </trkpt>
      <trkpt lat="50.25289" lon="3.60833">
        <ele>115.506</ele>
        <time>2019-09-19T08:33:25.001Z</time>
      </trkpt>
      <trkpt lat="50.25286" lon="3.60849">
        <ele>115.108</ele>
        <time>2019-09-19T08:33:28.001Z</time>
      </trkpt>
      <trkpt lat="50.25283" lon="3.60866">
        <ele>115.253</ele>
        <time>2019-09-19T08:33:31.001Z</time>
      </trkpt>
      <trkpt lat="50.25281" lon="3.60883">
        <ele>115.159</ele>
        <time>2019-09-19T08:33:34.001Z</time>
      </trkpt>
      <trkpt lat="50.25278" lon="3.609">
        <ele>115.153</ele>
        <time>2019-09-19T08:33:37.001Z</time>
      </trkpt>
      <trkpt lat="50.25275" lon="3.60918">
        <ele>115.139</ele>
        <time>2019-09-19T08:33:40.001Z</time>
      </trkpt>
      <trkpt lat="50.25272" lon="3.60935">
        <ele>114.878</ele>
        <time>2019-09-19T08:33:43.001Z</time>
      </trkpt>
      <trkpt lat="50.25269" lon="3.60952">
        <ele>115.08</ele>
        <time>2019-09-19T08:33:46.001Z</time>
      </trkpt>
      <trkpt lat="50.25267" lon="3.6097">
        <ele>114.806</ele>
        <time>2019-09-19T08:33:49.001Z</time>
      </trkpt>
      <trkpt lat="50.25264" lon="3.60985">
        <ele>116.154</ele>
        <time>2019-09-19T08:33:52.001Z</time>
      </trkpt>
      <trkpt lat="50.25261" lon="3.61002">
        <ele>116.486</ele>
        <time>2019-09-19T08:33:55.001Z</time>
      </trkpt>
      <trkpt lat="50.25258" lon="3.61021">
        <ele>116.435</ele>
        <time>2019-09-19T08:33:58.001Z</time>
      </trkpt>
      <trkpt lat="50.25256" lon="3.61042">
        <ele>116.156</ele>
        <time>2019-09-19T08:34:01.001Z</time>
      </trkpt>
      <trkpt lat="50.25253" lon="3.61063">
        <ele>115.952</ele>
        <time>2019-09-19T08:34:04.001Z</time>
      </trkpt>
      <trkpt lat="50.2525" lon="3.61084">
        <ele>115.675</ele>
        <time>2019-09-19T08:34:07.001Z</time>
      </trkpt>
      <trkpt lat="50.25247" lon="3.61105">
        <ele>115.8</ele>
        <time>2019-09-19T08:34:10.001Z</time>
      </trkpt>
      <trkpt lat="50.25244" lon="3.61126">
        <ele>115.674</ele>
        <time>2019-09-19T08:34:13.001Z</time>
      </trkpt>
      <trkpt lat="50.25241" lon="3.61146">
        <ele>115.383</ele>
        <time>2019-09-19T08:34:16.000Z</time>
      </trkpt>
      <trkpt lat="50.25239" lon="3.61166">
        <ele>114.71</ele>
        <time>2019-09-19T08:34:19.001Z</time>
      </trkpt>
      <trkpt lat="50.25236" lon="3.61185">
        <ele>114.648</ele>
        <time>2019-09-19T08:34:22.001Z</time>
      </trkpt>
      <trkpt lat="50.25233" lon="3.61202">
        <ele>114.33</ele>
        <time>2019-09-19T08:34:25.001Z</time>
      </trkpt>
      <trkpt lat="50.2523" lon="3.61221">
        <ele>114.245</ele>
        <time>2019-09-19T08:34:28.001Z</time>
      </trkpt>
      <trkpt lat="50.25227" lon="3.61239">
        <ele>113.645</ele>
        <time>2019-09-19T08:34:31.001Z</time>
      </trkpt>
      <trkpt lat="50.25224" lon="3.61258">
        <ele>113.176</ele>
        <time>2019-09-19T08:34:34.001Z</time>
      </trkpt>
      <trkpt lat="50.25221" lon="3.61277">
        <ele>112.816</ele>
        <time>2019-09-19T08:34:37.001Z</time>
      </trkpt>
      <trkpt lat="50.25218" lon="3.61297">
        <ele>112.844</ele>
        <time>2019-09-19T08:34:40.001Z</time>
      </trkpt>
      <trkpt lat="50.25216" lon="3.61316">
        <ele>112.705</ele>
        <time>2019-09-19T08:34:43.001Z</time>
      </trkpt>
      <trkpt lat="50.25213" lon="3.61336">
        <ele>112.229</ele>
        <time>2019-09-19T08:34:46.001Z</time>
      </trkpt>
      <trkpt lat="50.25211" lon="3.61356">
        <ele>112.087</ele>
        <time>2019-09-19T08:34:49.001Z</time>
      </trkpt>
      <trkpt lat="50.25209" lon="3.61377">
        <ele>111.737</ele>
        <time>2019-09-19T08:34:52.001Z</time>
      </trkpt>
      <trkpt lat="50.25206" lon="3.61398">
        <ele>111.731</ele>
        <time>2019-09-19T08:34:55.001Z</time>
      </trkpt>
      <trkpt lat="50.25204" lon="3.6142">
        <ele>111.803</ele>
        <time>2019-09-19T08:34:58.001Z</time>
      </trkpt>
      <trkpt lat="50.25202" lon="3.61442">
        <ele>111.734</ele>
        <time>2019-09-19T08:35:01.001Z</time>
      </trkpt>
      <trkpt lat="50.25199" lon="3.61464">
        <ele>111.477</ele>
        <time>2019-09-19T08:35:04.001Z</time>
      </trkpt>
      <trkpt lat="50.25198" lon="3.61485">
        <ele>111.754</ele>
        <time>2019-09-19T08:35:07.001Z</time>
      </trkpt>
      <trkpt lat="50.25196" lon="3.61507">
        <ele>112.187</ele>
        <time>2019-09-19T08:35:10.001Z</time>
      </trkpt>
      <trkpt lat="50.25194" lon="3.61529">
        <ele>112.562</ele>
        <time>2019-09-19T08:35:13.001Z</time>
      </trkpt>
      <trkpt lat="50.25192" lon="3.61551">
        <ele>112.818</ele>
        <time>2019-09-19T08:35:16.000Z</time>
      </trkpt>
      <trkpt lat="50.2519" lon="3.61574">
        <ele>112.752</ele>
        <time>2019-09-19T08:35:19.001Z</time>
      </trkpt>
      <trkpt lat="50.25186" lon="3.61596">
        <ele>112.936</ele>
        <time>2019-09-19T08:35:22.001Z</time>
      </trkpt>
      <trkpt lat="50.25184" lon="3.61619">
        <ele>113.415</ele>
        <time>2019-09-19T08:35:25.001Z</time>
      </trkpt>
      <trkpt lat="50.25181" lon="3.61641">
        <ele>114.059</ele>
        <time>2019-09-19T08:35:28.001Z</time>
      </trkpt>
      <trkpt lat="50.25179" lon="3.61663">
        <ele>114.16</ele>
        <time>2019-09-19T08:35:31.001Z</time>
      </trkpt>
      <trkpt lat="50.25177" lon="3.61686">
        <ele>114.57</ele>
        <time>2019-09-19T08:35:34.001Z</time>
      </trkpt>
      <trkpt lat="50.25175" lon="3.61708">
        <ele>114.49</ele>
        <time>2019-09-19T08:35:37.001Z</time>
      </trkpt>
      <trkpt lat="50.25174" lon="3.6173">
        <ele>114.214</ele>
        <time>2019-09-19T08:35:40.001Z</time>
      </trkpt>
      <trkpt lat="50.25173" lon="3.6175">
        <ele>113.849</ele>
        <time>2019-09-19T08:35:43.001Z</time>
      </trkpt>
      <trkpt lat="50.25172" lon="3.61771">
        <ele>113.443</ele>
        <time>2019-09-19T08:35:46.001Z</time>
      </trkpt>
      <trkpt lat="50.25171" lon="3.61792">
        <ele>113.085</ele>
        <time>2019-09-19T08:35:49.001Z</time>
      </trkpt>
      <trkpt lat="50.2517" lon="3.61813">
        <ele>113.011</ele>
        <time>2019-09-19T08:35:52.001Z</time>
      </trkpt>
      <trkpt lat="50.2517" lon="3.61834">
        <ele>113.054</ele>
        <time>2019-09-19T08:35:55.001Z</time>
      </trkpt>
      <trkpt lat="50.25169" lon="3.61854">
        <ele>112.961</ele>
        <time>2019-09-19T08:35:58.001Z</time>
      </trkpt>
      <trkpt lat="50.25167" lon="3.61875">
        <ele>112.662</ele>
        <time>2019-09-19T08:36:01.001Z</time>
      </trkpt>
      <trkpt lat="50.25166" lon="3.61895">
        <ele>112.285</ele>
        <time>2019-09-19T08:36:04.001Z</time>
      </trkpt>
      <trkpt lat="50.25164" lon="3.61917">
        <ele>112.118</ele>
        <time>2019-09-19T08:36:07.001Z</time>
      </trkpt>
      <trkpt lat="50.25161" lon="3.61938">
        <ele>111.88</ele>
        <time>2019-09-19T08:36:10.001Z</time>
      </trkpt>
      <trkpt lat="50.25159" lon="3.61958">
        <ele>111.928</ele>
        <time>2019-09-19T08:36:13.001Z</time>
      </trkpt>
      <trkpt lat="50.25157" lon="3.61978">
        <ele>111.756</ele>
        <time>2019-09-19T08:36:16.000Z</time>
      </trkpt>
      <trkpt lat="50.25154" lon="3.61997">
        <ele>111.864</ele>
        <time>2019-09-19T08:36:19.001Z</time>
      </trkpt>
      <trkpt lat="50.25151" lon="3.62018">
        <ele>112.07</ele>
        <time>2019-09-19T08:36:22.001Z</time>
      </trkpt>
      <trkpt lat="50.25148" lon="3.6204">
        <ele>112.849</ele>
        <time>2019-09-19T08:36:25.001Z</time>
      </trkpt>
      <trkpt lat="50.25145" lon="3.62061">
        <ele>113.351</ele>
        <time>2019-09-19T08:36:28.001Z</time>
      </trkpt>
      <trkpt lat="50.25142" lon="3.62082">
        <ele>112.78</ele>
        <time>2019-09-19T08:36:31.001Z</time>
      </trkpt>
      <trkpt lat="50.25138" lon="3.62102">
        <ele>112.681</ele>
        <time>2019-09-19T08:36:34.001Z</time>
      </trkpt>
      <trkpt lat="50.25134" lon="3.6212">
        <ele>112.347</ele>
        <time>2019-09-19T08:36:37.001Z</time>
      </trkpt>
      <trkpt lat="50.2513" lon="3.62138">
        <ele>112.168</ele>
        <time>2019-09-19T08:36:40.001Z</time>
      </trkpt>
      <trkpt lat="50.25126" lon="3.62155">
        <ele>112.058</ele>
        <time>2019-09-19T08:36:43.001Z</time>
      </trkpt>
      <trkpt lat="50.25122" lon="3.62172">
        <ele>112.461</ele>
        <time>2019-09-19T08:36:46.001Z</time>
      </trkpt>
      <trkpt lat="50.25118" lon="3.62189">
        <ele>112.656</ele>
        <time>2019-09-19T08:36:49.001Z</time>
      </trkpt>
      <trkpt lat="50.25114" lon="3.62206">
        <ele>112.317</ele>
        <time>2019-09-19T08:36:52.001Z</time>
      </trkpt>
      <trkpt lat="50.25109" lon="3.62224">
        <ele>112.203</ele>
        <time>2019-09-19T08:36:55.001Z</time>
      </trkpt>
      <trkpt lat="50.25105" lon="3.6224">
        <ele>112.069</ele>
        <time>2019-09-19T08:36:58.001Z</time>
      </trkpt>
      <trkpt lat="50.25101" lon="3.62257">
        <ele>112.293</ele>
        <time>2019-09-19T08:37:01.001Z</time>
      </trkpt>
      <trkpt lat="50.25097" lon="3.62274">
        <ele>112.306</ele>
        <time>2019-09-19T08:37:04.001Z</time>
      </trkpt>
      <trkpt lat="50.25095" lon="3.62291">
        <ele>112.9</ele>
        <time>2019-09-19T08:37:07.001Z</time>
      </trkpt>
      <trkpt lat="50.25091" lon="3.62308">
        <ele>113.467</ele>
        <time>2019-09-19T08:37:10.001Z</time>
      </trkpt>
      <trkpt lat="50.25087" lon="3.62325">
        <ele>114.116</ele>
        <time>2019-09-19T08:37:13.001Z</time>
      </trkpt>
      <trkpt lat="50.25083" lon="3.62342">
        <ele>115.388</ele>
        <time>2019-09-19T08:37:16.000Z</time>
      </trkpt>
      <trkpt lat="50.25079" lon="3.62358">
        <ele>115.774</ele>
        <time>2019-09-19T08:37:19.001Z</time>
      </trkpt>
      <trkpt lat="50.25076" lon="3.62373">
        <ele>117.192</ele>
        <time>2019-09-19T08:37:22.001Z</time>
      </trkpt>
      <trkpt lat="50.25073" lon="3.62387">
        <ele>118.553</ele>
        <time>2019-09-19T08:37:25.001Z</time>
      </trkpt>
      <trkpt lat="50.25068" lon="3.62402">
        <ele>119.533</ele>
        <time>2019-09-19T08:37:28.001Z</time>
      </trkpt>
      <trkpt lat="50.25062" lon="3.62417">
        <ele>119.971</ele>
        <time>2019-09-19T08:37:31.001Z</time>
      </trkpt>
      <trkpt lat="50.25056" lon="3.62432">
        <ele>120.205</ele>
        <time>2019-09-19T08:37:34.001Z</time>
      </trkpt>
      <trkpt lat="50.25051" lon="3.62443">
        <ele>120.477</ele>
        <time>2019-09-19T08:37:37.001Z</time>
      </trkpt>
      <trkpt lat="50.25046" lon="3.62453">
        <ele>120.672</ele>
        <time>2019-09-19T08:37:40.001Z</time>
      </trkpt>
      <trkpt lat="50.25039" lon="3.62463">
        <ele>120.717</ele>
        <time>2019-09-19T08:37:43.001Z</time>
      </trkpt>
      <trkpt lat="50.25032" lon="3.62471">
        <ele>120.875</ele>
        <time>2019-09-19T08:37:46.001Z</time>
      </trkpt>
      <trkpt lat="50.25024" lon="3.62478">
        <ele>120.184</ele>
        <time>2019-09-19T08:37:49.001Z</time>
      </trkpt>
      <trkpt lat="50.25013" lon="3.62478">
        <ele>119.753</ele>
        <time>2019-09-19T08:37:52.001Z</time>
      </trkpt>
      <trkpt lat="50.25002" lon="3.62475">
        <ele>119.404</ele>
        <time>2019-09-19T08:37:55.001Z</time>
      </trkpt>
      <trkpt lat="50.24991" lon="3.62477">
        <ele>118.977</ele>
        <time>2019-09-19T08:37:58.001Z</time>
      </trkpt>
      <trkpt lat="50.24983" lon="3.62482">
        <ele>118.843</ele>
        <time>2019-09-19T08:38:01.001Z</time>
      </trkpt>
      <trkpt lat="50.24974" lon="3.6249">
        <ele>118.036</ele>
        <time>2019-09-19T08:38:04.001Z</time>
      </trkpt>
      <trkpt lat="50.24968" lon="3.62501">
        <ele>117.738</ele>
        <time>2019-09-19T08:38:07.001Z</time>
      </trkpt>
      <trkpt lat="50.24965" lon="3.62514">
        <ele>117.744</ele>
        <time>2019-09-19T08:38:10.001Z</time>
      </trkpt>
      <trkpt lat="50.24964" lon="3.62526">
        <ele>117.695</ele>
        <time>2019-09-19T08:38:13.001Z</time>
      </trkpt>
      <trkpt lat="50.24965" lon="3.62538">
        <ele>118.277</ele>
        <time>2019-09-19T08:38:16.000Z</time>
      </trkpt>
      <trkpt lat="50.2497" lon="3.62551">
        <ele>118.837</ele>
        <time>2019-09-19T08:38:19.001Z</time>
      </trkpt>
      <trkpt lat="50.24977" lon="3.62564">
        <ele>119.452</ele>
        <time>2019-09-19T08:38:22.001Z</time>
      </trkpt>
      <trkpt lat="50.24985" lon="3.62576">
        <ele>119.728</ele>
        <time>2019-09-19T08:38:25.001Z</time>
      </trkpt>
      <trkpt lat="50.2499" lon="3.62592">
        <ele>120.065</ele>
        <time>2019-09-19T08:38:28.001Z</time>
      </trkpt>
      <trkpt lat="50.24994" lon="3.62614">
        <ele>120.239</ele>
        <time>2019-09-19T08:38:31.001Z</time>
      </trkpt>
      <trkpt lat="50.24996" lon="3.62637">
        <ele>120.869</ele>
        <time>2019-09-19T08:38:34.001Z</time>
      </trkpt>
      <trkpt lat="50.24997" lon="3.62659">
        <ele>121.167</ele>
        <time>2019-09-19T08:38:37.001Z</time>
      </trkpt>
      <trkpt lat="50.24996" lon="3.6268">
        <ele>121.785</ele>
        <time>2019-09-19T08:38:40.001Z</time>
      </trkpt>
      <trkpt lat="50.24994" lon="3.62699">
        <ele>122.21</ele>
        <time>2019-09-19T08:38:43.001Z</time>
      </trkpt>
      <trkpt lat="50.24992" lon="3.62717">
        <ele>122.674</ele>
        <time>2019-09-19T08:38:46.001Z</time>
      </trkpt>
      <trkpt lat="50.2499" lon="3.62737">
        <ele>122.723</ele>
        <time>2019-09-19T08:38:49.001Z</time>
      </trkpt>
      <trkpt lat="50.24989" lon="3.62757">
        <ele>122.349</ele>
        <time>2019-09-19T08:38:52.001Z</time>
      </trkpt>
      <trkpt lat="50.24987" lon="3.62776">
        <ele>121.875</ele>
        <time>2019-09-19T08:38:55.001Z</time>
      </trkpt>
      <trkpt lat="50.24982" lon="3.62794">
        <ele>122.003</ele>
        <time>2019-09-19T08:38:58.001Z</time>
      </trkpt>
      <trkpt lat="50.24975" lon="3.62813">
        <ele>121.828</ele>
        <time>2019-09-19T08:39:01.001Z</time>
      </trkpt>
      <trkpt lat="50.24967" lon="3.62833">
        <ele>121.461</ele>
        <time>2019-09-19T08:39:04.001Z</time>
      </trkpt>
      <trkpt lat="50.24958" lon="3.62853">
        <ele>121.31</ele>
        <time>2019-09-19T08:39:07.001Z</time>
      </trkpt>
      <trkpt lat="50.24952" lon="3.62875">
        <ele>121.072</ele>
        <time>2019-09-19T08:39:10.001Z</time>
      </trkpt>
      <trkpt lat="50.24945" lon="3.62898">
        <ele>121.1</ele>
        <time>2019-09-19T08:39:13.001Z</time>
      </trkpt>
      <trkpt lat="50.24939" lon="3.62918">
        <ele>121.31</ele>
        <time>2019-09-19T08:39:16.000Z</time>
      </trkpt>
      <trkpt lat="50.24933" lon="3.62939">
        <ele>121.584</ele>
        <time>2019-09-19T08:39:19.001Z</time>
      </trkpt>
      <trkpt lat="50.24928" lon="3.62959">
        <ele>121.788</ele>
        <time>2019-09-19T08:39:22.001Z</time>
      </trkpt>
      <trkpt lat="50.24921" lon="3.6298">
        <ele>122.072</ele>
        <time>2019-09-19T08:39:25.001Z</time>
      </trkpt>
      <trkpt lat="50.24914" lon="3.63001">
        <ele>121.281</ele>
        <time>2019-09-19T08:39:28.001Z</time>
      </trkpt>
      <trkpt lat="50.24906" lon="3.63023">
        <ele>120.573</ele>
        <time>2019-09-19T08:39:31.001Z</time>
      </trkpt>
      <trkpt lat="50.24898" lon="3.63044">
        <ele>120.03</ele>
        <time>2019-09-19T08:39:34.001Z</time>
      </trkpt>
      <trkpt lat="50.24892" lon="3.63063">
        <ele>119.03</ele>
        <time>2019-09-19T08:39:37.001Z</time>
      </trkpt>
      <trkpt lat="50.24887" lon="3.6308">
        <ele>118.797</ele>
        <time>2019-09-19T08:39:40.001Z</time>
      </trkpt>
      <trkpt lat="50.24881" lon="3.63097">
        <ele>118.726</ele>
        <time>2019-09-19T08:39:43.001Z</time>
      </trkpt>
      <trkpt lat="50.24876" lon="3.63113">
        <ele>119.062</ele>
        <time>2019-09-19T08:39:46.001Z</time>
      </trkpt>
      <trkpt lat="50.24872" lon="3.63129">
        <ele>119.444</ele>
        <time>2019-09-19T08:39:49.001Z</time>
      </trkpt>
      <trkpt lat="50.24868" lon="3.63143">
        <ele>119.985</ele>
        <time>2019-09-19T08:39:52.001Z</time>
      </trkpt>
      <trkpt lat="50.24864" lon="3.63157">
        <ele>120.623</ele>
        <time>2019-09-19T08:39:55.001Z</time>
      </trkpt>
      <trkpt lat="50.2486" lon="3.63172">
        <ele>120.878</ele>
        <time>2019-09-19T08:39:58.001Z</time>
      </trkpt>
      <trkpt lat="50.24856" lon="3.63188">
        <ele>121.377</ele>
        <time>2019-09-19T08:40:01.001Z</time>
      </trkpt>
      <trkpt lat="50.2485" lon="3.63204">
        <ele>122.134</ele>
        <time>2019-09-19T08:40:04.001Z</time>
      </trkpt>
      <trkpt lat="50.24845" lon="3.63221">
        <ele>122.116</ele>
        <time>2019-09-19T08:40:07.001Z</time>
      </trkpt>
      <trkpt lat="50.2484" lon="3.63238">
        <ele>122.101</ele>
        <time>2019-09-19T08:40:10.001Z</time>
      </trkpt>
      <trkpt lat="50.24834" lon="3.63252">
        <ele>122.71</ele>
        <time>2019-09-19T08:40:13.001Z</time>
      </trkpt>
      <trkpt lat="50.24829" lon="3.63267">
        <ele>123.705</ele>
        <time>2019-09-19T08:40:16.000Z</time>
      </trkpt>
      <trkpt lat="50.24823" lon="3.6328">
        <ele>124.584</ele>
        <time>2019-09-19T08:40:19.001Z</time>
      </trkpt>
      <trkpt lat="50.24818" lon="3.63294">
        <ele>125.355</ele>
        <time>2019-09-19T08:40:22.001Z</time>
      </trkpt>
      <trkpt lat="50.24812" lon="3.63306">
        <ele>126.345</ele>
        <time>2019-09-19T08:40:25.001Z</time>
      </trkpt>
      <trkpt lat="50.24808" lon="3.63317">
        <ele>127.161</ele>
        <time>2019-09-19T08:40:28.001Z</time>
      </trkpt>
      <trkpt lat="50.24802" lon="3.63329">
        <ele>128.415</ele>
        <time>2019-09-19T08:40:31.001Z</time>
      </trkpt>
      <trkpt lat="50.24797" lon="3.63342">
        <ele>129.787</ele>
        <time>2019-09-19T08:40:34.001Z</time>
      </trkpt>
      <trkpt lat="50.24793" lon="3.63354">
        <ele>130.886</ele>
        <time>2019-09-19T08:40:37.001Z</time>
      </trkpt>
      <trkpt lat="50.2479" lon="3.63366">
        <ele>132.512</ele>
        <time>2019-09-19T08:40:40.001Z</time>
      </trkpt>
      <trkpt lat="50.24783" lon="3.6338">
        <ele>132.981</ele>
        <time>2019-09-19T08:40:43.001Z</time>
      </trkpt>
      <trkpt lat="50.24776" lon="3.63395">
        <ele>133.459</ele>
        <time>2019-09-19T08:40:46.001Z</time>
      </trkpt>
      <trkpt lat="50.24772" lon="3.63407">
        <ele>134.049</ele>
        <time>2019-09-19T08:40:49.001Z</time>
      </trkpt>
      <trkpt lat="50.24767" lon="3.63421">
        <ele>134.039</ele>
        <time>2019-09-19T08:40:52.001Z</time>
      </trkpt>
      <trkpt lat="50.24763" lon="3.63434">
        <ele>134.343</ele>
        <time>2019-09-19T08:40:55.001Z</time>
      </trkpt>
      <trkpt lat="50.24758" lon="3.63448">
        <ele>135.046</ele>
        <time>2019-09-19T08:40:58.001Z</time>
      </trkpt>
      <trkpt lat="50.24753" lon="3.63462">
        <ele>135.397</ele>
        <time>2019-09-19T08:41:01.001Z</time>
      </trkpt>
      <trkpt lat="50.24748" lon="3.63479">
        <ele>135.489</ele>
        <time>2019-09-19T08:41:04.001Z</time>
      </trkpt>
      <trkpt lat="50.24745" lon="3.63497">
        <ele>135.539</ele>
        <time>2019-09-19T08:41:07.001Z</time>
      </trkpt>
      <trkpt lat="50.24744" lon="3.63516">
        <ele>136.219</ele>
        <time>2019-09-19T08:41:10.001Z</time>
      </trkpt>
      <trkpt lat="50.2474" lon="3.63534">
        <ele>135.974</ele>
        <time>2019-09-19T08:41:13.001Z</time>
      </trkpt>
      <trkpt lat="50.24735" lon="3.63552">
        <ele>135.696</ele>
        <time>2019-09-19T08:41:16.000Z</time>
      </trkpt>
      <trkpt lat="50.2473" lon="3.63568">
        <ele>135.584</ele>
        <time>2019-09-19T08:41:19.001Z</time>
      </trkpt>
      <trkpt lat="50.24725" lon="3.63582">
        <ele>136.486</ele>
        <time>2019-09-19T08:41:22.001Z</time>
      </trkpt>
      <trkpt lat="50.24716" lon="3.63594">
        <ele>136.911</ele>
        <time>2019-09-19T08:41:25.001Z</time>
      </trkpt>
      <trkpt lat="50.24706" lon="3.63605">
        <ele>137.392</ele>
        <time>2019-09-19T08:41:28.001Z</time>
      </trkpt>
      <trkpt lat="50.24698" lon="3.63616">
        <ele>138.05</ele>
        <time>2019-09-19T08:41:31.001Z</time>
      </trkpt>
      <trkpt lat="50.2469" lon="3.63627">
        <ele>137.763</ele>
        <time>2019-09-19T08:41:34.001Z</time>
      </trkpt>
      <trkpt lat="50.24681" lon="3.63637">
        <ele>137.911</ele>
        <time>2019-09-19T08:41:37.001Z</time>
      </trkpt>
      <trkpt lat="50.24676" lon="3.6365">
        <ele>138.503</ele>
        <time>2019-09-19T08:41:40.001Z</time>
      </trkpt>
      <trkpt lat="50.24672" lon="3.63661">
        <ele>139.563</ele>
        <time>2019-09-19T08:41:43.001Z</time>
      </trkpt>
      <trkpt lat="50.24669" lon="3.63672">
        <ele>140.747</ele>
        <time>2019-09-19T08:41:46.001Z</time>
      </trkpt>
      <trkpt lat="50.24665" lon="3.63684">
        <ele>141.877</ele>
        <time>2019-09-19T08:41:49.001Z</time>
      </trkpt>
      <trkpt lat="50.24663" lon="3.63696">
        <ele>143.083</ele>
        <time>2019-09-19T08:41:52.001Z</time>
      </trkpt>
      <trkpt lat="50.24668" lon="3.63706">
        <ele>145.277</ele>
        <time>2019-09-19T08:41:55.001Z</time>
      </trkpt>
      <trkpt lat="50.2467" lon="3.63719">
        <ele>145.381</ele>
        <time>2019-09-19T08:42:01.001Z</time>
      </trkpt>
      <trkpt lat="50.24676" lon="3.63713">
        <ele>148.199</ele>
        <time>2019-09-19T08:42:07.001Z</time>
      </trkpt>
      <trkpt lat="50.24688" lon="3.63715">
        <ele>150.306</ele>
        <time>2019-09-19T08:42:13.001Z</time>
      </trkpt>
      <trkpt lat="50.24695" lon="3.63721">
        <ele>148.441</ele>
        <time>2019-09-19T08:42:16.000Z</time>
      </trkpt>
      <trkpt lat="50.24697" lon="3.6373">
        <ele>148.908</ele>
        <time>2019-09-19T08:42:19.001Z</time>
      </trkpt>
      <trkpt lat="50.24699" lon="3.63734">
        <ele>148.993</ele>
        <time>2019-09-19T08:42:22.001Z</time>
      </trkpt>
      <trkpt lat="50.24699" lon="3.63734">
        <ele>148.993</ele>
        <time>2019-09-19T08:44:16.000Z</time>
      </trkpt>
      <trkpt lat="50.24699" lon="3.63736">
        <ele>148.346</ele>
        <time>2019-09-19T08:44:19.001Z</time>
      </trkpt>
      <trkpt lat="50.24699" lon="3.63736">
        <ele>147.325</ele>
        <time>2019-09-19T08:44:22.001Z</time>
      </trkpt>
      <trkpt lat="50.24699" lon="3.63736">
        <ele>147.325</ele>
        <time>2019-09-19T08:47:22.001Z</time>
      </trkpt>
      <trkpt lat="50.24697" lon="3.63738">
        <ele>146.116</ele>
        <time>2019-09-19T08:47:25.001Z</time>
      </trkpt>
      <trkpt lat="50.24697" lon="3.63738">
        <ele>146.116</ele>
        <time>2019-09-19T08:47:28.001Z</time>
      </trkpt>
      <trkpt lat="50.24697" lon="3.63738">
        <ele>146.116</ele>
        <time>2019-09-19T08:47:31.001Z</time>
      </trkpt>
      <trkpt lat="50.24697" lon="3.63738">
        <ele>146.159</ele>
        <time>2019-09-19T08:47:34.001Z</time>
      </trkpt>
      <trkpt lat="50.24697" lon="3.63738">
        <ele>145.867</ele>
        <time>2019-09-19T08:47:37.001Z</time>
      </trkpt>
      <trkpt lat="50.24696" lon="3.63738">
        <ele>140.474</ele>
        <time>2019-09-19T09:12:46.001Z</time>
      </trkpt>
      <trkpt lat="50.24703" lon="3.63738">
        <ele>139.734</ele>
        <time>2019-09-19T09:12:49.001Z</time>
      </trkpt>
      <trkpt lat="50.24709" lon="3.63748">
        <ele>139.42</ele>
        <time>2019-09-19T09:12:55.001Z</time>
      </trkpt>
      <trkpt lat="50.2471" lon="3.63755">
        <ele>139.46</ele>
        <time>2019-09-19T09:12:58.001Z</time>
      </trkpt>
      <trkpt lat="50.24712" lon="3.63763">
        <ele>139.774</ele>
        <time>2019-09-19T09:13:01.001Z</time>
      </trkpt>
      <trkpt lat="50.24716" lon="3.63773">
        <ele>140.545</ele>
        <time>2019-09-19T09:13:04.001Z</time>
      </trkpt>
      <trkpt lat="50.24726" lon="3.63787">
        <ele>140.682</ele>
        <time>2019-09-19T09:13:07.001Z</time>
      </trkpt>
      <trkpt lat="50.24731" lon="3.63796">
        <ele>140.239</ele>
        <time>2019-09-19T09:13:10.001Z</time>
      </trkpt>
      <trkpt lat="50.24736" lon="3.63806">
        <ele>139.98</ele>
        <time>2019-09-19T09:13:13.001Z</time>
      </trkpt>
      <trkpt lat="50.24743" lon="3.63815">
        <ele>140.362</ele>
        <time>2019-09-19T09:13:16.000Z</time>
      </trkpt>
      <trkpt lat="50.24748" lon="3.63824">
        <ele>140.61</ele>
        <time>2019-09-19T09:13:19.001Z</time>
      </trkpt>
      <trkpt lat="50.24749" lon="3.63836">
        <ele>140.522</ele>
        <time>2019-09-19T09:13:22.001Z</time>
      </trkpt>
      <trkpt lat="50.24749" lon="3.63848">
        <ele>141.322</ele>
        <time>2019-09-19T09:13:25.001Z</time>
      </trkpt>
      <trkpt lat="50.24753" lon="3.63859">
        <ele>141.552</ele>
        <time>2019-09-19T09:13:28.001Z</time>
      </trkpt>
      <trkpt lat="50.24759" lon="3.63871">
        <ele>140.877</ele>
        <time>2019-09-19T09:13:31.001Z</time>
      </trkpt>
      <trkpt lat="50.24766" lon="3.63884">
        <ele>140.259</ele>
        <time>2019-09-19T09:13:34.001Z</time>
      </trkpt>
      <trkpt lat="50.24771" lon="3.63899">
        <ele>138.922</ele>
        <time>2019-09-19T09:13:37.001Z</time>
      </trkpt>
      <trkpt lat="50.24778" lon="3.63913">
        <ele>138.242</ele>
        <time>2019-09-19T09:13:40.001Z</time>
      </trkpt>
      <trkpt lat="50.24787" lon="3.63929">
        <ele>137.442</ele>
        <time>2019-09-19T09:13:43.001Z</time>
      </trkpt>
      <trkpt lat="50.24791" lon="3.63943">
        <ele>136.3</ele>
        <time>2019-09-19T09:13:46.001Z</time>
      </trkpt>
      <trkpt lat="50.24782" lon="3.63957">
        <ele>135.631</ele>
        <time>2019-09-19T09:13:49.001Z</time>
      </trkpt>
      <trkpt lat="50.24776" lon="3.63973">
        <ele>134.717</ele>
        <time>2019-09-19T09:13:52.001Z</time>
      </trkpt>
      <trkpt lat="50.2477" lon="3.63988">
        <ele>133.684</ele>
        <time>2019-09-19T09:13:55.001Z</time>
      </trkpt>
      <trkpt lat="50.24763" lon="3.64002">
        <ele>132.777</ele>
        <time>2019-09-19T09:13:58.001Z</time>
      </trkpt>
      <trkpt lat="50.24755" lon="3.64016">
        <ele>132.048</ele>
        <time>2019-09-19T09:14:01.001Z</time>
      </trkpt>
      <trkpt lat="50.24752" lon="3.64031">
        <ele>132.373</ele>
        <time>2019-09-19T09:14:04.001Z</time>
      </trkpt>
      <trkpt lat="50.2475" lon="3.64044">
        <ele>132.321</ele>
        <time>2019-09-19T09:14:07.001Z</time>
      </trkpt>
      <trkpt lat="50.24746" lon="3.64051">
        <ele>132.401</ele>
        <time>2019-09-19T09:14:10.001Z</time>
      </trkpt>
      <trkpt lat="50.24746" lon="3.6406">
        <ele>133.713</ele>
        <time>2019-09-19T09:14:13.001Z</time>
      </trkpt>
      <trkpt lat="50.24748" lon="3.64071">
        <ele>135.146</ele>
        <time>2019-09-19T09:14:16.000Z</time>
      </trkpt>
      <trkpt lat="50.24752" lon="3.64083">
        <ele>137.199</ele>
        <time>2019-09-19T09:14:19.001Z</time>
      </trkpt>
      <trkpt lat="50.24756" lon="3.64095">
        <ele>137.236</ele>
        <time>2019-09-19T09:14:22.001Z</time>
      </trkpt>
      <trkpt lat="50.24759" lon="3.64108">
        <ele>137.659</ele>
        <time>2019-09-19T09:14:25.001Z</time>
      </trkpt>
      <trkpt lat="50.24764" lon="3.64122">
        <ele>137.786</ele>
        <time>2019-09-19T09:14:28.001Z</time>
      </trkpt>
      <trkpt lat="50.2477" lon="3.64133">
        <ele>137.638</ele>
        <time>2019-09-19T09:14:31.001Z</time>
      </trkpt>
      <trkpt lat="50.24776" lon="3.64142">
        <ele>138.146</ele>
        <time>2019-09-19T09:14:34.001Z</time>
      </trkpt>
      <trkpt lat="50.24784" lon="3.64146">
        <ele>139.157</ele>
        <time>2019-09-19T09:14:37.001Z</time>
      </trkpt>
      <trkpt lat="50.24791" lon="3.64142">
        <ele>140.163</ele>
        <time>2019-09-19T09:14:40.001Z</time>
      </trkpt>
      <trkpt lat="50.24799" lon="3.64139">
        <ele>140.902</ele>
        <time>2019-09-19T09:14:43.001Z</time>
      </trkpt>
      <trkpt lat="50.24808" lon="3.64133">
        <ele>141.458</ele>
        <time>2019-09-19T09:14:46.001Z</time>
      </trkpt>
      <trkpt lat="50.24816" lon="3.64125">
        <ele>141.945</ele>
        <time>2019-09-19T09:14:49.001Z</time>
      </trkpt>
      <trkpt lat="50.24823" lon="3.6412">
        <ele>142.221</ele>
        <time>2019-09-19T09:14:52.001Z</time>
      </trkpt>
      <trkpt lat="50.2483" lon="3.64114">
        <ele>141.626</ele>
        <time>2019-09-19T09:14:55.001Z</time>
      </trkpt>
      <trkpt lat="50.24837" lon="3.6411">
        <ele>141.612</ele>
        <time>2019-09-19T09:14:58.001Z</time>
      </trkpt>
      <trkpt lat="50.24837" lon="3.6411">
        <ele>141.612</ele>
        <time>2019-09-19T09:16:43.001Z</time>
      </trkpt>
      <trkpt lat="50.2484" lon="3.64108">
        <ele>139.572</ele>
        <time>2019-09-19T09:16:46.001Z</time>
      </trkpt>
      <trkpt lat="50.24846" lon="3.64107">
        <ele>138.767</ele>
        <time>2019-09-19T09:16:49.001Z</time>
      </trkpt>
      <trkpt lat="50.24851" lon="3.64113">
        <ele>138.086</ele>
        <time>2019-09-19T09:16:52.001Z</time>
      </trkpt>
      <trkpt lat="50.24855" lon="3.64124">
        <ele>137.683</ele>
        <time>2019-09-19T09:16:55.001Z</time>
      </trkpt>
      <trkpt lat="50.2486" lon="3.64141">
        <ele>137.356</ele>
        <time>2019-09-19T09:16:58.001Z</time>
      </trkpt>
      <trkpt lat="50.24866" lon="3.64159">
        <ele>136.438</ele>
        <time>2019-09-19T09:17:01.001Z</time>
      </trkpt>
      <trkpt lat="50.24874" lon="3.64175">
        <ele>135.958</ele>
        <time>2019-09-19T09:17:04.001Z</time>
      </trkpt>
      <trkpt lat="50.24882" lon="3.64192">
        <ele>135.351</ele>
        <time>2019-09-19T09:17:07.001Z</time>
      </trkpt>
      <trkpt lat="50.24887" lon="3.64209">
        <ele>135.594</ele>
        <time>2019-09-19T09:17:10.001Z</time>
      </trkpt>
      <trkpt lat="50.24894" lon="3.64231">
        <ele>136.045</ele>
        <time>2019-09-19T09:17:13.001Z</time>
      </trkpt>
      <trkpt lat="50.24904" lon="3.64255">
        <ele>136.138</ele>
        <time>2019-09-19T09:17:16.000Z</time>
      </trkpt>
      <trkpt lat="50.24914" lon="3.6428">
        <ele>135.958</ele>
        <time>2019-09-19T09:17:19.001Z</time>
      </trkpt>
      <trkpt lat="50.24923" lon="3.64303">
        <ele>135.622</ele>
        <time>2019-09-19T09:17:22.001Z</time>
      </trkpt>
      <trkpt lat="50.2493" lon="3.64321">
        <ele>135.22</ele>
        <time>2019-09-19T09:17:25.001Z</time>
      </trkpt>
      <trkpt lat="50.24934" lon="3.64333">
        <ele>134.608</ele>
        <time>2019-09-19T09:17:28.001Z</time>
      </trkpt>
      <trkpt lat="50.2494" lon="3.64348">
        <ele>135.013</ele>
        <time>2019-09-19T09:17:31.001Z</time>
      </trkpt>
      <trkpt lat="50.24949" lon="3.64366">
        <ele>135.475</ele>
        <time>2019-09-19T09:17:34.001Z</time>
      </trkpt>
      <trkpt lat="50.24956" lon="3.64385">
        <ele>135.376</ele>
        <time>2019-09-19T09:17:37.001Z</time>
      </trkpt>
      <trkpt lat="50.24962" lon="3.64405">
        <ele>135.192</ele>
        <time>2019-09-19T09:17:40.001Z</time>
      </trkpt>
      <trkpt lat="50.24969" lon="3.64427">
        <ele>134.807</ele>
        <time>2019-09-19T09:17:43.001Z</time>
      </trkpt>
      <trkpt lat="50.24976" lon="3.64447">
        <ele>134.068</ele>
        <time>2019-09-19T09:17:46.001Z</time>
      </trkpt>
      <trkpt lat="50.24983" lon="3.64468">
        <ele>132.732</ele>
        <time>2019-09-19T09:17:49.001Z</time>
      </trkpt>
      <trkpt lat="50.2499" lon="3.64485">
        <ele>132.289</ele>
        <time>2019-09-19T09:17:52.001Z</time>
      </trkpt>
      <trkpt lat="50.24995" lon="3.645">
        <ele>131.805</ele>
        <time>2019-09-19T09:17:55.001Z</time>
      </trkpt>
      <trkpt lat="50.24991" lon="3.64523">
        <ele>129.508</ele>
        <time>2019-09-19T09:17:58.001Z</time>
      </trkpt>
      <trkpt lat="50.24984" lon="3.64545">
        <ele>126.73</ele>
        <time>2019-09-19T09:18:01.001Z</time>
      </trkpt>
      <trkpt lat="50.24977" lon="3.64565">
        <ele>125.136</ele>
        <time>2019-09-19T09:18:04.001Z</time>
      </trkpt>
      <trkpt lat="50.24972" lon="3.64585">
        <ele>123.65</ele>
        <time>2019-09-19T09:18:07.001Z</time>
      </trkpt>
      <trkpt lat="50.24967" lon="3.64603">
        <ele>122.841</ele>
        <time>2019-09-19T09:18:10.001Z</time>
      </trkpt>
      <trkpt lat="50.2496" lon="3.64619">
        <ele>122.102</ele>
        <time>2019-09-19T09:18:13.001Z</time>
      </trkpt>
      <trkpt lat="50.24953" lon="3.64636">
        <ele>121.685</ele>
        <time>2019-09-19T09:18:16.000Z</time>
      </trkpt>
      <trkpt lat="50.24947" lon="3.64654">
        <ele>122.033</ele>
        <time>2019-09-19T09:18:19.001Z</time>
      </trkpt>
      <trkpt lat="50.2494" lon="3.64671">
        <ele>123.206</ele>
        <time>2019-09-19T09:18:22.001Z</time>
      </trkpt>
      <trkpt lat="50.24931" lon="3.64689">
        <ele>122.703</ele>
        <time>2019-09-19T09:18:25.001Z</time>
      </trkpt>
      <trkpt lat="50.24919" lon="3.64703">
        <ele>122.549</ele>
        <time>2019-09-19T09:18:28.001Z</time>
      </trkpt>
      <trkpt lat="50.24911" lon="3.64719">
        <ele>122.143</ele>
        <time>2019-09-19T09:18:31.001Z</time>
      </trkpt>
      <trkpt lat="50.24903" lon="3.64739">
        <ele>121.615</ele>
        <time>2019-09-19T09:18:34.001Z</time>
      </trkpt>
      <trkpt lat="50.24893" lon="3.64758">
        <ele>122.108</ele>
        <time>2019-09-19T09:18:37.001Z</time>
      </trkpt>
      <trkpt lat="50.24882" lon="3.64778">
        <ele>121.859</ele>
        <time>2019-09-19T09:18:40.001Z</time>
      </trkpt>
      <trkpt lat="50.24873" lon="3.64798">
        <ele>121.971</ele>
        <time>2019-09-19T09:18:43.001Z</time>
      </trkpt>
      <trkpt lat="50.24862" lon="3.64816">
        <ele>122.743</ele>
        <time>2019-09-19T09:18:46.001Z</time>
      </trkpt>
      <trkpt lat="50.24851" lon="3.64833">
        <ele>123.365</ele>
        <time>2019-09-19T09:18:49.001Z</time>
      </trkpt>
      <trkpt lat="50.24842" lon="3.64849">
        <ele>123.951</ele>
        <time>2019-09-19T09:18:52.001Z</time>
      </trkpt>
      <trkpt lat="50.24832" lon="3.64865">
        <ele>124.854</ele>
        <time>2019-09-19T09:18:55.001Z</time>
      </trkpt>
      <trkpt lat="50.24824" lon="3.64881">
        <ele>125.807</ele>
        <time>2019-09-19T09:18:58.001Z</time>
      </trkpt>
      <trkpt lat="50.24812" lon="3.64896">
        <ele>126.947</ele>
        <time>2019-09-19T09:19:01.001Z</time>
      </trkpt>
      <trkpt lat="50.24801" lon="3.64912">
        <ele>127.22</ele>
        <time>2019-09-19T09:19:04.001Z</time>
      </trkpt>
      <trkpt lat="50.24791" lon="3.64927">
        <ele>127.171</ele>
        <time>2019-09-19T09:19:07.001Z</time>
      </trkpt>
      <trkpt lat="50.24781" lon="3.64943">
        <ele>127.958</ele>
        <time>2019-09-19T09:19:10.001Z</time>
      </trkpt>
      <trkpt lat="50.24771" lon="3.64957">
        <ele>128.786</ele>
        <time>2019-09-19T09:19:13.001Z</time>
      </trkpt>
      <trkpt lat="50.24762" lon="3.64971">
        <ele>129.578</ele>
        <time>2019-09-19T09:19:16.000Z</time>
      </trkpt>
      <trkpt lat="50.24754" lon="3.64987">
        <ele>130.007</ele>
        <time>2019-09-19T09:19:19.001Z</time>
      </trkpt>
      <trkpt lat="50.24747" lon="3.65">
        <ele>131.158</ele>
        <time>2019-09-19T09:19:22.001Z</time>
      </trkpt>
      <trkpt lat="50.24739" lon="3.65012">
        <ele>132.685</ele>
        <time>2019-09-19T09:19:25.001Z</time>
      </trkpt>
      <trkpt lat="50.2473" lon="3.65027">
        <ele>133.165</ele>
        <time>2019-09-19T09:19:28.001Z</time>
      </trkpt>
      <trkpt lat="50.24719" lon="3.65041">
        <ele>132.948</ele>
        <time>2019-09-19T09:19:31.001Z</time>
      </trkpt>
      <trkpt lat="50.24709" lon="3.65055">
        <ele>132.832</ele>
        <time>2019-09-19T09:19:34.001Z</time>
      </trkpt>
      <trkpt lat="50.24699" lon="3.65068">
        <ele>132.862</ele>
        <time>2019-09-19T09:19:37.001Z</time>
      </trkpt>
      <trkpt lat="50.24689" lon="3.6508">
        <ele>132.914</ele>
        <time>2019-09-19T09:19:40.001Z</time>
      </trkpt>
      <trkpt lat="50.24678" lon="3.65091">
        <ele>133.151</ele>
        <time>2019-09-19T09:19:43.001Z</time>
      </trkpt>
      <trkpt lat="50.24667" lon="3.65102">
        <ele>133.394</ele>
        <time>2019-09-19T09:19:46.001Z</time>
      </trkpt>
      <trkpt lat="50.24656" lon="3.65111">
        <ele>133.617</ele>
        <time>2019-09-19T09:19:49.001Z</time>
      </trkpt>
      <trkpt lat="50.24647" lon="3.6512">
        <ele>134.262</ele>
        <time>2019-09-19T09:19:52.001Z</time>
      </trkpt>
      <trkpt lat="50.24639" lon="3.65129">
        <ele>135.627</ele>
        <time>2019-09-19T09:19:55.001Z</time>
      </trkpt>
      <trkpt lat="50.24629" lon="3.65138">
        <ele>136.234</ele>
        <time>2019-09-19T09:19:58.001Z</time>
      </trkpt>
      <trkpt lat="50.24618" lon="3.65147">
        <ele>136.7</ele>
        <time>2019-09-19T09:20:01.001Z</time>
      </trkpt>
      <trkpt lat="50.24608" lon="3.65157">
        <ele>137.638</ele>
        <time>2019-09-19T09:20:04.001Z</time>
      </trkpt>
      <trkpt lat="50.24599" lon="3.65168">
        <ele>138.166</ele>
        <time>2019-09-19T09:20:07.001Z</time>
      </trkpt>
      <trkpt lat="50.24591" lon="3.6518">
        <ele>138.456</ele>
        <time>2019-09-19T09:20:10.001Z</time>
      </trkpt>
      <trkpt lat="50.24582" lon="3.65192">
        <ele>138.506</ele>
        <time>2019-09-19T09:20:13.001Z</time>
      </trkpt>
      <trkpt lat="50.24573" lon="3.65204">
        <ele>137.738</ele>
        <time>2019-09-19T09:20:16.000Z</time>
      </trkpt>
      <trkpt lat="50.24564" lon="3.65216">
        <ele>137.353</ele>
        <time>2019-09-19T09:20:19.001Z</time>
      </trkpt>
      <trkpt lat="50.24555" lon="3.6523">
        <ele>136.913</ele>
        <time>2019-09-19T09:20:22.001Z</time>
      </trkpt>
      <trkpt lat="50.24547" lon="3.65243">
        <ele>137.185</ele>
        <time>2019-09-19T09:20:25.001Z</time>
      </trkpt>
      <trkpt lat="50.24539" lon="3.65256">
        <ele>137.35</ele>
        <time>2019-09-19T09:20:28.001Z</time>
      </trkpt>
      <trkpt lat="50.24531" lon="3.6527">
        <ele>137.02</ele>
        <time>2019-09-19T09:20:31.001Z</time>
      </trkpt>
      <trkpt lat="50.24523" lon="3.65285">
        <ele>136.272</ele>
        <time>2019-09-19T09:20:34.001Z</time>
      </trkpt>
      <trkpt lat="50.24515" lon="3.65299">
        <ele>135.724</ele>
        <time>2019-09-19T09:20:37.001Z</time>
      </trkpt>
      <trkpt lat="50.24508" lon="3.65315">
        <ele>135.676</ele>
        <time>2019-09-19T09:20:40.001Z</time>
      </trkpt>
      <trkpt lat="50.24499" lon="3.65329">
        <ele>134.258</ele>
        <time>2019-09-19T09:20:43.001Z</time>
      </trkpt>
      <trkpt lat="50.24495" lon="3.65344">
        <ele>133.487</ele>
        <time>2019-09-19T09:20:46.001Z</time>
      </trkpt>
      <trkpt lat="50.24502" lon="3.65353">
        <ele>132.56</ele>
        <time>2019-09-19T09:20:49.001Z</time>
      </trkpt>
      <trkpt lat="50.24507" lon="3.6536">
        <ele>131.591</ele>
        <time>2019-09-19T09:20:52.001Z</time>
      </trkpt>
      <trkpt lat="50.24509" lon="3.65362">
        <ele>130.302</ele>
        <time>2019-09-19T09:20:55.001Z</time>
      </trkpt>
      <trkpt lat="50.24508" lon="3.65364">
        <ele>130.472</ele>
        <time>2019-09-19T09:22:13.001Z</time>
      </trkpt>
      <trkpt lat="50.24507" lon="3.65362">
        <ele>130.824</ele>
        <time>2019-09-19T09:22:16.000Z</time>
      </trkpt>
      <trkpt lat="50.24507" lon="3.65361">
        <ele>130.864</ele>
        <time>2019-09-19T09:22:19.001Z</time>
      </trkpt>
      <trkpt lat="50.24507" lon="3.65361">
        <ele>130.864</ele>
        <time>2019-09-19T09:22:28.001Z</time>
      </trkpt>
      <trkpt lat="50.24505" lon="3.65359">
        <ele>130.27</ele>
        <time>2019-09-19T09:22:31.001Z</time>
      </trkpt>
      <trkpt lat="50.24501" lon="3.65354">
        <ele>130.23</ele>
        <time>2019-09-19T09:22:34.001Z</time>
      </trkpt>
      <trkpt lat="50.24498" lon="3.65349">
        <ele>129.554</ele>
        <time>2019-09-19T09:22:37.001Z</time>
      </trkpt>
      <trkpt lat="50.24493" lon="3.65344">
        <ele>128.711</ele>
        <time>2019-09-19T09:22:40.001Z</time>
      </trkpt>
      <trkpt lat="50.24486" lon="3.6534">
        <ele>128.474</ele>
        <time>2019-09-19T09:22:43.001Z</time>
      </trkpt>
      <trkpt lat="50.24475" lon="3.6534">
        <ele>128.186</ele>
        <time>2019-09-19T09:22:46.001Z</time>
      </trkpt>
      <trkpt lat="50.24462" lon="3.65339">
        <ele>128.22</ele>
        <time>2019-09-19T09:22:49.001Z</time>
      </trkpt>
      <trkpt lat="50.2445" lon="3.65327">
        <ele>128.053</ele>
        <time>2019-09-19T09:22:52.001Z</time>
      </trkpt>
      <trkpt lat="50.24439" lon="3.65308">
        <ele>128.18</ele>
        <time>2019-09-19T09:22:55.001Z</time>
      </trkpt>
      <trkpt lat="50.2443" lon="3.65284">
        <ele>127.971</ele>
        <time>2019-09-19T09:22:58.001Z</time>
      </trkpt>
      <trkpt lat="50.24418" lon="3.65262">
        <ele>127.708</ele>
        <time>2019-09-19T09:23:01.001Z</time>
      </trkpt>
      <trkpt lat="50.24404" lon="3.65241">
        <ele>127.886</ele>
        <time>2019-09-19T09:23:04.001Z</time>
      </trkpt>
      <trkpt lat="50.24391" lon="3.6522">
        <ele>127.905</ele>
        <time>2019-09-19T09:23:07.001Z</time>
      </trkpt>
      <trkpt lat="50.24378" lon="3.65198">
        <ele>127.736</ele>
        <time>2019-09-19T09:23:10.001Z</time>
      </trkpt>
      <trkpt lat="50.24366" lon="3.65175">
        <ele>127.644</ele>
        <time>2019-09-19T09:23:13.001Z</time>
      </trkpt>
      <trkpt lat="50.24356" lon="3.65151">
        <ele>127.872</ele>
        <time>2019-09-19T09:23:16.000Z</time>
      </trkpt>
      <trkpt lat="50.24348" lon="3.65125">
        <ele>128.604</ele>
        <time>2019-09-19T09:23:19.001Z</time>
      </trkpt>
      <trkpt lat="50.24343" lon="3.65101">
        <ele>128.818</ele>
        <time>2019-09-19T09:23:22.001Z</time>
      </trkpt>
      <trkpt lat="50.24337" lon="3.65077">
        <ele>129.14</ele>
        <time>2019-09-19T09:23:25.001Z</time>
      </trkpt>
      <trkpt lat="50.24332" lon="3.65054">
        <ele>129.455</ele>
        <time>2019-09-19T09:23:28.001Z</time>
      </trkpt>
      <trkpt lat="50.24326" lon="3.65032">
        <ele>129.671</ele>
        <time>2019-09-19T09:23:31.001Z</time>
      </trkpt>
      <trkpt lat="50.24318" lon="3.65014">
        <ele>129.914</ele>
        <time>2019-09-19T09:23:34.001Z</time>
      </trkpt>
      <trkpt lat="50.24309" lon="3.65">
        <ele>129.165</ele>
        <time>2019-09-19T09:23:37.001Z</time>
      </trkpt>
      <trkpt lat="50.243" lon="3.64987">
        <ele>129.195</ele>
        <time>2019-09-19T09:23:40.001Z</time>
      </trkpt>
      <trkpt lat="50.24289" lon="3.64973">
        <ele>129.53</ele>
        <time>2019-09-19T09:23:43.001Z</time>
      </trkpt>
      <trkpt lat="50.24278" lon="3.64958">
        <ele>129.888</ele>
        <time>2019-09-19T09:23:46.001Z</time>
      </trkpt>
      <trkpt lat="50.24268" lon="3.64941">
        <ele>129.965</ele>
        <time>2019-09-19T09:23:49.001Z</time>
      </trkpt>
      <trkpt lat="50.24259" lon="3.64919">
        <ele>130.443</ele>
        <time>2019-09-19T09:23:52.001Z</time>
      </trkpt>
      <trkpt lat="50.24253" lon="3.64896">
        <ele>131.245</ele>
        <time>2019-09-19T09:23:55.001Z</time>
      </trkpt>
      <trkpt lat="50.24247" lon="3.64872">
        <ele>129.943</ele>
        <time>2019-09-19T09:23:58.001Z</time>
      </trkpt>
      <trkpt lat="50.24247" lon="3.64848">
        <ele>128.997</ele>
        <time>2019-09-19T09:24:01.001Z</time>
      </trkpt>
      <trkpt lat="50.24247" lon="3.64824">
        <ele>128.62</ele>
        <time>2019-09-19T09:24:04.001Z</time>
      </trkpt>
      <trkpt lat="50.24237" lon="3.64808">
        <ele>127.543</ele>
        <time>2019-09-19T09:24:07.001Z</time>
      </trkpt>
      <trkpt lat="50.24221" lon="3.64815">
        <ele>127.759</ele>
        <time>2019-09-19T09:24:10.001Z</time>
      </trkpt>
      <trkpt lat="50.24212" lon="3.64834">
        <ele>127.574</ele>
        <time>2019-09-19T09:24:13.001Z</time>
      </trkpt>
      <trkpt lat="50.24212" lon="3.64856">
        <ele>127.356</ele>
        <time>2019-09-19T09:24:16.000Z</time>
      </trkpt>
      <trkpt lat="50.24208" lon="3.64877">
        <ele>126.424</ele>
        <time>2019-09-19T09:24:19.001Z</time>
      </trkpt>
      <trkpt lat="50.24202" lon="3.64897">
        <ele>126.025</ele>
        <time>2019-09-19T09:24:22.001Z</time>
      </trkpt>
      <trkpt lat="50.24195" lon="3.64916">
        <ele>125.71</ele>
        <time>2019-09-19T09:24:25.001Z</time>
      </trkpt>
      <trkpt lat="50.24188" lon="3.64933">
        <ele>126.199</ele>
        <time>2019-09-19T09:24:28.001Z</time>
      </trkpt>
      <trkpt lat="50.24179" lon="3.64947">
        <ele>125.91</ele>
        <time>2019-09-19T09:24:31.001Z</time>
      </trkpt>
      <trkpt lat="50.2417" lon="3.64961">
        <ele>126.254</ele>
        <time>2019-09-19T09:24:34.001Z</time>
      </trkpt>
      <trkpt lat="50.24163" lon="3.64975">
        <ele>126.654</ele>
        <time>2019-09-19T09:24:37.001Z</time>
      </trkpt>
      <trkpt lat="50.24155" lon="3.6499">
        <ele>127.069</ele>
        <time>2019-09-19T09:24:40.001Z</time>
      </trkpt>
      <trkpt lat="50.24146" lon="3.65003">
        <ele>127.754</ele>
        <time>2019-09-19T09:24:43.001Z</time>
      </trkpt>
      <trkpt lat="50.24138" lon="3.65016">
        <ele>128.267</ele>
        <time>2019-09-19T09:24:46.001Z</time>
      </trkpt>
      <trkpt lat="50.2413" lon="3.6503">
        <ele>128.739</ele>
        <time>2019-09-19T09:24:49.001Z</time>
      </trkpt>
      <trkpt lat="50.24121" lon="3.65046">
        <ele>128.738</ele>
        <time>2019-09-19T09:24:52.001Z</time>
      </trkpt>
      <trkpt lat="50.24113" lon="3.65061">
        <ele>129.111</ele>
        <time>2019-09-19T09:24:55.001Z</time>
      </trkpt>
      <trkpt lat="50.24104" lon="3.65077">
        <ele>129.244</ele>
        <time>2019-09-19T09:24:58.001Z</time>
      </trkpt>
      <trkpt lat="50.24095" lon="3.65093">
        <ele>129.524</ele>
        <time>2019-09-19T09:25:01.001Z</time>
      </trkpt>
      <trkpt lat="50.24086" lon="3.65108">
        <ele>129.18</ele>
        <time>2019-09-19T09:25:04.001Z</time>
      </trkpt>
      <trkpt lat="50.24076" lon="3.65124">
        <ele>128.639</ele>
        <time>2019-09-19T09:25:07.001Z</time>
      </trkpt>
      <trkpt lat="50.24067" lon="3.6514">
        <ele>129.039</ele>
        <time>2019-09-19T09:25:10.001Z</time>
      </trkpt>
      <trkpt lat="50.24058" lon="3.65155">
        <ele>128.763</ele>
        <time>2019-09-19T09:25:13.001Z</time>
      </trkpt>
      <trkpt lat="50.24049" lon="3.65169">
        <ele>129.021</ele>
        <time>2019-09-19T09:25:16.000Z</time>
      </trkpt>
      <trkpt lat="50.24041" lon="3.65182">
        <ele>129.576</ele>
        <time>2019-09-19T09:25:19.001Z</time>
      </trkpt>
      <trkpt lat="50.24032" lon="3.65196">
        <ele>130.561</ele>
        <time>2019-09-19T09:25:22.001Z</time>
      </trkpt>
      <trkpt lat="50.24026" lon="3.6521">
        <ele>131.137</ele>
        <time>2019-09-19T09:25:25.001Z</time>
      </trkpt>
      <trkpt lat="50.24019" lon="3.65224">
        <ele>132.127</ele>
        <time>2019-09-19T09:25:28.001Z</time>
      </trkpt>
      <trkpt lat="50.24011" lon="3.65238">
        <ele>132.781</ele>
        <time>2019-09-19T09:25:31.001Z</time>
      </trkpt>
      <trkpt lat="50.24002" lon="3.65252">
        <ele>132.644</ele>
        <time>2019-09-19T09:25:34.001Z</time>
      </trkpt>
      <trkpt lat="50.23995" lon="3.65265">
        <ele>133.604</ele>
        <time>2019-09-19T09:25:37.001Z</time>
      </trkpt>
      <trkpt lat="50.23986" lon="3.6528">
        <ele>133.464</ele>
        <time>2019-09-19T09:25:40.001Z</time>
      </trkpt>
      <trkpt lat="50.23977" lon="3.65294">
        <ele>132.957</ele>
        <time>2019-09-19T09:25:43.001Z</time>
      </trkpt>
      <trkpt lat="50.23967" lon="3.65307">
        <ele>132.28</ele>
        <time>2019-09-19T09:25:46.001Z</time>
      </trkpt>
      <trkpt lat="50.23959" lon="3.65321">
        <ele>131.231</ele>
        <time>2019-09-19T09:25:49.001Z</time>
      </trkpt>
      <trkpt lat="50.23951" lon="3.65336">
        <ele>130.45</ele>
        <time>2019-09-19T09:25:52.001Z</time>
      </trkpt>
      <trkpt lat="50.23942" lon="3.6535">
        <ele>129.903</ele>
        <time>2019-09-19T09:25:55.001Z</time>
      </trkpt>
      <trkpt lat="50.23935" lon="3.65363">
        <ele>130.537</ele>
        <time>2019-09-19T09:25:58.001Z</time>
      </trkpt>
      <trkpt lat="50.23926" lon="3.65376">
        <ele>130.677</ele>
        <time>2019-09-19T09:26:01.001Z</time>
      </trkpt>
      <trkpt lat="50.23917" lon="3.65389">
        <ele>130.514</ele>
        <time>2019-09-19T09:26:04.001Z</time>
      </trkpt>
      <trkpt lat="50.23909" lon="3.65402">
        <ele>130.677</ele>
        <time>2019-09-19T09:26:07.001Z</time>
      </trkpt>
      <trkpt lat="50.23899" lon="3.65418">
        <ele>130.886</ele>
        <time>2019-09-19T09:26:10.001Z</time>
      </trkpt>
      <trkpt lat="50.2389" lon="3.65434">
        <ele>130.733</ele>
        <time>2019-09-19T09:26:13.001Z</time>
      </trkpt>
      <trkpt lat="50.2388" lon="3.65451">
        <ele>130.992</ele>
        <time>2019-09-19T09:26:16.000Z</time>
      </trkpt>
      <trkpt lat="50.2387" lon="3.65469">
        <ele>131.119</ele>
        <time>2019-09-19T09:26:19.001Z</time>
      </trkpt>
      <trkpt lat="50.2386" lon="3.65486">
        <ele>131.006</ele>
        <time>2019-09-19T09:26:22.001Z</time>
      </trkpt>
      <trkpt lat="50.2385" lon="3.65503">
        <ele>130.819</ele>
        <time>2019-09-19T09:26:25.001Z</time>
      </trkpt>
      <trkpt lat="50.23841" lon="3.6552">
        <ele>130.384</ele>
        <time>2019-09-19T09:26:28.001Z</time>
      </trkpt>
      <trkpt lat="50.23831" lon="3.65537">
        <ele>130.486</ele>
        <time>2019-09-19T09:26:31.001Z</time>
      </trkpt>
      <trkpt lat="50.23822" lon="3.65554">
        <ele>130.478</ele>
        <time>2019-09-19T09:26:34.001Z</time>
      </trkpt>
      <trkpt lat="50.23812" lon="3.65573">
        <ele>129.917</ele>
        <time>2019-09-19T09:26:37.001Z</time>
      </trkpt>
      <trkpt lat="50.23803" lon="3.65591">
        <ele>129.582</ele>
        <time>2019-09-19T09:26:40.001Z</time>
      </trkpt>
      <trkpt lat="50.23793" lon="3.65608">
        <ele>129.125</ele>
        <time>2019-09-19T09:26:43.001Z</time>
      </trkpt>
      <trkpt lat="50.23782" lon="3.65626">
        <ele>128.48</ele>
        <time>2019-09-19T09:26:46.001Z</time>
      </trkpt>
      <trkpt lat="50.23771" lon="3.65642">
        <ele>128.129</ele>
        <time>2019-09-19T09:26:49.001Z</time>
      </trkpt>
      <trkpt lat="50.2376" lon="3.65659">
        <ele>128.238</ele>
        <time>2019-09-19T09:26:52.001Z</time>
      </trkpt>
      <trkpt lat="50.2375" lon="3.65677">
        <ele>128.582</ele>
        <time>2019-09-19T09:26:55.001Z</time>
      </trkpt>
      <trkpt lat="50.2374" lon="3.65693">
        <ele>128.738</ele>
        <time>2019-09-19T09:26:58.001Z</time>
      </trkpt>
      <trkpt lat="50.23729" lon="3.65711">
        <ele>128.89</ele>
        <time>2019-09-19T09:27:01.001Z</time>
      </trkpt>
      <trkpt lat="50.23719" lon="3.65728">
        <ele>129.223</ele>
        <time>2019-09-19T09:27:04.001Z</time>
      </trkpt>
      <trkpt lat="50.23708" lon="3.65747">
        <ele>128.891</ele>
        <time>2019-09-19T09:27:07.001Z</time>
      </trkpt>
      <trkpt lat="50.23697" lon="3.65765">
        <ele>128.259</ele>
        <time>2019-09-19T09:27:10.001Z</time>
      </trkpt>
      <trkpt lat="50.23687" lon="3.65783">
        <ele>128.54</ele>
        <time>2019-09-19T09:27:13.001Z</time>
      </trkpt>
      <trkpt lat="50.23678" lon="3.658">
        <ele>128.335</ele>
        <time>2019-09-19T09:27:16.000Z</time>
      </trkpt>
      <trkpt lat="50.23669" lon="3.65816">
        <ele>128.903</ele>
        <time>2019-09-19T09:27:19.001Z</time>
      </trkpt>
      <trkpt lat="50.23659" lon="3.65832">
        <ele>128.921</ele>
        <time>2019-09-19T09:27:22.001Z</time>
      </trkpt>
      <trkpt lat="50.2365" lon="3.65847">
        <ele>128.325</ele>
        <time>2019-09-19T09:27:25.001Z</time>
      </trkpt>
      <trkpt lat="50.2364" lon="3.65862">
        <ele>128.923</ele>
        <time>2019-09-19T09:27:28.001Z</time>
      </trkpt>
      <trkpt lat="50.2363" lon="3.65878">
        <ele>128.903</ele>
        <time>2019-09-19T09:27:31.001Z</time>
      </trkpt>
      <trkpt lat="50.23621" lon="3.65894">
        <ele>129.083</ele>
        <time>2019-09-19T09:27:34.001Z</time>
      </trkpt>
      <trkpt lat="50.23611" lon="3.6591">
        <ele>129.636</ele>
        <time>2019-09-19T09:27:37.001Z</time>
      </trkpt>
      <trkpt lat="50.23603" lon="3.65927">
        <ele>130.045</ele>
        <time>2019-09-19T09:27:40.001Z</time>
      </trkpt>
      <trkpt lat="50.23594" lon="3.65942">
        <ele>130.313</ele>
        <time>2019-09-19T09:27:43.001Z</time>
      </trkpt>
      <trkpt lat="50.23586" lon="3.65957">
        <ele>130.674</ele>
        <time>2019-09-19T09:27:46.001Z</time>
      </trkpt>
      <trkpt lat="50.23577" lon="3.65973">
        <ele>130.921</ele>
        <time>2019-09-19T09:27:49.001Z</time>
      </trkpt>
      <trkpt lat="50.23567" lon="3.65988">
        <ele>131.101</ele>
        <time>2019-09-19T09:27:52.001Z</time>
      </trkpt>
      <trkpt lat="50.23558" lon="3.66004">
        <ele>131.162</ele>
        <time>2019-09-19T09:27:55.001Z</time>
      </trkpt>
      <trkpt lat="50.23548" lon="3.66019">
        <ele>131.167</ele>
        <time>2019-09-19T09:27:58.001Z</time>
      </trkpt>
      <trkpt lat="50.23538" lon="3.66034">
        <ele>131.005</ele>
        <time>2019-09-19T09:28:01.001Z</time>
      </trkpt>
      <trkpt lat="50.2353" lon="3.66049">
        <ele>131.337</ele>
        <time>2019-09-19T09:28:04.001Z</time>
      </trkpt>
      <trkpt lat="50.23523" lon="3.66064">
        <ele>131.411</ele>
        <time>2019-09-19T09:28:07.001Z</time>
      </trkpt>
      <trkpt lat="50.23515" lon="3.66078">
        <ele>132.06</ele>
        <time>2019-09-19T09:28:10.001Z</time>
      </trkpt>
      <trkpt lat="50.23506" lon="3.66094">
        <ele>132.69</ele>
        <time>2019-09-19T09:28:13.001Z</time>
      </trkpt>
      <trkpt lat="50.23498" lon="3.66109">
        <ele>133.299</ele>
        <time>2019-09-19T09:28:16.000Z</time>
      </trkpt>
      <trkpt lat="50.2349" lon="3.66124">
        <ele>133.588</ele>
        <time>2019-09-19T09:28:19.001Z</time>
      </trkpt>
      <trkpt lat="50.23481" lon="3.66137">
        <ele>133.85</ele>
        <time>2019-09-19T09:28:22.001Z</time>
      </trkpt>
      <trkpt lat="50.23473" lon="3.66151">
        <ele>133.793</ele>
        <time>2019-09-19T09:28:25.001Z</time>
      </trkpt>
      <trkpt lat="50.23464" lon="3.66164">
        <ele>133.787</ele>
        <time>2019-09-19T09:28:28.001Z</time>
      </trkpt>
      <trkpt lat="50.23456" lon="3.66178">
        <ele>133.501</ele>
        <time>2019-09-19T09:28:31.001Z</time>
      </trkpt>
      <trkpt lat="50.23448" lon="3.66192">
        <ele>133.329</ele>
        <time>2019-09-19T09:28:34.001Z</time>
      </trkpt>
      <trkpt lat="50.23439" lon="3.66206">
        <ele>133.504</ele>
        <time>2019-09-19T09:28:37.001Z</time>
      </trkpt>
      <trkpt lat="50.23431" lon="3.6622">
        <ele>133.86</ele>
        <time>2019-09-19T09:28:40.001Z</time>
      </trkpt>
      <trkpt lat="50.23423" lon="3.66234">
        <ele>134.025</ele>
        <time>2019-09-19T09:28:43.001Z</time>
      </trkpt>
      <trkpt lat="50.23415" lon="3.66248">
        <ele>134.541</ele>
        <time>2019-09-19T09:28:46.001Z</time>
      </trkpt>
      <trkpt lat="50.23407" lon="3.66262">
        <ele>135.052</ele>
        <time>2019-09-19T09:28:49.001Z</time>
      </trkpt>
      <trkpt lat="50.234" lon="3.66275">
        <ele>135.48</ele>
        <time>2019-09-19T09:28:52.001Z</time>
      </trkpt>
      <trkpt lat="50.23393" lon="3.66289">
        <ele>135.861</ele>
        <time>2019-09-19T09:28:55.001Z</time>
      </trkpt>
      <trkpt lat="50.23385" lon="3.66302">
        <ele>136.114</ele>
        <time>2019-09-19T09:28:58.001Z</time>
      </trkpt>
      <trkpt lat="50.23378" lon="3.66314">
        <ele>136.083</ele>
        <time>2019-09-19T09:29:01.001Z</time>
      </trkpt>
      <trkpt lat="50.23372" lon="3.66326">
        <ele>136.714</ele>
        <time>2019-09-19T09:29:04.001Z</time>
      </trkpt>
      <trkpt lat="50.23364" lon="3.66339">
        <ele>137.212</ele>
        <time>2019-09-19T09:29:07.001Z</time>
      </trkpt>
      <trkpt lat="50.23356" lon="3.66352">
        <ele>137.11</ele>
        <time>2019-09-19T09:29:10.001Z</time>
      </trkpt>
      <trkpt lat="50.23347" lon="3.66366">
        <ele>137.393</ele>
        <time>2019-09-19T09:29:13.001Z</time>
      </trkpt>
      <trkpt lat="50.23338" lon="3.66379">
        <ele>137.055</ele>
        <time>2019-09-19T09:29:16.000Z</time>
      </trkpt>
      <trkpt lat="50.2333" lon="3.66393">
        <ele>137.716</ele>
        <time>2019-09-19T09:29:19.001Z</time>
      </trkpt>
      <trkpt lat="50.23322" lon="3.66406">
        <ele>137.89</ele>
        <time>2019-09-19T09:29:22.001Z</time>
      </trkpt>
      <trkpt lat="50.23316" lon="3.66418">
        <ele>137.521</ele>
        <time>2019-09-19T09:29:25.001Z</time>
      </trkpt>
      <trkpt lat="50.23308" lon="3.66432">
        <ele>137.443</ele>
        <time>2019-09-19T09:29:28.001Z</time>
      </trkpt>
      <trkpt lat="50.23301" lon="3.66446">
        <ele>137.971</ele>
        <time>2019-09-19T09:29:31.001Z</time>
      </trkpt>
      <trkpt lat="50.23294" lon="3.6646">
        <ele>139.373</ele>
        <time>2019-09-19T09:29:34.001Z</time>
      </trkpt>
      <trkpt lat="50.23286" lon="3.66474">
        <ele>139.433</ele>
        <time>2019-09-19T09:29:37.001Z</time>
      </trkpt>
      <trkpt lat="50.23278" lon="3.66489">
        <ele>139.277</ele>
        <time>2019-09-19T09:29:40.001Z</time>
      </trkpt>
      <trkpt lat="50.2327" lon="3.66502">
        <ele>139.756</ele>
        <time>2019-09-19T09:29:43.001Z</time>
      </trkpt>
      <trkpt lat="50.23262" lon="3.66516">
        <ele>140.208</ele>
        <time>2019-09-19T09:29:46.001Z</time>
      </trkpt>
      <trkpt lat="50.23253" lon="3.6653">
        <ele>139.814</ele>
        <time>2019-09-19T09:29:49.001Z</time>
      </trkpt>
      <trkpt lat="50.23245" lon="3.66545">
        <ele>140.052</ele>
        <time>2019-09-19T09:29:52.001Z</time>
      </trkpt>
      <trkpt lat="50.23237" lon="3.66558">
        <ele>140.175</ele>
        <time>2019-09-19T09:29:55.001Z</time>
      </trkpt>
      <trkpt lat="50.23229" lon="3.66571">
        <ele>140.657</ele>
        <time>2019-09-19T09:29:58.001Z</time>
      </trkpt>
      <trkpt lat="50.2322" lon="3.66585">
        <ele>141.263</ele>
        <time>2019-09-19T09:30:01.001Z</time>
      </trkpt>
      <trkpt lat="50.23213" lon="3.66598">
        <ele>141.833</ele>
        <time>2019-09-19T09:30:04.001Z</time>
      </trkpt>
      <trkpt lat="50.23206" lon="3.66613">
        <ele>141.867</ele>
        <time>2019-09-19T09:30:07.001Z</time>
      </trkpt>
      <trkpt lat="50.232" lon="3.66628">
        <ele>142.271</ele>
        <time>2019-09-19T09:30:10.001Z</time>
      </trkpt>
      <trkpt lat="50.23194" lon="3.66644">
        <ele>142.333</ele>
        <time>2019-09-19T09:30:13.001Z</time>
      </trkpt>
      <trkpt lat="50.23189" lon="3.6666">
        <ele>142.665</ele>
        <time>2019-09-19T09:30:16.000Z</time>
      </trkpt>
      <trkpt lat="50.23184" lon="3.66676">
        <ele>142.822</ele>
        <time>2019-09-19T09:30:19.001Z</time>
      </trkpt>
      <trkpt lat="50.23178" lon="3.66692">
        <ele>142.469</ele>
        <time>2019-09-19T09:30:22.001Z</time>
      </trkpt>
      <trkpt lat="50.23172" lon="3.66709">
        <ele>141.288</ele>
        <time>2019-09-19T09:30:25.001Z</time>
      </trkpt>
      <trkpt lat="50.23166" lon="3.66725">
        <ele>140.562</ele>
        <time>2019-09-19T09:30:28.001Z</time>
      </trkpt>
      <trkpt lat="50.23161" lon="3.66741">
        <ele>139.736</ele>
        <time>2019-09-19T09:30:31.001Z</time>
      </trkpt>
      <trkpt lat="50.23156" lon="3.66757">
        <ele>139.688</ele>
        <time>2019-09-19T09:30:34.001Z</time>
      </trkpt>
      <trkpt lat="50.23152" lon="3.66773">
        <ele>140.036</ele>
        <time>2019-09-19T09:30:37.001Z</time>
      </trkpt>
      <trkpt lat="50.23147" lon="3.66789">
        <ele>140.753</ele>
        <time>2019-09-19T09:30:40.001Z</time>
      </trkpt>
      <trkpt lat="50.23142" lon="3.66806">
        <ele>141.501</ele>
        <time>2019-09-19T09:30:43.001Z</time>
      </trkpt>
      <trkpt lat="50.23138" lon="3.66824">
        <ele>142.461</ele>
        <time>2019-09-19T09:30:46.001Z</time>
      </trkpt>
      <trkpt lat="50.23133" lon="3.66843">
        <ele>142.794</ele>
        <time>2019-09-19T09:30:49.001Z</time>
      </trkpt>
      <trkpt lat="50.23129" lon="3.66861">
        <ele>143.582</ele>
        <time>2019-09-19T09:30:52.001Z</time>
      </trkpt>
      <trkpt lat="50.23125" lon="3.66881">
        <ele>144.718</ele>
        <time>2019-09-19T09:30:55.001Z</time>
      </trkpt>
      <trkpt lat="50.23122" lon="3.66899">
        <ele>145.264</ele>
        <time>2019-09-19T09:30:58.001Z</time>
      </trkpt>
      <trkpt lat="50.23118" lon="3.66917">
        <ele>145.792</ele>
        <time>2019-09-19T09:31:01.001Z</time>
      </trkpt>
      <trkpt lat="50.23114" lon="3.66935">
        <ele>146.123</ele>
        <time>2019-09-19T09:31:04.001Z</time>
      </trkpt>
      <trkpt lat="50.23109" lon="3.66954">
        <ele>145.822</ele>
        <time>2019-09-19T09:31:07.001Z</time>
      </trkpt>
      <trkpt lat="50.23106" lon="3.66973">
        <ele>145.053</ele>
        <time>2019-09-19T09:31:10.001Z</time>
      </trkpt>
      <trkpt lat="50.23103" lon="3.66991">
        <ele>143.996</ele>
        <time>2019-09-19T09:31:13.001Z</time>
      </trkpt>
      <trkpt lat="50.23101" lon="3.67012">
        <ele>143.095</ele>
        <time>2019-09-19T09:31:16.000Z</time>
      </trkpt>
      <trkpt lat="50.23099" lon="3.67032">
        <ele>142.09</ele>
        <time>2019-09-19T09:31:19.001Z</time>
      </trkpt>
      <trkpt lat="50.23098" lon="3.67052">
        <ele>141.749</ele>
        <time>2019-09-19T09:31:22.001Z</time>
      </trkpt>
      <trkpt lat="50.23097" lon="3.67072">
        <ele>141.63</ele>
        <time>2019-09-19T09:31:25.001Z</time>
      </trkpt>
      <trkpt lat="50.23095" lon="3.67093">
        <ele>141.774</ele>
        <time>2019-09-19T09:31:28.001Z</time>
      </trkpt>
      <trkpt lat="50.23094" lon="3.67114">
        <ele>140.894</ele>
        <time>2019-09-19T09:31:31.001Z</time>
      </trkpt>
      <trkpt lat="50.23092" lon="3.67134">
        <ele>140.268</ele>
        <time>2019-09-19T09:31:34.001Z</time>
      </trkpt>
      <trkpt lat="50.2309" lon="3.67155">
        <ele>140.603</ele>
        <time>2019-09-19T09:31:37.001Z</time>
      </trkpt>
      <trkpt lat="50.23087" lon="3.67175">
        <ele>140.659</ele>
        <time>2019-09-19T09:31:40.001Z</time>
      </trkpt>
      <trkpt lat="50.23083" lon="3.67196">
        <ele>141.427</ele>
        <time>2019-09-19T09:31:43.001Z</time>
      </trkpt>
      <trkpt lat="50.23079" lon="3.67216">
        <ele>141.897</ele>
        <time>2019-09-19T09:31:46.001Z</time>
      </trkpt>
      <trkpt lat="50.23074" lon="3.67235">
        <ele>142.446</ele>
        <time>2019-09-19T09:31:49.001Z</time>
      </trkpt>
      <trkpt lat="50.23069" lon="3.67255">
        <ele>143.302</ele>
        <time>2019-09-19T09:31:52.001Z</time>
      </trkpt>
      <trkpt lat="50.23063" lon="3.67273">
        <ele>143.76</ele>
        <time>2019-09-19T09:31:55.001Z</time>
      </trkpt>
      <trkpt lat="50.23056" lon="3.67288">
        <ele>143.974</ele>
        <time>2019-09-19T09:31:58.001Z</time>
      </trkpt>
      <trkpt lat="50.23047" lon="3.67304">
        <ele>144.009</ele>
        <time>2019-09-19T09:32:01.001Z</time>
      </trkpt>
      <trkpt lat="50.23039" lon="3.6732">
        <ele>144.021</ele>
        <time>2019-09-19T09:32:04.001Z</time>
      </trkpt>
      <trkpt lat="50.2303" lon="3.67335">
        <ele>144.302</ele>
        <time>2019-09-19T09:32:07.001Z</time>
      </trkpt>
      <trkpt lat="50.23021" lon="3.6735">
        <ele>143.685</ele>
        <time>2019-09-19T09:32:10.001Z</time>
      </trkpt>
      <trkpt lat="50.23011" lon="3.67364">
        <ele>143.177</ele>
        <time>2019-09-19T09:32:13.001Z</time>
      </trkpt>
      <trkpt lat="50.23002" lon="3.67379">
        <ele>142.968</ele>
        <time>2019-09-19T09:32:16.000Z</time>
      </trkpt>
      <trkpt lat="50.22991" lon="3.67393">
        <ele>142.377</ele>
        <time>2019-09-19T09:32:19.001Z</time>
      </trkpt>
      <trkpt lat="50.22981" lon="3.67407">
        <ele>142.818</ele>
        <time>2019-09-19T09:32:22.001Z</time>
      </trkpt>
      <trkpt lat="50.2297" lon="3.67421">
        <ele>143.606</ele>
        <time>2019-09-19T09:32:25.001Z</time>
      </trkpt>
      <trkpt lat="50.22959" lon="3.67434">
        <ele>143.831</ele>
        <time>2019-09-19T09:32:28.001Z</time>
      </trkpt>
      <trkpt lat="50.22948" lon="3.67446">
        <ele>143.243</ele>
        <time>2019-09-19T09:32:31.001Z</time>
      </trkpt>
      <trkpt lat="50.22938" lon="3.67458">
        <ele>142.949</ele>
        <time>2019-09-19T09:32:34.001Z</time>
      </trkpt>
      <trkpt lat="50.22929" lon="3.67471">
        <ele>143.218</ele>
        <time>2019-09-19T09:32:37.001Z</time>
      </trkpt>
      <trkpt lat="50.2292" lon="3.67483">
        <ele>143.603</ele>
        <time>2019-09-19T09:32:40.001Z</time>
      </trkpt>
      <trkpt lat="50.22911" lon="3.67495">
        <ele>144.318</ele>
        <time>2019-09-19T09:32:43.001Z</time>
      </trkpt>
      <trkpt lat="50.22902" lon="3.67507">
        <ele>145.052</ele>
        <time>2019-09-19T09:32:46.001Z</time>
      </trkpt>
      <trkpt lat="50.22894" lon="3.67519">
        <ele>145.443</ele>
        <time>2019-09-19T09:32:49.001Z</time>
      </trkpt>
      <trkpt lat="50.22885" lon="3.67531">
        <ele>146.236</ele>
        <time>2019-09-19T09:32:52.001Z</time>
      </trkpt>
      <trkpt lat="50.22875" lon="3.67544">
        <ele>147.178</ele>
        <time>2019-09-19T09:32:55.001Z</time>
      </trkpt>
      <trkpt lat="50.22866" lon="3.67556">
        <ele>147.871</ele>
        <time>2019-09-19T09:32:58.001Z</time>
      </trkpt>
      <trkpt lat="50.22857" lon="3.67569">
        <ele>148.503</ele>
        <time>2019-09-19T09:33:01.001Z</time>
      </trkpt>
      <trkpt lat="50.22848" lon="3.67582">
        <ele>147.997</ele>
        <time>2019-09-19T09:33:04.001Z</time>
      </trkpt>
      <trkpt lat="50.22839" lon="3.67593">
        <ele>147.399</ele>
        <time>2019-09-19T09:33:07.001Z</time>
      </trkpt>
      <trkpt lat="50.22829" lon="3.67605">
        <ele>147.881</ele>
        <time>2019-09-19T09:33:10.001Z</time>
      </trkpt>
      <trkpt lat="50.22818" lon="3.67619">
        <ele>147.681</ele>
        <time>2019-09-19T09:33:13.001Z</time>
      </trkpt>
      <trkpt lat="50.22808" lon="3.67632">
        <ele>148.018</ele>
        <time>2019-09-19T09:33:16.000Z</time>
      </trkpt>
      <trkpt lat="50.22797" lon="3.67643">
        <ele>148.68</ele>
        <time>2019-09-19T09:33:19.001Z</time>
      </trkpt>
      <trkpt lat="50.22787" lon="3.67655">
        <ele>148.109</ele>
        <time>2019-09-19T09:33:22.001Z</time>
      </trkpt>
      <trkpt lat="50.22777" lon="3.67667">
        <ele>148.352</ele>
        <time>2019-09-19T09:33:25.001Z</time>
      </trkpt>
      <trkpt lat="50.22768" lon="3.67679">
        <ele>148.312</ele>
        <time>2019-09-19T09:33:28.001Z</time>
      </trkpt>
      <trkpt lat="50.22758" lon="3.67692">
        <ele>147.611</ele>
        <time>2019-09-19T09:33:31.001Z</time>
      </trkpt>
      <trkpt lat="50.22746" lon="3.67705">
        <ele>146.546</ele>
        <time>2019-09-19T09:33:34.001Z</time>
      </trkpt>
      <trkpt lat="50.22734" lon="3.67721">
        <ele>145.377</ele>
        <time>2019-09-19T09:33:37.001Z</time>
      </trkpt>
      <trkpt lat="50.22722" lon="3.67736">
        <ele>145.067</ele>
        <time>2019-09-19T09:33:40.001Z</time>
      </trkpt>
      <trkpt lat="50.2271" lon="3.67751">
        <ele>145.161</ele>
        <time>2019-09-19T09:33:43.001Z</time>
      </trkpt>
      <trkpt lat="50.22698" lon="3.67766">
        <ele>145.131</ele>
        <time>2019-09-19T09:33:46.001Z</time>
      </trkpt>
      <trkpt lat="50.22685" lon="3.67783">
        <ele>144.952</ele>
        <time>2019-09-19T09:33:49.001Z</time>
      </trkpt>
      <trkpt lat="50.22673" lon="3.67799">
        <ele>144.093</ele>
        <time>2019-09-19T09:33:52.001Z</time>
      </trkpt>
      <trkpt lat="50.22661" lon="3.67816">
        <ele>142.505</ele>
        <time>2019-09-19T09:33:55.001Z</time>
      </trkpt>
      <trkpt lat="50.22648" lon="3.67833">
        <ele>142.659</ele>
        <time>2019-09-19T09:33:58.001Z</time>
      </trkpt>
      <trkpt lat="50.22635" lon="3.67851">
        <ele>142.575</ele>
        <time>2019-09-19T09:34:01.001Z</time>
      </trkpt>
      <trkpt lat="50.22619" lon="3.67869">
        <ele>142.64</ele>
        <time>2019-09-19T09:34:04.001Z</time>
      </trkpt>
      <trkpt lat="50.22604" lon="3.67886">
        <ele>142.538</ele>
        <time>2019-09-19T09:34:07.001Z</time>
      </trkpt>
      <trkpt lat="50.22589" lon="3.67905">
        <ele>142.651</ele>
        <time>2019-09-19T09:34:10.001Z</time>
      </trkpt>
      <trkpt lat="50.22576" lon="3.67924">
        <ele>142.997</ele>
        <time>2019-09-19T09:34:13.001Z</time>
      </trkpt>
      <trkpt lat="50.22563" lon="3.67941">
        <ele>143.194</ele>
        <time>2019-09-19T09:34:16.000Z</time>
      </trkpt>
      <trkpt lat="50.22549" lon="3.67959">
        <ele>143.562</ele>
        <time>2019-09-19T09:34:19.001Z</time>
      </trkpt>
      <trkpt lat="50.22536" lon="3.67977">
        <ele>144.014</ele>
        <time>2019-09-19T09:34:22.001Z</time>
      </trkpt>
      <trkpt lat="50.22522" lon="3.67995">
        <ele>144.264</ele>
        <time>2019-09-19T09:34:25.001Z</time>
      </trkpt>
      <trkpt lat="50.22508" lon="3.68012">
        <ele>144.428</ele>
        <time>2019-09-19T09:34:28.001Z</time>
      </trkpt>
      <trkpt lat="50.22493" lon="3.68028">
        <ele>144.1</ele>
        <time>2019-09-19T09:34:31.001Z</time>
      </trkpt>
      <trkpt lat="50.22479" lon="3.68041">
        <ele>144.39</ele>
        <time>2019-09-19T09:34:34.001Z</time>
      </trkpt>
      <trkpt lat="50.22465" lon="3.68054">
        <ele>144.701</ele>
        <time>2019-09-19T09:34:37.001Z</time>
      </trkpt>
      <trkpt lat="50.22451" lon="3.68064">
        <ele>144.038</ele>
        <time>2019-09-19T09:34:40.001Z</time>
      </trkpt>
      <trkpt lat="50.2244" lon="3.68073">
        <ele>143.694</ele>
        <time>2019-09-19T09:34:43.001Z</time>
      </trkpt>
      <trkpt lat="50.22429" lon="3.6808">
        <ele>143.645</ele>
        <time>2019-09-19T09:34:46.001Z</time>
      </trkpt>
      <trkpt lat="50.22417" lon="3.68088">
        <ele>144.136</ele>
        <time>2019-09-19T09:34:49.001Z</time>
      </trkpt>
      <trkpt lat="50.22405" lon="3.68097">
        <ele>144.343</ele>
        <time>2019-09-19T09:34:52.001Z</time>
      </trkpt>
      <trkpt lat="50.22393" lon="3.68107">
        <ele>144.46</ele>
        <time>2019-09-19T09:34:55.001Z</time>
      </trkpt>
      <trkpt lat="50.22382" lon="3.68117">
        <ele>144.052</ele>
        <time>2019-09-19T09:34:58.001Z</time>
      </trkpt>
      <trkpt lat="50.22372" lon="3.68126">
        <ele>143.646</ele>
        <time>2019-09-19T09:35:01.001Z</time>
      </trkpt>
      <trkpt lat="50.22362" lon="3.68133">
        <ele>142.983</ele>
        <time>2019-09-19T09:35:04.001Z</time>
      </trkpt>
      <trkpt lat="50.22353" lon="3.68141">
        <ele>142.52</ele>
        <time>2019-09-19T09:35:07.001Z</time>
      </trkpt>
      <trkpt lat="50.22343" lon="3.68148">
        <ele>142.329</ele>
        <time>2019-09-19T09:35:10.001Z</time>
      </trkpt>
      <trkpt lat="50.22334" lon="3.68156">
        <ele>142.615</ele>
        <time>2019-09-19T09:35:13.001Z</time>
      </trkpt>
      <trkpt lat="50.22324" lon="3.68165">
        <ele>142.888</ele>
        <time>2019-09-19T09:35:16.000Z</time>
      </trkpt>
      <trkpt lat="50.22312" lon="3.68173">
        <ele>142.846</ele>
        <time>2019-09-19T09:35:19.001Z</time>
      </trkpt>
      <trkpt lat="50.22301" lon="3.68182">
        <ele>142.653</ele>
        <time>2019-09-19T09:35:22.001Z</time>
      </trkpt>
      <trkpt lat="50.22289" lon="3.6819">
        <ele>142.986</ele>
        <time>2019-09-19T09:35:25.001Z</time>
      </trkpt>
      <trkpt lat="50.22277" lon="3.68199">
        <ele>143.315</ele>
        <time>2019-09-19T09:35:28.001Z</time>
      </trkpt>
      <trkpt lat="50.22266" lon="3.68207">
        <ele>143.881</ele>
        <time>2019-09-19T09:35:31.001Z</time>
      </trkpt>
      <trkpt lat="50.22255" lon="3.68216">
        <ele>143.886</ele>
        <time>2019-09-19T09:35:34.001Z</time>
      </trkpt>
      <trkpt lat="50.22244" lon="3.68225">
        <ele>144.363</ele>
        <time>2019-09-19T09:35:37.001Z</time>
      </trkpt>
      <trkpt lat="50.22233" lon="3.68233">
        <ele>144.96</ele>
        <time>2019-09-19T09:35:40.001Z</time>
      </trkpt>
      <trkpt lat="50.22222" lon="3.68243">
        <ele>145.407</ele>
        <time>2019-09-19T09:35:43.001Z</time>
      </trkpt>
      <trkpt lat="50.2221" lon="3.68255">
        <ele>145.095</ele>
        <time>2019-09-19T09:35:46.001Z</time>
      </trkpt>
      <trkpt lat="50.22198" lon="3.68266">
        <ele>144.303</ele>
        <time>2019-09-19T09:35:49.001Z</time>
      </trkpt>
      <trkpt lat="50.22187" lon="3.68277">
        <ele>143.813</ele>
        <time>2019-09-19T09:35:52.001Z</time>
      </trkpt>
      <trkpt lat="50.22177" lon="3.68289">
        <ele>143.996</ele>
        <time>2019-09-19T09:35:55.001Z</time>
      </trkpt>
      <trkpt lat="50.22167" lon="3.683">
        <ele>144.253</ele>
        <time>2019-09-19T09:35:58.001Z</time>
      </trkpt>
      <trkpt lat="50.22157" lon="3.68312">
        <ele>144.309</ele>
        <time>2019-09-19T09:36:01.001Z</time>
      </trkpt>
      <trkpt lat="50.22147" lon="3.68324">
        <ele>144.223</ele>
        <time>2019-09-19T09:36:04.001Z</time>
      </trkpt>
      <trkpt lat="50.22137" lon="3.68335">
        <ele>144.382</ele>
        <time>2019-09-19T09:36:07.001Z</time>
      </trkpt>
      <trkpt lat="50.22125" lon="3.68345">
        <ele>144.456</ele>
        <time>2019-09-19T09:36:10.001Z</time>
      </trkpt>
      <trkpt lat="50.22114" lon="3.68356">
        <ele>144.468</ele>
        <time>2019-09-19T09:36:13.001Z</time>
      </trkpt>
      <trkpt lat="50.22103" lon="3.68362">
        <ele>144.629</ele>
        <time>2019-09-19T09:36:16.000Z</time>
      </trkpt>
      <trkpt lat="50.22091" lon="3.68367">
        <ele>144.71</ele>
        <time>2019-09-19T09:36:19.001Z</time>
      </trkpt>
      <trkpt lat="50.2208" lon="3.68382">
        <ele>144.655</ele>
        <time>2019-09-19T09:36:22.001Z</time>
      </trkpt>
      <trkpt lat="50.22075" lon="3.684">
        <ele>144.526</ele>
        <time>2019-09-19T09:36:25.001Z</time>
      </trkpt>
      <trkpt lat="50.22068" lon="3.68415">
        <ele>144.362</ele>
        <time>2019-09-19T09:36:28.001Z</time>
      </trkpt>
      <trkpt lat="50.22059" lon="3.68428">
        <ele>144.752</ele>
        <time>2019-09-19T09:36:31.001Z</time>
      </trkpt>
      <trkpt lat="50.2205" lon="3.68439">
        <ele>145.097</ele>
        <time>2019-09-19T09:36:34.001Z</time>
      </trkpt>
      <trkpt lat="50.22039" lon="3.68452">
        <ele>145.423</ele>
        <time>2019-09-19T09:36:37.001Z</time>
      </trkpt>
      <trkpt lat="50.22028" lon="3.68464">
        <ele>146.021</ele>
        <time>2019-09-19T09:36:40.001Z</time>
      </trkpt>
      <trkpt lat="50.22019" lon="3.68476">
        <ele>146.743</ele>
        <time>2019-09-19T09:36:43.001Z</time>
      </trkpt>
      <trkpt lat="50.2201" lon="3.68487">
        <ele>148.029</ele>
        <time>2019-09-19T09:36:46.001Z</time>
      </trkpt>
      <trkpt lat="50.22001" lon="3.68498">
        <ele>149.949</ele>
        <time>2019-09-19T09:36:49.001Z</time>
      </trkpt>
      <trkpt lat="50.21992" lon="3.68509">
        <ele>151.346</ele>
        <time>2019-09-19T09:36:52.001Z</time>
      </trkpt>
      <trkpt lat="50.21984" lon="3.6852">
        <ele>152.322</ele>
        <time>2019-09-19T09:36:55.001Z</time>
      </trkpt>
      <trkpt lat="50.21975" lon="3.68531">
        <ele>153.069</ele>
        <time>2019-09-19T09:36:58.001Z</time>
      </trkpt>
      <trkpt lat="50.21965" lon="3.68541">
        <ele>154.04</ele>
        <time>2019-09-19T09:37:01.001Z</time>
      </trkpt>
      <trkpt lat="50.21955" lon="3.68552">
        <ele>154.893</ele>
        <time>2019-09-19T09:37:04.001Z</time>
      </trkpt>
      <trkpt lat="50.21945" lon="3.68562">
        <ele>155.859</ele>
        <time>2019-09-19T09:37:07.001Z</time>
      </trkpt>
      <trkpt lat="50.21934" lon="3.68572">
        <ele>156.684</ele>
        <time>2019-09-19T09:37:10.001Z</time>
      </trkpt>
      <trkpt lat="50.21924" lon="3.68583">
        <ele>157.19</ele>
        <time>2019-09-19T09:37:13.001Z</time>
      </trkpt>
      <trkpt lat="50.21914" lon="3.68595">
        <ele>157.386</ele>
        <time>2019-09-19T09:37:16.002Z</time>
      </trkpt>
      <trkpt lat="50.21904" lon="3.68607">
        <ele>157.337</ele>
        <time>2019-09-19T09:37:19.001Z</time>
      </trkpt>
      <trkpt lat="50.21894" lon="3.68618">
        <ele>157.494</ele>
        <time>2019-09-19T09:37:22.001Z</time>
      </trkpt>
      <trkpt lat="50.21885" lon="3.68628">
        <ele>157.4</ele>
        <time>2019-09-19T09:37:25.001Z</time>
      </trkpt>
      <trkpt lat="50.21875" lon="3.68639">
        <ele>156.28</ele>
        <time>2019-09-19T09:37:28.001Z</time>
      </trkpt>
      <trkpt lat="50.21866" lon="3.6865">
        <ele>155.51</ele>
        <time>2019-09-19T09:37:31.001Z</time>
      </trkpt>
      <trkpt lat="50.21858" lon="3.68661">
        <ele>155.218</ele>
        <time>2019-09-19T09:37:34.001Z</time>
      </trkpt>
      <trkpt lat="50.21849" lon="3.68671">
        <ele>155.426</ele>
        <time>2019-09-19T09:37:37.001Z</time>
      </trkpt>
      <trkpt lat="50.21841" lon="3.68682">
        <ele>156.193</ele>
        <time>2019-09-19T09:37:40.001Z</time>
      </trkpt>
      <trkpt lat="50.21833" lon="3.68692">
        <ele>157.469</ele>
        <time>2019-09-19T09:37:43.001Z</time>
      </trkpt>
      <trkpt lat="50.21826" lon="3.68701">
        <ele>158.69</ele>
        <time>2019-09-19T09:37:46.001Z</time>
      </trkpt>
      <trkpt lat="50.21819" lon="3.6871">
        <ele>159.221</ele>
        <time>2019-09-19T09:37:49.001Z</time>
      </trkpt>
      <trkpt lat="50.21809" lon="3.68719">
        <ele>159.663</ele>
        <time>2019-09-19T09:37:52.001Z</time>
      </trkpt>
      <trkpt lat="50.21801" lon="3.6873">
        <ele>160.458</ele>
        <time>2019-09-19T09:37:55.001Z</time>
      </trkpt>
      <trkpt lat="50.21793" lon="3.68738">
        <ele>161.484</ele>
        <time>2019-09-19T09:37:58.001Z</time>
      </trkpt>
      <trkpt lat="50.21784" lon="3.68747">
        <ele>162.127</ele>
        <time>2019-09-19T09:38:01.001Z</time>
      </trkpt>
      <trkpt lat="50.21775" lon="3.68756">
        <ele>162.447</ele>
        <time>2019-09-19T09:38:04.001Z</time>
      </trkpt>
      <trkpt lat="50.21766" lon="3.68764">
        <ele>163.62</ele>
        <time>2019-09-19T09:38:07.001Z</time>
      </trkpt>
      <trkpt lat="50.21758" lon="3.68772">
        <ele>164.803</ele>
        <time>2019-09-19T09:38:10.001Z</time>
      </trkpt>
      <trkpt lat="50.21751" lon="3.6878">
        <ele>165.724</ele>
        <time>2019-09-19T09:38:13.001Z</time>
      </trkpt>
      <trkpt lat="50.21743" lon="3.68789">
        <ele>166.757</ele>
        <time>2019-09-19T09:38:16.000Z</time>
      </trkpt>
      <trkpt lat="50.21735" lon="3.68797">
        <ele>167.767</ele>
        <time>2019-09-19T09:38:19.001Z</time>
      </trkpt>
      <trkpt lat="50.21727" lon="3.68806">
        <ele>168.348</ele>
        <time>2019-09-19T09:38:22.001Z</time>
      </trkpt>
      <trkpt lat="50.21719" lon="3.68814">
        <ele>168.666</ele>
        <time>2019-09-19T09:38:25.001Z</time>
      </trkpt>
      <trkpt lat="50.21711" lon="3.68823">
        <ele>168.354</ele>
        <time>2019-09-19T09:38:28.001Z</time>
      </trkpt>
      <trkpt lat="50.21703" lon="3.68831">
        <ele>168.55</ele>
        <time>2019-09-19T09:38:31.001Z</time>
      </trkpt>
      <trkpt lat="50.21694" lon="3.6884">
        <ele>168.252</ele>
        <time>2019-09-19T09:38:34.001Z</time>
      </trkpt>
      <trkpt lat="50.21684" lon="3.68849">
        <ele>168.215</ele>
        <time>2019-09-19T09:38:37.001Z</time>
      </trkpt>
      <trkpt lat="50.21673" lon="3.68858">
        <ele>167.486</ele>
        <time>2019-09-19T09:38:40.001Z</time>
      </trkpt>
      <trkpt lat="50.21664" lon="3.68868">
        <ele>165.748</ele>
        <time>2019-09-19T09:38:43.001Z</time>
      </trkpt>
      <trkpt lat="50.21656" lon="3.68877">
        <ele>164.012</ele>
        <time>2019-09-19T09:38:46.001Z</time>
      </trkpt>
      <trkpt lat="50.21648" lon="3.68885">
        <ele>163.789</ele>
        <time>2019-09-19T09:38:49.001Z</time>
      </trkpt>
      <trkpt lat="50.21641" lon="3.68893">
        <ele>163.089</ele>
        <time>2019-09-19T09:38:52.001Z</time>
      </trkpt>
      <trkpt lat="50.21633" lon="3.68899">
        <ele>164.199</ele>
        <time>2019-09-19T09:38:55.001Z</time>
      </trkpt>
      <trkpt lat="50.21625" lon="3.68908">
        <ele>165.157</ele>
        <time>2019-09-19T09:38:58.001Z</time>
      </trkpt>
      <trkpt lat="50.21615" lon="3.68915">
        <ele>164.882</ele>
        <time>2019-09-19T09:39:01.001Z</time>
      </trkpt>
      <trkpt lat="50.21606" lon="3.68925">
        <ele>163.631</ele>
        <time>2019-09-19T09:39:04.001Z</time>
      </trkpt>
      <trkpt lat="50.21596" lon="3.68934">
        <ele>161.828</ele>
        <time>2019-09-19T09:39:07.001Z</time>
      </trkpt>
      <trkpt lat="50.21587" lon="3.68942">
        <ele>160.103</ele>
        <time>2019-09-19T09:39:10.001Z</time>
      </trkpt>
      <trkpt lat="50.21579" lon="3.68952">
        <ele>158.862</ele>
        <time>2019-09-19T09:39:13.001Z</time>
      </trkpt>
      <trkpt lat="50.21571" lon="3.6896">
        <ele>158.769</ele>
        <time>2019-09-19T09:39:16.000Z</time>
      </trkpt>
      <trkpt lat="50.21564" lon="3.68967">
        <ele>159.059</ele>
        <time>2019-09-19T09:39:19.001Z</time>
      </trkpt>
      <trkpt lat="50.21558" lon="3.68974">
        <ele>159.616</ele>
        <time>2019-09-19T09:39:22.001Z</time>
      </trkpt>
      <trkpt lat="50.21552" lon="3.68984">
        <ele>160.956</ele>
        <time>2019-09-19T09:39:25.001Z</time>
      </trkpt>
      <trkpt lat="50.21546" lon="3.68994">
        <ele>161.58</ele>
        <time>2019-09-19T09:39:28.001Z</time>
      </trkpt>
      <trkpt lat="50.21539" lon="3.69004">
        <ele>161.877</ele>
        <time>2019-09-19T09:39:31.001Z</time>
      </trkpt>
      <trkpt lat="50.21533" lon="3.69015">
        <ele>161.795</ele>
        <time>2019-09-19T09:39:34.001Z</time>
      </trkpt>
      <trkpt lat="50.21524" lon="3.69026">
        <ele>160.847</ele>
        <time>2019-09-19T09:39:37.001Z</time>
      </trkpt>
      <trkpt lat="50.21517" lon="3.6904">
        <ele>160.569</ele>
        <time>2019-09-19T09:39:40.001Z</time>
      </trkpt>
      <trkpt lat="50.21512" lon="3.69054">
        <ele>160.458</ele>
        <time>2019-09-19T09:39:43.001Z</time>
      </trkpt>
      <trkpt lat="50.21507" lon="3.69069">
        <ele>160.465</ele>
        <time>2019-09-19T09:39:46.001Z</time>
      </trkpt>
      <trkpt lat="50.21502" lon="3.69081">
        <ele>160.397</ele>
        <time>2019-09-19T09:39:49.001Z</time>
      </trkpt>
      <trkpt lat="50.21498" lon="3.69097">
        <ele>161.305</ele>
        <time>2019-09-19T09:39:52.001Z</time>
      </trkpt>
      <trkpt lat="50.21492" lon="3.69115">
        <ele>163.108</ele>
        <time>2019-09-19T09:39:55.001Z</time>
      </trkpt>
      <trkpt lat="50.21487" lon="3.69134">
        <ele>165.256</ele>
        <time>2019-09-19T09:39:58.001Z</time>
      </trkpt>
      <trkpt lat="50.2148" lon="3.69153">
        <ele>166.651</ele>
        <time>2019-09-19T09:40:01.001Z</time>
      </trkpt>
      <trkpt lat="50.21471" lon="3.69175">
        <ele>166.494</ele>
        <time>2019-09-19T09:40:04.001Z</time>
      </trkpt>
      <trkpt lat="50.2146" lon="3.692">
        <ele>166.526</ele>
        <time>2019-09-19T09:40:07.001Z</time>
      </trkpt>
      <trkpt lat="50.21451" lon="3.69223">
        <ele>166.964</ele>
        <time>2019-09-19T09:40:10.001Z</time>
      </trkpt>
      <trkpt lat="50.21446" lon="3.69246">
        <ele>167.755</ele>
        <time>2019-09-19T09:40:13.001Z</time>
      </trkpt>
      <trkpt lat="50.21441" lon="3.69269">
        <ele>168.523</ele>
        <time>2019-09-19T09:40:16.000Z</time>
      </trkpt>
      <trkpt lat="50.21436" lon="3.69292">
        <ele>168.685</ele>
        <time>2019-09-19T09:40:19.001Z</time>
      </trkpt>
      <trkpt lat="50.21432" lon="3.69319">
        <ele>168.382</ele>
        <time>2019-09-19T09:40:22.001Z</time>
      </trkpt>
      <trkpt lat="50.21428" lon="3.69346">
        <ele>167.995</ele>
        <time>2019-09-19T09:40:25.001Z</time>
      </trkpt>
      <trkpt lat="50.21422" lon="3.69372">
        <ele>167.601</ele>
        <time>2019-09-19T09:40:28.001Z</time>
      </trkpt>
      <trkpt lat="50.21418" lon="3.69398">
        <ele>167.403</ele>
        <time>2019-09-19T09:40:31.001Z</time>
      </trkpt>
      <trkpt lat="50.21413" lon="3.69422">
        <ele>167.31</ele>
        <time>2019-09-19T09:40:34.001Z</time>
      </trkpt>
      <trkpt lat="50.21408" lon="3.69446">
        <ele>166.999</ele>
        <time>2019-09-19T09:40:37.001Z</time>
      </trkpt>
      <trkpt lat="50.21405" lon="3.6947">
        <ele>166.295</ele>
        <time>2019-09-19T09:40:40.001Z</time>
      </trkpt>
      <trkpt lat="50.21401" lon="3.69493">
        <ele>166.017</ele>
        <time>2019-09-19T09:40:43.001Z</time>
      </trkpt>
      <trkpt lat="50.21396" lon="3.69515">
        <ele>166.285</ele>
        <time>2019-09-19T09:40:46.001Z</time>
      </trkpt>
      <trkpt lat="50.21392" lon="3.69535">
        <ele>166.869</ele>
        <time>2019-09-19T09:40:49.001Z</time>
      </trkpt>
      <trkpt lat="50.2139" lon="3.69553">
        <ele>167.565</ele>
        <time>2019-09-19T09:40:52.001Z</time>
      </trkpt>
      <trkpt lat="50.21386" lon="3.69571">
        <ele>168.632</ele>
        <time>2019-09-19T09:40:55.001Z</time>
      </trkpt>
      <trkpt lat="50.21381" lon="3.69588">
        <ele>169.809</ele>
        <time>2019-09-19T09:40:58.001Z</time>
      </trkpt>
      <trkpt lat="50.21378" lon="3.69606">
        <ele>170.387</ele>
        <time>2019-09-19T09:41:01.001Z</time>
      </trkpt>
      <trkpt lat="50.21377" lon="3.69624">
        <ele>170.332</ele>
        <time>2019-09-19T09:41:04.001Z</time>
      </trkpt>
      <trkpt lat="50.21375" lon="3.69646">
        <ele>169.812</ele>
        <time>2019-09-19T09:41:07.001Z</time>
      </trkpt>
      <trkpt lat="50.21373" lon="3.6967">
        <ele>169.94</ele>
        <time>2019-09-19T09:41:10.001Z</time>
      </trkpt>
      <trkpt lat="50.21368" lon="3.69695">
        <ele>169.576</ele>
        <time>2019-09-19T09:41:13.001Z</time>
      </trkpt>
      <trkpt lat="50.21364" lon="3.69718">
        <ele>169.011</ele>
        <time>2019-09-19T09:41:16.000Z</time>
      </trkpt>
      <trkpt lat="50.21357" lon="3.69743">
        <ele>168.855</ele>
        <time>2019-09-19T09:41:19.001Z</time>
      </trkpt>
      <trkpt lat="50.21348" lon="3.69766">
        <ele>168.093</ele>
        <time>2019-09-19T09:41:22.001Z</time>
      </trkpt>
      <trkpt lat="50.21337" lon="3.69788">
        <ele>167.643</ele>
        <time>2019-09-19T09:41:25.001Z</time>
      </trkpt>
      <trkpt lat="50.21327" lon="3.69809">
        <ele>167.478</ele>
        <time>2019-09-19T09:41:28.001Z</time>
      </trkpt>
      <trkpt lat="50.21311" lon="3.69829">
        <ele>166.13</ele>
        <time>2019-09-19T09:41:31.001Z</time>
      </trkpt>
      <trkpt lat="50.21296" lon="3.69841">
        <ele>164.786</ele>
        <time>2019-09-19T09:41:34.001Z</time>
      </trkpt>
      <trkpt lat="50.21281" lon="3.69849">
        <ele>163.334</ele>
        <time>2019-09-19T09:41:37.001Z</time>
      </trkpt>
      <trkpt lat="50.21267" lon="3.69857">
        <ele>161.735</ele>
        <time>2019-09-19T09:41:40.001Z</time>
      </trkpt>
      <trkpt lat="50.21251" lon="3.69863">
        <ele>160.073</ele>
        <time>2019-09-19T09:41:43.001Z</time>
      </trkpt>
      <trkpt lat="50.21237" lon="3.69871">
        <ele>158.453</ele>
        <time>2019-09-19T09:41:46.001Z</time>
      </trkpt>
      <trkpt lat="50.21225" lon="3.6988">
        <ele>158.254</ele>
        <time>2019-09-19T09:41:49.001Z</time>
      </trkpt>
      <trkpt lat="50.21213" lon="3.69887">
        <ele>158.412</ele>
        <time>2019-09-19T09:41:52.001Z</time>
      </trkpt>
      <trkpt lat="50.21202" lon="3.69895">
        <ele>159.277</ele>
        <time>2019-09-19T09:41:55.001Z</time>
      </trkpt>
      <trkpt lat="50.21192" lon="3.69899">
        <ele>158.837</ele>
        <time>2019-09-19T09:41:58.001Z</time>
      </trkpt>
      <trkpt lat="50.21181" lon="3.69904">
        <ele>158.392</ele>
        <time>2019-09-19T09:42:01.001Z</time>
      </trkpt>
      <trkpt lat="50.2117" lon="3.6991">
        <ele>156.968</ele>
        <time>2019-09-19T09:42:04.001Z</time>
      </trkpt>
      <trkpt lat="50.21158" lon="3.69915">
        <ele>155.583</ele>
        <time>2019-09-19T09:42:07.001Z</time>
      </trkpt>
      <trkpt lat="50.21147" lon="3.69921">
        <ele>154.253</ele>
        <time>2019-09-19T09:42:10.001Z</time>
      </trkpt>
      <trkpt lat="50.21136" lon="3.69927">
        <ele>154.009</ele>
        <time>2019-09-19T09:42:13.001Z</time>
      </trkpt>
      <trkpt lat="50.21125" lon="3.69932">
        <ele>153.91</ele>
        <time>2019-09-19T09:42:16.000Z</time>
      </trkpt>
      <trkpt lat="50.21115" lon="3.69936">
        <ele>154.19</ele>
        <time>2019-09-19T09:42:19.001Z</time>
      </trkpt>
      <trkpt lat="50.21105" lon="3.6994">
        <ele>154.68</ele>
        <time>2019-09-19T09:42:22.001Z</time>
      </trkpt>
      <trkpt lat="50.21095" lon="3.69944">
        <ele>154.913</ele>
        <time>2019-09-19T09:42:25.001Z</time>
      </trkpt>
      <trkpt lat="50.21084" lon="3.69946">
        <ele>155.415</ele>
        <time>2019-09-19T09:42:28.001Z</time>
      </trkpt>
      <trkpt lat="50.21075" lon="3.6995">
        <ele>156.931</ele>
        <time>2019-09-19T09:42:31.001Z</time>
      </trkpt>
      <trkpt lat="50.21065" lon="3.69954">
        <ele>157.801</ele>
        <time>2019-09-19T09:42:34.001Z</time>
      </trkpt>
      <trkpt lat="50.21055" lon="3.69956">
        <ele>158.445</ele>
        <time>2019-09-19T09:42:37.001Z</time>
      </trkpt>
      <trkpt lat="50.21044" lon="3.69956">
        <ele>158.98</ele>
        <time>2019-09-19T09:42:40.001Z</time>
      </trkpt>
      <trkpt lat="50.21034" lon="3.69957">
        <ele>159.491</ele>
        <time>2019-09-19T09:42:43.001Z</time>
      </trkpt>
      <trkpt lat="50.21022" lon="3.69958">
        <ele>159.692</ele>
        <time>2019-09-19T09:42:46.001Z</time>
      </trkpt>
      <trkpt lat="50.21011" lon="3.69961">
        <ele>160.1</ele>
        <time>2019-09-19T09:42:49.001Z</time>
      </trkpt>
      <trkpt lat="50.20999" lon="3.69963">
        <ele>160.473</ele>
        <time>2019-09-19T09:42:52.001Z</time>
      </trkpt>
      <trkpt lat="50.20988" lon="3.69968">
        <ele>160.59</ele>
        <time>2019-09-19T09:42:55.001Z</time>
      </trkpt>
      <trkpt lat="50.20976" lon="3.6997">
        <ele>160.65</ele>
        <time>2019-09-19T09:42:58.001Z</time>
      </trkpt>
      <trkpt lat="50.20963" lon="3.69973">
        <ele>160.604</ele>
        <time>2019-09-19T09:43:01.001Z</time>
      </trkpt>
      <trkpt lat="50.20949" lon="3.69976">
        <ele>160.064</ele>
        <time>2019-09-19T09:43:04.001Z</time>
      </trkpt>
      <trkpt lat="50.20934" lon="3.69979">
        <ele>159.897</ele>
        <time>2019-09-19T09:43:07.001Z</time>
      </trkpt>
      <trkpt lat="50.20917" lon="3.69984">
        <ele>160.067</ele>
        <time>2019-09-19T09:43:10.001Z</time>
      </trkpt>
      <trkpt lat="50.20899" lon="3.69987">
        <ele>160.018</ele>
        <time>2019-09-19T09:43:13.001Z</time>
      </trkpt>
      <trkpt lat="50.20879" lon="3.6999">
        <ele>160.158</ele>
        <time>2019-09-19T09:43:16.000Z</time>
      </trkpt>
      <trkpt lat="50.20857" lon="3.69994">
        <ele>160.278</ele>
        <time>2019-09-19T09:43:19.001Z</time>
      </trkpt>
      <trkpt lat="50.20835" lon="3.69999">
        <ele>159.891</ele>
        <time>2019-09-19T09:43:22.001Z</time>
      </trkpt>
      <trkpt lat="50.2081" lon="3.70003">
        <ele>158.787</ele>
        <time>2019-09-19T09:43:25.001Z</time>
      </trkpt>
      <trkpt lat="50.20786" lon="3.70008">
        <ele>157.914</ele>
        <time>2019-09-19T09:43:28.001Z</time>
      </trkpt>
      <trkpt lat="50.2076" lon="3.70014">
        <ele>156.607</ele>
        <time>2019-09-19T09:43:31.001Z</time>
      </trkpt>
      <trkpt lat="50.20733" lon="3.70018">
        <ele>155.591</ele>
        <time>2019-09-19T09:43:34.001Z</time>
      </trkpt>
      <trkpt lat="50.20708" lon="3.70024">
        <ele>154.94</ele>
        <time>2019-09-19T09:43:37.001Z</time>
      </trkpt>
      <trkpt lat="50.20683" lon="3.70028">
        <ele>154.252</ele>
        <time>2019-09-19T09:43:40.001Z</time>
      </trkpt>
      <trkpt lat="50.20661" lon="3.70033">
        <ele>154.178</ele>
        <time>2019-09-19T09:43:43.001Z</time>
      </trkpt>
      <trkpt lat="50.20644" lon="3.70038">
        <ele>153.153</ele>
        <time>2019-09-19T09:43:46.001Z</time>
      </trkpt>
      <trkpt lat="50.20627" lon="3.70044">
        <ele>150.996</ele>
        <time>2019-09-19T09:43:49.001Z</time>
      </trkpt>
      <trkpt lat="50.2061" lon="3.70056">
        <ele>150.104</ele>
        <time>2019-09-19T09:43:52.001Z</time>
      </trkpt>
      <trkpt lat="50.20596" lon="3.70072">
        <ele>150.469</ele>
        <time>2019-09-19T09:43:55.001Z</time>
      </trkpt>
      <trkpt lat="50.20583" lon="3.70087">
        <ele>150.524</ele>
        <time>2019-09-19T09:43:58.001Z</time>
      </trkpt>
      <trkpt lat="50.20571" lon="3.70102">
        <ele>150.48</ele>
        <time>2019-09-19T09:44:01.001Z</time>
      </trkpt>
      <trkpt lat="50.20559" lon="3.70115">
        <ele>150.292</ele>
        <time>2019-09-19T09:44:04.001Z</time>
      </trkpt>
      <trkpt lat="50.20548" lon="3.70129">
        <ele>150.482</ele>
        <time>2019-09-19T09:44:07.001Z</time>
      </trkpt>
      <trkpt lat="50.20537" lon="3.70143">
        <ele>150.969</ele>
        <time>2019-09-19T09:44:10.001Z</time>
      </trkpt>
      <trkpt lat="50.20527" lon="3.70157">
        <ele>151.6</ele>
        <time>2019-09-19T09:44:13.001Z</time>
      </trkpt>
      <trkpt lat="50.20518" lon="3.7017">
        <ele>151.776</ele>
        <time>2019-09-19T09:44:16.000Z</time>
      </trkpt>
      <trkpt lat="50.20509" lon="3.70182">
        <ele>151.104</ele>
        <time>2019-09-19T09:44:19.001Z</time>
      </trkpt>
      <trkpt lat="50.205" lon="3.70196">
        <ele>150.715</ele>
        <time>2019-09-19T09:44:22.001Z</time>
      </trkpt>
      <trkpt lat="50.20492" lon="3.70208">
        <ele>150.799</ele>
        <time>2019-09-19T09:44:25.001Z</time>
      </trkpt>
      <trkpt lat="50.20483" lon="3.70221">
        <ele>151.115</ele>
        <time>2019-09-19T09:44:28.001Z</time>
      </trkpt>
      <trkpt lat="50.20475" lon="3.70234">
        <ele>151.274</ele>
        <time>2019-09-19T09:44:31.001Z</time>
      </trkpt>
      <trkpt lat="50.20466" lon="3.70247">
        <ele>152.48</ele>
        <time>2019-09-19T09:44:34.001Z</time>
      </trkpt>
      <trkpt lat="50.20457" lon="3.7026">
        <ele>153.188</ele>
        <time>2019-09-19T09:44:37.001Z</time>
      </trkpt>
      <trkpt lat="50.2045" lon="3.70273">
        <ele>154.554</ele>
        <time>2019-09-19T09:44:40.001Z</time>
      </trkpt>
      <trkpt lat="50.20443" lon="3.70285">
        <ele>155.845</ele>
        <time>2019-09-19T09:44:43.001Z</time>
      </trkpt>
      <trkpt lat="50.20434" lon="3.70296">
        <ele>156.401</ele>
        <time>2019-09-19T09:44:46.001Z</time>
      </trkpt>
      <trkpt lat="50.20424" lon="3.70309">
        <ele>156.504</ele>
        <time>2019-09-19T09:44:49.001Z</time>
      </trkpt>
      <trkpt lat="50.20414" lon="3.70321">
        <ele>155.877</ele>
        <time>2019-09-19T09:44:52.001Z</time>
      </trkpt>
      <trkpt lat="50.20405" lon="3.70333">
        <ele>156.294</ele>
        <time>2019-09-19T09:44:55.001Z</time>
      </trkpt>
      <trkpt lat="50.20395" lon="3.70345">
        <ele>156.159</ele>
        <time>2019-09-19T09:44:58.001Z</time>
      </trkpt>
      <trkpt lat="50.20385" lon="3.70357">
        <ele>156.133</ele>
        <time>2019-09-19T09:45:01.001Z</time>
      </trkpt>
      <trkpt lat="50.20375" lon="3.70369">
        <ele>155.969</ele>
        <time>2019-09-19T09:45:04.001Z</time>
      </trkpt>
      <trkpt lat="50.20366" lon="3.70381">
        <ele>155.745</ele>
        <time>2019-09-19T09:45:07.001Z</time>
      </trkpt>
      <trkpt lat="50.20355" lon="3.70393">
        <ele>155.155</ele>
        <time>2019-09-19T09:45:10.001Z</time>
      </trkpt>
      <trkpt lat="50.20345" lon="3.70406">
        <ele>154.741</ele>
        <time>2019-09-19T09:45:13.001Z</time>
      </trkpt>
      <trkpt lat="50.20335" lon="3.70419">
        <ele>155.192</ele>
        <time>2019-09-19T09:45:16.000Z</time>
      </trkpt>
      <trkpt lat="50.20325" lon="3.70433">
        <ele>156.057</ele>
        <time>2019-09-19T09:45:19.001Z</time>
      </trkpt>
      <trkpt lat="50.20314" lon="3.70446">
        <ele>156.027</ele>
        <time>2019-09-19T09:45:22.001Z</time>
      </trkpt>
      <trkpt lat="50.20302" lon="3.70462">
        <ele>156.233</ele>
        <time>2019-09-19T09:45:25.001Z</time>
      </trkpt>
      <trkpt lat="50.20289" lon="3.70481">
        <ele>155.834</ele>
        <time>2019-09-19T09:45:28.001Z</time>
      </trkpt>
      <trkpt lat="50.20276" lon="3.70501">
        <ele>156.666</ele>
        <time>2019-09-19T09:45:31.001Z</time>
      </trkpt>
      <trkpt lat="50.20266" lon="3.7052">
        <ele>157.056</ele>
        <time>2019-09-19T09:45:34.001Z</time>
      </trkpt>
      <trkpt lat="50.20255" lon="3.70539">
        <ele>157.489</ele>
        <time>2019-09-19T09:45:37.001Z</time>
      </trkpt>
      <trkpt lat="50.20244" lon="3.70558">
        <ele>156.682</ele>
        <time>2019-09-19T09:45:40.001Z</time>
      </trkpt>
      <trkpt lat="50.20236" lon="3.70575">
        <ele>156.602</ele>
        <time>2019-09-19T09:45:43.001Z</time>
      </trkpt>
      <trkpt lat="50.20228" lon="3.70591">
        <ele>156.102</ele>
        <time>2019-09-19T09:45:46.001Z</time>
      </trkpt>
      <trkpt lat="50.20221" lon="3.70606">
        <ele>155.838</ele>
        <time>2019-09-19T09:45:49.001Z</time>
      </trkpt>
      <trkpt lat="50.20213" lon="3.7062">
        <ele>155.669</ele>
        <time>2019-09-19T09:45:52.001Z</time>
      </trkpt>
      <trkpt lat="50.20207" lon="3.70633">
        <ele>156.252</ele>
        <time>2019-09-19T09:45:55.001Z</time>
      </trkpt>
      <trkpt lat="50.20201" lon="3.70645">
        <ele>156.786</ele>
        <time>2019-09-19T09:45:58.001Z</time>
      </trkpt>
      <trkpt lat="50.20194" lon="3.70658">
        <ele>157.185</ele>
        <time>2019-09-19T09:46:01.001Z</time>
      </trkpt>
      <trkpt lat="50.20189" lon="3.7067">
        <ele>157.212</ele>
        <time>2019-09-19T09:46:04.001Z</time>
      </trkpt>
      <trkpt lat="50.20183" lon="3.70682">
        <ele>157.229</ele>
        <time>2019-09-19T09:46:07.001Z</time>
      </trkpt>
      <trkpt lat="50.20178" lon="3.70693">
        <ele>156.861</ele>
        <time>2019-09-19T09:46:10.001Z</time>
      </trkpt>
      <trkpt lat="50.20173" lon="3.70704">
        <ele>156.921</ele>
        <time>2019-09-19T09:46:13.001Z</time>
      </trkpt>
      <trkpt lat="50.20167" lon="3.70714">
        <ele>156.731</ele>
        <time>2019-09-19T09:46:16.000Z</time>
      </trkpt>
      <trkpt lat="50.20161" lon="3.70725">
        <ele>156.907</ele>
        <time>2019-09-19T09:46:19.001Z</time>
      </trkpt>
      <trkpt lat="50.20156" lon="3.70735">
        <ele>156.926</ele>
        <time>2019-09-19T09:46:22.001Z</time>
      </trkpt>
      <trkpt lat="50.20151" lon="3.70747">
        <ele>156.893</ele>
        <time>2019-09-19T09:46:25.001Z</time>
      </trkpt>
      <trkpt lat="50.20146" lon="3.70757">
        <ele>157.251</ele>
        <time>2019-09-19T09:46:28.001Z</time>
      </trkpt>
      <trkpt lat="50.20141" lon="3.70769">
        <ele>157.501</ele>
        <time>2019-09-19T09:46:31.001Z</time>
      </trkpt>
      <trkpt lat="50.20136" lon="3.70781">
        <ele>157.239</ele>
        <time>2019-09-19T09:46:34.001Z</time>
      </trkpt>
      <trkpt lat="50.2013" lon="3.70795">
        <ele>157.843</ele>
        <time>2019-09-19T09:46:37.001Z</time>
      </trkpt>
      <trkpt lat="50.20125" lon="3.70808">
        <ele>157.381</ele>
        <time>2019-09-19T09:46:40.001Z</time>
      </trkpt>
      <trkpt lat="50.20122" lon="3.70822">
        <ele>157.144</ele>
        <time>2019-09-19T09:46:43.001Z</time>
      </trkpt>
      <trkpt lat="50.20118" lon="3.70836">
        <ele>157.039</ele>
        <time>2019-09-19T09:46:46.001Z</time>
      </trkpt>
      <trkpt lat="50.20115" lon="3.70851">
        <ele>157.318</ele>
        <time>2019-09-19T09:46:49.001Z</time>
      </trkpt>
      <trkpt lat="50.20112" lon="3.70866">
        <ele>157.732</ele>
        <time>2019-09-19T09:46:52.001Z</time>
      </trkpt>
      <trkpt lat="50.20108" lon="3.7088">
        <ele>158.151</ele>
        <time>2019-09-19T09:46:55.001Z</time>
      </trkpt>
      <trkpt lat="50.20104" lon="3.70894">
        <ele>158.271</ele>
        <time>2019-09-19T09:46:58.001Z</time>
      </trkpt>
      <trkpt lat="50.201" lon="3.70911">
        <ele>158.235</ele>
        <time>2019-09-19T09:47:01.001Z</time>
      </trkpt>
      <trkpt lat="50.20095" lon="3.70931">
        <ele>158.184</ele>
        <time>2019-09-19T09:47:04.001Z</time>
      </trkpt>
      <trkpt lat="50.20089" lon="3.70953">
        <ele>157.488</ele>
        <time>2019-09-19T09:47:07.001Z</time>
      </trkpt>
      <trkpt lat="50.20083" lon="3.70978">
        <ele>157.227</ele>
        <time>2019-09-19T09:47:10.001Z</time>
      </trkpt>
      <trkpt lat="50.20076" lon="3.71004">
        <ele>156.571</ele>
        <time>2019-09-19T09:47:13.001Z</time>
      </trkpt>
      <trkpt lat="50.2007" lon="3.71032">
        <ele>155.135</ele>
        <time>2019-09-19T09:47:16.000Z</time>
      </trkpt>
      <trkpt lat="50.20063" lon="3.7106">
        <ele>154.066</ele>
        <time>2019-09-19T09:47:19.001Z</time>
      </trkpt>
      <trkpt lat="50.20055" lon="3.71088">
        <ele>153.342</ele>
        <time>2019-09-19T09:47:22.001Z</time>
      </trkpt>
      <trkpt lat="50.20048" lon="3.71117">
        <ele>152.952</ele>
        <time>2019-09-19T09:47:25.001Z</time>
      </trkpt>
      <trkpt lat="50.20042" lon="3.71145">
        <ele>152.602</ele>
        <time>2019-09-19T09:47:28.001Z</time>
      </trkpt>
      <trkpt lat="50.20035" lon="3.71171">
        <ele>152.308</ele>
        <time>2019-09-19T09:47:31.001Z</time>
      </trkpt>
      <trkpt lat="50.20028" lon="3.71198">
        <ele>152.394</ele>
        <time>2019-09-19T09:47:34.001Z</time>
      </trkpt>
      <trkpt lat="50.20021" lon="3.71222">
        <ele>152.636</ele>
        <time>2019-09-19T09:47:37.001Z</time>
      </trkpt>
      <trkpt lat="50.20016" lon="3.71245">
        <ele>152.657</ele>
        <time>2019-09-19T09:47:40.001Z</time>
      </trkpt>
      <trkpt lat="50.20011" lon="3.71264">
        <ele>152.809</ele>
        <time>2019-09-19T09:47:43.001Z</time>
      </trkpt>
      <trkpt lat="50.20007" lon="3.71282">
        <ele>152.86</ele>
        <time>2019-09-19T09:47:46.001Z</time>
      </trkpt>
      <trkpt lat="50.20002" lon="3.71299">
        <ele>153.311</ele>
        <time>2019-09-19T09:47:49.001Z</time>
      </trkpt>
      <trkpt lat="50.19997" lon="3.71315">
        <ele>153.96</ele>
        <time>2019-09-19T09:47:52.001Z</time>
      </trkpt>
      <trkpt lat="50.19991" lon="3.7133">
        <ele>154.574</ele>
        <time>2019-09-19T09:47:55.001Z</time>
      </trkpt>
      <trkpt lat="50.19986" lon="3.71345">
        <ele>154.885</ele>
        <time>2019-09-19T09:47:58.001Z</time>
      </trkpt>
      <trkpt lat="50.19979" lon="3.71361">
        <ele>155.249</ele>
        <time>2019-09-19T09:48:01.001Z</time>
      </trkpt>
      <trkpt lat="50.19972" lon="3.71378">
        <ele>155.481</ele>
        <time>2019-09-19T09:48:04.001Z</time>
      </trkpt>
      <trkpt lat="50.19964" lon="3.71396">
        <ele>155.154</ele>
        <time>2019-09-19T09:48:07.001Z</time>
      </trkpt>
      <trkpt lat="50.19956" lon="3.71416">
        <ele>154.305</ele>
        <time>2019-09-19T09:48:10.001Z</time>
      </trkpt>
      <trkpt lat="50.19946" lon="3.71437">
        <ele>153.486</ele>
        <time>2019-09-19T09:48:13.001Z</time>
      </trkpt>
      <trkpt lat="50.19936" lon="3.7146">
        <ele>153.026</ele>
        <time>2019-09-19T09:48:16.000Z</time>
      </trkpt>
      <trkpt lat="50.19925" lon="3.71485">
        <ele>152.439</ele>
        <time>2019-09-19T09:48:19.001Z</time>
      </trkpt>
      <trkpt lat="50.19914" lon="3.71511">
        <ele>152.099</ele>
        <time>2019-09-19T09:48:22.001Z</time>
      </trkpt>
      <trkpt lat="50.19904" lon="3.71534">
        <ele>152.031</ele>
        <time>2019-09-19T09:48:25.001Z</time>
      </trkpt>
      <trkpt lat="50.19895" lon="3.71554">
        <ele>152.166</ele>
        <time>2019-09-19T09:48:28.001Z</time>
      </trkpt>
      <trkpt lat="50.19888" lon="3.71573">
        <ele>152.616</ele>
        <time>2019-09-19T09:48:31.001Z</time>
      </trkpt>
      <trkpt lat="50.19881" lon="3.7159">
        <ele>153.136</ele>
        <time>2019-09-19T09:48:34.001Z</time>
      </trkpt>
      <trkpt lat="50.19874" lon="3.71606">
        <ele>153.284</ele>
        <time>2019-09-19T09:48:37.001Z</time>
      </trkpt>
      <trkpt lat="50.19869" lon="3.71624">
        <ele>153.494</ele>
        <time>2019-09-19T09:48:40.001Z</time>
      </trkpt>
      <trkpt lat="50.19867" lon="3.71641">
        <ele>153.768</ele>
        <time>2019-09-19T09:48:43.001Z</time>
      </trkpt>
      <trkpt lat="50.19866" lon="3.71659">
        <ele>153.896</ele>
        <time>2019-09-19T09:48:46.001Z</time>
      </trkpt>
      <trkpt lat="50.19865" lon="3.71676">
        <ele>154.52</ele>
        <time>2019-09-19T09:48:49.001Z</time>
      </trkpt>
      <trkpt lat="50.19864" lon="3.71692">
        <ele>155.02</ele>
        <time>2019-09-19T09:48:52.001Z</time>
      </trkpt>
      <trkpt lat="50.19863" lon="3.71708">
        <ele>155.348</ele>
        <time>2019-09-19T09:48:55.001Z</time>
      </trkpt>
      <trkpt lat="50.19862" lon="3.71724">
        <ele>155.529</ele>
        <time>2019-09-19T09:48:58.001Z</time>
      </trkpt>
      <trkpt lat="50.19862" lon="3.7174">
        <ele>155.806</ele>
        <time>2019-09-19T09:49:01.001Z</time>
      </trkpt>
      <trkpt lat="50.19859" lon="3.71757">
        <ele>158.662</ele>
        <time>2019-09-19T09:49:04.001Z</time>
      </trkpt>
      <trkpt lat="50.19851" lon="3.71766">
        <ele>159.816</ele>
        <time>2019-09-19T09:49:07.001Z</time>
      </trkpt>
      <trkpt lat="50.1984" lon="3.71768">
        <ele>160.975</ele>
        <time>2019-09-19T09:49:10.001Z</time>
      </trkpt>
      <trkpt lat="50.19829" lon="3.7177">
        <ele>161.862</ele>
        <time>2019-09-19T09:49:13.001Z</time>
      </trkpt>
      <trkpt lat="50.19818" lon="3.71772">
        <ele>161.921</ele>
        <time>2019-09-19T09:49:16.000Z</time>
      </trkpt>
      <trkpt lat="50.19806" lon="3.71774">
        <ele>162.518</ele>
        <time>2019-09-19T09:49:19.001Z</time>
      </trkpt>
      <trkpt lat="50.19794" lon="3.71777">
        <ele>162.431</ele>
        <time>2019-09-19T09:49:22.001Z</time>
      </trkpt>
      <trkpt lat="50.19782" lon="3.71781">
        <ele>162.516</ele>
        <time>2019-09-19T09:49:25.001Z</time>
      </trkpt>
      <trkpt lat="50.1977" lon="3.71785">
        <ele>161.746</ele>
        <time>2019-09-19T09:49:28.001Z</time>
      </trkpt>
      <trkpt lat="50.19757" lon="3.71789">
        <ele>161.606</ele>
        <time>2019-09-19T09:49:31.001Z</time>
      </trkpt>
      <trkpt lat="50.19745" lon="3.71791">
        <ele>161.373</ele>
        <time>2019-09-19T09:49:34.001Z</time>
      </trkpt>
      <trkpt lat="50.19733" lon="3.71791">
        <ele>161.144</ele>
        <time>2019-09-19T09:49:37.001Z</time>
      </trkpt>
      <trkpt lat="50.19722" lon="3.7179">
        <ele>161.218</ele>
        <time>2019-09-19T09:49:40.001Z</time>
      </trkpt>
      <trkpt lat="50.1971" lon="3.71789">
        <ele>161.368</ele>
        <time>2019-09-19T09:49:43.001Z</time>
      </trkpt>
      <trkpt lat="50.19699" lon="3.71788">
        <ele>161.405</ele>
        <time>2019-09-19T09:49:46.001Z</time>
      </trkpt>
      <trkpt lat="50.19689" lon="3.71786">
        <ele>161.504</ele>
        <time>2019-09-19T09:49:49.001Z</time>
      </trkpt>
      <trkpt lat="50.19678" lon="3.71784">
        <ele>160.947</ele>
        <time>2019-09-19T09:49:52.001Z</time>
      </trkpt>
      <trkpt lat="50.19668" lon="3.71782">
        <ele>160.709</ele>
        <time>2019-09-19T09:49:55.001Z</time>
      </trkpt>
      <trkpt lat="50.19657" lon="3.71781">
        <ele>160.755</ele>
        <time>2019-09-19T09:49:58.001Z</time>
      </trkpt>
      <trkpt lat="50.19645" lon="3.7178">
        <ele>161.064</ele>
        <time>2019-09-19T09:50:01.001Z</time>
      </trkpt>
      <trkpt lat="50.19633" lon="3.71779">
        <ele>161.084</ele>
        <time>2019-09-19T09:50:04.001Z</time>
      </trkpt>
      <trkpt lat="50.19622" lon="3.71777">
        <ele>160.681</ele>
        <time>2019-09-19T09:50:07.001Z</time>
      </trkpt>
      <trkpt lat="50.19611" lon="3.71775">
        <ele>160.664</ele>
        <time>2019-09-19T09:50:10.001Z</time>
      </trkpt>
      <trkpt lat="50.19599" lon="3.71773">
        <ele>161.029</ele>
        <time>2019-09-19T09:50:13.001Z</time>
      </trkpt>
      <trkpt lat="50.19588" lon="3.71771">
        <ele>161.469</ele>
        <time>2019-09-19T09:50:16.000Z</time>
      </trkpt>
      <trkpt lat="50.19577" lon="3.71769">
        <ele>161.519</ele>
        <time>2019-09-19T09:50:19.001Z</time>
      </trkpt>
      <trkpt lat="50.19566" lon="3.71768">
        <ele>160.982</ele>
        <time>2019-09-19T09:50:22.001Z</time>
      </trkpt>
      <trkpt lat="50.19554" lon="3.71766">
        <ele>160.789</ele>
        <time>2019-09-19T09:50:25.001Z</time>
      </trkpt>
      <trkpt lat="50.19543" lon="3.71765">
        <ele>160.666</ele>
        <time>2019-09-19T09:50:28.001Z</time>
      </trkpt>
      <trkpt lat="50.19531" lon="3.71763">
        <ele>160.507</ele>
        <time>2019-09-19T09:50:31.001Z</time>
      </trkpt>
      <trkpt lat="50.19519" lon="3.7176">
        <ele>160.477</ele>
        <time>2019-09-19T09:50:34.001Z</time>
      </trkpt>
      <trkpt lat="50.19507" lon="3.71759">
        <ele>160.096</ele>
        <time>2019-09-19T09:50:37.001Z</time>
      </trkpt>
      <trkpt lat="50.19495" lon="3.71759">
        <ele>159.959</ele>
        <time>2019-09-19T09:50:40.001Z</time>
      </trkpt>
      <trkpt lat="50.19483" lon="3.71759">
        <ele>160.575</ele>
        <time>2019-09-19T09:50:43.001Z</time>
      </trkpt>
      <trkpt lat="50.1947" lon="3.7176">
        <ele>161.309</ele>
        <time>2019-09-19T09:50:46.001Z</time>
      </trkpt>
      <trkpt lat="50.19459" lon="3.71763">
        <ele>161.377</ele>
        <time>2019-09-19T09:50:49.001Z</time>
      </trkpt>
      <trkpt lat="50.19447" lon="3.71768">
        <ele>161.407</ele>
        <time>2019-09-19T09:50:52.001Z</time>
      </trkpt>
      <trkpt lat="50.19435" lon="3.71774">
        <ele>162.355</ele>
        <time>2019-09-19T09:50:55.001Z</time>
      </trkpt>
      <trkpt lat="50.19424" lon="3.7178">
        <ele>162.911</ele>
        <time>2019-09-19T09:50:58.001Z</time>
      </trkpt>
      <trkpt lat="50.19412" lon="3.71786">
        <ele>163.675</ele>
        <time>2019-09-19T09:51:01.001Z</time>
      </trkpt>
      <trkpt lat="50.194" lon="3.71792">
        <ele>164.556</ele>
        <time>2019-09-19T09:51:04.001Z</time>
      </trkpt>
      <trkpt lat="50.19388" lon="3.71796">
        <ele>164.981</ele>
        <time>2019-09-19T09:51:07.001Z</time>
      </trkpt>
      <trkpt lat="50.19376" lon="3.71801">
        <ele>165.742</ele>
        <time>2019-09-19T09:51:10.001Z</time>
      </trkpt>
      <trkpt lat="50.19364" lon="3.71806">
        <ele>166.678</ele>
        <time>2019-09-19T09:51:13.001Z</time>
      </trkpt>
      <trkpt lat="50.19351" lon="3.71811">
        <ele>166.683</ele>
        <time>2019-09-19T09:51:16.000Z</time>
      </trkpt>
      <trkpt lat="50.19337" lon="3.71816">
        <ele>166.953</ele>
        <time>2019-09-19T09:51:19.001Z</time>
      </trkpt>
      <trkpt lat="50.19325" lon="3.71821">
        <ele>167.48</ele>
        <time>2019-09-19T09:51:22.001Z</time>
      </trkpt>
      <trkpt lat="50.19311" lon="3.71825">
        <ele>168.897</ele>
        <time>2019-09-19T09:51:25.001Z</time>
      </trkpt>
      <trkpt lat="50.19299" lon="3.7183">
        <ele>170.779</ele>
        <time>2019-09-19T09:51:28.001Z</time>
      </trkpt>
      <trkpt lat="50.19288" lon="3.71836">
        <ele>172.855</ele>
        <time>2019-09-19T09:51:31.001Z</time>
      </trkpt>
      <trkpt lat="50.19275" lon="3.71842">
        <ele>174.497</ele>
        <time>2019-09-19T09:51:34.001Z</time>
      </trkpt>
      <trkpt lat="50.19262" lon="3.7185">
        <ele>175.713</ele>
        <time>2019-09-19T09:51:37.001Z</time>
      </trkpt>
      <trkpt lat="50.19249" lon="3.71856">
        <ele>176.576</ele>
        <time>2019-09-19T09:51:40.001Z</time>
      </trkpt>
      <trkpt lat="50.19234" lon="3.71863">
        <ele>177.382</ele>
        <time>2019-09-19T09:51:43.001Z</time>
      </trkpt>
      <trkpt lat="50.19219" lon="3.71869">
        <ele>178.139</ele>
        <time>2019-09-19T09:51:46.001Z</time>
      </trkpt>
      <trkpt lat="50.19204" lon="3.71875">
        <ele>178.59</ele>
        <time>2019-09-19T09:51:49.001Z</time>
      </trkpt>
      <trkpt lat="50.19189" lon="3.71881">
        <ele>178.903</ele>
        <time>2019-09-19T09:51:52.001Z</time>
      </trkpt>
      <trkpt lat="50.19174" lon="3.71887">
        <ele>178.774</ele>
        <time>2019-09-19T09:51:55.001Z</time>
      </trkpt>
      <trkpt lat="50.19161" lon="3.71893">
        <ele>179.019</ele>
        <time>2019-09-19T09:51:58.001Z</time>
      </trkpt>
      <trkpt lat="50.19147" lon="3.71898">
        <ele>178.908</ele>
        <time>2019-09-19T09:52:01.001Z</time>
      </trkpt>
      <trkpt lat="50.19135" lon="3.71903">
        <ele>178.416</ele>
        <time>2019-09-19T09:52:04.001Z</time>
      </trkpt>
      <trkpt lat="50.19123" lon="3.71908">
        <ele>177.899</ele>
        <time>2019-09-19T09:52:07.001Z</time>
      </trkpt>
      <trkpt lat="50.19113" lon="3.71911">
        <ele>177.868</ele>
        <time>2019-09-19T09:52:10.001Z</time>
      </trkpt>
      <trkpt lat="50.19103" lon="3.71915">
        <ele>178.314</ele>
        <time>2019-09-19T09:52:13.001Z</time>
      </trkpt>
      <trkpt lat="50.19095" lon="3.71919">
        <ele>178.474</ele>
        <time>2019-09-19T09:52:16.000Z</time>
      </trkpt>
      <trkpt lat="50.19085" lon="3.71922">
        <ele>178.683</ele>
        <time>2019-09-19T09:52:19.001Z</time>
      </trkpt>
      <trkpt lat="50.19075" lon="3.71926">
        <ele>179.009</ele>
        <time>2019-09-19T09:52:22.001Z</time>
      </trkpt>
      <trkpt lat="50.19066" lon="3.71928">
        <ele>179.298</ele>
        <time>2019-09-19T09:52:25.001Z</time>
      </trkpt>
      <trkpt lat="50.19057" lon="3.7193">
        <ele>179.07</ele>
        <time>2019-09-19T09:52:28.001Z</time>
      </trkpt>
      <trkpt lat="50.19046" lon="3.71933">
        <ele>178.398</ele>
        <time>2019-09-19T09:52:31.001Z</time>
      </trkpt>
      <trkpt lat="50.19036" lon="3.7194">
        <ele>179.285</ele>
        <time>2019-09-19T09:52:34.001Z</time>
      </trkpt>
      <trkpt lat="50.19027" lon="3.71945">
        <ele>179.926</ele>
        <time>2019-09-19T09:52:37.001Z</time>
      </trkpt>
      <trkpt lat="50.19018" lon="3.7195">
        <ele>180.515</ele>
        <time>2019-09-19T09:52:40.001Z</time>
      </trkpt>
      <trkpt lat="50.19007" lon="3.71954">
        <ele>180.906</ele>
        <time>2019-09-19T09:52:43.001Z</time>
      </trkpt>
      <trkpt lat="50.18996" lon="3.71959">
        <ele>182.229</ele>
        <time>2019-09-19T09:52:46.001Z</time>
      </trkpt>
      <trkpt lat="50.18987" lon="3.71965">
        <ele>183.487</ele>
        <time>2019-09-19T09:52:49.001Z</time>
      </trkpt>
      <trkpt lat="50.18976" lon="3.71971">
        <ele>184.569</ele>
        <time>2019-09-19T09:52:52.001Z</time>
      </trkpt>
      <trkpt lat="50.18966" lon="3.71974">
        <ele>184.046</ele>
        <time>2019-09-19T09:52:55.001Z</time>
      </trkpt>
      <trkpt lat="50.18958" lon="3.71971">
        <ele>183.166</ele>
        <time>2019-09-19T09:52:58.001Z</time>
      </trkpt>
      <trkpt lat="50.18951" lon="3.71969">
        <ele>182.132</ele>
        <time>2019-09-19T09:53:01.001Z</time>
      </trkpt>
      <trkpt lat="50.18945" lon="3.71968">
        <ele>180.57</ele>
        <time>2019-09-19T09:53:04.001Z</time>
      </trkpt>
      <trkpt lat="50.18942" lon="3.7197">
        <ele>177.301</ele>
        <time>2019-09-19T09:53:10.001Z</time>
      </trkpt>
      <trkpt lat="50.18942" lon="3.71971">
        <ele>176.757</ele>
        <time>2019-09-19T09:53:13.001Z</time>
      </trkpt>
      <trkpt lat="50.18942" lon="3.71971">
        <ele>177.136</ele>
        <time>2019-09-19T09:54:16.000Z</time>
      </trkpt>
      <trkpt lat="50.18942" lon="3.71969">
        <ele>175.968</ele>
        <time>2019-09-19T09:54:19.001Z</time>
      </trkpt>
      <trkpt lat="50.18942" lon="3.71968">
        <ele>175.617</ele>
        <time>2019-09-19T09:54:22.001Z</time>
      </trkpt>
      <trkpt lat="50.18942" lon="3.71968">
        <ele>175.237</ele>
        <time>2019-09-19T09:59:19.001Z</time>
      </trkpt>
      <trkpt lat="50.18942" lon="3.71979">
        <ele>174.742</ele>
        <time>2019-09-19T09:59:22.001Z</time>
      </trkpt>
      <trkpt lat="50.18937" lon="3.71989">
        <ele>174.076</ele>
        <time>2019-09-19T09:59:25.001Z</time>
      </trkpt>
      <trkpt lat="50.18928" lon="3.71997">
        <ele>173.199</ele>
        <time>2019-09-19T09:59:28.001Z</time>
      </trkpt>
      <trkpt lat="50.18916" lon="3.72005">
        <ele>171.942</ele>
        <time>2019-09-19T09:59:31.001Z</time>
      </trkpt>
      <trkpt lat="50.18904" lon="3.72016">
        <ele>171.169</ele>
        <time>2019-09-19T09:59:34.001Z</time>
      </trkpt>
      <trkpt lat="50.1889" lon="3.72032">
        <ele>170.51</ele>
        <time>2019-09-19T09:59:37.001Z</time>
      </trkpt>
      <trkpt lat="50.18874" lon="3.72051">
        <ele>169.455</ele>
        <time>2019-09-19T09:59:40.001Z</time>
      </trkpt>
      <trkpt lat="50.18858" lon="3.72071">
        <ele>168.07</ele>
        <time>2019-09-19T09:59:43.001Z</time>
      </trkpt>
      <trkpt lat="50.18841" lon="3.72091">
        <ele>167.306</ele>
        <time>2019-09-19T09:59:46.001Z</time>
      </trkpt>
      <trkpt lat="50.18823" lon="3.7211">
        <ele>165.755</ele>
        <time>2019-09-19T09:59:49.001Z</time>
      </trkpt>
      <trkpt lat="50.18806" lon="3.72129">
        <ele>163.901</ele>
        <time>2019-09-19T09:59:52.001Z</time>
      </trkpt>
      <trkpt lat="50.18792" lon="3.72146">
        <ele>162.142</ele>
        <time>2019-09-19T09:59:55.001Z</time>
      </trkpt>
      <trkpt lat="50.18777" lon="3.72163">
        <ele>160.634</ele>
        <time>2019-09-19T09:59:58.001Z</time>
      </trkpt>
      <trkpt lat="50.18762" lon="3.7218">
        <ele>159.914</ele>
        <time>2019-09-19T10:00:01.001Z</time>
      </trkpt>
      <trkpt lat="50.18749" lon="3.72195">
        <ele>159.034</ele>
        <time>2019-09-19T10:00:04.001Z</time>
      </trkpt>
      <trkpt lat="50.18737" lon="3.72208">
        <ele>158.581</ele>
        <time>2019-09-19T10:00:07.001Z</time>
      </trkpt>
      <trkpt lat="50.18726" lon="3.72219">
        <ele>158.396</ele>
        <time>2019-09-19T10:00:10.001Z</time>
      </trkpt>
      <trkpt lat="50.18714" lon="3.72229">
        <ele>158.484</ele>
        <time>2019-09-19T10:00:13.001Z</time>
      </trkpt>
      <trkpt lat="50.18703" lon="3.72239">
        <ele>158.144</ele>
        <time>2019-09-19T10:00:16.000Z</time>
      </trkpt>
      <trkpt lat="50.18693" lon="3.72248">
        <ele>158.627</ele>
        <time>2019-09-19T10:00:19.001Z</time>
      </trkpt>
      <trkpt lat="50.18684" lon="3.72257">
        <ele>160.028</ele>
        <time>2019-09-19T10:00:22.001Z</time>
      </trkpt>
      <trkpt lat="50.18677" lon="3.72264">
        <ele>160.219</ele>
        <time>2019-09-19T10:00:25.001Z</time>
      </trkpt>
      <trkpt lat="50.1867" lon="3.72269">
        <ele>161.663</ele>
        <time>2019-09-19T10:00:28.001Z</time>
      </trkpt>
      <trkpt lat="50.18664" lon="3.72276">
        <ele>162.431</ele>
        <time>2019-09-19T10:00:31.001Z</time>
      </trkpt>
      <trkpt lat="50.18656" lon="3.72282">
        <ele>163.215</ele>
        <time>2019-09-19T10:00:34.001Z</time>
      </trkpt>
      <trkpt lat="50.18649" lon="3.72289">
        <ele>164.115</ele>
        <time>2019-09-19T10:00:37.001Z</time>
      </trkpt>
      <trkpt lat="50.18642" lon="3.72296">
        <ele>164.401</ele>
        <time>2019-09-19T10:00:40.001Z</time>
      </trkpt>
      <trkpt lat="50.18634" lon="3.72303">
        <ele>164.733</ele>
        <time>2019-09-19T10:00:43.001Z</time>
      </trkpt>
      <trkpt lat="50.18626" lon="3.7231">
        <ele>164.812</ele>
        <time>2019-09-19T10:00:46.001Z</time>
      </trkpt>
      <trkpt lat="50.18619" lon="3.72317">
        <ele>164.758</ele>
        <time>2019-09-19T10:00:49.001Z</time>
      </trkpt>
      <trkpt lat="50.18611" lon="3.72324">
        <ele>164.829</ele>
        <time>2019-09-19T10:00:52.001Z</time>
      </trkpt>
      <trkpt lat="50.18603" lon="3.72332">
        <ele>164.74</ele>
        <time>2019-09-19T10:00:55.001Z</time>
      </trkpt>
      <trkpt lat="50.18595" lon="3.72342">
        <ele>164.785</ele>
        <time>2019-09-19T10:00:58.001Z</time>
      </trkpt>
      <trkpt lat="50.18587" lon="3.72351">
        <ele>164.949</ele>
        <time>2019-09-19T10:01:01.001Z</time>
      </trkpt>
      <trkpt lat="50.18577" lon="3.72362">
        <ele>165.033</ele>
        <time>2019-09-19T10:01:04.001Z</time>
      </trkpt>
      <trkpt lat="50.18564" lon="3.72374">
        <ele>165.207</ele>
        <time>2019-09-19T10:01:07.001Z</time>
      </trkpt>
      <trkpt lat="50.1855" lon="3.72387">
        <ele>165.211</ele>
        <time>2019-09-19T10:01:10.001Z</time>
      </trkpt>
      <trkpt lat="50.18534" lon="3.72403">
        <ele>164.965</ele>
        <time>2019-09-19T10:01:13.001Z</time>
      </trkpt>
      <trkpt lat="50.18515" lon="3.72422">
        <ele>163.932</ele>
        <time>2019-09-19T10:01:16.000Z</time>
      </trkpt>
      <trkpt lat="50.18496" lon="3.72443">
        <ele>162.986</ele>
        <time>2019-09-19T10:01:19.001Z</time>
      </trkpt>
      <trkpt lat="50.18475" lon="3.72466">
        <ele>161.524</ele>
        <time>2019-09-19T10:01:22.001Z</time>
      </trkpt>
      <trkpt lat="50.18455" lon="3.72489">
        <ele>160.949</ele>
        <time>2019-09-19T10:01:25.001Z</time>
      </trkpt>
      <trkpt lat="50.18435" lon="3.72509">
        <ele>160.26</ele>
        <time>2019-09-19T10:01:28.001Z</time>
      </trkpt>
      <trkpt lat="50.18415" lon="3.72527">
        <ele>159.163</ele>
        <time>2019-09-19T10:01:31.001Z</time>
      </trkpt>
      <trkpt lat="50.18398" lon="3.72545">
        <ele>157.95</ele>
        <time>2019-09-19T10:01:34.001Z</time>
      </trkpt>
      <trkpt lat="50.18381" lon="3.72562">
        <ele>157.468</ele>
        <time>2019-09-19T10:01:37.001Z</time>
      </trkpt>
      <trkpt lat="50.18367" lon="3.72577">
        <ele>157.84</ele>
        <time>2019-09-19T10:01:40.001Z</time>
      </trkpt>
      <trkpt lat="50.18354" lon="3.72591">
        <ele>158.396</ele>
        <time>2019-09-19T10:01:43.001Z</time>
      </trkpt>
      <trkpt lat="50.18344" lon="3.72604">
        <ele>158.795</ele>
        <time>2019-09-19T10:01:46.001Z</time>
      </trkpt>
      <trkpt lat="50.18334" lon="3.72613">
        <ele>159.472</ele>
        <time>2019-09-19T10:01:49.001Z</time>
      </trkpt>
      <trkpt lat="50.18327" lon="3.72622">
        <ele>160.085</ele>
        <time>2019-09-19T10:01:52.001Z</time>
      </trkpt>
      <trkpt lat="50.1832" lon="3.7263">
        <ele>160.4</ele>
        <time>2019-09-19T10:01:55.001Z</time>
      </trkpt>
      <trkpt lat="50.18313" lon="3.72636">
        <ele>160.891</ele>
        <time>2019-09-19T10:01:58.001Z</time>
      </trkpt>
      <trkpt lat="50.18306" lon="3.72641">
        <ele>160.605</ele>
        <time>2019-09-19T10:02:01.001Z</time>
      </trkpt>
      <trkpt lat="50.183" lon="3.72648">
        <ele>160.762</ele>
        <time>2019-09-19T10:02:04.001Z</time>
      </trkpt>
      <trkpt lat="50.18294" lon="3.72654">
        <ele>161.734</ele>
        <time>2019-09-19T10:02:07.001Z</time>
      </trkpt>
      <trkpt lat="50.18288" lon="3.7266">
        <ele>162.447</ele>
        <time>2019-09-19T10:02:10.001Z</time>
      </trkpt>
      <trkpt lat="50.18282" lon="3.72668">
        <ele>162.742</ele>
        <time>2019-09-19T10:02:13.001Z</time>
      </trkpt>
      <trkpt lat="50.18276" lon="3.72674">
        <ele>162.752</ele>
        <time>2019-09-19T10:02:16.000Z</time>
      </trkpt>
      <trkpt lat="50.1827" lon="3.7268">
        <ele>162.579</ele>
        <time>2019-09-19T10:02:19.001Z</time>
      </trkpt>
      <trkpt lat="50.18263" lon="3.72686">
        <ele>163.084</ele>
        <time>2019-09-19T10:02:22.001Z</time>
      </trkpt>
      <trkpt lat="50.18257" lon="3.72694">
        <ele>163.346</ele>
        <time>2019-09-19T10:02:25.001Z</time>
      </trkpt>
      <trkpt lat="50.1825" lon="3.72699">
        <ele>163.749</ele>
        <time>2019-09-19T10:02:28.001Z</time>
      </trkpt>
      <trkpt lat="50.18244" lon="3.72705">
        <ele>163.548</ele>
        <time>2019-09-19T10:02:31.001Z</time>
      </trkpt>
      <trkpt lat="50.18238" lon="3.72712">
        <ele>163.271</ele>
        <time>2019-09-19T10:02:34.001Z</time>
      </trkpt>
      <trkpt lat="50.18232" lon="3.72719">
        <ele>163.837</ele>
        <time>2019-09-19T10:02:37.001Z</time>
      </trkpt>
      <trkpt lat="50.18225" lon="3.72725">
        <ele>164.583</ele>
        <time>2019-09-19T10:02:40.001Z</time>
      </trkpt>
      <trkpt lat="50.18219" lon="3.72732">
        <ele>165.659</ele>
        <time>2019-09-19T10:02:43.001Z</time>
      </trkpt>
      <trkpt lat="50.18212" lon="3.7274">
        <ele>167.137</ele>
        <time>2019-09-19T10:02:46.001Z</time>
      </trkpt>
      <trkpt lat="50.18204" lon="3.72747">
        <ele>168.206</ele>
        <time>2019-09-19T10:02:49.001Z</time>
      </trkpt>
      <trkpt lat="50.18196" lon="3.72755">
        <ele>169.365</ele>
        <time>2019-09-19T10:02:52.001Z</time>
      </trkpt>
      <trkpt lat="50.18188" lon="3.72763">
        <ele>170.396</ele>
        <time>2019-09-19T10:02:55.001Z</time>
      </trkpt>
      <trkpt lat="50.18181" lon="3.72772">
        <ele>170.994</ele>
        <time>2019-09-19T10:02:58.001Z</time>
      </trkpt>
      <trkpt lat="50.18172" lon="3.7278">
        <ele>171.797</ele>
        <time>2019-09-19T10:03:01.001Z</time>
      </trkpt>
      <trkpt lat="50.18163" lon="3.72787">
        <ele>172.25</ele>
        <time>2019-09-19T10:03:04.001Z</time>
      </trkpt>
      <trkpt lat="50.18153" lon="3.72795">
        <ele>172.555</ele>
        <time>2019-09-19T10:03:07.001Z</time>
      </trkpt>
      <trkpt lat="50.18143" lon="3.72805">
        <ele>173.461</ele>
        <time>2019-09-19T10:03:10.001Z</time>
      </trkpt>
      <trkpt lat="50.18133" lon="3.72814">
        <ele>174.075</ele>
        <time>2019-09-19T10:03:13.001Z</time>
      </trkpt>
      <trkpt lat="50.18123" lon="3.72823">
        <ele>174.534</ele>
        <time>2019-09-19T10:03:16.000Z</time>
      </trkpt>
      <trkpt lat="50.18114" lon="3.72834">
        <ele>174.7</ele>
        <time>2019-09-19T10:03:19.001Z</time>
      </trkpt>
      <trkpt lat="50.18104" lon="3.72845">
        <ele>174.325</ele>
        <time>2019-09-19T10:03:22.001Z</time>
      </trkpt>
      <trkpt lat="50.18093" lon="3.72856">
        <ele>174.45</ele>
        <time>2019-09-19T10:03:25.001Z</time>
      </trkpt>
      <trkpt lat="50.1808" lon="3.72869">
        <ele>174.094</ele>
        <time>2019-09-19T10:03:28.001Z</time>
      </trkpt>
      <trkpt lat="50.18066" lon="3.72885">
        <ele>173.234</ele>
        <time>2019-09-19T10:03:31.001Z</time>
      </trkpt>
      <trkpt lat="50.18051" lon="3.72902">
        <ele>172.001</ele>
        <time>2019-09-19T10:03:34.001Z</time>
      </trkpt>
      <trkpt lat="50.18035" lon="3.72919">
        <ele>171.017</ele>
        <time>2019-09-19T10:03:37.001Z</time>
      </trkpt>
      <trkpt lat="50.1802" lon="3.72935">
        <ele>170.922</ele>
        <time>2019-09-19T10:03:40.001Z</time>
      </trkpt>
      <trkpt lat="50.18004" lon="3.72951">
        <ele>170.784</ele>
        <time>2019-09-19T10:03:43.001Z</time>
      </trkpt>
      <trkpt lat="50.17988" lon="3.72967">
        <ele>170.264</ele>
        <time>2019-09-19T10:03:46.001Z</time>
      </trkpt>
      <trkpt lat="50.17971" lon="3.72983">
        <ele>169.226</ele>
        <time>2019-09-19T10:03:49.001Z</time>
      </trkpt>
      <trkpt lat="50.17954" lon="3.73">
        <ele>168.067</ele>
        <time>2019-09-19T10:03:52.001Z</time>
      </trkpt>
      <trkpt lat="50.17937" lon="3.73017">
        <ele>166.635</ele>
        <time>2019-09-19T10:03:55.001Z</time>
      </trkpt>
      <trkpt lat="50.17919" lon="3.73035">
        <ele>165.277</ele>
        <time>2019-09-19T10:03:58.001Z</time>
      </trkpt>
      <trkpt lat="50.179" lon="3.73054">
        <ele>163.289</ele>
        <time>2019-09-19T10:04:01.001Z</time>
      </trkpt>
      <trkpt lat="50.1788" lon="3.73074">
        <ele>162.144</ele>
        <time>2019-09-19T10:04:04.001Z</time>
      </trkpt>
      <trkpt lat="50.1786" lon="3.73094">
        <ele>161.424</ele>
        <time>2019-09-19T10:04:07.001Z</time>
      </trkpt>
      <trkpt lat="50.17838" lon="3.73113">
        <ele>160.957</ele>
        <time>2019-09-19T10:04:10.001Z</time>
      </trkpt>
      <trkpt lat="50.17818" lon="3.73133">
        <ele>160.497</ele>
        <time>2019-09-19T10:04:13.001Z</time>
      </trkpt>
      <trkpt lat="50.17802" lon="3.7315">
        <ele>159.694</ele>
        <time>2019-09-19T10:04:16.000Z</time>
      </trkpt>
      <trkpt lat="50.17789" lon="3.73165">
        <ele>159.751</ele>
        <time>2019-09-19T10:04:19.001Z</time>
      </trkpt>
      <trkpt lat="50.17777" lon="3.7318">
        <ele>160.164</ele>
        <time>2019-09-19T10:04:22.001Z</time>
      </trkpt>
      <trkpt lat="50.17765" lon="3.73194">
        <ele>160.759</ele>
        <time>2019-09-19T10:04:25.001Z</time>
      </trkpt>
      <trkpt lat="50.17755" lon="3.73205">
        <ele>161.188</ele>
        <time>2019-09-19T10:04:28.001Z</time>
      </trkpt>
      <trkpt lat="50.17745" lon="3.73217">
        <ele>161.721</ele>
        <time>2019-09-19T10:04:31.001Z</time>
      </trkpt>
      <trkpt lat="50.17734" lon="3.73229">
        <ele>162.489</ele>
        <time>2019-09-19T10:04:34.001Z</time>
      </trkpt>
      <trkpt lat="50.17723" lon="3.73241">
        <ele>162.436</ele>
        <time>2019-09-19T10:04:37.001Z</time>
      </trkpt>
      <trkpt lat="50.1771" lon="3.73253">
        <ele>162.164</ele>
        <time>2019-09-19T10:04:40.001Z</time>
      </trkpt>
      <trkpt lat="50.17697" lon="3.73264">
        <ele>162.223</ele>
        <time>2019-09-19T10:04:43.001Z</time>
      </trkpt>
      <trkpt lat="50.17684" lon="3.73274">
        <ele>161.94</ele>
        <time>2019-09-19T10:04:46.001Z</time>
      </trkpt>
      <trkpt lat="50.17673" lon="3.73285">
        <ele>162.608</ele>
        <time>2019-09-19T10:04:49.001Z</time>
      </trkpt>
      <trkpt lat="50.17662" lon="3.73297">
        <ele>163.05</ele>
        <time>2019-09-19T10:04:52.001Z</time>
      </trkpt>
      <trkpt lat="50.17651" lon="3.73309">
        <ele>162.908</ele>
        <time>2019-09-19T10:04:55.001Z</time>
      </trkpt>
      <trkpt lat="50.17639" lon="3.73321">
        <ele>163.001</ele>
        <time>2019-09-19T10:04:58.001Z</time>
      </trkpt>
      <trkpt lat="50.17629" lon="3.73333">
        <ele>163.867</ele>
        <time>2019-09-19T10:05:01.001Z</time>
      </trkpt>
      <trkpt lat="50.1762" lon="3.73345">
        <ele>165.115</ele>
        <time>2019-09-19T10:05:04.001Z</time>
      </trkpt>
      <trkpt lat="50.1761" lon="3.73355">
        <ele>166.662</ele>
        <time>2019-09-19T10:05:07.001Z</time>
      </trkpt>
      <trkpt lat="50.17599" lon="3.73367">
        <ele>168.166</ele>
        <time>2019-09-19T10:05:10.001Z</time>
      </trkpt>
      <trkpt lat="50.17587" lon="3.73381">
        <ele>168.69</ele>
        <time>2019-09-19T10:05:13.001Z</time>
      </trkpt>
      <trkpt lat="50.17573" lon="3.73395">
        <ele>168.022</ele>
        <time>2019-09-19T10:05:16.000Z</time>
      </trkpt>
      <trkpt lat="50.1756" lon="3.73409">
        <ele>167.588</ele>
        <time>2019-09-19T10:05:19.001Z</time>
      </trkpt>
      <trkpt lat="50.17547" lon="3.73423">
        <ele>167.049</ele>
        <time>2019-09-19T10:05:22.001Z</time>
      </trkpt>
      <trkpt lat="50.17536" lon="3.73436">
        <ele>167.03</ele>
        <time>2019-09-19T10:05:25.001Z</time>
      </trkpt>
      <trkpt lat="50.17523" lon="3.73448">
        <ele>166.782</ele>
        <time>2019-09-19T10:05:28.001Z</time>
      </trkpt>
      <trkpt lat="50.17512" lon="3.73459">
        <ele>167.015</ele>
        <time>2019-09-19T10:05:31.001Z</time>
      </trkpt>
      <trkpt lat="50.17501" lon="3.73471">
        <ele>167.198</ele>
        <time>2019-09-19T10:05:34.001Z</time>
      </trkpt>
      <trkpt lat="50.1749" lon="3.73481">
        <ele>167.624</ele>
        <time>2019-09-19T10:05:37.001Z</time>
      </trkpt>
      <trkpt lat="50.1748" lon="3.73492">
        <ele>168.263</ele>
        <time>2019-09-19T10:05:40.001Z</time>
      </trkpt>
      <trkpt lat="50.17471" lon="3.73503">
        <ele>168.611</ele>
        <time>2019-09-19T10:05:43.001Z</time>
      </trkpt>
      <trkpt lat="50.17461" lon="3.73513">
        <ele>169.617</ele>
        <time>2019-09-19T10:05:46.001Z</time>
      </trkpt>
      <trkpt lat="50.1745" lon="3.73522">
        <ele>170.516</ele>
        <time>2019-09-19T10:05:49.001Z</time>
      </trkpt>
      <trkpt lat="50.17439" lon="3.73531">
        <ele>171.031</ele>
        <time>2019-09-19T10:05:52.001Z</time>
      </trkpt>
      <trkpt lat="50.17425" lon="3.7354">
        <ele>170.34</ele>
        <time>2019-09-19T10:05:55.001Z</time>
      </trkpt>
      <trkpt lat="50.17407" lon="3.73548">
        <ele>169.602</ele>
        <time>2019-09-19T10:05:58.001Z</time>
      </trkpt>
      <trkpt lat="50.17385" lon="3.73555">
        <ele>168.912</ele>
        <time>2019-09-19T10:06:01.001Z</time>
      </trkpt>
      <trkpt lat="50.17365" lon="3.73563">
        <ele>168.634</ele>
        <time>2019-09-19T10:06:04.001Z</time>
      </trkpt>
      <trkpt lat="50.17344" lon="3.73568">
        <ele>168.029</ele>
        <time>2019-09-19T10:06:07.001Z</time>
      </trkpt>
      <trkpt lat="50.1732" lon="3.73574">
        <ele>167.162</ele>
        <time>2019-09-19T10:06:10.001Z</time>
      </trkpt>
      <trkpt lat="50.17296" lon="3.73581">
        <ele>166.851</ele>
        <time>2019-09-19T10:06:13.001Z</time>
      </trkpt>
      <trkpt lat="50.17271" lon="3.73588">
        <ele>166.827</ele>
        <time>2019-09-19T10:06:16.000Z</time>
      </trkpt>
      <trkpt lat="50.17244" lon="3.73595">
        <ele>166.141</ele>
        <time>2019-09-19T10:06:19.001Z</time>
      </trkpt>
      <trkpt lat="50.17217" lon="3.73599">
        <ele>164.797</ele>
        <time>2019-09-19T10:06:22.001Z</time>
      </trkpt>
      <trkpt lat="50.17191" lon="3.73607">
        <ele>163.861</ele>
        <time>2019-09-19T10:06:25.001Z</time>
      </trkpt>
      <trkpt lat="50.17167" lon="3.73613">
        <ele>163.926</ele>
        <time>2019-09-19T10:06:28.001Z</time>
      </trkpt>
      <trkpt lat="50.17146" lon="3.73619">
        <ele>163.894</ele>
        <time>2019-09-19T10:06:31.001Z</time>
      </trkpt>
      <trkpt lat="50.17128" lon="3.73625">
        <ele>163.769</ele>
        <time>2019-09-19T10:06:34.001Z</time>
      </trkpt>
      <trkpt lat="50.17111" lon="3.73632">
        <ele>163.794</ele>
        <time>2019-09-19T10:06:37.001Z</time>
      </trkpt>
      <trkpt lat="50.17093" lon="3.73642">
        <ele>162.474</ele>
        <time>2019-09-19T10:06:40.001Z</time>
      </trkpt>
      <trkpt lat="50.17075" lon="3.73659">
        <ele>161.416</ele>
        <time>2019-09-19T10:06:43.001Z</time>
      </trkpt>
      <trkpt lat="50.17057" lon="3.73679">
        <ele>160.412</ele>
        <time>2019-09-19T10:06:46.001Z</time>
      </trkpt>
      <trkpt lat="50.17038" lon="3.73699">
        <ele>159.496</ele>
        <time>2019-09-19T10:06:49.001Z</time>
      </trkpt>
      <trkpt lat="50.17017" lon="3.7372">
        <ele>158.181</ele>
        <time>2019-09-19T10:06:52.001Z</time>
      </trkpt>
      <trkpt lat="50.16995" lon="3.73744">
        <ele>157.449</ele>
        <time>2019-09-19T10:06:55.001Z</time>
      </trkpt>
      <trkpt lat="50.16974" lon="3.73769">
        <ele>156.891</ele>
        <time>2019-09-19T10:06:58.001Z</time>
      </trkpt>
      <trkpt lat="50.16951" lon="3.73794">
        <ele>155.259</ele>
        <time>2019-09-19T10:07:01.001Z</time>
      </trkpt>
      <trkpt lat="50.16927" lon="3.7382">
        <ele>153.347</ele>
        <time>2019-09-19T10:07:04.001Z</time>
      </trkpt>
      <trkpt lat="50.16904" lon="3.73846">
        <ele>151.755</ele>
        <time>2019-09-19T10:07:07.001Z</time>
      </trkpt>
      <trkpt lat="50.16879" lon="3.73873">
        <ele>150.418</ele>
        <time>2019-09-19T10:07:10.001Z</time>
      </trkpt>
      <trkpt lat="50.16853" lon="3.73901">
        <ele>148.764</ele>
        <time>2019-09-19T10:07:13.001Z</time>
      </trkpt>
      <trkpt lat="50.16827" lon="3.7393">
        <ele>147.862</ele>
        <time>2019-09-19T10:07:16.000Z</time>
      </trkpt>
      <trkpt lat="50.16803" lon="3.73957">
        <ele>147.162</ele>
        <time>2019-09-19T10:07:19.001Z</time>
      </trkpt>
      <trkpt lat="50.1678" lon="3.73982">
        <ele>145.889</ele>
        <time>2019-09-19T10:07:22.001Z</time>
      </trkpt>
      <trkpt lat="50.16757" lon="3.74005">
        <ele>144.424</ele>
        <time>2019-09-19T10:07:25.001Z</time>
      </trkpt>
      <trkpt lat="50.16735" lon="3.74025">
        <ele>143.424</ele>
        <time>2019-09-19T10:07:28.001Z</time>
      </trkpt>
      <trkpt lat="50.16715" lon="3.74047">
        <ele>142.268</ele>
        <time>2019-09-19T10:07:31.001Z</time>
      </trkpt>
      <trkpt lat="50.16699" lon="3.74064">
        <ele>141.526</ele>
        <time>2019-09-19T10:07:34.001Z</time>
      </trkpt>
      <trkpt lat="50.16684" lon="3.74081">
        <ele>141.412</ele>
        <time>2019-09-19T10:07:37.001Z</time>
      </trkpt>
      <trkpt lat="50.1667" lon="3.74099">
        <ele>141.505</ele>
        <time>2019-09-19T10:07:40.001Z</time>
      </trkpt>
      <trkpt lat="50.16655" lon="3.74114">
        <ele>141.989</ele>
        <time>2019-09-19T10:07:43.001Z</time>
      </trkpt>
      <trkpt lat="50.16641" lon="3.7413">
        <ele>142.416</ele>
        <time>2019-09-19T10:07:46.001Z</time>
      </trkpt>
      <trkpt lat="50.16625" lon="3.74147">
        <ele>142.857</ele>
        <time>2019-09-19T10:07:49.001Z</time>
      </trkpt>
      <trkpt lat="50.16608" lon="3.74166">
        <ele>143.028</ele>
        <time>2019-09-19T10:07:52.001Z</time>
      </trkpt>
      <trkpt lat="50.16592" lon="3.74185">
        <ele>142.603</ele>
        <time>2019-09-19T10:07:55.001Z</time>
      </trkpt>
      <trkpt lat="50.16574" lon="3.74203">
        <ele>142.813</ele>
        <time>2019-09-19T10:07:58.001Z</time>
      </trkpt>
      <trkpt lat="50.16556" lon="3.74222">
        <ele>142.957</ele>
        <time>2019-09-19T10:08:01.001Z</time>
      </trkpt>
      <trkpt lat="50.16538" lon="3.74241">
        <ele>143.415</ele>
        <time>2019-09-19T10:08:04.001Z</time>
      </trkpt>
      <trkpt lat="50.1652" lon="3.74259">
        <ele>144.013</ele>
        <time>2019-09-19T10:08:07.001Z</time>
      </trkpt>
      <trkpt lat="50.16502" lon="3.74274">
        <ele>143.854</ele>
        <time>2019-09-19T10:08:10.001Z</time>
      </trkpt>
      <trkpt lat="50.16483" lon="3.7429">
        <ele>142.42</ele>
        <time>2019-09-19T10:08:13.001Z</time>
      </trkpt>
      <trkpt lat="50.16462" lon="3.74303">
        <ele>141.152</ele>
        <time>2019-09-19T10:08:16.000Z</time>
      </trkpt>
      <trkpt lat="50.1644" lon="3.74316">
        <ele>141.092</ele>
        <time>2019-09-19T10:08:19.001Z</time>
      </trkpt>
      <trkpt lat="50.1642" lon="3.74328">
        <ele>140.449</ele>
        <time>2019-09-19T10:08:22.001Z</time>
      </trkpt>
      <trkpt lat="50.16397" lon="3.74341">
        <ele>140.202</ele>
        <time>2019-09-19T10:08:25.001Z</time>
      </trkpt>
      <trkpt lat="50.16374" lon="3.74355">
        <ele>139.479</ele>
        <time>2019-09-19T10:08:28.001Z</time>
      </trkpt>
      <trkpt lat="50.16349" lon="3.74366">
        <ele>138.413</ele>
        <time>2019-09-19T10:08:31.001Z</time>
      </trkpt>
      <trkpt lat="50.16323" lon="3.74374">
        <ele>137.365</ele>
        <time>2019-09-19T10:08:34.001Z</time>
      </trkpt>
      <trkpt lat="50.16298" lon="3.74377">
        <ele>137.189</ele>
        <time>2019-09-19T10:08:37.001Z</time>
      </trkpt>
      <trkpt lat="50.16272" lon="3.74374">
        <ele>137.05</ele>
        <time>2019-09-19T10:08:40.001Z</time>
      </trkpt>
      <trkpt lat="50.16249" lon="3.74369">
        <ele>137.416</ele>
        <time>2019-09-19T10:08:43.001Z</time>
      </trkpt>
      <trkpt lat="50.16228" lon="3.7436">
        <ele>137.224</ele>
        <time>2019-09-19T10:08:46.001Z</time>
      </trkpt>
      <trkpt lat="50.16207" lon="3.74351">
        <ele>136.269</ele>
        <time>2019-09-19T10:08:49.001Z</time>
      </trkpt>
      <trkpt lat="50.16187" lon="3.74344">
        <ele>135.645</ele>
        <time>2019-09-19T10:08:52.001Z</time>
      </trkpt>
      <trkpt lat="50.16167" lon="3.74338">
        <ele>135.223</ele>
        <time>2019-09-19T10:08:55.001Z</time>
      </trkpt>
      <trkpt lat="50.16148" lon="3.74335">
        <ele>135.339</ele>
        <time>2019-09-19T10:08:58.001Z</time>
      </trkpt>
      <trkpt lat="50.16128" lon="3.74337">
        <ele>135.209</ele>
        <time>2019-09-19T10:09:01.001Z</time>
      </trkpt>
      <trkpt lat="50.16107" lon="3.74345">
        <ele>134.565</ele>
        <time>2019-09-19T10:09:04.001Z</time>
      </trkpt>
      <trkpt lat="50.16086" lon="3.74355">
        <ele>134.418</ele>
        <time>2019-09-19T10:09:07.001Z</time>
      </trkpt>
      <trkpt lat="50.16064" lon="3.7436">
        <ele>134.126</ele>
        <time>2019-09-19T10:09:10.001Z</time>
      </trkpt>
      <trkpt lat="50.16042" lon="3.74358">
        <ele>133.612</ele>
        <time>2019-09-19T10:09:13.001Z</time>
      </trkpt>
      <trkpt lat="50.16021" lon="3.74352">
        <ele>133.298</ele>
        <time>2019-09-19T10:09:16.000Z</time>
      </trkpt>
      <trkpt lat="50.16" lon="3.74346">
        <ele>132.779</ele>
        <time>2019-09-19T10:09:19.001Z</time>
      </trkpt>
      <trkpt lat="50.15979" lon="3.74341">
        <ele>131.886</ele>
        <time>2019-09-19T10:09:22.001Z</time>
      </trkpt>
      <trkpt lat="50.15958" lon="3.74336">
        <ele>130.67</ele>
        <time>2019-09-19T10:09:25.001Z</time>
      </trkpt>
      <trkpt lat="50.15937" lon="3.7433">
        <ele>129.632</ele>
        <time>2019-09-19T10:09:28.001Z</time>
      </trkpt>
      <trkpt lat="50.15916" lon="3.74324">
        <ele>128.952</ele>
        <time>2019-09-19T10:09:31.001Z</time>
      </trkpt>
      <trkpt lat="50.15894" lon="3.74317">
        <ele>129.422</ele>
        <time>2019-09-19T10:09:34.001Z</time>
      </trkpt>
      <trkpt lat="50.15873" lon="3.74312">
        <ele>129.529</ele>
        <time>2019-09-19T10:09:37.001Z</time>
      </trkpt>
      <trkpt lat="50.15853" lon="3.74305">
        <ele>129.805</ele>
        <time>2019-09-19T10:09:40.001Z</time>
      </trkpt>
      <trkpt lat="50.15835" lon="3.743">
        <ele>130.665</ele>
        <time>2019-09-19T10:09:43.001Z</time>
      </trkpt>
      <trkpt lat="50.1582" lon="3.74298">
        <ele>131.809</ele>
        <time>2019-09-19T10:09:46.001Z</time>
      </trkpt>
      <trkpt lat="50.15808" lon="3.74295">
        <ele>133.22</ele>
        <time>2019-09-19T10:09:49.001Z</time>
      </trkpt>
      <trkpt lat="50.15792" lon="3.74292">
        <ele>133.82</ele>
        <time>2019-09-19T10:09:52.001Z</time>
      </trkpt>
      <trkpt lat="50.15773" lon="3.74293">
        <ele>134.173</ele>
        <time>2019-09-19T10:09:55.001Z</time>
      </trkpt>
      <trkpt lat="50.15752" lon="3.74302">
        <ele>133.857</ele>
        <time>2019-09-19T10:09:58.001Z</time>
      </trkpt>
      <trkpt lat="50.15732" lon="3.74315">
        <ele>133.868</ele>
        <time>2019-09-19T10:10:01.001Z</time>
      </trkpt>
      <trkpt lat="50.15715" lon="3.74327">
        <ele>133.998</ele>
        <time>2019-09-19T10:10:04.001Z</time>
      </trkpt>
      <trkpt lat="50.15701" lon="3.74334">
        <ele>134.305</ele>
        <time>2019-09-19T10:10:07.001Z</time>
      </trkpt>
      <trkpt lat="50.15688" lon="3.74338">
        <ele>134.357</ele>
        <time>2019-09-19T10:10:10.001Z</time>
      </trkpt>
      <trkpt lat="50.15678" lon="3.74341">
        <ele>133.788</ele>
        <time>2019-09-19T10:10:13.001Z</time>
      </trkpt>
      <trkpt lat="50.15667" lon="3.74343">
        <ele>133.282</ele>
        <time>2019-09-19T10:10:16.000Z</time>
      </trkpt>
      <trkpt lat="50.15658" lon="3.74346">
        <ele>133.209</ele>
        <time>2019-09-19T10:10:19.001Z</time>
      </trkpt>
      <trkpt lat="50.15648" lon="3.74349">
        <ele>133.09</ele>
        <time>2019-09-19T10:10:22.001Z</time>
      </trkpt>
      <trkpt lat="50.15638" lon="3.74352">
        <ele>133.89</ele>
        <time>2019-09-19T10:10:25.001Z</time>
      </trkpt>
      <trkpt lat="50.15626" lon="3.74356">
        <ele>134.248</ele>
        <time>2019-09-19T10:10:28.001Z</time>
      </trkpt>
      <trkpt lat="50.15612" lon="3.7436">
        <ele>134.264</ele>
        <time>2019-09-19T10:10:31.001Z</time>
      </trkpt>
      <trkpt lat="50.15597" lon="3.74367">
        <ele>134.223</ele>
        <time>2019-09-19T10:10:34.001Z</time>
      </trkpt>
      <trkpt lat="50.15581" lon="3.74375">
        <ele>134.262</ele>
        <time>2019-09-19T10:10:37.001Z</time>
      </trkpt>
      <trkpt lat="50.15566" lon="3.74387">
        <ele>134.118</ele>
        <time>2019-09-19T10:10:40.001Z</time>
      </trkpt>
      <trkpt lat="50.1555" lon="3.74401">
        <ele>134.377</ele>
        <time>2019-09-19T10:10:43.001Z</time>
      </trkpt>
      <trkpt lat="50.15534" lon="3.74418">
        <ele>134.104</ele>
        <time>2019-09-19T10:10:46.001Z</time>
      </trkpt>
      <trkpt lat="50.15519" lon="3.74436">
        <ele>134.158</ele>
        <time>2019-09-19T10:10:49.001Z</time>
      </trkpt>
      <trkpt lat="50.15503" lon="3.74454">
        <ele>134.126</ele>
        <time>2019-09-19T10:10:52.001Z</time>
      </trkpt>
      <trkpt lat="50.15488" lon="3.74472">
        <ele>133.842</ele>
        <time>2019-09-19T10:10:55.001Z</time>
      </trkpt>
      <trkpt lat="50.15473" lon="3.7449">
        <ele>133.886</ele>
        <time>2019-09-19T10:10:58.001Z</time>
      </trkpt>
      <trkpt lat="50.15458" lon="3.74508">
        <ele>133.707</ele>
        <time>2019-09-19T10:11:01.001Z</time>
      </trkpt>
      <trkpt lat="50.15444" lon="3.74526">
        <ele>133.42</ele>
        <time>2019-09-19T10:11:04.001Z</time>
      </trkpt>
      <trkpt lat="50.15431" lon="3.74544">
        <ele>132.799</ele>
        <time>2019-09-19T10:11:07.001Z</time>
      </trkpt>
      <trkpt lat="50.15418" lon="3.7456">
        <ele>132.431</ele>
        <time>2019-09-19T10:11:10.002Z</time>
      </trkpt>
      <trkpt lat="50.15405" lon="3.74576">
        <ele>131.886</ele>
        <time>2019-09-19T10:11:13.001Z</time>
      </trkpt>
      <trkpt lat="50.15393" lon="3.74593">
        <ele>130.848</ele>
        <time>2019-09-19T10:11:16.000Z</time>
      </trkpt>
      <trkpt lat="50.1538" lon="3.74608">
        <ele>130.455</ele>
        <time>2019-09-19T10:11:19.001Z</time>
      </trkpt>
      <trkpt lat="50.15367" lon="3.74623">
        <ele>130.236</ele>
        <time>2019-09-19T10:11:22.001Z</time>
      </trkpt>
      <trkpt lat="50.15354" lon="3.7464">
        <ele>130.107</ele>
        <time>2019-09-19T10:11:25.001Z</time>
      </trkpt>
      <trkpt lat="50.15342" lon="3.74657">
        <ele>129.859</ele>
        <time>2019-09-19T10:11:28.001Z</time>
      </trkpt>
      <trkpt lat="50.15329" lon="3.74672">
        <ele>129.492</ele>
        <time>2019-09-19T10:11:31.001Z</time>
      </trkpt>
      <trkpt lat="50.15317" lon="3.74688">
        <ele>129.379</ele>
        <time>2019-09-19T10:11:34.001Z</time>
      </trkpt>
      <trkpt lat="50.15304" lon="3.74704">
        <ele>129.216</ele>
        <time>2019-09-19T10:11:37.001Z</time>
      </trkpt>
      <trkpt lat="50.15291" lon="3.7472">
        <ele>128.699</ele>
        <time>2019-09-19T10:11:40.001Z</time>
      </trkpt>
      <trkpt lat="50.15278" lon="3.74735">
        <ele>128.826</ele>
        <time>2019-09-19T10:11:43.001Z</time>
      </trkpt>
      <trkpt lat="50.15267" lon="3.74751">
        <ele>128.815</ele>
        <time>2019-09-19T10:11:46.001Z</time>
      </trkpt>
      <trkpt lat="50.15255" lon="3.74766">
        <ele>128.508</ele>
        <time>2019-09-19T10:11:49.001Z</time>
      </trkpt>
      <trkpt lat="50.15242" lon="3.74782">
        <ele>128.655</ele>
        <time>2019-09-19T10:11:52.001Z</time>
      </trkpt>
      <trkpt lat="50.1523" lon="3.74798">
        <ele>128.874</ele>
        <time>2019-09-19T10:11:55.001Z</time>
      </trkpt>
      <trkpt lat="50.15218" lon="3.74813">
        <ele>128.834</ele>
        <time>2019-09-19T10:11:58.001Z</time>
      </trkpt>
      <trkpt lat="50.15205" lon="3.74828">
        <ele>129.232</ele>
        <time>2019-09-19T10:12:01.001Z</time>
      </trkpt>
      <trkpt lat="50.15193" lon="3.74843">
        <ele>129.29</ele>
        <time>2019-09-19T10:12:04.001Z</time>
      </trkpt>
      <trkpt lat="50.15182" lon="3.74856">
        <ele>128.895</ele>
        <time>2019-09-19T10:12:07.001Z</time>
      </trkpt>
      <trkpt lat="50.15172" lon="3.7487">
        <ele>128.663</ele>
        <time>2019-09-19T10:12:10.001Z</time>
      </trkpt>
      <trkpt lat="50.15161" lon="3.74885">
        <ele>128.595</ele>
        <time>2019-09-19T10:12:13.001Z</time>
      </trkpt>
      <trkpt lat="50.15151" lon="3.74899">
        <ele>128.863</ele>
        <time>2019-09-19T10:12:16.000Z</time>
      </trkpt>
      <trkpt lat="50.15141" lon="3.74914">
        <ele>129.595</ele>
        <time>2019-09-19T10:12:19.001Z</time>
      </trkpt>
      <trkpt lat="50.15131" lon="3.7493">
        <ele>129.852</ele>
        <time>2019-09-19T10:12:22.001Z</time>
      </trkpt>
      <trkpt lat="50.15122" lon="3.74946">
        <ele>130.224</ele>
        <time>2019-09-19T10:12:25.001Z</time>
      </trkpt>
      <trkpt lat="50.15113" lon="3.74963">
        <ele>130.72</ele>
        <time>2019-09-19T10:12:28.001Z</time>
      </trkpt>
      <trkpt lat="50.15103" lon="3.74981">
        <ele>131.485</ele>
        <time>2019-09-19T10:12:31.001Z</time>
      </trkpt>
      <trkpt lat="50.15094" lon="3.74999">
        <ele>132.005</ele>
        <time>2019-09-19T10:12:34.001Z</time>
      </trkpt>
      <trkpt lat="50.15085" lon="3.75017">
        <ele>132.104</ele>
        <time>2019-09-19T10:12:37.001Z</time>
      </trkpt>
      <trkpt lat="50.15076" lon="3.75035">
        <ele>132.321</ele>
        <time>2019-09-19T10:12:40.001Z</time>
      </trkpt>
      <trkpt lat="50.15069" lon="3.75054">
        <ele>132.131</ele>
        <time>2019-09-19T10:12:43.001Z</time>
      </trkpt>
      <trkpt lat="50.15062" lon="3.75073">
        <ele>132.538</ele>
        <time>2019-09-19T10:12:46.001Z</time>
      </trkpt>
      <trkpt lat="50.15056" lon="3.75091">
        <ele>132.537</ele>
        <time>2019-09-19T10:12:49.001Z</time>
      </trkpt>
      <trkpt lat="50.15051" lon="3.75109">
        <ele>132.326</ele>
        <time>2019-09-19T10:12:52.001Z</time>
      </trkpt>
      <trkpt lat="50.15046" lon="3.75127">
        <ele>132.059</ele>
        <time>2019-09-19T10:12:55.001Z</time>
      </trkpt>
      <trkpt lat="50.1504" lon="3.75145">
        <ele>132.011</ele>
        <time>2019-09-19T10:12:58.001Z</time>
      </trkpt>
      <trkpt lat="50.15035" lon="3.75165">
        <ele>132.362</ele>
        <time>2019-09-19T10:13:01.001Z</time>
      </trkpt>
      <trkpt lat="50.15029" lon="3.75184">
        <ele>132.205</ele>
        <time>2019-09-19T10:13:04.001Z</time>
      </trkpt>
      <trkpt lat="50.15023" lon="3.75203">
        <ele>131.731</ele>
        <time>2019-09-19T10:13:07.001Z</time>
      </trkpt>
      <trkpt lat="50.15016" lon="3.75222">
        <ele>130.811</ele>
        <time>2019-09-19T10:13:10.001Z</time>
      </trkpt>
      <trkpt lat="50.15009" lon="3.75241">
        <ele>130.212</ele>
        <time>2019-09-19T10:13:13.001Z</time>
      </trkpt>
      <trkpt lat="50.15003" lon="3.75261">
        <ele>129.844</ele>
        <time>2019-09-19T10:13:16.000Z</time>
      </trkpt>
      <trkpt lat="50.14997" lon="3.75281">
        <ele>129.542</ele>
        <time>2019-09-19T10:13:19.001Z</time>
      </trkpt>
      <trkpt lat="50.14991" lon="3.75301">
        <ele>129.403</ele>
        <time>2019-09-19T10:13:22.001Z</time>
      </trkpt>
      <trkpt lat="50.14985" lon="3.7532">
        <ele>129.254</ele>
        <time>2019-09-19T10:13:25.001Z</time>
      </trkpt>
      <trkpt lat="50.14977" lon="3.7534">
        <ele>129.942</ele>
        <time>2019-09-19T10:13:28.001Z</time>
      </trkpt>
      <trkpt lat="50.14969" lon="3.75359">
        <ele>130.451</ele>
        <time>2019-09-19T10:13:31.001Z</time>
      </trkpt>
      <trkpt lat="50.14961" lon="3.75376">
        <ele>131.106</ele>
        <time>2019-09-19T10:13:34.001Z</time>
      </trkpt>
      <trkpt lat="50.14952" lon="3.75394">
        <ele>131.449</ele>
        <time>2019-09-19T10:13:37.001Z</time>
      </trkpt>
      <trkpt lat="50.14942" lon="3.75411">
        <ele>131.799</ele>
        <time>2019-09-19T10:13:40.001Z</time>
      </trkpt>
      <trkpt lat="50.14931" lon="3.75426">
        <ele>132.383</ele>
        <time>2019-09-19T10:13:43.001Z</time>
      </trkpt>
      <trkpt lat="50.1492" lon="3.75441">
        <ele>132.223</ele>
        <time>2019-09-19T10:13:46.001Z</time>
      </trkpt>
      <trkpt lat="50.14908" lon="3.75454">
        <ele>132.183</ele>
        <time>2019-09-19T10:13:49.001Z</time>
      </trkpt>
      <trkpt lat="50.14897" lon="3.75464">
        <ele>132.266</ele>
        <time>2019-09-19T10:13:52.001Z</time>
      </trkpt>
      <trkpt lat="50.14884" lon="3.75473">
        <ele>132.342</ele>
        <time>2019-09-19T10:13:55.001Z</time>
      </trkpt>
      <trkpt lat="50.14871" lon="3.75482">
        <ele>132.596</ele>
        <time>2019-09-19T10:13:58.001Z</time>
      </trkpt>
      <trkpt lat="50.14859" lon="3.75489">
        <ele>132.399</ele>
        <time>2019-09-19T10:14:01.001Z</time>
      </trkpt>
      <trkpt lat="50.14846" lon="3.75495">
        <ele>132.432</ele>
        <time>2019-09-19T10:14:04.001Z</time>
      </trkpt>
      <trkpt lat="50.14832" lon="3.75501">
        <ele>133.449</ele>
        <time>2019-09-19T10:14:07.001Z</time>
      </trkpt>
      <trkpt lat="50.14819" lon="3.75507">
        <ele>134.196</ele>
        <time>2019-09-19T10:14:10.001Z</time>
      </trkpt>
      <trkpt lat="50.14806" lon="3.75512">
        <ele>134.06</ele>
        <time>2019-09-19T10:14:13.001Z</time>
      </trkpt>
      <trkpt lat="50.14792" lon="3.75513">
        <ele>133.773</ele>
        <time>2019-09-19T10:14:16.000Z</time>
      </trkpt>
      <trkpt lat="50.14779" lon="3.75515">
        <ele>133.306</ele>
        <time>2019-09-19T10:14:19.001Z</time>
      </trkpt>
      <trkpt lat="50.14766" lon="3.75517">
        <ele>133.495</ele>
        <time>2019-09-19T10:14:22.001Z</time>
      </trkpt>
      <trkpt lat="50.14756" lon="3.75517">
        <ele>133.087</ele>
        <time>2019-09-19T10:14:25.001Z</time>
      </trkpt>
      <trkpt lat="50.14746" lon="3.75517">
        <ele>133.411</ele>
        <time>2019-09-19T10:14:28.001Z</time>
      </trkpt>
      <trkpt lat="50.14735" lon="3.75516">
        <ele>132.877</ele>
        <time>2019-09-19T10:14:31.001Z</time>
      </trkpt>
      <trkpt lat="50.14727" lon="3.75517">
        <ele>133.642</ele>
        <time>2019-09-19T10:14:34.001Z</time>
      </trkpt>
      <trkpt lat="50.14718" lon="3.75521">
        <ele>134.279</ele>
        <time>2019-09-19T10:14:37.001Z</time>
      </trkpt>
      <trkpt lat="50.14709" lon="3.75525">
        <ele>134.873</ele>
        <time>2019-09-19T10:14:40.001Z</time>
      </trkpt>
      <trkpt lat="50.14701" lon="3.75529">
        <ele>135.223</ele>
        <time>2019-09-19T10:14:43.001Z</time>
      </trkpt>
      <trkpt lat="50.14693" lon="3.75534">
        <ele>135.61</ele>
        <time>2019-09-19T10:14:46.001Z</time>
      </trkpt>
      <trkpt lat="50.14685" lon="3.75538">
        <ele>135.583</ele>
        <time>2019-09-19T10:14:49.001Z</time>
      </trkpt>
      <trkpt lat="50.14678" lon="3.75542">
        <ele>135.638</ele>
        <time>2019-09-19T10:14:52.001Z</time>
      </trkpt>
      <trkpt lat="50.14671" lon="3.75548">
        <ele>136.196</ele>
        <time>2019-09-19T10:14:55.001Z</time>
      </trkpt>
      <trkpt lat="50.14664" lon="3.75554">
        <ele>136.76</ele>
        <time>2019-09-19T10:14:58.001Z</time>
      </trkpt>
      <trkpt lat="50.14655" lon="3.75559">
        <ele>137.362</ele>
        <time>2019-09-19T10:15:01.001Z</time>
      </trkpt>
      <trkpt lat="50.14647" lon="3.75565">
        <ele>137.93</ele>
        <time>2019-09-19T10:15:04.001Z</time>
      </trkpt>
      <trkpt lat="50.14639" lon="3.75571">
        <ele>139.112</ele>
        <time>2019-09-19T10:15:07.001Z</time>
      </trkpt>
      <trkpt lat="50.14632" lon="3.75577">
        <ele>139.59</ele>
        <time>2019-09-19T10:15:10.001Z</time>
      </trkpt>
      <trkpt lat="50.14624" lon="3.75582">
        <ele>140.281</ele>
        <time>2019-09-19T10:15:13.001Z</time>
      </trkpt>
      <trkpt lat="50.14616" lon="3.75587">
        <ele>140.709</ele>
        <time>2019-09-19T10:15:16.000Z</time>
      </trkpt>
      <trkpt lat="50.14609" lon="3.75593">
        <ele>141.357</ele>
        <time>2019-09-19T10:15:19.001Z</time>
      </trkpt>
      <trkpt lat="50.14601" lon="3.75599">
        <ele>142.041</ele>
        <time>2019-09-19T10:15:22.001Z</time>
      </trkpt>
      <trkpt lat="50.14594" lon="3.75605">
        <ele>142.726</ele>
        <time>2019-09-19T10:15:25.001Z</time>
      </trkpt>
      <trkpt lat="50.14586" lon="3.75611">
        <ele>143.73</ele>
        <time>2019-09-19T10:15:28.001Z</time>
      </trkpt>
      <trkpt lat="50.14578" lon="3.75616">
        <ele>143.974</ele>
        <time>2019-09-19T10:15:31.001Z</time>
      </trkpt>
      <trkpt lat="50.1457" lon="3.7562">
        <ele>144.306</ele>
        <time>2019-09-19T10:15:34.001Z</time>
      </trkpt>
      <trkpt lat="50.14562" lon="3.75626">
        <ele>144.016</ele>
        <time>2019-09-19T10:15:37.001Z</time>
      </trkpt>
      <trkpt lat="50.14554" lon="3.75631">
        <ele>144.536</ele>
        <time>2019-09-19T10:15:40.001Z</time>
      </trkpt>
      <trkpt lat="50.14545" lon="3.75634">
        <ele>144.744</ele>
        <time>2019-09-19T10:15:43.001Z</time>
      </trkpt>
      <trkpt lat="50.14537" lon="3.75639">
        <ele>144.506</ele>
        <time>2019-09-19T10:15:46.001Z</time>
      </trkpt>
      <trkpt lat="50.14529" lon="3.75643">
        <ele>143.867</ele>
        <time>2019-09-19T10:15:49.001Z</time>
      </trkpt>
      <trkpt lat="50.14521" lon="3.75647">
        <ele>143.171</ele>
        <time>2019-09-19T10:15:52.001Z</time>
      </trkpt>
      <trkpt lat="50.14513" lon="3.75653">
        <ele>142.996</ele>
        <time>2019-09-19T10:15:55.001Z</time>
      </trkpt>
      <trkpt lat="50.14504" lon="3.75657">
        <ele>143.194</ele>
        <time>2019-09-19T10:15:58.001Z</time>
      </trkpt>
      <trkpt lat="50.14495" lon="3.75662">
        <ele>143.372</ele>
        <time>2019-09-19T10:16:01.001Z</time>
      </trkpt>
      <trkpt lat="50.14487" lon="3.75667">
        <ele>143.546</ele>
        <time>2019-09-19T10:16:04.001Z</time>
      </trkpt>
      <trkpt lat="50.14479" lon="3.75671">
        <ele>143.899</ele>
        <time>2019-09-19T10:16:07.001Z</time>
      </trkpt>
      <trkpt lat="50.14471" lon="3.75676">
        <ele>144.692</ele>
        <time>2019-09-19T10:16:10.001Z</time>
      </trkpt>
      <trkpt lat="50.14463" lon="3.75679">
        <ele>145.316</ele>
        <time>2019-09-19T10:16:13.001Z</time>
      </trkpt>
      <trkpt lat="50.14455" lon="3.75682">
        <ele>145.622</ele>
        <time>2019-09-19T10:16:16.000Z</time>
      </trkpt>
      <trkpt lat="50.14447" lon="3.75687">
        <ele>145.821</ele>
        <time>2019-09-19T10:16:19.001Z</time>
      </trkpt>
      <trkpt lat="50.14439" lon="3.75691">
        <ele>146.546</ele>
        <time>2019-09-19T10:16:22.001Z</time>
      </trkpt>
      <trkpt lat="50.14431" lon="3.75696">
        <ele>146.914</ele>
        <time>2019-09-19T10:16:25.001Z</time>
      </trkpt>
      <trkpt lat="50.14422" lon="3.757">
        <ele>147.329</ele>
        <time>2019-09-19T10:16:28.001Z</time>
      </trkpt>
      <trkpt lat="50.14412" lon="3.75703">
        <ele>146.882</ele>
        <time>2019-09-19T10:16:31.001Z</time>
      </trkpt>
      <trkpt lat="50.14403" lon="3.75707">
        <ele>146.726</ele>
        <time>2019-09-19T10:16:34.001Z</time>
      </trkpt>
      <trkpt lat="50.14395" lon="3.75712">
        <ele>146.962</ele>
        <time>2019-09-19T10:16:37.001Z</time>
      </trkpt>
      <trkpt lat="50.14386" lon="3.75716">
        <ele>147.391</ele>
        <time>2019-09-19T10:16:40.001Z</time>
      </trkpt>
      <trkpt lat="50.14377" lon="3.7572">
        <ele>148.011</ele>
        <time>2019-09-19T10:16:43.001Z</time>
      </trkpt>
      <trkpt lat="50.14368" lon="3.75723">
        <ele>148.004</ele>
        <time>2019-09-19T10:16:46.001Z</time>
      </trkpt>
      <trkpt lat="50.14359" lon="3.75725">
        <ele>147.738</ele>
        <time>2019-09-19T10:16:49.001Z</time>
      </trkpt>
      <trkpt lat="50.14352" lon="3.75728">
        <ele>148.376</ele>
        <time>2019-09-19T10:16:52.001Z</time>
      </trkpt>
      <trkpt lat="50.14344" lon="3.75731">
        <ele>148.205</ele>
        <time>2019-09-19T10:16:55.001Z</time>
      </trkpt>
      <trkpt lat="50.14336" lon="3.75732">
        <ele>147.829</ele>
        <time>2019-09-19T10:16:58.001Z</time>
      </trkpt>
      <trkpt lat="50.14328" lon="3.75735">
        <ele>147.745</ele>
        <time>2019-09-19T10:17:01.001Z</time>
      </trkpt>
      <trkpt lat="50.1432" lon="3.75737">
        <ele>147.692</ele>
        <time>2019-09-19T10:17:04.001Z</time>
      </trkpt>
      <trkpt lat="50.14313" lon="3.75739">
        <ele>148.309</ele>
        <time>2019-09-19T10:17:07.001Z</time>
      </trkpt>
      <trkpt lat="50.14305" lon="3.75743">
        <ele>149.505</ele>
        <time>2019-09-19T10:17:10.001Z</time>
      </trkpt>
      <trkpt lat="50.14296" lon="3.75744">
        <ele>150.733</ele>
        <time>2019-09-19T10:17:13.001Z</time>
      </trkpt>
      <trkpt lat="50.14287" lon="3.75745">
        <ele>151.567</ele>
        <time>2019-09-19T10:17:16.000Z</time>
      </trkpt>
      <trkpt lat="50.14278" lon="3.75747">
        <ele>151.656</ele>
        <time>2019-09-19T10:17:19.001Z</time>
      </trkpt>
      <trkpt lat="50.14269" lon="3.75748">
        <ele>150.911</ele>
        <time>2019-09-19T10:17:22.001Z</time>
      </trkpt>
      <trkpt lat="50.1426" lon="3.7575">
        <ele>150.58</ele>
        <time>2019-09-19T10:17:25.001Z</time>
      </trkpt>
      <trkpt lat="50.14252" lon="3.75753">
        <ele>150.155</ele>
        <time>2019-09-19T10:17:28.001Z</time>
      </trkpt>
      <trkpt lat="50.14243" lon="3.75757">
        <ele>149.56</ele>
        <time>2019-09-19T10:17:31.001Z</time>
      </trkpt>
      <trkpt lat="50.14235" lon="3.75761">
        <ele>149.184</ele>
        <time>2019-09-19T10:17:34.001Z</time>
      </trkpt>
      <trkpt lat="50.14228" lon="3.75766">
        <ele>149.36</ele>
        <time>2019-09-19T10:17:37.001Z</time>
      </trkpt>
      <trkpt lat="50.14219" lon="3.75772">
        <ele>149.548</ele>
        <time>2019-09-19T10:17:40.001Z</time>
      </trkpt>
      <trkpt lat="50.1421" lon="3.75778">
        <ele>149.785</ele>
        <time>2019-09-19T10:17:43.001Z</time>
      </trkpt>
      <trkpt lat="50.14201" lon="3.75785">
        <ele>150.763</ele>
        <time>2019-09-19T10:17:46.001Z</time>
      </trkpt>
      <trkpt lat="50.14192" lon="3.75794">
        <ele>151.183</ele>
        <time>2019-09-19T10:17:49.001Z</time>
      </trkpt>
      <trkpt lat="50.14183" lon="3.75804">
        <ele>151.503</ele>
        <time>2019-09-19T10:17:52.001Z</time>
      </trkpt>
      <trkpt lat="50.14175" lon="3.75816">
        <ele>151.567</ele>
        <time>2019-09-19T10:17:55.001Z</time>
      </trkpt>
      <trkpt lat="50.14167" lon="3.75828">
        <ele>151.097</ele>
        <time>2019-09-19T10:17:58.001Z</time>
      </trkpt>
      <trkpt lat="50.14161" lon="3.75841">
        <ele>150.918</ele>
        <time>2019-09-19T10:18:01.001Z</time>
      </trkpt>
      <trkpt lat="50.14154" lon="3.75854">
        <ele>151.382</ele>
        <time>2019-09-19T10:18:04.001Z</time>
      </trkpt>
      <trkpt lat="50.14149" lon="3.75867">
        <ele>152.071</ele>
        <time>2019-09-19T10:18:07.001Z</time>
      </trkpt>
      <trkpt lat="50.14143" lon="3.75881">
        <ele>152.69</ele>
        <time>2019-09-19T10:18:10.001Z</time>
      </trkpt>
      <trkpt lat="50.14138" lon="3.75894">
        <ele>152.843</ele>
        <time>2019-09-19T10:18:13.001Z</time>
      </trkpt>
      <trkpt lat="50.14132" lon="3.75906">
        <ele>152.739</ele>
        <time>2019-09-19T10:18:16.000Z</time>
      </trkpt>
      <trkpt lat="50.14127" lon="3.75919">
        <ele>153.624</ele>
        <time>2019-09-19T10:18:19.001Z</time>
      </trkpt>
      <trkpt lat="50.14122" lon="3.75932">
        <ele>154.683</ele>
        <time>2019-09-19T10:18:22.001Z</time>
      </trkpt>
      <trkpt lat="50.14116" lon="3.75944">
        <ele>154.869</ele>
        <time>2019-09-19T10:18:25.001Z</time>
      </trkpt>
      <trkpt lat="50.1411" lon="3.75954">
        <ele>155.215</ele>
        <time>2019-09-19T10:18:28.001Z</time>
      </trkpt>
      <trkpt lat="50.14106" lon="3.75966">
        <ele>155.904</ele>
        <time>2019-09-19T10:18:31.001Z</time>
      </trkpt>
      <trkpt lat="50.141" lon="3.75978">
        <ele>156.014</ele>
        <time>2019-09-19T10:18:34.001Z</time>
      </trkpt>
      <trkpt lat="50.14095" lon="3.7599">
        <ele>156.085</ele>
        <time>2019-09-19T10:18:37.001Z</time>
      </trkpt>
      <trkpt lat="50.14089" lon="3.76001">
        <ele>155.517</ele>
        <time>2019-09-19T10:18:40.001Z</time>
      </trkpt>
      <trkpt lat="50.14084" lon="3.76012">
        <ele>155.091</ele>
        <time>2019-09-19T10:18:43.001Z</time>
      </trkpt>
      <trkpt lat="50.14079" lon="3.76022">
        <ele>154.84</ele>
        <time>2019-09-19T10:18:46.001Z</time>
      </trkpt>
      <trkpt lat="50.14072" lon="3.76033">
        <ele>155.075</ele>
        <time>2019-09-19T10:18:49.001Z</time>
      </trkpt>
      <trkpt lat="50.14067" lon="3.76044">
        <ele>155.192</ele>
        <time>2019-09-19T10:18:52.001Z</time>
      </trkpt>
      <trkpt lat="50.14061" lon="3.76056">
        <ele>154.887</ele>
        <time>2019-09-19T10:18:55.001Z</time>
      </trkpt>
      <trkpt lat="50.14055" lon="3.76066">
        <ele>154.883</ele>
        <time>2019-09-19T10:18:58.001Z</time>
      </trkpt>
      <trkpt lat="50.14048" lon="3.76076">
        <ele>154.852</ele>
        <time>2019-09-19T10:19:01.001Z</time>
      </trkpt>
      <trkpt lat="50.14042" lon="3.76086">
        <ele>155.493</ele>
        <time>2019-09-19T10:19:04.001Z</time>
      </trkpt>
      <trkpt lat="50.14036" lon="3.76096">
        <ele>155.498</ele>
        <time>2019-09-19T10:19:07.001Z</time>
      </trkpt>
      <trkpt lat="50.1403" lon="3.76107">
        <ele>155.912</ele>
        <time>2019-09-19T10:19:10.001Z</time>
      </trkpt>
      <trkpt lat="50.14025" lon="3.76118">
        <ele>156.201</ele>
        <time>2019-09-19T10:19:13.001Z</time>
      </trkpt>
      <trkpt lat="50.1402" lon="3.7613">
        <ele>156.104</ele>
        <time>2019-09-19T10:19:16.000Z</time>
      </trkpt>
      <trkpt lat="50.14014" lon="3.76141">
        <ele>155.984</ele>
        <time>2019-09-19T10:19:19.001Z</time>
      </trkpt>
      <trkpt lat="50.14009" lon="3.76152">
        <ele>156.268</ele>
        <time>2019-09-19T10:19:22.001Z</time>
      </trkpt>
      <trkpt lat="50.14003" lon="3.76163">
        <ele>156.56</ele>
        <time>2019-09-19T10:19:25.001Z</time>
      </trkpt>
      <trkpt lat="50.13998" lon="3.76172">
        <ele>156.41</ele>
        <time>2019-09-19T10:19:28.001Z</time>
      </trkpt>
      <trkpt lat="50.13993" lon="3.76182">
        <ele>156.34</ele>
        <time>2019-09-19T10:19:31.001Z</time>
      </trkpt>
      <trkpt lat="50.13987" lon="3.76195">
        <ele>156.782</ele>
        <time>2019-09-19T10:19:34.001Z</time>
      </trkpt>
      <trkpt lat="50.13981" lon="3.76207">
        <ele>157.814</ele>
        <time>2019-09-19T10:19:37.001Z</time>
      </trkpt>
      <trkpt lat="50.13976" lon="3.7622">
        <ele>158.648</ele>
        <time>2019-09-19T10:19:40.001Z</time>
      </trkpt>
      <trkpt lat="50.13971" lon="3.76231">
        <ele>159.403</ele>
        <time>2019-09-19T10:19:43.001Z</time>
      </trkpt>
      <trkpt lat="50.13966" lon="3.76242">
        <ele>160.141</ele>
        <time>2019-09-19T10:19:46.001Z</time>
      </trkpt>
      <trkpt lat="50.13961" lon="3.76254">
        <ele>160.611</ele>
        <time>2019-09-19T10:19:49.001Z</time>
      </trkpt>
      <trkpt lat="50.13958" lon="3.76265">
        <ele>160.958</ele>
        <time>2019-09-19T10:19:52.001Z</time>
      </trkpt>
      <trkpt lat="50.13956" lon="3.76274">
        <ele>161.796</ele>
        <time>2019-09-19T10:19:55.001Z</time>
      </trkpt>
      <trkpt lat="50.13956" lon="3.76281">
        <ele>161.678</ele>
        <time>2019-09-19T10:19:58.001Z</time>
      </trkpt>
      <trkpt lat="50.13957" lon="3.76283">
        <ele>161.586</ele>
        <time>2019-09-19T10:20:01.001Z</time>
      </trkpt>
      <trkpt lat="50.13957" lon="3.76283">
        <ele>161.586</ele>
        <time>2019-09-19T10:22:25.001Z</time>
      </trkpt>
      <trkpt lat="50.13959" lon="3.76284">
        <ele>161.371</ele>
        <time>2019-09-19T10:22:28.001Z</time>
      </trkpt>
      <trkpt lat="50.13956" lon="3.76275">
        <ele>161.226</ele>
        <time>2019-09-19T10:22:34.001Z</time>
      </trkpt>
      <trkpt lat="50.1395" lon="3.76278">
        <ele>161.281</ele>
        <time>2019-09-19T10:22:37.001Z</time>
      </trkpt>
      <trkpt lat="50.13943" lon="3.76286">
        <ele>161.166</ele>
        <time>2019-09-19T10:22:40.001Z</time>
      </trkpt>
      <trkpt lat="50.13936" lon="3.76297">
        <ele>161.143</ele>
        <time>2019-09-19T10:22:43.001Z</time>
      </trkpt>
      <trkpt lat="50.1393" lon="3.76308">
        <ele>161.055</ele>
        <time>2019-09-19T10:22:46.001Z</time>
      </trkpt>
      <trkpt lat="50.13922" lon="3.76319">
        <ele>160.857</ele>
        <time>2019-09-19T10:22:49.001Z</time>
      </trkpt>
      <trkpt lat="50.13915" lon="3.7633">
        <ele>160.377</ele>
        <time>2019-09-19T10:22:52.001Z</time>
      </trkpt>
      <trkpt lat="50.13907" lon="3.7634">
        <ele>160.061</ele>
        <time>2019-09-19T10:22:55.001Z</time>
      </trkpt>
      <trkpt lat="50.13898" lon="3.76349">
        <ele>159.863</ele>
        <time>2019-09-19T10:22:58.001Z</time>
      </trkpt>
      <trkpt lat="50.13889" lon="3.76355">
        <ele>159.236</ele>
        <time>2019-09-19T10:23:01.001Z</time>
      </trkpt>
      <trkpt lat="50.13879" lon="3.76362">
        <ele>159.296</ele>
        <time>2019-09-19T10:23:04.001Z</time>
      </trkpt>
      <trkpt lat="50.13867" lon="3.76367">
        <ele>159.212</ele>
        <time>2019-09-19T10:23:07.001Z</time>
      </trkpt>
      <trkpt lat="50.13853" lon="3.76372">
        <ele>158.834</ele>
        <time>2019-09-19T10:23:10.001Z</time>
      </trkpt>
      <trkpt lat="50.13837" lon="3.76374">
        <ele>158.388</ele>
        <time>2019-09-19T10:23:13.001Z</time>
      </trkpt>
      <trkpt lat="50.13821" lon="3.76373">
        <ele>158.118</ele>
        <time>2019-09-19T10:23:16.000Z</time>
      </trkpt>
      <trkpt lat="50.13805" lon="3.76367">
        <ele>158.445</ele>
        <time>2019-09-19T10:23:19.001Z</time>
      </trkpt>
      <trkpt lat="50.13789" lon="3.76355">
        <ele>158.537</ele>
        <time>2019-09-19T10:23:22.001Z</time>
      </trkpt>
      <trkpt lat="50.13773" lon="3.76341">
        <ele>158.454</ele>
        <time>2019-09-19T10:23:25.001Z</time>
      </trkpt>
      <trkpt lat="50.13757" lon="3.76324">
        <ele>158.674</ele>
        <time>2019-09-19T10:23:28.001Z</time>
      </trkpt>
      <trkpt lat="50.13742" lon="3.76306">
        <ele>158.756</ele>
        <time>2019-09-19T10:23:31.001Z</time>
      </trkpt>
      <trkpt lat="50.13724" lon="3.76294">
        <ele>160.131</ele>
        <time>2019-09-19T10:23:34.001Z</time>
      </trkpt>
      <trkpt lat="50.13705" lon="3.76288">
        <ele>159.78</ele>
        <time>2019-09-19T10:23:37.001Z</time>
      </trkpt>
      <trkpt lat="50.13686" lon="3.76284">
        <ele>159.671</ele>
        <time>2019-09-19T10:23:40.001Z</time>
      </trkpt>
      <trkpt lat="50.1367" lon="3.7628">
        <ele>158.979</ele>
        <time>2019-09-19T10:23:43.001Z</time>
      </trkpt>
      <trkpt lat="50.13654" lon="3.76274">
        <ele>158.418</ele>
        <time>2019-09-19T10:23:46.001Z</time>
      </trkpt>
      <trkpt lat="50.13638" lon="3.76263">
        <ele>156.849</ele>
        <time>2019-09-19T10:23:49.001Z</time>
      </trkpt>
      <trkpt lat="50.13622" lon="3.76251">
        <ele>157.621</ele>
        <time>2019-09-19T10:23:52.001Z</time>
      </trkpt>
      <trkpt lat="50.13605" lon="3.76237">
        <ele>159.236</ele>
        <time>2019-09-19T10:23:55.001Z</time>
      </trkpt>
      <trkpt lat="50.13591" lon="3.76216">
        <ele>160.19</ele>
        <time>2019-09-19T10:23:58.001Z</time>
      </trkpt>
      <trkpt lat="50.13577" lon="3.76195">
        <ele>160.008</ele>
        <time>2019-09-19T10:24:01.001Z</time>
      </trkpt>
      <trkpt lat="50.13566" lon="3.76176">
        <ele>160.015</ele>
        <time>2019-09-19T10:24:04.001Z</time>
      </trkpt>
      <trkpt lat="50.13555" lon="3.76158">
        <ele>159.987</ele>
        <time>2019-09-19T10:24:07.001Z</time>
      </trkpt>
      <trkpt lat="50.13542" lon="3.76144">
        <ele>159.868</ele>
        <time>2019-09-19T10:24:10.001Z</time>
      </trkpt>
      <trkpt lat="50.13534" lon="3.76123">
        <ele>159.319</ele>
        <time>2019-09-19T10:24:13.001Z</time>
      </trkpt>
      <trkpt lat="50.13524" lon="3.76105">
        <ele>158.963</ele>
        <time>2019-09-19T10:24:16.000Z</time>
      </trkpt>
      <trkpt lat="50.13511" lon="3.76091">
        <ele>158.785</ele>
        <time>2019-09-19T10:24:19.001Z</time>
      </trkpt>
      <trkpt lat="50.13498" lon="3.76083">
        <ele>159.058</ele>
        <time>2019-09-19T10:24:22.001Z</time>
      </trkpt>
      <trkpt lat="50.13484" lon="3.76074">
        <ele>160.181</ele>
        <time>2019-09-19T10:24:25.001Z</time>
      </trkpt>
      <trkpt lat="50.13469" lon="3.76066">
        <ele>162.177</ele>
        <time>2019-09-19T10:24:28.001Z</time>
      </trkpt>
      <trkpt lat="50.13455" lon="3.76057">
        <ele>164.663</ele>
        <time>2019-09-19T10:24:31.001Z</time>
      </trkpt>
      <trkpt lat="50.13445" lon="3.76051">
        <ele>166.778</ele>
        <time>2019-09-19T10:24:34.001Z</time>
      </trkpt>
      <trkpt lat="50.13437" lon="3.76044">
        <ele>167.407</ele>
        <time>2019-09-19T10:24:37.001Z</time>
      </trkpt>
      <trkpt lat="50.13423" lon="3.76043">
        <ele>164.318</ele>
        <time>2019-09-19T10:24:40.001Z</time>
      </trkpt>
      <trkpt lat="50.1342" lon="3.76056">
        <ele>162.682</ele>
        <time>2019-09-19T10:24:43.001Z</time>
      </trkpt>
      <trkpt lat="50.13421" lon="3.76063">
        <ele>162.126</ele>
        <time>2019-09-19T10:24:46.001Z</time>
      </trkpt>
      <trkpt lat="50.13421" lon="3.76063">
        <ele>161.648</ele>
        <time>2019-09-19T10:24:49.001Z</time>
      </trkpt>
      <trkpt lat="50.13421" lon="3.76063">
        <ele>161.648</ele>
        <time>2019-09-19T10:25:10.001Z</time>
      </trkpt>
      <trkpt lat="50.13421" lon="3.76064">
        <ele>161.313</ele>
        <time>2019-09-19T10:25:13.001Z</time>
      </trkpt>
      <trkpt lat="50.13423" lon="3.76067">
        <ele>159.986</ele>
        <time>2019-09-19T10:25:16.000Z</time>
      </trkpt>
      <trkpt lat="50.13426" lon="3.76069">
        <ele>159.191</ele>
        <time>2019-09-19T10:25:19.001Z</time>
      </trkpt>
      <trkpt lat="50.13426" lon="3.76069">
        <ele>159.191</ele>
        <time>2019-09-19T10:30:07.001Z</time>
      </trkpt>
      <trkpt lat="50.1343" lon="3.76071">
        <ele>159.371</ele>
        <time>2019-09-19T10:30:10.001Z</time>
      </trkpt>
      <trkpt lat="50.13436" lon="3.7608">
        <ele>160.045</ele>
        <time>2019-09-19T10:30:13.001Z</time>
      </trkpt>
      <trkpt lat="50.1344" lon="3.76086">
        <ele>159.038</ele>
        <time>2019-09-19T10:30:16.000Z</time>
      </trkpt>
      <trkpt lat="50.13442" lon="3.76098">
        <ele>157.111</ele>
        <time>2019-09-19T10:30:22.001Z</time>
      </trkpt>
      <trkpt lat="50.1344" lon="3.76106">
        <ele>155.248</ele>
        <time>2019-09-19T10:30:28.001Z</time>
      </trkpt>
      <trkpt lat="50.13439" lon="3.76104">
        <ele>155.241</ele>
        <time>2019-09-19T10:30:31.001Z</time>
      </trkpt>
      <trkpt lat="50.13439" lon="3.76103">
        <ele>155.296</ele>
        <time>2019-09-19T10:30:34.001Z</time>
      </trkpt>
      <trkpt lat="50.13437" lon="3.76101">
        <ele>152.581</ele>
        <time>2019-09-19T10:47:16.000Z</time>
      </trkpt>
      <trkpt lat="50.13438" lon="3.76096">
        <ele>152.401</ele>
        <time>2019-09-19T10:47:19.001Z</time>
      </trkpt>
      <trkpt lat="50.13439" lon="3.76089">
        <ele>152.018</ele>
        <time>2019-09-19T10:47:34.001Z</time>
      </trkpt>
      <trkpt lat="50.13438" lon="3.76097">
        <ele>150.953</ele>
        <time>2019-09-19T10:47:49.001Z</time>
      </trkpt>
      <trkpt lat="50.13439" lon="3.76102">
        <ele>149.937</ele>
        <time>2019-09-19T10:48:10.001Z</time>
      </trkpt>
      <trkpt lat="50.13439" lon="3.76102">
        <ele>149.937</ele>
        <time>2019-09-19T10:48:13.001Z</time>
      </trkpt>
      <trkpt lat="50.13439" lon="3.76102">
        <ele>149.937</ele>
        <time>2019-09-19T10:48:16.000Z</time>
      </trkpt>
      <trkpt lat="50.13439" lon="3.76102">
        <ele>149.937</ele>
        <time>2019-09-19T10:48:19.001Z</time>
      </trkpt>
      <trkpt lat="50.13437" lon="3.7609">
        <ele>146.629</ele>
        <time>2019-09-19T10:48:40.001Z</time>
      </trkpt>
      <trkpt lat="50.13434" lon="3.76084">
        <ele>146.839</ele>
        <time>2019-09-19T10:48:46.001Z</time>
      </trkpt>
      <trkpt lat="50.13432" lon="3.7608">
        <ele>146.25</ele>
        <time>2019-09-19T10:49:01.001Z</time>
      </trkpt>
      <trkpt lat="50.13432" lon="3.76079">
        <ele>146.25</ele>
        <time>2019-09-19T10:49:04.001Z</time>
      </trkpt>
      <trkpt lat="50.13432" lon="3.76079">
        <ele>146.25</ele>
        <time>2019-09-19T10:49:07.001Z</time>
      </trkpt>
      <trkpt lat="50.13432" lon="3.76078">
        <ele>146.25</ele>
        <time>2019-09-19T10:49:10.001Z</time>
      </trkpt>
      <trkpt lat="50.13432" lon="3.76078">
        <ele>146.25</ele>
        <time>2019-09-19T10:49:22.001Z</time>
      </trkpt>
      <trkpt lat="50.13432" lon="3.76078">
        <ele>146.25</ele>
        <time>2019-09-19T10:49:25.001Z</time>
      </trkpt>
      <trkpt lat="50.13432" lon="3.76078">
        <ele>148.075</ele>
        <time>2019-09-19T10:51:10.001Z</time>
      </trkpt>
      <trkpt lat="50.13436" lon="3.76077">
        <ele>148.075</ele>
        <time>2019-09-19T10:51:13.001Z</time>
      </trkpt>
      <trkpt lat="50.13436" lon="3.76077">
        <ele>148.075</ele>
        <time>2019-09-19T10:51:31.001Z</time>
      </trkpt>
      <trkpt lat="50.13436" lon="3.76077">
        <ele>148.075</ele>
        <time>2019-09-19T10:51:34.001Z</time>
      </trkpt>
      <trkpt lat="50.13436" lon="3.76077">
        <ele>148.075</ele>
        <time>2019-09-19T10:51:37.001Z</time>
      </trkpt>
      <trkpt lat="50.13436" lon="3.76077">
        <ele>148.075</ele>
        <time>2019-09-19T10:51:43.001Z</time>
      </trkpt>
      <trkpt lat="50.13436" lon="3.76077">
        <ele>146.755</ele>
        <time>2019-09-19T10:51:46.001Z</time>
      </trkpt>
      <trkpt lat="50.13436" lon="3.76077">
        <ele>145.832</ele>
        <time>2019-09-19T10:53:55.001Z</time>
      </trkpt>
      <trkpt lat="50.13427" lon="3.76065">
        <ele>146.277</ele>
        <time>2019-09-19T10:53:58.001Z</time>
      </trkpt>
      <trkpt lat="50.13421" lon="3.76055">
        <ele>146.924</ele>
        <time>2019-09-19T10:54:01.001Z</time>
      </trkpt>
      <trkpt lat="50.13415" lon="3.76038">
        <ele>147.665</ele>
        <time>2019-09-19T10:54:04.001Z</time>
      </trkpt>
      <trkpt lat="50.13407" lon="3.76019">
        <ele>148.457</ele>
        <time>2019-09-19T10:54:07.001Z</time>
      </trkpt>
      <trkpt lat="50.13397" lon="3.75997">
        <ele>149.386</ele>
        <time>2019-09-19T10:54:10.001Z</time>
      </trkpt>
      <trkpt lat="50.13391" lon="3.75969">
        <ele>149.89</ele>
        <time>2019-09-19T10:54:13.001Z</time>
      </trkpt>
      <trkpt lat="50.13389" lon="3.75939">
        <ele>149.931</ele>
        <time>2019-09-19T10:54:16.000Z</time>
      </trkpt>
      <trkpt lat="50.13389" lon="3.75912">
        <ele>149.839</ele>
        <time>2019-09-19T10:54:19.001Z</time>
      </trkpt>
      <trkpt lat="50.13389" lon="3.75889">
        <ele>149.9</ele>
        <time>2019-09-19T10:54:22.001Z</time>
      </trkpt>
      <trkpt lat="50.1339" lon="3.75861">
        <ele>148.917</ele>
        <time>2019-09-19T10:54:25.001Z</time>
      </trkpt>
      <trkpt lat="50.13386" lon="3.75832">
        <ele>148.361</ele>
        <time>2019-09-19T10:54:28.001Z</time>
      </trkpt>
      <trkpt lat="50.13375" lon="3.75809">
        <ele>148.334</ele>
        <time>2019-09-19T10:54:31.001Z</time>
      </trkpt>
      <trkpt lat="50.13359" lon="3.75793">
        <ele>148.828</ele>
        <time>2019-09-19T10:54:34.001Z</time>
      </trkpt>
      <trkpt lat="50.13342" lon="3.75788">
        <ele>148.129</ele>
        <time>2019-09-19T10:54:37.001Z</time>
      </trkpt>
      <trkpt lat="50.13326" lon="3.75798">
        <ele>147.718</ele>
        <time>2019-09-19T10:54:40.001Z</time>
      </trkpt>
      <trkpt lat="50.1331" lon="3.75804">
        <ele>146.96</ele>
        <time>2019-09-19T10:54:43.001Z</time>
      </trkpt>
      <trkpt lat="50.13295" lon="3.75807">
        <ele>145.623</ele>
        <time>2019-09-19T10:54:46.001Z</time>
      </trkpt>
      <trkpt lat="50.1328" lon="3.75812">
        <ele>144.43</ele>
        <time>2019-09-19T10:54:49.001Z</time>
      </trkpt>
      <trkpt lat="50.13269" lon="3.75829">
        <ele>142.131</ele>
        <time>2019-09-19T10:54:52.001Z</time>
      </trkpt>
      <trkpt lat="50.13265" lon="3.75852">
        <ele>140.011</ele>
        <time>2019-09-19T10:54:55.001Z</time>
      </trkpt>
      <trkpt lat="50.13264" lon="3.75873">
        <ele>138.092</ele>
        <time>2019-09-19T10:54:58.001Z</time>
      </trkpt>
      <trkpt lat="50.13259" lon="3.75887">
        <ele>136.459</ele>
        <time>2019-09-19T10:55:01.001Z</time>
      </trkpt>
      <trkpt lat="50.1325" lon="3.75891">
        <ele>134.8</ele>
        <time>2019-09-19T10:55:04.001Z</time>
      </trkpt>
      <trkpt lat="50.13243" lon="3.75896">
        <ele>134.481</ele>
        <time>2019-09-19T10:55:07.001Z</time>
      </trkpt>
      <trkpt lat="50.13234" lon="3.75902">
        <ele>134.129</ele>
        <time>2019-09-19T10:55:10.001Z</time>
      </trkpt>
      <trkpt lat="50.13227" lon="3.75906">
        <ele>134.023</ele>
        <time>2019-09-19T10:55:13.001Z</time>
      </trkpt>
      <trkpt lat="50.13226" lon="3.75906">
        <ele>134.102</ele>
        <time>2019-09-19T10:55:16.000Z</time>
      </trkpt>
      <trkpt lat="50.13226" lon="3.75906">
        <ele>134.102</ele>
        <time>2019-09-19T10:56:01.001Z</time>
      </trkpt>
      <trkpt lat="50.13223" lon="3.75908">
        <ele>134.041</ele>
        <time>2019-09-19T10:56:04.001Z</time>
      </trkpt>
      <trkpt lat="50.13218" lon="3.75912">
        <ele>133.724</ele>
        <time>2019-09-19T10:56:07.001Z</time>
      </trkpt>
      <trkpt lat="50.13212" lon="3.75918">
        <ele>133.499</ele>
        <time>2019-09-19T10:56:10.001Z</time>
      </trkpt>
      <trkpt lat="50.13204" lon="3.75922">
        <ele>133.362</ele>
        <time>2019-09-19T10:56:13.001Z</time>
      </trkpt>
      <trkpt lat="50.13191" lon="3.75927">
        <ele>133.318</ele>
        <time>2019-09-19T10:56:16.000Z</time>
      </trkpt>
      <trkpt lat="50.13178" lon="3.75935">
        <ele>133.809</ele>
        <time>2019-09-19T10:56:19.001Z</time>
      </trkpt>
      <trkpt lat="50.13167" lon="3.75942">
        <ele>134.079</ele>
        <time>2019-09-19T10:56:22.001Z</time>
      </trkpt>
      <trkpt lat="50.13155" lon="3.7595">
        <ele>134.571</ele>
        <time>2019-09-19T10:56:25.001Z</time>
      </trkpt>
      <trkpt lat="50.13144" lon="3.75959">
        <ele>135.337</ele>
        <time>2019-09-19T10:56:28.001Z</time>
      </trkpt>
      <trkpt lat="50.13132" lon="3.75968">
        <ele>136.03</ele>
        <time>2019-09-19T10:56:31.001Z</time>
      </trkpt>
      <trkpt lat="50.13121" lon="3.75977">
        <ele>135.899</ele>
        <time>2019-09-19T10:56:34.001Z</time>
      </trkpt>
      <trkpt lat="50.13109" lon="3.75986">
        <ele>135.769</ele>
        <time>2019-09-19T10:56:37.001Z</time>
      </trkpt>
      <trkpt lat="50.13096" lon="3.75992">
        <ele>135.926</ele>
        <time>2019-09-19T10:56:40.001Z</time>
      </trkpt>
      <trkpt lat="50.13084" lon="3.75994">
        <ele>136.102</ele>
        <time>2019-09-19T10:56:43.001Z</time>
      </trkpt>
      <trkpt lat="50.1307" lon="3.75997">
        <ele>136.456</ele>
        <time>2019-09-19T10:56:46.001Z</time>
      </trkpt>
      <trkpt lat="50.13056" lon="3.75996">
        <ele>136.284</ele>
        <time>2019-09-19T10:56:49.001Z</time>
      </trkpt>
      <trkpt lat="50.13042" lon="3.75999">
        <ele>136.582</ele>
        <time>2019-09-19T10:56:52.001Z</time>
      </trkpt>
      <trkpt lat="50.13029" lon="3.76001">
        <ele>136.717</ele>
        <time>2019-09-19T10:56:55.001Z</time>
      </trkpt>
      <trkpt lat="50.13016" lon="3.76003">
        <ele>136.41</ele>
        <time>2019-09-19T10:56:58.001Z</time>
      </trkpt>
      <trkpt lat="50.13004" lon="3.76004">
        <ele>136.116</ele>
        <time>2019-09-19T10:57:01.001Z</time>
      </trkpt>
      <trkpt lat="50.12991" lon="3.76004">
        <ele>135.809</ele>
        <time>2019-09-19T10:57:04.001Z</time>
      </trkpt>
      <trkpt lat="50.12978" lon="3.76005">
        <ele>135.584</ele>
        <time>2019-09-19T10:57:07.001Z</time>
      </trkpt>
      <trkpt lat="50.12965" lon="3.76005">
        <ele>135.285</ele>
        <time>2019-09-19T10:57:10.001Z</time>
      </trkpt>
      <trkpt lat="50.12954" lon="3.76005">
        <ele>135.11</ele>
        <time>2019-09-19T10:57:13.001Z</time>
      </trkpt>
      <trkpt lat="50.1294" lon="3.76004">
        <ele>134.935</ele>
        <time>2019-09-19T10:57:16.000Z</time>
      </trkpt>
      <trkpt lat="50.12925" lon="3.76003">
        <ele>134.845</ele>
        <time>2019-09-19T10:57:19.001Z</time>
      </trkpt>
      <trkpt lat="50.12912" lon="3.76">
        <ele>134.789</ele>
        <time>2019-09-19T10:57:22.001Z</time>
      </trkpt>
      <trkpt lat="50.129" lon="3.75999">
        <ele>135.331</ele>
        <time>2019-09-19T10:57:25.001Z</time>
      </trkpt>
      <trkpt lat="50.12888" lon="3.75996">
        <ele>135.265</ele>
        <time>2019-09-19T10:57:28.001Z</time>
      </trkpt>
      <trkpt lat="50.12875" lon="3.75991">
        <ele>135.953</ele>
        <time>2019-09-19T10:57:31.001Z</time>
      </trkpt>
      <trkpt lat="50.12862" lon="3.75982">
        <ele>135.795</ele>
        <time>2019-09-19T10:57:34.001Z</time>
      </trkpt>
      <trkpt lat="50.12849" lon="3.75975">
        <ele>135.815</ele>
        <time>2019-09-19T10:57:37.001Z</time>
      </trkpt>
      <trkpt lat="50.12837" lon="3.75964">
        <ele>135.653</ele>
        <time>2019-09-19T10:57:40.001Z</time>
      </trkpt>
      <trkpt lat="50.12826" lon="3.75951">
        <ele>135.958</ele>
        <time>2019-09-19T10:57:43.001Z</time>
      </trkpt>
      <trkpt lat="50.12816" lon="3.75938">
        <ele>136.152</ele>
        <time>2019-09-19T10:57:46.001Z</time>
      </trkpt>
      <trkpt lat="50.12805" lon="3.75925">
        <ele>136.339</ele>
        <time>2019-09-19T10:57:49.001Z</time>
      </trkpt>
      <trkpt lat="50.12795" lon="3.75911">
        <ele>136.762</ele>
        <time>2019-09-19T10:57:52.001Z</time>
      </trkpt>
      <trkpt lat="50.12784" lon="3.759">
        <ele>137.005</ele>
        <time>2019-09-19T10:57:55.001Z</time>
      </trkpt>
      <trkpt lat="50.12773" lon="3.75889">
        <ele>136.921</ele>
        <time>2019-09-19T10:57:58.001Z</time>
      </trkpt>
      <trkpt lat="50.12762" lon="3.75877">
        <ele>137.064</ele>
        <time>2019-09-19T10:58:01.001Z</time>
      </trkpt>
      <trkpt lat="50.12751" lon="3.75869">
        <ele>137.285</ele>
        <time>2019-09-19T10:58:04.001Z</time>
      </trkpt>
      <trkpt lat="50.12739" lon="3.75867">
        <ele>136.972</ele>
        <time>2019-09-19T10:58:07.001Z</time>
      </trkpt>
      <trkpt lat="50.12727" lon="3.75868">
        <ele>137.315</ele>
        <time>2019-09-19T10:58:10.001Z</time>
      </trkpt>
      <trkpt lat="50.12714" lon="3.75872">
        <ele>137.393</ele>
        <time>2019-09-19T10:58:13.001Z</time>
      </trkpt>
      <trkpt lat="50.12702" lon="3.75876">
        <ele>137.273</ele>
        <time>2019-09-19T10:58:16.000Z</time>
      </trkpt>
      <trkpt lat="50.12689" lon="3.7588">
        <ele>136.988</ele>
        <time>2019-09-19T10:58:19.001Z</time>
      </trkpt>
      <trkpt lat="50.12677" lon="3.75884">
        <ele>136.905</ele>
        <time>2019-09-19T10:58:22.001Z</time>
      </trkpt>
      <trkpt lat="50.12664" lon="3.75888">
        <ele>136.981</ele>
        <time>2019-09-19T10:58:25.001Z</time>
      </trkpt>
      <trkpt lat="50.1265" lon="3.7589">
        <ele>137.187</ele>
        <time>2019-09-19T10:58:28.001Z</time>
      </trkpt>
      <trkpt lat="50.12637" lon="3.75893">
        <ele>137.289</ele>
        <time>2019-09-19T10:58:31.001Z</time>
      </trkpt>
      <trkpt lat="50.12625" lon="3.75895">
        <ele>137.55</ele>
        <time>2019-09-19T10:58:34.001Z</time>
      </trkpt>
      <trkpt lat="50.12614" lon="3.75897">
        <ele>137.859</ele>
        <time>2019-09-19T10:58:37.001Z</time>
      </trkpt>
      <trkpt lat="50.12601" lon="3.75901">
        <ele>138.784</ele>
        <time>2019-09-19T10:58:40.001Z</time>
      </trkpt>
      <trkpt lat="50.1259" lon="3.75903">
        <ele>139.107</ele>
        <time>2019-09-19T10:58:43.001Z</time>
      </trkpt>
      <trkpt lat="50.12579" lon="3.75903">
        <ele>140.03</ele>
        <time>2019-09-19T10:58:46.001Z</time>
      </trkpt>
      <trkpt lat="50.1257" lon="3.75898">
        <ele>140.894</ele>
        <time>2019-09-19T10:58:49.001Z</time>
      </trkpt>
      <trkpt lat="50.12561" lon="3.75891">
        <ele>141.237</ele>
        <time>2019-09-19T10:58:52.001Z</time>
      </trkpt>
      <trkpt lat="50.1255" lon="3.7588">
        <ele>141.297</ele>
        <time>2019-09-19T10:58:55.001Z</time>
      </trkpt>
      <trkpt lat="50.12537" lon="3.75871">
        <ele>141.622</ele>
        <time>2019-09-19T10:58:58.001Z</time>
      </trkpt>
      <trkpt lat="50.12522" lon="3.75866">
        <ele>141.824</ele>
        <time>2019-09-19T10:59:01.001Z</time>
      </trkpt>
      <trkpt lat="50.12505" lon="3.75862">
        <ele>141.351</ele>
        <time>2019-09-19T10:59:04.001Z</time>
      </trkpt>
      <trkpt lat="50.1249" lon="3.75858">
        <ele>141.134</ele>
        <time>2019-09-19T10:59:07.001Z</time>
      </trkpt>
      <trkpt lat="50.12475" lon="3.75854">
        <ele>140.996</ele>
        <time>2019-09-19T10:59:10.001Z</time>
      </trkpt>
      <trkpt lat="50.1246" lon="3.75849">
        <ele>140.348</ele>
        <time>2019-09-19T10:59:13.001Z</time>
      </trkpt>
      <trkpt lat="50.12444" lon="3.75842">
        <ele>139.828</ele>
        <time>2019-09-19T10:59:16.000Z</time>
      </trkpt>
      <trkpt lat="50.12429" lon="3.75833">
        <ele>139.312</ele>
        <time>2019-09-19T10:59:19.001Z</time>
      </trkpt>
      <trkpt lat="50.12415" lon="3.75822">
        <ele>138.453</ele>
        <time>2019-09-19T10:59:22.001Z</time>
      </trkpt>
      <trkpt lat="50.12402" lon="3.75811">
        <ele>138.309</ele>
        <time>2019-09-19T10:59:25.001Z</time>
      </trkpt>
      <trkpt lat="50.1239" lon="3.75799">
        <ele>137.532</ele>
        <time>2019-09-19T10:59:28.001Z</time>
      </trkpt>
      <trkpt lat="50.12378" lon="3.75788">
        <ele>137.417</ele>
        <time>2019-09-19T10:59:31.001Z</time>
      </trkpt>
      <trkpt lat="50.12365" lon="3.75774">
        <ele>137.248</ele>
        <time>2019-09-19T10:59:34.001Z</time>
      </trkpt>
      <trkpt lat="50.12353" lon="3.75761">
        <ele>137.139</ele>
        <time>2019-09-19T10:59:37.001Z</time>
      </trkpt>
      <trkpt lat="50.12341" lon="3.75748">
        <ele>136.852</ele>
        <time>2019-09-19T10:59:40.001Z</time>
      </trkpt>
      <trkpt lat="50.1233" lon="3.75735">
        <ele>136.834</ele>
        <time>2019-09-19T10:59:43.001Z</time>
      </trkpt>
      <trkpt lat="50.12319" lon="3.75719">
        <ele>136.949</ele>
        <time>2019-09-19T10:59:46.001Z</time>
      </trkpt>
      <trkpt lat="50.12308" lon="3.75703">
        <ele>136.627</ele>
        <time>2019-09-19T10:59:49.001Z</time>
      </trkpt>
      <trkpt lat="50.12298" lon="3.75687">
        <ele>136.284</ele>
        <time>2019-09-19T10:59:52.001Z</time>
      </trkpt>
      <trkpt lat="50.12287" lon="3.75672">
        <ele>136.539</ele>
        <time>2019-09-19T10:59:55.001Z</time>
      </trkpt>
      <trkpt lat="50.12274" lon="3.75661">
        <ele>136.179</ele>
        <time>2019-09-19T10:59:58.001Z</time>
      </trkpt>
      <trkpt lat="50.12261" lon="3.75662">
        <ele>136.231</ele>
        <time>2019-09-19T11:00:01.001Z</time>
      </trkpt>
      <trkpt lat="50.12251" lon="3.75674">
        <ele>136.469</ele>
        <time>2019-09-19T11:00:04.001Z</time>
      </trkpt>
      <trkpt lat="50.12243" lon="3.75686">
        <ele>136.567</ele>
        <time>2019-09-19T11:00:07.001Z</time>
      </trkpt>
      <trkpt lat="50.12237" lon="3.75699">
        <ele>137.297</ele>
        <time>2019-09-19T11:00:10.001Z</time>
      </trkpt>
      <trkpt lat="50.12232" lon="3.75711">
        <ele>138.243</ele>
        <time>2019-09-19T11:00:13.001Z</time>
      </trkpt>
      <trkpt lat="50.12226" lon="3.75721">
        <ele>139.364</ele>
        <time>2019-09-19T11:00:16.000Z</time>
      </trkpt>
      <trkpt lat="50.1222" lon="3.75732">
        <ele>140.462</ele>
        <time>2019-09-19T11:00:19.001Z</time>
      </trkpt>
      <trkpt lat="50.12214" lon="3.75743">
        <ele>140.962</ele>
        <time>2019-09-19T11:00:22.001Z</time>
      </trkpt>
      <trkpt lat="50.12209" lon="3.75754">
        <ele>141.009</ele>
        <time>2019-09-19T11:00:25.001Z</time>
      </trkpt>
      <trkpt lat="50.12204" lon="3.75765">
        <ele>140.736</ele>
        <time>2019-09-19T11:00:28.001Z</time>
      </trkpt>
      <trkpt lat="50.12198" lon="3.75776">
        <ele>140.865</ele>
        <time>2019-09-19T11:00:31.001Z</time>
      </trkpt>
      <trkpt lat="50.12194" lon="3.75789">
        <ele>141.32</ele>
        <time>2019-09-19T11:00:34.001Z</time>
      </trkpt>
      <trkpt lat="50.12188" lon="3.75802">
        <ele>141.985</ele>
        <time>2019-09-19T11:00:37.001Z</time>
      </trkpt>
      <trkpt lat="50.12181" lon="3.75814">
        <ele>141.962</ele>
        <time>2019-09-19T11:00:40.001Z</time>
      </trkpt>
      <trkpt lat="50.12174" lon="3.75828">
        <ele>142.191</ele>
        <time>2019-09-19T11:00:43.001Z</time>
      </trkpt>
      <trkpt lat="50.12167" lon="3.75841">
        <ele>141.892</ele>
        <time>2019-09-19T11:00:46.001Z</time>
      </trkpt>
      <trkpt lat="50.12161" lon="3.75856">
        <ele>141.501</ele>
        <time>2019-09-19T11:00:49.001Z</time>
      </trkpt>
      <trkpt lat="50.12151" lon="3.75872">
        <ele>141.546</ele>
        <time>2019-09-19T11:00:52.001Z</time>
      </trkpt>
      <trkpt lat="50.12141" lon="3.7589">
        <ele>141.534</ele>
        <time>2019-09-19T11:00:55.001Z</time>
      </trkpt>
      <trkpt lat="50.12131" lon="3.75908">
        <ele>141.348</ele>
        <time>2019-09-19T11:00:58.001Z</time>
      </trkpt>
      <trkpt lat="50.1212" lon="3.75927">
        <ele>140.943</ele>
        <time>2019-09-19T11:01:01.001Z</time>
      </trkpt>
      <trkpt lat="50.12109" lon="3.75947">
        <ele>140.448</ele>
        <time>2019-09-19T11:01:04.001Z</time>
      </trkpt>
      <trkpt lat="50.12099" lon="3.75968">
        <ele>140.436</ele>
        <time>2019-09-19T11:01:07.001Z</time>
      </trkpt>
      <trkpt lat="50.1209" lon="3.75989">
        <ele>139.796</ele>
        <time>2019-09-19T11:01:10.001Z</time>
      </trkpt>
      <trkpt lat="50.12083" lon="3.76012">
        <ele>138.903</ele>
        <time>2019-09-19T11:01:13.001Z</time>
      </trkpt>
      <trkpt lat="50.12074" lon="3.76035">
        <ele>138.347</ele>
        <time>2019-09-19T11:01:16.000Z</time>
      </trkpt>
      <trkpt lat="50.12065" lon="3.76058">
        <ele>138.036</ele>
        <time>2019-09-19T11:01:19.001Z</time>
      </trkpt>
      <trkpt lat="50.12053" lon="3.76076">
        <ele>137.973</ele>
        <time>2019-09-19T11:01:22.001Z</time>
      </trkpt>
      <trkpt lat="50.12039" lon="3.7609">
        <ele>137.845</ele>
        <time>2019-09-19T11:01:25.001Z</time>
      </trkpt>
      <trkpt lat="50.12027" lon="3.76103">
        <ele>137.471</ele>
        <time>2019-09-19T11:01:28.001Z</time>
      </trkpt>
      <trkpt lat="50.12016" lon="3.76113">
        <ele>137.25</ele>
        <time>2019-09-19T11:01:31.001Z</time>
      </trkpt>
      <trkpt lat="50.12005" lon="3.76122">
        <ele>137.119</ele>
        <time>2019-09-19T11:01:34.001Z</time>
      </trkpt>
      <trkpt lat="50.11992" lon="3.76131">
        <ele>137.506</ele>
        <time>2019-09-19T11:01:37.001Z</time>
      </trkpt>
      <trkpt lat="50.11977" lon="3.76139">
        <ele>137.147</ele>
        <time>2019-09-19T11:01:40.001Z</time>
      </trkpt>
      <trkpt lat="50.11962" lon="3.76147">
        <ele>137.031</ele>
        <time>2019-09-19T11:01:43.001Z</time>
      </trkpt>
      <trkpt lat="50.11948" lon="3.76159">
        <ele>137.664</ele>
        <time>2019-09-19T11:01:46.001Z</time>
      </trkpt>
      <trkpt lat="50.11937" lon="3.76176">
        <ele>138.389</ele>
        <time>2019-09-19T11:01:49.001Z</time>
      </trkpt>
      <trkpt lat="50.11927" lon="3.76193">
        <ele>139.11</ele>
        <time>2019-09-19T11:01:52.001Z</time>
      </trkpt>
      <trkpt lat="50.11918" lon="3.76208">
        <ele>139.478</ele>
        <time>2019-09-19T11:01:55.001Z</time>
      </trkpt>
      <trkpt lat="50.11921" lon="3.76231">
        <ele>139.791</ele>
        <time>2019-09-19T11:01:58.001Z</time>
      </trkpt>
      <trkpt lat="50.11935" lon="3.7625">
        <ele>139.592</ele>
        <time>2019-09-19T11:02:01.001Z</time>
      </trkpt>
      <trkpt lat="50.11947" lon="3.7627">
        <ele>139.832</ele>
        <time>2019-09-19T11:02:04.001Z</time>
      </trkpt>
      <trkpt lat="50.11956" lon="3.76296">
        <ele>140.266</ele>
        <time>2019-09-19T11:02:07.001Z</time>
      </trkpt>
      <trkpt lat="50.1196" lon="3.76322">
        <ele>140.095</ele>
        <time>2019-09-19T11:02:10.001Z</time>
      </trkpt>
      <trkpt lat="50.11962" lon="3.76349">
        <ele>139.074</ele>
        <time>2019-09-19T11:02:13.001Z</time>
      </trkpt>
      <trkpt lat="50.11965" lon="3.76376">
        <ele>139.097</ele>
        <time>2019-09-19T11:02:16.000Z</time>
      </trkpt>
      <trkpt lat="50.11968" lon="3.76402">
        <ele>138.738</ele>
        <time>2019-09-19T11:02:19.001Z</time>
      </trkpt>
      <trkpt lat="50.11973" lon="3.76428">
        <ele>138.277</ele>
        <time>2019-09-19T11:02:22.001Z</time>
      </trkpt>
      <trkpt lat="50.11978" lon="3.76452">
        <ele>138.354</ele>
        <time>2019-09-19T11:02:25.001Z</time>
      </trkpt>
      <trkpt lat="50.11984" lon="3.76475">
        <ele>138.65</ele>
        <time>2019-09-19T11:02:28.001Z</time>
      </trkpt>
      <trkpt lat="50.1199" lon="3.76496">
        <ele>138.864</ele>
        <time>2019-09-19T11:02:31.001Z</time>
      </trkpt>
      <trkpt lat="50.11995" lon="3.76517">
        <ele>139.181</ele>
        <time>2019-09-19T11:02:34.001Z</time>
      </trkpt>
      <trkpt lat="50.11999" lon="3.76538">
        <ele>139.333</ele>
        <time>2019-09-19T11:02:37.001Z</time>
      </trkpt>
      <trkpt lat="50.12003" lon="3.76557">
        <ele>139.21</ele>
        <time>2019-09-19T11:02:40.001Z</time>
      </trkpt>
      <trkpt lat="50.12004" lon="3.76577">
        <ele>139.373</ele>
        <time>2019-09-19T11:02:43.001Z</time>
      </trkpt>
      <trkpt lat="50.12004" lon="3.76595">
        <ele>139.822</ele>
        <time>2019-09-19T11:02:46.001Z</time>
      </trkpt>
      <trkpt lat="50.12006" lon="3.76613">
        <ele>139.907</ele>
        <time>2019-09-19T11:02:49.001Z</time>
      </trkpt>
      <trkpt lat="50.12007" lon="3.76633">
        <ele>139.721</ele>
        <time>2019-09-19T11:02:52.001Z</time>
      </trkpt>
      <trkpt lat="50.12009" lon="3.76658">
        <ele>139.215</ele>
        <time>2019-09-19T11:02:55.001Z</time>
      </trkpt>
      <trkpt lat="50.12013" lon="3.76683">
        <ele>138.579</ele>
        <time>2019-09-19T11:02:58.001Z</time>
      </trkpt>
      <trkpt lat="50.12016" lon="3.76708">
        <ele>138.323</ele>
        <time>2019-09-19T11:03:01.001Z</time>
      </trkpt>
      <trkpt lat="50.12018" lon="3.76732">
        <ele>138.452</ele>
        <time>2019-09-19T11:03:04.001Z</time>
      </trkpt>
      <trkpt lat="50.12019" lon="3.76757">
        <ele>138.583</ele>
        <time>2019-09-19T11:03:07.001Z</time>
      </trkpt>
      <trkpt lat="50.12018" lon="3.76784">
        <ele>137.965</ele>
        <time>2019-09-19T11:03:10.001Z</time>
      </trkpt>
      <trkpt lat="50.12015" lon="3.76813">
        <ele>136.973</ele>
        <time>2019-09-19T11:03:13.001Z</time>
      </trkpt>
      <trkpt lat="50.12013" lon="3.76841">
        <ele>135.975</ele>
        <time>2019-09-19T11:03:16.000Z</time>
      </trkpt>
      <trkpt lat="50.1201" lon="3.76868">
        <ele>135.273</ele>
        <time>2019-09-19T11:03:19.001Z</time>
      </trkpt>
      <trkpt lat="50.12005" lon="3.76895">
        <ele>134.82</ele>
        <time>2019-09-19T11:03:22.001Z</time>
      </trkpt>
      <trkpt lat="50.12" lon="3.76921">
        <ele>134.468</ele>
        <time>2019-09-19T11:03:25.001Z</time>
      </trkpt>
      <trkpt lat="50.11994" lon="3.76944">
        <ele>134.562</ele>
        <time>2019-09-19T11:03:28.001Z</time>
      </trkpt>
      <trkpt lat="50.11987" lon="3.76966">
        <ele>134.38</ele>
        <time>2019-09-19T11:03:31.001Z</time>
      </trkpt>
      <trkpt lat="50.11982" lon="3.76988">
        <ele>134.854</ele>
        <time>2019-09-19T11:03:34.001Z</time>
      </trkpt>
      <trkpt lat="50.11978" lon="3.7701">
        <ele>135.082</ele>
        <time>2019-09-19T11:03:37.001Z</time>
      </trkpt>
      <trkpt lat="50.11975" lon="3.77033">
        <ele>134.999</ele>
        <time>2019-09-19T11:03:40.001Z</time>
      </trkpt>
      <trkpt lat="50.11973" lon="3.77056">
        <ele>135.132</ele>
        <time>2019-09-19T11:03:43.001Z</time>
      </trkpt>
      <trkpt lat="50.11973" lon="3.77078">
        <ele>135.221</ele>
        <time>2019-09-19T11:03:46.001Z</time>
      </trkpt>
      <trkpt lat="50.11973" lon="3.77098">
        <ele>135.321</ele>
        <time>2019-09-19T11:03:49.001Z</time>
      </trkpt>
      <trkpt lat="50.11974" lon="3.77117">
        <ele>135.692</ele>
        <time>2019-09-19T11:03:52.001Z</time>
      </trkpt>
      <trkpt lat="50.11975" lon="3.77135">
        <ele>136.269</ele>
        <time>2019-09-19T11:03:55.001Z</time>
      </trkpt>
      <trkpt lat="50.11975" lon="3.77154">
        <ele>136.686</ele>
        <time>2019-09-19T11:03:58.001Z</time>
      </trkpt>
      <trkpt lat="50.11975" lon="3.77172">
        <ele>136.936</ele>
        <time>2019-09-19T11:04:01.001Z</time>
      </trkpt>
      <trkpt lat="50.11975" lon="3.7719">
        <ele>137.282</ele>
        <time>2019-09-19T11:04:04.001Z</time>
      </trkpt>
      <trkpt lat="50.11974" lon="3.77208">
        <ele>138.098</ele>
        <time>2019-09-19T11:04:07.001Z</time>
      </trkpt>
      <trkpt lat="50.11973" lon="3.77225">
        <ele>139.049</ele>
        <time>2019-09-19T11:04:10.001Z</time>
      </trkpt>
      <trkpt lat="50.11971" lon="3.7724">
        <ele>139.156</ele>
        <time>2019-09-19T11:04:13.001Z</time>
      </trkpt>
      <trkpt lat="50.1197" lon="3.77255">
        <ele>139.201</ele>
        <time>2019-09-19T11:04:16.000Z</time>
      </trkpt>
      <trkpt lat="50.11969" lon="3.7727">
        <ele>139.106</ele>
        <time>2019-09-19T11:04:19.001Z</time>
      </trkpt>
      <trkpt lat="50.11969" lon="3.77285">
        <ele>139.355</ele>
        <time>2019-09-19T11:04:22.001Z</time>
      </trkpt>
      <trkpt lat="50.11972" lon="3.77301">
        <ele>139.843</ele>
        <time>2019-09-19T11:04:25.001Z</time>
      </trkpt>
      <trkpt lat="50.11979" lon="3.77316">
        <ele>140.427</ele>
        <time>2019-09-19T11:04:28.001Z</time>
      </trkpt>
      <trkpt lat="50.11989" lon="3.77328">
        <ele>140.729</ele>
        <time>2019-09-19T11:04:31.001Z</time>
      </trkpt>
      <trkpt lat="50.12001" lon="3.77338">
        <ele>141.177</ele>
        <time>2019-09-19T11:04:34.001Z</time>
      </trkpt>
      <trkpt lat="50.12014" lon="3.77348">
        <ele>140.884</ele>
        <time>2019-09-19T11:04:37.001Z</time>
      </trkpt>
      <trkpt lat="50.12025" lon="3.77359">
        <ele>141.12</ele>
        <time>2019-09-19T11:04:40.001Z</time>
      </trkpt>
      <trkpt lat="50.12034" lon="3.77376">
        <ele>141.146</ele>
        <time>2019-09-19T11:04:43.001Z</time>
      </trkpt>
      <trkpt lat="50.12039" lon="3.77396">
        <ele>141.335</ele>
        <time>2019-09-19T11:04:46.001Z</time>
      </trkpt>
      <trkpt lat="50.12039" lon="3.77418">
        <ele>141.29</ele>
        <time>2019-09-19T11:04:49.001Z</time>
      </trkpt>
      <trkpt lat="50.12037" lon="3.77439">
        <ele>141.158</ele>
        <time>2019-09-19T11:04:52.001Z</time>
      </trkpt>
      <trkpt lat="50.12035" lon="3.7746">
        <ele>141.361</ele>
        <time>2019-09-19T11:04:55.001Z</time>
      </trkpt>
      <trkpt lat="50.12034" lon="3.7748">
        <ele>141.159</ele>
        <time>2019-09-19T11:04:58.001Z</time>
      </trkpt>
      <trkpt lat="50.12032" lon="3.775">
        <ele>140.913</ele>
        <time>2019-09-19T11:05:01.001Z</time>
      </trkpt>
      <trkpt lat="50.12031" lon="3.7752">
        <ele>140.779</ele>
        <time>2019-09-19T11:05:04.001Z</time>
      </trkpt>
      <trkpt lat="50.12029" lon="3.77539">
        <ele>141.159</ele>
        <time>2019-09-19T11:05:07.001Z</time>
      </trkpt>
      <trkpt lat="50.12027" lon="3.77557">
        <ele>141.315</ele>
        <time>2019-09-19T11:05:10.001Z</time>
      </trkpt>
      <trkpt lat="50.12025" lon="3.77576">
        <ele>141.626</ele>
        <time>2019-09-19T11:05:13.001Z</time>
      </trkpt>
      <trkpt lat="50.12022" lon="3.77594">
        <ele>141.602</ele>
        <time>2019-09-19T11:05:16.000Z</time>
      </trkpt>
      <trkpt lat="50.1202" lon="3.77612">
        <ele>141.285</ele>
        <time>2019-09-19T11:05:19.001Z</time>
      </trkpt>
      <trkpt lat="50.12018" lon="3.77628">
        <ele>141.079</ele>
        <time>2019-09-19T11:05:22.001Z</time>
      </trkpt>
      <trkpt lat="50.12016" lon="3.77645">
        <ele>141.086</ele>
        <time>2019-09-19T11:05:25.001Z</time>
      </trkpt>
      <trkpt lat="50.12014" lon="3.77663">
        <ele>141.305</ele>
        <time>2019-09-19T11:05:28.001Z</time>
      </trkpt>
      <trkpt lat="50.12011" lon="3.77679">
        <ele>141.536</ele>
        <time>2019-09-19T11:05:31.001Z</time>
      </trkpt>
      <trkpt lat="50.12008" lon="3.77695">
        <ele>141.338</ele>
        <time>2019-09-19T11:05:34.001Z</time>
      </trkpt>
      <trkpt lat="50.12004" lon="3.77712">
        <ele>141.463</ele>
        <time>2019-09-19T11:05:37.001Z</time>
      </trkpt>
      <trkpt lat="50.12" lon="3.77729">
        <ele>141.773</ele>
        <time>2019-09-19T11:05:40.001Z</time>
      </trkpt>
      <trkpt lat="50.11996" lon="3.77745">
        <ele>142.153</ele>
        <time>2019-09-19T11:05:43.001Z</time>
      </trkpt>
      <trkpt lat="50.11993" lon="3.7776">
        <ele>142.421</ele>
        <time>2019-09-19T11:05:46.001Z</time>
      </trkpt>
      <trkpt lat="50.1199" lon="3.77776">
        <ele>142.361</ele>
        <time>2019-09-19T11:05:49.001Z</time>
      </trkpt>
      <trkpt lat="50.11987" lon="3.77791">
        <ele>142.617</ele>
        <time>2019-09-19T11:05:52.001Z</time>
      </trkpt>
      <trkpt lat="50.11984" lon="3.77806">
        <ele>142.948</ele>
        <time>2019-09-19T11:05:55.001Z</time>
      </trkpt>
      <trkpt lat="50.11981" lon="3.77824">
        <ele>143.321</ele>
        <time>2019-09-19T11:05:58.001Z</time>
      </trkpt>
      <trkpt lat="50.1198" lon="3.77841">
        <ele>143.56</ele>
        <time>2019-09-19T11:06:01.001Z</time>
      </trkpt>
      <trkpt lat="50.11976" lon="3.77861">
        <ele>143.431</ele>
        <time>2019-09-19T11:06:04.001Z</time>
      </trkpt>
      <trkpt lat="50.11972" lon="3.77882">
        <ele>142.733</ele>
        <time>2019-09-19T11:06:07.001Z</time>
      </trkpt>
      <trkpt lat="50.11969" lon="3.77903">
        <ele>142.3</ele>
        <time>2019-09-19T11:06:10.001Z</time>
      </trkpt>
      <trkpt lat="50.11963" lon="3.77925">
        <ele>142.015</ele>
        <time>2019-09-19T11:06:13.001Z</time>
      </trkpt>
      <trkpt lat="50.11956" lon="3.77948">
        <ele>141.633</ele>
        <time>2019-09-19T11:06:16.000Z</time>
      </trkpt>
      <trkpt lat="50.11949" lon="3.77973">
        <ele>141.108</ele>
        <time>2019-09-19T11:06:19.001Z</time>
      </trkpt>
      <trkpt lat="50.11943" lon="3.77999">
        <ele>141.231</ele>
        <time>2019-09-19T11:06:22.001Z</time>
      </trkpt>
      <trkpt lat="50.11937" lon="3.78025">
        <ele>141.088</ele>
        <time>2019-09-19T11:06:25.001Z</time>
      </trkpt>
      <trkpt lat="50.11934" lon="3.78054">
        <ele>140.447</ele>
        <time>2019-09-19T11:06:28.001Z</time>
      </trkpt>
      <trkpt lat="50.11929" lon="3.78084">
        <ele>138.997</ele>
        <time>2019-09-19T11:06:31.001Z</time>
      </trkpt>
      <trkpt lat="50.11926" lon="3.78118">
        <ele>137.971</ele>
        <time>2019-09-19T11:06:34.001Z</time>
      </trkpt>
      <trkpt lat="50.11922" lon="3.7815">
        <ele>137.216</ele>
        <time>2019-09-19T11:06:37.001Z</time>
      </trkpt>
      <trkpt lat="50.11918" lon="3.78183">
        <ele>137.019</ele>
        <time>2019-09-19T11:06:40.001Z</time>
      </trkpt>
      <trkpt lat="50.11913" lon="3.78215">
        <ele>136.127</ele>
        <time>2019-09-19T11:06:43.001Z</time>
      </trkpt>
      <trkpt lat="50.11907" lon="3.78245">
        <ele>135.444</ele>
        <time>2019-09-19T11:06:46.001Z</time>
      </trkpt>
      <trkpt lat="50.11899" lon="3.78275">
        <ele>134.841</ele>
        <time>2019-09-19T11:06:49.001Z</time>
      </trkpt>
      <trkpt lat="50.11892" lon="3.78304">
        <ele>134.211</ele>
        <time>2019-09-19T11:06:52.001Z</time>
      </trkpt>
      <trkpt lat="50.11886" lon="3.78332">
        <ele>132.916</ele>
        <time>2019-09-19T11:06:55.001Z</time>
      </trkpt>
      <trkpt lat="50.11886" lon="3.78361">
        <ele>132.923</ele>
        <time>2019-09-19T11:06:58.001Z</time>
      </trkpt>
      <trkpt lat="50.11894" lon="3.78389">
        <ele>133.078</ele>
        <time>2019-09-19T11:07:01.001Z</time>
      </trkpt>
      <trkpt lat="50.119" lon="3.78417">
        <ele>132.714</ele>
        <time>2019-09-19T11:07:04.001Z</time>
      </trkpt>
      <trkpt lat="50.119" lon="3.78446">
        <ele>132.06</ele>
        <time>2019-09-19T11:07:07.001Z</time>
      </trkpt>
      <trkpt lat="50.11895" lon="3.78471">
        <ele>131.304</ele>
        <time>2019-09-19T11:07:10.001Z</time>
      </trkpt>
      <trkpt lat="50.11887" lon="3.78494">
        <ele>130.802</ele>
        <time>2019-09-19T11:07:13.001Z</time>
      </trkpt>
      <trkpt lat="50.11877" lon="3.78517">
        <ele>130.997</ele>
        <time>2019-09-19T11:07:16.000Z</time>
      </trkpt>
      <trkpt lat="50.11868" lon="3.78538">
        <ele>131.94</ele>
        <time>2019-09-19T11:07:19.001Z</time>
      </trkpt>
      <trkpt lat="50.11859" lon="3.7856">
        <ele>132.682</ele>
        <time>2019-09-19T11:07:22.001Z</time>
      </trkpt>
      <trkpt lat="50.11851" lon="3.78581">
        <ele>133.654</ele>
        <time>2019-09-19T11:07:25.001Z</time>
      </trkpt>
      <trkpt lat="50.11845" lon="3.78603">
        <ele>134.107</ele>
        <time>2019-09-19T11:07:28.001Z</time>
      </trkpt>
      <trkpt lat="50.1184" lon="3.78623">
        <ele>134.465</ele>
        <time>2019-09-19T11:07:31.001Z</time>
      </trkpt>
      <trkpt lat="50.11834" lon="3.78643">
        <ele>134.43</ele>
        <time>2019-09-19T11:07:34.001Z</time>
      </trkpt>
      <trkpt lat="50.11828" lon="3.78664">
        <ele>133.913</ele>
        <time>2019-09-19T11:07:37.001Z</time>
      </trkpt>
      <trkpt lat="50.11822" lon="3.78684">
        <ele>134.016</ele>
        <time>2019-09-19T11:07:40.001Z</time>
      </trkpt>
      <trkpt lat="50.11816" lon="3.78704">
        <ele>134.599</ele>
        <time>2019-09-19T11:07:43.001Z</time>
      </trkpt>
      <trkpt lat="50.1181" lon="3.78725">
        <ele>134.643</ele>
        <time>2019-09-19T11:07:46.001Z</time>
      </trkpt>
      <trkpt lat="50.11805" lon="3.78745">
        <ele>134.252</ele>
        <time>2019-09-19T11:07:49.001Z</time>
      </trkpt>
      <trkpt lat="50.11799" lon="3.78765">
        <ele>133.765</ele>
        <time>2019-09-19T11:07:52.001Z</time>
      </trkpt>
      <trkpt lat="50.11794" lon="3.78786">
        <ele>133.683</ele>
        <time>2019-09-19T11:07:55.001Z</time>
      </trkpt>
      <trkpt lat="50.11788" lon="3.78806">
        <ele>133.494</ele>
        <time>2019-09-19T11:07:58.001Z</time>
      </trkpt>
      <trkpt lat="50.11782" lon="3.78827">
        <ele>133.296</ele>
        <time>2019-09-19T11:08:01.001Z</time>
      </trkpt>
      <trkpt lat="50.11777" lon="3.78848">
        <ele>133.038</ele>
        <time>2019-09-19T11:08:04.001Z</time>
      </trkpt>
      <trkpt lat="50.11772" lon="3.78869">
        <ele>133.124</ele>
        <time>2019-09-19T11:08:07.001Z</time>
      </trkpt>
      <trkpt lat="50.11768" lon="3.78889">
        <ele>133.013</ele>
        <time>2019-09-19T11:08:10.001Z</time>
      </trkpt>
      <trkpt lat="50.11763" lon="3.78913">
        <ele>133.03</ele>
        <time>2019-09-19T11:08:13.001Z</time>
      </trkpt>
      <trkpt lat="50.11757" lon="3.78936">
        <ele>133.029</ele>
        <time>2019-09-19T11:08:16.000Z</time>
      </trkpt>
      <trkpt lat="50.11753" lon="3.78958">
        <ele>132.526</ele>
        <time>2019-09-19T11:08:19.001Z</time>
      </trkpt>
      <trkpt lat="50.11748" lon="3.7898">
        <ele>132.315</ele>
        <time>2019-09-19T11:08:22.001Z</time>
      </trkpt>
      <trkpt lat="50.11743" lon="3.79002">
        <ele>132.543</ele>
        <time>2019-09-19T11:08:25.001Z</time>
      </trkpt>
      <trkpt lat="50.11738" lon="3.79025">
        <ele>132.787</ele>
        <time>2019-09-19T11:08:28.001Z</time>
      </trkpt>
      <trkpt lat="50.11733" lon="3.79047">
        <ele>132.884</ele>
        <time>2019-09-19T11:08:31.001Z</time>
      </trkpt>
      <trkpt lat="50.11728" lon="3.7907">
        <ele>133.387</ele>
        <time>2019-09-19T11:08:34.001Z</time>
      </trkpt>
      <trkpt lat="50.11725" lon="3.79094">
        <ele>133.282</ele>
        <time>2019-09-19T11:08:37.001Z</time>
      </trkpt>
      <trkpt lat="50.11722" lon="3.79119">
        <ele>133.154</ele>
        <time>2019-09-19T11:08:40.001Z</time>
      </trkpt>
      <trkpt lat="50.1172" lon="3.79143">
        <ele>133.664</ele>
        <time>2019-09-19T11:08:43.001Z</time>
      </trkpt>
      <trkpt lat="50.11717" lon="3.79167">
        <ele>133.61</ele>
        <time>2019-09-19T11:08:46.001Z</time>
      </trkpt>
      <trkpt lat="50.11715" lon="3.7919">
        <ele>133.76</ele>
        <time>2019-09-19T11:08:49.001Z</time>
      </trkpt>
      <trkpt lat="50.11711" lon="3.79211">
        <ele>133.847</ele>
        <time>2019-09-19T11:08:52.001Z</time>
      </trkpt>
      <trkpt lat="50.11709" lon="3.79233">
        <ele>134.484</ele>
        <time>2019-09-19T11:08:55.001Z</time>
      </trkpt>
      <trkpt lat="50.11706" lon="3.79255">
        <ele>135.121</ele>
        <time>2019-09-19T11:08:58.001Z</time>
      </trkpt>
      <trkpt lat="50.11703" lon="3.79277">
        <ele>135.681</ele>
        <time>2019-09-19T11:09:01.001Z</time>
      </trkpt>
      <trkpt lat="50.11699" lon="3.79298">
        <ele>135.825</ele>
        <time>2019-09-19T11:09:04.001Z</time>
      </trkpt>
      <trkpt lat="50.11696" lon="3.79319">
        <ele>136.194</ele>
        <time>2019-09-19T11:09:07.001Z</time>
      </trkpt>
      <trkpt lat="50.11693" lon="3.7934">
        <ele>136.599</ele>
        <time>2019-09-19T11:09:10.001Z</time>
      </trkpt>
      <trkpt lat="50.1169" lon="3.79362">
        <ele>137.071</ele>
        <time>2019-09-19T11:09:13.001Z</time>
      </trkpt>
      <trkpt lat="50.11687" lon="3.79384">
        <ele>137.238</ele>
        <time>2019-09-19T11:09:16.000Z</time>
      </trkpt>
      <trkpt lat="50.11683" lon="3.79406">
        <ele>137.37</ele>
        <time>2019-09-19T11:09:19.001Z</time>
      </trkpt>
      <trkpt lat="50.1168" lon="3.79428">
        <ele>137.455</ele>
        <time>2019-09-19T11:09:22.001Z</time>
      </trkpt>
      <trkpt lat="50.11676" lon="3.79451">
        <ele>137.384</ele>
        <time>2019-09-19T11:09:25.001Z</time>
      </trkpt>
      <trkpt lat="50.11674" lon="3.79474">
        <ele>137.537</ele>
        <time>2019-09-19T11:09:28.001Z</time>
      </trkpt>
      <trkpt lat="50.1167" lon="3.79498">
        <ele>136.958</ele>
        <time>2019-09-19T11:09:31.001Z</time>
      </trkpt>
      <trkpt lat="50.11666" lon="3.79521">
        <ele>135.779</ele>
        <time>2019-09-19T11:09:34.001Z</time>
      </trkpt>
      <trkpt lat="50.11661" lon="3.79545">
        <ele>134.731</ele>
        <time>2019-09-19T11:09:37.001Z</time>
      </trkpt>
      <trkpt lat="50.11656" lon="3.79568">
        <ele>134.155</ele>
        <time>2019-09-19T11:09:40.001Z</time>
      </trkpt>
      <trkpt lat="50.1165" lon="3.79591">
        <ele>133.811</ele>
        <time>2019-09-19T11:09:43.001Z</time>
      </trkpt>
      <trkpt lat="50.11643" lon="3.79614">
        <ele>133.995</ele>
        <time>2019-09-19T11:09:46.001Z</time>
      </trkpt>
      <trkpt lat="50.11636" lon="3.79635">
        <ele>134.197</ele>
        <time>2019-09-19T11:09:49.001Z</time>
      </trkpt>
      <trkpt lat="50.1163" lon="3.79654">
        <ele>135.024</ele>
        <time>2019-09-19T11:09:52.001Z</time>
      </trkpt>
      <trkpt lat="50.11625" lon="3.79674">
        <ele>134.929</ele>
        <time>2019-09-19T11:09:55.001Z</time>
      </trkpt>
      <trkpt lat="50.11618" lon="3.79693">
        <ele>135.133</ele>
        <time>2019-09-19T11:09:58.001Z</time>
      </trkpt>
      <trkpt lat="50.11611" lon="3.79713">
        <ele>135.275</ele>
        <time>2019-09-19T11:10:01.001Z</time>
      </trkpt>
      <trkpt lat="50.11602" lon="3.79731">
        <ele>135.468</ele>
        <time>2019-09-19T11:10:04.001Z</time>
      </trkpt>
      <trkpt lat="50.11592" lon="3.79748">
        <ele>135.581</ele>
        <time>2019-09-19T11:10:07.001Z</time>
      </trkpt>
      <trkpt lat="50.11582" lon="3.79766">
        <ele>135.668</ele>
        <time>2019-09-19T11:10:10.001Z</time>
      </trkpt>
      <trkpt lat="50.11574" lon="3.79783">
        <ele>135.922</ele>
        <time>2019-09-19T11:10:13.001Z</time>
      </trkpt>
      <trkpt lat="50.11567" lon="3.798">
        <ele>136.719</ele>
        <time>2019-09-19T11:10:16.000Z</time>
      </trkpt>
      <trkpt lat="50.1156" lon="3.79815">
        <ele>137.299</ele>
        <time>2019-09-19T11:10:19.002Z</time>
      </trkpt>
      <trkpt lat="50.11555" lon="3.79831">
        <ele>137.984</ele>
        <time>2019-09-19T11:10:22.001Z</time>
      </trkpt>
      <trkpt lat="50.11549" lon="3.79847">
        <ele>138.848</ele>
        <time>2019-09-19T11:10:25.001Z</time>
      </trkpt>
      <trkpt lat="50.11543" lon="3.79864">
        <ele>139.758</ele>
        <time>2019-09-19T11:10:28.001Z</time>
      </trkpt>
      <trkpt lat="50.11537" lon="3.7988">
        <ele>140.945</ele>
        <time>2019-09-19T11:10:31.001Z</time>
      </trkpt>
      <trkpt lat="50.1153" lon="3.79894">
        <ele>141.344</ele>
        <time>2019-09-19T11:10:34.001Z</time>
      </trkpt>
      <trkpt lat="50.11523" lon="3.7991">
        <ele>141.776</ele>
        <time>2019-09-19T11:10:37.001Z</time>
      </trkpt>
      <trkpt lat="50.11515" lon="3.79924">
        <ele>141.914</ele>
        <time>2019-09-19T11:10:40.001Z</time>
      </trkpt>
      <trkpt lat="50.1151" lon="3.79937">
        <ele>143.212</ele>
        <time>2019-09-19T11:10:43.001Z</time>
      </trkpt>
      <trkpt lat="50.11502" lon="3.79951">
        <ele>142.89</ele>
        <time>2019-09-19T11:10:46.001Z</time>
      </trkpt>
      <trkpt lat="50.11494" lon="3.79966">
        <ele>142.412</ele>
        <time>2019-09-19T11:10:49.001Z</time>
      </trkpt>
      <trkpt lat="50.11484" lon="3.7998">
        <ele>141.648</ele>
        <time>2019-09-19T11:10:52.001Z</time>
      </trkpt>
      <trkpt lat="50.11473" lon="3.79995">
        <ele>141.099</ele>
        <time>2019-09-19T11:10:55.001Z</time>
      </trkpt>
      <trkpt lat="50.11462" lon="3.80011">
        <ele>141.425</ele>
        <time>2019-09-19T11:10:58.001Z</time>
      </trkpt>
      <trkpt lat="50.11451" lon="3.80026">
        <ele>141.568</ele>
        <time>2019-09-19T11:11:01.001Z</time>
      </trkpt>
      <trkpt lat="50.1144" lon="3.8004">
        <ele>141.529</ele>
        <time>2019-09-19T11:11:04.001Z</time>
      </trkpt>
      <trkpt lat="50.11429" lon="3.80054">
        <ele>141.776</ele>
        <time>2019-09-19T11:11:07.001Z</time>
      </trkpt>
      <trkpt lat="50.1142" lon="3.8007">
        <ele>141.737</ele>
        <time>2019-09-19T11:11:10.001Z</time>
      </trkpt>
      <trkpt lat="50.11412" lon="3.80085">
        <ele>140.924</ele>
        <time>2019-09-19T11:11:13.001Z</time>
      </trkpt>
      <trkpt lat="50.11405" lon="3.801">
        <ele>140.436</ele>
        <time>2019-09-19T11:11:16.000Z</time>
      </trkpt>
      <trkpt lat="50.11399" lon="3.80115">
        <ele>140.07</ele>
        <time>2019-09-19T11:11:19.001Z</time>
      </trkpt>
      <trkpt lat="50.11392" lon="3.80132">
        <ele>139.549</ele>
        <time>2019-09-19T11:11:22.001Z</time>
      </trkpt>
      <trkpt lat="50.11386" lon="3.80149">
        <ele>139.272</ele>
        <time>2019-09-19T11:11:25.001Z</time>
      </trkpt>
      <trkpt lat="50.11381" lon="3.80167">
        <ele>138.571</ele>
        <time>2019-09-19T11:11:28.001Z</time>
      </trkpt>
      <trkpt lat="50.11379" lon="3.80186">
        <ele>138.199</ele>
        <time>2019-09-19T11:11:31.001Z</time>
      </trkpt>
      <trkpt lat="50.11377" lon="3.80204">
        <ele>138.252</ele>
        <time>2019-09-19T11:11:34.001Z</time>
      </trkpt>
      <trkpt lat="50.11375" lon="3.80223">
        <ele>138.519</ele>
        <time>2019-09-19T11:11:37.001Z</time>
      </trkpt>
      <trkpt lat="50.11372" lon="3.80241">
        <ele>138.165</ele>
        <time>2019-09-19T11:11:40.001Z</time>
      </trkpt>
      <trkpt lat="50.11365" lon="3.80255">
        <ele>137.035</ele>
        <time>2019-09-19T11:11:43.001Z</time>
      </trkpt>
      <trkpt lat="50.11354" lon="3.80269">
        <ele>136.144</ele>
        <time>2019-09-19T11:11:46.001Z</time>
      </trkpt>
      <trkpt lat="50.11342" lon="3.80282">
        <ele>136.052</ele>
        <time>2019-09-19T11:11:49.001Z</time>
      </trkpt>
      <trkpt lat="50.1133" lon="3.80295">
        <ele>136.933</ele>
        <time>2019-09-19T11:11:52.001Z</time>
      </trkpt>
      <trkpt lat="50.1132" lon="3.80309">
        <ele>136.444</ele>
        <time>2019-09-19T11:11:55.001Z</time>
      </trkpt>
      <trkpt lat="50.1131" lon="3.8032">
        <ele>135.829</ele>
        <time>2019-09-19T11:11:58.001Z</time>
      </trkpt>
      <trkpt lat="50.11299" lon="3.80331">
        <ele>135.945</ele>
        <time>2019-09-19T11:12:01.001Z</time>
      </trkpt>
      <trkpt lat="50.11289" lon="3.80343">
        <ele>136.628</ele>
        <time>2019-09-19T11:12:04.001Z</time>
      </trkpt>
      <trkpt lat="50.11278" lon="3.80353">
        <ele>137.754</ele>
        <time>2019-09-19T11:12:07.001Z</time>
      </trkpt>
      <trkpt lat="50.11268" lon="3.80363">
        <ele>138.834</ele>
        <time>2019-09-19T11:12:10.001Z</time>
      </trkpt>
      <trkpt lat="50.11256" lon="3.80373">
        <ele>139.599</ele>
        <time>2019-09-19T11:12:13.001Z</time>
      </trkpt>
      <trkpt lat="50.11246" lon="3.80386">
        <ele>140.036</ele>
        <time>2019-09-19T11:12:16.000Z</time>
      </trkpt>
      <trkpt lat="50.11238" lon="3.80402">
        <ele>140.844</ele>
        <time>2019-09-19T11:12:19.001Z</time>
      </trkpt>
      <trkpt lat="50.11233" lon="3.8042">
        <ele>141.388</ele>
        <time>2019-09-19T11:12:22.001Z</time>
      </trkpt>
      <trkpt lat="50.1123" lon="3.8044">
        <ele>141.775</ele>
        <time>2019-09-19T11:12:25.001Z</time>
      </trkpt>
      <trkpt lat="50.11231" lon="3.80459">
        <ele>141.818</ele>
        <time>2019-09-19T11:12:28.001Z</time>
      </trkpt>
      <trkpt lat="50.11236" lon="3.80479">
        <ele>141.215</ele>
        <time>2019-09-19T11:12:31.001Z</time>
      </trkpt>
      <trkpt lat="50.11238" lon="3.80501">
        <ele>141.611</ele>
        <time>2019-09-19T11:12:34.001Z</time>
      </trkpt>
      <trkpt lat="50.11236" lon="3.80527">
        <ele>141.181</ele>
        <time>2019-09-19T11:12:37.001Z</time>
      </trkpt>
      <trkpt lat="50.11231" lon="3.80551">
        <ele>141.326</ele>
        <time>2019-09-19T11:12:40.001Z</time>
      </trkpt>
      <trkpt lat="50.11222" lon="3.80569">
        <ele>141.303</ele>
        <time>2019-09-19T11:12:43.001Z</time>
      </trkpt>
      <trkpt lat="50.11211" lon="3.80583">
        <ele>141.205</ele>
        <time>2019-09-19T11:12:46.001Z</time>
      </trkpt>
      <trkpt lat="50.11199" lon="3.80594">
        <ele>141.013</ele>
        <time>2019-09-19T11:12:49.001Z</time>
      </trkpt>
      <trkpt lat="50.11187" lon="3.80608">
        <ele>140.994</ele>
        <time>2019-09-19T11:12:52.001Z</time>
      </trkpt>
      <trkpt lat="50.11176" lon="3.80623">
        <ele>141.118</ele>
        <time>2019-09-19T11:12:55.001Z</time>
      </trkpt>
      <trkpt lat="50.11165" lon="3.80639">
        <ele>140.993</ele>
        <time>2019-09-19T11:12:58.001Z</time>
      </trkpt>
      <trkpt lat="50.11155" lon="3.80655">
        <ele>140.664</ele>
        <time>2019-09-19T11:13:01.001Z</time>
      </trkpt>
      <trkpt lat="50.11147" lon="3.80672">
        <ele>140.231</ele>
        <time>2019-09-19T11:13:04.001Z</time>
      </trkpt>
      <trkpt lat="50.11141" lon="3.80691">
        <ele>140.114</ele>
        <time>2019-09-19T11:13:07.001Z</time>
      </trkpt>
      <trkpt lat="50.11137" lon="3.80712">
        <ele>139.477</ele>
        <time>2019-09-19T11:13:10.001Z</time>
      </trkpt>
      <trkpt lat="50.11135" lon="3.80736">
        <ele>138.385</ele>
        <time>2019-09-19T11:13:13.001Z</time>
      </trkpt>
      <trkpt lat="50.11131" lon="3.8076">
        <ele>137.687</ele>
        <time>2019-09-19T11:13:16.000Z</time>
      </trkpt>
      <trkpt lat="50.11129" lon="3.80783">
        <ele>137.185</ele>
        <time>2019-09-19T11:13:19.001Z</time>
      </trkpt>
      <trkpt lat="50.11125" lon="3.80805">
        <ele>137.008</ele>
        <time>2019-09-19T11:13:22.001Z</time>
      </trkpt>
      <trkpt lat="50.11118" lon="3.80825">
        <ele>137.119</ele>
        <time>2019-09-19T11:13:25.001Z</time>
      </trkpt>
      <trkpt lat="50.11111" lon="3.80841">
        <ele>137.178</ele>
        <time>2019-09-19T11:13:28.001Z</time>
      </trkpt>
      <trkpt lat="50.11102" lon="3.80854">
        <ele>137.529</ele>
        <time>2019-09-19T11:13:31.001Z</time>
      </trkpt>
      <trkpt lat="50.11094" lon="3.80866">
        <ele>137.98</ele>
        <time>2019-09-19T11:13:34.001Z</time>
      </trkpt>
      <trkpt lat="50.11085" lon="3.80878">
        <ele>137.701</ele>
        <time>2019-09-19T11:13:37.001Z</time>
      </trkpt>
      <trkpt lat="50.11074" lon="3.80886">
        <ele>137.504</ele>
        <time>2019-09-19T11:13:40.001Z</time>
      </trkpt>
      <trkpt lat="50.11061" lon="3.80891">
        <ele>137.688</ele>
        <time>2019-09-19T11:13:43.001Z</time>
      </trkpt>
      <trkpt lat="50.11048" lon="3.80894">
        <ele>138.132</ele>
        <time>2019-09-19T11:13:46.001Z</time>
      </trkpt>
      <trkpt lat="50.11037" lon="3.809">
        <ele>138.618</ele>
        <time>2019-09-19T11:13:49.001Z</time>
      </trkpt>
      <trkpt lat="50.11027" lon="3.8091">
        <ele>139.309</ele>
        <time>2019-09-19T11:13:52.001Z</time>
      </trkpt>
      <trkpt lat="50.1102" lon="3.80921">
        <ele>140.27</ele>
        <time>2019-09-19T11:13:55.001Z</time>
      </trkpt>
      <trkpt lat="50.1101" lon="3.80934">
        <ele>141.477</ele>
        <time>2019-09-19T11:13:58.001Z</time>
      </trkpt>
      <trkpt lat="50.11003" lon="3.80952">
        <ele>142.719</ele>
        <time>2019-09-19T11:14:01.001Z</time>
      </trkpt>
      <trkpt lat="50.10999" lon="3.80973">
        <ele>143.271</ele>
        <time>2019-09-19T11:14:04.001Z</time>
      </trkpt>
      <trkpt lat="50.10996" lon="3.80993">
        <ele>143.876</ele>
        <time>2019-09-19T11:14:07.001Z</time>
      </trkpt>
      <trkpt lat="50.10994" lon="3.81012">
        <ele>143.925</ele>
        <time>2019-09-19T11:14:10.001Z</time>
      </trkpt>
      <trkpt lat="50.10993" lon="3.81031">
        <ele>144.131</ele>
        <time>2019-09-19T11:14:13.001Z</time>
      </trkpt>
      <trkpt lat="50.10991" lon="3.8105">
        <ele>144.002</ele>
        <time>2019-09-19T11:14:16.000Z</time>
      </trkpt>
      <trkpt lat="50.1099" lon="3.81069">
        <ele>143.656</ele>
        <time>2019-09-19T11:14:19.001Z</time>
      </trkpt>
      <trkpt lat="50.10988" lon="3.81089">
        <ele>144.168</ele>
        <time>2019-09-19T11:14:22.001Z</time>
      </trkpt>
      <trkpt lat="50.10986" lon="3.81111">
        <ele>143.605</ele>
        <time>2019-09-19T11:14:25.001Z</time>
      </trkpt>
      <trkpt lat="50.10984" lon="3.81132">
        <ele>142.953</ele>
        <time>2019-09-19T11:14:28.001Z</time>
      </trkpt>
      <trkpt lat="50.10983" lon="3.81155">
        <ele>142.475</ele>
        <time>2019-09-19T11:14:31.001Z</time>
      </trkpt>
      <trkpt lat="50.10984" lon="3.81176">
        <ele>141.811</ele>
        <time>2019-09-19T11:14:34.001Z</time>
      </trkpt>
      <trkpt lat="50.10987" lon="3.812">
        <ele>140.981</ele>
        <time>2019-09-19T11:14:37.001Z</time>
      </trkpt>
      <trkpt lat="50.1099" lon="3.81224">
        <ele>140.147</ele>
        <time>2019-09-19T11:14:40.001Z</time>
      </trkpt>
      <trkpt lat="50.10993" lon="3.81248">
        <ele>138.931</ele>
        <time>2019-09-19T11:14:43.001Z</time>
      </trkpt>
      <trkpt lat="50.10995" lon="3.81273">
        <ele>137.964</ele>
        <time>2019-09-19T11:14:46.001Z</time>
      </trkpt>
      <trkpt lat="50.10994" lon="3.81297">
        <ele>136.994</ele>
        <time>2019-09-19T11:14:49.001Z</time>
      </trkpt>
      <trkpt lat="50.10991" lon="3.8132">
        <ele>136.483</ele>
        <time>2019-09-19T11:14:52.001Z</time>
      </trkpt>
      <trkpt lat="50.10986" lon="3.81339">
        <ele>136.479</ele>
        <time>2019-09-19T11:14:55.001Z</time>
      </trkpt>
      <trkpt lat="50.1098" lon="3.81357">
        <ele>136.487</ele>
        <time>2019-09-19T11:14:58.001Z</time>
      </trkpt>
      <trkpt lat="50.10975" lon="3.81371">
        <ele>136.552</ele>
        <time>2019-09-19T11:15:01.001Z</time>
      </trkpt>
      <trkpt lat="50.10968" lon="3.81385">
        <ele>137.153</ele>
        <time>2019-09-19T11:15:04.001Z</time>
      </trkpt>
      <trkpt lat="50.1096" lon="3.81396">
        <ele>137.912</ele>
        <time>2019-09-19T11:15:07.001Z</time>
      </trkpt>
      <trkpt lat="50.10953" lon="3.81407">
        <ele>138.676</ele>
        <time>2019-09-19T11:15:10.001Z</time>
      </trkpt>
      <trkpt lat="50.10945" lon="3.81418">
        <ele>139.1</ele>
        <time>2019-09-19T11:15:13.001Z</time>
      </trkpt>
      <trkpt lat="50.10937" lon="3.81428">
        <ele>139.885</ele>
        <time>2019-09-19T11:15:16.000Z</time>
      </trkpt>
      <trkpt lat="50.1093" lon="3.81438">
        <ele>140.471</ele>
        <time>2019-09-19T11:15:19.001Z</time>
      </trkpt>
      <trkpt lat="50.10921" lon="3.81449">
        <ele>141.024</ele>
        <time>2019-09-19T11:15:22.001Z</time>
      </trkpt>
      <trkpt lat="50.10913" lon="3.81459">
        <ele>141.314</ele>
        <time>2019-09-19T11:15:25.001Z</time>
      </trkpt>
      <trkpt lat="50.10904" lon="3.8147">
        <ele>141.883</ele>
        <time>2019-09-19T11:15:28.001Z</time>
      </trkpt>
      <trkpt lat="50.10895" lon="3.81482">
        <ele>142.484</ele>
        <time>2019-09-19T11:15:31.001Z</time>
      </trkpt>
      <trkpt lat="50.10886" lon="3.81493">
        <ele>142.73</ele>
        <time>2019-09-19T11:15:34.001Z</time>
      </trkpt>
      <trkpt lat="50.10878" lon="3.81505">
        <ele>142.92</ele>
        <time>2019-09-19T11:15:37.001Z</time>
      </trkpt>
      <trkpt lat="50.10868" lon="3.81517">
        <ele>142.982</ele>
        <time>2019-09-19T11:15:40.001Z</time>
      </trkpt>
      <trkpt lat="50.1086" lon="3.81529">
        <ele>142.847</ele>
        <time>2019-09-19T11:15:43.001Z</time>
      </trkpt>
      <trkpt lat="50.10851" lon="3.8154">
        <ele>143.025</ele>
        <time>2019-09-19T11:15:46.001Z</time>
      </trkpt>
      <trkpt lat="50.10843" lon="3.81551">
        <ele>143.706</ele>
        <time>2019-09-19T11:15:49.001Z</time>
      </trkpt>
      <trkpt lat="50.10834" lon="3.81563">
        <ele>144.411</ele>
        <time>2019-09-19T11:15:52.001Z</time>
      </trkpt>
      <trkpt lat="50.10825" lon="3.81575">
        <ele>144.35</ele>
        <time>2019-09-19T11:15:55.001Z</time>
      </trkpt>
      <trkpt lat="50.10817" lon="3.81585">
        <ele>144.35</ele>
        <time>2019-09-19T11:15:58.001Z</time>
      </trkpt>
      <trkpt lat="50.10808" lon="3.81596">
        <ele>143.854</ele>
        <time>2019-09-19T11:16:01.001Z</time>
      </trkpt>
      <trkpt lat="50.10799" lon="3.81607">
        <ele>143.526</ele>
        <time>2019-09-19T11:16:04.001Z</time>
      </trkpt>
      <trkpt lat="50.10791" lon="3.81619">
        <ele>143.686</ele>
        <time>2019-09-19T11:16:07.001Z</time>
      </trkpt>
      <trkpt lat="50.10782" lon="3.8163">
        <ele>144.153</ele>
        <time>2019-09-19T11:16:10.001Z</time>
      </trkpt>
      <trkpt lat="50.10774" lon="3.81642">
        <ele>144.944</ele>
        <time>2019-09-19T11:16:13.001Z</time>
      </trkpt>
      <trkpt lat="50.10765" lon="3.81653">
        <ele>145.15</ele>
        <time>2019-09-19T11:16:16.000Z</time>
      </trkpt>
      <trkpt lat="50.10755" lon="3.81664">
        <ele>145.498</ele>
        <time>2019-09-19T11:16:19.001Z</time>
      </trkpt>
      <trkpt lat="50.10745" lon="3.81676">
        <ele>145.971</ele>
        <time>2019-09-19T11:16:22.001Z</time>
      </trkpt>
      <trkpt lat="50.10737" lon="3.81689">
        <ele>145.693</ele>
        <time>2019-09-19T11:16:25.001Z</time>
      </trkpt>
      <trkpt lat="50.10728" lon="3.81701">
        <ele>145.875</ele>
        <time>2019-09-19T11:16:28.001Z</time>
      </trkpt>
      <trkpt lat="50.10718" lon="3.81715">
        <ele>145.967</ele>
        <time>2019-09-19T11:16:31.001Z</time>
      </trkpt>
      <trkpt lat="50.10705" lon="3.81728">
        <ele>145.491</ele>
        <time>2019-09-19T11:16:34.001Z</time>
      </trkpt>
      <trkpt lat="50.10694" lon="3.81742">
        <ele>144.292</ele>
        <time>2019-09-19T11:16:37.001Z</time>
      </trkpt>
      <trkpt lat="50.1068" lon="3.81755">
        <ele>143.711</ele>
        <time>2019-09-19T11:16:40.001Z</time>
      </trkpt>
      <trkpt lat="50.10666" lon="3.81768">
        <ele>143.021</ele>
        <time>2019-09-19T11:16:43.001Z</time>
      </trkpt>
      <trkpt lat="50.1065" lon="3.81777">
        <ele>143.242</ele>
        <time>2019-09-19T11:16:46.001Z</time>
      </trkpt>
      <trkpt lat="50.10634" lon="3.81783">
        <ele>143.789</ele>
        <time>2019-09-19T11:16:49.001Z</time>
      </trkpt>
      <trkpt lat="50.10618" lon="3.81788">
        <ele>143.125</ele>
        <time>2019-09-19T11:16:52.001Z</time>
      </trkpt>
      <trkpt lat="50.10603" lon="3.81793">
        <ele>142.777</ele>
        <time>2019-09-19T11:16:55.001Z</time>
      </trkpt>
      <trkpt lat="50.10588" lon="3.81798">
        <ele>142.282</ele>
        <time>2019-09-19T11:16:58.001Z</time>
      </trkpt>
      <trkpt lat="50.10573" lon="3.81807">
        <ele>142.059</ele>
        <time>2019-09-19T11:17:01.001Z</time>
      </trkpt>
      <trkpt lat="50.10559" lon="3.81818">
        <ele>141.797</ele>
        <time>2019-09-19T11:17:04.001Z</time>
      </trkpt>
      <trkpt lat="50.10543" lon="3.81834">
        <ele>141.138</ele>
        <time>2019-09-19T11:17:07.001Z</time>
      </trkpt>
      <trkpt lat="50.10527" lon="3.81851">
        <ele>140.656</ele>
        <time>2019-09-19T11:17:10.001Z</time>
      </trkpt>
      <trkpt lat="50.10511" lon="3.81867">
        <ele>139.878</ele>
        <time>2019-09-19T11:17:13.001Z</time>
      </trkpt>
      <trkpt lat="50.10495" lon="3.81882">
        <ele>139.513</ele>
        <time>2019-09-19T11:17:16.000Z</time>
      </trkpt>
      <trkpt lat="50.10479" lon="3.81897">
        <ele>139.375</ele>
        <time>2019-09-19T11:17:19.001Z</time>
      </trkpt>
      <trkpt lat="50.10464" lon="3.81909">
        <ele>139.436</ele>
        <time>2019-09-19T11:17:22.001Z</time>
      </trkpt>
      <trkpt lat="50.10447" lon="3.81917">
        <ele>139.349</ele>
        <time>2019-09-19T11:17:25.001Z</time>
      </trkpt>
      <trkpt lat="50.1043" lon="3.81925">
        <ele>139.532</ele>
        <time>2019-09-19T11:17:28.001Z</time>
      </trkpt>
      <trkpt lat="50.10414" lon="3.81934">
        <ele>139.641</ele>
        <time>2019-09-19T11:17:31.001Z</time>
      </trkpt>
      <trkpt lat="50.10398" lon="3.81946">
        <ele>140.225</ele>
        <time>2019-09-19T11:17:34.001Z</time>
      </trkpt>
      <trkpt lat="50.10382" lon="3.8196">
        <ele>140.168</ele>
        <time>2019-09-19T11:17:37.001Z</time>
      </trkpt>
      <trkpt lat="50.10367" lon="3.81976">
        <ele>140.017</ele>
        <time>2019-09-19T11:17:40.001Z</time>
      </trkpt>
      <trkpt lat="50.10353" lon="3.81991">
        <ele>139.889</ele>
        <time>2019-09-19T11:17:43.001Z</time>
      </trkpt>
      <trkpt lat="50.10339" lon="3.82007">
        <ele>139.967</ele>
        <time>2019-09-19T11:17:46.001Z</time>
      </trkpt>
      <trkpt lat="50.10327" lon="3.82025">
        <ele>140.68</ele>
        <time>2019-09-19T11:17:49.001Z</time>
      </trkpt>
      <trkpt lat="50.10314" lon="3.82041">
        <ele>140.605</ele>
        <time>2019-09-19T11:17:52.001Z</time>
      </trkpt>
      <trkpt lat="50.10301" lon="3.82055">
        <ele>140.603</ele>
        <time>2019-09-19T11:17:55.001Z</time>
      </trkpt>
      <trkpt lat="50.1029" lon="3.8207">
        <ele>140.422</ele>
        <time>2019-09-19T11:17:58.001Z</time>
      </trkpt>
      <trkpt lat="50.10279" lon="3.82084">
        <ele>140.358</ele>
        <time>2019-09-19T11:18:01.001Z</time>
      </trkpt>
      <trkpt lat="50.10268" lon="3.82097">
        <ele>140.098</ele>
        <time>2019-09-19T11:18:04.001Z</time>
      </trkpt>
      <trkpt lat="50.10257" lon="3.82111">
        <ele>139.968</ele>
        <time>2019-09-19T11:18:07.001Z</time>
      </trkpt>
      <trkpt lat="50.10247" lon="3.82126">
        <ele>140.118</ele>
        <time>2019-09-19T11:18:10.001Z</time>
      </trkpt>
      <trkpt lat="50.10237" lon="3.8214">
        <ele>140.073</ele>
        <time>2019-09-19T11:18:13.001Z</time>
      </trkpt>
      <trkpt lat="50.10227" lon="3.82154">
        <ele>140.232</ele>
        <time>2019-09-19T11:18:16.000Z</time>
      </trkpt>
      <trkpt lat="50.10216" lon="3.8217">
        <ele>140.509</ele>
        <time>2019-09-19T11:18:19.001Z</time>
      </trkpt>
      <trkpt lat="50.10206" lon="3.82186">
        <ele>140.451</ele>
        <time>2019-09-19T11:18:22.001Z</time>
      </trkpt>
      <trkpt lat="50.10195" lon="3.82201">
        <ele>140.277</ele>
        <time>2019-09-19T11:18:25.001Z</time>
      </trkpt>
      <trkpt lat="50.10185" lon="3.82215">
        <ele>140.253</ele>
        <time>2019-09-19T11:18:28.001Z</time>
      </trkpt>
      <trkpt lat="50.10175" lon="3.8223">
        <ele>140.185</ele>
        <time>2019-09-19T11:18:31.001Z</time>
      </trkpt>
      <trkpt lat="50.10165" lon="3.82245">
        <ele>139.989</ele>
        <time>2019-09-19T11:18:34.001Z</time>
      </trkpt>
      <trkpt lat="50.10154" lon="3.8226">
        <ele>139.616</ele>
        <time>2019-09-19T11:18:37.001Z</time>
      </trkpt>
      <trkpt lat="50.10145" lon="3.82275">
        <ele>139.705</ele>
        <time>2019-09-19T11:18:40.001Z</time>
      </trkpt>
      <trkpt lat="50.10136" lon="3.8229">
        <ele>139.878</ele>
        <time>2019-09-19T11:18:43.001Z</time>
      </trkpt>
      <trkpt lat="50.10127" lon="3.82305">
        <ele>139.891</ele>
        <time>2019-09-19T11:18:46.001Z</time>
      </trkpt>
      <trkpt lat="50.10119" lon="3.82319">
        <ele>139.775</ele>
        <time>2019-09-19T11:18:49.001Z</time>
      </trkpt>
      <trkpt lat="50.10109" lon="3.82333">
        <ele>139.734</ele>
        <time>2019-09-19T11:18:52.001Z</time>
      </trkpt>
      <trkpt lat="50.10097" lon="3.82344">
        <ele>139.432</ele>
        <time>2019-09-19T11:18:55.001Z</time>
      </trkpt>
      <trkpt lat="50.10085" lon="3.82352">
        <ele>140.101</ele>
        <time>2019-09-19T11:18:58.001Z</time>
      </trkpt>
      <trkpt lat="50.10071" lon="3.82353">
        <ele>141.228</ele>
        <time>2019-09-19T11:19:01.001Z</time>
      </trkpt>
      <trkpt lat="50.10057" lon="3.82352">
        <ele>141.883</ele>
        <time>2019-09-19T11:19:04.001Z</time>
      </trkpt>
      <trkpt lat="50.10045" lon="3.82349">
        <ele>141.874</ele>
        <time>2019-09-19T11:19:07.001Z</time>
      </trkpt>
      <trkpt lat="50.10033" lon="3.82345">
        <ele>141.883</ele>
        <time>2019-09-19T11:19:10.001Z</time>
      </trkpt>
      <trkpt lat="50.1002" lon="3.82345">
        <ele>142.501</ele>
        <time>2019-09-19T11:19:13.001Z</time>
      </trkpt>
      <trkpt lat="50.10007" lon="3.82351">
        <ele>142.948</ele>
        <time>2019-09-19T11:19:16.000Z</time>
      </trkpt>
      <trkpt lat="50.09995" lon="3.82362">
        <ele>143.664</ele>
        <time>2019-09-19T11:19:19.001Z</time>
      </trkpt>
      <trkpt lat="50.09983" lon="3.82375">
        <ele>144.068</ele>
        <time>2019-09-19T11:19:22.001Z</time>
      </trkpt>
      <trkpt lat="50.09972" lon="3.82387">
        <ele>144.604</ele>
        <time>2019-09-19T11:19:25.001Z</time>
      </trkpt>
      <trkpt lat="50.09962" lon="3.82398">
        <ele>144.671</ele>
        <time>2019-09-19T11:19:28.001Z</time>
      </trkpt>
      <trkpt lat="50.09952" lon="3.82411">
        <ele>144.508</ele>
        <time>2019-09-19T11:19:31.001Z</time>
      </trkpt>
      <trkpt lat="50.09942" lon="3.82423">
        <ele>144.31</ele>
        <time>2019-09-19T11:19:34.001Z</time>
      </trkpt>
      <trkpt lat="50.09932" lon="3.82434">
        <ele>143.767</ele>
        <time>2019-09-19T11:19:37.001Z</time>
      </trkpt>
      <trkpt lat="50.09923" lon="3.82446">
        <ele>143.125</ele>
        <time>2019-09-19T11:19:40.001Z</time>
      </trkpt>
      <trkpt lat="50.09912" lon="3.82457">
        <ele>142.456</ele>
        <time>2019-09-19T11:19:43.001Z</time>
      </trkpt>
      <trkpt lat="50.09903" lon="3.82469">
        <ele>142.433</ele>
        <time>2019-09-19T11:19:46.001Z</time>
      </trkpt>
      <trkpt lat="50.09893" lon="3.82481">
        <ele>141.854</ele>
        <time>2019-09-19T11:19:49.001Z</time>
      </trkpt>
      <trkpt lat="50.09882" lon="3.82495">
        <ele>141.477</ele>
        <time>2019-09-19T11:19:52.001Z</time>
      </trkpt>
      <trkpt lat="50.09871" lon="3.82511">
        <ele>141.09</ele>
        <time>2019-09-19T11:19:55.001Z</time>
      </trkpt>
      <trkpt lat="50.0986" lon="3.82529">
        <ele>140.948</ele>
        <time>2019-09-19T11:19:58.001Z</time>
      </trkpt>
      <trkpt lat="50.09851" lon="3.82549">
        <ele>140.664</ele>
        <time>2019-09-19T11:20:01.001Z</time>
      </trkpt>
      <trkpt lat="50.09844" lon="3.8257">
        <ele>140.415</ele>
        <time>2019-09-19T11:20:04.001Z</time>
      </trkpt>
      <trkpt lat="50.09839" lon="3.82593">
        <ele>139.628</ele>
        <time>2019-09-19T11:20:07.001Z</time>
      </trkpt>
      <trkpt lat="50.09836" lon="3.82618">
        <ele>139.18</ele>
        <time>2019-09-19T11:20:10.001Z</time>
      </trkpt>
      <trkpt lat="50.09834" lon="3.82642">
        <ele>138.377</ele>
        <time>2019-09-19T11:20:13.001Z</time>
      </trkpt>
      <trkpt lat="50.09833" lon="3.82665">
        <ele>138.264</ele>
        <time>2019-09-19T11:20:16.000Z</time>
      </trkpt>
      <trkpt lat="50.09833" lon="3.82688">
        <ele>138.43</ele>
        <time>2019-09-19T11:20:19.001Z</time>
      </trkpt>
      <trkpt lat="50.09833" lon="3.82708">
        <ele>138.634</ele>
        <time>2019-09-19T11:20:22.001Z</time>
      </trkpt>
      <trkpt lat="50.09832" lon="3.82728">
        <ele>138.883</ele>
        <time>2019-09-19T11:20:25.001Z</time>
      </trkpt>
      <trkpt lat="50.0983" lon="3.82748">
        <ele>139.003</ele>
        <time>2019-09-19T11:20:28.001Z</time>
      </trkpt>
      <trkpt lat="50.09827" lon="3.82768">
        <ele>139.321</ele>
        <time>2019-09-19T11:20:31.001Z</time>
      </trkpt>
      <trkpt lat="50.09823" lon="3.82786">
        <ele>140.033</ele>
        <time>2019-09-19T11:20:34.001Z</time>
      </trkpt>
      <trkpt lat="50.09819" lon="3.82804">
        <ele>140.665</ele>
        <time>2019-09-19T11:20:37.001Z</time>
      </trkpt>
      <trkpt lat="50.09815" lon="3.82822">
        <ele>141.414</ele>
        <time>2019-09-19T11:20:40.001Z</time>
      </trkpt>
      <trkpt lat="50.09809" lon="3.8284">
        <ele>141.518</ele>
        <time>2019-09-19T11:20:43.001Z</time>
      </trkpt>
      <trkpt lat="50.09803" lon="3.82858">
        <ele>141.737</ele>
        <time>2019-09-19T11:20:46.001Z</time>
      </trkpt>
      <trkpt lat="50.09798" lon="3.82875">
        <ele>142.231</ele>
        <time>2019-09-19T11:20:49.001Z</time>
      </trkpt>
      <trkpt lat="50.09794" lon="3.82893">
        <ele>142.772</ele>
        <time>2019-09-19T11:20:52.001Z</time>
      </trkpt>
      <trkpt lat="50.0979" lon="3.82909">
        <ele>143.118</ele>
        <time>2019-09-19T11:20:55.001Z</time>
      </trkpt>
      <trkpt lat="50.09786" lon="3.82925">
        <ele>144.265</ele>
        <time>2019-09-19T11:20:58.001Z</time>
      </trkpt>
      <trkpt lat="50.09782" lon="3.82941">
        <ele>145.17</ele>
        <time>2019-09-19T11:21:01.001Z</time>
      </trkpt>
      <trkpt lat="50.09777" lon="3.82957">
        <ele>146.029</ele>
        <time>2019-09-19T11:21:04.001Z</time>
      </trkpt>
      <trkpt lat="50.09774" lon="3.82972">
        <ele>147.232</ele>
        <time>2019-09-19T11:21:07.001Z</time>
      </trkpt>
      <trkpt lat="50.0977" lon="3.82987">
        <ele>148.323</ele>
        <time>2019-09-19T11:21:10.001Z</time>
      </trkpt>
      <trkpt lat="50.09767" lon="3.83003">
        <ele>149.088</ele>
        <time>2019-09-19T11:21:13.001Z</time>
      </trkpt>
      <trkpt lat="50.09763" lon="3.83021">
        <ele>149.534</ele>
        <time>2019-09-19T11:21:16.000Z</time>
      </trkpt>
      <trkpt lat="50.09759" lon="3.83041">
        <ele>149.987</ele>
        <time>2019-09-19T11:21:19.001Z</time>
      </trkpt>
      <trkpt lat="50.09753" lon="3.83062">
        <ele>150.598</ele>
        <time>2019-09-19T11:21:22.001Z</time>
      </trkpt>
      <trkpt lat="50.09746" lon="3.83081">
        <ele>150.449</ele>
        <time>2019-09-19T11:21:25.001Z</time>
      </trkpt>
      <trkpt lat="50.09743" lon="3.831">
        <ele>150.329</ele>
        <time>2019-09-19T11:21:28.001Z</time>
      </trkpt>
      <trkpt lat="50.0974" lon="3.83121">
        <ele>150.313</ele>
        <time>2019-09-19T11:21:31.001Z</time>
      </trkpt>
      <trkpt lat="50.09738" lon="3.83143">
        <ele>150.113</ele>
        <time>2019-09-19T11:21:34.001Z</time>
      </trkpt>
      <trkpt lat="50.09735" lon="3.83164">
        <ele>150.598</ele>
        <time>2019-09-19T11:21:37.001Z</time>
      </trkpt>
      <trkpt lat="50.09735" lon="3.83184">
        <ele>149.844</ele>
        <time>2019-09-19T11:21:40.001Z</time>
      </trkpt>
      <trkpt lat="50.09737" lon="3.83204">
        <ele>149.58</ele>
        <time>2019-09-19T11:21:43.001Z</time>
      </trkpt>
      <trkpt lat="50.09736" lon="3.83224">
        <ele>149.003</ele>
        <time>2019-09-19T11:21:46.001Z</time>
      </trkpt>
      <trkpt lat="50.09736" lon="3.83244">
        <ele>148.257</ele>
        <time>2019-09-19T11:21:49.001Z</time>
      </trkpt>
      <trkpt lat="50.09733" lon="3.83264">
        <ele>147.569</ele>
        <time>2019-09-19T11:21:52.001Z</time>
      </trkpt>
      <trkpt lat="50.09729" lon="3.83286">
        <ele>146.482</ele>
        <time>2019-09-19T11:21:55.001Z</time>
      </trkpt>
      <trkpt lat="50.09724" lon="3.83309">
        <ele>145.441</ele>
        <time>2019-09-19T11:21:58.001Z</time>
      </trkpt>
      <trkpt lat="50.09718" lon="3.83333">
        <ele>144.5</ele>
        <time>2019-09-19T11:22:01.001Z</time>
      </trkpt>
      <trkpt lat="50.09711" lon="3.83359">
        <ele>143.651</ele>
        <time>2019-09-19T11:22:04.001Z</time>
      </trkpt>
      <trkpt lat="50.09704" lon="3.83385">
        <ele>143.007</ele>
        <time>2019-09-19T11:22:07.001Z</time>
      </trkpt>
      <trkpt lat="50.09697" lon="3.83409">
        <ele>142.751</ele>
        <time>2019-09-19T11:22:10.001Z</time>
      </trkpt>
      <trkpt lat="50.09689" lon="3.83433">
        <ele>142.083</ele>
        <time>2019-09-19T11:22:13.001Z</time>
      </trkpt>
      <trkpt lat="50.09678" lon="3.83455">
        <ele>141.771</ele>
        <time>2019-09-19T11:22:16.000Z</time>
      </trkpt>
      <trkpt lat="50.09665" lon="3.83473">
        <ele>141.325</ele>
        <time>2019-09-19T11:22:19.001Z</time>
      </trkpt>
      <trkpt lat="50.09649" lon="3.83486">
        <ele>141.398</ele>
        <time>2019-09-19T11:22:22.001Z</time>
      </trkpt>
      <trkpt lat="50.09632" lon="3.83494">
        <ele>141.215</ele>
        <time>2019-09-19T11:22:25.001Z</time>
      </trkpt>
      <trkpt lat="50.09615" lon="3.83498">
        <ele>141.536</ele>
        <time>2019-09-19T11:22:28.001Z</time>
      </trkpt>
      <trkpt lat="50.096" lon="3.83501">
        <ele>141.326</ele>
        <time>2019-09-19T11:22:31.001Z</time>
      </trkpt>
      <trkpt lat="50.09585" lon="3.83504">
        <ele>141.38</ele>
        <time>2019-09-19T11:22:34.001Z</time>
      </trkpt>
      <trkpt lat="50.0957" lon="3.83507">
        <ele>141.34</ele>
        <time>2019-09-19T11:22:37.001Z</time>
      </trkpt>
      <trkpt lat="50.09555" lon="3.8351">
        <ele>141.539</ele>
        <time>2019-09-19T11:22:40.001Z</time>
      </trkpt>
      <trkpt lat="50.09542" lon="3.83513">
        <ele>141.986</ele>
        <time>2019-09-19T11:22:43.001Z</time>
      </trkpt>
      <trkpt lat="50.09529" lon="3.83517">
        <ele>142.449</ele>
        <time>2019-09-19T11:22:46.001Z</time>
      </trkpt>
      <trkpt lat="50.09516" lon="3.83519">
        <ele>142.965</ele>
        <time>2019-09-19T11:22:49.001Z</time>
      </trkpt>
      <trkpt lat="50.09504" lon="3.83521">
        <ele>143.578</ele>
        <time>2019-09-19T11:22:52.001Z</time>
      </trkpt>
      <trkpt lat="50.09491" lon="3.83522">
        <ele>143.361</ele>
        <time>2019-09-19T11:22:55.001Z</time>
      </trkpt>
      <trkpt lat="50.09479" lon="3.83519">
        <ele>143.718</ele>
        <time>2019-09-19T11:22:58.001Z</time>
      </trkpt>
      <trkpt lat="50.09467" lon="3.83513">
        <ele>144.17</ele>
        <time>2019-09-19T11:23:01.001Z</time>
      </trkpt>
      <trkpt lat="50.09456" lon="3.83506">
        <ele>144.344</ele>
        <time>2019-09-19T11:23:04.001Z</time>
      </trkpt>
      <trkpt lat="50.09446" lon="3.83497">
        <ele>144.839</ele>
        <time>2019-09-19T11:23:07.001Z</time>
      </trkpt>
      <trkpt lat="50.09437" lon="3.83486">
        <ele>145.315</ele>
        <time>2019-09-19T11:23:10.001Z</time>
      </trkpt>
      <trkpt lat="50.09429" lon="3.83476">
        <ele>145.854</ele>
        <time>2019-09-19T11:23:13.001Z</time>
      </trkpt>
      <trkpt lat="50.0942" lon="3.83467">
        <ele>146.627</ele>
        <time>2019-09-19T11:23:16.000Z</time>
      </trkpt>
      <trkpt lat="50.0941" lon="3.83459">
        <ele>147.382</ele>
        <time>2019-09-19T11:23:19.001Z</time>
      </trkpt>
      <trkpt lat="50.09402" lon="3.8345">
        <ele>148.074</ele>
        <time>2019-09-19T11:23:22.001Z</time>
      </trkpt>
      <trkpt lat="50.09393" lon="3.83443">
        <ele>148.215</ele>
        <time>2019-09-19T11:23:25.001Z</time>
      </trkpt>
      <trkpt lat="50.09383" lon="3.83438">
        <ele>147.721</ele>
        <time>2019-09-19T11:23:28.001Z</time>
      </trkpt>
      <trkpt lat="50.09373" lon="3.83436">
        <ele>147.862</ele>
        <time>2019-09-19T11:23:31.001Z</time>
      </trkpt>
      <trkpt lat="50.09363" lon="3.83438">
        <ele>148.107</ele>
        <time>2019-09-19T11:23:34.001Z</time>
      </trkpt>
      <trkpt lat="50.09353" lon="3.83441">
        <ele>148.416</ele>
        <time>2019-09-19T11:23:37.001Z</time>
      </trkpt>
      <trkpt lat="50.09343" lon="3.83445">
        <ele>148.91</ele>
        <time>2019-09-19T11:23:40.001Z</time>
      </trkpt>
      <trkpt lat="50.09334" lon="3.83451">
        <ele>149.648</ele>
        <time>2019-09-19T11:23:43.001Z</time>
      </trkpt>
      <trkpt lat="50.09325" lon="3.83459">
        <ele>150.024</ele>
        <time>2019-09-19T11:23:46.001Z</time>
      </trkpt>
      <trkpt lat="50.09317" lon="3.83469">
        <ele>150.214</ele>
        <time>2019-09-19T11:23:49.001Z</time>
      </trkpt>
      <trkpt lat="50.09309" lon="3.8348">
        <ele>150.436</ele>
        <time>2019-09-19T11:23:52.001Z</time>
      </trkpt>
      <trkpt lat="50.09301" lon="3.83491">
        <ele>150.494</ele>
        <time>2019-09-19T11:23:55.001Z</time>
      </trkpt>
      <trkpt lat="50.09293" lon="3.83502">
        <ele>150.667</ele>
        <time>2019-09-19T11:23:58.001Z</time>
      </trkpt>
      <trkpt lat="50.09287" lon="3.83512">
        <ele>150.686</ele>
        <time>2019-09-19T11:24:01.001Z</time>
      </trkpt>
      <trkpt lat="50.09279" lon="3.83521">
        <ele>150.833</ele>
        <time>2019-09-19T11:24:04.001Z</time>
      </trkpt>
      <trkpt lat="50.09272" lon="3.8353">
        <ele>150.641</ele>
        <time>2019-09-19T11:24:07.001Z</time>
      </trkpt>
      <trkpt lat="50.09266" lon="3.8354">
        <ele>150.561</ele>
        <time>2019-09-19T11:24:10.001Z</time>
      </trkpt>
      <trkpt lat="50.0926" lon="3.83551">
        <ele>150.605</ele>
        <time>2019-09-19T11:24:13.001Z</time>
      </trkpt>
      <trkpt lat="50.09253" lon="3.83561">
        <ele>150.813</ele>
        <time>2019-09-19T11:24:16.000Z</time>
      </trkpt>
      <trkpt lat="50.09247" lon="3.83573">
        <ele>150.54</ele>
        <time>2019-09-19T11:24:19.001Z</time>
      </trkpt>
      <trkpt lat="50.0924" lon="3.83587">
        <ele>150.43</ele>
        <time>2019-09-19T11:24:22.001Z</time>
      </trkpt>
      <trkpt lat="50.09234" lon="3.83601">
        <ele>150.385</ele>
        <time>2019-09-19T11:24:25.001Z</time>
      </trkpt>
      <trkpt lat="50.09227" lon="3.83618">
        <ele>151.113</ele>
        <time>2019-09-19T11:24:28.001Z</time>
      </trkpt>
      <trkpt lat="50.0922" lon="3.83637">
        <ele>151.149</ele>
        <time>2019-09-19T11:24:31.001Z</time>
      </trkpt>
      <trkpt lat="50.09213" lon="3.83655">
        <ele>150.674</ele>
        <time>2019-09-19T11:24:34.001Z</time>
      </trkpt>
      <trkpt lat="50.09207" lon="3.83675">
        <ele>150.536</ele>
        <time>2019-09-19T11:24:37.001Z</time>
      </trkpt>
      <trkpt lat="50.09202" lon="3.83695">
        <ele>149.892</ele>
        <time>2019-09-19T11:24:40.001Z</time>
      </trkpt>
      <trkpt lat="50.09198" lon="3.83715">
        <ele>149.498</ele>
        <time>2019-09-19T11:24:43.001Z</time>
      </trkpt>
      <trkpt lat="50.09194" lon="3.83735">
        <ele>149.167</ele>
        <time>2019-09-19T11:24:46.001Z</time>
      </trkpt>
      <trkpt lat="50.0919" lon="3.83756">
        <ele>148.836</ele>
        <time>2019-09-19T11:24:49.001Z</time>
      </trkpt>
      <trkpt lat="50.09186" lon="3.83775">
        <ele>148.619</ele>
        <time>2019-09-19T11:24:52.001Z</time>
      </trkpt>
      <trkpt lat="50.0918" lon="3.83794">
        <ele>148.389</ele>
        <time>2019-09-19T11:24:55.001Z</time>
      </trkpt>
      <trkpt lat="50.09176" lon="3.83814">
        <ele>148.094</ele>
        <time>2019-09-19T11:24:58.001Z</time>
      </trkpt>
      <trkpt lat="50.09175" lon="3.83837">
        <ele>147.799</ele>
        <time>2019-09-19T11:25:01.001Z</time>
      </trkpt>
      <trkpt lat="50.0917" lon="3.83861">
        <ele>147.259</ele>
        <time>2019-09-19T11:25:04.001Z</time>
      </trkpt>
      <trkpt lat="50.09164" lon="3.83886">
        <ele>147.211</ele>
        <time>2019-09-19T11:25:07.001Z</time>
      </trkpt>
      <trkpt lat="50.09158" lon="3.83911">
        <ele>146.821</ele>
        <time>2019-09-19T11:25:10.001Z</time>
      </trkpt>
      <trkpt lat="50.09149" lon="3.83938">
        <ele>146.18</ele>
        <time>2019-09-19T11:25:13.001Z</time>
      </trkpt>
      <trkpt lat="50.0914" lon="3.83968">
        <ele>145.454</ele>
        <time>2019-09-19T11:25:16.000Z</time>
      </trkpt>
      <trkpt lat="50.09131" lon="3.83998">
        <ele>144.64</ele>
        <time>2019-09-19T11:25:19.001Z</time>
      </trkpt>
      <trkpt lat="50.09122" lon="3.84028">
        <ele>144.685</ele>
        <time>2019-09-19T11:25:22.001Z</time>
      </trkpt>
      <trkpt lat="50.09113" lon="3.84059">
        <ele>144.683</ele>
        <time>2019-09-19T11:25:25.001Z</time>
      </trkpt>
      <trkpt lat="50.09105" lon="3.8409">
        <ele>144.195</ele>
        <time>2019-09-19T11:25:28.001Z</time>
      </trkpt>
      <trkpt lat="50.09106" lon="3.84121">
        <ele>143.739</ele>
        <time>2019-09-19T11:25:31.001Z</time>
      </trkpt>
      <trkpt lat="50.09112" lon="3.84147">
        <ele>143.91</ele>
        <time>2019-09-19T11:25:34.001Z</time>
      </trkpt>
      <trkpt lat="50.09119" lon="3.84172">
        <ele>143.846</ele>
        <time>2019-09-19T11:25:37.001Z</time>
      </trkpt>
      <trkpt lat="50.09127" lon="3.84193">
        <ele>144.442</ele>
        <time>2019-09-19T11:25:40.001Z</time>
      </trkpt>
      <trkpt lat="50.09137" lon="3.84213">
        <ele>143.876</ele>
        <time>2019-09-19T11:25:43.001Z</time>
      </trkpt>
      <trkpt lat="50.09146" lon="3.84232">
        <ele>143.801</ele>
        <time>2019-09-19T11:25:46.001Z</time>
      </trkpt>
      <trkpt lat="50.09155" lon="3.84251">
        <ele>144.017</ele>
        <time>2019-09-19T11:25:49.001Z</time>
      </trkpt>
      <trkpt lat="50.09163" lon="3.84269">
        <ele>144.112</ele>
        <time>2019-09-19T11:25:52.001Z</time>
      </trkpt>
      <trkpt lat="50.09172" lon="3.84287">
        <ele>144.82</ele>
        <time>2019-09-19T11:25:55.001Z</time>
      </trkpt>
      <trkpt lat="50.09181" lon="3.84302">
        <ele>145.486</ele>
        <time>2019-09-19T11:25:58.001Z</time>
      </trkpt>
      <trkpt lat="50.0919" lon="3.84316">
        <ele>145.544</ele>
        <time>2019-09-19T11:26:01.001Z</time>
      </trkpt>
      <trkpt lat="50.09199" lon="3.84332">
        <ele>145.951</ele>
        <time>2019-09-19T11:26:04.001Z</time>
      </trkpt>
      <trkpt lat="50.09207" lon="3.84348">
        <ele>146.199</ele>
        <time>2019-09-19T11:26:07.001Z</time>
      </trkpt>
      <trkpt lat="50.09217" lon="3.84363">
        <ele>146.354</ele>
        <time>2019-09-19T11:26:10.001Z</time>
      </trkpt>
      <trkpt lat="50.09226" lon="3.8438">
        <ele>145.698</ele>
        <time>2019-09-19T11:26:13.001Z</time>
      </trkpt>
      <trkpt lat="50.09232" lon="3.84399">
        <ele>146.147</ele>
        <time>2019-09-19T11:26:16.000Z</time>
      </trkpt>
      <trkpt lat="50.09238" lon="3.84418">
        <ele>146.051</ele>
        <time>2019-09-19T11:26:19.001Z</time>
      </trkpt>
      <trkpt lat="50.09244" lon="3.84435">
        <ele>145.433</ele>
        <time>2019-09-19T11:26:22.001Z</time>
      </trkpt>
      <trkpt lat="50.09249" lon="3.84451">
        <ele>144.685</ele>
        <time>2019-09-19T11:26:25.001Z</time>
      </trkpt>
      <trkpt lat="50.09255" lon="3.84463">
        <ele>143.992</ele>
        <time>2019-09-19T11:26:28.001Z</time>
      </trkpt>
      <trkpt lat="50.09262" lon="3.84475">
        <ele>143.558</ele>
        <time>2019-09-19T11:26:31.001Z</time>
      </trkpt>
      <trkpt lat="50.09268" lon="3.84486">
        <ele>143.047</ele>
        <time>2019-09-19T11:26:34.001Z</time>
      </trkpt>
      <trkpt lat="50.09275" lon="3.84499">
        <ele>142.637</ele>
        <time>2019-09-19T11:26:37.001Z</time>
      </trkpt>
      <trkpt lat="50.09282" lon="3.84511">
        <ele>143.561</ele>
        <time>2019-09-19T11:26:40.001Z</time>
      </trkpt>
      <trkpt lat="50.09288" lon="3.84524">
        <ele>144.208</ele>
        <time>2019-09-19T11:26:43.001Z</time>
      </trkpt>
      <trkpt lat="50.09294" lon="3.84536">
        <ele>144.706</ele>
        <time>2019-09-19T11:26:46.001Z</time>
      </trkpt>
      <trkpt lat="50.09301" lon="3.8455">
        <ele>144.338</ele>
        <time>2019-09-19T11:26:49.001Z</time>
      </trkpt>
      <trkpt lat="50.09302" lon="3.84564">
        <ele>144.31</ele>
        <time>2019-09-19T11:26:52.001Z</time>
      </trkpt>
      <trkpt lat="50.09298" lon="3.84579">
        <ele>144.722</ele>
        <time>2019-09-19T11:26:55.001Z</time>
      </trkpt>
      <trkpt lat="50.09291" lon="3.8459">
        <ele>145.175</ele>
        <time>2019-09-19T11:26:58.001Z</time>
      </trkpt>
      <trkpt lat="50.09286" lon="3.84601">
        <ele>145.967</ele>
        <time>2019-09-19T11:27:01.001Z</time>
      </trkpt>
      <trkpt lat="50.09279" lon="3.84614">
        <ele>146.255</ele>
        <time>2019-09-19T11:27:04.001Z</time>
      </trkpt>
      <trkpt lat="50.09269" lon="3.84627">
        <ele>145.674</ele>
        <time>2019-09-19T11:27:07.001Z</time>
      </trkpt>
      <trkpt lat="50.09262" lon="3.8464">
        <ele>145.507</ele>
        <time>2019-09-19T11:27:10.001Z</time>
      </trkpt>
      <trkpt lat="50.09255" lon="3.84652">
        <ele>145.625</ele>
        <time>2019-09-19T11:27:13.001Z</time>
      </trkpt>
      <trkpt lat="50.0925" lon="3.84663">
        <ele>145.991</ele>
        <time>2019-09-19T11:27:16.000Z</time>
      </trkpt>
      <trkpt lat="50.09246" lon="3.84675">
        <ele>147.068</ele>
        <time>2019-09-19T11:27:19.001Z</time>
      </trkpt>
      <trkpt lat="50.09243" lon="3.84686">
        <ele>148.071</ele>
        <time>2019-09-19T11:27:22.001Z</time>
      </trkpt>
      <trkpt lat="50.09239" lon="3.84696">
        <ele>148.806</ele>
        <time>2019-09-19T11:27:25.001Z</time>
      </trkpt>
      <trkpt lat="50.09235" lon="3.84707">
        <ele>149.263</ele>
        <time>2019-09-19T11:27:28.001Z</time>
      </trkpt>
      <trkpt lat="50.0923" lon="3.84718">
        <ele>149.77</ele>
        <time>2019-09-19T11:27:31.001Z</time>
      </trkpt>
      <trkpt lat="50.09226" lon="3.8473">
        <ele>149.717</ele>
        <time>2019-09-19T11:27:34.001Z</time>
      </trkpt>
      <trkpt lat="50.09221" lon="3.84741">
        <ele>149.932</ele>
        <time>2019-09-19T11:27:37.001Z</time>
      </trkpt>
      <trkpt lat="50.09218" lon="3.84753">
        <ele>149.429</ele>
        <time>2019-09-19T11:27:40.001Z</time>
      </trkpt>
      <trkpt lat="50.09215" lon="3.84765">
        <ele>148.974</ele>
        <time>2019-09-19T11:27:43.001Z</time>
      </trkpt>
      <trkpt lat="50.09212" lon="3.84775">
        <ele>149.184</ele>
        <time>2019-09-19T11:27:46.001Z</time>
      </trkpt>
      <trkpt lat="50.09207" lon="3.84785">
        <ele>149.964</ele>
        <time>2019-09-19T11:27:49.001Z</time>
      </trkpt>
      <trkpt lat="50.09203" lon="3.84794">
        <ele>150.312</ele>
        <time>2019-09-19T11:27:52.001Z</time>
      </trkpt>
      <trkpt lat="50.09199" lon="3.84802">
        <ele>150.516</ele>
        <time>2019-09-19T11:27:55.001Z</time>
      </trkpt>
      <trkpt lat="50.09196" lon="3.8481">
        <ele>150.289</ele>
        <time>2019-09-19T11:27:58.001Z</time>
      </trkpt>
      <trkpt lat="50.09193" lon="3.84819">
        <ele>150.588</ele>
        <time>2019-09-19T11:28:01.001Z</time>
      </trkpt>
      <trkpt lat="50.09189" lon="3.84828">
        <ele>150.71</ele>
        <time>2019-09-19T11:28:04.001Z</time>
      </trkpt>
      <trkpt lat="50.09185" lon="3.84838">
        <ele>150.791</ele>
        <time>2019-09-19T11:28:07.001Z</time>
      </trkpt>
      <trkpt lat="50.0918" lon="3.84848">
        <ele>151.672</ele>
        <time>2019-09-19T11:28:10.001Z</time>
      </trkpt>
      <trkpt lat="50.09174" lon="3.84862">
        <ele>152.502</ele>
        <time>2019-09-19T11:28:13.001Z</time>
      </trkpt>
      <trkpt lat="50.09167" lon="3.84877">
        <ele>153.249</ele>
        <time>2019-09-19T11:28:16.000Z</time>
      </trkpt>
      <trkpt lat="50.09159" lon="3.84893">
        <ele>154.14</ele>
        <time>2019-09-19T11:28:19.001Z</time>
      </trkpt>
      <trkpt lat="50.0915" lon="3.84912">
        <ele>154.117</ele>
        <time>2019-09-19T11:28:22.001Z</time>
      </trkpt>
      <trkpt lat="50.0914" lon="3.84933">
        <ele>153.826</ele>
        <time>2019-09-19T11:28:25.001Z</time>
      </trkpt>
      <trkpt lat="50.0913" lon="3.84954">
        <ele>153.11</ele>
        <time>2019-09-19T11:28:28.001Z</time>
      </trkpt>
      <trkpt lat="50.09119" lon="3.84976">
        <ele>152.104</ele>
        <time>2019-09-19T11:28:31.001Z</time>
      </trkpt>
      <trkpt lat="50.09108" lon="3.85">
        <ele>151.403</ele>
        <time>2019-09-19T11:28:34.001Z</time>
      </trkpt>
      <trkpt lat="50.09097" lon="3.85024">
        <ele>150.662</ele>
        <time>2019-09-19T11:28:37.001Z</time>
      </trkpt>
      <trkpt lat="50.09084" lon="3.85046">
        <ele>149.72</ele>
        <time>2019-09-19T11:28:40.001Z</time>
      </trkpt>
      <trkpt lat="50.09072" lon="3.85069">
        <ele>149.164</ele>
        <time>2019-09-19T11:28:43.001Z</time>
      </trkpt>
      <trkpt lat="50.09059" lon="3.85088">
        <ele>148.77</ele>
        <time>2019-09-19T11:28:46.001Z</time>
      </trkpt>
      <trkpt lat="50.09046" lon="3.85104">
        <ele>148.188</ele>
        <time>2019-09-19T11:28:49.001Z</time>
      </trkpt>
      <trkpt lat="50.09033" lon="3.85118">
        <ele>147.691</ele>
        <time>2019-09-19T11:28:52.001Z</time>
      </trkpt>
      <trkpt lat="50.09023" lon="3.85131">
        <ele>147.663</ele>
        <time>2019-09-19T11:28:55.001Z</time>
      </trkpt>
      <trkpt lat="50.09014" lon="3.85142">
        <ele>147.559</ele>
        <time>2019-09-19T11:28:58.001Z</time>
      </trkpt>
      <trkpt lat="50.09005" lon="3.85151">
        <ele>147.623</ele>
        <time>2019-09-19T11:29:01.001Z</time>
      </trkpt>
      <trkpt lat="50.08995" lon="3.8516">
        <ele>147.945</ele>
        <time>2019-09-19T11:29:04.001Z</time>
      </trkpt>
      <trkpt lat="50.08985" lon="3.85172">
        <ele>148.172</ele>
        <time>2019-09-19T11:29:07.001Z</time>
      </trkpt>
      <trkpt lat="50.08974" lon="3.85185">
        <ele>148.325</ele>
        <time>2019-09-19T11:29:10.001Z</time>
      </trkpt>
      <trkpt lat="50.08962" lon="3.852">
        <ele>148.478</ele>
        <time>2019-09-19T11:29:13.001Z</time>
      </trkpt>
      <trkpt lat="50.08949" lon="3.85215">
        <ele>148.218</ele>
        <time>2019-09-19T11:29:16.000Z</time>
      </trkpt>
      <trkpt lat="50.08934" lon="3.85232">
        <ele>147.974</ele>
        <time>2019-09-19T11:29:19.001Z</time>
      </trkpt>
      <trkpt lat="50.08918" lon="3.85249">
        <ele>147.679</ele>
        <time>2019-09-19T11:29:22.001Z</time>
      </trkpt>
      <trkpt lat="50.08903" lon="3.85269">
        <ele>147.718</ele>
        <time>2019-09-19T11:29:25.001Z</time>
      </trkpt>
      <trkpt lat="50.08886" lon="3.8529">
        <ele>147.79</ele>
        <time>2019-09-19T11:29:28.001Z</time>
      </trkpt>
      <trkpt lat="50.08867" lon="3.85312">
        <ele>147.481</ele>
        <time>2019-09-19T11:29:31.001Z</time>
      </trkpt>
      <trkpt lat="50.08848" lon="3.85332">
        <ele>147.327</ele>
        <time>2019-09-19T11:29:34.001Z</time>
      </trkpt>
      <trkpt lat="50.0883" lon="3.85353">
        <ele>147.582</ele>
        <time>2019-09-19T11:29:37.001Z</time>
      </trkpt>
      <trkpt lat="50.08812" lon="3.85373">
        <ele>147.35</ele>
        <time>2019-09-19T11:29:40.001Z</time>
      </trkpt>
      <trkpt lat="50.08795" lon="3.85393">
        <ele>147.432</ele>
        <time>2019-09-19T11:29:43.001Z</time>
      </trkpt>
      <trkpt lat="50.08779" lon="3.85413">
        <ele>146.835</ele>
        <time>2019-09-19T11:29:46.001Z</time>
      </trkpt>
      <trkpt lat="50.08764" lon="3.85432">
        <ele>146.049</ele>
        <time>2019-09-19T11:29:49.001Z</time>
      </trkpt>
      <trkpt lat="50.08747" lon="3.8545">
        <ele>145.692</ele>
        <time>2019-09-19T11:29:52.001Z</time>
      </trkpt>
      <trkpt lat="50.08733" lon="3.85468">
        <ele>144.358</ele>
        <time>2019-09-19T11:29:55.001Z</time>
      </trkpt>
      <trkpt lat="50.08723" lon="3.85488">
        <ele>143.058</ele>
        <time>2019-09-19T11:29:58.001Z</time>
      </trkpt>
      <trkpt lat="50.08717" lon="3.85513">
        <ele>141.822</ele>
        <time>2019-09-19T11:30:01.001Z</time>
      </trkpt>
      <trkpt lat="50.08713" lon="3.85537">
        <ele>140.906</ele>
        <time>2019-09-19T11:30:04.001Z</time>
      </trkpt>
      <trkpt lat="50.08706" lon="3.85559">
        <ele>140.705</ele>
        <time>2019-09-19T11:30:07.001Z</time>
      </trkpt>
      <trkpt lat="50.08698" lon="3.85579">
        <ele>140.099</ele>
        <time>2019-09-19T11:30:10.001Z</time>
      </trkpt>
      <trkpt lat="50.08687" lon="3.85593">
        <ele>139.741</ele>
        <time>2019-09-19T11:30:13.001Z</time>
      </trkpt>
      <trkpt lat="50.08675" lon="3.85604">
        <ele>140.541</ele>
        <time>2019-09-19T11:30:16.000Z</time>
      </trkpt>
      <trkpt lat="50.08663" lon="3.85611">
        <ele>141.427</ele>
        <time>2019-09-19T11:30:19.001Z</time>
      </trkpt>
      <trkpt lat="50.08652" lon="3.85618">
        <ele>142.274</ele>
        <time>2019-09-19T11:30:22.001Z</time>
      </trkpt>
      <trkpt lat="50.08641" lon="3.85624">
        <ele>142.357</ele>
        <time>2019-09-19T11:30:25.001Z</time>
      </trkpt>
      <trkpt lat="50.0863" lon="3.85628">
        <ele>142.016</ele>
        <time>2019-09-19T11:30:28.001Z</time>
      </trkpt>
      <trkpt lat="50.0862" lon="3.85632">
        <ele>142.272</ele>
        <time>2019-09-19T11:30:31.001Z</time>
      </trkpt>
      <trkpt lat="50.0861" lon="3.85636">
        <ele>142.65</ele>
        <time>2019-09-19T11:30:34.001Z</time>
      </trkpt>
      <trkpt lat="50.086" lon="3.8564">
        <ele>142.648</ele>
        <time>2019-09-19T11:30:37.001Z</time>
      </trkpt>
      <trkpt lat="50.08591" lon="3.85643">
        <ele>143.083</ele>
        <time>2019-09-19T11:30:40.001Z</time>
      </trkpt>
      <trkpt lat="50.08582" lon="3.85643">
        <ele>142.906</ele>
        <time>2019-09-19T11:30:43.001Z</time>
      </trkpt>
      <trkpt lat="50.08572" lon="3.85643">
        <ele>143.247</ele>
        <time>2019-09-19T11:30:46.001Z</time>
      </trkpt>
      <trkpt lat="50.08561" lon="3.85642">
        <ele>143.627</ele>
        <time>2019-09-19T11:30:49.001Z</time>
      </trkpt>
      <trkpt lat="50.08551" lon="3.8564">
        <ele>144.386</ele>
        <time>2019-09-19T11:30:52.001Z</time>
      </trkpt>
      <trkpt lat="50.08542" lon="3.85637">
        <ele>145.007</ele>
        <time>2019-09-19T11:30:55.001Z</time>
      </trkpt>
      <trkpt lat="50.08532" lon="3.85636">
        <ele>146.025</ele>
        <time>2019-09-19T11:30:58.001Z</time>
      </trkpt>
      <trkpt lat="50.08524" lon="3.85635">
        <ele>147.329</ele>
        <time>2019-09-19T11:31:01.001Z</time>
      </trkpt>
      <trkpt lat="50.08517" lon="3.85635">
        <ele>148.506</ele>
        <time>2019-09-19T11:31:04.001Z</time>
      </trkpt>
      <trkpt lat="50.0851" lon="3.85635">
        <ele>149.506</ele>
        <time>2019-09-19T11:31:07.001Z</time>
      </trkpt>
      <trkpt lat="50.08501" lon="3.85636">
        <ele>150.398</ele>
        <time>2019-09-19T11:31:10.001Z</time>
      </trkpt>
      <trkpt lat="50.08493" lon="3.85637">
        <ele>151.132</ele>
        <time>2019-09-19T11:31:13.001Z</time>
      </trkpt>
      <trkpt lat="50.08485" lon="3.85639">
        <ele>151.774</ele>
        <time>2019-09-19T11:31:16.000Z</time>
      </trkpt>
      <trkpt lat="50.08477" lon="3.85641">
        <ele>152.455</ele>
        <time>2019-09-19T11:31:19.001Z</time>
      </trkpt>
      <trkpt lat="50.0847" lon="3.85643">
        <ele>152.827</ele>
        <time>2019-09-19T11:31:22.001Z</time>
      </trkpt>
      <trkpt lat="50.08462" lon="3.85646">
        <ele>153.016</ele>
        <time>2019-09-19T11:31:25.001Z</time>
      </trkpt>
      <trkpt lat="50.08454" lon="3.85649">
        <ele>153.258</ele>
        <time>2019-09-19T11:31:28.001Z</time>
      </trkpt>
      <trkpt lat="50.08445" lon="3.85651">
        <ele>153.023</ele>
        <time>2019-09-19T11:31:31.001Z</time>
      </trkpt>
      <trkpt lat="50.08438" lon="3.85655">
        <ele>153.372</ele>
        <time>2019-09-19T11:31:34.001Z</time>
      </trkpt>
      <trkpt lat="50.0843" lon="3.8566">
        <ele>153.806</ele>
        <time>2019-09-19T11:31:37.001Z</time>
      </trkpt>
      <trkpt lat="50.08423" lon="3.85666">
        <ele>154.328</ele>
        <time>2019-09-19T11:31:40.001Z</time>
      </trkpt>
      <trkpt lat="50.08417" lon="3.85673">
        <ele>154.725</ele>
        <time>2019-09-19T11:31:43.001Z</time>
      </trkpt>
      <trkpt lat="50.0841" lon="3.8568">
        <ele>155.301</ele>
        <time>2019-09-19T11:31:46.001Z</time>
      </trkpt>
      <trkpt lat="50.08405" lon="3.85687">
        <ele>155.173</ele>
        <time>2019-09-19T11:31:49.001Z</time>
      </trkpt>
      <trkpt lat="50.08399" lon="3.85697">
        <ele>155.725</ele>
        <time>2019-09-19T11:31:52.001Z</time>
      </trkpt>
      <trkpt lat="50.08392" lon="3.85706">
        <ele>156.224</ele>
        <time>2019-09-19T11:31:55.001Z</time>
      </trkpt>
      <trkpt lat="50.08387" lon="3.85718">
        <ele>155.785</ele>
        <time>2019-09-19T11:31:58.001Z</time>
      </trkpt>
      <trkpt lat="50.08382" lon="3.8573">
        <ele>156.024</ele>
        <time>2019-09-19T11:32:01.001Z</time>
      </trkpt>
      <trkpt lat="50.08377" lon="3.8574">
        <ele>155.542</ele>
        <time>2019-09-19T11:32:04.001Z</time>
      </trkpt>
      <trkpt lat="50.08372" lon="3.85752">
        <ele>155.223</ele>
        <time>2019-09-19T11:32:07.001Z</time>
      </trkpt>
      <trkpt lat="50.08367" lon="3.85764">
        <ele>155.1</ele>
        <time>2019-09-19T11:32:10.001Z</time>
      </trkpt>
      <trkpt lat="50.08362" lon="3.85775">
        <ele>154.9</ele>
        <time>2019-09-19T11:32:13.001Z</time>
      </trkpt>
      <trkpt lat="50.08358" lon="3.85787">
        <ele>154.492</ele>
        <time>2019-09-19T11:32:16.000Z</time>
      </trkpt>
      <trkpt lat="50.08353" lon="3.85799">
        <ele>154.192</ele>
        <time>2019-09-19T11:32:19.001Z</time>
      </trkpt>
      <trkpt lat="50.08348" lon="3.85811">
        <ele>153.919</ele>
        <time>2019-09-19T11:32:22.001Z</time>
      </trkpt>
      <trkpt lat="50.08344" lon="3.85821">
        <ele>153.295</ele>
        <time>2019-09-19T11:32:25.001Z</time>
      </trkpt>
      <trkpt lat="50.08337" lon="3.85832">
        <ele>153.361</ele>
        <time>2019-09-19T11:32:28.001Z</time>
      </trkpt>
      <trkpt lat="50.08331" lon="3.85842">
        <ele>153.244</ele>
        <time>2019-09-19T11:32:31.001Z</time>
      </trkpt>
      <trkpt lat="50.08324" lon="3.85851">
        <ele>153.375</ele>
        <time>2019-09-19T11:32:34.001Z</time>
      </trkpt>
      <trkpt lat="50.08318" lon="3.8586">
        <ele>153.789</ele>
        <time>2019-09-19T11:32:37.001Z</time>
      </trkpt>
      <trkpt lat="50.08312" lon="3.85868">
        <ele>154.7</ele>
        <time>2019-09-19T11:32:40.001Z</time>
      </trkpt>
      <trkpt lat="50.08307" lon="3.85876">
        <ele>155.307</ele>
        <time>2019-09-19T11:32:43.001Z</time>
      </trkpt>
      <trkpt lat="50.083" lon="3.85884">
        <ele>156.067</ele>
        <time>2019-09-19T11:32:46.001Z</time>
      </trkpt>
      <trkpt lat="50.08293" lon="3.85894">
        <ele>156.46</ele>
        <time>2019-09-19T11:32:49.001Z</time>
      </trkpt>
      <trkpt lat="50.08286" lon="3.85905">
        <ele>156.834</ele>
        <time>2019-09-19T11:32:52.001Z</time>
      </trkpt>
      <trkpt lat="50.08279" lon="3.85916">
        <ele>158.023</ele>
        <time>2019-09-19T11:32:55.001Z</time>
      </trkpt>
      <trkpt lat="50.08274" lon="3.85927">
        <ele>158.866</ele>
        <time>2019-09-19T11:32:58.001Z</time>
      </trkpt>
      <trkpt lat="50.08269" lon="3.85938">
        <ele>158.644</ele>
        <time>2019-09-19T11:33:01.001Z</time>
      </trkpt>
      <trkpt lat="50.08263" lon="3.85951">
        <ele>158.921</ele>
        <time>2019-09-19T11:33:04.001Z</time>
      </trkpt>
      <trkpt lat="50.08258" lon="3.85967">
        <ele>158.955</ele>
        <time>2019-09-19T11:33:07.001Z</time>
      </trkpt>
      <trkpt lat="50.08252" lon="3.85983">
        <ele>158.495</ele>
        <time>2019-09-19T11:33:10.001Z</time>
      </trkpt>
      <trkpt lat="50.08245" lon="3.85999">
        <ele>157.8</ele>
        <time>2019-09-19T11:33:13.001Z</time>
      </trkpt>
      <trkpt lat="50.08238" lon="3.86016">
        <ele>156.926</ele>
        <time>2019-09-19T11:33:16.000Z</time>
      </trkpt>
      <trkpt lat="50.0823" lon="3.86032">
        <ele>156.228</ele>
        <time>2019-09-19T11:33:19.001Z</time>
      </trkpt>
      <trkpt lat="50.08222" lon="3.86046">
        <ele>156.301</ele>
        <time>2019-09-19T11:33:22.001Z</time>
      </trkpt>
      <trkpt lat="50.08213" lon="3.86058">
        <ele>156.263</ele>
        <time>2019-09-19T11:33:25.001Z</time>
      </trkpt>
      <trkpt lat="50.08205" lon="3.86071">
        <ele>156.109</ele>
        <time>2019-09-19T11:33:28.001Z</time>
      </trkpt>
      <trkpt lat="50.08196" lon="3.86085">
        <ele>155.971</ele>
        <time>2019-09-19T11:33:31.001Z</time>
      </trkpt>
      <trkpt lat="50.08186" lon="3.861">
        <ele>156.111</ele>
        <time>2019-09-19T11:33:34.001Z</time>
      </trkpt>
      <trkpt lat="50.08177" lon="3.86115">
        <ele>156.07</ele>
        <time>2019-09-19T11:33:37.001Z</time>
      </trkpt>
      <trkpt lat="50.08171" lon="3.86131">
        <ele>155.144</ele>
        <time>2019-09-19T11:33:40.001Z</time>
      </trkpt>
      <trkpt lat="50.08166" lon="3.86151">
        <ele>154.808</ele>
        <time>2019-09-19T11:33:43.001Z</time>
      </trkpt>
      <trkpt lat="50.08164" lon="3.86172">
        <ele>154.85</ele>
        <time>2019-09-19T11:33:46.001Z</time>
      </trkpt>
      <trkpt lat="50.08163" lon="3.86193">
        <ele>154.942</ele>
        <time>2019-09-19T11:33:49.001Z</time>
      </trkpt>
      <trkpt lat="50.08162" lon="3.86215">
        <ele>155.319</ele>
        <time>2019-09-19T11:33:52.001Z</time>
      </trkpt>
      <trkpt lat="50.08159" lon="3.86238">
        <ele>155.495</ele>
        <time>2019-09-19T11:33:55.001Z</time>
      </trkpt>
      <trkpt lat="50.08158" lon="3.86261">
        <ele>155.605</ele>
        <time>2019-09-19T11:33:58.001Z</time>
      </trkpt>
      <trkpt lat="50.08156" lon="3.86284">
        <ele>155.656</ele>
        <time>2019-09-19T11:34:01.001Z</time>
      </trkpt>
      <trkpt lat="50.08154" lon="3.86307">
        <ele>156.226</ele>
        <time>2019-09-19T11:34:04.001Z</time>
      </trkpt>
      <trkpt lat="50.08153" lon="3.86331">
        <ele>156.472</ele>
        <time>2019-09-19T11:34:07.001Z</time>
      </trkpt>
      <trkpt lat="50.0815" lon="3.86353">
        <ele>156.654</ele>
        <time>2019-09-19T11:34:10.001Z</time>
      </trkpt>
      <trkpt lat="50.08149" lon="3.86374">
        <ele>156.75</ele>
        <time>2019-09-19T11:34:13.001Z</time>
      </trkpt>
      <trkpt lat="50.08146" lon="3.86394">
        <ele>156.971</ele>
        <time>2019-09-19T11:34:16.000Z</time>
      </trkpt>
      <trkpt lat="50.08143" lon="3.86413">
        <ele>157.351</ele>
        <time>2019-09-19T11:34:19.001Z</time>
      </trkpt>
      <trkpt lat="50.08138" lon="3.8643">
        <ele>157.435</ele>
        <time>2019-09-19T11:34:22.001Z</time>
      </trkpt>
      <trkpt lat="50.08131" lon="3.86445">
        <ele>156.665</ele>
        <time>2019-09-19T11:34:25.001Z</time>
      </trkpt>
      <trkpt lat="50.08125" lon="3.86458">
        <ele>156.629</ele>
        <time>2019-09-19T11:34:28.001Z</time>
      </trkpt>
      <trkpt lat="50.0812" lon="3.8647">
        <ele>157.078</ele>
        <time>2019-09-19T11:34:31.001Z</time>
      </trkpt>
      <trkpt lat="50.08115" lon="3.86481">
        <ele>157.206</ele>
        <time>2019-09-19T11:34:34.001Z</time>
      </trkpt>
      <trkpt lat="50.08111" lon="3.86493">
        <ele>157.744</ele>
        <time>2019-09-19T11:34:37.001Z</time>
      </trkpt>
      <trkpt lat="50.08106" lon="3.86505">
        <ele>158.459</ele>
        <time>2019-09-19T11:34:40.001Z</time>
      </trkpt>
      <trkpt lat="50.08101" lon="3.86517">
        <ele>158.657</ele>
        <time>2019-09-19T11:34:43.001Z</time>
      </trkpt>
      <trkpt lat="50.08095" lon="3.86529">
        <ele>158.845</ele>
        <time>2019-09-19T11:34:46.001Z</time>
      </trkpt>
      <trkpt lat="50.08089" lon="3.8654">
        <ele>158.996</ele>
        <time>2019-09-19T11:34:49.001Z</time>
      </trkpt>
      <trkpt lat="50.08083" lon="3.8655">
        <ele>159.549</ele>
        <time>2019-09-19T11:34:52.001Z</time>
      </trkpt>
      <trkpt lat="50.08078" lon="3.86561">
        <ele>159.865</ele>
        <time>2019-09-19T11:34:55.001Z</time>
      </trkpt>
      <trkpt lat="50.08073" lon="3.86572">
        <ele>160.509</ele>
        <time>2019-09-19T11:34:58.001Z</time>
      </trkpt>
      <trkpt lat="50.08068" lon="3.86583">
        <ele>160.856</ele>
        <time>2019-09-19T11:35:01.001Z</time>
      </trkpt>
      <trkpt lat="50.08063" lon="3.86593">
        <ele>161.115</ele>
        <time>2019-09-19T11:35:04.001Z</time>
      </trkpt>
      <trkpt lat="50.08058" lon="3.86602">
        <ele>161.076</ele>
        <time>2019-09-19T11:35:07.001Z</time>
      </trkpt>
      <trkpt lat="50.08053" lon="3.86612">
        <ele>161.456</ele>
        <time>2019-09-19T11:35:10.001Z</time>
      </trkpt>
      <trkpt lat="50.08048" lon="3.86622">
        <ele>161.771</ele>
        <time>2019-09-19T11:35:13.001Z</time>
      </trkpt>
      <trkpt lat="50.08042" lon="3.86631">
        <ele>162.257</ele>
        <time>2019-09-19T11:35:16.000Z</time>
      </trkpt>
      <trkpt lat="50.08037" lon="3.86641">
        <ele>162.396</ele>
        <time>2019-09-19T11:35:19.001Z</time>
      </trkpt>
      <trkpt lat="50.08033" lon="3.86652">
        <ele>162.908</ele>
        <time>2019-09-19T11:35:22.001Z</time>
      </trkpt>
      <trkpt lat="50.08028" lon="3.86662">
        <ele>162.988</ele>
        <time>2019-09-19T11:35:25.001Z</time>
      </trkpt>
      <trkpt lat="50.08023" lon="3.86674">
        <ele>162.7</ele>
        <time>2019-09-19T11:35:28.001Z</time>
      </trkpt>
      <trkpt lat="50.08019" lon="3.86687">
        <ele>162.392</ele>
        <time>2019-09-19T11:35:31.001Z</time>
      </trkpt>
      <trkpt lat="50.08016" lon="3.86701">
        <ele>162.526</ele>
        <time>2019-09-19T11:35:34.001Z</time>
      </trkpt>
      <trkpt lat="50.08013" lon="3.86716">
        <ele>162.392</ele>
        <time>2019-09-19T11:35:37.001Z</time>
      </trkpt>
      <trkpt lat="50.0801" lon="3.86732">
        <ele>162.405</ele>
        <time>2019-09-19T11:35:40.001Z</time>
      </trkpt>
      <trkpt lat="50.08008" lon="3.86748">
        <ele>162.429</ele>
        <time>2019-09-19T11:35:43.001Z</time>
      </trkpt>
      <trkpt lat="50.08006" lon="3.86763">
        <ele>163.101</ele>
        <time>2019-09-19T11:35:46.001Z</time>
      </trkpt>
      <trkpt lat="50.08004" lon="3.86779">
        <ele>163.286</ele>
        <time>2019-09-19T11:35:49.001Z</time>
      </trkpt>
      <trkpt lat="50.08001" lon="3.86796">
        <ele>163.468</ele>
        <time>2019-09-19T11:35:52.001Z</time>
      </trkpt>
      <trkpt lat="50.07998" lon="3.86812">
        <ele>163.55</ele>
        <time>2019-09-19T11:35:55.001Z</time>
      </trkpt>
      <trkpt lat="50.07994" lon="3.86828">
        <ele>163.247</ele>
        <time>2019-09-19T11:35:58.001Z</time>
      </trkpt>
      <trkpt lat="50.07989" lon="3.86844">
        <ele>162.929</ele>
        <time>2019-09-19T11:36:01.001Z</time>
      </trkpt>
      <trkpt lat="50.07982" lon="3.86859">
        <ele>163.116</ele>
        <time>2019-09-19T11:36:04.001Z</time>
      </trkpt>
      <trkpt lat="50.07974" lon="3.86874">
        <ele>162.577</ele>
        <time>2019-09-19T11:36:07.001Z</time>
      </trkpt>
      <trkpt lat="50.07967" lon="3.86889">
        <ele>162.308</ele>
        <time>2019-09-19T11:36:10.001Z</time>
      </trkpt>
      <trkpt lat="50.07959" lon="3.86905">
        <ele>162.107</ele>
        <time>2019-09-19T11:36:13.001Z</time>
      </trkpt>
      <trkpt lat="50.07952" lon="3.86921">
        <ele>162.083</ele>
        <time>2019-09-19T11:36:16.000Z</time>
      </trkpt>
      <trkpt lat="50.07946" lon="3.86939">
        <ele>162.122</ele>
        <time>2019-09-19T11:36:19.001Z</time>
      </trkpt>
      <trkpt lat="50.07941" lon="3.86959">
        <ele>162.054</ele>
        <time>2019-09-19T11:36:22.001Z</time>
      </trkpt>
      <trkpt lat="50.07941" lon="3.8698">
        <ele>162.114</ele>
        <time>2019-09-19T11:36:25.001Z</time>
      </trkpt>
      <trkpt lat="50.07946" lon="3.87001">
        <ele>161.497</ele>
        <time>2019-09-19T11:36:28.001Z</time>
      </trkpt>
      <trkpt lat="50.07952" lon="3.87021">
        <ele>161.256</ele>
        <time>2019-09-19T11:36:31.001Z</time>
      </trkpt>
      <trkpt lat="50.07958" lon="3.87041">
        <ele>161.005</ele>
        <time>2019-09-19T11:36:34.001Z</time>
      </trkpt>
      <trkpt lat="50.07962" lon="3.87062">
        <ele>160.555</ele>
        <time>2019-09-19T11:36:37.001Z</time>
      </trkpt>
      <trkpt lat="50.07963" lon="3.87081">
        <ele>160.502</ele>
        <time>2019-09-19T11:36:40.001Z</time>
      </trkpt>
      <trkpt lat="50.0796" lon="3.87101">
        <ele>160.847</ele>
        <time>2019-09-19T11:36:43.001Z</time>
      </trkpt>
      <trkpt lat="50.07953" lon="3.87116">
        <ele>161.533</ele>
        <time>2019-09-19T11:36:46.001Z</time>
      </trkpt>
      <trkpt lat="50.07946" lon="3.8713">
        <ele>161.615</ele>
        <time>2019-09-19T11:36:49.001Z</time>
      </trkpt>
      <trkpt lat="50.07939" lon="3.87143">
        <ele>161.565</ele>
        <time>2019-09-19T11:36:52.001Z</time>
      </trkpt>
      <trkpt lat="50.07933" lon="3.87157">
        <ele>161.328</ele>
        <time>2019-09-19T11:36:55.001Z</time>
      </trkpt>
      <trkpt lat="50.07927" lon="3.8717">
        <ele>161.486</ele>
        <time>2019-09-19T11:36:58.001Z</time>
      </trkpt>
      <trkpt lat="50.07921" lon="3.87182">
        <ele>161.741</ele>
        <time>2019-09-19T11:37:01.001Z</time>
      </trkpt>
      <trkpt lat="50.07916" lon="3.87194">
        <ele>162.1</ele>
        <time>2019-09-19T11:37:04.001Z</time>
      </trkpt>
      <trkpt lat="50.0791" lon="3.87205">
        <ele>162.649</ele>
        <time>2019-09-19T11:37:07.001Z</time>
      </trkpt>
      <trkpt lat="50.07906" lon="3.87216">
        <ele>163.616</ele>
        <time>2019-09-19T11:37:10.001Z</time>
      </trkpt>
      <trkpt lat="50.079" lon="3.87229">
        <ele>164.166</ele>
        <time>2019-09-19T11:37:13.001Z</time>
      </trkpt>
      <trkpt lat="50.07893" lon="3.87243">
        <ele>164.323</ele>
        <time>2019-09-19T11:37:16.000Z</time>
      </trkpt>
      <trkpt lat="50.07885" lon="3.87259">
        <ele>164.115</ele>
        <time>2019-09-19T11:37:19.001Z</time>
      </trkpt>
      <trkpt lat="50.07878" lon="3.87276">
        <ele>163.488</ele>
        <time>2019-09-19T11:37:22.001Z</time>
      </trkpt>
      <trkpt lat="50.0787" lon="3.87293">
        <ele>163.107</ele>
        <time>2019-09-19T11:37:25.001Z</time>
      </trkpt>
      <trkpt lat="50.07861" lon="3.87309">
        <ele>163.182</ele>
        <time>2019-09-19T11:37:28.001Z</time>
      </trkpt>
      <trkpt lat="50.07853" lon="3.87327">
        <ele>162.889</ele>
        <time>2019-09-19T11:37:31.001Z</time>
      </trkpt>
      <trkpt lat="50.07846" lon="3.87344">
        <ele>163.01</ele>
        <time>2019-09-19T11:37:34.001Z</time>
      </trkpt>
      <trkpt lat="50.07841" lon="3.87361">
        <ele>163.331</ele>
        <time>2019-09-19T11:37:37.001Z</time>
      </trkpt>
      <trkpt lat="50.07836" lon="3.87379">
        <ele>162.561</ele>
        <time>2019-09-19T11:37:40.001Z</time>
      </trkpt>
      <trkpt lat="50.07833" lon="3.87398">
        <ele>161.917</ele>
        <time>2019-09-19T11:37:43.001Z</time>
      </trkpt>
      <trkpt lat="50.07832" lon="3.87418">
        <ele>161.589</ele>
        <time>2019-09-19T11:37:46.001Z</time>
      </trkpt>
      <trkpt lat="50.07832" lon="3.87438">
        <ele>161.626</ele>
        <time>2019-09-19T11:37:49.001Z</time>
      </trkpt>
      <trkpt lat="50.07835" lon="3.87459">
        <ele>162.007</ele>
        <time>2019-09-19T11:37:52.001Z</time>
      </trkpt>
      <trkpt lat="50.0784" lon="3.87479">
        <ele>161.669</ele>
        <time>2019-09-19T11:37:55.001Z</time>
      </trkpt>
      <trkpt lat="50.0785" lon="3.875">
        <ele>161.684</ele>
        <time>2019-09-19T11:37:58.001Z</time>
      </trkpt>
      <trkpt lat="50.07861" lon="3.87525">
        <ele>160.725</ele>
        <time>2019-09-19T11:38:01.001Z</time>
      </trkpt>
      <trkpt lat="50.07868" lon="3.87554">
        <ele>159.984</ele>
        <time>2019-09-19T11:38:04.001Z</time>
      </trkpt>
      <trkpt lat="50.07874" lon="3.87584">
        <ele>159.565</ele>
        <time>2019-09-19T11:38:07.001Z</time>
      </trkpt>
      <trkpt lat="50.07879" lon="3.87612">
        <ele>158.49</ele>
        <time>2019-09-19T11:38:10.001Z</time>
      </trkpt>
      <trkpt lat="50.07886" lon="3.8764">
        <ele>157.7</ele>
        <time>2019-09-19T11:38:13.001Z</time>
      </trkpt>
      <trkpt lat="50.07893" lon="3.87665">
        <ele>156.556</ele>
        <time>2019-09-19T11:38:16.000Z</time>
      </trkpt>
      <trkpt lat="50.079" lon="3.87687">
        <ele>155.275</ele>
        <time>2019-09-19T11:38:19.001Z</time>
      </trkpt>
      <trkpt lat="50.07908" lon="3.8771">
        <ele>154.586</ele>
        <time>2019-09-19T11:38:22.001Z</time>
      </trkpt>
      <trkpt lat="50.07913" lon="3.87733">
        <ele>155.416</ele>
        <time>2019-09-19T11:38:25.001Z</time>
      </trkpt>
      <trkpt lat="50.07916" lon="3.87756">
        <ele>155.349</ele>
        <time>2019-09-19T11:38:28.001Z</time>
      </trkpt>
      <trkpt lat="50.07916" lon="3.8778">
        <ele>155.446</ele>
        <time>2019-09-19T11:38:31.001Z</time>
      </trkpt>
      <trkpt lat="50.07912" lon="3.878">
        <ele>155.903</ele>
        <time>2019-09-19T11:38:34.001Z</time>
      </trkpt>
      <trkpt lat="50.07906" lon="3.87819">
        <ele>156.739</ele>
        <time>2019-09-19T11:38:37.001Z</time>
      </trkpt>
      <trkpt lat="50.07898" lon="3.87836">
        <ele>156.828</ele>
        <time>2019-09-19T11:38:40.001Z</time>
      </trkpt>
      <trkpt lat="50.07892" lon="3.87851">
        <ele>156.794</ele>
        <time>2019-09-19T11:38:43.001Z</time>
      </trkpt>
      <trkpt lat="50.07886" lon="3.87866">
        <ele>157.067</ele>
        <time>2019-09-19T11:38:46.001Z</time>
      </trkpt>
      <trkpt lat="50.07881" lon="3.8788">
        <ele>157.381</ele>
        <time>2019-09-19T11:38:49.001Z</time>
      </trkpt>
      <trkpt lat="50.07878" lon="3.87893">
        <ele>157.491</ele>
        <time>2019-09-19T11:38:52.001Z</time>
      </trkpt>
      <trkpt lat="50.07876" lon="3.87906">
        <ele>157.837</ele>
        <time>2019-09-19T11:38:55.001Z</time>
      </trkpt>
      <trkpt lat="50.07879" lon="3.87919">
        <ele>158.918</ele>
        <time>2019-09-19T11:38:58.001Z</time>
      </trkpt>
      <trkpt lat="50.07885" lon="3.87931">
        <ele>159.351</ele>
        <time>2019-09-19T11:39:01.001Z</time>
      </trkpt>
      <trkpt lat="50.07892" lon="3.87945">
        <ele>159.484</ele>
        <time>2019-09-19T11:39:04.001Z</time>
      </trkpt>
      <trkpt lat="50.079" lon="3.87958">
        <ele>159.38</ele>
        <time>2019-09-19T11:39:07.001Z</time>
      </trkpt>
      <trkpt lat="50.07908" lon="3.87972">
        <ele>158.661</ele>
        <time>2019-09-19T11:39:10.001Z</time>
      </trkpt>
      <trkpt lat="50.07915" lon="3.87985">
        <ele>158.157</ele>
        <time>2019-09-19T11:39:13.001Z</time>
      </trkpt>
      <trkpt lat="50.07923" lon="3.87998">
        <ele>157.847</ele>
        <time>2019-09-19T11:39:16.000Z</time>
      </trkpt>
      <trkpt lat="50.07931" lon="3.88013">
        <ele>157.52</ele>
        <time>2019-09-19T11:39:19.001Z</time>
      </trkpt>
      <trkpt lat="50.07939" lon="3.88028">
        <ele>157.327</ele>
        <time>2019-09-19T11:39:22.001Z</time>
      </trkpt>
      <trkpt lat="50.07948" lon="3.88043">
        <ele>158.12</ele>
        <time>2019-09-19T11:39:25.001Z</time>
      </trkpt>
      <trkpt lat="50.07958" lon="3.8806">
        <ele>158.435</ele>
        <time>2019-09-19T11:39:28.001Z</time>
      </trkpt>
      <trkpt lat="50.07967" lon="3.88076">
        <ele>158.707</ele>
        <time>2019-09-19T11:39:31.001Z</time>
      </trkpt>
      <trkpt lat="50.07976" lon="3.88091">
        <ele>158.693</ele>
        <time>2019-09-19T11:39:34.001Z</time>
      </trkpt>
      <trkpt lat="50.07985" lon="3.88107">
        <ele>158.396</ele>
        <time>2019-09-19T11:39:37.001Z</time>
      </trkpt>
      <trkpt lat="50.07995" lon="3.88123">
        <ele>158.655</ele>
        <time>2019-09-19T11:39:40.001Z</time>
      </trkpt>
      <trkpt lat="50.08005" lon="3.8814">
        <ele>158.905</ele>
        <time>2019-09-19T11:39:43.001Z</time>
      </trkpt>
      <trkpt lat="50.08016" lon="3.88158">
        <ele>158.924</ele>
        <time>2019-09-19T11:39:46.001Z</time>
      </trkpt>
      <trkpt lat="50.08025" lon="3.88179">
        <ele>158.552</ele>
        <time>2019-09-19T11:39:49.001Z</time>
      </trkpt>
      <trkpt lat="50.08033" lon="3.88204">
        <ele>157.979</ele>
        <time>2019-09-19T11:39:52.001Z</time>
      </trkpt>
      <trkpt lat="50.08039" lon="3.88233">
        <ele>156.637</ele>
        <time>2019-09-19T11:39:55.001Z</time>
      </trkpt>
      <trkpt lat="50.08044" lon="3.88265">
        <ele>155.382</ele>
        <time>2019-09-19T11:39:58.001Z</time>
      </trkpt>
      <trkpt lat="50.08049" lon="3.883">
        <ele>154.174</ele>
        <time>2019-09-19T11:40:01.001Z</time>
      </trkpt>
      <trkpt lat="50.08056" lon="3.88337">
        <ele>152.928</ele>
        <time>2019-09-19T11:40:04.001Z</time>
      </trkpt>
      <trkpt lat="50.08064" lon="3.88374">
        <ele>151.852</ele>
        <time>2019-09-19T11:40:07.001Z</time>
      </trkpt>
      <trkpt lat="50.08071" lon="3.88413">
        <ele>150.761</ele>
        <time>2019-09-19T11:40:10.001Z</time>
      </trkpt>
      <trkpt lat="50.08077" lon="3.88451">
        <ele>149.633</ele>
        <time>2019-09-19T11:40:13.001Z</time>
      </trkpt>
      <trkpt lat="50.08076" lon="3.88488">
        <ele>148.42</ele>
        <time>2019-09-19T11:40:16.000Z</time>
      </trkpt>
      <trkpt lat="50.08063" lon="3.88522">
        <ele>148.128</ele>
        <time>2019-09-19T11:40:19.001Z</time>
      </trkpt>
      <trkpt lat="50.08043" lon="3.88545">
        <ele>147.771</ele>
        <time>2019-09-19T11:40:22.001Z</time>
      </trkpt>
      <trkpt lat="50.08029" lon="3.88568">
        <ele>146.702</ele>
        <time>2019-09-19T11:40:25.001Z</time>
      </trkpt>
      <trkpt lat="50.08022" lon="3.88592">
        <ele>146.822</ele>
        <time>2019-09-19T11:40:28.001Z</time>
      </trkpt>
      <trkpt lat="50.08019" lon="3.88618">
        <ele>146.528</ele>
        <time>2019-09-19T11:40:31.001Z</time>
      </trkpt>
      <trkpt lat="50.0802" lon="3.88643">
        <ele>145.632</ele>
        <time>2019-09-19T11:40:34.001Z</time>
      </trkpt>
      <trkpt lat="50.08022" lon="3.88668">
        <ele>144.799</ele>
        <time>2019-09-19T11:40:37.001Z</time>
      </trkpt>
      <trkpt lat="50.08025" lon="3.88692">
        <ele>144.554</ele>
        <time>2019-09-19T11:40:40.001Z</time>
      </trkpt>
      <trkpt lat="50.08029" lon="3.88716">
        <ele>144.573</ele>
        <time>2019-09-19T11:40:43.001Z</time>
      </trkpt>
      <trkpt lat="50.08033" lon="3.88737">
        <ele>144.551</ele>
        <time>2019-09-19T11:40:46.001Z</time>
      </trkpt>
      <trkpt lat="50.08037" lon="3.88759">
        <ele>144.802</ele>
        <time>2019-09-19T11:40:49.001Z</time>
      </trkpt>
      <trkpt lat="50.08042" lon="3.88781">
        <ele>145.23</ele>
        <time>2019-09-19T11:40:52.001Z</time>
      </trkpt>
      <trkpt lat="50.08045" lon="3.88804">
        <ele>145.434</ele>
        <time>2019-09-19T11:40:55.001Z</time>
      </trkpt>
      <trkpt lat="50.08049" lon="3.88826">
        <ele>145.864</ele>
        <time>2019-09-19T11:40:58.001Z</time>
      </trkpt>
      <trkpt lat="50.08052" lon="3.8885">
        <ele>146.374</ele>
        <time>2019-09-19T11:41:01.001Z</time>
      </trkpt>
      <trkpt lat="50.08055" lon="3.88871">
        <ele>146.228</ele>
        <time>2019-09-19T11:41:04.001Z</time>
      </trkpt>
      <trkpt lat="50.08058" lon="3.88893">
        <ele>145.931</ele>
        <time>2019-09-19T11:41:07.001Z</time>
      </trkpt>
      <trkpt lat="50.08062" lon="3.88915">
        <ele>145.547</ele>
        <time>2019-09-19T11:41:10.001Z</time>
      </trkpt>
      <trkpt lat="50.08065" lon="3.88934">
        <ele>145.053</ele>
        <time>2019-09-19T11:41:13.001Z</time>
      </trkpt>
      <trkpt lat="50.08069" lon="3.88953">
        <ele>145.207</ele>
        <time>2019-09-19T11:41:16.000Z</time>
      </trkpt>
      <trkpt lat="50.08072" lon="3.88972">
        <ele>145.463</ele>
        <time>2019-09-19T11:41:19.001Z</time>
      </trkpt>
      <trkpt lat="50.08076" lon="3.88993">
        <ele>145.442</ele>
        <time>2019-09-19T11:41:22.001Z</time>
      </trkpt>
      <trkpt lat="50.0808" lon="3.89015">
        <ele>145.471</ele>
        <time>2019-09-19T11:41:25.001Z</time>
      </trkpt>
      <trkpt lat="50.08084" lon="3.89037">
        <ele>145.263</ele>
        <time>2019-09-19T11:41:28.001Z</time>
      </trkpt>
      <trkpt lat="50.08087" lon="3.89058">
        <ele>144.821</ele>
        <time>2019-09-19T11:41:31.001Z</time>
      </trkpt>
      <trkpt lat="50.08091" lon="3.89081">
        <ele>144.399</ele>
        <time>2019-09-19T11:41:34.001Z</time>
      </trkpt>
      <trkpt lat="50.08094" lon="3.89103">
        <ele>143.822</ele>
        <time>2019-09-19T11:41:37.001Z</time>
      </trkpt>
      <trkpt lat="50.08098" lon="3.89124">
        <ele>143.374</ele>
        <time>2019-09-19T11:41:40.001Z</time>
      </trkpt>
      <trkpt lat="50.08101" lon="3.89145">
        <ele>143.053</ele>
        <time>2019-09-19T11:41:43.001Z</time>
      </trkpt>
      <trkpt lat="50.08103" lon="3.89165">
        <ele>143.196</ele>
        <time>2019-09-19T11:41:46.001Z</time>
      </trkpt>
      <trkpt lat="50.08103" lon="3.89182">
        <ele>142.728</ele>
        <time>2019-09-19T11:41:49.001Z</time>
      </trkpt>
      <trkpt lat="50.081" lon="3.89196">
        <ele>143.194</ele>
        <time>2019-09-19T11:41:52.001Z</time>
      </trkpt>
      <trkpt lat="50.08095" lon="3.89211">
        <ele>144.334</ele>
        <time>2019-09-19T11:41:55.001Z</time>
      </trkpt>
      <trkpt lat="50.08089" lon="3.89226">
        <ele>145.354</ele>
        <time>2019-09-19T11:41:58.001Z</time>
      </trkpt>
      <trkpt lat="50.08081" lon="3.89238">
        <ele>146.497</ele>
        <time>2019-09-19T11:42:01.001Z</time>
      </trkpt>
      <trkpt lat="50.08073" lon="3.8925">
        <ele>147.316</ele>
        <time>2019-09-19T11:42:04.001Z</time>
      </trkpt>
      <trkpt lat="50.08066" lon="3.89261">
        <ele>148.073</ele>
        <time>2019-09-19T11:42:07.001Z</time>
      </trkpt>
      <trkpt lat="50.08058" lon="3.89272">
        <ele>149.01</ele>
        <time>2019-09-19T11:42:10.001Z</time>
      </trkpt>
      <trkpt lat="50.08049" lon="3.89282">
        <ele>149.563</ele>
        <time>2019-09-19T11:42:13.001Z</time>
      </trkpt>
      <trkpt lat="50.08042" lon="3.89293">
        <ele>149.525</ele>
        <time>2019-09-19T11:42:16.000Z</time>
      </trkpt>
      <trkpt lat="50.08035" lon="3.89304">
        <ele>149.951</ele>
        <time>2019-09-19T11:42:19.001Z</time>
      </trkpt>
      <trkpt lat="50.08029" lon="3.89316">
        <ele>149.941</ele>
        <time>2019-09-19T11:42:22.001Z</time>
      </trkpt>
      <trkpt lat="50.08024" lon="3.89328">
        <ele>150.063</ele>
        <time>2019-09-19T11:42:25.001Z</time>
      </trkpt>
      <trkpt lat="50.08017" lon="3.8934">
        <ele>150.427</ele>
        <time>2019-09-19T11:42:28.001Z</time>
      </trkpt>
      <trkpt lat="50.0801" lon="3.89351">
        <ele>150.362</ele>
        <time>2019-09-19T11:42:31.001Z</time>
      </trkpt>
      <trkpt lat="50.08003" lon="3.89361">
        <ele>150.865</ele>
        <time>2019-09-19T11:42:34.001Z</time>
      </trkpt>
      <trkpt lat="50.07997" lon="3.89372">
        <ele>151.557</ele>
        <time>2019-09-19T11:42:37.001Z</time>
      </trkpt>
      <trkpt lat="50.0799" lon="3.8938">
        <ele>152.031</ele>
        <time>2019-09-19T11:42:40.001Z</time>
      </trkpt>
      <trkpt lat="50.07983" lon="3.89389">
        <ele>152.319</ele>
        <time>2019-09-19T11:42:43.001Z</time>
      </trkpt>
      <trkpt lat="50.07978" lon="3.89396">
        <ele>152.482</ele>
        <time>2019-09-19T11:42:46.001Z</time>
      </trkpt>
      <trkpt lat="50.07971" lon="3.89403">
        <ele>153.227</ele>
        <time>2019-09-19T11:42:49.001Z</time>
      </trkpt>
      <trkpt lat="50.07963" lon="3.89405">
        <ele>154.322</ele>
        <time>2019-09-19T11:42:52.001Z</time>
      </trkpt>
      <trkpt lat="50.07955" lon="3.89408">
        <ele>155.786</ele>
        <time>2019-09-19T11:42:55.001Z</time>
      </trkpt>
      <trkpt lat="50.07947" lon="3.89409">
        <ele>158.197</ele>
        <time>2019-09-19T11:42:58.001Z</time>
      </trkpt>
      <trkpt lat="50.07939" lon="3.8941">
        <ele>158.986</ele>
        <time>2019-09-19T11:43:01.001Z</time>
      </trkpt>
      <trkpt lat="50.07931" lon="3.89414">
        <ele>159.609</ele>
        <time>2019-09-19T11:43:04.001Z</time>
      </trkpt>
      <trkpt lat="50.07925" lon="3.89415">
        <ele>159.891</ele>
        <time>2019-09-19T11:43:07.001Z</time>
      </trkpt>
      <trkpt lat="50.07918" lon="3.89419">
        <ele>160.58</ele>
        <time>2019-09-19T11:43:10.001Z</time>
      </trkpt>
      <trkpt lat="50.07913" lon="3.89426">
        <ele>161.634</ele>
        <time>2019-09-19T11:43:13.001Z</time>
      </trkpt>
      <trkpt lat="50.07907" lon="3.89437">
        <ele>163.175</ele>
        <time>2019-09-19T11:43:16.000Z</time>
      </trkpt>
      <trkpt lat="50.07901" lon="3.89445">
        <ele>163.594</ele>
        <time>2019-09-19T11:43:19.001Z</time>
      </trkpt>
      <trkpt lat="50.07896" lon="3.89456">
        <ele>163.469</ele>
        <time>2019-09-19T11:43:22.001Z</time>
      </trkpt>
      <trkpt lat="50.07891" lon="3.89467">
        <ele>162.791</ele>
        <time>2019-09-19T11:43:25.001Z</time>
      </trkpt>
      <trkpt lat="50.07886" lon="3.89478">
        <ele>162.226</ele>
        <time>2019-09-19T11:43:28.001Z</time>
      </trkpt>
      <trkpt lat="50.07881" lon="3.8949">
        <ele>162.416</ele>
        <time>2019-09-19T11:43:31.001Z</time>
      </trkpt>
      <trkpt lat="50.07876" lon="3.89502">
        <ele>162.629</ele>
        <time>2019-09-19T11:43:34.001Z</time>
      </trkpt>
      <trkpt lat="50.07873" lon="3.89514">
        <ele>163.057</ele>
        <time>2019-09-19T11:43:37.001Z</time>
      </trkpt>
      <trkpt lat="50.0787" lon="3.89524">
        <ele>163.68</ele>
        <time>2019-09-19T11:43:40.001Z</time>
      </trkpt>
      <trkpt lat="50.07867" lon="3.89536">
        <ele>164.487</ele>
        <time>2019-09-19T11:43:43.001Z</time>
      </trkpt>
      <trkpt lat="50.07865" lon="3.89548">
        <ele>165.196</ele>
        <time>2019-09-19T11:43:46.001Z</time>
      </trkpt>
      <trkpt lat="50.07864" lon="3.89561">
        <ele>165.756</ele>
        <time>2019-09-19T11:43:49.001Z</time>
      </trkpt>
      <trkpt lat="50.0786" lon="3.89575">
        <ele>165.871</ele>
        <time>2019-09-19T11:43:52.001Z</time>
      </trkpt>
      <trkpt lat="50.07856" lon="3.89587">
        <ele>166.549</ele>
        <time>2019-09-19T11:43:55.001Z</time>
      </trkpt>
      <trkpt lat="50.07852" lon="3.89598">
        <ele>166.75</ele>
        <time>2019-09-19T11:43:58.001Z</time>
      </trkpt>
      <trkpt lat="50.07847" lon="3.89609">
        <ele>167.435</ele>
        <time>2019-09-19T11:44:01.001Z</time>
      </trkpt>
      <trkpt lat="50.07841" lon="3.89618">
        <ele>167.108</ele>
        <time>2019-09-19T11:44:04.001Z</time>
      </trkpt>
      <trkpt lat="50.07833" lon="3.89627">
        <ele>166.17</ele>
        <time>2019-09-19T11:44:07.001Z</time>
      </trkpt>
      <trkpt lat="50.07826" lon="3.89637">
        <ele>165.729</ele>
        <time>2019-09-19T11:44:10.001Z</time>
      </trkpt>
      <trkpt lat="50.07819" lon="3.89648">
        <ele>165.636</ele>
        <time>2019-09-19T11:44:13.001Z</time>
      </trkpt>
      <trkpt lat="50.07811" lon="3.89661">
        <ele>165.836</ele>
        <time>2019-09-19T11:44:16.000Z</time>
      </trkpt>
      <trkpt lat="50.07804" lon="3.89674">
        <ele>164.814</ele>
        <time>2019-09-19T11:44:19.001Z</time>
      </trkpt>
      <trkpt lat="50.07798" lon="3.89689">
        <ele>163.83</ele>
        <time>2019-09-19T11:44:22.001Z</time>
      </trkpt>
      <trkpt lat="50.07791" lon="3.89704">
        <ele>163.95</ele>
        <time>2019-09-19T11:44:25.001Z</time>
      </trkpt>
      <trkpt lat="50.07785" lon="3.8972">
        <ele>163.611</ele>
        <time>2019-09-19T11:44:28.001Z</time>
      </trkpt>
      <trkpt lat="50.07779" lon="3.89738">
        <ele>163.674</ele>
        <time>2019-09-19T11:44:31.001Z</time>
      </trkpt>
      <trkpt lat="50.07774" lon="3.89755">
        <ele>163.168</ele>
        <time>2019-09-19T11:44:34.001Z</time>
      </trkpt>
      <trkpt lat="50.07768" lon="3.89773">
        <ele>162.911</ele>
        <time>2019-09-19T11:44:37.001Z</time>
      </trkpt>
      <trkpt lat="50.07765" lon="3.89791">
        <ele>162.646</ele>
        <time>2019-09-19T11:44:40.001Z</time>
      </trkpt>
      <trkpt lat="50.07763" lon="3.89808">
        <ele>162.648</ele>
        <time>2019-09-19T11:44:43.001Z</time>
      </trkpt>
      <trkpt lat="50.07762" lon="3.89825">
        <ele>162.833</ele>
        <time>2019-09-19T11:44:46.001Z</time>
      </trkpt>
      <trkpt lat="50.07761" lon="3.89842">
        <ele>162.058</ele>
        <time>2019-09-19T11:44:49.001Z</time>
      </trkpt>
      <trkpt lat="50.0776" lon="3.8986">
        <ele>161.478</ele>
        <time>2019-09-19T11:44:52.001Z</time>
      </trkpt>
      <trkpt lat="50.07758" lon="3.89877">
        <ele>160.96</ele>
        <time>2019-09-19T11:44:55.001Z</time>
      </trkpt>
      <trkpt lat="50.07756" lon="3.89895">
        <ele>160.667</ele>
        <time>2019-09-19T11:44:58.001Z</time>
      </trkpt>
      <trkpt lat="50.07754" lon="3.89916">
        <ele>160.625</ele>
        <time>2019-09-19T11:45:01.001Z</time>
      </trkpt>
      <trkpt lat="50.07749" lon="3.89939">
        <ele>160.801</ele>
        <time>2019-09-19T11:45:04.001Z</time>
      </trkpt>
      <trkpt lat="50.07743" lon="3.89966">
        <ele>160.304</ele>
        <time>2019-09-19T11:45:07.001Z</time>
      </trkpt>
      <trkpt lat="50.07733" lon="3.89991">
        <ele>160.482</ele>
        <time>2019-09-19T11:45:10.001Z</time>
      </trkpt>
      <trkpt lat="50.07717" lon="3.90009">
        <ele>159.264</ele>
        <time>2019-09-19T11:45:13.001Z</time>
      </trkpt>
      <trkpt lat="50.07698" lon="3.90022">
        <ele>158.288</ele>
        <time>2019-09-19T11:45:16.000Z</time>
      </trkpt>
      <trkpt lat="50.07678" lon="3.90037">
        <ele>156.782</ele>
        <time>2019-09-19T11:45:19.001Z</time>
      </trkpt>
      <trkpt lat="50.07657" lon="3.90055">
        <ele>155.385</ele>
        <time>2019-09-19T11:45:22.001Z</time>
      </trkpt>
      <trkpt lat="50.07638" lon="3.90081">
        <ele>154.206</ele>
        <time>2019-09-19T11:45:25.001Z</time>
      </trkpt>
      <trkpt lat="50.07621" lon="3.90111">
        <ele>152.886</ele>
        <time>2019-09-19T11:45:28.001Z</time>
      </trkpt>
      <trkpt lat="50.07603" lon="3.9014">
        <ele>151.472</ele>
        <time>2019-09-19T11:45:31.001Z</time>
      </trkpt>
      <trkpt lat="50.07587" lon="3.90169">
        <ele>149.512</ele>
        <time>2019-09-19T11:45:34.001Z</time>
      </trkpt>
      <trkpt lat="50.07576" lon="3.90201">
        <ele>148.333</ele>
        <time>2019-09-19T11:45:37.001Z</time>
      </trkpt>
      <trkpt lat="50.07568" lon="3.90235">
        <ele>147.67</ele>
        <time>2019-09-19T11:45:40.001Z</time>
      </trkpt>
      <trkpt lat="50.07564" lon="3.90267">
        <ele>147.178</ele>
        <time>2019-09-19T11:45:43.001Z</time>
      </trkpt>
      <trkpt lat="50.07566" lon="3.90297">
        <ele>144.745</ele>
        <time>2019-09-19T11:45:46.001Z</time>
      </trkpt>
      <trkpt lat="50.07574" lon="3.9032">
        <ele>144.375</ele>
        <time>2019-09-19T11:45:49.001Z</time>
      </trkpt>
      <trkpt lat="50.07583" lon="3.9034">
        <ele>144.317</ele>
        <time>2019-09-19T11:45:52.001Z</time>
      </trkpt>
      <trkpt lat="50.07592" lon="3.9036">
        <ele>143.88</ele>
        <time>2019-09-19T11:45:55.001Z</time>
      </trkpt>
      <trkpt lat="50.07599" lon="3.90381">
        <ele>143.96</ele>
        <time>2019-09-19T11:45:58.001Z</time>
      </trkpt>
      <trkpt lat="50.07607" lon="3.90401">
        <ele>144.774</ele>
        <time>2019-09-19T11:46:01.001Z</time>
      </trkpt>
      <trkpt lat="50.07614" lon="3.90422">
        <ele>145.971</ele>
        <time>2019-09-19T11:46:04.001Z</time>
      </trkpt>
      <trkpt lat="50.07621" lon="3.9044">
        <ele>146.98</ele>
        <time>2019-09-19T11:46:07.001Z</time>
      </trkpt>
      <trkpt lat="50.07628" lon="3.90458">
        <ele>147.738</ele>
        <time>2019-09-19T11:46:10.001Z</time>
      </trkpt>
      <trkpt lat="50.07633" lon="3.90475">
        <ele>148.757</ele>
        <time>2019-09-19T11:46:13.001Z</time>
      </trkpt>
      <trkpt lat="50.07638" lon="3.90489">
        <ele>148.942</ele>
        <time>2019-09-19T11:46:16.000Z</time>
      </trkpt>
      <trkpt lat="50.07641" lon="3.90506">
        <ele>149.35</ele>
        <time>2019-09-19T11:46:19.001Z</time>
      </trkpt>
      <trkpt lat="50.07644" lon="3.90524">
        <ele>148.396</ele>
        <time>2019-09-19T11:46:22.001Z</time>
      </trkpt>
      <trkpt lat="50.07644" lon="3.90545">
        <ele>148.224</ele>
        <time>2019-09-19T11:46:25.001Z</time>
      </trkpt>
      <trkpt lat="50.07644" lon="3.90567">
        <ele>147.853</ele>
        <time>2019-09-19T11:46:28.001Z</time>
      </trkpt>
      <trkpt lat="50.07643" lon="3.9059">
        <ele>147.838</ele>
        <time>2019-09-19T11:46:31.001Z</time>
      </trkpt>
      <trkpt lat="50.07641" lon="3.90613">
        <ele>148.378</ele>
        <time>2019-09-19T11:46:34.001Z</time>
      </trkpt>
      <trkpt lat="50.07639" lon="3.90636">
        <ele>148.798</ele>
        <time>2019-09-19T11:46:37.001Z</time>
      </trkpt>
      <trkpt lat="50.07637" lon="3.90658">
        <ele>149.589</ele>
        <time>2019-09-19T11:46:40.001Z</time>
      </trkpt>
      <trkpt lat="50.07633" lon="3.90678">
        <ele>149.715</ele>
        <time>2019-09-19T11:46:43.001Z</time>
      </trkpt>
      <trkpt lat="50.07628" lon="3.90697">
        <ele>150.379</ele>
        <time>2019-09-19T11:46:46.001Z</time>
      </trkpt>
      <trkpt lat="50.07625" lon="3.90716">
        <ele>150.668</ele>
        <time>2019-09-19T11:46:49.001Z</time>
      </trkpt>
      <trkpt lat="50.07623" lon="3.90734">
        <ele>151.377</ele>
        <time>2019-09-19T11:46:52.001Z</time>
      </trkpt>
      <trkpt lat="50.07623" lon="3.90753">
        <ele>152.128</ele>
        <time>2019-09-19T11:46:55.001Z</time>
      </trkpt>
      <trkpt lat="50.07622" lon="3.90771">
        <ele>152.158</ele>
        <time>2019-09-19T11:46:58.001Z</time>
      </trkpt>
      <trkpt lat="50.07622" lon="3.90789">
        <ele>152.831</ele>
        <time>2019-09-19T11:47:01.001Z</time>
      </trkpt>
      <trkpt lat="50.07621" lon="3.90806">
        <ele>152.838</ele>
        <time>2019-09-19T11:47:04.001Z</time>
      </trkpt>
      <trkpt lat="50.07621" lon="3.90823">
        <ele>153.316</ele>
        <time>2019-09-19T11:47:07.001Z</time>
      </trkpt>
      <trkpt lat="50.07621" lon="3.9084">
        <ele>153.165</ele>
        <time>2019-09-19T11:47:10.001Z</time>
      </trkpt>
      <trkpt lat="50.07621" lon="3.90857">
        <ele>153.043</ele>
        <time>2019-09-19T11:47:13.001Z</time>
      </trkpt>
      <trkpt lat="50.07621" lon="3.90875">
        <ele>153.769</ele>
        <time>2019-09-19T11:47:16.000Z</time>
      </trkpt>
      <trkpt lat="50.0762" lon="3.90894">
        <ele>154.051</ele>
        <time>2019-09-19T11:47:19.001Z</time>
      </trkpt>
      <trkpt lat="50.07619" lon="3.90912">
        <ele>153.666</ele>
        <time>2019-09-19T11:47:22.001Z</time>
      </trkpt>
      <trkpt lat="50.07619" lon="3.90929">
        <ele>153.196</ele>
        <time>2019-09-19T11:47:25.001Z</time>
      </trkpt>
      <trkpt lat="50.0762" lon="3.90947">
        <ele>152.655</ele>
        <time>2019-09-19T11:47:28.001Z</time>
      </trkpt>
      <trkpt lat="50.07623" lon="3.90964">
        <ele>152.085</ele>
        <time>2019-09-19T11:47:31.001Z</time>
      </trkpt>
      <trkpt lat="50.07625" lon="3.90982">
        <ele>151.657</ele>
        <time>2019-09-19T11:47:34.001Z</time>
      </trkpt>
      <trkpt lat="50.07629" lon="3.90999">
        <ele>151.28</ele>
        <time>2019-09-19T11:47:37.001Z</time>
      </trkpt>
      <trkpt lat="50.07632" lon="3.91016">
        <ele>151.696</ele>
        <time>2019-09-19T11:47:40.001Z</time>
      </trkpt>
      <trkpt lat="50.07635" lon="3.91033">
        <ele>151.695</ele>
        <time>2019-09-19T11:47:43.001Z</time>
      </trkpt>
      <trkpt lat="50.07637" lon="3.91051">
        <ele>151.648</ele>
        <time>2019-09-19T11:47:46.001Z</time>
      </trkpt>
      <trkpt lat="50.07638" lon="3.9107">
        <ele>151.778</ele>
        <time>2019-09-19T11:47:49.001Z</time>
      </trkpt>
      <trkpt lat="50.07638" lon="3.91089">
        <ele>151.925</ele>
        <time>2019-09-19T11:47:52.001Z</time>
      </trkpt>
      <trkpt lat="50.07637" lon="3.91107">
        <ele>151.848</ele>
        <time>2019-09-19T11:47:55.001Z</time>
      </trkpt>
      <trkpt lat="50.07636" lon="3.91126">
        <ele>152.068</ele>
        <time>2019-09-19T11:47:58.001Z</time>
      </trkpt>
      <trkpt lat="50.07635" lon="3.91145">
        <ele>151.981</ele>
        <time>2019-09-19T11:48:01.001Z</time>
      </trkpt>
      <trkpt lat="50.07633" lon="3.91164">
        <ele>151.909</ele>
        <time>2019-09-19T11:48:04.001Z</time>
      </trkpt>
      <trkpt lat="50.07631" lon="3.91183">
        <ele>151.942</ele>
        <time>2019-09-19T11:48:07.001Z</time>
      </trkpt>
      <trkpt lat="50.07629" lon="3.91202">
        <ele>151.504</ele>
        <time>2019-09-19T11:48:10.001Z</time>
      </trkpt>
      <trkpt lat="50.07627" lon="3.9122">
        <ele>151.239</ele>
        <time>2019-09-19T11:48:13.001Z</time>
      </trkpt>
      <trkpt lat="50.07624" lon="3.91239">
        <ele>150.912</ele>
        <time>2019-09-19T11:48:16.000Z</time>
      </trkpt>
      <trkpt lat="50.07622" lon="3.91259">
        <ele>150.172</ele>
        <time>2019-09-19T11:48:19.001Z</time>
      </trkpt>
      <trkpt lat="50.0762" lon="3.91279">
        <ele>150.764</ele>
        <time>2019-09-19T11:48:22.001Z</time>
      </trkpt>
      <trkpt lat="50.07618" lon="3.91299">
        <ele>150.441</ele>
        <time>2019-09-19T11:48:25.001Z</time>
      </trkpt>
      <trkpt lat="50.07618" lon="3.91318">
        <ele>149.978</ele>
        <time>2019-09-19T11:48:28.001Z</time>
      </trkpt>
      <trkpt lat="50.07617" lon="3.91337">
        <ele>149.918</ele>
        <time>2019-09-19T11:48:31.001Z</time>
      </trkpt>
      <trkpt lat="50.07617" lon="3.91356">
        <ele>150.189</ele>
        <time>2019-09-19T11:48:34.001Z</time>
      </trkpt>
      <trkpt lat="50.07615" lon="3.91375">
        <ele>150.545</ele>
        <time>2019-09-19T11:48:37.001Z</time>
      </trkpt>
      <trkpt lat="50.07615" lon="3.91394">
        <ele>151.072</ele>
        <time>2019-09-19T11:48:40.001Z</time>
      </trkpt>
      <trkpt lat="50.07614" lon="3.91413">
        <ele>151.43</ele>
        <time>2019-09-19T11:48:43.001Z</time>
      </trkpt>
      <trkpt lat="50.07614" lon="3.91432">
        <ele>152.142</ele>
        <time>2019-09-19T11:48:46.001Z</time>
      </trkpt>
      <trkpt lat="50.07615" lon="3.91451">
        <ele>152.766</ele>
        <time>2019-09-19T11:48:49.001Z</time>
      </trkpt>
      <trkpt lat="50.07618" lon="3.91469">
        <ele>153.597</ele>
        <time>2019-09-19T11:48:52.001Z</time>
      </trkpt>
      <trkpt lat="50.07621" lon="3.91489">
        <ele>153.93</ele>
        <time>2019-09-19T11:48:55.001Z</time>
      </trkpt>
      <trkpt lat="50.07623" lon="3.91508">
        <ele>153.618</ele>
        <time>2019-09-19T11:48:58.001Z</time>
      </trkpt>
      <trkpt lat="50.07623" lon="3.91526">
        <ele>153.066</ele>
        <time>2019-09-19T11:49:01.001Z</time>
      </trkpt>
      <trkpt lat="50.07622" lon="3.91544">
        <ele>152.471</ele>
        <time>2019-09-19T11:49:04.001Z</time>
      </trkpt>
      <trkpt lat="50.07619" lon="3.91562">
        <ele>152.276</ele>
        <time>2019-09-19T11:49:07.001Z</time>
      </trkpt>
      <trkpt lat="50.07614" lon="3.91579">
        <ele>151.968</ele>
        <time>2019-09-19T11:49:10.001Z</time>
      </trkpt>
      <trkpt lat="50.07609" lon="3.91593">
        <ele>152.197</ele>
        <time>2019-09-19T11:49:13.001Z</time>
      </trkpt>
      <trkpt lat="50.07602" lon="3.91606">
        <ele>152.275</ele>
        <time>2019-09-19T11:49:16.000Z</time>
      </trkpt>
      <trkpt lat="50.07594" lon="3.91618">
        <ele>152.348</ele>
        <time>2019-09-19T11:49:19.001Z</time>
      </trkpt>
      <trkpt lat="50.07585" lon="3.91629">
        <ele>152.227</ele>
        <time>2019-09-19T11:49:22.001Z</time>
      </trkpt>
      <trkpt lat="50.07576" lon="3.91636">
        <ele>152.124</ele>
        <time>2019-09-19T11:49:25.001Z</time>
      </trkpt>
      <trkpt lat="50.07564" lon="3.91642">
        <ele>152.325</ele>
        <time>2019-09-19T11:49:28.001Z</time>
      </trkpt>
      <trkpt lat="50.07551" lon="3.91644">
        <ele>152.109</ele>
        <time>2019-09-19T11:49:31.001Z</time>
      </trkpt>
      <trkpt lat="50.07537" lon="3.91647">
        <ele>152.317</ele>
        <time>2019-09-19T11:49:34.001Z</time>
      </trkpt>
      <trkpt lat="50.07523" lon="3.91653">
        <ele>153.009</ele>
        <time>2019-09-19T11:49:37.001Z</time>
      </trkpt>
      <trkpt lat="50.07508" lon="3.91657">
        <ele>153.729</ele>
        <time>2019-09-19T11:49:40.001Z</time>
      </trkpt>
      <trkpt lat="50.07492" lon="3.91662">
        <ele>154.211</ele>
        <time>2019-09-19T11:49:43.001Z</time>
      </trkpt>
      <trkpt lat="50.07475" lon="3.91665">
        <ele>153.936</ele>
        <time>2019-09-19T11:49:46.001Z</time>
      </trkpt>
      <trkpt lat="50.0746" lon="3.91669">
        <ele>153.292</ele>
        <time>2019-09-19T11:49:49.001Z</time>
      </trkpt>
      <trkpt lat="50.07445" lon="3.91673">
        <ele>152.666</ele>
        <time>2019-09-19T11:49:52.001Z</time>
      </trkpt>
      <trkpt lat="50.0743" lon="3.91676">
        <ele>151.83</ele>
        <time>2019-09-19T11:49:55.001Z</time>
      </trkpt>
      <trkpt lat="50.07415" lon="3.91679">
        <ele>150.863</ele>
        <time>2019-09-19T11:49:58.001Z</time>
      </trkpt>
      <trkpt lat="50.07401" lon="3.91684">
        <ele>150.272</ele>
        <time>2019-09-19T11:50:01.001Z</time>
      </trkpt>
      <trkpt lat="50.07386" lon="3.91688">
        <ele>149.993</ele>
        <time>2019-09-19T11:50:04.001Z</time>
      </trkpt>
      <trkpt lat="50.07371" lon="3.91694">
        <ele>149.13</ele>
        <time>2019-09-19T11:50:07.001Z</time>
      </trkpt>
      <trkpt lat="50.07358" lon="3.91701">
        <ele>148.99</ele>
        <time>2019-09-19T11:50:10.001Z</time>
      </trkpt>
      <trkpt lat="50.07346" lon="3.91714">
        <ele>148.648</ele>
        <time>2019-09-19T11:50:13.001Z</time>
      </trkpt>
      <trkpt lat="50.07336" lon="3.91732">
        <ele>148.815</ele>
        <time>2019-09-19T11:50:16.000Z</time>
      </trkpt>
      <trkpt lat="50.0733" lon="3.91753">
        <ele>148.908</ele>
        <time>2019-09-19T11:50:19.001Z</time>
      </trkpt>
      <trkpt lat="50.07328" lon="3.91776">
        <ele>149.063</ele>
        <time>2019-09-19T11:50:22.001Z</time>
      </trkpt>
      <trkpt lat="50.07326" lon="3.91798">
        <ele>149.353</ele>
        <time>2019-09-19T11:50:25.001Z</time>
      </trkpt>
      <trkpt lat="50.07323" lon="3.91821">
        <ele>149.488</ele>
        <time>2019-09-19T11:50:28.001Z</time>
      </trkpt>
      <trkpt lat="50.07321" lon="3.91843">
        <ele>149.998</ele>
        <time>2019-09-19T11:50:31.001Z</time>
      </trkpt>
      <trkpt lat="50.07318" lon="3.91865">
        <ele>150.172</ele>
        <time>2019-09-19T11:50:34.001Z</time>
      </trkpt>
      <trkpt lat="50.07315" lon="3.91887">
        <ele>149.838</ele>
        <time>2019-09-19T11:50:37.001Z</time>
      </trkpt>
      <trkpt lat="50.0731" lon="3.91909">
        <ele>149.764</ele>
        <time>2019-09-19T11:50:40.001Z</time>
      </trkpt>
      <trkpt lat="50.07304" lon="3.91929">
        <ele>149.998</ele>
        <time>2019-09-19T11:50:43.001Z</time>
      </trkpt>
      <trkpt lat="50.07298" lon="3.9195">
        <ele>149.942</ele>
        <time>2019-09-19T11:50:46.001Z</time>
      </trkpt>
      <trkpt lat="50.0729" lon="3.91968">
        <ele>149.71</ele>
        <time>2019-09-19T11:50:49.001Z</time>
      </trkpt>
      <trkpt lat="50.07282" lon="3.91986">
        <ele>149.575</ele>
        <time>2019-09-19T11:50:52.001Z</time>
      </trkpt>
      <trkpt lat="50.07273" lon="3.92003">
        <ele>149.424</ele>
        <time>2019-09-19T11:50:55.001Z</time>
      </trkpt>
      <trkpt lat="50.07263" lon="3.9202">
        <ele>149.641</ele>
        <time>2019-09-19T11:50:58.001Z</time>
      </trkpt>
      <trkpt lat="50.07255" lon="3.92037">
        <ele>150.233</ele>
        <time>2019-09-19T11:51:01.001Z</time>
      </trkpt>
      <trkpt lat="50.07247" lon="3.92054">
        <ele>150.571</ele>
        <time>2019-09-19T11:51:04.001Z</time>
      </trkpt>
      <trkpt lat="50.07241" lon="3.92072">
        <ele>151.024</ele>
        <time>2019-09-19T11:51:07.001Z</time>
      </trkpt>
      <trkpt lat="50.07236" lon="3.92091">
        <ele>151.294</ele>
        <time>2019-09-19T11:51:10.001Z</time>
      </trkpt>
      <trkpt lat="50.07231" lon="3.92111">
        <ele>151.421</ele>
        <time>2019-09-19T11:51:13.001Z</time>
      </trkpt>
      <trkpt lat="50.07225" lon="3.9213">
        <ele>151.645</ele>
        <time>2019-09-19T11:51:16.000Z</time>
      </trkpt>
      <trkpt lat="50.0722" lon="3.92148">
        <ele>151.763</ele>
        <time>2019-09-19T11:51:19.001Z</time>
      </trkpt>
      <trkpt lat="50.07214" lon="3.92167">
        <ele>151.496</ele>
        <time>2019-09-19T11:51:22.001Z</time>
      </trkpt>
      <trkpt lat="50.07208" lon="3.92186">
        <ele>151.189</ele>
        <time>2019-09-19T11:51:25.001Z</time>
      </trkpt>
      <trkpt lat="50.07203" lon="3.92205">
        <ele>151.675</ele>
        <time>2019-09-19T11:51:28.001Z</time>
      </trkpt>
      <trkpt lat="50.07198" lon="3.92224">
        <ele>151.76</ele>
        <time>2019-09-19T11:51:31.001Z</time>
      </trkpt>
      <trkpt lat="50.07193" lon="3.92244">
        <ele>151.219</ele>
        <time>2019-09-19T11:51:34.001Z</time>
      </trkpt>
      <trkpt lat="50.0719" lon="3.92266">
        <ele>150.693</ele>
        <time>2019-09-19T11:51:37.001Z</time>
      </trkpt>
      <trkpt lat="50.0719" lon="3.92287">
        <ele>150.124</ele>
        <time>2019-09-19T11:51:40.001Z</time>
      </trkpt>
      <trkpt lat="50.07191" lon="3.92309">
        <ele>149.72</ele>
        <time>2019-09-19T11:51:43.001Z</time>
      </trkpt>
      <trkpt lat="50.07192" lon="3.92331">
        <ele>149.305</ele>
        <time>2019-09-19T11:51:46.001Z</time>
      </trkpt>
      <trkpt lat="50.07194" lon="3.92353">
        <ele>149.288</ele>
        <time>2019-09-19T11:51:49.001Z</time>
      </trkpt>
      <trkpt lat="50.07192" lon="3.92374">
        <ele>149.52</ele>
        <time>2019-09-19T11:51:52.001Z</time>
      </trkpt>
      <trkpt lat="50.07187" lon="3.92394">
        <ele>149.934</ele>
        <time>2019-09-19T11:51:55.001Z</time>
      </trkpt>
      <trkpt lat="50.07178" lon="3.92413">
        <ele>150.312</ele>
        <time>2019-09-19T11:51:58.001Z</time>
      </trkpt>
      <trkpt lat="50.07169" lon="3.9243">
        <ele>150.206</ele>
        <time>2019-09-19T11:52:01.001Z</time>
      </trkpt>
      <trkpt lat="50.0716" lon="3.92446">
        <ele>150.16</ele>
        <time>2019-09-19T11:52:04.001Z</time>
      </trkpt>
      <trkpt lat="50.07151" lon="3.92462">
        <ele>150.521</ele>
        <time>2019-09-19T11:52:07.001Z</time>
      </trkpt>
      <trkpt lat="50.07142" lon="3.92478">
        <ele>150.641</ele>
        <time>2019-09-19T11:52:10.001Z</time>
      </trkpt>
      <trkpt lat="50.07133" lon="3.92494">
        <ele>150.691</ele>
        <time>2019-09-19T11:52:13.001Z</time>
      </trkpt>
      <trkpt lat="50.07124" lon="3.92511">
        <ele>150.668</ele>
        <time>2019-09-19T11:52:16.000Z</time>
      </trkpt>
      <trkpt lat="50.07115" lon="3.92527">
        <ele>150.799</ele>
        <time>2019-09-19T11:52:19.001Z</time>
      </trkpt>
      <trkpt lat="50.07106" lon="3.92542">
        <ele>150.87</ele>
        <time>2019-09-19T11:52:22.001Z</time>
      </trkpt>
      <trkpt lat="50.07096" lon="3.92555">
        <ele>150.881</ele>
        <time>2019-09-19T11:52:25.001Z</time>
      </trkpt>
      <trkpt lat="50.07085" lon="3.92568">
        <ele>150.727</ele>
        <time>2019-09-19T11:52:28.001Z</time>
      </trkpt>
      <trkpt lat="50.07073" lon="3.9258">
        <ele>150.917</ele>
        <time>2019-09-19T11:52:31.001Z</time>
      </trkpt>
      <trkpt lat="50.07062" lon="3.92591">
        <ele>151.01</ele>
        <time>2019-09-19T11:52:34.001Z</time>
      </trkpt>
      <trkpt lat="50.0705" lon="3.92603">
        <ele>151.161</ele>
        <time>2019-09-19T11:52:37.001Z</time>
      </trkpt>
      <trkpt lat="50.07038" lon="3.92614">
        <ele>151.186</ele>
        <time>2019-09-19T11:52:40.001Z</time>
      </trkpt>
      <trkpt lat="50.07027" lon="3.92626">
        <ele>151.361</ele>
        <time>2019-09-19T11:52:43.001Z</time>
      </trkpt>
      <trkpt lat="50.07015" lon="3.92638">
        <ele>151.698</ele>
        <time>2019-09-19T11:52:46.001Z</time>
      </trkpt>
      <trkpt lat="50.07004" lon="3.9265">
        <ele>151.823</ele>
        <time>2019-09-19T11:52:49.001Z</time>
      </trkpt>
      <trkpt lat="50.06992" lon="3.92662">
        <ele>151.756</ele>
        <time>2019-09-19T11:52:52.001Z</time>
      </trkpt>
      <trkpt lat="50.06981" lon="3.92673">
        <ele>152.23</ele>
        <time>2019-09-19T11:52:55.001Z</time>
      </trkpt>
      <trkpt lat="50.0697" lon="3.92684">
        <ele>152.004</ele>
        <time>2019-09-19T11:52:58.001Z</time>
      </trkpt>
      <trkpt lat="50.06959" lon="3.92697">
        <ele>151.66</ele>
        <time>2019-09-19T11:53:01.001Z</time>
      </trkpt>
      <trkpt lat="50.06949" lon="3.92709">
        <ele>151.903</ele>
        <time>2019-09-19T11:53:04.001Z</time>
      </trkpt>
      <trkpt lat="50.06939" lon="3.92721">
        <ele>152.405</ele>
        <time>2019-09-19T11:53:07.001Z</time>
      </trkpt>
      <trkpt lat="50.06929" lon="3.92733">
        <ele>152.578</ele>
        <time>2019-09-19T11:53:10.001Z</time>
      </trkpt>
      <trkpt lat="50.06919" lon="3.92744">
        <ele>152.738</ele>
        <time>2019-09-19T11:53:13.001Z</time>
      </trkpt>
      <trkpt lat="50.06907" lon="3.92753">
        <ele>152.351</ele>
        <time>2019-09-19T11:53:16.000Z</time>
      </trkpt>
      <trkpt lat="50.06895" lon="3.92759">
        <ele>151.986</ele>
        <time>2019-09-19T11:53:19.001Z</time>
      </trkpt>
      <trkpt lat="50.06881" lon="3.92765">
        <ele>151.477</ele>
        <time>2019-09-19T11:53:22.001Z</time>
      </trkpt>
      <trkpt lat="50.06868" lon="3.92771">
        <ele>151.11</ele>
        <time>2019-09-19T11:53:25.001Z</time>
      </trkpt>
      <trkpt lat="50.06855" lon="3.92777">
        <ele>151.24</ele>
        <time>2019-09-19T11:53:28.001Z</time>
      </trkpt>
      <trkpt lat="50.06843" lon="3.92784">
        <ele>151.48</ele>
        <time>2019-09-19T11:53:31.001Z</time>
      </trkpt>
      <trkpt lat="50.06831" lon="3.92793">
        <ele>151.737</ele>
        <time>2019-09-19T11:53:34.001Z</time>
      </trkpt>
      <trkpt lat="50.06822" lon="3.92803">
        <ele>152.015</ele>
        <time>2019-09-19T11:53:37.001Z</time>
      </trkpt>
      <trkpt lat="50.06814" lon="3.92814">
        <ele>152.608</ele>
        <time>2019-09-19T11:53:40.001Z</time>
      </trkpt>
      <trkpt lat="50.06807" lon="3.92825">
        <ele>153.032</ele>
        <time>2019-09-19T11:53:43.001Z</time>
      </trkpt>
      <trkpt lat="50.06802" lon="3.92836">
        <ele>153.369</ele>
        <time>2019-09-19T11:53:46.001Z</time>
      </trkpt>
      <trkpt lat="50.06798" lon="3.92844">
        <ele>153.596</ele>
        <time>2019-09-19T11:53:49.001Z</time>
      </trkpt>
      <trkpt lat="50.06795" lon="3.92849">
        <ele>154.32</ele>
        <time>2019-09-19T11:53:52.001Z</time>
      </trkpt>
      <trkpt lat="50.06795" lon="3.92849">
        <ele>154.594</ele>
        <time>2019-09-19T11:54:49.001Z</time>
      </trkpt>
      <trkpt lat="50.06794" lon="3.92849">
        <ele>154.546</ele>
        <time>2019-09-19T11:54:52.001Z</time>
      </trkpt>
      <trkpt lat="50.06793" lon="3.92849">
        <ele>154.693</ele>
        <time>2019-09-19T11:54:55.001Z</time>
      </trkpt>
      <trkpt lat="50.06793" lon="3.92849">
        <ele>154.693</ele>
        <time>2019-09-19T11:55:16.000Z</time>
      </trkpt>
      <trkpt lat="50.06792" lon="3.92851">
        <ele>155.413</ele>
        <time>2019-09-19T11:55:19.001Z</time>
      </trkpt>
      <trkpt lat="50.06783" lon="3.92853">
        <ele>155.704</ele>
        <time>2019-09-19T11:55:25.001Z</time>
      </trkpt>
      <trkpt lat="50.06777" lon="3.92854">
        <ele>156.138</ele>
        <time>2019-09-19T11:55:28.001Z</time>
      </trkpt>
      <trkpt lat="50.06767" lon="3.92858">
        <ele>157.158</ele>
        <time>2019-09-19T11:55:31.001Z</time>
      </trkpt>
      <trkpt lat="50.06756" lon="3.92861">
        <ele>157.323</ele>
        <time>2019-09-19T11:55:34.001Z</time>
      </trkpt>
      <trkpt lat="50.06743" lon="3.92867">
        <ele>157.652</ele>
        <time>2019-09-19T11:55:37.001Z</time>
      </trkpt>
      <trkpt lat="50.06731" lon="3.92872">
        <ele>156.639</ele>
        <time>2019-09-19T11:55:40.001Z</time>
      </trkpt>
      <trkpt lat="50.0672" lon="3.92872">
        <ele>155.927</ele>
        <time>2019-09-19T11:55:43.001Z</time>
      </trkpt>
      <trkpt lat="50.06708" lon="3.92875">
        <ele>154.998</ele>
        <time>2019-09-19T11:55:46.001Z</time>
      </trkpt>
      <trkpt lat="50.06697" lon="3.92876">
        <ele>155.204</ele>
        <time>2019-09-19T11:55:49.001Z</time>
      </trkpt>
      <trkpt lat="50.06685" lon="3.92876">
        <ele>155.977</ele>
        <time>2019-09-19T11:55:52.001Z</time>
      </trkpt>
      <trkpt lat="50.06673" lon="3.92878">
        <ele>155.841</ele>
        <time>2019-09-19T11:55:55.001Z</time>
      </trkpt>
      <trkpt lat="50.06661" lon="3.92879">
        <ele>156.248</ele>
        <time>2019-09-19T11:55:58.001Z</time>
      </trkpt>
      <trkpt lat="50.06648" lon="3.92882">
        <ele>156.953</ele>
        <time>2019-09-19T11:56:01.001Z</time>
      </trkpt>
      <trkpt lat="50.06633" lon="3.92885">
        <ele>157.298</ele>
        <time>2019-09-19T11:56:04.001Z</time>
      </trkpt>
      <trkpt lat="50.0662" lon="3.92887">
        <ele>157.256</ele>
        <time>2019-09-19T11:56:07.001Z</time>
      </trkpt>
      <trkpt lat="50.06607" lon="3.92887">
        <ele>157.676</ele>
        <time>2019-09-19T11:56:10.001Z</time>
      </trkpt>
      <trkpt lat="50.06594" lon="3.92889">
        <ele>157.017</ele>
        <time>2019-09-19T11:56:13.001Z</time>
      </trkpt>
      <trkpt lat="50.06581" lon="3.92891">
        <ele>156.472</ele>
        <time>2019-09-19T11:56:16.000Z</time>
      </trkpt>
      <trkpt lat="50.06567" lon="3.92894">
        <ele>156.021</ele>
        <time>2019-09-19T11:56:19.001Z</time>
      </trkpt>
      <trkpt lat="50.06555" lon="3.92896">
        <ele>156.39</ele>
        <time>2019-09-19T11:56:22.001Z</time>
      </trkpt>
      <trkpt lat="50.06542" lon="3.92898">
        <ele>157.128</ele>
        <time>2019-09-19T11:56:25.001Z</time>
      </trkpt>
      <trkpt lat="50.06529" lon="3.92898">
        <ele>157.162</ele>
        <time>2019-09-19T11:56:28.001Z</time>
      </trkpt>
      <trkpt lat="50.06515" lon="3.92901">
        <ele>157.215</ele>
        <time>2019-09-19T11:56:31.001Z</time>
      </trkpt>
      <trkpt lat="50.06501" lon="3.92904">
        <ele>157.136</ele>
        <time>2019-09-19T11:56:34.001Z</time>
      </trkpt>
      <trkpt lat="50.06486" lon="3.92906">
        <ele>157.406</ele>
        <time>2019-09-19T11:56:37.001Z</time>
      </trkpt>
      <trkpt lat="50.06472" lon="3.92908">
        <ele>157.378</ele>
        <time>2019-09-19T11:56:40.001Z</time>
      </trkpt>
      <trkpt lat="50.06458" lon="3.92909">
        <ele>157.385</ele>
        <time>2019-09-19T11:56:43.001Z</time>
      </trkpt>
      <trkpt lat="50.06444" lon="3.92911">
        <ele>157.054</ele>
        <time>2019-09-19T11:56:46.001Z</time>
      </trkpt>
      <trkpt lat="50.0643" lon="3.92912">
        <ele>156.806</ele>
        <time>2019-09-19T11:56:49.001Z</time>
      </trkpt>
      <trkpt lat="50.06416" lon="3.92914">
        <ele>156.667</ele>
        <time>2019-09-19T11:56:52.001Z</time>
      </trkpt>
      <trkpt lat="50.06403" lon="3.92916">
        <ele>156.186</ele>
        <time>2019-09-19T11:56:55.001Z</time>
      </trkpt>
      <trkpt lat="50.0639" lon="3.92918">
        <ele>155.347</ele>
        <time>2019-09-19T11:56:58.001Z</time>
      </trkpt>
      <trkpt lat="50.06378" lon="3.9292">
        <ele>155.707</ele>
        <time>2019-09-19T11:57:01.001Z</time>
      </trkpt>
      <trkpt lat="50.06366" lon="3.92921">
        <ele>156.301</ele>
        <time>2019-09-19T11:57:04.001Z</time>
      </trkpt>
      <trkpt lat="50.06355" lon="3.92922">
        <ele>156.333</ele>
        <time>2019-09-19T11:57:07.001Z</time>
      </trkpt>
      <trkpt lat="50.06344" lon="3.92924">
        <ele>156.288</ele>
        <time>2019-09-19T11:57:10.001Z</time>
      </trkpt>
      <trkpt lat="50.06332" lon="3.92926">
        <ele>156.331</ele>
        <time>2019-09-19T11:57:13.001Z</time>
      </trkpt>
      <trkpt lat="50.06319" lon="3.92928">
        <ele>156.652</ele>
        <time>2019-09-19T11:57:16.000Z</time>
      </trkpt>
      <trkpt lat="50.06305" lon="3.9293">
        <ele>156.392</ele>
        <time>2019-09-19T11:57:19.001Z</time>
      </trkpt>
      <trkpt lat="50.06291" lon="3.92932">
        <ele>155.852</ele>
        <time>2019-09-19T11:57:22.001Z</time>
      </trkpt>
      <trkpt lat="50.06277" lon="3.92934">
        <ele>155.88</ele>
        <time>2019-09-19T11:57:25.001Z</time>
      </trkpt>
      <trkpt lat="50.06263" lon="3.92936">
        <ele>156.36</ele>
        <time>2019-09-19T11:57:28.001Z</time>
      </trkpt>
      <trkpt lat="50.06248" lon="3.92938">
        <ele>156.481</ele>
        <time>2019-09-19T11:57:31.001Z</time>
      </trkpt>
      <trkpt lat="50.06232" lon="3.92938">
        <ele>156.459</ele>
        <time>2019-09-19T11:57:34.001Z</time>
      </trkpt>
      <trkpt lat="50.06215" lon="3.92934">
        <ele>157.036</ele>
        <time>2019-09-19T11:57:37.001Z</time>
      </trkpt>
      <trkpt lat="50.06198" lon="3.92929">
        <ele>156.86</ele>
        <time>2019-09-19T11:57:40.001Z</time>
      </trkpt>
      <trkpt lat="50.06182" lon="3.92923">
        <ele>156.624</ele>
        <time>2019-09-19T11:57:43.001Z</time>
      </trkpt>
      <trkpt lat="50.06166" lon="3.92916">
        <ele>155.826</ele>
        <time>2019-09-19T11:57:46.001Z</time>
      </trkpt>
      <trkpt lat="50.06151" lon="3.92914">
        <ele>154.098</ele>
        <time>2019-09-19T11:57:49.001Z</time>
      </trkpt>
      <trkpt lat="50.06139" lon="3.92912">
        <ele>153.305</ele>
        <time>2019-09-19T11:57:52.001Z</time>
      </trkpt>
      <trkpt lat="50.0613" lon="3.9291">
        <ele>154.85</ele>
        <time>2019-09-19T11:57:55.001Z</time>
      </trkpt>
      <trkpt lat="50.06125" lon="3.9291">
        <ele>156.649</ele>
        <time>2019-09-19T11:57:58.001Z</time>
      </trkpt>
      <trkpt lat="50.06117" lon="3.92911">
        <ele>159.027</ele>
        <time>2019-09-19T11:58:04.001Z</time>
      </trkpt>
      <trkpt lat="50.06117" lon="3.92911">
        <ele>159.021</ele>
        <time>2019-09-19T11:58:07.001Z</time>
      </trkpt>
      <trkpt lat="50.06117" lon="3.92911">
        <ele>159.021</ele>
        <time>2019-09-19T12:01:31.001Z</time>
      </trkpt>
      <trkpt lat="50.06113" lon="3.9291">
        <ele>158.56</ele>
        <time>2019-09-19T12:01:34.001Z</time>
      </trkpt>
      <trkpt lat="50.06108" lon="3.92909">
        <ele>157.869</ele>
        <time>2019-09-19T12:01:37.001Z</time>
      </trkpt>
      <trkpt lat="50.06105" lon="3.92907">
        <ele>157.171</ele>
        <time>2019-09-19T12:01:40.001Z</time>
      </trkpt>
      <trkpt lat="50.06105" lon="3.92907">
        <ele>156.827</ele>
        <time>2019-09-19T12:01:49.001Z</time>
      </trkpt>
      <trkpt lat="50.06101" lon="3.92903">
        <ele>157.101</ele>
        <time>2019-09-19T12:01:52.001Z</time>
      </trkpt>
      <trkpt lat="50.06095" lon="3.92899">
        <ele>156.649</ele>
        <time>2019-09-19T12:01:58.001Z</time>
      </trkpt>
      <trkpt lat="50.06094" lon="3.92898">
        <ele>156.922</ele>
        <time>2019-09-19T12:02:01.001Z</time>
      </trkpt>
      <trkpt lat="50.06093" lon="3.92898">
        <ele>156.775</ele>
        <time>2019-09-19T12:02:04.001Z</time>
      </trkpt>
      <trkpt lat="50.06087" lon="3.92894">
        <ele>156.363</ele>
        <time>2019-09-19T12:02:13.001Z</time>
      </trkpt>
      <trkpt lat="50.06085" lon="3.92893">
        <ele>157.224</ele>
        <time>2019-09-19T12:02:16.000Z</time>
      </trkpt>
      <trkpt lat="50.06083" lon="3.92892">
        <ele>157.377</ele>
        <time>2019-09-19T12:02:19.001Z</time>
      </trkpt>
      <trkpt lat="50.06082" lon="3.92892">
        <ele>157.378</ele>
        <time>2019-09-19T12:02:22.001Z</time>
      </trkpt>
      <trkpt lat="50.06076" lon="3.92889">
        <ele>156.218</ele>
        <time>2019-09-19T12:02:28.001Z</time>
      </trkpt>
      <trkpt lat="50.06069" lon="3.92887">
        <ele>155.075</ele>
        <time>2019-09-19T12:02:34.001Z</time>
      </trkpt>
      <trkpt lat="50.06064" lon="3.92883">
        <ele>154.45</ele>
        <time>2019-09-19T12:02:40.001Z</time>
      </trkpt>
      <trkpt lat="50.06059" lon="3.92881">
        <ele>153.631</ele>
        <time>2019-09-19T12:02:46.001Z</time>
      </trkpt>
      <trkpt lat="50.06057" lon="3.92879">
        <ele>153.666</ele>
        <time>2019-09-19T12:02:49.001Z</time>
      </trkpt>
      <trkpt lat="50.06057" lon="3.92879">
        <ele>154.228</ele>
        <time>2019-09-19T12:02:55.001Z</time>
      </trkpt>
      <trkpt lat="50.06055" lon="3.92877">
        <ele>154.425</ele>
        <time>2019-09-19T12:02:58.001Z</time>
      </trkpt>
      <trkpt lat="50.06049" lon="3.92869">
        <ele>153.219</ele>
        <time>2019-09-19T12:03:04.001Z</time>
      </trkpt>
      <trkpt lat="50.06044" lon="3.92866">
        <ele>151.793</ele>
        <time>2019-09-19T12:03:07.001Z</time>
      </trkpt>
      <trkpt lat="50.06041" lon="3.92864">
        <ele>151.621</ele>
        <time>2019-09-19T12:03:13.001Z</time>
      </trkpt>
      <trkpt lat="50.06039" lon="3.92861">
        <ele>152.415</ele>
        <time>2019-09-19T12:03:16.000Z</time>
      </trkpt>
      <trkpt lat="50.06039" lon="3.92861">
        <ele>152.415</ele>
        <time>2019-09-19T12:06:43.001Z</time>
      </trkpt>
      <trkpt lat="50.0604" lon="3.9286">
        <ele>152.37</ele>
        <time>2019-09-19T12:06:46.001Z</time>
      </trkpt>
      <trkpt lat="50.06041" lon="3.92859">
        <ele>152.316</ele>
        <time>2019-09-19T12:06:49.001Z</time>
      </trkpt>
      <trkpt lat="50.06042" lon="3.9286">
        <ele>152.456</ele>
        <time>2019-09-19T12:07:01.001Z</time>
      </trkpt>
      <trkpt lat="50.06042" lon="3.92861">
        <ele>152.587</ele>
        <time>2019-09-19T12:07:04.001Z</time>
      </trkpt>
      <trkpt lat="50.06045" lon="3.92866">
        <ele>152.434</ele>
        <time>2019-09-19T12:07:10.001Z</time>
      </trkpt>
      <trkpt lat="50.06047" lon="3.92867">
        <ele>152.234</ele>
        <time>2019-09-19T12:07:13.001Z</time>
      </trkpt>
      <trkpt lat="50.06047" lon="3.92867">
        <ele>151.432</ele>
        <time>2019-09-19T12:07:16.000Z</time>
      </trkpt>
      <trkpt lat="50.06047" lon="3.92867">
        <ele>150.957</ele>
        <time>2019-09-19T12:07:19.001Z</time>
      </trkpt>
      <trkpt lat="50.06048" lon="3.92861">
        <ele>151.059</ele>
        <time>2019-09-19T12:07:22.001Z</time>
      </trkpt>
      <trkpt lat="50.06048" lon="3.92859">
        <ele>151.265</ele>
        <time>2019-09-19T12:07:28.001Z</time>
      </trkpt>
      <trkpt lat="50.06048" lon="3.92859">
        <ele>151.265</ele>
        <time>2019-09-19T12:07:31.001Z</time>
      </trkpt>
      <trkpt lat="50.06048" lon="3.92859">
        <ele>151.265</ele>
        <time>2019-09-19T12:08:10.001Z</time>
      </trkpt>
      <trkpt lat="50.06048" lon="3.92859">
        <ele>151.265</ele>
        <time>2019-09-19T12:08:13.001Z</time>
      </trkpt>
      <trkpt lat="50.06048" lon="3.92859">
        <ele>151.265</ele>
        <time>2019-09-19T12:08:16.000Z</time>
      </trkpt>
      <trkpt lat="50.06048" lon="3.92859">
        <ele>151.265</ele>
        <time>2019-09-19T12:08:19.001Z</time>
      </trkpt>
      <trkpt lat="50.06048" lon="3.92859">
        <ele>151.265</ele>
        <time>2019-09-19T12:08:28.001Z</time>
      </trkpt>
      <trkpt lat="50.06048" lon="3.92859">
        <ele>151.265</ele>
        <time>2019-09-19T12:08:31.001Z</time>
      </trkpt>
      <trkpt lat="50.06048" lon="3.92859">
        <ele>151.265</ele>
        <time>2019-09-19T12:08:34.001Z</time>
      </trkpt>
      <trkpt lat="50.06048" lon="3.92859">
        <ele>151.265</ele>
        <time>2019-09-19T12:08:37.001Z</time>
      </trkpt>
      <trkpt lat="50.06048" lon="3.92859">
        <ele>151.265</ele>
        <time>2019-09-19T12:08:52.001Z</time>
      </trkpt>
      <trkpt lat="50.06049" lon="3.92859">
        <ele>150.778</ele>
        <time>2019-09-19T12:08:55.001Z</time>
      </trkpt>
      <trkpt lat="50.06044" lon="3.92859">
        <ele>151.57</ele>
        <time>2019-09-19T12:09:22.001Z</time>
      </trkpt>
      <trkpt lat="50.06044" lon="3.92858">
        <ele>151.57</ele>
        <time>2019-09-19T12:09:25.001Z</time>
      </trkpt>
      <trkpt lat="50.06044" lon="3.92858">
        <ele>151.57</ele>
        <time>2019-09-19T12:12:13.001Z</time>
      </trkpt>
      <trkpt lat="50.06043" lon="3.92857">
        <ele>151.57</ele>
        <time>2019-09-19T12:12:16.000Z</time>
      </trkpt>
      <trkpt lat="50.06043" lon="3.92857">
        <ele>151.57</ele>
        <time>2019-09-19T12:12:25.001Z</time>
      </trkpt>
      <trkpt lat="50.06043" lon="3.92857">
        <ele>151.57</ele>
        <time>2019-09-19T12:12:28.001Z</time>
      </trkpt>
      <trkpt lat="50.06043" lon="3.92857">
        <ele>151.57</ele>
        <time>2019-09-19T12:12:31.001Z</time>
      </trkpt>
      <trkpt lat="50.06043" lon="3.92857">
        <ele>151.57</ele>
        <time>2019-09-19T12:12:46.001Z</time>
      </trkpt>
      <trkpt lat="50.06043" lon="3.92857">
        <ele>151.57</ele>
        <time>2019-09-19T12:12:49.001Z</time>
      </trkpt>
      <trkpt lat="50.06044" lon="3.92856">
        <ele>151.035</ele>
        <time>2019-09-19T12:18:19.001Z</time>
      </trkpt>
      <trkpt lat="50.06044" lon="3.92856">
        <ele>151.035</ele>
        <time>2019-09-19T12:18:22.001Z</time>
      </trkpt>
      <trkpt lat="50.06044" lon="3.92856">
        <ele>151.035</ele>
        <time>2019-09-19T12:18:25.001Z</time>
      </trkpt>
      <trkpt lat="50.06044" lon="3.92856">
        <ele>151.035</ele>
        <time>2019-09-19T12:26:43.001Z</time>
      </trkpt>
      <trkpt lat="50.06044" lon="3.92856">
        <ele>151.035</ele>
        <time>2019-09-19T12:26:46.001Z</time>
      </trkpt>
      <trkpt lat="50.06044" lon="3.92856">
        <ele>151.035</ele>
        <time>2019-09-19T12:26:52.001Z</time>
      </trkpt>
      <trkpt lat="50.06044" lon="3.92856">
        <ele>151.035</ele>
        <time>2019-09-19T12:26:55.001Z</time>
      </trkpt>
      <trkpt lat="50.06044" lon="3.92856">
        <ele>151.035</ele>
        <time>2019-09-19T12:30:37.001Z</time>
      </trkpt>
      <trkpt lat="50.06044" lon="3.92856">
        <ele>151.035</ele>
        <time>2019-09-19T12:30:40.001Z</time>
      </trkpt>
      <trkpt lat="50.06037" lon="3.92854">
        <ele>151.799</ele>
        <time>2019-09-19T12:30:52.001Z</time>
      </trkpt>
      <trkpt lat="50.06032" lon="3.92853">
        <ele>151.822</ele>
        <time>2019-09-19T12:30:58.001Z</time>
      </trkpt>
      <trkpt lat="50.06028" lon="3.9285">
        <ele>152.111</ele>
        <time>2019-09-19T12:31:04.001Z</time>
      </trkpt>
      <trkpt lat="50.06023" lon="3.92847">
        <ele>154.471</ele>
        <time>2019-09-19T12:31:13.001Z</time>
      </trkpt>
      <trkpt lat="50.06018" lon="3.92845">
        <ele>155.262</ele>
        <time>2019-09-19T12:31:19.001Z</time>
      </trkpt>
      <trkpt lat="50.06013" lon="3.92844">
        <ele>154.843</ele>
        <time>2019-09-19T12:31:25.001Z</time>
      </trkpt>
      <trkpt lat="50.06011" lon="3.92844">
        <ele>155.043</ele>
        <time>2019-09-19T12:31:34.001Z</time>
      </trkpt>
      <trkpt lat="50.0601" lon="3.92844">
        <ele>155.043</ele>
        <time>2019-09-19T12:31:37.001Z</time>
      </trkpt>
      <trkpt lat="50.0601" lon="3.92844">
        <ele>155.043</ele>
        <time>2019-09-19T12:31:40.001Z</time>
      </trkpt>
      <trkpt lat="50.06009" lon="3.92844">
        <ele>155.043</ele>
        <time>2019-09-19T12:31:43.001Z</time>
      </trkpt>
      <trkpt lat="50.06009" lon="3.92845">
        <ele>155.043</ele>
        <time>2019-09-19T12:31:46.001Z</time>
      </trkpt>
      <trkpt lat="50.06009" lon="3.92845">
        <ele>155.043</ele>
        <time>2019-09-19T12:31:49.001Z</time>
      </trkpt>
      <trkpt lat="50.06009" lon="3.92845">
        <ele>155.043</ele>
        <time>2019-09-19T12:32:01.001Z</time>
      </trkpt>
      <trkpt lat="50.06009" lon="3.92845">
        <ele>155.18</ele>
        <time>2019-09-19T12:32:04.001Z</time>
      </trkpt>
      <trkpt lat="50.06014" lon="3.92847">
        <ele>155.111</ele>
        <time>2019-09-19T12:32:13.001Z</time>
      </trkpt>
      <trkpt lat="50.0602" lon="3.92848">
        <ele>154.884</ele>
        <time>2019-09-19T12:32:19.001Z</time>
      </trkpt>
      <trkpt lat="50.06026" lon="3.9285">
        <ele>154.071</ele>
        <time>2019-09-19T12:32:28.001Z</time>
      </trkpt>
      <trkpt lat="50.06032" lon="3.92854">
        <ele>153.99</ele>
        <time>2019-09-19T12:32:37.001Z</time>
      </trkpt>
      <trkpt lat="50.06037" lon="3.92857">
        <ele>153.73</ele>
        <time>2019-09-19T12:32:43.001Z</time>
      </trkpt>
      <trkpt lat="50.06043" lon="3.9286">
        <ele>153.92</ele>
        <time>2019-09-19T12:32:52.001Z</time>
      </trkpt>
      <trkpt lat="50.06047" lon="3.92863">
        <ele>154.64</ele>
        <time>2019-09-19T12:32:58.001Z</time>
      </trkpt>
      <trkpt lat="50.06046" lon="3.92862">
        <ele>154.921</ele>
        <time>2019-09-19T12:33:16.000Z</time>
      </trkpt>
      <trkpt lat="50.06046" lon="3.92862">
        <ele>154.921</ele>
        <time>2019-09-19T12:33:19.001Z</time>
      </trkpt>
      <trkpt lat="50.06046" lon="3.92862">
        <ele>154.921</ele>
        <time>2019-09-19T12:33:43.001Z</time>
      </trkpt>
      <trkpt lat="50.06045" lon="3.92861">
        <ele>154.922</ele>
        <time>2019-09-19T12:33:46.001Z</time>
      </trkpt>
      <trkpt lat="50.06045" lon="3.92861">
        <ele>154.922</ele>
        <time>2019-09-19T12:33:49.001Z</time>
      </trkpt>
      <trkpt lat="50.06045" lon="3.92861">
        <ele>154.922</ele>
        <time>2019-09-19T12:33:52.001Z</time>
      </trkpt>
      <trkpt lat="50.06045" lon="3.92861">
        <ele>152.688</ele>
        <time>2019-09-19T12:35:46.001Z</time>
      </trkpt>
      <trkpt lat="50.06048" lon="3.92858">
        <ele>152.647</ele>
        <time>2019-09-19T12:35:49.001Z</time>
      </trkpt>
      <trkpt lat="50.06054" lon="3.92862">
        <ele>154.454</ele>
        <time>2019-09-19T12:36:01.001Z</time>
      </trkpt>
      <trkpt lat="50.06048" lon="3.92865">
        <ele>156.503</ele>
        <time>2019-09-19T12:36:13.001Z</time>
      </trkpt>
      <trkpt lat="50.06043" lon="3.92864">
        <ele>156.929</ele>
        <time>2019-09-19T12:36:22.001Z</time>
      </trkpt>
      <trkpt lat="50.06042" lon="3.92864">
        <ele>156.929</ele>
        <time>2019-09-19T12:36:25.001Z</time>
      </trkpt>
      <trkpt lat="50.06042" lon="3.92864">
        <ele>156.929</ele>
        <time>2019-09-19T12:36:28.001Z</time>
      </trkpt>
      <trkpt lat="50.06042" lon="3.92864">
        <ele>156.929</ele>
        <time>2019-09-19T12:36:31.001Z</time>
      </trkpt>
      <trkpt lat="50.06046" lon="3.92866">
        <ele>157.679</ele>
        <time>2019-09-19T12:36:55.001Z</time>
      </trkpt>
      <trkpt lat="50.06046" lon="3.92866">
        <ele>157.679</ele>
        <time>2019-09-19T12:36:58.001Z</time>
      </trkpt>
      <trkpt lat="50.06046" lon="3.92866">
        <ele>157.679</ele>
        <time>2019-09-19T12:37:13.001Z</time>
      </trkpt>
      <trkpt lat="50.06047" lon="3.92866">
        <ele>157.679</ele>
        <time>2019-09-19T12:37:16.000Z</time>
      </trkpt>
      <trkpt lat="50.06044" lon="3.92856">
        <ele>157.639</ele>
        <time>2019-09-19T12:37:34.001Z</time>
      </trkpt>
      <trkpt lat="50.06043" lon="3.92854">
        <ele>157.523</ele>
        <time>2019-09-19T12:37:37.001Z</time>
      </trkpt>
      <trkpt lat="50.06043" lon="3.92854">
        <ele>155.569</ele>
        <time>2019-09-19T12:40:25.001Z</time>
      </trkpt>
      <trkpt lat="50.06035" lon="3.92859">
        <ele>155.683</ele>
        <time>2019-09-19T12:40:28.001Z</time>
      </trkpt>
      <trkpt lat="50.06041" lon="3.92858">
        <ele>157.09</ele>
        <time>2019-09-19T12:40:37.001Z</time>
      </trkpt>
      <trkpt lat="50.06042" lon="3.92858">
        <ele>157.09</ele>
        <time>2019-09-19T12:40:43.001Z</time>
      </trkpt>
      <trkpt lat="50.06043" lon="3.92858">
        <ele>157.09</ele>
        <time>2019-09-19T12:40:46.001Z</time>
      </trkpt>
      <trkpt lat="50.06043" lon="3.92858">
        <ele>157.09</ele>
        <time>2019-09-19T12:41:16.000Z</time>
      </trkpt>
      <trkpt lat="50.06043" lon="3.92858">
        <ele>157.09</ele>
        <time>2019-09-19T12:41:19.001Z</time>
      </trkpt>
      <trkpt lat="50.06043" lon="3.92858">
        <ele>157.09</ele>
        <time>2019-09-19T12:41:25.001Z</time>
      </trkpt>
      <trkpt lat="50.06043" lon="3.92858">
        <ele>157.09</ele>
        <time>2019-09-19T12:41:28.001Z</time>
      </trkpt>
      <trkpt lat="50.06043" lon="3.92858">
        <ele>156.732</ele>
        <time>2019-09-19T12:41:49.001Z</time>
      </trkpt>
      <trkpt lat="50.06044" lon="3.92857">
        <ele>156.151</ele>
        <time>2019-09-19T12:41:52.001Z</time>
      </trkpt>
      <trkpt lat="50.06044" lon="3.9285">
        <ele>156.061</ele>
        <time>2019-09-19T12:42:04.001Z</time>
      </trkpt>
      <trkpt lat="50.06045" lon="3.92849">
        <ele>156.061</ele>
        <time>2019-09-19T12:42:10.001Z</time>
      </trkpt>
      <trkpt lat="50.06045" lon="3.92849">
        <ele>156.061</ele>
        <time>2019-09-19T12:42:13.001Z</time>
      </trkpt>
      <trkpt lat="50.06045" lon="3.92849">
        <ele>155.945</ele>
        <time>2019-09-19T12:42:31.001Z</time>
      </trkpt>
      <trkpt lat="50.06045" lon="3.92849">
        <ele>155.506</ele>
        <time>2019-09-19T12:42:34.001Z</time>
      </trkpt>
      <trkpt lat="50.06044" lon="3.92852">
        <ele>154.291</ele>
        <time>2019-09-19T12:42:49.001Z</time>
      </trkpt>
      <trkpt lat="50.06044" lon="3.92852">
        <ele>154.291</ele>
        <time>2019-09-19T12:42:52.001Z</time>
      </trkpt>
      <trkpt lat="50.06044" lon="3.92852">
        <ele>154.291</ele>
        <time>2019-09-19T12:42:58.001Z</time>
      </trkpt>
      <trkpt lat="50.06044" lon="3.92852">
        <ele>154.291</ele>
        <time>2019-09-19T12:43:01.001Z</time>
      </trkpt>
      <trkpt lat="50.06044" lon="3.92853">
        <ele>154.291</ele>
        <time>2019-09-19T12:43:10.001Z</time>
      </trkpt>
      <trkpt lat="50.06044" lon="3.92853">
        <ele>154.291</ele>
        <time>2019-09-19T12:43:13.001Z</time>
      </trkpt>
      <trkpt lat="50.06044" lon="3.92853">
        <ele>154.291</ele>
        <time>2019-09-19T12:43:22.001Z</time>
      </trkpt>
      <trkpt lat="50.06044" lon="3.92853">
        <ele>154.291</ele>
        <time>2019-09-19T12:43:25.001Z</time>
      </trkpt>
      <trkpt lat="50.06044" lon="3.92853">
        <ele>154.291</ele>
        <time>2019-09-19T12:43:28.001Z</time>
      </trkpt>
      <trkpt lat="50.06044" lon="3.92853">
        <ele>154.291</ele>
        <time>2019-09-19T12:43:31.001Z</time>
      </trkpt>
      <trkpt lat="50.06044" lon="3.92853">
        <ele>154.291</ele>
        <time>2019-09-19T12:44:01.001Z</time>
      </trkpt>
      <trkpt lat="50.06044" lon="3.92853">
        <ele>154.291</ele>
        <time>2019-09-19T12:44:04.001Z</time>
      </trkpt>
      <trkpt lat="50.06044" lon="3.92853">
        <ele>154.291</ele>
        <time>2019-09-19T12:44:07.001Z</time>
      </trkpt>
      <trkpt lat="50.06044" lon="3.92853">
        <ele>154.291</ele>
        <time>2019-09-19T12:44:10.001Z</time>
      </trkpt>
      <trkpt lat="50.06044" lon="3.92853">
        <ele>154.291</ele>
        <time>2019-09-19T12:46:25.001Z</time>
      </trkpt>
      <trkpt lat="50.06044" lon="3.92853">
        <ele>154.291</ele>
        <time>2019-09-19T12:46:28.001Z</time>
      </trkpt>
      <trkpt lat="50.06044" lon="3.92853">
        <ele>154.291</ele>
        <time>2019-09-19T12:46:31.001Z</time>
      </trkpt>
      <trkpt lat="50.06044" lon="3.92853">
        <ele>154.291</ele>
        <time>2019-09-19T12:53:07.001Z</time>
      </trkpt>
      <trkpt lat="50.06044" lon="3.92853">
        <ele>154.291</ele>
        <time>2019-09-19T12:53:10.001Z</time>
      </trkpt>
      <trkpt lat="50.06044" lon="3.92853">
        <ele>154.291</ele>
        <time>2019-09-19T12:53:13.001Z</time>
      </trkpt>
      <trkpt lat="50.06044" lon="3.92853">
        <ele>154.291</ele>
        <time>2019-09-19T12:55:31.001Z</time>
      </trkpt>
      <trkpt lat="50.06044" lon="3.92853">
        <ele>154.291</ele>
        <time>2019-09-19T12:55:34.001Z</time>
      </trkpt>
      <trkpt lat="50.06044" lon="3.92853">
        <ele>154.291</ele>
        <time>2019-09-19T12:55:37.001Z</time>
      </trkpt>
      <trkpt lat="50.06044" lon="3.92853">
        <ele>154.291</ele>
        <time>2019-09-19T12:55:40.001Z</time>
      </trkpt>
      <trkpt lat="50.06044" lon="3.92853">
        <ele>154.291</ele>
        <time>2019-09-19T12:57:28.001Z</time>
      </trkpt>
      <trkpt lat="50.06044" lon="3.92853">
        <ele>154.291</ele>
        <time>2019-09-19T12:57:31.001Z</time>
      </trkpt>
      <trkpt lat="50.06044" lon="3.92853">
        <ele>154.291</ele>
        <time>2019-09-19T12:57:40.001Z</time>
      </trkpt>
      <trkpt lat="50.06044" lon="3.92853">
        <ele>154.291</ele>
        <time>2019-09-19T12:57:43.001Z</time>
      </trkpt>
      <trkpt lat="50.06044" lon="3.92853">
        <ele>154.291</ele>
        <time>2019-09-19T12:58:16.000Z</time>
      </trkpt>
      <trkpt lat="50.06044" lon="3.92853">
        <ele>154.291</ele>
        <time>2019-09-19T12:58:19.001Z</time>
      </trkpt>
      <trkpt lat="50.06043" lon="3.92853">
        <ele>154.728</ele>
        <time>2019-09-19T12:58:43.001Z</time>
      </trkpt>
      <trkpt lat="50.06043" lon="3.92853">
        <ele>154.728</ele>
        <time>2019-09-19T12:58:46.001Z</time>
      </trkpt>
      <trkpt lat="50.06043" lon="3.92853">
        <ele>154.728</ele>
        <time>2019-09-19T13:00:37.001Z</time>
      </trkpt>
      <trkpt lat="50.06043" lon="3.92853">
        <ele>154.897</ele>
        <time>2019-09-19T13:00:40.001Z</time>
      </trkpt>
      <trkpt lat="50.06042" lon="3.92853">
        <ele>155.194</ele>
        <time>2019-09-19T13:00:43.001Z</time>
      </trkpt>
      <trkpt lat="50.06042" lon="3.92853">
        <ele>156.037</ele>
        <time>2019-09-19T13:01:46.001Z</time>
      </trkpt>
      <trkpt lat="50.06056" lon="3.92874">
        <ele>156.223</ele>
        <time>2019-09-19T13:01:49.001Z</time>
      </trkpt>
      <trkpt lat="50.06064" lon="3.9288">
        <ele>156.154</ele>
        <time>2019-09-19T13:01:52.001Z</time>
      </trkpt>
      <trkpt lat="50.06073" lon="3.92884">
        <ele>156.1</ele>
        <time>2019-09-19T13:01:55.001Z</time>
      </trkpt>
      <trkpt lat="50.06081" lon="3.92891">
        <ele>156.008</ele>
        <time>2019-09-19T13:01:58.001Z</time>
      </trkpt>
      <trkpt lat="50.0609" lon="3.92895">
        <ele>156.112</ele>
        <time>2019-09-19T13:02:01.001Z</time>
      </trkpt>
      <trkpt lat="50.061" lon="3.92901">
        <ele>155.86</ele>
        <time>2019-09-19T13:02:04.001Z</time>
      </trkpt>
      <trkpt lat="50.0611" lon="3.92906">
        <ele>155.97</ele>
        <time>2019-09-19T13:02:07.001Z</time>
      </trkpt>
      <trkpt lat="50.06122" lon="3.9291">
        <ele>156.38</ele>
        <time>2019-09-19T13:02:10.001Z</time>
      </trkpt>
      <trkpt lat="50.06129" lon="3.92921">
        <ele>157.07</ele>
        <time>2019-09-19T13:02:13.001Z</time>
      </trkpt>
      <trkpt lat="50.06127" lon="3.92938">
        <ele>157.49</ele>
        <time>2019-09-19T13:02:16.000Z</time>
      </trkpt>
      <trkpt lat="50.06123" lon="3.92954">
        <ele>157.914</ele>
        <time>2019-09-19T13:02:19.001Z</time>
      </trkpt>
      <trkpt lat="50.06122" lon="3.92974">
        <ele>158.738</ele>
        <time>2019-09-19T13:02:22.001Z</time>
      </trkpt>
      <trkpt lat="50.06123" lon="3.92995">
        <ele>158.963</ele>
        <time>2019-09-19T13:02:25.001Z</time>
      </trkpt>
      <trkpt lat="50.06125" lon="3.93013">
        <ele>158.937</ele>
        <time>2019-09-19T13:02:28.001Z</time>
      </trkpt>
      <trkpt lat="50.06126" lon="3.93031">
        <ele>159.775</ele>
        <time>2019-09-19T13:02:31.001Z</time>
      </trkpt>
      <trkpt lat="50.06127" lon="3.93052">
        <ele>160.95</ele>
        <time>2019-09-19T13:02:34.001Z</time>
      </trkpt>
      <trkpt lat="50.06128" lon="3.93072">
        <ele>161.504</ele>
        <time>2019-09-19T13:02:37.001Z</time>
      </trkpt>
      <trkpt lat="50.06127" lon="3.93094">
        <ele>161.596</ele>
        <time>2019-09-19T13:02:40.001Z</time>
      </trkpt>
      <trkpt lat="50.06127" lon="3.93113">
        <ele>161.696</ele>
        <time>2019-09-19T13:02:43.001Z</time>
      </trkpt>
      <trkpt lat="50.06128" lon="3.9313">
        <ele>161.728</ele>
        <time>2019-09-19T13:02:46.001Z</time>
      </trkpt>
      <trkpt lat="50.06128" lon="3.93151">
        <ele>161.801</ele>
        <time>2019-09-19T13:02:49.001Z</time>
      </trkpt>
      <trkpt lat="50.06126" lon="3.93172">
        <ele>161.78</ele>
        <time>2019-09-19T13:02:52.001Z</time>
      </trkpt>
      <trkpt lat="50.06125" lon="3.93193">
        <ele>161.257</ele>
        <time>2019-09-19T13:02:55.001Z</time>
      </trkpt>
      <trkpt lat="50.06124" lon="3.93211">
        <ele>160.247</ele>
        <time>2019-09-19T13:02:58.001Z</time>
      </trkpt>
      <trkpt lat="50.06123" lon="3.93224">
        <ele>160.009</ele>
        <time>2019-09-19T13:03:01.001Z</time>
      </trkpt>
      <trkpt lat="50.06125" lon="3.93236">
        <ele>160.723</ele>
        <time>2019-09-19T13:03:04.001Z</time>
      </trkpt>
      <trkpt lat="50.06127" lon="3.93251">
        <ele>160.851</ele>
        <time>2019-09-19T13:03:07.001Z</time>
      </trkpt>
      <trkpt lat="50.0613" lon="3.93267">
        <ele>161.238</ele>
        <time>2019-09-19T13:03:10.001Z</time>
      </trkpt>
      <trkpt lat="50.06135" lon="3.93279">
        <ele>161.118</ele>
        <time>2019-09-19T13:03:13.001Z</time>
      </trkpt>
      <trkpt lat="50.06141" lon="3.93301">
        <ele>160.76</ele>
        <time>2019-09-19T13:03:16.000Z</time>
      </trkpt>
      <trkpt lat="50.06145" lon="3.93317">
        <ele>156.49</ele>
        <time>2019-09-19T13:03:19.001Z</time>
      </trkpt>
      <trkpt lat="50.06152" lon="3.93334">
        <ele>155.247</ele>
        <time>2019-09-19T13:03:22.001Z</time>
      </trkpt>
      <trkpt lat="50.06159" lon="3.93349">
        <ele>152.782</ele>
        <time>2019-09-19T13:03:25.001Z</time>
      </trkpt>
      <trkpt lat="50.06167" lon="3.93365">
        <ele>151.365</ele>
        <time>2019-09-19T13:03:28.001Z</time>
      </trkpt>
      <trkpt lat="50.06175" lon="3.93381">
        <ele>150.451</ele>
        <time>2019-09-19T13:03:31.001Z</time>
      </trkpt>
      <trkpt lat="50.06182" lon="3.93396">
        <ele>150.113</ele>
        <time>2019-09-19T13:03:34.001Z</time>
      </trkpt>
      <trkpt lat="50.06189" lon="3.93411">
        <ele>149.868</ele>
        <time>2019-09-19T13:03:37.001Z</time>
      </trkpt>
      <trkpt lat="50.06196" lon="3.93426">
        <ele>149.841</ele>
        <time>2019-09-19T13:03:40.001Z</time>
      </trkpt>
      <trkpt lat="50.06202" lon="3.93442">
        <ele>150.147</ele>
        <time>2019-09-19T13:03:43.001Z</time>
      </trkpt>
      <trkpt lat="50.06208" lon="3.93459">
        <ele>150.85</ele>
        <time>2019-09-19T13:03:46.001Z</time>
      </trkpt>
      <trkpt lat="50.06214" lon="3.93477">
        <ele>151.431</ele>
        <time>2019-09-19T13:03:49.001Z</time>
      </trkpt>
      <trkpt lat="50.06218" lon="3.93495">
        <ele>151.704</ele>
        <time>2019-09-19T13:03:52.001Z</time>
      </trkpt>
      <trkpt lat="50.06222" lon="3.93512">
        <ele>152.085</ele>
        <time>2019-09-19T13:03:55.001Z</time>
      </trkpt>
      <trkpt lat="50.06224" lon="3.93529">
        <ele>152.741</ele>
        <time>2019-09-19T13:03:58.001Z</time>
      </trkpt>
      <trkpt lat="50.06226" lon="3.93547">
        <ele>153.364</ele>
        <time>2019-09-19T13:04:01.001Z</time>
      </trkpt>
      <trkpt lat="50.06227" lon="3.93564">
        <ele>154.224</ele>
        <time>2019-09-19T13:04:04.001Z</time>
      </trkpt>
      <trkpt lat="50.06228" lon="3.9358">
        <ele>154.698</ele>
        <time>2019-09-19T13:04:07.001Z</time>
      </trkpt>
      <trkpt lat="50.06229" lon="3.93597">
        <ele>154.994</ele>
        <time>2019-09-19T13:04:10.001Z</time>
      </trkpt>
      <trkpt lat="50.06229" lon="3.93614">
        <ele>155.158</ele>
        <time>2019-09-19T13:04:13.001Z</time>
      </trkpt>
      <trkpt lat="50.06229" lon="3.9363">
        <ele>155.384</ele>
        <time>2019-09-19T13:04:16.000Z</time>
      </trkpt>
      <trkpt lat="50.06229" lon="3.93647">
        <ele>155.744</ele>
        <time>2019-09-19T13:04:19.001Z</time>
      </trkpt>
      <trkpt lat="50.06229" lon="3.93663">
        <ele>156.645</ele>
        <time>2019-09-19T13:04:22.001Z</time>
      </trkpt>
      <trkpt lat="50.06229" lon="3.93679">
        <ele>157.454</ele>
        <time>2019-09-19T13:04:25.001Z</time>
      </trkpt>
      <trkpt lat="50.06229" lon="3.93694">
        <ele>158.065</ele>
        <time>2019-09-19T13:04:28.001Z</time>
      </trkpt>
      <trkpt lat="50.06229" lon="3.9371">
        <ele>158.266</ele>
        <time>2019-09-19T13:04:31.001Z</time>
      </trkpt>
      <trkpt lat="50.06229" lon="3.93725">
        <ele>158.97</ele>
        <time>2019-09-19T13:04:34.001Z</time>
      </trkpt>
      <trkpt lat="50.06229" lon="3.93739">
        <ele>159.411</ele>
        <time>2019-09-19T13:04:37.001Z</time>
      </trkpt>
      <trkpt lat="50.06229" lon="3.93753">
        <ele>159.68</ele>
        <time>2019-09-19T13:04:40.001Z</time>
      </trkpt>
      <trkpt lat="50.06228" lon="3.93766">
        <ele>160.145</ele>
        <time>2019-09-19T13:04:43.001Z</time>
      </trkpt>
      <trkpt lat="50.06228" lon="3.93779">
        <ele>160.8</ele>
        <time>2019-09-19T13:04:46.001Z</time>
      </trkpt>
      <trkpt lat="50.06228" lon="3.93791">
        <ele>161.518</ele>
        <time>2019-09-19T13:04:49.001Z</time>
      </trkpt>
      <trkpt lat="50.06228" lon="3.93804">
        <ele>162.234</ele>
        <time>2019-09-19T13:04:52.001Z</time>
      </trkpt>
      <trkpt lat="50.06229" lon="3.93816">
        <ele>162.792</ele>
        <time>2019-09-19T13:04:55.001Z</time>
      </trkpt>
      <trkpt lat="50.06229" lon="3.93828">
        <ele>163.458</ele>
        <time>2019-09-19T13:04:58.001Z</time>
      </trkpt>
      <trkpt lat="50.06231" lon="3.93839">
        <ele>164.574</ele>
        <time>2019-09-19T13:05:01.001Z</time>
      </trkpt>
      <trkpt lat="50.06232" lon="3.9385">
        <ele>164.896</ele>
        <time>2019-09-19T13:05:04.001Z</time>
      </trkpt>
      <trkpt lat="50.06234" lon="3.93861">
        <ele>165.057</ele>
        <time>2019-09-19T13:05:07.001Z</time>
      </trkpt>
      <trkpt lat="50.06236" lon="3.93871">
        <ele>165.289</ele>
        <time>2019-09-19T13:05:10.001Z</time>
      </trkpt>
      <trkpt lat="50.06238" lon="3.93881">
        <ele>165.369</ele>
        <time>2019-09-19T13:05:13.001Z</time>
      </trkpt>
      <trkpt lat="50.0624" lon="3.93891">
        <ele>165.554</ele>
        <time>2019-09-19T13:05:16.000Z</time>
      </trkpt>
      <trkpt lat="50.06241" lon="3.93901">
        <ele>165.738</ele>
        <time>2019-09-19T13:05:19.001Z</time>
      </trkpt>
      <trkpt lat="50.06242" lon="3.93912">
        <ele>166.731</ele>
        <time>2019-09-19T13:05:22.001Z</time>
      </trkpt>
      <trkpt lat="50.06243" lon="3.93925">
        <ele>166.491</ele>
        <time>2019-09-19T13:05:25.001Z</time>
      </trkpt>
      <trkpt lat="50.06244" lon="3.93937">
        <ele>167.059</ele>
        <time>2019-09-19T13:05:28.001Z</time>
      </trkpt>
      <trkpt lat="50.06244" lon="3.93949">
        <ele>167.502</ele>
        <time>2019-09-19T13:05:31.001Z</time>
      </trkpt>
      <trkpt lat="50.06245" lon="3.93958">
        <ele>167.59</ele>
        <time>2019-09-19T13:05:34.001Z</time>
      </trkpt>
      <trkpt lat="50.06243" lon="3.93967">
        <ele>167.882</ele>
        <time>2019-09-19T13:05:37.001Z</time>
      </trkpt>
      <trkpt lat="50.06241" lon="3.93977">
        <ele>168.826</ele>
        <time>2019-09-19T13:05:40.001Z</time>
      </trkpt>
      <trkpt lat="50.06239" lon="3.93988">
        <ele>168.864</ele>
        <time>2019-09-19T13:05:43.001Z</time>
      </trkpt>
      <trkpt lat="50.06238" lon="3.94">
        <ele>169.044</ele>
        <time>2019-09-19T13:05:46.001Z</time>
      </trkpt>
      <trkpt lat="50.06236" lon="3.94012">
        <ele>169.675</ele>
        <time>2019-09-19T13:05:49.001Z</time>
      </trkpt>
      <trkpt lat="50.06235" lon="3.94023">
        <ele>170.564</ele>
        <time>2019-09-19T13:05:52.001Z</time>
      </trkpt>
      <trkpt lat="50.06234" lon="3.94035">
        <ele>170.759</ele>
        <time>2019-09-19T13:05:55.001Z</time>
      </trkpt>
      <trkpt lat="50.06234" lon="3.94046">
        <ele>170.431</ele>
        <time>2019-09-19T13:05:58.001Z</time>
      </trkpt>
      <trkpt lat="50.06235" lon="3.94057">
        <ele>170.914</ele>
        <time>2019-09-19T13:06:01.001Z</time>
      </trkpt>
      <trkpt lat="50.06237" lon="3.94067">
        <ele>170.968</ele>
        <time>2019-09-19T13:06:04.001Z</time>
      </trkpt>
      <trkpt lat="50.06238" lon="3.94077">
        <ele>170.56</ele>
        <time>2019-09-19T13:06:07.001Z</time>
      </trkpt>
      <trkpt lat="50.0624" lon="3.94086">
        <ele>171.112</ele>
        <time>2019-09-19T13:06:10.001Z</time>
      </trkpt>
      <trkpt lat="50.06243" lon="3.94095">
        <ele>170.828</ele>
        <time>2019-09-19T13:06:13.001Z</time>
      </trkpt>
      <trkpt lat="50.06245" lon="3.94105">
        <ele>170.54</ele>
        <time>2019-09-19T13:06:16.000Z</time>
      </trkpt>
      <trkpt lat="50.06246" lon="3.94114">
        <ele>169.752</ele>
        <time>2019-09-19T13:06:19.001Z</time>
      </trkpt>
      <trkpt lat="50.06248" lon="3.94122">
        <ele>170.452</ele>
        <time>2019-09-19T13:06:22.001Z</time>
      </trkpt>
      <trkpt lat="50.0625" lon="3.94133">
        <ele>172.152</ele>
        <time>2019-09-19T13:06:25.001Z</time>
      </trkpt>
      <trkpt lat="50.06253" lon="3.94147">
        <ele>172.631</ele>
        <time>2019-09-19T13:06:28.001Z</time>
      </trkpt>
      <trkpt lat="50.06255" lon="3.94164">
        <ele>172.685</ele>
        <time>2019-09-19T13:06:31.001Z</time>
      </trkpt>
      <trkpt lat="50.06257" lon="3.94187">
        <ele>172.977</ele>
        <time>2019-09-19T13:06:34.001Z</time>
      </trkpt>
      <trkpt lat="50.06256" lon="3.94213">
        <ele>173.489</ele>
        <time>2019-09-19T13:06:37.001Z</time>
      </trkpt>
      <trkpt lat="50.06245" lon="3.94242">
        <ele>173.355</ele>
        <time>2019-09-19T13:06:40.001Z</time>
      </trkpt>
      <trkpt lat="50.06226" lon="3.94266">
        <ele>172.733</ele>
        <time>2019-09-19T13:06:43.001Z</time>
      </trkpt>
      <trkpt lat="50.06208" lon="3.94285">
        <ele>172.223</ele>
        <time>2019-09-19T13:06:46.001Z</time>
      </trkpt>
      <trkpt lat="50.06198" lon="3.94314">
        <ele>170.666</ele>
        <time>2019-09-19T13:06:49.001Z</time>
      </trkpt>
      <trkpt lat="50.06207" lon="3.94345">
        <ele>169.624</ele>
        <time>2019-09-19T13:06:52.001Z</time>
      </trkpt>
      <trkpt lat="50.06225" lon="3.94373">
        <ele>168.221</ele>
        <time>2019-09-19T13:06:55.001Z</time>
      </trkpt>
      <trkpt lat="50.06244" lon="3.94402">
        <ele>166.132</ele>
        <time>2019-09-19T13:06:58.001Z</time>
      </trkpt>
      <trkpt lat="50.06264" lon="3.94432">
        <ele>164.342</ele>
        <time>2019-09-19T13:07:01.001Z</time>
      </trkpt>
      <trkpt lat="50.06284" lon="3.94459">
        <ele>162.587</ele>
        <time>2019-09-19T13:07:04.001Z</time>
      </trkpt>
      <trkpt lat="50.06301" lon="3.94488">
        <ele>161.134</ele>
        <time>2019-09-19T13:07:07.001Z</time>
      </trkpt>
      <trkpt lat="50.06305" lon="3.94524">
        <ele>160.225</ele>
        <time>2019-09-19T13:07:10.001Z</time>
      </trkpt>
      <trkpt lat="50.0629" lon="3.94553">
        <ele>158.65</ele>
        <time>2019-09-19T13:07:13.001Z</time>
      </trkpt>
      <trkpt lat="50.06275" lon="3.94574">
        <ele>156.559</ele>
        <time>2019-09-19T13:07:16.000Z</time>
      </trkpt>
      <trkpt lat="50.06263" lon="3.94597">
        <ele>155.093</ele>
        <time>2019-09-19T13:07:19.001Z</time>
      </trkpt>
      <trkpt lat="50.06257" lon="3.94622">
        <ele>154.814</ele>
        <time>2019-09-19T13:07:22.001Z</time>
      </trkpt>
      <trkpt lat="50.06254" lon="3.94647">
        <ele>155.091</ele>
        <time>2019-09-19T13:07:25.001Z</time>
      </trkpt>
      <trkpt lat="50.06254" lon="3.94668">
        <ele>155.676</ele>
        <time>2019-09-19T13:07:28.001Z</time>
      </trkpt>
      <trkpt lat="50.06253" lon="3.94685">
        <ele>155.98</ele>
        <time>2019-09-19T13:07:31.001Z</time>
      </trkpt>
      <trkpt lat="50.06252" lon="3.94701">
        <ele>156.56</ele>
        <time>2019-09-19T13:07:34.001Z</time>
      </trkpt>
      <trkpt lat="50.0625" lon="3.94716">
        <ele>157.06</ele>
        <time>2019-09-19T13:07:37.001Z</time>
      </trkpt>
      <trkpt lat="50.06248" lon="3.94732">
        <ele>156.646</ele>
        <time>2019-09-19T13:07:40.001Z</time>
      </trkpt>
      <trkpt lat="50.06245" lon="3.94748">
        <ele>156.777</ele>
        <time>2019-09-19T13:07:43.001Z</time>
      </trkpt>
      <trkpt lat="50.06241" lon="3.94764">
        <ele>157.116</ele>
        <time>2019-09-19T13:07:46.001Z</time>
      </trkpt>
      <trkpt lat="50.06236" lon="3.9478">
        <ele>157.158</ele>
        <time>2019-09-19T13:07:49.001Z</time>
      </trkpt>
      <trkpt lat="50.06229" lon="3.94797">
        <ele>157.19</ele>
        <time>2019-09-19T13:07:52.001Z</time>
      </trkpt>
      <trkpt lat="50.06222" lon="3.94815">
        <ele>157.776</ele>
        <time>2019-09-19T13:07:55.001Z</time>
      </trkpt>
      <trkpt lat="50.06213" lon="3.94832">
        <ele>158.52</ele>
        <time>2019-09-19T13:07:58.001Z</time>
      </trkpt>
      <trkpt lat="50.06203" lon="3.9485">
        <ele>159.633</ele>
        <time>2019-09-19T13:08:01.001Z</time>
      </trkpt>
      <trkpt lat="50.06194" lon="3.94866">
        <ele>159.513</ele>
        <time>2019-09-19T13:08:04.001Z</time>
      </trkpt>
      <trkpt lat="50.06186" lon="3.94883">
        <ele>159.517</ele>
        <time>2019-09-19T13:08:07.001Z</time>
      </trkpt>
      <trkpt lat="50.06178" lon="3.94898">
        <ele>159.887</ele>
        <time>2019-09-19T13:08:10.001Z</time>
      </trkpt>
      <trkpt lat="50.0617" lon="3.94914">
        <ele>160.357</ele>
        <time>2019-09-19T13:08:13.001Z</time>
      </trkpt>
      <trkpt lat="50.06161" lon="3.9493">
        <ele>160.917</ele>
        <time>2019-09-19T13:08:16.000Z</time>
      </trkpt>
      <trkpt lat="50.06153" lon="3.94946">
        <ele>161.196</ele>
        <time>2019-09-19T13:08:19.001Z</time>
      </trkpt>
      <trkpt lat="50.06145" lon="3.94966">
        <ele>160.561</ele>
        <time>2019-09-19T13:08:22.001Z</time>
      </trkpt>
      <trkpt lat="50.06138" lon="3.94987">
        <ele>161.455</ele>
        <time>2019-09-19T13:08:25.001Z</time>
      </trkpt>
      <trkpt lat="50.06131" lon="3.95007">
        <ele>162.348</ele>
        <time>2019-09-19T13:08:28.001Z</time>
      </trkpt>
      <trkpt lat="50.06124" lon="3.95025">
        <ele>162.532</ele>
        <time>2019-09-19T13:08:31.001Z</time>
      </trkpt>
      <trkpt lat="50.06115" lon="3.95042">
        <ele>162.686</ele>
        <time>2019-09-19T13:08:34.001Z</time>
      </trkpt>
      <trkpt lat="50.06106" lon="3.95059">
        <ele>162.739</ele>
        <time>2019-09-19T13:08:37.001Z</time>
      </trkpt>
      <trkpt lat="50.06098" lon="3.95072">
        <ele>162.826</ele>
        <time>2019-09-19T13:08:40.001Z</time>
      </trkpt>
      <trkpt lat="50.06092" lon="3.95081">
        <ele>163.427</ele>
        <time>2019-09-19T13:08:43.001Z</time>
      </trkpt>
      <trkpt lat="50.06089" lon="3.95092">
        <ele>163.417</ele>
        <time>2019-09-19T13:08:46.001Z</time>
      </trkpt>
      <trkpt lat="50.06086" lon="3.95102">
        <ele>163.67</ele>
        <time>2019-09-19T13:08:49.001Z</time>
      </trkpt>
      <trkpt lat="50.06081" lon="3.95113">
        <ele>164.367</ele>
        <time>2019-09-19T13:08:52.001Z</time>
      </trkpt>
      <trkpt lat="50.06076" lon="3.95125">
        <ele>164.451</ele>
        <time>2019-09-19T13:08:55.001Z</time>
      </trkpt>
      <trkpt lat="50.06071" lon="3.95137">
        <ele>164.431</ele>
        <time>2019-09-19T13:08:58.001Z</time>
      </trkpt>
      <trkpt lat="50.06067" lon="3.9515">
        <ele>164.456</ele>
        <time>2019-09-19T13:09:01.001Z</time>
      </trkpt>
      <trkpt lat="50.06064" lon="3.95164">
        <ele>164.276</ele>
        <time>2019-09-19T13:09:04.001Z</time>
      </trkpt>
      <trkpt lat="50.0606" lon="3.95178">
        <ele>163.917</ele>
        <time>2019-09-19T13:09:07.001Z</time>
      </trkpt>
      <trkpt lat="50.06057" lon="3.95191">
        <ele>163.672</ele>
        <time>2019-09-19T13:09:10.001Z</time>
      </trkpt>
      <trkpt lat="50.06054" lon="3.95204">
        <ele>163.528</ele>
        <time>2019-09-19T13:09:13.001Z</time>
      </trkpt>
      <trkpt lat="50.06052" lon="3.95217">
        <ele>163.473</ele>
        <time>2019-09-19T13:09:16.000Z</time>
      </trkpt>
      <trkpt lat="50.06049" lon="3.9523">
        <ele>163.448</ele>
        <time>2019-09-19T13:09:19.001Z</time>
      </trkpt>
      <trkpt lat="50.06047" lon="3.95242">
        <ele>163.733</ele>
        <time>2019-09-19T13:09:22.001Z</time>
      </trkpt>
      <trkpt lat="50.06045" lon="3.95254">
        <ele>163.959</ele>
        <time>2019-09-19T13:09:25.001Z</time>
      </trkpt>
      <trkpt lat="50.06042" lon="3.95267">
        <ele>164.179</ele>
        <time>2019-09-19T13:09:28.001Z</time>
      </trkpt>
      <trkpt lat="50.0604" lon="3.95278">
        <ele>164.619</ele>
        <time>2019-09-19T13:09:31.001Z</time>
      </trkpt>
      <trkpt lat="50.06038" lon="3.9529">
        <ele>165.562</ele>
        <time>2019-09-19T13:09:34.001Z</time>
      </trkpt>
      <trkpt lat="50.06035" lon="3.95301">
        <ele>166.095</ele>
        <time>2019-09-19T13:09:37.001Z</time>
      </trkpt>
      <trkpt lat="50.06034" lon="3.95312">
        <ele>166.681</ele>
        <time>2019-09-19T13:09:40.001Z</time>
      </trkpt>
      <trkpt lat="50.06032" lon="3.95323">
        <ele>167.159</ele>
        <time>2019-09-19T13:09:43.001Z</time>
      </trkpt>
      <trkpt lat="50.0603" lon="3.95331">
        <ele>168.259</ele>
        <time>2019-09-19T13:09:46.001Z</time>
      </trkpt>
      <trkpt lat="50.06027" lon="3.95339">
        <ele>169.013</ele>
        <time>2019-09-19T13:09:49.001Z</time>
      </trkpt>
      <trkpt lat="50.06025" lon="3.95348">
        <ele>169.925</ele>
        <time>2019-09-19T13:09:52.001Z</time>
      </trkpt>
      <trkpt lat="50.06024" lon="3.95357">
        <ele>170.725</ele>
        <time>2019-09-19T13:09:55.001Z</time>
      </trkpt>
      <trkpt lat="50.06023" lon="3.95365">
        <ele>171.977</ele>
        <time>2019-09-19T13:09:58.001Z</time>
      </trkpt>
      <trkpt lat="50.06021" lon="3.95373">
        <ele>172.85</ele>
        <time>2019-09-19T13:10:01.001Z</time>
      </trkpt>
      <trkpt lat="50.0602" lon="3.95381">
        <ele>173.44</ele>
        <time>2019-09-19T13:10:04.001Z</time>
      </trkpt>
      <trkpt lat="50.06018" lon="3.9539">
        <ele>173.94</ele>
        <time>2019-09-19T13:10:07.001Z</time>
      </trkpt>
      <trkpt lat="50.06016" lon="3.95399">
        <ele>175.117</ele>
        <time>2019-09-19T13:10:10.001Z</time>
      </trkpt>
      <trkpt lat="50.06014" lon="3.95408">
        <ele>176.371</ele>
        <time>2019-09-19T13:10:13.001Z</time>
      </trkpt>
      <trkpt lat="50.06012" lon="3.95416">
        <ele>176.906</ele>
        <time>2019-09-19T13:10:16.000Z</time>
      </trkpt>
      <trkpt lat="50.0601" lon="3.95424">
        <ele>177.597</ele>
        <time>2019-09-19T13:10:19.001Z</time>
      </trkpt>
      <trkpt lat="50.06008" lon="3.95434">
        <ele>177.928</ele>
        <time>2019-09-19T13:10:22.001Z</time>
      </trkpt>
      <trkpt lat="50.06007" lon="3.95442">
        <ele>178.464</ele>
        <time>2019-09-19T13:10:25.001Z</time>
      </trkpt>
      <trkpt lat="50.06005" lon="3.95452">
        <ele>178.556</ele>
        <time>2019-09-19T13:10:28.001Z</time>
      </trkpt>
      <trkpt lat="50.06004" lon="3.95461">
        <ele>178.085</ele>
        <time>2019-09-19T13:10:31.001Z</time>
      </trkpt>
      <trkpt lat="50.06002" lon="3.95469">
        <ele>178.569</ele>
        <time>2019-09-19T13:10:34.001Z</time>
      </trkpt>
      <trkpt lat="50.06" lon="3.95479">
        <ele>178.924</ele>
        <time>2019-09-19T13:10:37.001Z</time>
      </trkpt>
      <trkpt lat="50.05999" lon="3.95487">
        <ele>179.057</ele>
        <time>2019-09-19T13:10:40.001Z</time>
      </trkpt>
      <trkpt lat="50.05997" lon="3.95496">
        <ele>180.069</ele>
        <time>2019-09-19T13:10:43.001Z</time>
      </trkpt>
      <trkpt lat="50.05996" lon="3.95504">
        <ele>180.798</ele>
        <time>2019-09-19T13:10:46.001Z</time>
      </trkpt>
      <trkpt lat="50.05994" lon="3.95513">
        <ele>180.782</ele>
        <time>2019-09-19T13:10:49.001Z</time>
      </trkpt>
      <trkpt lat="50.05992" lon="3.95523">
        <ele>181.202</ele>
        <time>2019-09-19T13:10:52.001Z</time>
      </trkpt>
      <trkpt lat="50.05991" lon="3.95533">
        <ele>181.843</ele>
        <time>2019-09-19T13:10:55.001Z</time>
      </trkpt>
      <trkpt lat="50.05991" lon="3.95542">
        <ele>182.296</ele>
        <time>2019-09-19T13:10:58.001Z</time>
      </trkpt>
      <trkpt lat="50.05991" lon="3.95554">
        <ele>182.553</ele>
        <time>2019-09-19T13:11:01.001Z</time>
      </trkpt>
      <trkpt lat="50.05992" lon="3.95566">
        <ele>183.384</ele>
        <time>2019-09-19T13:11:04.001Z</time>
      </trkpt>
      <trkpt lat="50.05992" lon="3.95578">
        <ele>183.282</ele>
        <time>2019-09-19T13:11:07.001Z</time>
      </trkpt>
      <trkpt lat="50.05993" lon="3.95591">
        <ele>183.287</ele>
        <time>2019-09-19T13:11:10.001Z</time>
      </trkpt>
      <trkpt lat="50.05994" lon="3.95602">
        <ele>182.948</ele>
        <time>2019-09-19T13:11:13.001Z</time>
      </trkpt>
      <trkpt lat="50.05996" lon="3.95613">
        <ele>183.344</ele>
        <time>2019-09-19T13:11:16.000Z</time>
      </trkpt>
      <trkpt lat="50.05999" lon="3.95623">
        <ele>184.054</ele>
        <time>2019-09-19T13:11:19.001Z</time>
      </trkpt>
      <trkpt lat="50.06001" lon="3.95635">
        <ele>184.253</ele>
        <time>2019-09-19T13:11:22.001Z</time>
      </trkpt>
      <trkpt lat="50.06004" lon="3.95647">
        <ele>184.578</ele>
        <time>2019-09-19T13:11:25.001Z</time>
      </trkpt>
      <trkpt lat="50.06008" lon="3.9566">
        <ele>184.532</ele>
        <time>2019-09-19T13:11:28.001Z</time>
      </trkpt>
      <trkpt lat="50.06012" lon="3.95673">
        <ele>184.186</ele>
        <time>2019-09-19T13:11:31.001Z</time>
      </trkpt>
      <trkpt lat="50.06017" lon="3.95687">
        <ele>184.535</ele>
        <time>2019-09-19T13:11:34.001Z</time>
      </trkpt>
      <trkpt lat="50.06023" lon="3.95706">
        <ele>183.947</ele>
        <time>2019-09-19T13:11:37.001Z</time>
      </trkpt>
      <trkpt lat="50.0603" lon="3.95726">
        <ele>183.323</ele>
        <time>2019-09-19T13:11:40.001Z</time>
      </trkpt>
      <trkpt lat="50.06039" lon="3.95747">
        <ele>182.513</ele>
        <time>2019-09-19T13:11:43.001Z</time>
      </trkpt>
      <trkpt lat="50.06046" lon="3.95768">
        <ele>181.169</ele>
        <time>2019-09-19T13:11:46.001Z</time>
      </trkpt>
      <trkpt lat="50.06055" lon="3.9579">
        <ele>179.866</ele>
        <time>2019-09-19T13:11:49.001Z</time>
      </trkpt>
      <trkpt lat="50.06067" lon="3.95813">
        <ele>179.381</ele>
        <time>2019-09-19T13:11:52.001Z</time>
      </trkpt>
      <trkpt lat="50.06078" lon="3.95834">
        <ele>178.14</ele>
        <time>2019-09-19T13:11:55.001Z</time>
      </trkpt>
      <trkpt lat="50.0609" lon="3.95861">
        <ele>177.14</ele>
        <time>2019-09-19T13:11:58.001Z</time>
      </trkpt>
      <trkpt lat="50.06103" lon="3.9589">
        <ele>176.364</ele>
        <time>2019-09-19T13:12:01.001Z</time>
      </trkpt>
      <trkpt lat="50.06116" lon="3.95922">
        <ele>175.096</ele>
        <time>2019-09-19T13:12:04.001Z</time>
      </trkpt>
      <trkpt lat="50.06131" lon="3.95957">
        <ele>173.707</ele>
        <time>2019-09-19T13:12:07.001Z</time>
      </trkpt>
      <trkpt lat="50.06146" lon="3.95998">
        <ele>171.487</ele>
        <time>2019-09-19T13:12:10.001Z</time>
      </trkpt>
      <trkpt lat="50.0615" lon="3.96043">
        <ele>170.176</ele>
        <time>2019-09-19T13:12:13.001Z</time>
      </trkpt>
      <trkpt lat="50.06146" lon="3.96085">
        <ele>167.862</ele>
        <time>2019-09-19T13:12:16.000Z</time>
      </trkpt>
      <trkpt lat="50.06141" lon="3.96129">
        <ele>164.874</ele>
        <time>2019-09-19T13:12:19.001Z</time>
      </trkpt>
      <trkpt lat="50.06137" lon="3.96177">
        <ele>160.775</ele>
        <time>2019-09-19T13:12:22.001Z</time>
      </trkpt>
      <trkpt lat="50.06136" lon="3.9622">
        <ele>158.845</ele>
        <time>2019-09-19T13:12:25.001Z</time>
      </trkpt>
      <trkpt lat="50.06135" lon="3.96263">
        <ele>157.893</ele>
        <time>2019-09-19T13:12:28.001Z</time>
      </trkpt>
      <trkpt lat="50.0613" lon="3.96302">
        <ele>157.481</ele>
        <time>2019-09-19T13:12:31.001Z</time>
      </trkpt>
      <trkpt lat="50.06124" lon="3.96339">
        <ele>157.385</ele>
        <time>2019-09-19T13:12:34.001Z</time>
      </trkpt>
      <trkpt lat="50.06115" lon="3.96374">
        <ele>157.012</ele>
        <time>2019-09-19T13:12:37.001Z</time>
      </trkpt>
      <trkpt lat="50.06105" lon="3.96405">
        <ele>156.407</ele>
        <time>2019-09-19T13:12:40.001Z</time>
      </trkpt>
      <trkpt lat="50.06095" lon="3.9643">
        <ele>156.321</ele>
        <time>2019-09-19T13:12:43.001Z</time>
      </trkpt>
      <trkpt lat="50.06086" lon="3.96453">
        <ele>156.475</ele>
        <time>2019-09-19T13:12:46.001Z</time>
      </trkpt>
      <trkpt lat="50.06074" lon="3.96467">
        <ele>156.456</ele>
        <time>2019-09-19T13:12:49.001Z</time>
      </trkpt>
      <trkpt lat="50.06058" lon="3.96469">
        <ele>156.344</ele>
        <time>2019-09-19T13:12:52.001Z</time>
      </trkpt>
      <trkpt lat="50.06045" lon="3.96469">
        <ele>157.137</ele>
        <time>2019-09-19T13:12:55.001Z</time>
      </trkpt>
      <trkpt lat="50.06034" lon="3.9647">
        <ele>158.139</ele>
        <time>2019-09-19T13:12:58.001Z</time>
      </trkpt>
      <trkpt lat="50.06022" lon="3.96472">
        <ele>158.949</ele>
        <time>2019-09-19T13:13:01.001Z</time>
      </trkpt>
      <trkpt lat="50.0601" lon="3.96472">
        <ele>159.479</ele>
        <time>2019-09-19T13:13:04.001Z</time>
      </trkpt>
      <trkpt lat="50.05999" lon="3.96472">
        <ele>159.715</ele>
        <time>2019-09-19T13:13:07.001Z</time>
      </trkpt>
      <trkpt lat="50.05987" lon="3.96472">
        <ele>159.887</ele>
        <time>2019-09-19T13:13:10.001Z</time>
      </trkpt>
      <trkpt lat="50.05975" lon="3.96474">
        <ele>159.845</ele>
        <time>2019-09-19T13:13:13.001Z</time>
      </trkpt>
      <trkpt lat="50.05965" lon="3.96475">
        <ele>161.184</ele>
        <time>2019-09-19T13:13:16.000Z</time>
      </trkpt>
      <trkpt lat="50.05953" lon="3.96477">
        <ele>162.301</ele>
        <time>2019-09-19T13:13:19.001Z</time>
      </trkpt>
      <trkpt lat="50.0594" lon="3.96482">
        <ele>162.673</ele>
        <time>2019-09-19T13:13:22.001Z</time>
      </trkpt>
      <trkpt lat="50.05927" lon="3.9649">
        <ele>162.375</ele>
        <time>2019-09-19T13:13:25.001Z</time>
      </trkpt>
      <trkpt lat="50.05915" lon="3.965">
        <ele>162.547</ele>
        <time>2019-09-19T13:13:28.001Z</time>
      </trkpt>
      <trkpt lat="50.05902" lon="3.96513">
        <ele>162.263</ele>
        <time>2019-09-19T13:13:31.001Z</time>
      </trkpt>
      <trkpt lat="50.05887" lon="3.96529">
        <ele>162.029</ele>
        <time>2019-09-19T13:13:34.001Z</time>
      </trkpt>
      <trkpt lat="50.05872" lon="3.96547">
        <ele>162.073</ele>
        <time>2019-09-19T13:13:37.001Z</time>
      </trkpt>
      <trkpt lat="50.05858" lon="3.96565">
        <ele>162.246</ele>
        <time>2019-09-19T13:13:40.001Z</time>
      </trkpt>
      <trkpt lat="50.05843" lon="3.96581">
        <ele>161.509</ele>
        <time>2019-09-19T13:13:43.001Z</time>
      </trkpt>
      <trkpt lat="50.05828" lon="3.96593">
        <ele>161.716</ele>
        <time>2019-09-19T13:13:46.001Z</time>
      </trkpt>
      <trkpt lat="50.05815" lon="3.96605">
        <ele>161.771</ele>
        <time>2019-09-19T13:13:49.001Z</time>
      </trkpt>
      <trkpt lat="50.05803" lon="3.96617">
        <ele>161.572</ele>
        <time>2019-09-19T13:13:52.001Z</time>
      </trkpt>
      <trkpt lat="50.05793" lon="3.9663">
        <ele>161.473</ele>
        <time>2019-09-19T13:13:55.001Z</time>
      </trkpt>
      <trkpt lat="50.05785" lon="3.96643">
        <ele>161.844</ele>
        <time>2019-09-19T13:13:58.001Z</time>
      </trkpt>
      <trkpt lat="50.0578" lon="3.96652">
        <ele>162.224</ele>
        <time>2019-09-19T13:14:01.001Z</time>
      </trkpt>
      <trkpt lat="50.05777" lon="3.96659">
        <ele>162.897</ele>
        <time>2019-09-19T13:14:04.001Z</time>
      </trkpt>
      <trkpt lat="50.05774" lon="3.96667">
        <ele>164.259</ele>
        <time>2019-09-19T13:14:07.001Z</time>
      </trkpt>
      <trkpt lat="50.05771" lon="3.96678">
        <ele>165.198</ele>
        <time>2019-09-19T13:14:10.001Z</time>
      </trkpt>
      <trkpt lat="50.05768" lon="3.96688">
        <ele>166.186</ele>
        <time>2019-09-19T13:14:13.001Z</time>
      </trkpt>
      <trkpt lat="50.05767" lon="3.96699">
        <ele>167.129</ele>
        <time>2019-09-19T13:14:16.000Z</time>
      </trkpt>
      <trkpt lat="50.05765" lon="3.96711">
        <ele>167.838</ele>
        <time>2019-09-19T13:14:19.001Z</time>
      </trkpt>
      <trkpt lat="50.05763" lon="3.96724">
        <ele>168.36</ele>
        <time>2019-09-19T13:14:22.001Z</time>
      </trkpt>
      <trkpt lat="50.0576" lon="3.96737">
        <ele>168.748</ele>
        <time>2019-09-19T13:14:25.001Z</time>
      </trkpt>
      <trkpt lat="50.05755" lon="3.96752">
        <ele>168.353</ele>
        <time>2019-09-19T13:14:28.001Z</time>
      </trkpt>
      <trkpt lat="50.05749" lon="3.96767">
        <ele>168.644</ele>
        <time>2019-09-19T13:14:31.001Z</time>
      </trkpt>
      <trkpt lat="50.05741" lon="3.96783">
        <ele>168.784</ele>
        <time>2019-09-19T13:14:34.001Z</time>
      </trkpt>
      <trkpt lat="50.05733" lon="3.968">
        <ele>168.617</ele>
        <time>2019-09-19T13:14:37.001Z</time>
      </trkpt>
      <trkpt lat="50.05726" lon="3.96819">
        <ele>168.412</ele>
        <time>2019-09-19T13:14:40.001Z</time>
      </trkpt>
      <trkpt lat="50.05719" lon="3.96837">
        <ele>168.648</ele>
        <time>2019-09-19T13:14:43.001Z</time>
      </trkpt>
      <trkpt lat="50.05711" lon="3.96854">
        <ele>168.607</ele>
        <time>2019-09-19T13:14:46.001Z</time>
      </trkpt>
      <trkpt lat="50.05703" lon="3.96872">
        <ele>168.566</ele>
        <time>2019-09-19T13:14:49.001Z</time>
      </trkpt>
      <trkpt lat="50.05695" lon="3.96888">
        <ele>168.612</ele>
        <time>2019-09-19T13:14:52.001Z</time>
      </trkpt>
      <trkpt lat="50.05687" lon="3.96906">
        <ele>168.222</ele>
        <time>2019-09-19T13:14:55.001Z</time>
      </trkpt>
      <trkpt lat="50.05678" lon="3.96925">
        <ele>167.482</ele>
        <time>2019-09-19T13:14:58.001Z</time>
      </trkpt>
      <trkpt lat="50.05669" lon="3.96945">
        <ele>166.707</ele>
        <time>2019-09-19T13:15:01.001Z</time>
      </trkpt>
      <trkpt lat="50.05658" lon="3.96961">
        <ele>165.908</ele>
        <time>2019-09-19T13:15:04.001Z</time>
      </trkpt>
      <trkpt lat="50.05645" lon="3.96979">
        <ele>165.89</ele>
        <time>2019-09-19T13:15:07.001Z</time>
      </trkpt>
      <trkpt lat="50.05631" lon="3.96996">
        <ele>165.92</ele>
        <time>2019-09-19T13:15:10.001Z</time>
      </trkpt>
      <trkpt lat="50.05617" lon="3.97015">
        <ele>165.686</ele>
        <time>2019-09-19T13:15:13.001Z</time>
      </trkpt>
      <trkpt lat="50.05604" lon="3.97039">
        <ele>166.059</ele>
        <time>2019-09-19T13:15:16.000Z</time>
      </trkpt>
      <trkpt lat="50.0559" lon="3.97064">
        <ele>165.904</ele>
        <time>2019-09-19T13:15:19.001Z</time>
      </trkpt>
      <trkpt lat="50.05577" lon="3.97089">
        <ele>165.259</ele>
        <time>2019-09-19T13:15:22.001Z</time>
      </trkpt>
      <trkpt lat="50.05566" lon="3.9711">
        <ele>164.668</ele>
        <time>2019-09-19T13:15:25.001Z</time>
      </trkpt>
      <trkpt lat="50.05555" lon="3.97129">
        <ele>164.428</ele>
        <time>2019-09-19T13:15:28.001Z</time>
      </trkpt>
      <trkpt lat="50.05551" lon="3.97153">
        <ele>164.37</ele>
        <time>2019-09-19T13:15:31.001Z</time>
      </trkpt>
      <trkpt lat="50.05552" lon="3.97175">
        <ele>164.688</ele>
        <time>2019-09-19T13:15:34.001Z</time>
      </trkpt>
      <trkpt lat="50.0555" lon="3.97192">
        <ele>164.989</ele>
        <time>2019-09-19T13:15:37.001Z</time>
      </trkpt>
      <trkpt lat="50.05549" lon="3.97206">
        <ele>165.504</ele>
        <time>2019-09-19T13:15:40.001Z</time>
      </trkpt>
      <trkpt lat="50.05547" lon="3.97222">
        <ele>166.361</ele>
        <time>2019-09-19T13:15:43.001Z</time>
      </trkpt>
      <trkpt lat="50.05545" lon="3.97237">
        <ele>166.822</ele>
        <time>2019-09-19T13:15:46.001Z</time>
      </trkpt>
      <trkpt lat="50.05545" lon="3.97252">
        <ele>167.272</ele>
        <time>2019-09-19T13:15:49.001Z</time>
      </trkpt>
      <trkpt lat="50.05545" lon="3.97266">
        <ele>168.286</ele>
        <time>2019-09-19T13:15:52.001Z</time>
      </trkpt>
      <trkpt lat="50.05543" lon="3.9728">
        <ele>168.804</ele>
        <time>2019-09-19T13:15:55.001Z</time>
      </trkpt>
      <trkpt lat="50.05542" lon="3.97294">
        <ele>169.615</ele>
        <time>2019-09-19T13:15:58.001Z</time>
      </trkpt>
      <trkpt lat="50.05541" lon="3.9731">
        <ele>170.364</ele>
        <time>2019-09-19T13:16:01.001Z</time>
      </trkpt>
      <trkpt lat="50.0554" lon="3.97325">
        <ele>171.1</ele>
        <time>2019-09-19T13:16:04.001Z</time>
      </trkpt>
      <trkpt lat="50.05539" lon="3.97341">
        <ele>171.693</ele>
        <time>2019-09-19T13:16:07.001Z</time>
      </trkpt>
      <trkpt lat="50.05537" lon="3.97358">
        <ele>172.063</ele>
        <time>2019-09-19T13:16:10.001Z</time>
      </trkpt>
      <trkpt lat="50.05535" lon="3.97375">
        <ele>172.084</ele>
        <time>2019-09-19T13:16:13.001Z</time>
      </trkpt>
      <trkpt lat="50.05535" lon="3.97393">
        <ele>172.327</ele>
        <time>2019-09-19T13:16:16.000Z</time>
      </trkpt>
      <trkpt lat="50.05536" lon="3.9741">
        <ele>172.252</ele>
        <time>2019-09-19T13:16:19.001Z</time>
      </trkpt>
      <trkpt lat="50.05539" lon="3.97428">
        <ele>172.189</ele>
        <time>2019-09-19T13:16:22.001Z</time>
      </trkpt>
      <trkpt lat="50.05542" lon="3.97446">
        <ele>172.346</ele>
        <time>2019-09-19T13:16:25.001Z</time>
      </trkpt>
      <trkpt lat="50.05546" lon="3.97466">
        <ele>172.391</ele>
        <time>2019-09-19T13:16:28.001Z</time>
      </trkpt>
      <trkpt lat="50.05546" lon="3.97488">
        <ele>172.785</ele>
        <time>2019-09-19T13:16:31.001Z</time>
      </trkpt>
      <trkpt lat="50.05544" lon="3.97509">
        <ele>173.424</ele>
        <time>2019-09-19T13:16:34.001Z</time>
      </trkpt>
      <trkpt lat="50.0554" lon="3.97534">
        <ele>174.504</ele>
        <time>2019-09-19T13:16:37.001Z</time>
      </trkpt>
      <trkpt lat="50.05535" lon="3.97568">
        <ele>174.875</ele>
        <time>2019-09-19T13:16:40.001Z</time>
      </trkpt>
      <trkpt lat="50.05528" lon="3.976">
        <ele>174.822</ele>
        <time>2019-09-19T13:16:43.001Z</time>
      </trkpt>
      <trkpt lat="50.05519" lon="3.97633">
        <ele>175.064</ele>
        <time>2019-09-19T13:16:46.001Z</time>
      </trkpt>
      <trkpt lat="50.0551" lon="3.97661">
        <ele>176.151</ele>
        <time>2019-09-19T13:16:49.001Z</time>
      </trkpt>
      <trkpt lat="50.05507" lon="3.97685">
        <ele>177.066</ele>
        <time>2019-09-19T13:16:52.001Z</time>
      </trkpt>
      <trkpt lat="50.05505" lon="3.97708">
        <ele>177.886</ele>
        <time>2019-09-19T13:16:55.001Z</time>
      </trkpt>
      <trkpt lat="50.05503" lon="3.9773">
        <ele>178.647</ele>
        <time>2019-09-19T13:16:58.001Z</time>
      </trkpt>
      <trkpt lat="50.05502" lon="3.97751">
        <ele>179.114</ele>
        <time>2019-09-19T13:17:01.001Z</time>
      </trkpt>
      <trkpt lat="50.05504" lon="3.97775">
        <ele>179.408</ele>
        <time>2019-09-19T13:17:04.001Z</time>
      </trkpt>
      <trkpt lat="50.05506" lon="3.97799">
        <ele>179.826</ele>
        <time>2019-09-19T13:17:07.001Z</time>
      </trkpt>
      <trkpt lat="50.05508" lon="3.97825">
        <ele>179.987</ele>
        <time>2019-09-19T13:17:10.001Z</time>
      </trkpt>
      <trkpt lat="50.05511" lon="3.97847">
        <ele>179.915</ele>
        <time>2019-09-19T13:17:13.001Z</time>
      </trkpt>
      <trkpt lat="50.05513" lon="3.97873">
        <ele>179.499</ele>
        <time>2019-09-19T13:17:16.000Z</time>
      </trkpt>
      <trkpt lat="50.05512" lon="3.97898">
        <ele>180.187</ele>
        <time>2019-09-19T13:17:19.001Z</time>
      </trkpt>
      <trkpt lat="50.0551" lon="3.97919">
        <ele>180.478</ele>
        <time>2019-09-19T13:17:22.001Z</time>
      </trkpt>
      <trkpt lat="50.05506" lon="3.97941">
        <ele>180.19</ele>
        <time>2019-09-19T13:17:25.001Z</time>
      </trkpt>
      <trkpt lat="50.055" lon="3.97965">
        <ele>180.08</ele>
        <time>2019-09-19T13:17:28.001Z</time>
      </trkpt>
      <trkpt lat="50.05494" lon="3.97991">
        <ele>179.684</ele>
        <time>2019-09-19T13:17:31.001Z</time>
      </trkpt>
      <trkpt lat="50.05489" lon="3.98015">
        <ele>179.132</ele>
        <time>2019-09-19T13:17:34.001Z</time>
      </trkpt>
      <trkpt lat="50.05482" lon="3.98038">
        <ele>178.966</ele>
        <time>2019-09-19T13:17:37.001Z</time>
      </trkpt>
      <trkpt lat="50.05476" lon="3.98063">
        <ele>178.79</ele>
        <time>2019-09-19T13:17:40.001Z</time>
      </trkpt>
      <trkpt lat="50.05474" lon="3.98091">
        <ele>177.527</ele>
        <time>2019-09-19T13:17:43.001Z</time>
      </trkpt>
      <trkpt lat="50.05477" lon="3.98118">
        <ele>176.461</ele>
        <time>2019-09-19T13:17:46.001Z</time>
      </trkpt>
      <trkpt lat="50.05484" lon="3.98143">
        <ele>176.439</ele>
        <time>2019-09-19T13:17:49.001Z</time>
      </trkpt>
      <trkpt lat="50.05495" lon="3.98166">
        <ele>176.835</ele>
        <time>2019-09-19T13:17:52.001Z</time>
      </trkpt>
      <trkpt lat="50.05506" lon="3.98189">
        <ele>176.505</ele>
        <time>2019-09-19T13:17:55.001Z</time>
      </trkpt>
      <trkpt lat="50.05517" lon="3.98214">
        <ele>175.637</ele>
        <time>2019-09-19T13:17:58.001Z</time>
      </trkpt>
      <trkpt lat="50.05529" lon="3.98244">
        <ele>174.496</ele>
        <time>2019-09-19T13:18:01.001Z</time>
      </trkpt>
      <trkpt lat="50.05541" lon="3.98277">
        <ele>172.967</ele>
        <time>2019-09-19T13:18:04.001Z</time>
      </trkpt>
      <trkpt lat="50.0555" lon="3.98309">
        <ele>171.818</ele>
        <time>2019-09-19T13:18:07.001Z</time>
      </trkpt>
      <trkpt lat="50.05559" lon="3.98338">
        <ele>170.714</ele>
        <time>2019-09-19T13:18:10.001Z</time>
      </trkpt>
      <trkpt lat="50.05568" lon="3.98363">
        <ele>170.139</ele>
        <time>2019-09-19T13:18:13.001Z</time>
      </trkpt>
      <trkpt lat="50.05579" lon="3.9838">
        <ele>170.032</ele>
        <time>2019-09-19T13:18:16.000Z</time>
      </trkpt>
      <trkpt lat="50.05592" lon="3.98395">
        <ele>169.034</ele>
        <time>2019-09-19T13:18:19.001Z</time>
      </trkpt>
      <trkpt lat="50.05605" lon="3.98409">
        <ele>167.584</ele>
        <time>2019-09-19T13:18:22.001Z</time>
      </trkpt>
      <trkpt lat="50.05615" lon="3.98424">
        <ele>167.186</ele>
        <time>2019-09-19T13:18:25.001Z</time>
      </trkpt>
      <trkpt lat="50.05623" lon="3.9844">
        <ele>166.919</ele>
        <time>2019-09-19T13:18:28.001Z</time>
      </trkpt>
      <trkpt lat="50.05631" lon="3.98457">
        <ele>166.432</ele>
        <time>2019-09-19T13:18:31.001Z</time>
      </trkpt>
      <trkpt lat="50.05638" lon="3.9847">
        <ele>165.498</ele>
        <time>2019-09-19T13:18:34.001Z</time>
      </trkpt>
      <trkpt lat="50.05644" lon="3.98484">
        <ele>164.907</ele>
        <time>2019-09-19T13:18:37.001Z</time>
      </trkpt>
      <trkpt lat="50.0565" lon="3.98497">
        <ele>163.824</ele>
        <time>2019-09-19T13:18:40.001Z</time>
      </trkpt>
      <trkpt lat="50.05654" lon="3.98511">
        <ele>163.033</ele>
        <time>2019-09-19T13:18:43.001Z</time>
      </trkpt>
      <trkpt lat="50.05651" lon="3.98528">
        <ele>161.807</ele>
        <time>2019-09-19T13:18:46.001Z</time>
      </trkpt>
      <trkpt lat="50.05646" lon="3.98545">
        <ele>160.549</ele>
        <time>2019-09-19T13:18:49.001Z</time>
      </trkpt>
      <trkpt lat="50.05639" lon="3.98562">
        <ele>159.678</ele>
        <time>2019-09-19T13:18:52.001Z</time>
      </trkpt>
      <trkpt lat="50.05632" lon="3.98576">
        <ele>159.62</ele>
        <time>2019-09-19T13:18:55.001Z</time>
      </trkpt>
      <trkpt lat="50.05625" lon="3.98591">
        <ele>159.936</ele>
        <time>2019-09-19T13:18:58.001Z</time>
      </trkpt>
      <trkpt lat="50.05619" lon="3.98605">
        <ele>161.013</ele>
        <time>2019-09-19T13:19:01.001Z</time>
      </trkpt>
      <trkpt lat="50.05617" lon="3.98622">
        <ele>161.559</ele>
        <time>2019-09-19T13:19:04.001Z</time>
      </trkpt>
      <trkpt lat="50.0562" lon="3.98638">
        <ele>162.148</ele>
        <time>2019-09-19T13:19:07.001Z</time>
      </trkpt>
      <trkpt lat="50.05628" lon="3.98647">
        <ele>163.466</ele>
        <time>2019-09-19T13:19:10.001Z</time>
      </trkpt>
      <trkpt lat="50.05635" lon="3.98654">
        <ele>164.626</ele>
        <time>2019-09-19T13:19:13.001Z</time>
      </trkpt>
      <trkpt lat="50.05641" lon="3.98661">
        <ele>165.327</ele>
        <time>2019-09-19T13:19:16.000Z</time>
      </trkpt>
      <trkpt lat="50.05647" lon="3.98669">
        <ele>165.849</ele>
        <time>2019-09-19T13:19:19.001Z</time>
      </trkpt>
      <trkpt lat="50.05654" lon="3.98678">
        <ele>166.347</ele>
        <time>2019-09-19T13:19:22.001Z</time>
      </trkpt>
      <trkpt lat="50.0566" lon="3.98687">
        <ele>166.506</ele>
        <time>2019-09-19T13:19:25.001Z</time>
      </trkpt>
      <trkpt lat="50.05668" lon="3.987">
        <ele>166.995</ele>
        <time>2019-09-19T13:19:28.001Z</time>
      </trkpt>
      <trkpt lat="50.05673" lon="3.98716">
        <ele>166.927</ele>
        <time>2019-09-19T13:19:31.001Z</time>
      </trkpt>
      <trkpt lat="50.05667" lon="3.98739">
        <ele>164.842</ele>
        <time>2019-09-19T13:19:34.001Z</time>
      </trkpt>
      <trkpt lat="50.0565" lon="3.98754">
        <ele>163.804</ele>
        <time>2019-09-19T13:19:37.001Z</time>
      </trkpt>
      <trkpt lat="50.05636" lon="3.98774">
        <ele>163.5</ele>
        <time>2019-09-19T13:19:40.001Z</time>
      </trkpt>
      <trkpt lat="50.05628" lon="3.988">
        <ele>163.302</ele>
        <time>2019-09-19T13:19:43.001Z</time>
      </trkpt>
      <trkpt lat="50.05622" lon="3.98824">
        <ele>163.454</ele>
        <time>2019-09-19T13:19:46.001Z</time>
      </trkpt>
      <trkpt lat="50.05615" lon="3.98848">
        <ele>163.362</ele>
        <time>2019-09-19T13:19:49.001Z</time>
      </trkpt>
      <trkpt lat="50.05609" lon="3.98871">
        <ele>163.2</ele>
        <time>2019-09-19T13:19:52.001Z</time>
      </trkpt>
      <trkpt lat="50.05604" lon="3.98892">
        <ele>163.259</ele>
        <time>2019-09-19T13:19:55.001Z</time>
      </trkpt>
      <trkpt lat="50.05598" lon="3.98915">
        <ele>163.476</ele>
        <time>2019-09-19T13:19:58.001Z</time>
      </trkpt>
      <trkpt lat="50.05592" lon="3.98938">
        <ele>163.676</ele>
        <time>2019-09-19T13:20:01.001Z</time>
      </trkpt>
      <trkpt lat="50.05587" lon="3.98959">
        <ele>163.502</ele>
        <time>2019-09-19T13:20:04.001Z</time>
      </trkpt>
      <trkpt lat="50.05583" lon="3.9898">
        <ele>163.293</ele>
        <time>2019-09-19T13:20:07.001Z</time>
      </trkpt>
      <trkpt lat="50.05581" lon="3.99002">
        <ele>162.915</ele>
        <time>2019-09-19T13:20:10.001Z</time>
      </trkpt>
      <trkpt lat="50.05582" lon="3.99021">
        <ele>162.637</ele>
        <time>2019-09-19T13:20:13.001Z</time>
      </trkpt>
      <trkpt lat="50.05584" lon="3.99038">
        <ele>162.101</ele>
        <time>2019-09-19T13:20:16.000Z</time>
      </trkpt>
      <trkpt lat="50.05587" lon="3.99057">
        <ele>161.883</ele>
        <time>2019-09-19T13:20:19.001Z</time>
      </trkpt>
      <trkpt lat="50.05586" lon="3.99078">
        <ele>161.721</ele>
        <time>2019-09-19T13:20:22.001Z</time>
      </trkpt>
      <trkpt lat="50.05582" lon="3.99099">
        <ele>161.762</ele>
        <time>2019-09-19T13:20:25.001Z</time>
      </trkpt>
      <trkpt lat="50.05576" lon="3.99115">
        <ele>161.798</ele>
        <time>2019-09-19T13:20:28.001Z</time>
      </trkpt>
      <trkpt lat="50.05567" lon="3.99128">
        <ele>161.853</ele>
        <time>2019-09-19T13:20:31.001Z</time>
      </trkpt>
      <trkpt lat="50.05557" lon="3.99137">
        <ele>162.072</ele>
        <time>2019-09-19T13:20:34.001Z</time>
      </trkpt>
      <trkpt lat="50.05546" lon="3.99146">
        <ele>162.411</ele>
        <time>2019-09-19T13:20:37.001Z</time>
      </trkpt>
      <trkpt lat="50.05536" lon="3.99154">
        <ele>162.491</ele>
        <time>2019-09-19T13:20:40.001Z</time>
      </trkpt>
      <trkpt lat="50.05526" lon="3.99162">
        <ele>162.64</ele>
        <time>2019-09-19T13:20:43.001Z</time>
      </trkpt>
      <trkpt lat="50.05518" lon="3.99172">
        <ele>162.532</ele>
        <time>2019-09-19T13:20:46.001Z</time>
      </trkpt>
      <trkpt lat="50.05509" lon="3.99183">
        <ele>162.359</ele>
        <time>2019-09-19T13:20:49.001Z</time>
      </trkpt>
      <trkpt lat="50.05501" lon="3.99196">
        <ele>162.243</ele>
        <time>2019-09-19T13:20:52.001Z</time>
      </trkpt>
      <trkpt lat="50.05493" lon="3.99212">
        <ele>162.313</ele>
        <time>2019-09-19T13:20:55.001Z</time>
      </trkpt>
      <trkpt lat="50.05487" lon="3.99229">
        <ele>162.863</ele>
        <time>2019-09-19T13:20:58.001Z</time>
      </trkpt>
      <trkpt lat="50.05481" lon="3.99249">
        <ele>163.425</ele>
        <time>2019-09-19T13:21:01.001Z</time>
      </trkpt>
      <trkpt lat="50.05474" lon="3.99267">
        <ele>163.899</ele>
        <time>2019-09-19T13:21:04.001Z</time>
      </trkpt>
      <trkpt lat="50.05468" lon="3.99286">
        <ele>164.173</ele>
        <time>2019-09-19T13:21:07.001Z</time>
      </trkpt>
      <trkpt lat="50.05461" lon="3.99303">
        <ele>164.153</ele>
        <time>2019-09-19T13:21:10.001Z</time>
      </trkpt>
      <trkpt lat="50.05455" lon="3.99319">
        <ele>164.292</ele>
        <time>2019-09-19T13:21:13.001Z</time>
      </trkpt>
      <trkpt lat="50.0545" lon="3.99333">
        <ele>165.117</ele>
        <time>2019-09-19T13:21:16.000Z</time>
      </trkpt>
      <trkpt lat="50.05446" lon="3.99344">
        <ele>166.493</ele>
        <time>2019-09-19T13:21:19.001Z</time>
      </trkpt>
      <trkpt lat="50.05443" lon="3.99354">
        <ele>167.507</ele>
        <time>2019-09-19T13:21:22.001Z</time>
      </trkpt>
      <trkpt lat="50.05439" lon="3.99365">
        <ele>168.178</ele>
        <time>2019-09-19T13:21:25.001Z</time>
      </trkpt>
      <trkpt lat="50.05435" lon="3.99375">
        <ele>168.722</ele>
        <time>2019-09-19T13:21:28.001Z</time>
      </trkpt>
      <trkpt lat="50.05433" lon="3.99384">
        <ele>169.334</ele>
        <time>2019-09-19T13:21:31.001Z</time>
      </trkpt>
      <trkpt lat="50.05431" lon="3.99394">
        <ele>169.786</ele>
        <time>2019-09-19T13:21:34.001Z</time>
      </trkpt>
      <trkpt lat="50.05428" lon="3.99403">
        <ele>170.229</ele>
        <time>2019-09-19T13:21:37.001Z</time>
      </trkpt>
      <trkpt lat="50.05425" lon="3.99411">
        <ele>170.638</ele>
        <time>2019-09-19T13:21:40.001Z</time>
      </trkpt>
      <trkpt lat="50.05422" lon="3.9942">
        <ele>171.405</ele>
        <time>2019-09-19T13:21:43.001Z</time>
      </trkpt>
      <trkpt lat="50.05419" lon="3.99429">
        <ele>172.331</ele>
        <time>2019-09-19T13:21:46.001Z</time>
      </trkpt>
      <trkpt lat="50.05416" lon="3.99438">
        <ele>173.523</ele>
        <time>2019-09-19T13:21:49.001Z</time>
      </trkpt>
      <trkpt lat="50.05413" lon="3.99448">
        <ele>174.107</ele>
        <time>2019-09-19T13:21:52.001Z</time>
      </trkpt>
      <trkpt lat="50.0541" lon="3.99458">
        <ele>174.165</ele>
        <time>2019-09-19T13:21:55.001Z</time>
      </trkpt>
      <trkpt lat="50.05406" lon="3.99468">
        <ele>174.202</ele>
        <time>2019-09-19T13:21:58.001Z</time>
      </trkpt>
      <trkpt lat="50.05402" lon="3.99478">
        <ele>173.662</ele>
        <time>2019-09-19T13:22:01.001Z</time>
      </trkpt>
      <trkpt lat="50.054" lon="3.99489">
        <ele>174.184</ele>
        <time>2019-09-19T13:22:04.001Z</time>
      </trkpt>
      <trkpt lat="50.05397" lon="3.995">
        <ele>175.038</ele>
        <time>2019-09-19T13:22:07.001Z</time>
      </trkpt>
      <trkpt lat="50.05394" lon="3.9951">
        <ele>175.807</ele>
        <time>2019-09-19T13:22:10.001Z</time>
      </trkpt>
      <trkpt lat="50.05392" lon="3.9952">
        <ele>176.51</ele>
        <time>2019-09-19T13:22:13.001Z</time>
      </trkpt>
      <trkpt lat="50.05389" lon="3.99529">
        <ele>177.054</ele>
        <time>2019-09-19T13:22:16.000Z</time>
      </trkpt>
      <trkpt lat="50.05386" lon="3.99539">
        <ele>177.604</ele>
        <time>2019-09-19T13:22:19.001Z</time>
      </trkpt>
      <trkpt lat="50.05384" lon="3.99549">
        <ele>177.789</ele>
        <time>2019-09-19T13:22:22.001Z</time>
      </trkpt>
      <trkpt lat="50.05382" lon="3.9956">
        <ele>178.026</ele>
        <time>2019-09-19T13:22:25.001Z</time>
      </trkpt>
      <trkpt lat="50.05379" lon="3.99571">
        <ele>178.366</ele>
        <time>2019-09-19T13:22:28.001Z</time>
      </trkpt>
      <trkpt lat="50.05377" lon="3.99583">
        <ele>178.145</ele>
        <time>2019-09-19T13:22:31.001Z</time>
      </trkpt>
      <trkpt lat="50.05374" lon="3.99596">
        <ele>177.962</ele>
        <time>2019-09-19T13:22:34.001Z</time>
      </trkpt>
      <trkpt lat="50.0537" lon="3.99608">
        <ele>178.364</ele>
        <time>2019-09-19T13:22:37.001Z</time>
      </trkpt>
      <trkpt lat="50.05366" lon="3.99622">
        <ele>178.447</ele>
        <time>2019-09-19T13:22:40.001Z</time>
      </trkpt>
      <trkpt lat="50.05363" lon="3.99636">
        <ele>178.596</ele>
        <time>2019-09-19T13:22:43.001Z</time>
      </trkpt>
      <trkpt lat="50.05359" lon="3.9965">
        <ele>177.938</ele>
        <time>2019-09-19T13:22:46.001Z</time>
      </trkpt>
      <trkpt lat="50.05356" lon="3.99666">
        <ele>177.769</ele>
        <time>2019-09-19T13:22:49.001Z</time>
      </trkpt>
      <trkpt lat="50.05352" lon="3.99684">
        <ele>177.39</ele>
        <time>2019-09-19T13:22:52.001Z</time>
      </trkpt>
      <trkpt lat="50.05347" lon="3.99704">
        <ele>177.068</ele>
        <time>2019-09-19T13:22:55.001Z</time>
      </trkpt>
      <trkpt lat="50.05342" lon="3.99729">
        <ele>176.918</ele>
        <time>2019-09-19T13:22:58.001Z</time>
      </trkpt>
      <trkpt lat="50.05336" lon="3.99757">
        <ele>176.694</ele>
        <time>2019-09-19T13:23:01.001Z</time>
      </trkpt>
      <trkpt lat="50.0533" lon="3.99787">
        <ele>176.13</ele>
        <time>2019-09-19T13:23:04.001Z</time>
      </trkpt>
      <trkpt lat="50.05322" lon="3.99823">
        <ele>175.335</ele>
        <time>2019-09-19T13:23:07.001Z</time>
      </trkpt>
      <trkpt lat="50.05315" lon="3.99864">
        <ele>174.39</ele>
        <time>2019-09-19T13:23:10.001Z</time>
      </trkpt>
      <trkpt lat="50.05309" lon="3.99907">
        <ele>172.539</ele>
        <time>2019-09-19T13:23:13.001Z</time>
      </trkpt>
      <trkpt lat="50.05305" lon="3.9995">
        <ele>170.71</ele>
        <time>2019-09-19T13:23:16.000Z</time>
      </trkpt>
      <trkpt lat="50.05302" lon="3.99991">
        <ele>170.321</ele>
        <time>2019-09-19T13:23:19.001Z</time>
      </trkpt>
      <trkpt lat="50.05298" lon="4.00028">
        <ele>170.187</ele>
        <time>2019-09-19T13:23:22.001Z</time>
      </trkpt>
      <trkpt lat="50.05288" lon="4.0006">
        <ele>169.511</ele>
        <time>2019-09-19T13:23:25.001Z</time>
      </trkpt>
      <trkpt lat="50.05279" lon="4.00087">
        <ele>168.882</ele>
        <time>2019-09-19T13:23:28.001Z</time>
      </trkpt>
      <trkpt lat="50.05272" lon="4.00112">
        <ele>168.375</ele>
        <time>2019-09-19T13:23:31.001Z</time>
      </trkpt>
      <trkpt lat="50.05264" lon="4.00136">
        <ele>167.136</ele>
        <time>2019-09-19T13:23:34.001Z</time>
      </trkpt>
      <trkpt lat="50.05257" lon="4.00159">
        <ele>166.971</ele>
        <time>2019-09-19T13:23:37.001Z</time>
      </trkpt>
      <trkpt lat="50.0525" lon="4.00181">
        <ele>166.8</ele>
        <time>2019-09-19T13:23:40.001Z</time>
      </trkpt>
      <trkpt lat="50.0524" lon="4.00202">
        <ele>166.263</ele>
        <time>2019-09-19T13:23:43.001Z</time>
      </trkpt>
      <trkpt lat="50.0523" lon="4.00223">
        <ele>166.159</ele>
        <time>2019-09-19T13:23:46.001Z</time>
      </trkpt>
      <trkpt lat="50.0522" lon="4.00242">
        <ele>165.514</ele>
        <time>2019-09-19T13:23:49.001Z</time>
      </trkpt>
      <trkpt lat="50.05211" lon="4.00261">
        <ele>164.856</ele>
        <time>2019-09-19T13:23:52.001Z</time>
      </trkpt>
      <trkpt lat="50.05202" lon="4.0028">
        <ele>164.548</ele>
        <time>2019-09-19T13:23:55.001Z</time>
      </trkpt>
      <trkpt lat="50.05193" lon="4.00297">
        <ele>164.654</ele>
        <time>2019-09-19T13:23:58.001Z</time>
      </trkpt>
      <trkpt lat="50.05185" lon="4.00314">
        <ele>164.502</ele>
        <time>2019-09-19T13:24:01.001Z</time>
      </trkpt>
      <trkpt lat="50.05177" lon="4.00331">
        <ele>164.379</ele>
        <time>2019-09-19T13:24:04.001Z</time>
      </trkpt>
      <trkpt lat="50.0517" lon="4.00345">
        <ele>164.487</ele>
        <time>2019-09-19T13:24:07.001Z</time>
      </trkpt>
      <trkpt lat="50.05162" lon="4.00362">
        <ele>163.783</ele>
        <time>2019-09-19T13:24:10.001Z</time>
      </trkpt>
      <trkpt lat="50.05154" lon="4.00378">
        <ele>163.162</ele>
        <time>2019-09-19T13:24:13.001Z</time>
      </trkpt>
      <trkpt lat="50.05144" lon="4.00392">
        <ele>161.917</ele>
        <time>2019-09-19T13:24:16.000Z</time>
      </trkpt>
      <trkpt lat="50.05134" lon="4.00407">
        <ele>162.238</ele>
        <time>2019-09-19T13:24:19.001Z</time>
      </trkpt>
      <trkpt lat="50.05124" lon="4.00422">
        <ele>162.487</ele>
        <time>2019-09-19T13:24:22.001Z</time>
      </trkpt>
      <trkpt lat="50.05113" lon="4.00436">
        <ele>162.025</ele>
        <time>2019-09-19T13:24:25.001Z</time>
      </trkpt>
      <trkpt lat="50.05101" lon="4.0045">
        <ele>161.443</ele>
        <time>2019-09-19T13:24:28.001Z</time>
      </trkpt>
      <trkpt lat="50.05089" lon="4.00466">
        <ele>161.133</ele>
        <time>2019-09-19T13:24:31.001Z</time>
      </trkpt>
      <trkpt lat="50.05077" lon="4.00481">
        <ele>160.485</ele>
        <time>2019-09-19T13:24:34.001Z</time>
      </trkpt>
      <trkpt lat="50.05065" lon="4.00495">
        <ele>160.658</ele>
        <time>2019-09-19T13:24:37.001Z</time>
      </trkpt>
      <trkpt lat="50.05054" lon="4.00509">
        <ele>160.864</ele>
        <time>2019-09-19T13:24:40.001Z</time>
      </trkpt>
      <trkpt lat="50.05044" lon="4.00526">
        <ele>161.064</ele>
        <time>2019-09-19T13:24:43.001Z</time>
      </trkpt>
      <trkpt lat="50.05035" lon="4.00547">
        <ele>161.302</ele>
        <time>2019-09-19T13:24:46.001Z</time>
      </trkpt>
      <trkpt lat="50.0503" lon="4.00568">
        <ele>161.397</ele>
        <time>2019-09-19T13:24:49.001Z</time>
      </trkpt>
      <trkpt lat="50.05028" lon="4.00591">
        <ele>161.303</ele>
        <time>2019-09-19T13:24:52.001Z</time>
      </trkpt>
      <trkpt lat="50.05025" lon="4.00613">
        <ele>161.198</ele>
        <time>2019-09-19T13:24:55.001Z</time>
      </trkpt>
      <trkpt lat="50.05022" lon="4.00633">
        <ele>160.802</ele>
        <time>2019-09-19T13:24:58.001Z</time>
      </trkpt>
      <trkpt lat="50.0502" lon="4.00654">
        <ele>160.846</ele>
        <time>2019-09-19T13:25:01.001Z</time>
      </trkpt>
      <trkpt lat="50.05018" lon="4.00673">
        <ele>161.073</ele>
        <time>2019-09-19T13:25:04.001Z</time>
      </trkpt>
      <trkpt lat="50.05015" lon="4.00691">
        <ele>161.148</ele>
        <time>2019-09-19T13:25:07.001Z</time>
      </trkpt>
      <trkpt lat="50.05013" lon="4.00707">
        <ele>161.649</ele>
        <time>2019-09-19T13:25:10.001Z</time>
      </trkpt>
      <trkpt lat="50.0501" lon="4.00723">
        <ele>162.078</ele>
        <time>2019-09-19T13:25:13.001Z</time>
      </trkpt>
      <trkpt lat="50.05007" lon="4.00739">
        <ele>162.448</ele>
        <time>2019-09-19T13:25:16.000Z</time>
      </trkpt>
      <trkpt lat="50.05004" lon="4.00757">
        <ele>162.631</ele>
        <time>2019-09-19T13:25:19.001Z</time>
      </trkpt>
      <trkpt lat="50.05001" lon="4.00775">
        <ele>162.889</ele>
        <time>2019-09-19T13:25:22.001Z</time>
      </trkpt>
      <trkpt lat="50.04998" lon="4.00794">
        <ele>163.082</ele>
        <time>2019-09-19T13:25:25.001Z</time>
      </trkpt>
      <trkpt lat="50.04996" lon="4.00812">
        <ele>163.487</ele>
        <time>2019-09-19T13:25:28.001Z</time>
      </trkpt>
      <trkpt lat="50.04993" lon="4.00829">
        <ele>163.576</ele>
        <time>2019-09-19T13:25:31.001Z</time>
      </trkpt>
      <trkpt lat="50.04989" lon="4.00846">
        <ele>163.98</ele>
        <time>2019-09-19T13:25:34.001Z</time>
      </trkpt>
      <trkpt lat="50.04984" lon="4.00862">
        <ele>164.092</ele>
        <time>2019-09-19T13:25:37.001Z</time>
      </trkpt>
      <trkpt lat="50.04979" lon="4.00879">
        <ele>164.303</ele>
        <time>2019-09-19T13:25:40.001Z</time>
      </trkpt>
      <trkpt lat="50.04975" lon="4.00894">
        <ele>164.756</ele>
        <time>2019-09-19T13:25:43.001Z</time>
      </trkpt>
      <trkpt lat="50.04971" lon="4.0091">
        <ele>165.557</ele>
        <time>2019-09-19T13:25:46.001Z</time>
      </trkpt>
      <trkpt lat="50.04968" lon="4.00926">
        <ele>166.083</ele>
        <time>2019-09-19T13:25:49.001Z</time>
      </trkpt>
      <trkpt lat="50.04967" lon="4.00942">
        <ele>166.439</ele>
        <time>2019-09-19T13:25:52.001Z</time>
      </trkpt>
      <trkpt lat="50.04968" lon="4.00958">
        <ele>166.531</ele>
        <time>2019-09-19T13:25:55.001Z</time>
      </trkpt>
      <trkpt lat="50.0497" lon="4.00975">
        <ele>166.333</ele>
        <time>2019-09-19T13:25:58.001Z</time>
      </trkpt>
      <trkpt lat="50.04973" lon="4.00991">
        <ele>166.44</ele>
        <time>2019-09-19T13:26:01.001Z</time>
      </trkpt>
      <trkpt lat="50.04977" lon="4.01007">
        <ele>166.296</ele>
        <time>2019-09-19T13:26:04.001Z</time>
      </trkpt>
      <trkpt lat="50.0498" lon="4.01023">
        <ele>166.533</ele>
        <time>2019-09-19T13:26:07.001Z</time>
      </trkpt>
      <trkpt lat="50.04984" lon="4.01038">
        <ele>167.117</ele>
        <time>2019-09-19T13:26:10.001Z</time>
      </trkpt>
      <trkpt lat="50.04986" lon="4.0105">
        <ele>167.725</ele>
        <time>2019-09-19T13:26:13.001Z</time>
      </trkpt>
      <trkpt lat="50.04989" lon="4.01064">
        <ele>168.245</ele>
        <time>2019-09-19T13:26:16.000Z</time>
      </trkpt>
      <trkpt lat="50.04992" lon="4.01077">
        <ele>168.856</ele>
        <time>2019-09-19T13:26:19.001Z</time>
      </trkpt>
      <trkpt lat="50.04994" lon="4.0109">
        <ele>169.305</ele>
        <time>2019-09-19T13:26:22.001Z</time>
      </trkpt>
      <trkpt lat="50.04995" lon="4.01105">
        <ele>169.355</ele>
        <time>2019-09-19T13:26:25.001Z</time>
      </trkpt>
      <trkpt lat="50.04996" lon="4.0112">
        <ele>169.597</ele>
        <time>2019-09-19T13:26:28.001Z</time>
      </trkpt>
      <trkpt lat="50.04997" lon="4.01136">
        <ele>169.979</ele>
        <time>2019-09-19T13:26:31.001Z</time>
      </trkpt>
      <trkpt lat="50.04996" lon="4.01154">
        <ele>170.531</ele>
        <time>2019-09-19T13:26:34.001Z</time>
      </trkpt>
      <trkpt lat="50.04996" lon="4.01175">
        <ele>170.833</ele>
        <time>2019-09-19T13:26:37.001Z</time>
      </trkpt>
      <trkpt lat="50.04995" lon="4.01198">
        <ele>170.767</ele>
        <time>2019-09-19T13:26:40.001Z</time>
      </trkpt>
      <trkpt lat="50.04994" lon="4.0122">
        <ele>170.251</ele>
        <time>2019-09-19T13:26:43.001Z</time>
      </trkpt>
      <trkpt lat="50.04993" lon="4.01243">
        <ele>169.733</ele>
        <time>2019-09-19T13:26:46.001Z</time>
      </trkpt>
      <trkpt lat="50.04993" lon="4.01265">
        <ele>168.772</ele>
        <time>2019-09-19T13:26:49.001Z</time>
      </trkpt>
      <trkpt lat="50.04992" lon="4.01287">
        <ele>167.807</ele>
        <time>2019-09-19T13:26:52.001Z</time>
      </trkpt>
      <trkpt lat="50.04991" lon="4.0131">
        <ele>167.015</ele>
        <time>2019-09-19T13:26:55.001Z</time>
      </trkpt>
      <trkpt lat="50.04988" lon="4.0133">
        <ele>166.54</ele>
        <time>2019-09-19T13:26:58.001Z</time>
      </trkpt>
      <trkpt lat="50.04985" lon="4.01349">
        <ele>166.123</ele>
        <time>2019-09-19T13:27:01.001Z</time>
      </trkpt>
      <trkpt lat="50.0498" lon="4.01369">
        <ele>166.175</ele>
        <time>2019-09-19T13:27:04.001Z</time>
      </trkpt>
      <trkpt lat="50.04976" lon="4.01388">
        <ele>166.231</ele>
        <time>2019-09-19T13:27:07.001Z</time>
      </trkpt>
      <trkpt lat="50.04973" lon="4.01407">
        <ele>166.062</ele>
        <time>2019-09-19T13:27:10.001Z</time>
      </trkpt>
      <trkpt lat="50.04969" lon="4.01425">
        <ele>165.978</ele>
        <time>2019-09-19T13:27:13.001Z</time>
      </trkpt>
      <trkpt lat="50.04966" lon="4.01442">
        <ele>165.73</ele>
        <time>2019-09-19T13:27:16.000Z</time>
      </trkpt>
      <trkpt lat="50.04962" lon="4.01459">
        <ele>166.038</ele>
        <time>2019-09-19T13:27:19.001Z</time>
      </trkpt>
      <trkpt lat="50.04959" lon="4.01476">
        <ele>166.323</ele>
        <time>2019-09-19T13:27:22.001Z</time>
      </trkpt>
      <trkpt lat="50.04956" lon="4.01492">
        <ele>166.671</ele>
        <time>2019-09-19T13:27:25.001Z</time>
      </trkpt>
      <trkpt lat="50.04953" lon="4.01508">
        <ele>166.984</ele>
        <time>2019-09-19T13:27:28.001Z</time>
      </trkpt>
      <trkpt lat="50.0495" lon="4.01523">
        <ele>167.182</ele>
        <time>2019-09-19T13:27:31.001Z</time>
      </trkpt>
      <trkpt lat="50.04947" lon="4.01539">
        <ele>167.319</ele>
        <time>2019-09-19T13:27:34.001Z</time>
      </trkpt>
      <trkpt lat="50.04944" lon="4.01555">
        <ele>167.816</ele>
        <time>2019-09-19T13:27:37.001Z</time>
      </trkpt>
      <trkpt lat="50.04942" lon="4.01572">
        <ele>167.922</ele>
        <time>2019-09-19T13:27:40.001Z</time>
      </trkpt>
      <trkpt lat="50.04939" lon="4.01588">
        <ele>168.419</ele>
        <time>2019-09-19T13:27:43.001Z</time>
      </trkpt>
      <trkpt lat="50.04936" lon="4.01604">
        <ele>169.276</ele>
        <time>2019-09-19T13:27:46.001Z</time>
      </trkpt>
      <trkpt lat="50.04933" lon="4.0162">
        <ele>169.482</ele>
        <time>2019-09-19T13:27:49.001Z</time>
      </trkpt>
      <trkpt lat="50.0493" lon="4.01636">
        <ele>169.719</ele>
        <time>2019-09-19T13:27:52.001Z</time>
      </trkpt>
      <trkpt lat="50.04927" lon="4.01651">
        <ele>169.843</ele>
        <time>2019-09-19T13:27:55.001Z</time>
      </trkpt>
      <trkpt lat="50.04923" lon="4.01666">
        <ele>170.024</ele>
        <time>2019-09-19T13:27:58.001Z</time>
      </trkpt>
      <trkpt lat="50.04918" lon="4.0168">
        <ele>170.475</ele>
        <time>2019-09-19T13:28:01.001Z</time>
      </trkpt>
      <trkpt lat="50.04912" lon="4.01695">
        <ele>170.385</ele>
        <time>2019-09-19T13:28:04.001Z</time>
      </trkpt>
      <trkpt lat="50.04906" lon="4.0171">
        <ele>170.072</ele>
        <time>2019-09-19T13:28:07.001Z</time>
      </trkpt>
      <trkpt lat="50.04899" lon="4.01724">
        <ele>169.964</ele>
        <time>2019-09-19T13:28:10.001Z</time>
      </trkpt>
      <trkpt lat="50.04892" lon="4.01738">
        <ele>169.687</ele>
        <time>2019-09-19T13:28:13.001Z</time>
      </trkpt>
      <trkpt lat="50.04885" lon="4.01749">
        <ele>169.628</ele>
        <time>2019-09-19T13:28:16.000Z</time>
      </trkpt>
      <trkpt lat="50.04877" lon="4.01762">
        <ele>169.762</ele>
        <time>2019-09-19T13:28:19.001Z</time>
      </trkpt>
      <trkpt lat="50.04869" lon="4.01773">
        <ele>169.915</ele>
        <time>2019-09-19T13:28:22.001Z</time>
      </trkpt>
      <trkpt lat="50.04861" lon="4.01784">
        <ele>170.035</ele>
        <time>2019-09-19T13:28:25.001Z</time>
      </trkpt>
      <trkpt lat="50.04854" lon="4.01794">
        <ele>169.915</ele>
        <time>2019-09-19T13:28:28.001Z</time>
      </trkpt>
      <trkpt lat="50.04846" lon="4.01804">
        <ele>170.464</ele>
        <time>2019-09-19T13:28:31.001Z</time>
      </trkpt>
      <trkpt lat="50.04839" lon="4.01813">
        <ele>170.508</ele>
        <time>2019-09-19T13:28:34.001Z</time>
      </trkpt>
      <trkpt lat="50.04832" lon="4.01821">
        <ele>170.859</ele>
        <time>2019-09-19T13:28:37.001Z</time>
      </trkpt>
      <trkpt lat="50.04825" lon="4.01832">
        <ele>171.124</ele>
        <time>2019-09-19T13:28:40.001Z</time>
      </trkpt>
      <trkpt lat="50.04817" lon="4.01844">
        <ele>171.54</ele>
        <time>2019-09-19T13:28:43.001Z</time>
      </trkpt>
      <trkpt lat="50.04808" lon="4.01856">
        <ele>171.193</ele>
        <time>2019-09-19T13:28:46.001Z</time>
      </trkpt>
      <trkpt lat="50.04795" lon="4.01872">
        <ele>171.178</ele>
        <time>2019-09-19T13:28:49.001Z</time>
      </trkpt>
      <trkpt lat="50.04782" lon="4.01889">
        <ele>170.909</ele>
        <time>2019-09-19T13:28:52.001Z</time>
      </trkpt>
      <trkpt lat="50.04769" lon="4.01906">
        <ele>170.866</ele>
        <time>2019-09-19T13:28:55.001Z</time>
      </trkpt>
      <trkpt lat="50.04757" lon="4.01924">
        <ele>170.704</ele>
        <time>2019-09-19T13:28:58.001Z</time>
      </trkpt>
      <trkpt lat="50.04744" lon="4.01943">
        <ele>170.359</ele>
        <time>2019-09-19T13:29:01.001Z</time>
      </trkpt>
      <trkpt lat="50.04731" lon="4.01962">
        <ele>169.785</ele>
        <time>2019-09-19T13:29:04.001Z</time>
      </trkpt>
      <trkpt lat="50.04718" lon="4.01982">
        <ele>169.235</ele>
        <time>2019-09-19T13:29:07.001Z</time>
      </trkpt>
      <trkpt lat="50.04704" lon="4.02002">
        <ele>168.783</ele>
        <time>2019-09-19T13:29:10.001Z</time>
      </trkpt>
      <trkpt lat="50.0469" lon="4.02021">
        <ele>168.024</ele>
        <time>2019-09-19T13:29:13.001Z</time>
      </trkpt>
      <trkpt lat="50.04677" lon="4.02039">
        <ele>167.977</ele>
        <time>2019-09-19T13:29:16.000Z</time>
      </trkpt>
      <trkpt lat="50.04667" lon="4.02056">
        <ele>167.855</ele>
        <time>2019-09-19T13:29:19.001Z</time>
      </trkpt>
      <trkpt lat="50.04658" lon="4.02071">
        <ele>167.306</ele>
        <time>2019-09-19T13:29:22.001Z</time>
      </trkpt>
      <trkpt lat="50.0465" lon="4.02085">
        <ele>167.896</ele>
        <time>2019-09-19T13:29:25.001Z</time>
      </trkpt>
      <trkpt lat="50.04642" lon="4.02099">
        <ele>168.477</ele>
        <time>2019-09-19T13:29:28.001Z</time>
      </trkpt>
      <trkpt lat="50.04636" lon="4.02111">
        <ele>169.454</ele>
        <time>2019-09-19T13:29:31.001Z</time>
      </trkpt>
      <trkpt lat="50.0463" lon="4.02121">
        <ele>171.425</ele>
        <time>2019-09-19T13:29:34.001Z</time>
      </trkpt>
      <trkpt lat="50.04625" lon="4.02132">
        <ele>172.516</ele>
        <time>2019-09-19T13:29:37.001Z</time>
      </trkpt>
      <trkpt lat="50.04619" lon="4.02142">
        <ele>173.914</ele>
        <time>2019-09-19T13:29:40.001Z</time>
      </trkpt>
      <trkpt lat="50.04614" lon="4.02151">
        <ele>174.568</ele>
        <time>2019-09-19T13:29:43.001Z</time>
      </trkpt>
      <trkpt lat="50.04608" lon="4.02161">
        <ele>174.713</ele>
        <time>2019-09-19T13:29:46.001Z</time>
      </trkpt>
      <trkpt lat="50.04602" lon="4.0217">
        <ele>175.247</ele>
        <time>2019-09-19T13:29:49.001Z</time>
      </trkpt>
      <trkpt lat="50.04598" lon="4.02181">
        <ele>176.398</ele>
        <time>2019-09-19T13:29:52.001Z</time>
      </trkpt>
      <trkpt lat="50.04593" lon="4.02191">
        <ele>177.502</ele>
        <time>2019-09-19T13:29:55.001Z</time>
      </trkpt>
      <trkpt lat="50.04588" lon="4.02202">
        <ele>178.575</ele>
        <time>2019-09-19T13:29:58.001Z</time>
      </trkpt>
      <trkpt lat="50.04584" lon="4.02213">
        <ele>179.4</ele>
        <time>2019-09-19T13:30:01.001Z</time>
      </trkpt>
      <trkpt lat="50.0458" lon="4.02221">
        <ele>180.724</ele>
        <time>2019-09-19T13:30:04.001Z</time>
      </trkpt>
      <trkpt lat="50.04576" lon="4.0223">
        <ele>182.876</ele>
        <time>2019-09-19T13:30:07.001Z</time>
      </trkpt>
      <trkpt lat="50.04571" lon="4.02241">
        <ele>184.606</ele>
        <time>2019-09-19T13:30:10.001Z</time>
      </trkpt>
      <trkpt lat="50.04567" lon="4.0225">
        <ele>185.265</ele>
        <time>2019-09-19T13:30:13.001Z</time>
      </trkpt>
      <trkpt lat="50.04563" lon="4.0226">
        <ele>185.507</ele>
        <time>2019-09-19T13:30:16.000Z</time>
      </trkpt>
      <trkpt lat="50.04557" lon="4.0227">
        <ele>185.961</ele>
        <time>2019-09-19T13:30:19.001Z</time>
      </trkpt>
      <trkpt lat="50.04552" lon="4.02279">
        <ele>186.421</ele>
        <time>2019-09-19T13:30:22.001Z</time>
      </trkpt>
      <trkpt lat="50.04548" lon="4.02288">
        <ele>187.466</ele>
        <time>2019-09-19T13:30:25.001Z</time>
      </trkpt>
      <trkpt lat="50.04544" lon="4.02299">
        <ele>188.277</ele>
        <time>2019-09-19T13:30:28.001Z</time>
      </trkpt>
      <trkpt lat="50.04538" lon="4.02312">
        <ele>189.328</ele>
        <time>2019-09-19T13:30:31.001Z</time>
      </trkpt>
      <trkpt lat="50.04533" lon="4.02328">
        <ele>190.655</ele>
        <time>2019-09-19T13:30:34.001Z</time>
      </trkpt>
      <trkpt lat="50.0453" lon="4.02342">
        <ele>192.509</ele>
        <time>2019-09-19T13:30:37.001Z</time>
      </trkpt>
      <trkpt lat="50.04525" lon="4.02358">
        <ele>193.494</ele>
        <time>2019-09-19T13:30:40.001Z</time>
      </trkpt>
      <trkpt lat="50.04522" lon="4.02375">
        <ele>194.008</ele>
        <time>2019-09-19T13:30:43.001Z</time>
      </trkpt>
      <trkpt lat="50.04521" lon="4.02394">
        <ele>194.1</ele>
        <time>2019-09-19T13:30:46.001Z</time>
      </trkpt>
      <trkpt lat="50.0452" lon="4.0241">
        <ele>193.538</ele>
        <time>2019-09-19T13:30:49.001Z</time>
      </trkpt>
      <trkpt lat="50.04526" lon="4.02422">
        <ele>192.301</ele>
        <time>2019-09-19T13:30:52.001Z</time>
      </trkpt>
      <trkpt lat="50.04536" lon="4.02431">
        <ele>190.279</ele>
        <time>2019-09-19T13:30:55.001Z</time>
      </trkpt>
      <trkpt lat="50.04537" lon="4.02448">
        <ele>189.275</ele>
        <time>2019-09-19T13:30:58.001Z</time>
      </trkpt>
      <trkpt lat="50.04527" lon="4.02456">
        <ele>188.191</ele>
        <time>2019-09-19T13:31:01.001Z</time>
      </trkpt>
      <trkpt lat="50.04513" lon="4.02463">
        <ele>187.548</ele>
        <time>2019-09-19T13:31:04.001Z</time>
      </trkpt>
      <trkpt lat="50.04501" lon="4.02475">
        <ele>187.484</ele>
        <time>2019-09-19T13:31:07.001Z</time>
      </trkpt>
      <trkpt lat="50.0449" lon="4.02489">
        <ele>186.14</ele>
        <time>2019-09-19T13:31:10.001Z</time>
      </trkpt>
      <trkpt lat="50.04479" lon="4.025">
        <ele>185.337</ele>
        <time>2019-09-19T13:31:13.001Z</time>
      </trkpt>
      <trkpt lat="50.04469" lon="4.0251">
        <ele>184.237</ele>
        <time>2019-09-19T13:31:16.000Z</time>
      </trkpt>
      <trkpt lat="50.04461" lon="4.0252">
        <ele>184.061</ele>
        <time>2019-09-19T13:31:19.001Z</time>
      </trkpt>
      <trkpt lat="50.04452" lon="4.02527">
        <ele>182.163</ele>
        <time>2019-09-19T13:31:22.001Z</time>
      </trkpt>
      <trkpt lat="50.04441" lon="4.02533">
        <ele>181.482</ele>
        <time>2019-09-19T13:31:25.002Z</time>
      </trkpt>
      <trkpt lat="50.04428" lon="4.02538">
        <ele>181.135</ele>
        <time>2019-09-19T13:31:28.001Z</time>
      </trkpt>
      <trkpt lat="50.04414" lon="4.02543">
        <ele>180.829</ele>
        <time>2019-09-19T13:31:31.001Z</time>
      </trkpt>
      <trkpt lat="50.04401" lon="4.02547">
        <ele>180.618</ele>
        <time>2019-09-19T13:31:34.001Z</time>
      </trkpt>
      <trkpt lat="50.04388" lon="4.02553">
        <ele>180.575</ele>
        <time>2019-09-19T13:31:37.001Z</time>
      </trkpt>
      <trkpt lat="50.04376" lon="4.02559">
        <ele>180.207</ele>
        <time>2019-09-19T13:31:40.001Z</time>
      </trkpt>
      <trkpt lat="50.04363" lon="4.02564">
        <ele>178.629</ele>
        <time>2019-09-19T13:31:43.001Z</time>
      </trkpt>
      <trkpt lat="50.04353" lon="4.0257">
        <ele>176.902</ele>
        <time>2019-09-19T13:31:46.001Z</time>
      </trkpt>
      <trkpt lat="50.0435" lon="4.02571">
        <ele>176.77</ele>
        <time>2019-09-19T13:31:49.001Z</time>
      </trkpt>
      <trkpt lat="50.0435" lon="4.02571">
        <ele>176.77</ele>
        <time>2019-09-19T13:31:52.001Z</time>
      </trkpt>
      <trkpt lat="50.0435" lon="4.02571">
        <ele>176.77</ele>
        <time>2019-09-19T13:33:43.001Z</time>
      </trkpt>
      <trkpt lat="50.04349" lon="4.02572">
        <ele>176.631</ele>
        <time>2019-09-19T13:33:46.001Z</time>
      </trkpt>
      <trkpt lat="50.04345" lon="4.02575">
        <ele>176.173</ele>
        <time>2019-09-19T13:33:49.001Z</time>
      </trkpt>
      <trkpt lat="50.04339" lon="4.0258">
        <ele>176.504</ele>
        <time>2019-09-19T13:33:52.001Z</time>
      </trkpt>
      <trkpt lat="50.04331" lon="4.02586">
        <ele>176.528</ele>
        <time>2019-09-19T13:33:55.001Z</time>
      </trkpt>
      <trkpt lat="50.04322" lon="4.02591">
        <ele>176.579</ele>
        <time>2019-09-19T13:33:58.001Z</time>
      </trkpt>
      <trkpt lat="50.04313" lon="4.02594">
        <ele>176.864</ele>
        <time>2019-09-19T13:34:01.001Z</time>
      </trkpt>
      <trkpt lat="50.04303" lon="4.02602">
        <ele>177.032</ele>
        <time>2019-09-19T13:34:04.001Z</time>
      </trkpt>
      <trkpt lat="50.04293" lon="4.0261">
        <ele>177.198</ele>
        <time>2019-09-19T13:34:07.001Z</time>
      </trkpt>
      <trkpt lat="50.04283" lon="4.02617">
        <ele>176.833</ele>
        <time>2019-09-19T13:34:10.001Z</time>
      </trkpt>
      <trkpt lat="50.04274" lon="4.02625">
        <ele>176.937</ele>
        <time>2019-09-19T13:34:13.001Z</time>
      </trkpt>
      <trkpt lat="50.04265" lon="4.02632">
        <ele>177.205</ele>
        <time>2019-09-19T13:34:16.000Z</time>
      </trkpt>
      <trkpt lat="50.04259" lon="4.02637">
        <ele>177.368</ele>
        <time>2019-09-19T13:34:19.001Z</time>
      </trkpt>
      <trkpt lat="50.04253" lon="4.02643">
        <ele>177.461</ele>
        <time>2019-09-19T13:34:22.001Z</time>
      </trkpt>
      <trkpt lat="50.04247" lon="4.02649">
        <ele>177.853</ele>
        <time>2019-09-19T13:34:25.001Z</time>
      </trkpt>
      <trkpt lat="50.04241" lon="4.02654">
        <ele>178.672</ele>
        <time>2019-09-19T13:34:28.001Z</time>
      </trkpt>
      <trkpt lat="50.04235" lon="4.0266">
        <ele>179.829</ele>
        <time>2019-09-19T13:34:31.001Z</time>
      </trkpt>
      <trkpt lat="50.04229" lon="4.02664">
        <ele>180.966</ele>
        <time>2019-09-19T13:34:34.001Z</time>
      </trkpt>
      <trkpt lat="50.04222" lon="4.02668">
        <ele>181.689</ele>
        <time>2019-09-19T13:34:37.001Z</time>
      </trkpt>
      <trkpt lat="50.04216" lon="4.02673">
        <ele>182.479</ele>
        <time>2019-09-19T13:34:40.001Z</time>
      </trkpt>
      <trkpt lat="50.0421" lon="4.02678">
        <ele>183.528</ele>
        <time>2019-09-19T13:34:43.001Z</time>
      </trkpt>
      <trkpt lat="50.04204" lon="4.02681">
        <ele>183.719</ele>
        <time>2019-09-19T13:34:46.001Z</time>
      </trkpt>
      <trkpt lat="50.04196" lon="4.02684">
        <ele>184.162</ele>
        <time>2019-09-19T13:34:49.001Z</time>
      </trkpt>
      <trkpt lat="50.04189" lon="4.02685">
        <ele>184.301</ele>
        <time>2019-09-19T13:34:52.001Z</time>
      </trkpt>
      <trkpt lat="50.04183" lon="4.02685">
        <ele>184.476</ele>
        <time>2019-09-19T13:34:55.001Z</time>
      </trkpt>
      <trkpt lat="50.04177" lon="4.02685">
        <ele>185.337</ele>
        <time>2019-09-19T13:34:58.001Z</time>
      </trkpt>
      <trkpt lat="50.04171" lon="4.02685">
        <ele>186.172</ele>
        <time>2019-09-19T13:35:01.001Z</time>
      </trkpt>
      <trkpt lat="50.04165" lon="4.02686">
        <ele>187.378</ele>
        <time>2019-09-19T13:35:04.001Z</time>
      </trkpt>
      <trkpt lat="50.04159" lon="4.02686">
        <ele>188.399</ele>
        <time>2019-09-19T13:35:07.001Z</time>
      </trkpt>
      <trkpt lat="50.04153" lon="4.02686">
        <ele>188.869</ele>
        <time>2019-09-19T13:35:10.001Z</time>
      </trkpt>
      <trkpt lat="50.04147" lon="4.02687">
        <ele>189.372</ele>
        <time>2019-09-19T13:35:13.001Z</time>
      </trkpt>
      <trkpt lat="50.04141" lon="4.02686">
        <ele>189.659</ele>
        <time>2019-09-19T13:35:16.000Z</time>
      </trkpt>
      <trkpt lat="50.04136" lon="4.02685">
        <ele>190.181</ele>
        <time>2019-09-19T13:35:19.001Z</time>
      </trkpt>
      <trkpt lat="50.04126" lon="4.02689">
        <ele>190.537</ele>
        <time>2019-09-19T13:35:25.001Z</time>
      </trkpt>
      <trkpt lat="50.04121" lon="4.02701">
        <ele>190.679</ele>
        <time>2019-09-19T13:35:28.001Z</time>
      </trkpt>
      <trkpt lat="50.04116" lon="4.02719">
        <ele>191.387</ele>
        <time>2019-09-19T13:35:31.001Z</time>
      </trkpt>
      <trkpt lat="50.0411" lon="4.02738">
        <ele>191.731</ele>
        <time>2019-09-19T13:35:34.001Z</time>
      </trkpt>
      <trkpt lat="50.04102" lon="4.02755">
        <ele>192.089</ele>
        <time>2019-09-19T13:35:37.001Z</time>
      </trkpt>
      <trkpt lat="50.04094" lon="4.02768">
        <ele>191.878</ele>
        <time>2019-09-19T13:35:40.001Z</time>
      </trkpt>
      <trkpt lat="50.04089" lon="4.02787">
        <ele>190.88</ele>
        <time>2019-09-19T13:35:43.001Z</time>
      </trkpt>
      <trkpt lat="50.04091" lon="4.02806">
        <ele>189.439</ele>
        <time>2019-09-19T13:35:46.001Z</time>
      </trkpt>
      <trkpt lat="50.04097" lon="4.02829">
        <ele>189.584</ele>
        <time>2019-09-19T13:35:49.001Z</time>
      </trkpt>
      <trkpt lat="50.04101" lon="4.02851">
        <ele>189.259</ele>
        <time>2019-09-19T13:35:52.001Z</time>
      </trkpt>
      <trkpt lat="50.04105" lon="4.02873">
        <ele>188.383</ele>
        <time>2019-09-19T13:35:55.001Z</time>
      </trkpt>
      <trkpt lat="50.04109" lon="4.02895">
        <ele>187.649</ele>
        <time>2019-09-19T13:35:58.001Z</time>
      </trkpt>
      <trkpt lat="50.04113" lon="4.02917">
        <ele>187.336</ele>
        <time>2019-09-19T13:36:01.001Z</time>
      </trkpt>
      <trkpt lat="50.04115" lon="4.02939">
        <ele>187.265</ele>
        <time>2019-09-19T13:36:04.001Z</time>
      </trkpt>
      <trkpt lat="50.04114" lon="4.02961">
        <ele>187.826</ele>
        <time>2019-09-19T13:36:07.001Z</time>
      </trkpt>
      <trkpt lat="50.04114" lon="4.02983">
        <ele>188.273</ele>
        <time>2019-09-19T13:36:10.001Z</time>
      </trkpt>
      <trkpt lat="50.04115" lon="4.03002">
        <ele>188.689</ele>
        <time>2019-09-19T13:36:13.001Z</time>
      </trkpt>
      <trkpt lat="50.04116" lon="4.03018">
        <ele>189.136</ele>
        <time>2019-09-19T13:36:16.000Z</time>
      </trkpt>
      <trkpt lat="50.04116" lon="4.03035">
        <ele>189.307</ele>
        <time>2019-09-19T13:36:19.001Z</time>
      </trkpt>
      <trkpt lat="50.04116" lon="4.03051">
        <ele>189.8</ele>
        <time>2019-09-19T13:36:22.001Z</time>
      </trkpt>
      <trkpt lat="50.04114" lon="4.0307">
        <ele>189.366</ele>
        <time>2019-09-19T13:36:25.001Z</time>
      </trkpt>
      <trkpt lat="50.04111" lon="4.0309">
        <ele>188.705</ele>
        <time>2019-09-19T13:36:28.001Z</time>
      </trkpt>
      <trkpt lat="50.04108" lon="4.0311">
        <ele>188.273</ele>
        <time>2019-09-19T13:36:31.001Z</time>
      </trkpt>
      <trkpt lat="50.04105" lon="4.0313">
        <ele>188.105</ele>
        <time>2019-09-19T13:36:34.001Z</time>
      </trkpt>
      <trkpt lat="50.041" lon="4.0315">
        <ele>188.309</ele>
        <time>2019-09-19T13:36:37.001Z</time>
      </trkpt>
      <trkpt lat="50.04094" lon="4.03172">
        <ele>188.887</ele>
        <time>2019-09-19T13:36:40.001Z</time>
      </trkpt>
      <trkpt lat="50.04087" lon="4.03193">
        <ele>188.026</ele>
        <time>2019-09-19T13:36:43.001Z</time>
      </trkpt>
      <trkpt lat="50.04082" lon="4.03216">
        <ele>187.47</ele>
        <time>2019-09-19T13:36:46.001Z</time>
      </trkpt>
      <trkpt lat="50.04083" lon="4.03238">
        <ele>187.584</ele>
        <time>2019-09-19T13:36:49.001Z</time>
      </trkpt>
      <trkpt lat="50.04084" lon="4.03261">
        <ele>187.255</ele>
        <time>2019-09-19T13:36:52.001Z</time>
      </trkpt>
      <trkpt lat="50.04086" lon="4.03281">
        <ele>187.291</ele>
        <time>2019-09-19T13:36:55.001Z</time>
      </trkpt>
      <trkpt lat="50.04088" lon="4.03298">
        <ele>187.482</ele>
        <time>2019-09-19T13:36:58.001Z</time>
      </trkpt>
      <trkpt lat="50.04091" lon="4.03313">
        <ele>188.049</ele>
        <time>2019-09-19T13:37:01.001Z</time>
      </trkpt>
      <trkpt lat="50.04093" lon="4.03328">
        <ele>188.557</ele>
        <time>2019-09-19T13:37:04.001Z</time>
      </trkpt>
      <trkpt lat="50.04095" lon="4.03341">
        <ele>189.094</ele>
        <time>2019-09-19T13:37:07.001Z</time>
      </trkpt>
      <trkpt lat="50.04096" lon="4.03356">
        <ele>190.049</ele>
        <time>2019-09-19T13:37:10.001Z</time>
      </trkpt>
      <trkpt lat="50.04096" lon="4.0337">
        <ele>191.075</ele>
        <time>2019-09-19T13:37:13.001Z</time>
      </trkpt>
      <trkpt lat="50.04096" lon="4.03386">
        <ele>192.08</ele>
        <time>2019-09-19T13:37:16.000Z</time>
      </trkpt>
      <trkpt lat="50.04097" lon="4.03402">
        <ele>192.744</ele>
        <time>2019-09-19T13:37:19.001Z</time>
      </trkpt>
      <trkpt lat="50.04096" lon="4.03416">
        <ele>193.086</ele>
        <time>2019-09-19T13:37:22.001Z</time>
      </trkpt>
      <trkpt lat="50.04093" lon="4.03431">
        <ele>192.61</ele>
        <time>2019-09-19T13:37:25.001Z</time>
      </trkpt>
      <trkpt lat="50.0409" lon="4.03445">
        <ele>192.182</ele>
        <time>2019-09-19T13:37:28.001Z</time>
      </trkpt>
      <trkpt lat="50.04088" lon="4.03458">
        <ele>192.776</ele>
        <time>2019-09-19T13:37:31.001Z</time>
      </trkpt>
      <trkpt lat="50.04085" lon="4.0347">
        <ele>193.129</ele>
        <time>2019-09-19T13:37:34.001Z</time>
      </trkpt>
      <trkpt lat="50.04083" lon="4.03484">
        <ele>193.456</ele>
        <time>2019-09-19T13:37:37.001Z</time>
      </trkpt>
      <trkpt lat="50.04081" lon="4.03496">
        <ele>193.763</ele>
        <time>2019-09-19T13:37:40.001Z</time>
      </trkpt>
      <trkpt lat="50.04079" lon="4.03509">
        <ele>193.723</ele>
        <time>2019-09-19T13:37:43.001Z</time>
      </trkpt>
      <trkpt lat="50.04076" lon="4.03522">
        <ele>193.437</ele>
        <time>2019-09-19T13:37:46.001Z</time>
      </trkpt>
      <trkpt lat="50.04073" lon="4.03535">
        <ele>192.937</ele>
        <time>2019-09-19T13:37:49.001Z</time>
      </trkpt>
      <trkpt lat="50.04071" lon="4.03548">
        <ele>192.559</ele>
        <time>2019-09-19T13:37:52.001Z</time>
      </trkpt>
      <trkpt lat="50.04068" lon="4.03563">
        <ele>192.501</ele>
        <time>2019-09-19T13:37:55.001Z</time>
      </trkpt>
      <trkpt lat="50.04064" lon="4.03581">
        <ele>192.554</ele>
        <time>2019-09-19T13:37:58.001Z</time>
      </trkpt>
      <trkpt lat="50.04061" lon="4.03598">
        <ele>192.116</ele>
        <time>2019-09-19T13:38:01.001Z</time>
      </trkpt>
      <trkpt lat="50.04057" lon="4.03615">
        <ele>192.176</ele>
        <time>2019-09-19T13:38:04.001Z</time>
      </trkpt>
      <trkpt lat="50.04053" lon="4.03634">
        <ele>191.856</ele>
        <time>2019-09-19T13:38:07.001Z</time>
      </trkpt>
      <trkpt lat="50.0405" lon="4.03654">
        <ele>191.48</ele>
        <time>2019-09-19T13:38:10.001Z</time>
      </trkpt>
      <trkpt lat="50.04046" lon="4.03674">
        <ele>191.224</ele>
        <time>2019-09-19T13:38:13.001Z</time>
      </trkpt>
      <trkpt lat="50.04043" lon="4.03694">
        <ele>191.111</ele>
        <time>2019-09-19T13:38:16.000Z</time>
      </trkpt>
      <trkpt lat="50.04041" lon="4.03713">
        <ele>191.453</ele>
        <time>2019-09-19T13:38:19.001Z</time>
      </trkpt>
      <trkpt lat="50.04039" lon="4.03731">
        <ele>191.758</ele>
        <time>2019-09-19T13:38:22.001Z</time>
      </trkpt>
      <trkpt lat="50.04037" lon="4.03749">
        <ele>191.57</ele>
        <time>2019-09-19T13:38:25.001Z</time>
      </trkpt>
      <trkpt lat="50.04034" lon="4.03767">
        <ele>191.788</ele>
        <time>2019-09-19T13:38:28.001Z</time>
      </trkpt>
      <trkpt lat="50.04033" lon="4.03784">
        <ele>191.947</ele>
        <time>2019-09-19T13:38:31.001Z</time>
      </trkpt>
      <trkpt lat="50.04032" lon="4.03799">
        <ele>191.94</ele>
        <time>2019-09-19T13:38:34.001Z</time>
      </trkpt>
      <trkpt lat="50.0403" lon="4.03812">
        <ele>192.275</ele>
        <time>2019-09-19T13:38:37.001Z</time>
      </trkpt>
      <trkpt lat="50.04029" lon="4.03825">
        <ele>192.659</ele>
        <time>2019-09-19T13:38:40.001Z</time>
      </trkpt>
      <trkpt lat="50.04027" lon="4.03837">
        <ele>193.297</ele>
        <time>2019-09-19T13:38:43.001Z</time>
      </trkpt>
      <trkpt lat="50.04026" lon="4.03851">
        <ele>193.907</ele>
        <time>2019-09-19T13:38:46.001Z</time>
      </trkpt>
      <trkpt lat="50.04024" lon="4.03863">
        <ele>194.61</ele>
        <time>2019-09-19T13:38:49.001Z</time>
      </trkpt>
      <trkpt lat="50.04023" lon="4.03876">
        <ele>194.947</ele>
        <time>2019-09-19T13:38:52.001Z</time>
      </trkpt>
      <trkpt lat="50.04023" lon="4.03889">
        <ele>195.315</ele>
        <time>2019-09-19T13:38:55.001Z</time>
      </trkpt>
      <trkpt lat="50.04021" lon="4.03901">
        <ele>195.934</ele>
        <time>2019-09-19T13:38:58.001Z</time>
      </trkpt>
      <trkpt lat="50.04021" lon="4.03912">
        <ele>196.941</ele>
        <time>2019-09-19T13:39:01.001Z</time>
      </trkpt>
      <trkpt lat="50.04022" lon="4.03924">
        <ele>197.687</ele>
        <time>2019-09-19T13:39:04.001Z</time>
      </trkpt>
      <trkpt lat="50.04022" lon="4.03937">
        <ele>199.18</ele>
        <time>2019-09-19T13:39:07.001Z</time>
      </trkpt>
      <trkpt lat="50.04023" lon="4.03952">
        <ele>200.702</ele>
        <time>2019-09-19T13:39:10.001Z</time>
      </trkpt>
      <trkpt lat="50.04024" lon="4.03969">
        <ele>201.908</ele>
        <time>2019-09-19T13:39:13.001Z</time>
      </trkpt>
      <trkpt lat="50.04027" lon="4.03986">
        <ele>202.49</ele>
        <time>2019-09-19T13:39:16.000Z</time>
      </trkpt>
      <trkpt lat="50.0403" lon="4.04005">
        <ele>203.258</ele>
        <time>2019-09-19T13:39:19.001Z</time>
      </trkpt>
      <trkpt lat="50.04035" lon="4.04026">
        <ele>203.655</ele>
        <time>2019-09-19T13:39:22.001Z</time>
      </trkpt>
      <trkpt lat="50.04038" lon="4.04046">
        <ele>204.502</ele>
        <time>2019-09-19T13:39:25.001Z</time>
      </trkpt>
      <trkpt lat="50.04043" lon="4.04068">
        <ele>204.418</ele>
        <time>2019-09-19T13:39:28.001Z</time>
      </trkpt>
      <trkpt lat="50.04047" lon="4.04096">
        <ele>203.854</ele>
        <time>2019-09-19T13:39:31.001Z</time>
      </trkpt>
      <trkpt lat="50.0405" lon="4.04123">
        <ele>203.226</ele>
        <time>2019-09-19T13:39:34.001Z</time>
      </trkpt>
      <trkpt lat="50.04056" lon="4.04151">
        <ele>203.72</ele>
        <time>2019-09-19T13:39:37.001Z</time>
      </trkpt>
      <trkpt lat="50.04059" lon="4.04177">
        <ele>204.129</ele>
        <time>2019-09-19T13:39:40.001Z</time>
      </trkpt>
      <trkpt lat="50.04063" lon="4.04202">
        <ele>204.818</ele>
        <time>2019-09-19T13:39:43.001Z</time>
      </trkpt>
      <trkpt lat="50.04068" lon="4.04231">
        <ele>204.451</ele>
        <time>2019-09-19T13:39:46.001Z</time>
      </trkpt>
      <trkpt lat="50.04074" lon="4.04266">
        <ele>203.432</ele>
        <time>2019-09-19T13:39:49.001Z</time>
      </trkpt>
      <trkpt lat="50.04081" lon="4.04301">
        <ele>203.293</ele>
        <time>2019-09-19T13:39:52.001Z</time>
      </trkpt>
      <trkpt lat="50.04087" lon="4.04334">
        <ele>204.372</ele>
        <time>2019-09-19T13:39:55.001Z</time>
      </trkpt>
      <trkpt lat="50.04093" lon="4.04367">
        <ele>204.497</ele>
        <time>2019-09-19T13:39:58.001Z</time>
      </trkpt>
      <trkpt lat="50.04097" lon="4.04402">
        <ele>202.686</ele>
        <time>2019-09-19T13:40:01.001Z</time>
      </trkpt>
      <trkpt lat="50.04092" lon="4.04439">
        <ele>201.017</ele>
        <time>2019-09-19T13:40:04.001Z</time>
      </trkpt>
      <trkpt lat="50.04081" lon="4.0447">
        <ele>201.427</ele>
        <time>2019-09-19T13:40:07.001Z</time>
      </trkpt>
      <trkpt lat="50.04069" lon="4.04496">
        <ele>200.826</ele>
        <time>2019-09-19T13:40:10.001Z</time>
      </trkpt>
      <trkpt lat="50.04061" lon="4.04522">
        <ele>200.631</ele>
        <time>2019-09-19T13:40:13.001Z</time>
      </trkpt>
      <trkpt lat="50.04059" lon="4.04551">
        <ele>198.999</ele>
        <time>2019-09-19T13:40:16.000Z</time>
      </trkpt>
      <trkpt lat="50.04063" lon="4.04574">
        <ele>198.683</ele>
        <time>2019-09-19T13:40:19.001Z</time>
      </trkpt>
      <trkpt lat="50.04068" lon="4.04589">
        <ele>199.705</ele>
        <time>2019-09-19T13:40:22.001Z</time>
      </trkpt>
      <trkpt lat="50.04072" lon="4.04604">
        <ele>200.844</ele>
        <time>2019-09-19T13:40:25.001Z</time>
      </trkpt>
      <trkpt lat="50.04075" lon="4.04618">
        <ele>201.675</ele>
        <time>2019-09-19T13:40:28.001Z</time>
      </trkpt>
      <trkpt lat="50.04077" lon="4.04632">
        <ele>201.677</ele>
        <time>2019-09-19T13:40:31.001Z</time>
      </trkpt>
      <trkpt lat="50.0408" lon="4.04644">
        <ele>202.123</ele>
        <time>2019-09-19T13:40:34.001Z</time>
      </trkpt>
      <trkpt lat="50.04086" lon="4.04662">
        <ele>200.651</ele>
        <time>2019-09-19T13:40:37.001Z</time>
      </trkpt>
      <trkpt lat="50.04085" lon="4.04685">
        <ele>199.555</ele>
        <time>2019-09-19T13:40:40.001Z</time>
      </trkpt>
      <trkpt lat="50.04076" lon="4.04701">
        <ele>198.388</ele>
        <time>2019-09-19T13:40:43.001Z</time>
      </trkpt>
      <trkpt lat="50.04065" lon="4.04706">
        <ele>197.572</ele>
        <time>2019-09-19T13:40:46.001Z</time>
      </trkpt>
      <trkpt lat="50.04058" lon="4.0471">
        <ele>196.849</ele>
        <time>2019-09-19T13:40:49.001Z</time>
      </trkpt>
      <trkpt lat="50.04051" lon="4.04714">
        <ele>196.198</ele>
        <time>2019-09-19T13:40:52.001Z</time>
      </trkpt>
      <trkpt lat="50.04045" lon="4.04717">
        <ele>195.448</ele>
        <time>2019-09-19T13:40:55.001Z</time>
      </trkpt>
      <trkpt lat="50.04037" lon="4.04721">
        <ele>195.589</ele>
        <time>2019-09-19T13:40:58.001Z</time>
      </trkpt>
      <trkpt lat="50.04031" lon="4.04726">
        <ele>196.084</ele>
        <time>2019-09-19T13:41:01.001Z</time>
      </trkpt>
      <trkpt lat="50.04024" lon="4.0473">
        <ele>196.358</ele>
        <time>2019-09-19T13:41:04.001Z</time>
      </trkpt>
      <trkpt lat="50.04017" lon="4.04736">
        <ele>196.389</ele>
        <time>2019-09-19T13:41:07.001Z</time>
      </trkpt>
      <trkpt lat="50.0401" lon="4.04745">
        <ele>196.867</ele>
        <time>2019-09-19T13:41:10.001Z</time>
      </trkpt>
      <trkpt lat="50.04006" lon="4.04756">
        <ele>197.524</ele>
        <time>2019-09-19T13:41:13.001Z</time>
      </trkpt>
      <trkpt lat="50.04002" lon="4.04769">
        <ele>198.338</ele>
        <time>2019-09-19T13:41:16.000Z</time>
      </trkpt>
      <trkpt lat="50.03998" lon="4.04784">
        <ele>199.991</ele>
        <time>2019-09-19T13:41:19.001Z</time>
      </trkpt>
      <trkpt lat="50.03995" lon="4.04798">
        <ele>201.495</ele>
        <time>2019-09-19T13:41:22.001Z</time>
      </trkpt>
      <trkpt lat="50.03993" lon="4.04808">
        <ele>202.301</ele>
        <time>2019-09-19T13:41:25.001Z</time>
      </trkpt>
      <trkpt lat="50.03991" lon="4.04817">
        <ele>203.862</ele>
        <time>2019-09-19T13:41:28.001Z</time>
      </trkpt>
      <trkpt lat="50.0399" lon="4.04827">
        <ele>205.194</ele>
        <time>2019-09-19T13:41:31.001Z</time>
      </trkpt>
      <trkpt lat="50.03989" lon="4.04838">
        <ele>206.865</ele>
        <time>2019-09-19T13:41:34.001Z</time>
      </trkpt>
      <trkpt lat="50.03988" lon="4.04849">
        <ele>208.311</ele>
        <time>2019-09-19T13:41:37.001Z</time>
      </trkpt>
      <trkpt lat="50.03986" lon="4.04862">
        <ele>209.461</ele>
        <time>2019-09-19T13:41:40.001Z</time>
      </trkpt>
      <trkpt lat="50.03983" lon="4.04875">
        <ele>210.761</ele>
        <time>2019-09-19T13:41:43.001Z</time>
      </trkpt>
      <trkpt lat="50.0398" lon="4.04888">
        <ele>212.325</ele>
        <time>2019-09-19T13:41:46.001Z</time>
      </trkpt>
      <trkpt lat="50.03978" lon="4.04902">
        <ele>213.423</ele>
        <time>2019-09-19T13:41:49.001Z</time>
      </trkpt>
      <trkpt lat="50.03976" lon="4.04916">
        <ele>214.583</ele>
        <time>2019-09-19T13:41:52.001Z</time>
      </trkpt>
      <trkpt lat="50.03973" lon="4.04929">
        <ele>214.888</ele>
        <time>2019-09-19T13:41:55.001Z</time>
      </trkpt>
      <trkpt lat="50.03969" lon="4.04942">
        <ele>216.344</ele>
        <time>2019-09-19T13:41:58.001Z</time>
      </trkpt>
      <trkpt lat="50.03967" lon="4.04955">
        <ele>218.456</ele>
        <time>2019-09-19T13:42:01.001Z</time>
      </trkpt>
      <trkpt lat="50.03964" lon="4.04968">
        <ele>220.182</ele>
        <time>2019-09-19T13:42:04.001Z</time>
      </trkpt>
      <trkpt lat="50.03962" lon="4.04981">
        <ele>220.384</ele>
        <time>2019-09-19T13:42:07.001Z</time>
      </trkpt>
      <trkpt lat="50.0396" lon="4.04994">
        <ele>220.426</ele>
        <time>2019-09-19T13:42:10.001Z</time>
      </trkpt>
      <trkpt lat="50.03956" lon="4.05006">
        <ele>220.792</ele>
        <time>2019-09-19T13:42:13.001Z</time>
      </trkpt>
      <trkpt lat="50.03953" lon="4.05019">
        <ele>221.967</ele>
        <time>2019-09-19T13:42:16.000Z</time>
      </trkpt>
      <trkpt lat="50.03951" lon="4.05032">
        <ele>222.613</ele>
        <time>2019-09-19T13:42:19.001Z</time>
      </trkpt>
      <trkpt lat="50.03948" lon="4.05045">
        <ele>223.446</ele>
        <time>2019-09-19T13:42:22.001Z</time>
      </trkpt>
      <trkpt lat="50.03945" lon="4.05058">
        <ele>224.045</ele>
        <time>2019-09-19T13:42:25.001Z</time>
      </trkpt>
      <trkpt lat="50.03944" lon="4.0507">
        <ele>224.934</ele>
        <time>2019-09-19T13:42:28.001Z</time>
      </trkpt>
      <trkpt lat="50.03943" lon="4.05084">
        <ele>225.796</ele>
        <time>2019-09-19T13:42:31.001Z</time>
      </trkpt>
      <trkpt lat="50.03941" lon="4.05103">
        <ele>225.895</ele>
        <time>2019-09-19T13:42:34.001Z</time>
      </trkpt>
      <trkpt lat="50.03939" lon="4.05121">
        <ele>224.686</ele>
        <time>2019-09-19T13:42:37.001Z</time>
      </trkpt>
      <trkpt lat="50.03936" lon="4.05137">
        <ele>223.597</ele>
        <time>2019-09-19T13:42:40.001Z</time>
      </trkpt>
      <trkpt lat="50.03933" lon="4.05153">
        <ele>221.436</ele>
        <time>2019-09-19T13:42:43.001Z</time>
      </trkpt>
      <trkpt lat="50.0393" lon="4.05168">
        <ele>218.845</ele>
        <time>2019-09-19T13:42:46.001Z</time>
      </trkpt>
      <trkpt lat="50.03926" lon="4.0518">
        <ele>217.055</ele>
        <time>2019-09-19T13:42:49.001Z</time>
      </trkpt>
      <trkpt lat="50.03922" lon="4.05192">
        <ele>215.052</ele>
        <time>2019-09-19T13:42:52.001Z</time>
      </trkpt>
      <trkpt lat="50.03918" lon="4.05204">
        <ele>213.727</ele>
        <time>2019-09-19T13:42:55.001Z</time>
      </trkpt>
      <trkpt lat="50.03914" lon="4.05214">
        <ele>212.803</ele>
        <time>2019-09-19T13:42:58.001Z</time>
      </trkpt>
      <trkpt lat="50.03909" lon="4.05223">
        <ele>211.958</ele>
        <time>2019-09-19T13:43:01.001Z</time>
      </trkpt>
      <trkpt lat="50.03905" lon="4.05232">
        <ele>210.84</ele>
        <time>2019-09-19T13:43:04.001Z</time>
      </trkpt>
      <trkpt lat="50.03901" lon="4.05243">
        <ele>209.766</ele>
        <time>2019-09-19T13:43:07.001Z</time>
      </trkpt>
      <trkpt lat="50.03897" lon="4.05251">
        <ele>209.147</ele>
        <time>2019-09-19T13:43:10.001Z</time>
      </trkpt>
      <trkpt lat="50.03892" lon="4.0526">
        <ele>208.623</ele>
        <time>2019-09-19T13:43:13.001Z</time>
      </trkpt>
      <trkpt lat="50.03888" lon="4.05269">
        <ele>208.338</ele>
        <time>2019-09-19T13:43:16.000Z</time>
      </trkpt>
      <trkpt lat="50.03884" lon="4.05277">
        <ele>208.774</ele>
        <time>2019-09-19T13:43:19.001Z</time>
      </trkpt>
      <trkpt lat="50.03879" lon="4.05285">
        <ele>209.347</ele>
        <time>2019-09-19T13:43:22.001Z</time>
      </trkpt>
      <trkpt lat="50.03874" lon="4.05293">
        <ele>209.11</ele>
        <time>2019-09-19T13:43:25.001Z</time>
      </trkpt>
      <trkpt lat="50.03869" lon="4.053">
        <ele>209.231</ele>
        <time>2019-09-19T13:43:28.001Z</time>
      </trkpt>
      <trkpt lat="50.03864" lon="4.05307">
        <ele>210.068</ele>
        <time>2019-09-19T13:43:31.001Z</time>
      </trkpt>
      <trkpt lat="50.03859" lon="4.05315">
        <ele>210.887</ele>
        <time>2019-09-19T13:43:34.001Z</time>
      </trkpt>
      <trkpt lat="50.03853" lon="4.05321">
        <ele>211.129</ele>
        <time>2019-09-19T13:43:37.001Z</time>
      </trkpt>
      <trkpt lat="50.03848" lon="4.05328">
        <ele>212.322</ele>
        <time>2019-09-19T13:43:40.001Z</time>
      </trkpt>
      <trkpt lat="50.03843" lon="4.05334">
        <ele>212.828</ele>
        <time>2019-09-19T13:43:43.001Z</time>
      </trkpt>
      <trkpt lat="50.03838" lon="4.05341">
        <ele>213.684</ele>
        <time>2019-09-19T13:43:46.001Z</time>
      </trkpt>
      <trkpt lat="50.03832" lon="4.05348">
        <ele>213.981</ele>
        <time>2019-09-19T13:43:49.001Z</time>
      </trkpt>
      <trkpt lat="50.03827" lon="4.05353">
        <ele>213.882</ele>
        <time>2019-09-19T13:43:52.001Z</time>
      </trkpt>
      <trkpt lat="50.03821" lon="4.05359">
        <ele>214.248</ele>
        <time>2019-09-19T13:43:55.001Z</time>
      </trkpt>
      <trkpt lat="50.03815" lon="4.05365">
        <ele>214.594</ele>
        <time>2019-09-19T13:43:58.001Z</time>
      </trkpt>
      <trkpt lat="50.0381" lon="4.0537">
        <ele>215.005</ele>
        <time>2019-09-19T13:44:01.001Z</time>
      </trkpt>
      <trkpt lat="50.03804" lon="4.05376">
        <ele>215.559</ele>
        <time>2019-09-19T13:44:04.001Z</time>
      </trkpt>
      <trkpt lat="50.03799" lon="4.0538">
        <ele>216.353</ele>
        <time>2019-09-19T13:44:07.001Z</time>
      </trkpt>
      <trkpt lat="50.03793" lon="4.05385">
        <ele>217.218</ele>
        <time>2019-09-19T13:44:10.001Z</time>
      </trkpt>
      <trkpt lat="50.03787" lon="4.05391">
        <ele>217.376</ele>
        <time>2019-09-19T13:44:13.001Z</time>
      </trkpt>
      <trkpt lat="50.0378" lon="4.05397">
        <ele>217.374</ele>
        <time>2019-09-19T13:44:16.000Z</time>
      </trkpt>
      <trkpt lat="50.03775" lon="4.05403">
        <ele>217.412</ele>
        <time>2019-09-19T13:44:19.001Z</time>
      </trkpt>
      <trkpt lat="50.03769" lon="4.0541">
        <ele>218.632</ele>
        <time>2019-09-19T13:44:22.001Z</time>
      </trkpt>
      <trkpt lat="50.03763" lon="4.05416">
        <ele>218.598</ele>
        <time>2019-09-19T13:44:25.001Z</time>
      </trkpt>
      <trkpt lat="50.03758" lon="4.05422">
        <ele>219.376</ele>
        <time>2019-09-19T13:44:28.001Z</time>
      </trkpt>
      <trkpt lat="50.03753" lon="4.05431">
        <ele>220.082</ele>
        <time>2019-09-19T13:44:31.001Z</time>
      </trkpt>
      <trkpt lat="50.0375" lon="4.0544">
        <ele>220.201</ele>
        <time>2019-09-19T13:44:34.001Z</time>
      </trkpt>
      <trkpt lat="50.03746" lon="4.0545">
        <ele>220.472</ele>
        <time>2019-09-19T13:44:37.001Z</time>
      </trkpt>
      <trkpt lat="50.03743" lon="4.0546">
        <ele>220.653</ele>
        <time>2019-09-19T13:44:40.001Z</time>
      </trkpt>
      <trkpt lat="50.03739" lon="4.05471">
        <ele>220.544</ele>
        <time>2019-09-19T13:44:43.001Z</time>
      </trkpt>
      <trkpt lat="50.03737" lon="4.05482">
        <ele>221.529</ele>
        <time>2019-09-19T13:44:46.001Z</time>
      </trkpt>
      <trkpt lat="50.03735" lon="4.05491">
        <ele>220.525</ele>
        <time>2019-09-19T13:44:49.001Z</time>
      </trkpt>
      <trkpt lat="50.03734" lon="4.05502">
        <ele>220.765</ele>
        <time>2019-09-19T13:44:52.001Z</time>
      </trkpt>
      <trkpt lat="50.03732" lon="4.05514">
        <ele>220.4</ele>
        <time>2019-09-19T13:44:55.001Z</time>
      </trkpt>
      <trkpt lat="50.0373" lon="4.05528">
        <ele>220.543</ele>
        <time>2019-09-19T13:44:58.001Z</time>
      </trkpt>
      <trkpt lat="50.03728" lon="4.05544">
        <ele>221.137</ele>
        <time>2019-09-19T13:45:01.001Z</time>
      </trkpt>
      <trkpt lat="50.03727" lon="4.05559">
        <ele>221.313</ele>
        <time>2019-09-19T13:45:04.001Z</time>
      </trkpt>
      <trkpt lat="50.03726" lon="4.05573">
        <ele>221.046</ele>
        <time>2019-09-19T13:45:07.001Z</time>
      </trkpt>
      <trkpt lat="50.03726" lon="4.05587">
        <ele>220.651</ele>
        <time>2019-09-19T13:45:10.001Z</time>
      </trkpt>
      <trkpt lat="50.03725" lon="4.05602">
        <ele>220.298</ele>
        <time>2019-09-19T13:45:13.001Z</time>
      </trkpt>
      <trkpt lat="50.03726" lon="4.05617">
        <ele>219.816</ele>
        <time>2019-09-19T13:45:16.000Z</time>
      </trkpt>
      <trkpt lat="50.03739" lon="4.05632">
        <ele>219.305</ele>
        <time>2019-09-19T13:45:19.001Z</time>
      </trkpt>
      <trkpt lat="50.03755" lon="4.05643">
        <ele>218.1</ele>
        <time>2019-09-19T13:45:22.001Z</time>
      </trkpt>
      <trkpt lat="50.03772" lon="4.05656">
        <ele>217.241</ele>
        <time>2019-09-19T13:45:25.001Z</time>
      </trkpt>
      <trkpt lat="50.0379" lon="4.05672">
        <ele>216.37</ele>
        <time>2019-09-19T13:45:28.001Z</time>
      </trkpt>
      <trkpt lat="50.03808" lon="4.05691">
        <ele>215.122</ele>
        <time>2019-09-19T13:45:31.001Z</time>
      </trkpt>
      <trkpt lat="50.03826" lon="4.05708">
        <ele>214.397</ele>
        <time>2019-09-19T13:45:34.001Z</time>
      </trkpt>
      <trkpt lat="50.03843" lon="4.05725">
        <ele>213.279</ele>
        <time>2019-09-19T13:45:37.001Z</time>
      </trkpt>
      <trkpt lat="50.03857" lon="4.05747">
        <ele>212.376</ele>
        <time>2019-09-19T13:45:40.001Z</time>
      </trkpt>
      <trkpt lat="50.03859" lon="4.05776">
        <ele>212.023</ele>
        <time>2019-09-19T13:45:43.001Z</time>
      </trkpt>
      <trkpt lat="50.03854" lon="4.05805">
        <ele>211.618</ele>
        <time>2019-09-19T13:45:46.001Z</time>
      </trkpt>
      <trkpt lat="50.03848" lon="4.05834">
        <ele>210.914</ele>
        <time>2019-09-19T13:45:49.001Z</time>
      </trkpt>
      <trkpt lat="50.03844" lon="4.05865">
        <ele>209.763</ele>
        <time>2019-09-19T13:45:52.001Z</time>
      </trkpt>
      <trkpt lat="50.03839" lon="4.05893">
        <ele>208.897</ele>
        <time>2019-09-19T13:45:55.001Z</time>
      </trkpt>
      <trkpt lat="50.03833" lon="4.05917">
        <ele>207.865</ele>
        <time>2019-09-19T13:45:58.001Z</time>
      </trkpt>
      <trkpt lat="50.03827" lon="4.05938">
        <ele>207.732</ele>
        <time>2019-09-19T13:46:01.001Z</time>
      </trkpt>
      <trkpt lat="50.03821" lon="4.05956">
        <ele>207.76</ele>
        <time>2019-09-19T13:46:04.001Z</time>
      </trkpt>
      <trkpt lat="50.03818" lon="4.05968">
        <ele>207.544</ele>
        <time>2019-09-19T13:46:07.001Z</time>
      </trkpt>
      <trkpt lat="50.03817" lon="4.05977">
        <ele>207.372</ele>
        <time>2019-09-19T13:46:10.001Z</time>
      </trkpt>
      <trkpt lat="50.03815" lon="4.05986">
        <ele>207.536</ele>
        <time>2019-09-19T13:46:13.001Z</time>
      </trkpt>
      <trkpt lat="50.03812" lon="4.05995">
        <ele>207.574</ele>
        <time>2019-09-19T13:46:16.000Z</time>
      </trkpt>
      <trkpt lat="50.03808" lon="4.06005">
        <ele>207.627</ele>
        <time>2019-09-19T13:46:19.001Z</time>
      </trkpt>
      <trkpt lat="50.03803" lon="4.06012">
        <ele>208.482</ele>
        <time>2019-09-19T13:46:22.001Z</time>
      </trkpt>
      <trkpt lat="50.03797" lon="4.06019">
        <ele>209.767</ele>
        <time>2019-09-19T13:46:25.001Z</time>
      </trkpt>
      <trkpt lat="50.0379" lon="4.06027">
        <ele>210.37</ele>
        <time>2019-09-19T13:46:28.001Z</time>
      </trkpt>
      <trkpt lat="50.03782" lon="4.06034">
        <ele>211.445</ele>
        <time>2019-09-19T13:46:31.001Z</time>
      </trkpt>
      <trkpt lat="50.03775" lon="4.06041">
        <ele>212.7</ele>
        <time>2019-09-19T13:46:34.001Z</time>
      </trkpt>
      <trkpt lat="50.03769" lon="4.06046">
        <ele>214.559</ele>
        <time>2019-09-19T13:46:37.001Z</time>
      </trkpt>
      <trkpt lat="50.03764" lon="4.06052">
        <ele>216</ele>
        <time>2019-09-19T13:46:40.001Z</time>
      </trkpt>
      <trkpt lat="50.03759" lon="4.06056">
        <ele>217.137</ele>
        <time>2019-09-19T13:46:43.001Z</time>
      </trkpt>
      <trkpt lat="50.03753" lon="4.06063">
        <ele>218.321</ele>
        <time>2019-09-19T13:46:46.001Z</time>
      </trkpt>
      <trkpt lat="50.03747" lon="4.06069">
        <ele>219.058</ele>
        <time>2019-09-19T13:46:49.001Z</time>
      </trkpt>
      <trkpt lat="50.03742" lon="4.06075">
        <ele>219.607</ele>
        <time>2019-09-19T13:46:52.001Z</time>
      </trkpt>
      <trkpt lat="50.03736" lon="4.06083">
        <ele>219.959</ele>
        <time>2019-09-19T13:46:55.001Z</time>
      </trkpt>
      <trkpt lat="50.03731" lon="4.06091">
        <ele>219.815</ele>
        <time>2019-09-19T13:46:58.001Z</time>
      </trkpt>
      <trkpt lat="50.03726" lon="4.06099">
        <ele>219.822</ele>
        <time>2019-09-19T13:47:01.001Z</time>
      </trkpt>
      <trkpt lat="50.03722" lon="4.06108">
        <ele>219.803</ele>
        <time>2019-09-19T13:47:04.001Z</time>
      </trkpt>
      <trkpt lat="50.03717" lon="4.06117">
        <ele>219.612</ele>
        <time>2019-09-19T13:47:07.001Z</time>
      </trkpt>
      <trkpt lat="50.03714" lon="4.06128">
        <ele>219.469</ele>
        <time>2019-09-19T13:47:10.001Z</time>
      </trkpt>
      <trkpt lat="50.03711" lon="4.06139">
        <ele>219.858</ele>
        <time>2019-09-19T13:47:13.001Z</time>
      </trkpt>
      <trkpt lat="50.03708" lon="4.0615">
        <ele>220.477</ele>
        <time>2019-09-19T13:47:16.000Z</time>
      </trkpt>
      <trkpt lat="50.03706" lon="4.06161">
        <ele>220.711</ele>
        <time>2019-09-19T13:47:19.001Z</time>
      </trkpt>
      <trkpt lat="50.03704" lon="4.06172">
        <ele>221.265</ele>
        <time>2019-09-19T13:47:22.001Z</time>
      </trkpt>
      <trkpt lat="50.03702" lon="4.06183">
        <ele>221.561</ele>
        <time>2019-09-19T13:47:25.001Z</time>
      </trkpt>
      <trkpt lat="50.037" lon="4.06194">
        <ele>221.606</ele>
        <time>2019-09-19T13:47:28.001Z</time>
      </trkpt>
      <trkpt lat="50.03697" lon="4.06205">
        <ele>221.69</ele>
        <time>2019-09-19T13:47:31.001Z</time>
      </trkpt>
      <trkpt lat="50.03695" lon="4.06216">
        <ele>222.137</ele>
        <time>2019-09-19T13:47:34.001Z</time>
      </trkpt>
      <trkpt lat="50.03695" lon="4.06226">
        <ele>223.27</ele>
        <time>2019-09-19T13:47:37.001Z</time>
      </trkpt>
      <trkpt lat="50.03693" lon="4.06235">
        <ele>225.336</ele>
        <time>2019-09-19T13:47:40.001Z</time>
      </trkpt>
      <trkpt lat="50.03691" lon="4.06246">
        <ele>227.062</ele>
        <time>2019-09-19T13:47:43.001Z</time>
      </trkpt>
      <trkpt lat="50.0369" lon="4.06257">
        <ele>229.088</ele>
        <time>2019-09-19T13:47:46.001Z</time>
      </trkpt>
      <trkpt lat="50.0369" lon="4.06269">
        <ele>229.73</ele>
        <time>2019-09-19T13:47:49.001Z</time>
      </trkpt>
      <trkpt lat="50.0369" lon="4.06281">
        <ele>229.919</ele>
        <time>2019-09-19T13:47:52.001Z</time>
      </trkpt>
      <trkpt lat="50.0369" lon="4.06294">
        <ele>230.472</ele>
        <time>2019-09-19T13:47:55.001Z</time>
      </trkpt>
      <trkpt lat="50.03691" lon="4.0631">
        <ele>230.546</ele>
        <time>2019-09-19T13:47:58.001Z</time>
      </trkpt>
      <trkpt lat="50.03691" lon="4.06324">
        <ele>230.832</ele>
        <time>2019-09-19T13:48:01.001Z</time>
      </trkpt>
      <trkpt lat="50.03693" lon="4.06338">
        <ele>230.524</ele>
        <time>2019-09-19T13:48:04.001Z</time>
      </trkpt>
      <trkpt lat="50.03695" lon="4.06353">
        <ele>230.067</ele>
        <time>2019-09-19T13:48:07.001Z</time>
      </trkpt>
      <trkpt lat="50.03697" lon="4.06367">
        <ele>229.678</ele>
        <time>2019-09-19T13:48:10.001Z</time>
      </trkpt>
      <trkpt lat="50.03698" lon="4.06379">
        <ele>230.004</ele>
        <time>2019-09-19T13:48:13.001Z</time>
      </trkpt>
      <trkpt lat="50.037" lon="4.0639">
        <ele>229.881</ele>
        <time>2019-09-19T13:48:16.000Z</time>
      </trkpt>
      <trkpt lat="50.03702" lon="4.06401">
        <ele>229.572</ele>
        <time>2019-09-19T13:48:19.001Z</time>
      </trkpt>
      <trkpt lat="50.03703" lon="4.06414">
        <ele>229.705</ele>
        <time>2019-09-19T13:48:22.001Z</time>
      </trkpt>
      <trkpt lat="50.03706" lon="4.06428">
        <ele>229.472</ele>
        <time>2019-09-19T13:48:25.001Z</time>
      </trkpt>
      <trkpt lat="50.03708" lon="4.0644">
        <ele>229.289</ele>
        <time>2019-09-19T13:48:28.001Z</time>
      </trkpt>
      <trkpt lat="50.03709" lon="4.06451">
        <ele>229.053</ele>
        <time>2019-09-19T13:48:31.001Z</time>
      </trkpt>
      <trkpt lat="50.03711" lon="4.06463">
        <ele>228.286</ele>
        <time>2019-09-19T13:48:34.001Z</time>
      </trkpt>
      <trkpt lat="50.03713" lon="4.06475">
        <ele>227.653</ele>
        <time>2019-09-19T13:48:37.001Z</time>
      </trkpt>
      <trkpt lat="50.03714" lon="4.06487">
        <ele>227.9</ele>
        <time>2019-09-19T13:48:40.001Z</time>
      </trkpt>
      <trkpt lat="50.03716" lon="4.06498">
        <ele>228.775</ele>
        <time>2019-09-19T13:48:43.001Z</time>
      </trkpt>
      <trkpt lat="50.03717" lon="4.06511">
        <ele>229.192</ele>
        <time>2019-09-19T13:48:46.001Z</time>
      </trkpt>
      <trkpt lat="50.03719" lon="4.06522">
        <ele>229.747</ele>
        <time>2019-09-19T13:48:49.001Z</time>
      </trkpt>
      <trkpt lat="50.03721" lon="4.06533">
        <ele>230.457</ele>
        <time>2019-09-19T13:48:52.001Z</time>
      </trkpt>
      <trkpt lat="50.03723" lon="4.06545">
        <ele>231.062</ele>
        <time>2019-09-19T13:48:55.001Z</time>
      </trkpt>
      <trkpt lat="50.03725" lon="4.06558">
        <ele>231.81</ele>
        <time>2019-09-19T13:48:58.001Z</time>
      </trkpt>
      <trkpt lat="50.03726" lon="4.06571">
        <ele>232.611</ele>
        <time>2019-09-19T13:49:01.001Z</time>
      </trkpt>
      <trkpt lat="50.03727" lon="4.06585">
        <ele>233.361</ele>
        <time>2019-09-19T13:49:04.001Z</time>
      </trkpt>
      <trkpt lat="50.03729" lon="4.06597">
        <ele>234.016</ele>
        <time>2019-09-19T13:49:07.001Z</time>
      </trkpt>
      <trkpt lat="50.03731" lon="4.0661">
        <ele>233.861</ele>
        <time>2019-09-19T13:49:10.001Z</time>
      </trkpt>
      <trkpt lat="50.03734" lon="4.06624">
        <ele>233.705</ele>
        <time>2019-09-19T13:49:13.001Z</time>
      </trkpt>
      <trkpt lat="50.03737" lon="4.06637">
        <ele>234.844</ele>
        <time>2019-09-19T13:49:16.000Z</time>
      </trkpt>
      <trkpt lat="50.0374" lon="4.06649">
        <ele>235.562</ele>
        <time>2019-09-19T13:49:19.001Z</time>
      </trkpt>
      <trkpt lat="50.03742" lon="4.06661">
        <ele>236.351</ele>
        <time>2019-09-19T13:49:22.001Z</time>
      </trkpt>
      <trkpt lat="50.03743" lon="4.06675">
        <ele>236.244</ele>
        <time>2019-09-19T13:49:25.001Z</time>
      </trkpt>
      <trkpt lat="50.03744" lon="4.06688">
        <ele>235.925</ele>
        <time>2019-09-19T13:49:28.001Z</time>
      </trkpt>
      <trkpt lat="50.03743" lon="4.06702">
        <ele>236.069</ele>
        <time>2019-09-19T13:49:31.001Z</time>
      </trkpt>
      <trkpt lat="50.03742" lon="4.06716">
        <ele>236.653</ele>
        <time>2019-09-19T13:49:34.001Z</time>
      </trkpt>
      <trkpt lat="50.03742" lon="4.06727">
        <ele>237.463</ele>
        <time>2019-09-19T13:49:37.001Z</time>
      </trkpt>
      <trkpt lat="50.03743" lon="4.06737">
        <ele>238.203</ele>
        <time>2019-09-19T13:49:40.001Z</time>
      </trkpt>
      <trkpt lat="50.03745" lon="4.06749">
        <ele>238.782</ele>
        <time>2019-09-19T13:49:43.001Z</time>
      </trkpt>
      <trkpt lat="50.03747" lon="4.06763">
        <ele>238.89</ele>
        <time>2019-09-19T13:49:46.001Z</time>
      </trkpt>
      <trkpt lat="50.03749" lon="4.06779">
        <ele>238.297</ele>
        <time>2019-09-19T13:49:49.001Z</time>
      </trkpt>
      <trkpt lat="50.03747" lon="4.06794">
        <ele>237.78</ele>
        <time>2019-09-19T13:49:52.001Z</time>
      </trkpt>
      <trkpt lat="50.03742" lon="4.06808">
        <ele>237.796</ele>
        <time>2019-09-19T13:49:55.001Z</time>
      </trkpt>
      <trkpt lat="50.03737" lon="4.06821">
        <ele>237.513</ele>
        <time>2019-09-19T13:49:58.001Z</time>
      </trkpt>
      <trkpt lat="50.03733" lon="4.06833">
        <ele>237.267</ele>
        <time>2019-09-19T13:50:01.001Z</time>
      </trkpt>
      <trkpt lat="50.03732" lon="4.06841">
        <ele>236.92</ele>
        <time>2019-09-19T13:50:04.001Z</time>
      </trkpt>
      <trkpt lat="50.0373" lon="4.06852">
        <ele>236.787</ele>
        <time>2019-09-19T13:50:07.001Z</time>
      </trkpt>
      <trkpt lat="50.03729" lon="4.06863">
        <ele>236.355</ele>
        <time>2019-09-19T13:50:10.001Z</time>
      </trkpt>
      <trkpt lat="50.03728" lon="4.06875">
        <ele>235.05</ele>
        <time>2019-09-19T13:50:13.001Z</time>
      </trkpt>
      <trkpt lat="50.03726" lon="4.06886">
        <ele>234.619</ele>
        <time>2019-09-19T13:50:16.000Z</time>
      </trkpt>
      <trkpt lat="50.03725" lon="4.06889">
        <ele>233.169</ele>
        <time>2019-09-19T13:50:19.001Z</time>
      </trkpt>
      <trkpt lat="50.03725" lon="4.0689">
        <ele>232.967</ele>
        <time>2019-09-19T13:52:10.001Z</time>
      </trkpt>
      <trkpt lat="50.03726" lon="4.06893">
        <ele>232.924</ele>
        <time>2019-09-19T13:52:13.001Z</time>
      </trkpt>
      <trkpt lat="50.03728" lon="4.069">
        <ele>233.146</ele>
        <time>2019-09-19T13:52:16.000Z</time>
      </trkpt>
      <trkpt lat="50.03729" lon="4.06908">
        <ele>233.041</ele>
        <time>2019-09-19T13:52:19.001Z</time>
      </trkpt>
      <trkpt lat="50.0373" lon="4.06919">
        <ele>232.542</ele>
        <time>2019-09-19T13:52:22.001Z</time>
      </trkpt>
      <trkpt lat="50.0373" lon="4.06936">
        <ele>231.977</ele>
        <time>2019-09-19T13:52:25.001Z</time>
      </trkpt>
      <trkpt lat="50.03732" lon="4.06952">
        <ele>231.845</ele>
        <time>2019-09-19T13:52:28.001Z</time>
      </trkpt>
      <trkpt lat="50.03734" lon="4.06969">
        <ele>231.807</ele>
        <time>2019-09-19T13:52:31.001Z</time>
      </trkpt>
      <trkpt lat="50.03736" lon="4.06984">
        <ele>231.925</ele>
        <time>2019-09-19T13:52:34.001Z</time>
      </trkpt>
      <trkpt lat="50.03738" lon="4.06999">
        <ele>231.942</ele>
        <time>2019-09-19T13:52:37.001Z</time>
      </trkpt>
      <trkpt lat="50.03741" lon="4.07014">
        <ele>232.187</ele>
        <time>2019-09-19T13:52:40.001Z</time>
      </trkpt>
      <trkpt lat="50.03747" lon="4.07029">
        <ele>232.129</ele>
        <time>2019-09-19T13:52:43.001Z</time>
      </trkpt>
      <trkpt lat="50.03756" lon="4.07044">
        <ele>231.424</ele>
        <time>2019-09-19T13:52:46.001Z</time>
      </trkpt>
      <trkpt lat="50.03768" lon="4.07054">
        <ele>231.474</ele>
        <time>2019-09-19T13:52:49.001Z</time>
      </trkpt>
      <trkpt lat="50.03781" lon="4.07061">
        <ele>231.384</ele>
        <time>2019-09-19T13:52:52.001Z</time>
      </trkpt>
      <trkpt lat="50.03795" lon="4.07065">
        <ele>230.82</ele>
        <time>2019-09-19T13:52:55.001Z</time>
      </trkpt>
      <trkpt lat="50.03808" lon="4.07068">
        <ele>230.554</ele>
        <time>2019-09-19T13:52:58.001Z</time>
      </trkpt>
      <trkpt lat="50.03821" lon="4.07074">
        <ele>230.215</ele>
        <time>2019-09-19T13:53:01.001Z</time>
      </trkpt>
      <trkpt lat="50.03837" lon="4.0708">
        <ele>229.34</ele>
        <time>2019-09-19T13:53:04.001Z</time>
      </trkpt>
      <trkpt lat="50.03853" lon="4.07085">
        <ele>228.035</ele>
        <time>2019-09-19T13:53:07.001Z</time>
      </trkpt>
      <trkpt lat="50.03869" lon="4.07092">
        <ele>226.791</ele>
        <time>2019-09-19T13:53:10.001Z</time>
      </trkpt>
      <trkpt lat="50.03884" lon="4.07104">
        <ele>225.002</ele>
        <time>2019-09-19T13:53:13.001Z</time>
      </trkpt>
      <trkpt lat="50.03897" lon="4.07117">
        <ele>224.037</ele>
        <time>2019-09-19T13:53:16.000Z</time>
      </trkpt>
      <trkpt lat="50.03908" lon="4.07135">
        <ele>222.966</ele>
        <time>2019-09-19T13:53:19.001Z</time>
      </trkpt>
      <trkpt lat="50.03921" lon="4.07154">
        <ele>221.539</ele>
        <time>2019-09-19T13:53:22.001Z</time>
      </trkpt>
      <trkpt lat="50.03934" lon="4.07172">
        <ele>220.759</ele>
        <time>2019-09-19T13:53:25.001Z</time>
      </trkpt>
      <trkpt lat="50.03947" lon="4.07191">
        <ele>219.916</ele>
        <time>2019-09-19T13:53:28.001Z</time>
      </trkpt>
      <trkpt lat="50.0396" lon="4.0721">
        <ele>219.495</ele>
        <time>2019-09-19T13:53:31.001Z</time>
      </trkpt>
      <trkpt lat="50.03973" lon="4.0723">
        <ele>219.165</ele>
        <time>2019-09-19T13:53:34.001Z</time>
      </trkpt>
      <trkpt lat="50.03985" lon="4.07251">
        <ele>218.728</ele>
        <time>2019-09-19T13:53:37.001Z</time>
      </trkpt>
      <trkpt lat="50.03995" lon="4.07274">
        <ele>218.258</ele>
        <time>2019-09-19T13:53:40.001Z</time>
      </trkpt>
      <trkpt lat="50.04002" lon="4.07296">
        <ele>218.432</ele>
        <time>2019-09-19T13:53:43.001Z</time>
      </trkpt>
      <trkpt lat="50.04009" lon="4.07318">
        <ele>218.803</ele>
        <time>2019-09-19T13:53:46.001Z</time>
      </trkpt>
      <trkpt lat="50.04015" lon="4.07338">
        <ele>219.25</ele>
        <time>2019-09-19T13:53:49.001Z</time>
      </trkpt>
      <trkpt lat="50.04019" lon="4.07356">
        <ele>219.781</ele>
        <time>2019-09-19T13:53:52.001Z</time>
      </trkpt>
      <trkpt lat="50.04024" lon="4.07371">
        <ele>220.67</ele>
        <time>2019-09-19T13:53:55.001Z</time>
      </trkpt>
      <trkpt lat="50.04027" lon="4.07386">
        <ele>221.313</ele>
        <time>2019-09-19T13:53:58.001Z</time>
      </trkpt>
      <trkpt lat="50.04032" lon="4.07399">
        <ele>221.742</ele>
        <time>2019-09-19T13:54:01.001Z</time>
      </trkpt>
      <trkpt lat="50.04035" lon="4.07413">
        <ele>222.308</ele>
        <time>2019-09-19T13:54:04.001Z</time>
      </trkpt>
      <trkpt lat="50.04039" lon="4.07425">
        <ele>222.843</ele>
        <time>2019-09-19T13:54:07.001Z</time>
      </trkpt>
      <trkpt lat="50.04043" lon="4.07437">
        <ele>223.124</ele>
        <time>2019-09-19T13:54:10.001Z</time>
      </trkpt>
      <trkpt lat="50.04049" lon="4.07448">
        <ele>223.634</ele>
        <time>2019-09-19T13:54:13.001Z</time>
      </trkpt>
      <trkpt lat="50.04056" lon="4.07458">
        <ele>223.96</ele>
        <time>2019-09-19T13:54:16.000Z</time>
      </trkpt>
      <trkpt lat="50.04064" lon="4.07467">
        <ele>223.954</ele>
        <time>2019-09-19T13:54:19.001Z</time>
      </trkpt>
      <trkpt lat="50.04072" lon="4.07476">
        <ele>224.048</ele>
        <time>2019-09-19T13:54:22.001Z</time>
      </trkpt>
      <trkpt lat="50.04081" lon="4.07486">
        <ele>224.168</ele>
        <time>2019-09-19T13:54:25.001Z</time>
      </trkpt>
      <trkpt lat="50.04089" lon="4.07496">
        <ele>224.305</ele>
        <time>2019-09-19T13:54:28.001Z</time>
      </trkpt>
      <trkpt lat="50.04098" lon="4.07506">
        <ele>224.445</ele>
        <time>2019-09-19T13:54:31.001Z</time>
      </trkpt>
      <trkpt lat="50.04107" lon="4.07515">
        <ele>224.208</ele>
        <time>2019-09-19T13:54:34.001Z</time>
      </trkpt>
      <trkpt lat="50.04117" lon="4.0752">
        <ele>223.991</ele>
        <time>2019-09-19T13:54:37.001Z</time>
      </trkpt>
      <trkpt lat="50.04129" lon="4.07517">
        <ele>223.987</ele>
        <time>2019-09-19T13:54:40.001Z</time>
      </trkpt>
      <trkpt lat="50.04142" lon="4.07511">
        <ele>223.962</ele>
        <time>2019-09-19T13:54:43.001Z</time>
      </trkpt>
      <trkpt lat="50.04155" lon="4.07507">
        <ele>224.192</ele>
        <time>2019-09-19T13:54:46.001Z</time>
      </trkpt>
      <trkpt lat="50.04169" lon="4.07502">
        <ele>224.237</ele>
        <time>2019-09-19T13:54:49.001Z</time>
      </trkpt>
      <trkpt lat="50.04181" lon="4.07497">
        <ele>224.169</ele>
        <time>2019-09-19T13:54:52.001Z</time>
      </trkpt>
      <trkpt lat="50.04194" lon="4.07494">
        <ele>224.116</ele>
        <time>2019-09-19T13:54:55.001Z</time>
      </trkpt>
      <trkpt lat="50.04208" lon="4.07497">
        <ele>224.028</ele>
        <time>2019-09-19T13:54:58.001Z</time>
      </trkpt>
      <trkpt lat="50.04218" lon="4.07502">
        <ele>223.089</ele>
        <time>2019-09-19T13:55:01.001Z</time>
      </trkpt>
      <trkpt lat="50.04224" lon="4.07495">
        <ele>222.35</ele>
        <time>2019-09-19T13:55:04.001Z</time>
      </trkpt>
      <trkpt lat="50.0422" lon="4.07483">
        <ele>222.173</ele>
        <time>2019-09-19T13:55:07.001Z</time>
      </trkpt>
      <trkpt lat="50.0421" lon="4.07485">
        <ele>222.582</ele>
        <time>2019-09-19T13:55:10.001Z</time>
      </trkpt>
      <trkpt lat="50.042" lon="4.07489">
        <ele>222.861</ele>
        <time>2019-09-19T13:55:13.001Z</time>
      </trkpt>
      <trkpt lat="50.04191" lon="4.07492">
        <ele>223.344</ele>
        <time>2019-09-19T13:55:16.000Z</time>
      </trkpt>
      <trkpt lat="50.04183" lon="4.07493">
        <ele>223.704</ele>
        <time>2019-09-19T13:55:19.001Z</time>
      </trkpt>
      <trkpt lat="50.04175" lon="4.07496">
        <ele>224.039</ele>
        <time>2019-09-19T13:55:22.001Z</time>
      </trkpt>
      <trkpt lat="50.04167" lon="4.075">
        <ele>224.677</ele>
        <time>2019-09-19T13:55:25.001Z</time>
      </trkpt>
      <trkpt lat="50.04158" lon="4.07503">
        <ele>224.531</ele>
        <time>2019-09-19T13:55:28.001Z</time>
      </trkpt>
      <trkpt lat="50.04149" lon="4.07506">
        <ele>225.116</ele>
        <time>2019-09-19T13:55:31.001Z</time>
      </trkpt>
      <trkpt lat="50.0414" lon="4.07509">
        <ele>225.365</ele>
        <time>2019-09-19T13:55:34.001Z</time>
      </trkpt>
      <trkpt lat="50.04131" lon="4.07512">
        <ele>226.001</ele>
        <time>2019-09-19T13:55:37.001Z</time>
      </trkpt>
      <trkpt lat="50.04123" lon="4.07515">
        <ele>226.425</ele>
        <time>2019-09-19T13:55:40.001Z</time>
      </trkpt>
      <trkpt lat="50.04117" lon="4.07524">
        <ele>226.969</ele>
        <time>2019-09-19T13:55:43.001Z</time>
      </trkpt>
      <trkpt lat="50.04114" lon="4.07537">
        <ele>227.038</ele>
        <time>2019-09-19T13:55:46.001Z</time>
      </trkpt>
      <trkpt lat="50.04114" lon="4.0755">
        <ele>227.22</ele>
        <time>2019-09-19T13:55:49.001Z</time>
      </trkpt>
      <trkpt lat="50.04115" lon="4.07565">
        <ele>227.445</ele>
        <time>2019-09-19T13:55:52.001Z</time>
      </trkpt>
      <trkpt lat="50.04116" lon="4.07579">
        <ele>227.565</ele>
        <time>2019-09-19T13:55:55.001Z</time>
      </trkpt>
      <trkpt lat="50.04117" lon="4.07593">
        <ele>227.464</ele>
        <time>2019-09-19T13:55:58.001Z</time>
      </trkpt>
      <trkpt lat="50.04119" lon="4.07608">
        <ele>227.719</ele>
        <time>2019-09-19T13:56:01.001Z</time>
      </trkpt>
      <trkpt lat="50.0412" lon="4.07621">
        <ele>227.712</ele>
        <time>2019-09-19T13:56:04.001Z</time>
      </trkpt>
      <trkpt lat="50.04122" lon="4.07635">
        <ele>227.77</ele>
        <time>2019-09-19T13:56:07.001Z</time>
      </trkpt>
      <trkpt lat="50.04123" lon="4.07648">
        <ele>227.775</ele>
        <time>2019-09-19T13:56:10.001Z</time>
      </trkpt>
      <trkpt lat="50.04125" lon="4.07662">
        <ele>227.86</ele>
        <time>2019-09-19T13:56:13.001Z</time>
      </trkpt>
      <trkpt lat="50.04127" lon="4.07674">
        <ele>227.919</ele>
        <time>2019-09-19T13:56:16.000Z</time>
      </trkpt>
      <trkpt lat="50.04128" lon="4.07687">
        <ele>228.368</ele>
        <time>2019-09-19T13:56:19.001Z</time>
      </trkpt>
      <trkpt lat="50.0413" lon="4.077">
        <ele>228.958</ele>
        <time>2019-09-19T13:56:22.001Z</time>
      </trkpt>
      <trkpt lat="50.04131" lon="4.07713">
        <ele>229.47</ele>
        <time>2019-09-19T13:56:25.001Z</time>
      </trkpt>
      <trkpt lat="50.04133" lon="4.07724">
        <ele>230.369</ele>
        <time>2019-09-19T13:56:28.001Z</time>
      </trkpt>
      <trkpt lat="50.04134" lon="4.07735">
        <ele>230.906</ele>
        <time>2019-09-19T13:56:31.001Z</time>
      </trkpt>
      <trkpt lat="50.04136" lon="4.07746">
        <ele>231.822</ele>
        <time>2019-09-19T13:56:34.001Z</time>
      </trkpt>
      <trkpt lat="50.04138" lon="4.07757">
        <ele>233.113</ele>
        <time>2019-09-19T13:56:37.001Z</time>
      </trkpt>
      <trkpt lat="50.04139" lon="4.07769">
        <ele>233.651</ele>
        <time>2019-09-19T13:56:40.001Z</time>
      </trkpt>
      <trkpt lat="50.0414" lon="4.07781">
        <ele>233.973</ele>
        <time>2019-09-19T13:56:43.001Z</time>
      </trkpt>
      <trkpt lat="50.04141" lon="4.07793">
        <ele>233.944</ele>
        <time>2019-09-19T13:56:46.001Z</time>
      </trkpt>
      <trkpt lat="50.04141" lon="4.07804">
        <ele>233.774</ele>
        <time>2019-09-19T13:56:49.001Z</time>
      </trkpt>
      <trkpt lat="50.04142" lon="4.07814">
        <ele>233.608</ele>
        <time>2019-09-19T13:56:52.001Z</time>
      </trkpt>
      <trkpt lat="50.04143" lon="4.07823">
        <ele>232.928</ele>
        <time>2019-09-19T13:56:55.001Z</time>
      </trkpt>
      <trkpt lat="50.04144" lon="4.07833">
        <ele>232.214</ele>
        <time>2019-09-19T13:56:58.001Z</time>
      </trkpt>
      <trkpt lat="50.04143" lon="4.07841">
        <ele>231.7</ele>
        <time>2019-09-19T13:57:01.001Z</time>
      </trkpt>
      <trkpt lat="50.04143" lon="4.07842">
        <ele>231.661</ele>
        <time>2019-09-19T13:57:04.001Z</time>
      </trkpt>
      <trkpt lat="50.04143" lon="4.07842">
        <ele>231.661</ele>
        <time>2019-09-19T13:59:52.001Z</time>
      </trkpt>
      <trkpt lat="50.04143" lon="4.07841">
        <ele>231.611</ele>
        <time>2019-09-19T13:59:55.001Z</time>
      </trkpt>
      <trkpt lat="50.04144" lon="4.07841">
        <ele>231.75</ele>
        <time>2019-09-19T13:59:58.001Z</time>
      </trkpt>
      <trkpt lat="50.04144" lon="4.07841">
        <ele>231.75</ele>
        <time>2019-09-19T14:00:07.001Z</time>
      </trkpt>
      <trkpt lat="50.04144" lon="4.0784">
        <ele>232.028</ele>
        <time>2019-09-19T14:00:10.001Z</time>
      </trkpt>
      <trkpt lat="50.04143" lon="4.07825">
        <ele>231.637</ele>
        <time>2019-09-19T14:00:16.000Z</time>
      </trkpt>
      <trkpt lat="50.04141" lon="4.07814">
        <ele>231.86</ele>
        <time>2019-09-19T14:00:19.001Z</time>
      </trkpt>
      <trkpt lat="50.04139" lon="4.07798">
        <ele>231.923</ele>
        <time>2019-09-19T14:00:22.001Z</time>
      </trkpt>
      <trkpt lat="50.04137" lon="4.07779">
        <ele>231.536</ele>
        <time>2019-09-19T14:00:25.001Z</time>
      </trkpt>
      <trkpt lat="50.04136" lon="4.07757">
        <ele>231.194</ele>
        <time>2019-09-19T14:00:28.001Z</time>
      </trkpt>
      <trkpt lat="50.04133" lon="4.07732">
        <ele>230.852</ele>
        <time>2019-09-19T14:00:31.001Z</time>
      </trkpt>
      <trkpt lat="50.04129" lon="4.07703">
        <ele>230.397</ele>
        <time>2019-09-19T14:00:34.001Z</time>
      </trkpt>
      <trkpt lat="50.04125" lon="4.07674">
        <ele>229.819</ele>
        <time>2019-09-19T14:00:37.001Z</time>
      </trkpt>
      <trkpt lat="50.04121" lon="4.07644">
        <ele>229.879</ele>
        <time>2019-09-19T14:00:40.001Z</time>
      </trkpt>
      <trkpt lat="50.04118" lon="4.07613">
        <ele>229.117</ele>
        <time>2019-09-19T14:00:43.001Z</time>
      </trkpt>
      <trkpt lat="50.04116" lon="4.07582">
        <ele>228.27</ele>
        <time>2019-09-19T14:00:46.001Z</time>
      </trkpt>
      <trkpt lat="50.04113" lon="4.07554">
        <ele>227.739</ele>
        <time>2019-09-19T14:00:49.001Z</time>
      </trkpt>
      <trkpt lat="50.04114" lon="4.0753">
        <ele>226.896</ele>
        <time>2019-09-19T14:00:52.001Z</time>
      </trkpt>
      <trkpt lat="50.04127" lon="4.07513">
        <ele>226.366</ele>
        <time>2019-09-19T14:00:55.001Z</time>
      </trkpt>
      <trkpt lat="50.04145" lon="4.07508">
        <ele>226.143</ele>
        <time>2019-09-19T14:00:58.001Z</time>
      </trkpt>
      <trkpt lat="50.04162" lon="4.07503">
        <ele>225.697</ele>
        <time>2019-09-19T14:01:01.001Z</time>
      </trkpt>
      <trkpt lat="50.04177" lon="4.07497">
        <ele>224.781</ele>
        <time>2019-09-19T14:01:04.001Z</time>
      </trkpt>
      <trkpt lat="50.04194" lon="4.07492">
        <ele>223.919</ele>
        <time>2019-09-19T14:01:07.001Z</time>
      </trkpt>
      <trkpt lat="50.04212" lon="4.07496">
        <ele>223.784</ele>
        <time>2019-09-19T14:01:10.001Z</time>
      </trkpt>
      <trkpt lat="50.04227" lon="4.07511">
        <ele>223.444</ele>
        <time>2019-09-19T14:01:13.001Z</time>
      </trkpt>
      <trkpt lat="50.0424" lon="4.07521">
        <ele>223.139</ele>
        <time>2019-09-19T14:01:16.000Z</time>
      </trkpt>
      <trkpt lat="50.04254" lon="4.07525">
        <ele>222.739</ele>
        <time>2019-09-19T14:01:19.001Z</time>
      </trkpt>
      <trkpt lat="50.04267" lon="4.07535">
        <ele>222.661</ele>
        <time>2019-09-19T14:01:22.001Z</time>
      </trkpt>
      <trkpt lat="50.04278" lon="4.07548">
        <ele>222.643</ele>
        <time>2019-09-19T14:01:25.001Z</time>
      </trkpt>
      <trkpt lat="50.04289" lon="4.07561">
        <ele>222.818</ele>
        <time>2019-09-19T14:01:28.001Z</time>
      </trkpt>
      <trkpt lat="50.04298" lon="4.07574">
        <ele>222.328</ele>
        <time>2019-09-19T14:01:31.001Z</time>
      </trkpt>
      <trkpt lat="50.04306" lon="4.07585">
        <ele>222.077</ele>
        <time>2019-09-19T14:01:34.001Z</time>
      </trkpt>
      <trkpt lat="50.04315" lon="4.07596">
        <ele>221.943</ele>
        <time>2019-09-19T14:01:37.001Z</time>
      </trkpt>
      <trkpt lat="50.04323" lon="4.07607">
        <ele>222.067</ele>
        <time>2019-09-19T14:01:40.001Z</time>
      </trkpt>
      <trkpt lat="50.04332" lon="4.0762">
        <ele>222.388</ele>
        <time>2019-09-19T14:01:43.001Z</time>
      </trkpt>
      <trkpt lat="50.04342" lon="4.07633">
        <ele>222.606</ele>
        <time>2019-09-19T14:01:46.001Z</time>
      </trkpt>
      <trkpt lat="50.04352" lon="4.07645">
        <ele>223.269</ele>
        <time>2019-09-19T14:01:49.001Z</time>
      </trkpt>
      <trkpt lat="50.04362" lon="4.07658">
        <ele>223.729</ele>
        <time>2019-09-19T14:01:52.001Z</time>
      </trkpt>
      <trkpt lat="50.04371" lon="4.0767">
        <ele>223.503</ele>
        <time>2019-09-19T14:01:55.001Z</time>
      </trkpt>
      <trkpt lat="50.04381" lon="4.07683">
        <ele>224.013</ele>
        <time>2019-09-19T14:01:58.001Z</time>
      </trkpt>
      <trkpt lat="50.04391" lon="4.07695">
        <ele>224.323</ele>
        <time>2019-09-19T14:02:01.001Z</time>
      </trkpt>
      <trkpt lat="50.04401" lon="4.07708">
        <ele>224.628</ele>
        <time>2019-09-19T14:02:04.001Z</time>
      </trkpt>
      <trkpt lat="50.0441" lon="4.07719">
        <ele>224.632</ele>
        <time>2019-09-19T14:02:07.001Z</time>
      </trkpt>
      <trkpt lat="50.04419" lon="4.07731">
        <ele>224.838</ele>
        <time>2019-09-19T14:02:10.001Z</time>
      </trkpt>
      <trkpt lat="50.04428" lon="4.07742">
        <ele>224.602</ele>
        <time>2019-09-19T14:02:13.001Z</time>
      </trkpt>
      <trkpt lat="50.04437" lon="4.07753">
        <ele>225.128</ele>
        <time>2019-09-19T14:02:16.000Z</time>
      </trkpt>
      <trkpt lat="50.04446" lon="4.07763">
        <ele>226.083</ele>
        <time>2019-09-19T14:02:19.001Z</time>
      </trkpt>
      <trkpt lat="50.04455" lon="4.07774">
        <ele>226.433</ele>
        <time>2019-09-19T14:02:22.001Z</time>
      </trkpt>
      <trkpt lat="50.04464" lon="4.07786">
        <ele>226.626</ele>
        <time>2019-09-19T14:02:25.001Z</time>
      </trkpt>
      <trkpt lat="50.04475" lon="4.078">
        <ele>226.339</ele>
        <time>2019-09-19T14:02:28.001Z</time>
      </trkpt>
      <trkpt lat="50.04484" lon="4.07818">
        <ele>226.313</ele>
        <time>2019-09-19T14:02:31.001Z</time>
      </trkpt>
      <trkpt lat="50.04489" lon="4.07841">
        <ele>225.707</ele>
        <time>2019-09-19T14:02:34.001Z</time>
      </trkpt>
      <trkpt lat="50.04487" lon="4.07867">
        <ele>224.723</ele>
        <time>2019-09-19T14:02:37.001Z</time>
      </trkpt>
      <trkpt lat="50.04485" lon="4.0789">
        <ele>223.503</ele>
        <time>2019-09-19T14:02:40.001Z</time>
      </trkpt>
      <trkpt lat="50.04483" lon="4.07912">
        <ele>222.468</ele>
        <time>2019-09-19T14:02:43.001Z</time>
      </trkpt>
      <trkpt lat="50.04481" lon="4.07934">
        <ele>221.24</ele>
        <time>2019-09-19T14:02:46.001Z</time>
      </trkpt>
      <trkpt lat="50.04481" lon="4.07956">
        <ele>220.93</ele>
        <time>2019-09-19T14:02:49.001Z</time>
      </trkpt>
      <trkpt lat="50.04486" lon="4.07977">
        <ele>220.934</ele>
        <time>2019-09-19T14:02:52.001Z</time>
      </trkpt>
      <trkpt lat="50.04491" lon="4.07996">
        <ele>220.981</ele>
        <time>2019-09-19T14:02:55.001Z</time>
      </trkpt>
      <trkpt lat="50.04498" lon="4.08016">
        <ele>221.245</ele>
        <time>2019-09-19T14:02:58.001Z</time>
      </trkpt>
      <trkpt lat="50.04505" lon="4.08036">
        <ele>221.124</ele>
        <time>2019-09-19T14:03:01.001Z</time>
      </trkpt>
      <trkpt lat="50.04511" lon="4.08057">
        <ele>221.459</ele>
        <time>2019-09-19T14:03:04.001Z</time>
      </trkpt>
      <trkpt lat="50.04518" lon="4.08078">
        <ele>220.446</ele>
        <time>2019-09-19T14:03:07.001Z</time>
      </trkpt>
      <trkpt lat="50.04524" lon="4.08098">
        <ele>219.215</ele>
        <time>2019-09-19T14:03:10.001Z</time>
      </trkpt>
      <trkpt lat="50.0453" lon="4.08119">
        <ele>219.166</ele>
        <time>2019-09-19T14:03:13.001Z</time>
      </trkpt>
      <trkpt lat="50.04538" lon="4.08139">
        <ele>219.2</ele>
        <time>2019-09-19T14:03:16.000Z</time>
      </trkpt>
      <trkpt lat="50.04546" lon="4.08158">
        <ele>219.648</ele>
        <time>2019-09-19T14:03:19.001Z</time>
      </trkpt>
      <trkpt lat="50.04556" lon="4.08172">
        <ele>219.673</ele>
        <time>2019-09-19T14:03:22.001Z</time>
      </trkpt>
      <trkpt lat="50.04565" lon="4.08185">
        <ele>220.224</ele>
        <time>2019-09-19T14:03:25.001Z</time>
      </trkpt>
      <trkpt lat="50.04574" lon="4.08197">
        <ele>220.793</ele>
        <time>2019-09-19T14:03:28.001Z</time>
      </trkpt>
      <trkpt lat="50.04582" lon="4.0821">
        <ele>221.102</ele>
        <time>2019-09-19T14:03:31.001Z</time>
      </trkpt>
      <trkpt lat="50.04591" lon="4.08221">
        <ele>221.287</ele>
        <time>2019-09-19T14:03:34.001Z</time>
      </trkpt>
      <trkpt lat="50.04598" lon="4.08233">
        <ele>221.107</ele>
        <time>2019-09-19T14:03:37.001Z</time>
      </trkpt>
      <trkpt lat="50.04606" lon="4.08245">
        <ele>221.181</ele>
        <time>2019-09-19T14:03:40.001Z</time>
      </trkpt>
      <trkpt lat="50.04614" lon="4.08257">
        <ele>221.607</ele>
        <time>2019-09-19T14:03:43.001Z</time>
      </trkpt>
      <trkpt lat="50.04622" lon="4.08272">
        <ele>221.895</ele>
        <time>2019-09-19T14:03:46.001Z</time>
      </trkpt>
      <trkpt lat="50.04631" lon="4.08287">
        <ele>221.944</ele>
        <time>2019-09-19T14:03:49.001Z</time>
      </trkpt>
      <trkpt lat="50.04639" lon="4.08304">
        <ele>222.034</ele>
        <time>2019-09-19T14:03:52.001Z</time>
      </trkpt>
      <trkpt lat="50.04647" lon="4.08322">
        <ele>222.124</ele>
        <time>2019-09-19T14:03:55.001Z</time>
      </trkpt>
      <trkpt lat="50.04655" lon="4.08343">
        <ele>221.848</ele>
        <time>2019-09-19T14:03:58.001Z</time>
      </trkpt>
      <trkpt lat="50.04662" lon="4.08365">
        <ele>221.001</ele>
        <time>2019-09-19T14:04:01.001Z</time>
      </trkpt>
      <trkpt lat="50.04668" lon="4.08387">
        <ele>220.327</ele>
        <time>2019-09-19T14:04:04.001Z</time>
      </trkpt>
      <trkpt lat="50.04673" lon="4.08411">
        <ele>219.86</ele>
        <time>2019-09-19T14:04:07.001Z</time>
      </trkpt>
      <trkpt lat="50.04677" lon="4.08435">
        <ele>219.254</ele>
        <time>2019-09-19T14:04:10.001Z</time>
      </trkpt>
      <trkpt lat="50.04674" lon="4.08458">
        <ele>219.234</ele>
        <time>2019-09-19T14:04:13.001Z</time>
      </trkpt>
      <trkpt lat="50.04659" lon="4.08463">
        <ele>219.89</ele>
        <time>2019-09-19T14:04:16.000Z</time>
      </trkpt>
      <trkpt lat="50.04646" lon="4.08454">
        <ele>220.274</ele>
        <time>2019-09-19T14:04:19.001Z</time>
      </trkpt>
      <trkpt lat="50.04634" lon="4.08451">
        <ele>220.539</ele>
        <time>2019-09-19T14:04:22.001Z</time>
      </trkpt>
      <trkpt lat="50.04621" lon="4.08449">
        <ele>220.468</ele>
        <time>2019-09-19T14:04:25.001Z</time>
      </trkpt>
      <trkpt lat="50.04609" lon="4.08445">
        <ele>220.4</ele>
        <time>2019-09-19T14:04:28.001Z</time>
      </trkpt>
      <trkpt lat="50.04598" lon="4.08441">
        <ele>219.826</ele>
        <time>2019-09-19T14:04:31.001Z</time>
      </trkpt>
      <trkpt lat="50.04588" lon="4.08437">
        <ele>219.289</ele>
        <time>2019-09-19T14:04:34.001Z</time>
      </trkpt>
      <trkpt lat="50.04578" lon="4.08433">
        <ele>218.819</ele>
        <time>2019-09-19T14:04:37.001Z</time>
      </trkpt>
      <trkpt lat="50.04568" lon="4.0843">
        <ele>218.577</ele>
        <time>2019-09-19T14:04:40.001Z</time>
      </trkpt>
      <trkpt lat="50.04558" lon="4.08427">
        <ele>218.986</ele>
        <time>2019-09-19T14:04:43.001Z</time>
      </trkpt>
      <trkpt lat="50.04547" lon="4.08423">
        <ele>219.28</ele>
        <time>2019-09-19T14:04:46.001Z</time>
      </trkpt>
      <trkpt lat="50.04537" lon="4.0842">
        <ele>219.285</ele>
        <time>2019-09-19T14:04:49.001Z</time>
      </trkpt>
      <trkpt lat="50.04526" lon="4.08416">
        <ele>219.072</ele>
        <time>2019-09-19T14:04:52.001Z</time>
      </trkpt>
      <trkpt lat="50.04515" lon="4.08412">
        <ele>218.994</ele>
        <time>2019-09-19T14:04:55.001Z</time>
      </trkpt>
      <trkpt lat="50.04505" lon="4.08407">
        <ele>218.819</ele>
        <time>2019-09-19T14:04:58.001Z</time>
      </trkpt>
      <trkpt lat="50.04494" lon="4.08402">
        <ele>219.002</ele>
        <time>2019-09-19T14:05:01.001Z</time>
      </trkpt>
      <trkpt lat="50.04484" lon="4.08397">
        <ele>219.061</ele>
        <time>2019-09-19T14:05:04.001Z</time>
      </trkpt>
      <trkpt lat="50.04473" lon="4.08393">
        <ele>219.03</ele>
        <time>2019-09-19T14:05:07.001Z</time>
      </trkpt>
      <trkpt lat="50.04463" lon="4.08389">
        <ele>218.864</ele>
        <time>2019-09-19T14:05:10.001Z</time>
      </trkpt>
      <trkpt lat="50.04453" lon="4.08382">
        <ele>218.95</ele>
        <time>2019-09-19T14:05:13.001Z</time>
      </trkpt>
      <trkpt lat="50.04444" lon="4.08373">
        <ele>219.825</ele>
        <time>2019-09-19T14:05:16.000Z</time>
      </trkpt>
      <trkpt lat="50.04434" lon="4.08366">
        <ele>220.627</ele>
        <time>2019-09-19T14:05:19.001Z</time>
      </trkpt>
      <trkpt lat="50.04425" lon="4.08358">
        <ele>220.673</ele>
        <time>2019-09-19T14:05:22.001Z</time>
      </trkpt>
      <trkpt lat="50.04416" lon="4.08351">
        <ele>220.586</ele>
        <time>2019-09-19T14:05:25.001Z</time>
      </trkpt>
      <trkpt lat="50.04408" lon="4.08344">
        <ele>221.008</ele>
        <time>2019-09-19T14:05:28.001Z</time>
      </trkpt>
      <trkpt lat="50.044" lon="4.08338">
        <ele>221.297</ele>
        <time>2019-09-19T14:05:31.001Z</time>
      </trkpt>
      <trkpt lat="50.04393" lon="4.08332">
        <ele>221.822</ele>
        <time>2019-09-19T14:05:34.001Z</time>
      </trkpt>
      <trkpt lat="50.04384" lon="4.0833">
        <ele>223.624</ele>
        <time>2019-09-19T14:05:37.001Z</time>
      </trkpt>
      <trkpt lat="50.04375" lon="4.08329">
        <ele>225.839</ele>
        <time>2019-09-19T14:05:40.001Z</time>
      </trkpt>
      <trkpt lat="50.04366" lon="4.0833">
        <ele>227.36</ele>
        <time>2019-09-19T14:05:43.001Z</time>
      </trkpt>
      <trkpt lat="50.04357" lon="4.08332">
        <ele>228.205</ele>
        <time>2019-09-19T14:05:46.001Z</time>
      </trkpt>
      <trkpt lat="50.04348" lon="4.08335">
        <ele>228.991</ele>
        <time>2019-09-19T14:05:49.001Z</time>
      </trkpt>
      <trkpt lat="50.04339" lon="4.08339">
        <ele>229.808</ele>
        <time>2019-09-19T14:05:52.001Z</time>
      </trkpt>
      <trkpt lat="50.0433" lon="4.08343">
        <ele>230.279</ele>
        <time>2019-09-19T14:05:55.001Z</time>
      </trkpt>
      <trkpt lat="50.04321" lon="4.08346">
        <ele>230.595</ele>
        <time>2019-09-19T14:05:58.001Z</time>
      </trkpt>
      <trkpt lat="50.04313" lon="4.08348">
        <ele>230.379</ele>
        <time>2019-09-19T14:06:01.001Z</time>
      </trkpt>
      <trkpt lat="50.04305" lon="4.0835">
        <ele>230.409</ele>
        <time>2019-09-19T14:06:04.001Z</time>
      </trkpt>
      <trkpt lat="50.04296" lon="4.08352">
        <ele>231.044</ele>
        <time>2019-09-19T14:06:07.001Z</time>
      </trkpt>
      <trkpt lat="50.04288" lon="4.08354">
        <ele>231.152</ele>
        <time>2019-09-19T14:06:10.001Z</time>
      </trkpt>
      <trkpt lat="50.04281" lon="4.08357">
        <ele>230.567</ele>
        <time>2019-09-19T14:06:13.001Z</time>
      </trkpt>
      <trkpt lat="50.04275" lon="4.08364">
        <ele>229.808</ele>
        <time>2019-09-19T14:06:16.000Z</time>
      </trkpt>
      <trkpt lat="50.0427" lon="4.08374">
        <ele>228.98</ele>
        <time>2019-09-19T14:06:19.001Z</time>
      </trkpt>
      <trkpt lat="50.04267" lon="4.08387">
        <ele>228.58</ele>
        <time>2019-09-19T14:06:22.001Z</time>
      </trkpt>
      <trkpt lat="50.04265" lon="4.08402">
        <ele>228.224</ele>
        <time>2019-09-19T14:06:25.001Z</time>
      </trkpt>
      <trkpt lat="50.04262" lon="4.08418">
        <ele>228.278</ele>
        <time>2019-09-19T14:06:28.001Z</time>
      </trkpt>
      <trkpt lat="50.0426" lon="4.08434">
        <ele>228.402</ele>
        <time>2019-09-19T14:06:31.001Z</time>
      </trkpt>
      <trkpt lat="50.04259" lon="4.08449">
        <ele>228.36</ele>
        <time>2019-09-19T14:06:34.001Z</time>
      </trkpt>
      <trkpt lat="50.04257" lon="4.08464">
        <ele>227.926</ele>
        <time>2019-09-19T14:06:37.001Z</time>
      </trkpt>
      <trkpt lat="50.04255" lon="4.08477">
        <ele>227.742</ele>
        <time>2019-09-19T14:06:40.001Z</time>
      </trkpt>
      <trkpt lat="50.04254" lon="4.08491">
        <ele>227.851</ele>
        <time>2019-09-19T14:06:43.001Z</time>
      </trkpt>
      <trkpt lat="50.04252" lon="4.08504">
        <ele>228.066</ele>
        <time>2019-09-19T14:06:46.001Z</time>
      </trkpt>
      <trkpt lat="50.04251" lon="4.08514">
        <ele>228.607</ele>
        <time>2019-09-19T14:06:49.001Z</time>
      </trkpt>
      <trkpt lat="50.04249" lon="4.08525">
        <ele>229.098</ele>
        <time>2019-09-19T14:06:52.001Z</time>
      </trkpt>
      <trkpt lat="50.04248" lon="4.08537">
        <ele>229.296</ele>
        <time>2019-09-19T14:06:55.001Z</time>
      </trkpt>
      <trkpt lat="50.04246" lon="4.08549">
        <ele>229.544</ele>
        <time>2019-09-19T14:06:58.001Z</time>
      </trkpt>
      <trkpt lat="50.04244" lon="4.08561">
        <ele>229.756</ele>
        <time>2019-09-19T14:07:01.001Z</time>
      </trkpt>
      <trkpt lat="50.04243" lon="4.08573">
        <ele>230.123</ele>
        <time>2019-09-19T14:07:04.001Z</time>
      </trkpt>
      <trkpt lat="50.04242" lon="4.08585">
        <ele>230.644</ele>
        <time>2019-09-19T14:07:07.001Z</time>
      </trkpt>
      <trkpt lat="50.04241" lon="4.08597">
        <ele>231.258</ele>
        <time>2019-09-19T14:07:10.001Z</time>
      </trkpt>
      <trkpt lat="50.0424" lon="4.08609">
        <ele>231.444</ele>
        <time>2019-09-19T14:07:13.001Z</time>
      </trkpt>
      <trkpt lat="50.04238" lon="4.08622">
        <ele>231.446</ele>
        <time>2019-09-19T14:07:16.000Z</time>
      </trkpt>
      <trkpt lat="50.04237" lon="4.08636">
        <ele>231.532</ele>
        <time>2019-09-19T14:07:19.001Z</time>
      </trkpt>
      <trkpt lat="50.04235" lon="4.08652">
        <ele>231.856</ele>
        <time>2019-09-19T14:07:22.001Z</time>
      </trkpt>
      <trkpt lat="50.04233" lon="4.08668">
        <ele>232.102</ele>
        <time>2019-09-19T14:07:25.001Z</time>
      </trkpt>
      <trkpt lat="50.04231" lon="4.08685">
        <ele>232.833</ele>
        <time>2019-09-19T14:07:28.001Z</time>
      </trkpt>
      <trkpt lat="50.04228" lon="4.08704">
        <ele>233.377</ele>
        <time>2019-09-19T14:07:31.001Z</time>
      </trkpt>
      <trkpt lat="50.04226" lon="4.08722">
        <ele>234.436</ele>
        <time>2019-09-19T14:07:34.001Z</time>
      </trkpt>
      <trkpt lat="50.04223" lon="4.08745">
        <ele>234.388</ele>
        <time>2019-09-19T14:07:37.001Z</time>
      </trkpt>
      <trkpt lat="50.04221" lon="4.08769">
        <ele>233.973</ele>
        <time>2019-09-19T14:07:40.001Z</time>
      </trkpt>
      <trkpt lat="50.04222" lon="4.08795">
        <ele>233.698</ele>
        <time>2019-09-19T14:07:43.001Z</time>
      </trkpt>
      <trkpt lat="50.04232" lon="4.08822">
        <ele>233.287</ele>
        <time>2019-09-19T14:07:46.001Z</time>
      </trkpt>
      <trkpt lat="50.04246" lon="4.08847">
        <ele>232.517</ele>
        <time>2019-09-19T14:07:49.001Z</time>
      </trkpt>
      <trkpt lat="50.04261" lon="4.08871">
        <ele>231.458</ele>
        <time>2019-09-19T14:07:52.001Z</time>
      </trkpt>
      <trkpt lat="50.04274" lon="4.08901">
        <ele>230.673</ele>
        <time>2019-09-19T14:07:55.001Z</time>
      </trkpt>
      <trkpt lat="50.04277" lon="4.08933">
        <ele>230.492</ele>
        <time>2019-09-19T14:07:58.001Z</time>
      </trkpt>
      <trkpt lat="50.04274" lon="4.08963">
        <ele>230.122</ele>
        <time>2019-09-19T14:08:01.001Z</time>
      </trkpt>
      <trkpt lat="50.04268" lon="4.08988">
        <ele>229.015</ele>
        <time>2019-09-19T14:08:04.001Z</time>
      </trkpt>
      <trkpt lat="50.04262" lon="4.09007">
        <ele>228.638</ele>
        <time>2019-09-19T14:08:07.001Z</time>
      </trkpt>
      <trkpt lat="50.04254" lon="4.09021">
        <ele>228.008</ele>
        <time>2019-09-19T14:08:10.001Z</time>
      </trkpt>
      <trkpt lat="50.04248" lon="4.0903">
        <ele>228.339</ele>
        <time>2019-09-19T14:08:13.001Z</time>
      </trkpt>
      <trkpt lat="50.0424" lon="4.09037">
        <ele>228.269</ele>
        <time>2019-09-19T14:08:16.000Z</time>
      </trkpt>
      <trkpt lat="50.04232" lon="4.09043">
        <ele>228.558</ele>
        <time>2019-09-19T14:08:19.001Z</time>
      </trkpt>
      <trkpt lat="50.04224" lon="4.09048">
        <ele>228.636</ele>
        <time>2019-09-19T14:08:22.001Z</time>
      </trkpt>
      <trkpt lat="50.04218" lon="4.09054">
        <ele>228.999</ele>
        <time>2019-09-19T14:08:25.001Z</time>
      </trkpt>
      <trkpt lat="50.04211" lon="4.09058">
        <ele>229.995</ele>
        <time>2019-09-19T14:08:28.001Z</time>
      </trkpt>
      <trkpt lat="50.04205" lon="4.09061">
        <ele>230.728</ele>
        <time>2019-09-19T14:08:31.001Z</time>
      </trkpt>
      <trkpt lat="50.04199" lon="4.09062">
        <ele>231.124</ele>
        <time>2019-09-19T14:08:34.001Z</time>
      </trkpt>
      <trkpt lat="50.04191" lon="4.09063">
        <ele>231.499</ele>
        <time>2019-09-19T14:08:37.001Z</time>
      </trkpt>
      <trkpt lat="50.04184" lon="4.09065">
        <ele>231.68</ele>
        <time>2019-09-19T14:08:40.001Z</time>
      </trkpt>
      <trkpt lat="50.04176" lon="4.09064">
        <ele>232.142</ele>
        <time>2019-09-19T14:08:43.001Z</time>
      </trkpt>
      <trkpt lat="50.04168" lon="4.09063">
        <ele>232.692</ele>
        <time>2019-09-19T14:08:46.001Z</time>
      </trkpt>
      <trkpt lat="50.0416" lon="4.09062">
        <ele>233.176</ele>
        <time>2019-09-19T14:08:49.001Z</time>
      </trkpt>
      <trkpt lat="50.04152" lon="4.09062">
        <ele>233.851</ele>
        <time>2019-09-19T14:08:52.001Z</time>
      </trkpt>
      <trkpt lat="50.04145" lon="4.09064">
        <ele>233.742</ele>
        <time>2019-09-19T14:08:55.001Z</time>
      </trkpt>
      <trkpt lat="50.04138" lon="4.09066">
        <ele>234.124</ele>
        <time>2019-09-19T14:08:58.001Z</time>
      </trkpt>
      <trkpt lat="50.04133" lon="4.09068">
        <ele>234.635</ele>
        <time>2019-09-19T14:09:01.001Z</time>
      </trkpt>
      <trkpt lat="50.04127" lon="4.09072">
        <ele>234.447</ele>
        <time>2019-09-19T14:09:04.001Z</time>
      </trkpt>
      <trkpt lat="50.04121" lon="4.09075">
        <ele>234.269</ele>
        <time>2019-09-19T14:09:07.001Z</time>
      </trkpt>
      <trkpt lat="50.04115" lon="4.0908">
        <ele>234.293</ele>
        <time>2019-09-19T14:09:10.001Z</time>
      </trkpt>
      <trkpt lat="50.04109" lon="4.09085">
        <ele>234.349</ele>
        <time>2019-09-19T14:09:13.001Z</time>
      </trkpt>
      <trkpt lat="50.04105" lon="4.09091">
        <ele>235.094</ele>
        <time>2019-09-19T14:09:16.000Z</time>
      </trkpt>
      <trkpt lat="50.04101" lon="4.09098">
        <ele>236.039</ele>
        <time>2019-09-19T14:09:19.001Z</time>
      </trkpt>
      <trkpt lat="50.04098" lon="4.09106">
        <ele>236.913</ele>
        <time>2019-09-19T14:09:22.001Z</time>
      </trkpt>
      <trkpt lat="50.04096" lon="4.09115">
        <ele>237.696</ele>
        <time>2019-09-19T14:09:25.001Z</time>
      </trkpt>
      <trkpt lat="50.04093" lon="4.09124">
        <ele>238.787</ele>
        <time>2019-09-19T14:09:28.001Z</time>
      </trkpt>
      <trkpt lat="50.04091" lon="4.09133">
        <ele>239.588</ele>
        <time>2019-09-19T14:09:31.001Z</time>
      </trkpt>
      <trkpt lat="50.04088" lon="4.09145">
        <ele>240.509</ele>
        <time>2019-09-19T14:09:34.001Z</time>
      </trkpt>
      <trkpt lat="50.04087" lon="4.09155">
        <ele>241.235</ele>
        <time>2019-09-19T14:09:37.001Z</time>
      </trkpt>
      <trkpt lat="50.04085" lon="4.09165">
        <ele>242.3</ele>
        <time>2019-09-19T14:09:40.001Z</time>
      </trkpt>
      <trkpt lat="50.04083" lon="4.09175">
        <ele>244.286</ele>
        <time>2019-09-19T14:09:43.001Z</time>
      </trkpt>
      <trkpt lat="50.0408" lon="4.09185">
        <ele>246.601</ele>
        <time>2019-09-19T14:09:46.001Z</time>
      </trkpt>
      <trkpt lat="50.0408" lon="4.09197">
        <ele>247.964</ele>
        <time>2019-09-19T14:09:49.001Z</time>
      </trkpt>
      <trkpt lat="50.0408" lon="4.0921">
        <ele>249.281</ele>
        <time>2019-09-19T14:09:52.001Z</time>
      </trkpt>
      <trkpt lat="50.04082" lon="4.09223">
        <ele>249.502</ele>
        <time>2019-09-19T14:09:55.001Z</time>
      </trkpt>
      <trkpt lat="50.04084" lon="4.09236">
        <ele>248.815</ele>
        <time>2019-09-19T14:09:58.001Z</time>
      </trkpt>
      <trkpt lat="50.04085" lon="4.0925">
        <ele>246.599</ele>
        <time>2019-09-19T14:10:01.001Z</time>
      </trkpt>
      <trkpt lat="50.04087" lon="4.09264">
        <ele>245.713</ele>
        <time>2019-09-19T14:10:04.001Z</time>
      </trkpt>
      <trkpt lat="50.04089" lon="4.09278">
        <ele>244.77</ele>
        <time>2019-09-19T14:10:07.001Z</time>
      </trkpt>
      <trkpt lat="50.04091" lon="4.09293">
        <ele>243.931</ele>
        <time>2019-09-19T14:10:10.001Z</time>
      </trkpt>
      <trkpt lat="50.04093" lon="4.09309">
        <ele>243.804</ele>
        <time>2019-09-19T14:10:13.001Z</time>
      </trkpt>
      <trkpt lat="50.04095" lon="4.09325">
        <ele>243.879</ele>
        <time>2019-09-19T14:10:16.000Z</time>
      </trkpt>
      <trkpt lat="50.04098" lon="4.09342">
        <ele>244.82</ele>
        <time>2019-09-19T14:10:19.001Z</time>
      </trkpt>
      <trkpt lat="50.041" lon="4.09358">
        <ele>245.204</ele>
        <time>2019-09-19T14:10:22.001Z</time>
      </trkpt>
      <trkpt lat="50.04103" lon="4.09374">
        <ele>245.909</ele>
        <time>2019-09-19T14:10:25.001Z</time>
      </trkpt>
      <trkpt lat="50.04106" lon="4.09393">
        <ele>246.214</ele>
        <time>2019-09-19T14:10:28.001Z</time>
      </trkpt>
      <trkpt lat="50.04106" lon="4.09413">
        <ele>246.893</ele>
        <time>2019-09-19T14:10:31.001Z</time>
      </trkpt>
      <trkpt lat="50.04108" lon="4.09433">
        <ele>247.484</ele>
        <time>2019-09-19T14:10:34.001Z</time>
      </trkpt>
      <trkpt lat="50.04111" lon="4.09452">
        <ele>247.495</ele>
        <time>2019-09-19T14:10:37.001Z</time>
      </trkpt>
      <trkpt lat="50.04115" lon="4.09471">
        <ele>247.462</ele>
        <time>2019-09-19T14:10:40.001Z</time>
      </trkpt>
      <trkpt lat="50.04118" lon="4.0949">
        <ele>246.783</ele>
        <time>2019-09-19T14:10:43.001Z</time>
      </trkpt>
      <trkpt lat="50.0412" lon="4.0951">
        <ele>245.931</ele>
        <time>2019-09-19T14:10:46.001Z</time>
      </trkpt>
      <trkpt lat="50.04122" lon="4.0953">
        <ele>244.37</ele>
        <time>2019-09-19T14:10:49.001Z</time>
      </trkpt>
      <trkpt lat="50.04125" lon="4.09549">
        <ele>243.739</ele>
        <time>2019-09-19T14:10:52.001Z</time>
      </trkpt>
      <trkpt lat="50.04127" lon="4.09567">
        <ele>242.79</ele>
        <time>2019-09-19T14:10:55.001Z</time>
      </trkpt>
      <trkpt lat="50.04128" lon="4.09583">
        <ele>242.459</ele>
        <time>2019-09-19T14:10:58.001Z</time>
      </trkpt>
      <trkpt lat="50.04129" lon="4.09597">
        <ele>241.591</ele>
        <time>2019-09-19T14:11:01.001Z</time>
      </trkpt>
      <trkpt lat="50.0413" lon="4.09612">
        <ele>240.809</ele>
        <time>2019-09-19T14:11:04.001Z</time>
      </trkpt>
      <trkpt lat="50.0413" lon="4.09625">
        <ele>240.643</ele>
        <time>2019-09-19T14:11:07.001Z</time>
      </trkpt>
      <trkpt lat="50.04127" lon="4.09638">
        <ele>240.577</ele>
        <time>2019-09-19T14:11:10.001Z</time>
      </trkpt>
      <trkpt lat="50.04119" lon="4.09646">
        <ele>241.349</ele>
        <time>2019-09-19T14:11:13.001Z</time>
      </trkpt>
      <trkpt lat="50.04109" lon="4.09645">
        <ele>241.497</ele>
        <time>2019-09-19T14:11:16.000Z</time>
      </trkpt>
      <trkpt lat="50.04099" lon="4.09645">
        <ele>242.047</ele>
        <time>2019-09-19T14:11:19.001Z</time>
      </trkpt>
      <trkpt lat="50.04089" lon="4.09648">
        <ele>242.13</ele>
        <time>2019-09-19T14:11:22.001Z</time>
      </trkpt>
      <trkpt lat="50.04081" lon="4.09654">
        <ele>242.518</ele>
        <time>2019-09-19T14:11:25.001Z</time>
      </trkpt>
      <trkpt lat="50.04074" lon="4.09664">
        <ele>241.731</ele>
        <time>2019-09-19T14:11:28.001Z</time>
      </trkpt>
      <trkpt lat="50.04069" lon="4.09676">
        <ele>242.158</ele>
        <time>2019-09-19T14:11:31.001Z</time>
      </trkpt>
      <trkpt lat="50.04065" lon="4.09689">
        <ele>243.048</ele>
        <time>2019-09-19T14:11:34.001Z</time>
      </trkpt>
      <trkpt lat="50.04062" lon="4.09704">
        <ele>244.012</ele>
        <time>2019-09-19T14:11:37.001Z</time>
      </trkpt>
      <trkpt lat="50.04058" lon="4.09723">
        <ele>244.63</ele>
        <time>2019-09-19T14:11:40.001Z</time>
      </trkpt>
      <trkpt lat="50.04056" lon="4.09742">
        <ele>245.051</ele>
        <time>2019-09-19T14:11:43.001Z</time>
      </trkpt>
      <trkpt lat="50.04055" lon="4.09756">
        <ele>245.428</ele>
        <time>2019-09-19T14:11:46.001Z</time>
      </trkpt>
      <trkpt lat="50.04055" lon="4.09766">
        <ele>245.707</ele>
        <time>2019-09-19T14:11:49.001Z</time>
      </trkpt>
      <trkpt lat="50.04055" lon="4.09775">
        <ele>245.486</ele>
        <time>2019-09-19T14:11:52.001Z</time>
      </trkpt>
      <trkpt lat="50.04055" lon="4.09778">
        <ele>245.15</ele>
        <time>2019-09-19T14:11:55.001Z</time>
      </trkpt>
      <trkpt lat="50.04055" lon="4.09778">
        <ele>245.15</ele>
        <time>2019-09-19T14:13:10.001Z</time>
      </trkpt>
      <trkpt lat="50.04055" lon="4.09778">
        <ele>245.118</ele>
        <time>2019-09-19T14:13:13.001Z</time>
      </trkpt>
      <trkpt lat="50.04044" lon="4.0979">
        <ele>245.341</ele>
        <time>2019-09-19T14:13:19.001Z</time>
      </trkpt>
      <trkpt lat="50.04033" lon="4.098">
        <ele>245.451</ele>
        <time>2019-09-19T14:13:22.001Z</time>
      </trkpt>
      <trkpt lat="50.0402" lon="4.09809">
        <ele>245.331</ele>
        <time>2019-09-19T14:13:25.001Z</time>
      </trkpt>
      <trkpt lat="50.04007" lon="4.09815">
        <ele>244.899</ele>
        <time>2019-09-19T14:13:28.001Z</time>
      </trkpt>
      <trkpt lat="50.03991" lon="4.09814">
        <ele>245.311</ele>
        <time>2019-09-19T14:13:31.001Z</time>
      </trkpt>
      <trkpt lat="50.03979" lon="4.09813">
        <ele>244.768</ele>
        <time>2019-09-19T14:13:34.001Z</time>
      </trkpt>
      <trkpt lat="50.03967" lon="4.0981">
        <ele>244.637</ele>
        <time>2019-09-19T14:13:37.001Z</time>
      </trkpt>
      <trkpt lat="50.03956" lon="4.09809">
        <ele>244.191</ele>
        <time>2019-09-19T14:13:40.001Z</time>
      </trkpt>
      <trkpt lat="50.03947" lon="4.09808">
        <ele>244.012</ele>
        <time>2019-09-19T14:13:43.001Z</time>
      </trkpt>
      <trkpt lat="50.03938" lon="4.09805">
        <ele>244.208</ele>
        <time>2019-09-19T14:13:46.001Z</time>
      </trkpt>
      <trkpt lat="50.03929" lon="4.09802">
        <ele>245.15</ele>
        <time>2019-09-19T14:13:49.001Z</time>
      </trkpt>
      <trkpt lat="50.03921" lon="4.098">
        <ele>245.402</ele>
        <time>2019-09-19T14:13:52.001Z</time>
      </trkpt>
      <trkpt lat="50.03912" lon="4.09798">
        <ele>245.807</ele>
        <time>2019-09-19T14:13:55.001Z</time>
      </trkpt>
      <trkpt lat="50.03904" lon="4.09794">
        <ele>246.323</ele>
        <time>2019-09-19T14:13:58.001Z</time>
      </trkpt>
      <trkpt lat="50.03897" lon="4.09791">
        <ele>246.562</ele>
        <time>2019-09-19T14:14:01.001Z</time>
      </trkpt>
      <trkpt lat="50.0389" lon="4.09788">
        <ele>246.64</ele>
        <time>2019-09-19T14:14:04.001Z</time>
      </trkpt>
      <trkpt lat="50.03881" lon="4.09784">
        <ele>246.285</ele>
        <time>2019-09-19T14:14:07.001Z</time>
      </trkpt>
      <trkpt lat="50.03872" lon="4.09782">
        <ele>245.552</ele>
        <time>2019-09-19T14:14:10.001Z</time>
      </trkpt>
      <trkpt lat="50.03862" lon="4.0978">
        <ele>245.173</ele>
        <time>2019-09-19T14:14:13.001Z</time>
      </trkpt>
      <trkpt lat="50.03852" lon="4.0978">
        <ele>244.461</ele>
        <time>2019-09-19T14:14:16.000Z</time>
      </trkpt>
      <trkpt lat="50.03841" lon="4.09779">
        <ele>244.199</ele>
        <time>2019-09-19T14:14:19.001Z</time>
      </trkpt>
      <trkpt lat="50.03828" lon="4.09776">
        <ele>243.764</ele>
        <time>2019-09-19T14:14:22.001Z</time>
      </trkpt>
      <trkpt lat="50.03815" lon="4.09772">
        <ele>243.795</ele>
        <time>2019-09-19T14:14:25.001Z</time>
      </trkpt>
      <trkpt lat="50.03802" lon="4.09767">
        <ele>243.777</ele>
        <time>2019-09-19T14:14:28.001Z</time>
      </trkpt>
      <trkpt lat="50.0379" lon="4.0976">
        <ele>244.469</ele>
        <time>2019-09-19T14:14:31.001Z</time>
      </trkpt>
      <trkpt lat="50.03778" lon="4.09749">
        <ele>243.713</ele>
        <time>2019-09-19T14:14:34.001Z</time>
      </trkpt>
      <trkpt lat="50.03767" lon="4.09738">
        <ele>244.661</ele>
        <time>2019-09-19T14:14:37.001Z</time>
      </trkpt>
      <trkpt lat="50.03759" lon="4.09727">
        <ele>244.996</ele>
        <time>2019-09-19T14:14:40.001Z</time>
      </trkpt>
      <trkpt lat="50.03749" lon="4.09716">
        <ele>244.17</ele>
        <time>2019-09-19T14:14:43.001Z</time>
      </trkpt>
      <trkpt lat="50.0374" lon="4.09707">
        <ele>244.371</ele>
        <time>2019-09-19T14:14:46.001Z</time>
      </trkpt>
      <trkpt lat="50.0373" lon="4.09697">
        <ele>244.716</ele>
        <time>2019-09-19T14:14:49.001Z</time>
      </trkpt>
      <trkpt lat="50.0372" lon="4.09686">
        <ele>245.195</ele>
        <time>2019-09-19T14:14:52.001Z</time>
      </trkpt>
      <trkpt lat="50.0371" lon="4.09676">
        <ele>245.649</ele>
        <time>2019-09-19T14:14:55.001Z</time>
      </trkpt>
      <trkpt lat="50.037" lon="4.09667">
        <ele>245.779</ele>
        <time>2019-09-19T14:14:58.001Z</time>
      </trkpt>
      <trkpt lat="50.03691" lon="4.09658">
        <ele>246.367</ele>
        <time>2019-09-19T14:15:01.001Z</time>
      </trkpt>
      <trkpt lat="50.03682" lon="4.0965">
        <ele>247.127</ele>
        <time>2019-09-19T14:15:04.001Z</time>
      </trkpt>
      <trkpt lat="50.03673" lon="4.09642">
        <ele>247.966</ele>
        <time>2019-09-19T14:15:07.001Z</time>
      </trkpt>
      <trkpt lat="50.03663" lon="4.09633">
        <ele>248.379</ele>
        <time>2019-09-19T14:15:10.001Z</time>
      </trkpt>
      <trkpt lat="50.03654" lon="4.09624">
        <ele>248.857</ele>
        <time>2019-09-19T14:15:13.001Z</time>
      </trkpt>
      <trkpt lat="50.03646" lon="4.09615">
        <ele>249.515</ele>
        <time>2019-09-19T14:15:16.000Z</time>
      </trkpt>
      <trkpt lat="50.03638" lon="4.09606">
        <ele>250.08</ele>
        <time>2019-09-19T14:15:19.001Z</time>
      </trkpt>
      <trkpt lat="50.03631" lon="4.09598">
        <ele>250.859</ele>
        <time>2019-09-19T14:15:22.001Z</time>
      </trkpt>
      <trkpt lat="50.03624" lon="4.0959">
        <ele>252.194</ele>
        <time>2019-09-19T14:15:25.001Z</time>
      </trkpt>
      <trkpt lat="50.03616" lon="4.09582">
        <ele>253.713</ele>
        <time>2019-09-19T14:15:28.001Z</time>
      </trkpt>
      <trkpt lat="50.03608" lon="4.09576">
        <ele>254.492</ele>
        <time>2019-09-19T14:15:31.001Z</time>
      </trkpt>
      <trkpt lat="50.036" lon="4.0957">
        <ele>254.83</ele>
        <time>2019-09-19T14:15:34.001Z</time>
      </trkpt>
      <trkpt lat="50.03591" lon="4.09568">
        <ele>254.526</ele>
        <time>2019-09-19T14:15:37.001Z</time>
      </trkpt>
      <trkpt lat="50.03582" lon="4.09569">
        <ele>254.299</ele>
        <time>2019-09-19T14:15:40.001Z</time>
      </trkpt>
      <trkpt lat="50.03575" lon="4.09576">
        <ele>255.145</ele>
        <time>2019-09-19T14:15:43.001Z</time>
      </trkpt>
      <trkpt lat="50.03569" lon="4.09587">
        <ele>256.644</ele>
        <time>2019-09-19T14:15:46.001Z</time>
      </trkpt>
      <trkpt lat="50.03564" lon="4.09598">
        <ele>258.586</ele>
        <time>2019-09-19T14:15:49.001Z</time>
      </trkpt>
      <trkpt lat="50.03559" lon="4.09612">
        <ele>260.92</ele>
        <time>2019-09-19T14:15:52.001Z</time>
      </trkpt>
      <trkpt lat="50.03554" lon="4.09627">
        <ele>261.998</ele>
        <time>2019-09-19T14:15:55.001Z</time>
      </trkpt>
      <trkpt lat="50.0355" lon="4.09642">
        <ele>263.38</ele>
        <time>2019-09-19T14:15:58.001Z</time>
      </trkpt>
      <trkpt lat="50.03546" lon="4.09659">
        <ele>264.384</ele>
        <time>2019-09-19T14:16:01.001Z</time>
      </trkpt>
      <trkpt lat="50.03544" lon="4.09677">
        <ele>265.387</ele>
        <time>2019-09-19T14:16:04.001Z</time>
      </trkpt>
      <trkpt lat="50.0354" lon="4.09695">
        <ele>266.164</ele>
        <time>2019-09-19T14:16:07.001Z</time>
      </trkpt>
      <trkpt lat="50.03532" lon="4.09718">
        <ele>265.953</ele>
        <time>2019-09-19T14:16:10.001Z</time>
      </trkpt>
      <trkpt lat="50.03527" lon="4.09742">
        <ele>266.769</ele>
        <time>2019-09-19T14:16:13.001Z</time>
      </trkpt>
      <trkpt lat="50.0352" lon="4.09765">
        <ele>267.495</ele>
        <time>2019-09-19T14:16:16.000Z</time>
      </trkpt>
      <trkpt lat="50.03514" lon="4.09791">
        <ele>267.362</ele>
        <time>2019-09-19T14:16:19.001Z</time>
      </trkpt>
      <trkpt lat="50.0351" lon="4.09819">
        <ele>267.147</ele>
        <time>2019-09-19T14:16:22.001Z</time>
      </trkpt>
      <trkpt lat="50.03505" lon="4.09846">
        <ele>266.77</ele>
        <time>2019-09-19T14:16:25.001Z</time>
      </trkpt>
      <trkpt lat="50.035" lon="4.09872">
        <ele>266.668</ele>
        <time>2019-09-19T14:16:28.001Z</time>
      </trkpt>
      <trkpt lat="50.03496" lon="4.09899">
        <ele>266.824</ele>
        <time>2019-09-19T14:16:31.001Z</time>
      </trkpt>
      <trkpt lat="50.03491" lon="4.09925">
        <ele>266.755</ele>
        <time>2019-09-19T14:16:34.001Z</time>
      </trkpt>
      <trkpt lat="50.03487" lon="4.09951">
        <ele>266.856</ele>
        <time>2019-09-19T14:16:37.001Z</time>
      </trkpt>
      <trkpt lat="50.03483" lon="4.09975">
        <ele>266.899</ele>
        <time>2019-09-19T14:16:40.001Z</time>
      </trkpt>
      <trkpt lat="50.03479" lon="4.09999">
        <ele>265.726</ele>
        <time>2019-09-19T14:16:43.001Z</time>
      </trkpt>
      <trkpt lat="50.03476" lon="4.10024">
        <ele>264.492</ele>
        <time>2019-09-19T14:16:46.001Z</time>
      </trkpt>
      <trkpt lat="50.03472" lon="4.10047">
        <ele>263.203</ele>
        <time>2019-09-19T14:16:49.001Z</time>
      </trkpt>
      <trkpt lat="50.03469" lon="4.10071">
        <ele>261.764</ele>
        <time>2019-09-19T14:16:52.001Z</time>
      </trkpt>
      <trkpt lat="50.03465" lon="4.10094">
        <ele>260.056</ele>
        <time>2019-09-19T14:16:55.001Z</time>
      </trkpt>
      <trkpt lat="50.03461" lon="4.10117">
        <ele>258.643</ele>
        <time>2019-09-19T14:16:58.001Z</time>
      </trkpt>
      <trkpt lat="50.03458" lon="4.10135">
        <ele>256.957</ele>
        <time>2019-09-19T14:17:01.001Z</time>
      </trkpt>
      <trkpt lat="50.03456" lon="4.10151">
        <ele>255.143</ele>
        <time>2019-09-19T14:17:04.001Z</time>
      </trkpt>
      <trkpt lat="50.03462" lon="4.10163">
        <ele>252.319</ele>
        <time>2019-09-19T14:17:07.001Z</time>
      </trkpt>
      <trkpt lat="50.0347" lon="4.10175">
        <ele>251.33</ele>
        <time>2019-09-19T14:17:10.001Z</time>
      </trkpt>
      <trkpt lat="50.03475" lon="4.10191">
        <ele>250.304</ele>
        <time>2019-09-19T14:17:13.001Z</time>
      </trkpt>
      <trkpt lat="50.03482" lon="4.10206">
        <ele>248.815</ele>
        <time>2019-09-19T14:17:16.000Z</time>
      </trkpt>
      <trkpt lat="50.03486" lon="4.10226">
        <ele>247.03</ele>
        <time>2019-09-19T14:17:19.001Z</time>
      </trkpt>
      <trkpt lat="50.0349" lon="4.10246">
        <ele>247.123</ele>
        <time>2019-09-19T14:17:22.001Z</time>
      </trkpt>
      <trkpt lat="50.03494" lon="4.10265">
        <ele>248.32</ele>
        <time>2019-09-19T14:17:25.001Z</time>
      </trkpt>
      <trkpt lat="50.03496" lon="4.10284">
        <ele>250.161</ele>
        <time>2019-09-19T14:17:28.001Z</time>
      </trkpt>
      <trkpt lat="50.03494" lon="4.10301">
        <ele>251.004</ele>
        <time>2019-09-19T14:17:31.001Z</time>
      </trkpt>
      <trkpt lat="50.03492" lon="4.10313">
        <ele>251.043</ele>
        <time>2019-09-19T14:17:34.001Z</time>
      </trkpt>
      <trkpt lat="50.0349" lon="4.10324">
        <ele>250.086</ele>
        <time>2019-09-19T14:17:37.001Z</time>
      </trkpt>
      <trkpt lat="50.03488" lon="4.10332">
        <ele>248.796</ele>
        <time>2019-09-19T14:17:40.001Z</time>
      </trkpt>
      <trkpt lat="50.03488" lon="4.10342">
        <ele>246.675</ele>
        <time>2019-09-19T14:17:43.001Z</time>
      </trkpt>
      <trkpt lat="50.03492" lon="4.10357">
        <ele>245.258</ele>
        <time>2019-09-19T14:17:46.001Z</time>
      </trkpt>
      <trkpt lat="50.03498" lon="4.10372">
        <ele>244.09</ele>
        <time>2019-09-19T14:17:49.001Z</time>
      </trkpt>
      <trkpt lat="50.03505" lon="4.10389">
        <ele>243.823</ele>
        <time>2019-09-19T14:17:52.001Z</time>
      </trkpt>
      <trkpt lat="50.03513" lon="4.10406">
        <ele>244.133</ele>
        <time>2019-09-19T14:17:55.001Z</time>
      </trkpt>
      <trkpt lat="50.0352" lon="4.10421">
        <ele>245.192</ele>
        <time>2019-09-19T14:17:58.001Z</time>
      </trkpt>
      <trkpt lat="50.03527" lon="4.10436">
        <ele>246.152</ele>
        <time>2019-09-19T14:18:01.001Z</time>
      </trkpt>
      <trkpt lat="50.03534" lon="4.10451">
        <ele>247.055</ele>
        <time>2019-09-19T14:18:04.001Z</time>
      </trkpt>
      <trkpt lat="50.03541" lon="4.10466">
        <ele>247.148</ele>
        <time>2019-09-19T14:18:07.001Z</time>
      </trkpt>
      <trkpt lat="50.03547" lon="4.1048">
        <ele>247.501</ele>
        <time>2019-09-19T14:18:10.001Z</time>
      </trkpt>
      <trkpt lat="50.03553" lon="4.10495">
        <ele>248.088</ele>
        <time>2019-09-19T14:18:13.001Z</time>
      </trkpt>
      <trkpt lat="50.03557" lon="4.10511">
        <ele>249.378</ele>
        <time>2019-09-19T14:18:16.000Z</time>
      </trkpt>
      <trkpt lat="50.0355" lon="4.10521">
        <ele>250.02</ele>
        <time>2019-09-19T14:18:19.001Z</time>
      </trkpt>
      <trkpt lat="50.03536" lon="4.10514">
        <ele>249.801</ele>
        <time>2019-09-19T14:18:22.001Z</time>
      </trkpt>
      <trkpt lat="50.03523" lon="4.10509">
        <ele>249.563</ele>
        <time>2019-09-19T14:18:25.001Z</time>
      </trkpt>
      <trkpt lat="50.0351" lon="4.10509">
        <ele>248.672</ele>
        <time>2019-09-19T14:18:28.001Z</time>
      </trkpt>
      <trkpt lat="50.03496" lon="4.10513">
        <ele>248.209</ele>
        <time>2019-09-19T14:18:31.001Z</time>
      </trkpt>
      <trkpt lat="50.03481" lon="4.10522">
        <ele>247.829</ele>
        <time>2019-09-19T14:18:34.001Z</time>
      </trkpt>
      <trkpt lat="50.03467" lon="4.10534">
        <ele>247.679</ele>
        <time>2019-09-19T14:18:37.001Z</time>
      </trkpt>
      <trkpt lat="50.03452" lon="4.10546">
        <ele>247.475</ele>
        <time>2019-09-19T14:18:40.001Z</time>
      </trkpt>
      <trkpt lat="50.03436" lon="4.10559">
        <ele>246.946</ele>
        <time>2019-09-19T14:18:43.001Z</time>
      </trkpt>
      <trkpt lat="50.0342" lon="4.10569">
        <ele>246.522</ele>
        <time>2019-09-19T14:18:46.001Z</time>
      </trkpt>
      <trkpt lat="50.03402" lon="4.10575">
        <ele>246.383</ele>
        <time>2019-09-19T14:18:49.001Z</time>
      </trkpt>
      <trkpt lat="50.03383" lon="4.10574">
        <ele>245.844</ele>
        <time>2019-09-19T14:18:52.001Z</time>
      </trkpt>
      <trkpt lat="50.03366" lon="4.10568">
        <ele>245.366</ele>
        <time>2019-09-19T14:18:55.001Z</time>
      </trkpt>
      <trkpt lat="50.03349" lon="4.10558">
        <ele>244.613</ele>
        <time>2019-09-19T14:18:58.001Z</time>
      </trkpt>
      <trkpt lat="50.03335" lon="4.10546">
        <ele>244.331</ele>
        <time>2019-09-19T14:19:01.001Z</time>
      </trkpt>
      <trkpt lat="50.03322" lon="4.10535">
        <ele>243.677</ele>
        <time>2019-09-19T14:19:04.001Z</time>
      </trkpt>
      <trkpt lat="50.03311" lon="4.10523">
        <ele>242.817</ele>
        <time>2019-09-19T14:19:07.001Z</time>
      </trkpt>
      <trkpt lat="50.033" lon="4.10512">
        <ele>242.212</ele>
        <time>2019-09-19T14:19:10.001Z</time>
      </trkpt>
      <trkpt lat="50.03288" lon="4.10505">
        <ele>241.823</ele>
        <time>2019-09-19T14:19:13.001Z</time>
      </trkpt>
      <trkpt lat="50.03276" lon="4.10506">
        <ele>241.952</ele>
        <time>2019-09-19T14:19:16.000Z</time>
      </trkpt>
      <trkpt lat="50.03265" lon="4.10513">
        <ele>242.72</ele>
        <time>2019-09-19T14:19:19.001Z</time>
      </trkpt>
      <trkpt lat="50.03253" lon="4.10523">
        <ele>244.01</ele>
        <time>2019-09-19T14:19:22.001Z</time>
      </trkpt>
      <trkpt lat="50.0324" lon="4.10532">
        <ele>244.019</ele>
        <time>2019-09-19T14:19:25.001Z</time>
      </trkpt>
      <trkpt lat="50.03227" lon="4.10541">
        <ele>243.803</ele>
        <time>2019-09-19T14:19:28.001Z</time>
      </trkpt>
      <trkpt lat="50.03212" lon="4.1055">
        <ele>244.229</ele>
        <time>2019-09-19T14:19:31.001Z</time>
      </trkpt>
      <trkpt lat="50.03197" lon="4.10555">
        <ele>244.467</ele>
        <time>2019-09-19T14:19:34.001Z</time>
      </trkpt>
      <trkpt lat="50.03181" lon="4.10557">
        <ele>243.395</ele>
        <time>2019-09-19T14:19:37.001Z</time>
      </trkpt>
      <trkpt lat="50.03165" lon="4.10556">
        <ele>242.93</ele>
        <time>2019-09-19T14:19:40.001Z</time>
      </trkpt>
      <trkpt lat="50.0315" lon="4.10558">
        <ele>242.478</ele>
        <time>2019-09-19T14:19:43.001Z</time>
      </trkpt>
      <trkpt lat="50.03134" lon="4.1056">
        <ele>242.146</ele>
        <time>2019-09-19T14:19:46.001Z</time>
      </trkpt>
      <trkpt lat="50.03116" lon="4.10562">
        <ele>241.642</ele>
        <time>2019-09-19T14:19:49.001Z</time>
      </trkpt>
      <trkpt lat="50.03096" lon="4.10558">
        <ele>241.517</ele>
        <time>2019-09-19T14:19:52.001Z</time>
      </trkpt>
      <trkpt lat="50.03078" lon="4.10547">
        <ele>241.856</ele>
        <time>2019-09-19T14:19:55.001Z</time>
      </trkpt>
      <trkpt lat="50.03059" lon="4.10535">
        <ele>241.567</ele>
        <time>2019-09-19T14:19:58.001Z</time>
      </trkpt>
      <trkpt lat="50.03041" lon="4.10524">
        <ele>240.757</ele>
        <time>2019-09-19T14:20:01.001Z</time>
      </trkpt>
      <trkpt lat="50.0302" lon="4.10512">
        <ele>240.176</ele>
        <time>2019-09-19T14:20:04.001Z</time>
      </trkpt>
      <trkpt lat="50.03" lon="4.10501">
        <ele>239.591</ele>
        <time>2019-09-19T14:20:07.001Z</time>
      </trkpt>
      <trkpt lat="50.02979" lon="4.1049">
        <ele>238.616</ele>
        <time>2019-09-19T14:20:10.001Z</time>
      </trkpt>
      <trkpt lat="50.02959" lon="4.10479">
        <ele>237.608</ele>
        <time>2019-09-19T14:20:13.001Z</time>
      </trkpt>
      <trkpt lat="50.02941" lon="4.10469">
        <ele>236.586</ele>
        <time>2019-09-19T14:20:16.000Z</time>
      </trkpt>
      <trkpt lat="50.02925" lon="4.10461">
        <ele>235.496</ele>
        <time>2019-09-19T14:20:19.001Z</time>
      </trkpt>
      <trkpt lat="50.02911" lon="4.10455">
        <ele>234.402</ele>
        <time>2019-09-19T14:20:22.001Z</time>
      </trkpt>
      <trkpt lat="50.02901" lon="4.10452">
        <ele>234.621</ele>
        <time>2019-09-19T14:20:25.001Z</time>
      </trkpt>
      <trkpt lat="50.02892" lon="4.10459">
        <ele>234.257</ele>
        <time>2019-09-19T14:20:28.001Z</time>
      </trkpt>
      <trkpt lat="50.02885" lon="4.10476">
        <ele>234.506</ele>
        <time>2019-09-19T14:20:31.001Z</time>
      </trkpt>
      <trkpt lat="50.02878" lon="4.10497">
        <ele>234.642</ele>
        <time>2019-09-19T14:20:34.001Z</time>
      </trkpt>
      <trkpt lat="50.0287" lon="4.1052">
        <ele>234.141</ele>
        <time>2019-09-19T14:20:37.001Z</time>
      </trkpt>
      <trkpt lat="50.02862" lon="4.10542">
        <ele>233.641</ele>
        <time>2019-09-19T14:20:40.001Z</time>
      </trkpt>
      <trkpt lat="50.02853" lon="4.10565">
        <ele>232.428</ele>
        <time>2019-09-19T14:20:43.001Z</time>
      </trkpt>
      <trkpt lat="50.02846" lon="4.10588">
        <ele>231.765</ele>
        <time>2019-09-19T14:20:46.001Z</time>
      </trkpt>
      <trkpt lat="50.02839" lon="4.10608">
        <ele>230.799</ele>
        <time>2019-09-19T14:20:49.001Z</time>
      </trkpt>
      <trkpt lat="50.02834" lon="4.10622">
        <ele>229.839</ele>
        <time>2019-09-19T14:20:52.001Z</time>
      </trkpt>
      <trkpt lat="50.02829" lon="4.10637">
        <ele>229.451</ele>
        <time>2019-09-19T14:20:55.001Z</time>
      </trkpt>
      <trkpt lat="50.02824" lon="4.10657">
        <ele>229.726</ele>
        <time>2019-09-19T14:20:58.001Z</time>
      </trkpt>
      <trkpt lat="50.02818" lon="4.10678">
        <ele>230.378</ele>
        <time>2019-09-19T14:21:01.001Z</time>
      </trkpt>
      <trkpt lat="50.02806" lon="4.10696">
        <ele>231.358</ele>
        <time>2019-09-19T14:21:04.001Z</time>
      </trkpt>
      <trkpt lat="50.02792" lon="4.10708">
        <ele>232.419</ele>
        <time>2019-09-19T14:21:07.001Z</time>
      </trkpt>
      <trkpt lat="50.0278" lon="4.10717">
        <ele>232.882</ele>
        <time>2019-09-19T14:21:10.001Z</time>
      </trkpt>
      <trkpt lat="50.02772" lon="4.10725">
        <ele>232.534</ele>
        <time>2019-09-19T14:21:13.001Z</time>
      </trkpt>
      <trkpt lat="50.02767" lon="4.10731">
        <ele>231.644</ele>
        <time>2019-09-19T14:21:16.000Z</time>
      </trkpt>
      <trkpt lat="50.02761" lon="4.10739">
        <ele>231.112</ele>
        <time>2019-09-19T14:21:19.001Z</time>
      </trkpt>
      <trkpt lat="50.02758" lon="4.10749">
        <ele>231.629</ele>
        <time>2019-09-19T14:21:22.001Z</time>
      </trkpt>
      <trkpt lat="50.02755" lon="4.10759">
        <ele>232.135</ele>
        <time>2019-09-19T14:21:25.001Z</time>
      </trkpt>
      <trkpt lat="50.02752" lon="4.10769">
        <ele>232.986</ele>
        <time>2019-09-19T14:21:28.001Z</time>
      </trkpt>
      <trkpt lat="50.02749" lon="4.1078">
        <ele>233.73</ele>
        <time>2019-09-19T14:21:31.001Z</time>
      </trkpt>
      <trkpt lat="50.02747" lon="4.1079">
        <ele>234.317</ele>
        <time>2019-09-19T14:21:34.001Z</time>
      </trkpt>
      <trkpt lat="50.02745" lon="4.108">
        <ele>234.703</ele>
        <time>2019-09-19T14:21:37.001Z</time>
      </trkpt>
      <trkpt lat="50.02743" lon="4.1081">
        <ele>235.548</ele>
        <time>2019-09-19T14:21:40.001Z</time>
      </trkpt>
      <trkpt lat="50.0274" lon="4.1082">
        <ele>235.857</ele>
        <time>2019-09-19T14:21:43.001Z</time>
      </trkpt>
      <trkpt lat="50.02739" lon="4.10829">
        <ele>236.313</ele>
        <time>2019-09-19T14:21:46.001Z</time>
      </trkpt>
      <trkpt lat="50.02736" lon="4.10838">
        <ele>237.35</ele>
        <time>2019-09-19T14:21:49.001Z</time>
      </trkpt>
      <trkpt lat="50.02735" lon="4.10848">
        <ele>238.078</ele>
        <time>2019-09-19T14:21:52.001Z</time>
      </trkpt>
      <trkpt lat="50.02733" lon="4.10858">
        <ele>238.464</ele>
        <time>2019-09-19T14:21:55.001Z</time>
      </trkpt>
      <trkpt lat="50.0273" lon="4.10869">
        <ele>238.416</ele>
        <time>2019-09-19T14:21:58.001Z</time>
      </trkpt>
      <trkpt lat="50.02728" lon="4.10879">
        <ele>238.816</ele>
        <time>2019-09-19T14:22:01.001Z</time>
      </trkpt>
      <trkpt lat="50.02726" lon="4.10889">
        <ele>239.701</ele>
        <time>2019-09-19T14:22:04.001Z</time>
      </trkpt>
      <trkpt lat="50.02723" lon="4.10899">
        <ele>240.41</ele>
        <time>2019-09-19T14:22:07.001Z</time>
      </trkpt>
      <trkpt lat="50.02721" lon="4.10911">
        <ele>240.386</ele>
        <time>2019-09-19T14:22:10.001Z</time>
      </trkpt>
      <trkpt lat="50.02718" lon="4.10922">
        <ele>240.772</ele>
        <time>2019-09-19T14:22:13.001Z</time>
      </trkpt>
      <trkpt lat="50.02716" lon="4.10933">
        <ele>241.331</ele>
        <time>2019-09-19T14:22:16.000Z</time>
      </trkpt>
      <trkpt lat="50.02715" lon="4.10945">
        <ele>242.006</ele>
        <time>2019-09-19T14:22:19.001Z</time>
      </trkpt>
      <trkpt lat="50.02714" lon="4.10958">
        <ele>241.288</ele>
        <time>2019-09-19T14:22:22.001Z</time>
      </trkpt>
      <trkpt lat="50.02715" lon="4.1097">
        <ele>240.599</ele>
        <time>2019-09-19T14:22:25.001Z</time>
      </trkpt>
      <trkpt lat="50.02718" lon="4.10981">
        <ele>240.2</ele>
        <time>2019-09-19T14:22:28.001Z</time>
      </trkpt>
      <trkpt lat="50.02721" lon="4.10991">
        <ele>240.096</ele>
        <time>2019-09-19T14:22:31.001Z</time>
      </trkpt>
      <trkpt lat="50.02723" lon="4.11001">
        <ele>239.617</ele>
        <time>2019-09-19T14:22:34.001Z</time>
      </trkpt>
      <trkpt lat="50.02726" lon="4.11011">
        <ele>239.355</ele>
        <time>2019-09-19T14:22:37.001Z</time>
      </trkpt>
      <trkpt lat="50.02729" lon="4.11019">
        <ele>239.014</ele>
        <time>2019-09-19T14:22:40.001Z</time>
      </trkpt>
      <trkpt lat="50.02732" lon="4.11029">
        <ele>238.81</ele>
        <time>2019-09-19T14:22:43.001Z</time>
      </trkpt>
      <trkpt lat="50.02735" lon="4.11037">
        <ele>238.496</ele>
        <time>2019-09-19T14:22:46.001Z</time>
      </trkpt>
      <trkpt lat="50.02738" lon="4.11047">
        <ele>238.533</ele>
        <time>2019-09-19T14:22:49.001Z</time>
      </trkpt>
      <trkpt lat="50.02741" lon="4.11057">
        <ele>238.452</ele>
        <time>2019-09-19T14:22:52.001Z</time>
      </trkpt>
      <trkpt lat="50.02744" lon="4.11068">
        <ele>238.534</ele>
        <time>2019-09-19T14:22:55.001Z</time>
      </trkpt>
      <trkpt lat="50.02747" lon="4.11077">
        <ele>238.959</ele>
        <time>2019-09-19T14:22:58.001Z</time>
      </trkpt>
      <trkpt lat="50.02749" lon="4.11086">
        <ele>238.963</ele>
        <time>2019-09-19T14:23:01.001Z</time>
      </trkpt>
      <trkpt lat="50.02752" lon="4.11096">
        <ele>239.58</ele>
        <time>2019-09-19T14:23:04.001Z</time>
      </trkpt>
      <trkpt lat="50.02755" lon="4.11106">
        <ele>240.59</ele>
        <time>2019-09-19T14:23:07.001Z</time>
      </trkpt>
      <trkpt lat="50.02758" lon="4.11116">
        <ele>241.521</ele>
        <time>2019-09-19T14:23:10.001Z</time>
      </trkpt>
      <trkpt lat="50.0276" lon="4.11127">
        <ele>242.17</ele>
        <time>2019-09-19T14:23:13.001Z</time>
      </trkpt>
      <trkpt lat="50.02763" lon="4.11137">
        <ele>242.72</ele>
        <time>2019-09-19T14:23:16.000Z</time>
      </trkpt>
      <trkpt lat="50.02765" lon="4.11147">
        <ele>243.431</ele>
        <time>2019-09-19T14:23:19.001Z</time>
      </trkpt>
      <trkpt lat="50.02768" lon="4.11158">
        <ele>243.854</ele>
        <time>2019-09-19T14:23:22.001Z</time>
      </trkpt>
      <trkpt lat="50.02771" lon="4.11169">
        <ele>244.162</ele>
        <time>2019-09-19T14:23:25.001Z</time>
      </trkpt>
      <trkpt lat="50.02775" lon="4.11179">
        <ele>244.909</ele>
        <time>2019-09-19T14:23:28.001Z</time>
      </trkpt>
      <trkpt lat="50.02778" lon="4.11189">
        <ele>245.069</ele>
        <time>2019-09-19T14:23:31.001Z</time>
      </trkpt>
      <trkpt lat="50.02782" lon="4.11202">
        <ele>245.143</ele>
        <time>2019-09-19T14:23:34.001Z</time>
      </trkpt>
      <trkpt lat="50.02785" lon="4.11214">
        <ele>245.401</ele>
        <time>2019-09-19T14:23:37.001Z</time>
      </trkpt>
      <trkpt lat="50.02788" lon="4.11228">
        <ele>245.72</ele>
        <time>2019-09-19T14:23:40.001Z</time>
      </trkpt>
      <trkpt lat="50.02791" lon="4.11239">
        <ele>246.311</ele>
        <time>2019-09-19T14:23:43.001Z</time>
      </trkpt>
      <trkpt lat="50.02794" lon="4.1125">
        <ele>246.934</ele>
        <time>2019-09-19T14:23:46.001Z</time>
      </trkpt>
      <trkpt lat="50.02798" lon="4.11261">
        <ele>247.432</ele>
        <time>2019-09-19T14:23:49.001Z</time>
      </trkpt>
      <trkpt lat="50.02802" lon="4.11275">
        <ele>248.032</ele>
        <time>2019-09-19T14:23:52.001Z</time>
      </trkpt>
      <trkpt lat="50.02807" lon="4.11289">
        <ele>248.385</ele>
        <time>2019-09-19T14:23:55.001Z</time>
      </trkpt>
      <trkpt lat="50.02811" lon="4.11304">
        <ele>248.443</ele>
        <time>2019-09-19T14:23:58.001Z</time>
      </trkpt>
      <trkpt lat="50.02815" lon="4.11317">
        <ele>248.065</ele>
        <time>2019-09-19T14:24:01.001Z</time>
      </trkpt>
      <trkpt lat="50.02819" lon="4.11331">
        <ele>247.619</ele>
        <time>2019-09-19T14:24:04.001Z</time>
      </trkpt>
      <trkpt lat="50.02822" lon="4.11346">
        <ele>246.801</ele>
        <time>2019-09-19T14:24:07.001Z</time>
      </trkpt>
      <trkpt lat="50.02826" lon="4.1136">
        <ele>245.949</ele>
        <time>2019-09-19T14:24:10.001Z</time>
      </trkpt>
      <trkpt lat="50.0283" lon="4.11374">
        <ele>245.405</ele>
        <time>2019-09-19T14:24:13.001Z</time>
      </trkpt>
      <trkpt lat="50.02834" lon="4.11389">
        <ele>245.213</ele>
        <time>2019-09-19T14:24:16.000Z</time>
      </trkpt>
      <trkpt lat="50.02838" lon="4.11403">
        <ele>244.883</ele>
        <time>2019-09-19T14:24:19.001Z</time>
      </trkpt>
      <trkpt lat="50.02842" lon="4.11417">
        <ele>244.549</ele>
        <time>2019-09-19T14:24:22.001Z</time>
      </trkpt>
      <trkpt lat="50.02846" lon="4.1143">
        <ele>244.143</ele>
        <time>2019-09-19T14:24:25.001Z</time>
      </trkpt>
      <trkpt lat="50.0285" lon="4.11444">
        <ele>244.235</ele>
        <time>2019-09-19T14:24:28.001Z</time>
      </trkpt>
      <trkpt lat="50.02852" lon="4.11459">
        <ele>244.743</ele>
        <time>2019-09-19T14:24:31.001Z</time>
      </trkpt>
      <trkpt lat="50.02855" lon="4.11475">
        <ele>244.921</ele>
        <time>2019-09-19T14:24:34.001Z</time>
      </trkpt>
      <trkpt lat="50.02861" lon="4.11486">
        <ele>245.069</ele>
        <time>2019-09-19T14:24:37.001Z</time>
      </trkpt>
      <trkpt lat="50.02869" lon="4.11494">
        <ele>245.163</ele>
        <time>2019-09-19T14:24:40.001Z</time>
      </trkpt>
      <trkpt lat="50.02876" lon="4.11504">
        <ele>245.503</ele>
        <time>2019-09-19T14:24:43.001Z</time>
      </trkpt>
      <trkpt lat="50.02883" lon="4.11513">
        <ele>246.067</ele>
        <time>2019-09-19T14:24:46.001Z</time>
      </trkpt>
      <trkpt lat="50.02889" lon="4.11523">
        <ele>246.213</ele>
        <time>2019-09-19T14:24:49.001Z</time>
      </trkpt>
      <trkpt lat="50.02895" lon="4.11532">
        <ele>246.869</ele>
        <time>2019-09-19T14:24:52.001Z</time>
      </trkpt>
      <trkpt lat="50.02902" lon="4.11541">
        <ele>247.575</ele>
        <time>2019-09-19T14:24:55.001Z</time>
      </trkpt>
      <trkpt lat="50.0291" lon="4.11551">
        <ele>248.361</ele>
        <time>2019-09-19T14:24:58.001Z</time>
      </trkpt>
      <trkpt lat="50.02917" lon="4.11562">
        <ele>249.198</ele>
        <time>2019-09-19T14:25:01.001Z</time>
      </trkpt>
      <trkpt lat="50.02923" lon="4.11572">
        <ele>249.642</ele>
        <time>2019-09-19T14:25:04.001Z</time>
      </trkpt>
      <trkpt lat="50.0293" lon="4.11582">
        <ele>249.392</ele>
        <time>2019-09-19T14:25:07.001Z</time>
      </trkpt>
      <trkpt lat="50.02937" lon="4.11591">
        <ele>248.662</ele>
        <time>2019-09-19T14:25:10.001Z</time>
      </trkpt>
      <trkpt lat="50.02944" lon="4.11601">
        <ele>248.493</ele>
        <time>2019-09-19T14:25:13.001Z</time>
      </trkpt>
      <trkpt lat="50.02951" lon="4.11612">
        <ele>248.058</ele>
        <time>2019-09-19T14:25:16.000Z</time>
      </trkpt>
      <trkpt lat="50.02959" lon="4.11624">
        <ele>246.746</ele>
        <time>2019-09-19T14:25:19.001Z</time>
      </trkpt>
      <trkpt lat="50.02968" lon="4.11635">
        <ele>246.288</ele>
        <time>2019-09-19T14:25:22.001Z</time>
      </trkpt>
      <trkpt lat="50.02976" lon="4.11648">
        <ele>245.946</ele>
        <time>2019-09-19T14:25:25.001Z</time>
      </trkpt>
      <trkpt lat="50.02985" lon="4.11661">
        <ele>246.049</ele>
        <time>2019-09-19T14:25:28.001Z</time>
      </trkpt>
      <trkpt lat="50.02992" lon="4.11673">
        <ele>245.138</ele>
        <time>2019-09-19T14:25:31.001Z</time>
      </trkpt>
      <trkpt lat="50.03001" lon="4.11684">
        <ele>244.621</ele>
        <time>2019-09-19T14:25:34.001Z</time>
      </trkpt>
      <trkpt lat="50.03009" lon="4.11695">
        <ele>244.522</ele>
        <time>2019-09-19T14:25:37.001Z</time>
      </trkpt>
      <trkpt lat="50.03017" lon="4.11706">
        <ele>244.927</ele>
        <time>2019-09-19T14:25:40.001Z</time>
      </trkpt>
      <trkpt lat="50.03026" lon="4.11717">
        <ele>245.676</ele>
        <time>2019-09-19T14:25:43.001Z</time>
      </trkpt>
      <trkpt lat="50.03034" lon="4.11729">
        <ele>246.582</ele>
        <time>2019-09-19T14:25:46.001Z</time>
      </trkpt>
      <trkpt lat="50.03042" lon="4.11742">
        <ele>246.849</ele>
        <time>2019-09-19T14:25:49.001Z</time>
      </trkpt>
      <trkpt lat="50.0305" lon="4.11755">
        <ele>246.625</ele>
        <time>2019-09-19T14:25:52.001Z</time>
      </trkpt>
      <trkpt lat="50.03058" lon="4.11768">
        <ele>246.858</ele>
        <time>2019-09-19T14:25:55.001Z</time>
      </trkpt>
      <trkpt lat="50.03067" lon="4.1178">
        <ele>246.603</ele>
        <time>2019-09-19T14:25:58.001Z</time>
      </trkpt>
      <trkpt lat="50.03075" lon="4.11793">
        <ele>246.264</ele>
        <time>2019-09-19T14:26:01.001Z</time>
      </trkpt>
      <trkpt lat="50.03082" lon="4.11805">
        <ele>246.452</ele>
        <time>2019-09-19T14:26:04.001Z</time>
      </trkpt>
      <trkpt lat="50.0309" lon="4.11817">
        <ele>245.991</ele>
        <time>2019-09-19T14:26:07.001Z</time>
      </trkpt>
      <trkpt lat="50.03097" lon="4.11828">
        <ele>246.143</ele>
        <time>2019-09-19T14:26:10.001Z</time>
      </trkpt>
      <trkpt lat="50.03105" lon="4.11839">
        <ele>245.815</ele>
        <time>2019-09-19T14:26:13.001Z</time>
      </trkpt>
      <trkpt lat="50.03112" lon="4.1185">
        <ele>246.317</ele>
        <time>2019-09-19T14:26:16.000Z</time>
      </trkpt>
      <trkpt lat="50.03119" lon="4.1186">
        <ele>246.865</ele>
        <time>2019-09-19T14:26:19.001Z</time>
      </trkpt>
      <trkpt lat="50.03126" lon="4.1187">
        <ele>247.172</ele>
        <time>2019-09-19T14:26:22.001Z</time>
      </trkpt>
      <trkpt lat="50.03134" lon="4.1188">
        <ele>247.462</ele>
        <time>2019-09-19T14:26:25.001Z</time>
      </trkpt>
      <trkpt lat="50.03143" lon="4.1189">
        <ele>247.446</ele>
        <time>2019-09-19T14:26:28.001Z</time>
      </trkpt>
      <trkpt lat="50.03152" lon="4.119">
        <ele>246.725</ele>
        <time>2019-09-19T14:26:31.001Z</time>
      </trkpt>
      <trkpt lat="50.03161" lon="4.11906">
        <ele>245.625</ele>
        <time>2019-09-19T14:26:34.001Z</time>
      </trkpt>
      <trkpt lat="50.03171" lon="4.11914">
        <ele>245.038</ele>
        <time>2019-09-19T14:26:37.001Z</time>
      </trkpt>
      <trkpt lat="50.0318" lon="4.11922">
        <ele>245.211</ele>
        <time>2019-09-19T14:26:40.001Z</time>
      </trkpt>
      <trkpt lat="50.03189" lon="4.11928">
        <ele>245.746</ele>
        <time>2019-09-19T14:26:43.001Z</time>
      </trkpt>
      <trkpt lat="50.03199" lon="4.11935">
        <ele>246.39</ele>
        <time>2019-09-19T14:26:46.001Z</time>
      </trkpt>
      <trkpt lat="50.03208" lon="4.11942">
        <ele>246.731</ele>
        <time>2019-09-19T14:26:49.001Z</time>
      </trkpt>
      <trkpt lat="50.03217" lon="4.1195">
        <ele>247.178</ele>
        <time>2019-09-19T14:26:52.001Z</time>
      </trkpt>
      <trkpt lat="50.03225" lon="4.11959">
        <ele>247.395</ele>
        <time>2019-09-19T14:26:55.001Z</time>
      </trkpt>
      <trkpt lat="50.03233" lon="4.11969">
        <ele>247.515</ele>
        <time>2019-09-19T14:26:58.001Z</time>
      </trkpt>
      <trkpt lat="50.03239" lon="4.1198">
        <ele>247.234</ele>
        <time>2019-09-19T14:27:01.001Z</time>
      </trkpt>
      <trkpt lat="50.03247" lon="4.11989">
        <ele>247.9</ele>
        <time>2019-09-19T14:27:04.001Z</time>
      </trkpt>
      <trkpt lat="50.03258" lon="4.11985">
        <ele>247.039</ele>
        <time>2019-09-19T14:27:07.001Z</time>
      </trkpt>
      <trkpt lat="50.03268" lon="4.1198">
        <ele>246.752</ele>
        <time>2019-09-19T14:27:10.001Z</time>
      </trkpt>
      <trkpt lat="50.0328" lon="4.11981">
        <ele>246.891</ele>
        <time>2019-09-19T14:27:13.001Z</time>
      </trkpt>
      <trkpt lat="50.03291" lon="4.11985">
        <ele>247.055</ele>
        <time>2019-09-19T14:27:16.000Z</time>
      </trkpt>
      <trkpt lat="50.03302" lon="4.11992">
        <ele>247.672</ele>
        <time>2019-09-19T14:27:19.001Z</time>
      </trkpt>
      <trkpt lat="50.03313" lon="4.12">
        <ele>247.89</ele>
        <time>2019-09-19T14:27:22.001Z</time>
      </trkpt>
      <trkpt lat="50.03325" lon="4.12009">
        <ele>248.463</ele>
        <time>2019-09-19T14:27:25.001Z</time>
      </trkpt>
      <trkpt lat="50.03336" lon="4.12021">
        <ele>248.016</ele>
        <time>2019-09-19T14:27:28.001Z</time>
      </trkpt>
      <trkpt lat="50.03346" lon="4.12035">
        <ele>247.378</ele>
        <time>2019-09-19T14:27:31.001Z</time>
      </trkpt>
      <trkpt lat="50.03354" lon="4.12049">
        <ele>246.88</ele>
        <time>2019-09-19T14:27:34.001Z</time>
      </trkpt>
      <trkpt lat="50.03362" lon="4.12062">
        <ele>246.429</ele>
        <time>2019-09-19T14:27:37.001Z</time>
      </trkpt>
      <trkpt lat="50.03369" lon="4.12075">
        <ele>246</ele>
        <time>2019-09-19T14:27:40.001Z</time>
      </trkpt>
      <trkpt lat="50.03375" lon="4.12087">
        <ele>245.745</ele>
        <time>2019-09-19T14:27:43.001Z</time>
      </trkpt>
      <trkpt lat="50.03381" lon="4.12098">
        <ele>245.866</ele>
        <time>2019-09-19T14:27:46.001Z</time>
      </trkpt>
      <trkpt lat="50.03387" lon="4.12111">
        <ele>245.162</ele>
        <time>2019-09-19T14:27:49.001Z</time>
      </trkpt>
      <trkpt lat="50.03394" lon="4.12124">
        <ele>244.399</ele>
        <time>2019-09-19T14:27:52.001Z</time>
      </trkpt>
      <trkpt lat="50.03401" lon="4.12137">
        <ele>243.784</ele>
        <time>2019-09-19T14:27:55.001Z</time>
      </trkpt>
      <trkpt lat="50.03408" lon="4.12151">
        <ele>243.309</ele>
        <time>2019-09-19T14:27:58.001Z</time>
      </trkpt>
      <trkpt lat="50.03416" lon="4.12164">
        <ele>243.325</ele>
        <time>2019-09-19T14:28:01.001Z</time>
      </trkpt>
      <trkpt lat="50.03423" lon="4.12176">
        <ele>243.845</ele>
        <time>2019-09-19T14:28:04.001Z</time>
      </trkpt>
      <trkpt lat="50.03431" lon="4.12187">
        <ele>244.789</ele>
        <time>2019-09-19T14:28:07.001Z</time>
      </trkpt>
      <trkpt lat="50.03441" lon="4.12199">
        <ele>244.846</ele>
        <time>2019-09-19T14:28:10.001Z</time>
      </trkpt>
      <trkpt lat="50.03452" lon="4.12209">
        <ele>244.81</ele>
        <time>2019-09-19T14:28:13.001Z</time>
      </trkpt>
      <trkpt lat="50.03462" lon="4.12216">
        <ele>245.288</ele>
        <time>2019-09-19T14:28:16.000Z</time>
      </trkpt>
      <trkpt lat="50.03472" lon="4.12224">
        <ele>245.579</ele>
        <time>2019-09-19T14:28:19.001Z</time>
      </trkpt>
      <trkpt lat="50.03482" lon="4.12231">
        <ele>246.077</ele>
        <time>2019-09-19T14:28:22.001Z</time>
      </trkpt>
      <trkpt lat="50.03491" lon="4.12238">
        <ele>246.253</ele>
        <time>2019-09-19T14:28:25.001Z</time>
      </trkpt>
      <trkpt lat="50.03501" lon="4.12246">
        <ele>246.15</ele>
        <time>2019-09-19T14:28:28.001Z</time>
      </trkpt>
      <trkpt lat="50.03511" lon="4.12254">
        <ele>246.066</ele>
        <time>2019-09-19T14:28:31.001Z</time>
      </trkpt>
      <trkpt lat="50.03522" lon="4.12263">
        <ele>245.974</ele>
        <time>2019-09-19T14:28:34.002Z</time>
      </trkpt>
      <trkpt lat="50.03533" lon="4.1227">
        <ele>245.468</ele>
        <time>2019-09-19T14:28:37.001Z</time>
      </trkpt>
      <trkpt lat="50.03545" lon="4.12278">
        <ele>244.685</ele>
        <time>2019-09-19T14:28:40.001Z</time>
      </trkpt>
      <trkpt lat="50.03556" lon="4.12287">
        <ele>244.736</ele>
        <time>2019-09-19T14:28:43.001Z</time>
      </trkpt>
      <trkpt lat="50.03568" lon="4.12295">
        <ele>245.108</ele>
        <time>2019-09-19T14:28:46.001Z</time>
      </trkpt>
      <trkpt lat="50.0358" lon="4.12301">
        <ele>245.111</ele>
        <time>2019-09-19T14:28:49.001Z</time>
      </trkpt>
      <trkpt lat="50.03591" lon="4.12305">
        <ele>245.599</ele>
        <time>2019-09-19T14:28:52.001Z</time>
      </trkpt>
      <trkpt lat="50.03605" lon="4.12307">
        <ele>245.938</ele>
        <time>2019-09-19T14:28:55.001Z</time>
      </trkpt>
      <trkpt lat="50.03616" lon="4.12311">
        <ele>246.264</ele>
        <time>2019-09-19T14:28:58.001Z</time>
      </trkpt>
      <trkpt lat="50.03621" lon="4.1232">
        <ele>246.989</ele>
        <time>2019-09-19T14:29:01.001Z</time>
      </trkpt>
      <trkpt lat="50.0362" lon="4.12336">
        <ele>247.864</ele>
        <time>2019-09-19T14:29:04.001Z</time>
      </trkpt>
      <trkpt lat="50.03616" lon="4.12358">
        <ele>247.773</ele>
        <time>2019-09-19T14:29:07.001Z</time>
      </trkpt>
      <trkpt lat="50.03613" lon="4.1238">
        <ele>247.795</ele>
        <time>2019-09-19T14:29:10.001Z</time>
      </trkpt>
      <trkpt lat="50.0361" lon="4.12402">
        <ele>247.825</ele>
        <time>2019-09-19T14:29:13.001Z</time>
      </trkpt>
      <trkpt lat="50.03605" lon="4.12422">
        <ele>247.793</ele>
        <time>2019-09-19T14:29:16.000Z</time>
      </trkpt>
      <trkpt lat="50.03599" lon="4.12441">
        <ele>248.517</ele>
        <time>2019-09-19T14:29:19.001Z</time>
      </trkpt>
      <trkpt lat="50.03593" lon="4.12459">
        <ele>248.804</ele>
        <time>2019-09-19T14:29:22.001Z</time>
      </trkpt>
      <trkpt lat="50.03588" lon="4.12478">
        <ele>249.349</ele>
        <time>2019-09-19T14:29:25.001Z</time>
      </trkpt>
      <trkpt lat="50.03584" lon="4.12495">
        <ele>249.892</ele>
        <time>2019-09-19T14:29:28.001Z</time>
      </trkpt>
      <trkpt lat="50.0358" lon="4.12515">
        <ele>249.816</ele>
        <time>2019-09-19T14:29:31.001Z</time>
      </trkpt>
      <trkpt lat="50.03576" lon="4.12535">
        <ele>249.536</ele>
        <time>2019-09-19T14:29:34.001Z</time>
      </trkpt>
      <trkpt lat="50.0357" lon="4.12556">
        <ele>249.689</ele>
        <time>2019-09-19T14:29:37.001Z</time>
      </trkpt>
      <trkpt lat="50.03564" lon="4.12577">
        <ele>249.621</ele>
        <time>2019-09-19T14:29:40.001Z</time>
      </trkpt>
      <trkpt lat="50.03555" lon="4.126">
        <ele>248.793</ele>
        <time>2019-09-19T14:29:43.001Z</time>
      </trkpt>
      <trkpt lat="50.03548" lon="4.12622">
        <ele>248.729</ele>
        <time>2019-09-19T14:29:46.001Z</time>
      </trkpt>
      <trkpt lat="50.03539" lon="4.12645">
        <ele>248.204</ele>
        <time>2019-09-19T14:29:49.001Z</time>
      </trkpt>
      <trkpt lat="50.03532" lon="4.12667">
        <ele>247.49</ele>
        <time>2019-09-19T14:29:52.001Z</time>
      </trkpt>
      <trkpt lat="50.03524" lon="4.12689">
        <ele>246.98</ele>
        <time>2019-09-19T14:29:55.001Z</time>
      </trkpt>
      <trkpt lat="50.03516" lon="4.12711">
        <ele>246.789</ele>
        <time>2019-09-19T14:29:58.001Z</time>
      </trkpt>
      <trkpt lat="50.03509" lon="4.12732">
        <ele>246.715</ele>
        <time>2019-09-19T14:30:01.001Z</time>
      </trkpt>
      <trkpt lat="50.03501" lon="4.12753">
        <ele>246.331</ele>
        <time>2019-09-19T14:30:04.001Z</time>
      </trkpt>
      <trkpt lat="50.03493" lon="4.12775">
        <ele>245.756</ele>
        <time>2019-09-19T14:30:07.001Z</time>
      </trkpt>
      <trkpt lat="50.03485" lon="4.12795">
        <ele>245.356</ele>
        <time>2019-09-19T14:30:10.001Z</time>
      </trkpt>
      <trkpt lat="50.03478" lon="4.12816">
        <ele>244.997</ele>
        <time>2019-09-19T14:30:13.001Z</time>
      </trkpt>
      <trkpt lat="50.03469" lon="4.12835">
        <ele>245.3</ele>
        <time>2019-09-19T14:30:16.000Z</time>
      </trkpt>
      <trkpt lat="50.0346" lon="4.12853">
        <ele>245.818</ele>
        <time>2019-09-19T14:30:19.001Z</time>
      </trkpt>
      <trkpt lat="50.03451" lon="4.1287">
        <ele>245.547</ele>
        <time>2019-09-19T14:30:22.001Z</time>
      </trkpt>
      <trkpt lat="50.0344" lon="4.12885">
        <ele>245.459</ele>
        <time>2019-09-19T14:30:25.001Z</time>
      </trkpt>
      <trkpt lat="50.0343" lon="4.129">
        <ele>245.278</ele>
        <time>2019-09-19T14:30:28.001Z</time>
      </trkpt>
      <trkpt lat="50.0342" lon="4.12913">
        <ele>245.202</ele>
        <time>2019-09-19T14:30:31.001Z</time>
      </trkpt>
      <trkpt lat="50.0341" lon="4.12927">
        <ele>245.626</ele>
        <time>2019-09-19T14:30:34.001Z</time>
      </trkpt>
      <trkpt lat="50.03401" lon="4.12941">
        <ele>245.698</ele>
        <time>2019-09-19T14:30:37.001Z</time>
      </trkpt>
      <trkpt lat="50.03391" lon="4.12954">
        <ele>245.719</ele>
        <time>2019-09-19T14:30:40.001Z</time>
      </trkpt>
      <trkpt lat="50.03382" lon="4.12966">
        <ele>245.362</ele>
        <time>2019-09-19T14:30:43.001Z</time>
      </trkpt>
      <trkpt lat="50.03373" lon="4.12979">
        <ele>244.523</ele>
        <time>2019-09-19T14:30:46.001Z</time>
      </trkpt>
      <trkpt lat="50.03363" lon="4.12991">
        <ele>244.073</ele>
        <time>2019-09-19T14:30:49.001Z</time>
      </trkpt>
      <trkpt lat="50.03353" lon="4.13003">
        <ele>244.353</ele>
        <time>2019-09-19T14:30:52.001Z</time>
      </trkpt>
      <trkpt lat="50.03344" lon="4.13014">
        <ele>244.927</ele>
        <time>2019-09-19T14:30:55.001Z</time>
      </trkpt>
      <trkpt lat="50.03334" lon="4.13023">
        <ele>245.187</ele>
        <time>2019-09-19T14:30:58.001Z</time>
      </trkpt>
      <trkpt lat="50.03325" lon="4.13033">
        <ele>245.645</ele>
        <time>2019-09-19T14:31:01.001Z</time>
      </trkpt>
      <trkpt lat="50.03315" lon="4.13042">
        <ele>245.793</ele>
        <time>2019-09-19T14:31:04.001Z</time>
      </trkpt>
      <trkpt lat="50.03306" lon="4.13049">
        <ele>246.616</ele>
        <time>2019-09-19T14:31:07.001Z</time>
      </trkpt>
      <trkpt lat="50.03295" lon="4.13055">
        <ele>246.643</ele>
        <time>2019-09-19T14:31:10.001Z</time>
      </trkpt>
      <trkpt lat="50.03285" lon="4.13061">
        <ele>246.938</ele>
        <time>2019-09-19T14:31:13.001Z</time>
      </trkpt>
      <trkpt lat="50.03274" lon="4.13065">
        <ele>246.989</ele>
        <time>2019-09-19T14:31:16.000Z</time>
      </trkpt>
      <trkpt lat="50.03264" lon="4.13069">
        <ele>247.525</ele>
        <time>2019-09-19T14:31:19.001Z</time>
      </trkpt>
      <trkpt lat="50.03253" lon="4.13072">
        <ele>247.751</ele>
        <time>2019-09-19T14:31:22.001Z</time>
      </trkpt>
      <trkpt lat="50.03241" lon="4.13075">
        <ele>248.079</ele>
        <time>2019-09-19T14:31:25.001Z</time>
      </trkpt>
      <trkpt lat="50.03229" lon="4.13077">
        <ele>248.367</ele>
        <time>2019-09-19T14:31:28.001Z</time>
      </trkpt>
      <trkpt lat="50.03217" lon="4.1308">
        <ele>248.613</ele>
        <time>2019-09-19T14:31:31.001Z</time>
      </trkpt>
      <trkpt lat="50.03204" lon="4.13083">
        <ele>248.849</ele>
        <time>2019-09-19T14:31:34.001Z</time>
      </trkpt>
      <trkpt lat="50.0319" lon="4.13086">
        <ele>248.599</ele>
        <time>2019-09-19T14:31:37.001Z</time>
      </trkpt>
      <trkpt lat="50.03175" lon="4.1309">
        <ele>248.688</ele>
        <time>2019-09-19T14:31:40.001Z</time>
      </trkpt>
      <trkpt lat="50.0316" lon="4.13094">
        <ele>248.337</ele>
        <time>2019-09-19T14:31:43.001Z</time>
      </trkpt>
      <trkpt lat="50.03145" lon="4.13099">
        <ele>248.287</ele>
        <time>2019-09-19T14:31:46.001Z</time>
      </trkpt>
      <trkpt lat="50.03132" lon="4.13113">
        <ele>248.273</ele>
        <time>2019-09-19T14:31:49.001Z</time>
      </trkpt>
      <trkpt lat="50.03126" lon="4.13136">
        <ele>248.614</ele>
        <time>2019-09-19T14:31:52.001Z</time>
      </trkpt>
      <trkpt lat="50.03125" lon="4.13157">
        <ele>248.592</ele>
        <time>2019-09-19T14:31:55.001Z</time>
      </trkpt>
      <trkpt lat="50.03123" lon="4.13179">
        <ele>248.309</ele>
        <time>2019-09-19T14:31:58.001Z</time>
      </trkpt>
      <trkpt lat="50.0312" lon="4.13201">
        <ele>248.125</ele>
        <time>2019-09-19T14:32:01.001Z</time>
      </trkpt>
      <trkpt lat="50.03116" lon="4.13225">
        <ele>248.14</ele>
        <time>2019-09-19T14:32:04.001Z</time>
      </trkpt>
      <trkpt lat="50.03113" lon="4.1325">
        <ele>247.964</ele>
        <time>2019-09-19T14:32:07.001Z</time>
      </trkpt>
      <trkpt lat="50.03109" lon="4.13275">
        <ele>248.151</ele>
        <time>2019-09-19T14:32:10.001Z</time>
      </trkpt>
      <trkpt lat="50.03106" lon="4.13302">
        <ele>249.091</ele>
        <time>2019-09-19T14:32:13.001Z</time>
      </trkpt>
      <trkpt lat="50.03102" lon="4.13327">
        <ele>250.024</ele>
        <time>2019-09-19T14:32:16.000Z</time>
      </trkpt>
      <trkpt lat="50.03098" lon="4.13352">
        <ele>249.482</ele>
        <time>2019-09-19T14:32:19.001Z</time>
      </trkpt>
      <trkpt lat="50.03095" lon="4.13376">
        <ele>248.956</ele>
        <time>2019-09-19T14:32:22.001Z</time>
      </trkpt>
      <trkpt lat="50.03091" lon="4.13401">
        <ele>248.432</ele>
        <time>2019-09-19T14:32:25.001Z</time>
      </trkpt>
      <trkpt lat="50.03085" lon="4.13425">
        <ele>247.73</ele>
        <time>2019-09-19T14:32:28.001Z</time>
      </trkpt>
      <trkpt lat="50.0308" lon="4.13449">
        <ele>247.151</ele>
        <time>2019-09-19T14:32:31.001Z</time>
      </trkpt>
      <trkpt lat="50.03074" lon="4.13472">
        <ele>247.093</ele>
        <time>2019-09-19T14:32:34.001Z</time>
      </trkpt>
      <trkpt lat="50.03067" lon="4.13495">
        <ele>247.101</ele>
        <time>2019-09-19T14:32:37.001Z</time>
      </trkpt>
      <trkpt lat="50.03059" lon="4.13517">
        <ele>246.677</ele>
        <time>2019-09-19T14:32:40.001Z</time>
      </trkpt>
      <trkpt lat="50.03052" lon="4.13539">
        <ele>246.47</ele>
        <time>2019-09-19T14:32:43.001Z</time>
      </trkpt>
      <trkpt lat="50.03045" lon="4.13563">
        <ele>245.755</ele>
        <time>2019-09-19T14:32:46.001Z</time>
      </trkpt>
      <trkpt lat="50.03038" lon="4.13586">
        <ele>245.717</ele>
        <time>2019-09-19T14:32:49.001Z</time>
      </trkpt>
      <trkpt lat="50.03032" lon="4.13607">
        <ele>245.098</ele>
        <time>2019-09-19T14:32:52.001Z</time>
      </trkpt>
      <trkpt lat="50.03025" lon="4.13628">
        <ele>244.507</ele>
        <time>2019-09-19T14:32:55.001Z</time>
      </trkpt>
      <trkpt lat="50.03019" lon="4.13649">
        <ele>244.154</ele>
        <time>2019-09-19T14:32:58.001Z</time>
      </trkpt>
      <trkpt lat="50.03013" lon="4.13669">
        <ele>244.213</ele>
        <time>2019-09-19T14:33:01.001Z</time>
      </trkpt>
      <trkpt lat="50.03007" lon="4.13689">
        <ele>244.166</ele>
        <time>2019-09-19T14:33:04.001Z</time>
      </trkpt>
      <trkpt lat="50.03001" lon="4.13708">
        <ele>244.114</ele>
        <time>2019-09-19T14:33:07.001Z</time>
      </trkpt>
      <trkpt lat="50.02996" lon="4.13726">
        <ele>244.205</ele>
        <time>2019-09-19T14:33:10.001Z</time>
      </trkpt>
      <trkpt lat="50.0299" lon="4.13744">
        <ele>243.733</ele>
        <time>2019-09-19T14:33:13.001Z</time>
      </trkpt>
      <trkpt lat="50.02984" lon="4.13762">
        <ele>243.688</ele>
        <time>2019-09-19T14:33:16.000Z</time>
      </trkpt>
      <trkpt lat="50.0298" lon="4.13779">
        <ele>243.722</ele>
        <time>2019-09-19T14:33:19.001Z</time>
      </trkpt>
      <trkpt lat="50.02975" lon="4.13796">
        <ele>243.956</ele>
        <time>2019-09-19T14:33:22.001Z</time>
      </trkpt>
      <trkpt lat="50.02972" lon="4.13811">
        <ele>243.944</ele>
        <time>2019-09-19T14:33:25.001Z</time>
      </trkpt>
      <trkpt lat="50.02969" lon="4.13828">
        <ele>243.389</ele>
        <time>2019-09-19T14:33:28.001Z</time>
      </trkpt>
      <trkpt lat="50.02966" lon="4.13845">
        <ele>243.616</ele>
        <time>2019-09-19T14:33:31.001Z</time>
      </trkpt>
      <trkpt lat="50.02964" lon="4.13863">
        <ele>243.553</ele>
        <time>2019-09-19T14:33:34.001Z</time>
      </trkpt>
      <trkpt lat="50.02961" lon="4.1388">
        <ele>243.891</ele>
        <time>2019-09-19T14:33:37.001Z</time>
      </trkpt>
      <trkpt lat="50.02958" lon="4.13898">
        <ele>243.899</ele>
        <time>2019-09-19T14:33:40.001Z</time>
      </trkpt>
      <trkpt lat="50.02956" lon="4.13915">
        <ele>244.103</ele>
        <time>2019-09-19T14:33:43.001Z</time>
      </trkpt>
      <trkpt lat="50.02953" lon="4.13932">
        <ele>244.585</ele>
        <time>2019-09-19T14:33:46.001Z</time>
      </trkpt>
      <trkpt lat="50.0295" lon="4.13948">
        <ele>245.819</ele>
        <time>2019-09-19T14:33:49.001Z</time>
      </trkpt>
      <trkpt lat="50.02947" lon="4.13962">
        <ele>246.568</ele>
        <time>2019-09-19T14:33:52.001Z</time>
      </trkpt>
      <trkpt lat="50.02944" lon="4.13976">
        <ele>248.191</ele>
        <time>2019-09-19T14:33:55.001Z</time>
      </trkpt>
      <trkpt lat="50.02941" lon="4.13989">
        <ele>249.204</ele>
        <time>2019-09-19T14:33:58.001Z</time>
      </trkpt>
      <trkpt lat="50.02935" lon="4.14002">
        <ele>249.952</ele>
        <time>2019-09-19T14:34:01.001Z</time>
      </trkpt>
      <trkpt lat="50.02926" lon="4.14011">
        <ele>249.485</ele>
        <time>2019-09-19T14:34:04.001Z</time>
      </trkpt>
      <trkpt lat="50.02916" lon="4.14017">
        <ele>249.144</ele>
        <time>2019-09-19T14:34:07.001Z</time>
      </trkpt>
      <trkpt lat="50.02906" lon="4.14024">
        <ele>249.034</ele>
        <time>2019-09-19T14:34:10.001Z</time>
      </trkpt>
      <trkpt lat="50.02898" lon="4.1403">
        <ele>249.612</ele>
        <time>2019-09-19T14:34:13.001Z</time>
      </trkpt>
      <trkpt lat="50.02889" lon="4.14034">
        <ele>250.88</ele>
        <time>2019-09-19T14:34:16.000Z</time>
      </trkpt>
      <trkpt lat="50.02881" lon="4.14036">
        <ele>252.192</ele>
        <time>2019-09-19T14:34:19.001Z</time>
      </trkpt>
      <trkpt lat="50.02872" lon="4.14035">
        <ele>252.706</ele>
        <time>2019-09-19T14:34:22.001Z</time>
      </trkpt>
      <trkpt lat="50.02867" lon="4.14032">
        <ele>253.665</ele>
        <time>2019-09-19T14:34:25.001Z</time>
      </trkpt>
      <trkpt lat="50.02859" lon="4.14028">
        <ele>254.127</ele>
        <time>2019-09-19T14:34:28.001Z</time>
      </trkpt>
      <trkpt lat="50.02852" lon="4.14023">
        <ele>255.052</ele>
        <time>2019-09-19T14:34:31.001Z</time>
      </trkpt>
      <trkpt lat="50.02842" lon="4.14016">
        <ele>255.197</ele>
        <time>2019-09-19T14:34:34.001Z</time>
      </trkpt>
      <trkpt lat="50.02831" lon="4.14011">
        <ele>255.144</ele>
        <time>2019-09-19T14:34:37.001Z</time>
      </trkpt>
      <trkpt lat="50.02822" lon="4.14006">
        <ele>255.816</ele>
        <time>2019-09-19T14:34:40.001Z</time>
      </trkpt>
      <trkpt lat="50.02811" lon="4.14002">
        <ele>256.984</ele>
        <time>2019-09-19T14:34:43.001Z</time>
      </trkpt>
      <trkpt lat="50.02799" lon="4.13997">
        <ele>258.128</ele>
        <time>2019-09-19T14:34:46.001Z</time>
      </trkpt>
      <trkpt lat="50.02788" lon="4.13993">
        <ele>258.898</ele>
        <time>2019-09-19T14:34:49.001Z</time>
      </trkpt>
      <trkpt lat="50.02773" lon="4.13986">
        <ele>259.469</ele>
        <time>2019-09-19T14:34:52.001Z</time>
      </trkpt>
      <trkpt lat="50.02761" lon="4.13981">
        <ele>260.259</ele>
        <time>2019-09-19T14:34:55.001Z</time>
      </trkpt>
      <trkpt lat="50.02752" lon="4.13977">
        <ele>261.379</ele>
        <time>2019-09-19T14:34:58.001Z</time>
      </trkpt>
      <trkpt lat="50.02748" lon="4.13974">
        <ele>260.934</ele>
        <time>2019-09-19T14:35:01.001Z</time>
      </trkpt>
      <trkpt lat="50.02747" lon="4.13974">
        <ele>260.828</ele>
        <time>2019-09-19T14:35:04.001Z</time>
      </trkpt>
      <trkpt lat="50.02748" lon="4.13974">
        <ele>260.934</ele>
        <time>2019-09-19T14:35:07.001Z</time>
      </trkpt>
      <trkpt lat="50.02748" lon="4.13974">
        <ele>260.934</ele>
        <time>2019-09-19T14:36:34.001Z</time>
      </trkpt>
      <trkpt lat="50.02751" lon="4.13975">
        <ele>261.116</ele>
        <time>2019-09-19T14:36:37.001Z</time>
      </trkpt>
      <trkpt lat="50.02755" lon="4.13977">
        <ele>261.115</ele>
        <time>2019-09-19T14:36:40.001Z</time>
      </trkpt>
      <trkpt lat="50.02761" lon="4.13978">
        <ele>261.001</ele>
        <time>2019-09-19T14:36:43.001Z</time>
      </trkpt>
      <trkpt lat="50.02768" lon="4.13982">
        <ele>261.395</ele>
        <time>2019-09-19T14:36:46.001Z</time>
      </trkpt>
      <trkpt lat="50.02774" lon="4.13986">
        <ele>261.195</ele>
        <time>2019-09-19T14:36:49.001Z</time>
      </trkpt>
      <trkpt lat="50.02782" lon="4.1399">
        <ele>262.438</ele>
        <time>2019-09-19T14:36:52.001Z</time>
      </trkpt>
      <trkpt lat="50.02791" lon="4.13994">
        <ele>263.132</ele>
        <time>2019-09-19T14:36:55.001Z</time>
      </trkpt>
      <trkpt lat="50.02799" lon="4.13998">
        <ele>263.351</ele>
        <time>2019-09-19T14:36:58.001Z</time>
      </trkpt>
      <trkpt lat="50.0281" lon="4.14003">
        <ele>263.994</ele>
        <time>2019-09-19T14:37:01.001Z</time>
      </trkpt>
      <trkpt lat="50.0282" lon="4.14008">
        <ele>264.045</ele>
        <time>2019-09-19T14:37:04.001Z</time>
      </trkpt>
      <trkpt lat="50.02828" lon="4.14013">
        <ele>264.936</ele>
        <time>2019-09-19T14:37:07.001Z</time>
      </trkpt>
      <trkpt lat="50.02835" lon="4.14019">
        <ele>264.965</ele>
        <time>2019-09-19T14:37:10.001Z</time>
      </trkpt>
      <trkpt lat="50.02846" lon="4.14025">
        <ele>264.618</ele>
        <time>2019-09-19T14:37:13.001Z</time>
      </trkpt>
      <trkpt lat="50.02856" lon="4.14033">
        <ele>263.72</ele>
        <time>2019-09-19T14:37:16.000Z</time>
      </trkpt>
      <trkpt lat="50.02863" lon="4.14043">
        <ele>261.202</ele>
        <time>2019-09-19T14:37:19.001Z</time>
      </trkpt>
      <trkpt lat="50.02862" lon="4.14051">
        <ele>259.407</ele>
        <time>2019-09-19T14:37:22.001Z</time>
      </trkpt>
      <trkpt lat="50.02859" lon="4.14057">
        <ele>258.408</ele>
        <time>2019-09-19T14:37:25.001Z</time>
      </trkpt>
      <trkpt lat="50.02855" lon="4.14061">
        <ele>257.858</ele>
        <time>2019-09-19T14:37:28.001Z</time>
      </trkpt>
      <trkpt lat="50.0285" lon="4.14066">
        <ele>258.333</ele>
        <time>2019-09-19T14:37:31.001Z</time>
      </trkpt>
      <trkpt lat="50.02844" lon="4.14072">
        <ele>258.978</ele>
        <time>2019-09-19T14:37:34.001Z</time>
      </trkpt>
      <trkpt lat="50.02839" lon="4.14076">
        <ele>259.559</ele>
        <time>2019-09-19T14:37:37.001Z</time>
      </trkpt>
      <trkpt lat="50.02832" lon="4.14081">
        <ele>259.946</ele>
        <time>2019-09-19T14:37:40.001Z</time>
      </trkpt>
      <trkpt lat="50.02826" lon="4.14085">
        <ele>260.592</ele>
        <time>2019-09-19T14:37:43.001Z</time>
      </trkpt>
      <trkpt lat="50.02819" lon="4.14089">
        <ele>261.071</ele>
        <time>2019-09-19T14:37:46.001Z</time>
      </trkpt>
      <trkpt lat="50.02812" lon="4.14092">
        <ele>262.207</ele>
        <time>2019-09-19T14:37:49.001Z</time>
      </trkpt>
      <trkpt lat="50.02804" lon="4.14095">
        <ele>261.908</ele>
        <time>2019-09-19T14:37:52.001Z</time>
      </trkpt>
      <trkpt lat="50.02797" lon="4.14097">
        <ele>261.934</ele>
        <time>2019-09-19T14:37:55.001Z</time>
      </trkpt>
      <trkpt lat="50.0279" lon="4.14101">
        <ele>262.018</ele>
        <time>2019-09-19T14:37:58.001Z</time>
      </trkpt>
      <trkpt lat="50.02783" lon="4.14107">
        <ele>262.865</ele>
        <time>2019-09-19T14:38:01.001Z</time>
      </trkpt>
      <trkpt lat="50.02776" lon="4.14116">
        <ele>263.37</ele>
        <time>2019-09-19T14:38:04.001Z</time>
      </trkpt>
      <trkpt lat="50.0277" lon="4.14124">
        <ele>264.046</ele>
        <time>2019-09-19T14:38:07.001Z</time>
      </trkpt>
      <trkpt lat="50.02764" lon="4.14135">
        <ele>263.325</ele>
        <time>2019-09-19T14:38:10.001Z</time>
      </trkpt>
      <trkpt lat="50.0276" lon="4.14145">
        <ele>262.228</ele>
        <time>2019-09-19T14:38:13.001Z</time>
      </trkpt>
      <trkpt lat="50.02756" lon="4.14157">
        <ele>261.34</ele>
        <time>2019-09-19T14:38:16.000Z</time>
      </trkpt>
      <trkpt lat="50.02753" lon="4.1417">
        <ele>260.401</ele>
        <time>2019-09-19T14:38:19.001Z</time>
      </trkpt>
      <trkpt lat="50.02749" lon="4.14184">
        <ele>258.965</ele>
        <time>2019-09-19T14:38:22.001Z</time>
      </trkpt>
      <trkpt lat="50.02744" lon="4.14199">
        <ele>256.664</ele>
        <time>2019-09-19T14:38:25.001Z</time>
      </trkpt>
      <trkpt lat="50.0274" lon="4.14215">
        <ele>254.746</ele>
        <time>2019-09-19T14:38:28.001Z</time>
      </trkpt>
      <trkpt lat="50.02737" lon="4.14233">
        <ele>252.876</ele>
        <time>2019-09-19T14:38:31.001Z</time>
      </trkpt>
      <trkpt lat="50.02734" lon="4.14253">
        <ele>251.333</ele>
        <time>2019-09-19T14:38:34.001Z</time>
      </trkpt>
      <trkpt lat="50.02731" lon="4.14274">
        <ele>250.628</ele>
        <time>2019-09-19T14:38:37.001Z</time>
      </trkpt>
      <trkpt lat="50.02728" lon="4.14293">
        <ele>249.874</ele>
        <time>2019-09-19T14:38:40.001Z</time>
      </trkpt>
      <trkpt lat="50.02723" lon="4.1431">
        <ele>248.624</ele>
        <time>2019-09-19T14:38:43.001Z</time>
      </trkpt>
      <trkpt lat="50.02719" lon="4.14329">
        <ele>248.157</ele>
        <time>2019-09-19T14:38:46.001Z</time>
      </trkpt>
      <trkpt lat="50.02715" lon="4.14346">
        <ele>248.079</ele>
        <time>2019-09-19T14:38:49.001Z</time>
      </trkpt>
      <trkpt lat="50.02711" lon="4.14363">
        <ele>247.914</ele>
        <time>2019-09-19T14:38:52.001Z</time>
      </trkpt>
      <trkpt lat="50.02707" lon="4.14377">
        <ele>247.998</ele>
        <time>2019-09-19T14:38:55.001Z</time>
      </trkpt>
      <trkpt lat="50.02705" lon="4.14391">
        <ele>248.513</ele>
        <time>2019-09-19T14:38:58.001Z</time>
      </trkpt>
      <trkpt lat="50.02702" lon="4.14407">
        <ele>248.42</ele>
        <time>2019-09-19T14:39:01.001Z</time>
      </trkpt>
      <trkpt lat="50.02699" lon="4.14423">
        <ele>248.483</ele>
        <time>2019-09-19T14:39:04.001Z</time>
      </trkpt>
      <trkpt lat="50.02697" lon="4.1444">
        <ele>248.842</ele>
        <time>2019-09-19T14:39:07.001Z</time>
      </trkpt>
      <trkpt lat="50.02695" lon="4.14457">
        <ele>249.41</ele>
        <time>2019-09-19T14:39:10.001Z</time>
      </trkpt>
      <trkpt lat="50.02692" lon="4.14473">
        <ele>250.023</ele>
        <time>2019-09-19T14:39:13.001Z</time>
      </trkpt>
      <trkpt lat="50.02691" lon="4.14491">
        <ele>251.336</ele>
        <time>2019-09-19T14:39:16.000Z</time>
      </trkpt>
      <trkpt lat="50.02689" lon="4.14506">
        <ele>251.967</ele>
        <time>2019-09-19T14:39:19.001Z</time>
      </trkpt>
      <trkpt lat="50.02688" lon="4.14521">
        <ele>252.611</ele>
        <time>2019-09-19T14:39:22.001Z</time>
      </trkpt>
      <trkpt lat="50.02686" lon="4.14536">
        <ele>252.939</ele>
        <time>2019-09-19T14:39:25.001Z</time>
      </trkpt>
      <trkpt lat="50.02684" lon="4.14554">
        <ele>252.841</ele>
        <time>2019-09-19T14:39:28.001Z</time>
      </trkpt>
      <trkpt lat="50.02682" lon="4.14571">
        <ele>252.893</ele>
        <time>2019-09-19T14:39:31.001Z</time>
      </trkpt>
      <trkpt lat="50.0268" lon="4.14589">
        <ele>252.781</ele>
        <time>2019-09-19T14:39:34.001Z</time>
      </trkpt>
      <trkpt lat="50.02678" lon="4.14606">
        <ele>251.776</ele>
        <time>2019-09-19T14:39:37.001Z</time>
      </trkpt>
      <trkpt lat="50.02676" lon="4.14623">
        <ele>251.173</ele>
        <time>2019-09-19T14:39:40.001Z</time>
      </trkpt>
      <trkpt lat="50.02673" lon="4.14642">
        <ele>251.13</ele>
        <time>2019-09-19T14:39:43.001Z</time>
      </trkpt>
      <trkpt lat="50.02669" lon="4.1466">
        <ele>251.258</ele>
        <time>2019-09-19T14:39:46.001Z</time>
      </trkpt>
      <trkpt lat="50.02666" lon="4.14679">
        <ele>251.11</ele>
        <time>2019-09-19T14:39:49.001Z</time>
      </trkpt>
      <trkpt lat="50.02664" lon="4.14697">
        <ele>251.115</ele>
        <time>2019-09-19T14:39:52.001Z</time>
      </trkpt>
      <trkpt lat="50.02661" lon="4.14715">
        <ele>251.459</ele>
        <time>2019-09-19T14:39:55.001Z</time>
      </trkpt>
      <trkpt lat="50.02656" lon="4.14733">
        <ele>251.671</ele>
        <time>2019-09-19T14:39:58.001Z</time>
      </trkpt>
      <trkpt lat="50.02649" lon="4.14749">
        <ele>251.658</ele>
        <time>2019-09-19T14:40:01.001Z</time>
      </trkpt>
      <trkpt lat="50.02642" lon="4.14763">
        <ele>251.83</ele>
        <time>2019-09-19T14:40:04.001Z</time>
      </trkpt>
      <trkpt lat="50.02634" lon="4.14776">
        <ele>251.769</ele>
        <time>2019-09-19T14:40:07.001Z</time>
      </trkpt>
      <trkpt lat="50.02628" lon="4.14788">
        <ele>251.096</ele>
        <time>2019-09-19T14:40:10.001Z</time>
      </trkpt>
      <trkpt lat="50.02621" lon="4.148">
        <ele>250.465</ele>
        <time>2019-09-19T14:40:13.001Z</time>
      </trkpt>
      <trkpt lat="50.02614" lon="4.1481">
        <ele>250.604</ele>
        <time>2019-09-19T14:40:16.000Z</time>
      </trkpt>
      <trkpt lat="50.02608" lon="4.1482">
        <ele>250.836</ele>
        <time>2019-09-19T14:40:19.001Z</time>
      </trkpt>
      <trkpt lat="50.02602" lon="4.1483">
        <ele>250.752</ele>
        <time>2019-09-19T14:40:22.001Z</time>
      </trkpt>
      <trkpt lat="50.02596" lon="4.1484">
        <ele>251.104</ele>
        <time>2019-09-19T14:40:25.001Z</time>
      </trkpt>
      <trkpt lat="50.0259" lon="4.14849">
        <ele>251.451</ele>
        <time>2019-09-19T14:40:28.001Z</time>
      </trkpt>
      <trkpt lat="50.02586" lon="4.14858">
        <ele>251.129</ele>
        <time>2019-09-19T14:40:31.001Z</time>
      </trkpt>
      <trkpt lat="50.02582" lon="4.14866">
        <ele>251.358</ele>
        <time>2019-09-19T14:40:34.001Z</time>
      </trkpt>
      <trkpt lat="50.02578" lon="4.14876">
        <ele>252.616</ele>
        <time>2019-09-19T14:40:37.001Z</time>
      </trkpt>
      <trkpt lat="50.02574" lon="4.14886">
        <ele>253.367</ele>
        <time>2019-09-19T14:40:40.001Z</time>
      </trkpt>
      <trkpt lat="50.02569" lon="4.14895">
        <ele>253.295</ele>
        <time>2019-09-19T14:40:43.001Z</time>
      </trkpt>
      <trkpt lat="50.02564" lon="4.14904">
        <ele>253.57</ele>
        <time>2019-09-19T14:40:46.001Z</time>
      </trkpt>
      <trkpt lat="50.02562" lon="4.14914">
        <ele>253.61</ele>
        <time>2019-09-19T14:40:49.001Z</time>
      </trkpt>
      <trkpt lat="50.02562" lon="4.14921">
        <ele>253.992</ele>
        <time>2019-09-19T14:40:52.001Z</time>
      </trkpt>
      <trkpt lat="50.0256" lon="4.14934">
        <ele>255.545</ele>
        <time>2019-09-19T14:40:58.001Z</time>
      </trkpt>
      <trkpt lat="50.02561" lon="4.14947">
        <ele>256.427</ele>
        <time>2019-09-19T14:41:01.001Z</time>
      </trkpt>
      <trkpt lat="50.02562" lon="4.14963">
        <ele>256.857</ele>
        <time>2019-09-19T14:41:04.001Z</time>
      </trkpt>
      <trkpt lat="50.02563" lon="4.14979">
        <ele>257.13</ele>
        <time>2019-09-19T14:41:07.001Z</time>
      </trkpt>
      <trkpt lat="50.02565" lon="4.14995">
        <ele>257.384</ele>
        <time>2019-09-19T14:41:10.001Z</time>
      </trkpt>
      <trkpt lat="50.02566" lon="4.1501">
        <ele>257.675</ele>
        <time>2019-09-19T14:41:13.001Z</time>
      </trkpt>
      <trkpt lat="50.02568" lon="4.15025">
        <ele>257.392</ele>
        <time>2019-09-19T14:41:16.000Z</time>
      </trkpt>
      <trkpt lat="50.02568" lon="4.1504">
        <ele>257.077</ele>
        <time>2019-09-19T14:41:19.001Z</time>
      </trkpt>
      <trkpt lat="50.02569" lon="4.15057">
        <ele>257.022</ele>
        <time>2019-09-19T14:41:22.001Z</time>
      </trkpt>
      <trkpt lat="50.02569" lon="4.15074">
        <ele>256.794</ele>
        <time>2019-09-19T14:41:25.001Z</time>
      </trkpt>
      <trkpt lat="50.0257" lon="4.15093">
        <ele>256.082</ele>
        <time>2019-09-19T14:41:28.001Z</time>
      </trkpt>
      <trkpt lat="50.02571" lon="4.15107">
        <ele>256.561</ele>
        <time>2019-09-19T14:41:31.001Z</time>
      </trkpt>
      <trkpt lat="50.02572" lon="4.15123">
        <ele>257.228</ele>
        <time>2019-09-19T14:41:34.001Z</time>
      </trkpt>
      <trkpt lat="50.02573" lon="4.15141">
        <ele>258.582</ele>
        <time>2019-09-19T14:41:37.001Z</time>
      </trkpt>
      <trkpt lat="50.02574" lon="4.1516">
        <ele>260.682</ele>
        <time>2019-09-19T14:41:40.001Z</time>
      </trkpt>
      <trkpt lat="50.02574" lon="4.15177">
        <ele>262.158</ele>
        <time>2019-09-19T14:41:43.001Z</time>
      </trkpt>
      <trkpt lat="50.02575" lon="4.15198">
        <ele>263.164</ele>
        <time>2019-09-19T14:41:46.001Z</time>
      </trkpt>
      <trkpt lat="50.02575" lon="4.1522">
        <ele>264.046</ele>
        <time>2019-09-19T14:41:49.001Z</time>
      </trkpt>
      <trkpt lat="50.02576" lon="4.1524">
        <ele>264.923</ele>
        <time>2019-09-19T14:41:52.001Z</time>
      </trkpt>
      <trkpt lat="50.02576" lon="4.15261">
        <ele>265.35</ele>
        <time>2019-09-19T14:41:55.001Z</time>
      </trkpt>
      <trkpt lat="50.02577" lon="4.15281">
        <ele>264.559</ele>
        <time>2019-09-19T14:41:58.001Z</time>
      </trkpt>
      <trkpt lat="50.02577" lon="4.153">
        <ele>264.418</ele>
        <time>2019-09-19T14:42:01.001Z</time>
      </trkpt>
      <trkpt lat="50.02578" lon="4.15318">
        <ele>265.65</ele>
        <time>2019-09-19T14:42:04.001Z</time>
      </trkpt>
      <trkpt lat="50.02579" lon="4.15336">
        <ele>266.909</ele>
        <time>2019-09-19T14:42:07.001Z</time>
      </trkpt>
      <trkpt lat="50.02579" lon="4.1535">
        <ele>269.641</ele>
        <time>2019-09-19T14:42:10.001Z</time>
      </trkpt>
      <trkpt lat="50.0258" lon="4.15364">
        <ele>274.195</ele>
        <time>2019-09-19T14:42:13.001Z</time>
      </trkpt>
      <trkpt lat="50.02583" lon="4.15378">
        <ele>276.357</ele>
        <time>2019-09-19T14:42:16.000Z</time>
      </trkpt>
      <trkpt lat="50.02584" lon="4.15397">
        <ele>276.69</ele>
        <time>2019-09-19T14:42:19.001Z</time>
      </trkpt>
      <trkpt lat="50.02584" lon="4.15417">
        <ele>277.928</ele>
        <time>2019-09-19T14:42:22.001Z</time>
      </trkpt>
      <trkpt lat="50.02585" lon="4.15438">
        <ele>279.392</ele>
        <time>2019-09-19T14:42:25.001Z</time>
      </trkpt>
      <trkpt lat="50.02586" lon="4.15455">
        <ele>280.596</ele>
        <time>2019-09-19T14:42:28.001Z</time>
      </trkpt>
      <trkpt lat="50.02589" lon="4.15472">
        <ele>280.391</ele>
        <time>2019-09-19T14:42:31.001Z</time>
      </trkpt>
      <trkpt lat="50.02591" lon="4.15492">
        <ele>278.811</ele>
        <time>2019-09-19T14:42:34.001Z</time>
      </trkpt>
      <trkpt lat="50.02591" lon="4.15515">
        <ele>278.082</ele>
        <time>2019-09-19T14:42:37.001Z</time>
      </trkpt>
      <trkpt lat="50.02591" lon="4.15536">
        <ele>276.133</ele>
        <time>2019-09-19T14:42:40.001Z</time>
      </trkpt>
      <trkpt lat="50.02592" lon="4.15558">
        <ele>274.471</ele>
        <time>2019-09-19T14:42:43.001Z</time>
      </trkpt>
      <trkpt lat="50.02592" lon="4.15579">
        <ele>272.84</ele>
        <time>2019-09-19T14:42:46.001Z</time>
      </trkpt>
      <trkpt lat="50.02592" lon="4.15598">
        <ele>272.077</ele>
        <time>2019-09-19T14:42:49.001Z</time>
      </trkpt>
      <trkpt lat="50.02592" lon="4.15617">
        <ele>271.974</ele>
        <time>2019-09-19T14:42:52.001Z</time>
      </trkpt>
      <trkpt lat="50.02594" lon="4.15634">
        <ele>271.704</ele>
        <time>2019-09-19T14:42:55.001Z</time>
      </trkpt>
      <trkpt lat="50.02595" lon="4.15653">
        <ele>271.454</ele>
        <time>2019-09-19T14:42:58.001Z</time>
      </trkpt>
      <trkpt lat="50.02596" lon="4.15672">
        <ele>271.308</ele>
        <time>2019-09-19T14:43:01.001Z</time>
      </trkpt>
      <trkpt lat="50.02597" lon="4.1569">
        <ele>271.292</ele>
        <time>2019-09-19T14:43:04.001Z</time>
      </trkpt>
      <trkpt lat="50.02597" lon="4.15708">
        <ele>271.67</ele>
        <time>2019-09-19T14:43:07.001Z</time>
      </trkpt>
      <trkpt lat="50.02598" lon="4.15724">
        <ele>271.977</ele>
        <time>2019-09-19T14:43:10.001Z</time>
      </trkpt>
      <trkpt lat="50.02599" lon="4.1574">
        <ele>272.399</ele>
        <time>2019-09-19T14:43:13.001Z</time>
      </trkpt>
      <trkpt lat="50.02599" lon="4.15757">
        <ele>272.419</ele>
        <time>2019-09-19T14:43:16.000Z</time>
      </trkpt>
      <trkpt lat="50.026" lon="4.15774">
        <ele>272.272</ele>
        <time>2019-09-19T14:43:19.001Z</time>
      </trkpt>
      <trkpt lat="50.02601" lon="4.15796">
        <ele>272.997</ele>
        <time>2019-09-19T14:43:22.001Z</time>
      </trkpt>
      <trkpt lat="50.02603" lon="4.15818">
        <ele>273.018</ele>
        <time>2019-09-19T14:43:25.001Z</time>
      </trkpt>
      <trkpt lat="50.02604" lon="4.15839">
        <ele>272.968</ele>
        <time>2019-09-19T14:43:28.001Z</time>
      </trkpt>
      <trkpt lat="50.02605" lon="4.15858">
        <ele>272.697</ele>
        <time>2019-09-19T14:43:31.001Z</time>
      </trkpt>
      <trkpt lat="50.02606" lon="4.15875">
        <ele>271.883</ele>
        <time>2019-09-19T14:43:34.001Z</time>
      </trkpt>
      <trkpt lat="50.02607" lon="4.15889">
        <ele>272.443</ele>
        <time>2019-09-19T14:43:37.001Z</time>
      </trkpt>
      <trkpt lat="50.02607" lon="4.15905">
        <ele>272.644</ele>
        <time>2019-09-19T14:43:40.001Z</time>
      </trkpt>
      <trkpt lat="50.02607" lon="4.15919">
        <ele>272.032</ele>
        <time>2019-09-19T14:43:43.001Z</time>
      </trkpt>
      <trkpt lat="50.02608" lon="4.15927">
        <ele>271.708</ele>
        <time>2019-09-19T14:43:46.001Z</time>
      </trkpt>
      <trkpt lat="50.02607" lon="4.15936">
        <ele>271.121</ele>
        <time>2019-09-19T14:43:49.001Z</time>
      </trkpt>
      <trkpt lat="50.02608" lon="4.15943">
        <ele>270.024</ele>
        <time>2019-09-19T14:43:52.001Z</time>
      </trkpt>
      <trkpt lat="50.02608" lon="4.15943">
        <ele>270.024</ele>
        <time>2019-09-19T14:45:49.001Z</time>
      </trkpt>
      <trkpt lat="50.02608" lon="4.15943">
        <ele>269.661</ele>
        <time>2019-09-19T14:45:52.001Z</time>
      </trkpt>
      <trkpt lat="50.02611" lon="4.1595">
        <ele>268.146</ele>
        <time>2019-09-19T14:45:58.001Z</time>
      </trkpt>
      <trkpt lat="50.02615" lon="4.15958">
        <ele>268.048</ele>
        <time>2019-09-19T14:46:01.001Z</time>
      </trkpt>
      <trkpt lat="50.02623" lon="4.15966">
        <ele>267.771</ele>
        <time>2019-09-19T14:46:04.001Z</time>
      </trkpt>
      <trkpt lat="50.02631" lon="4.15971">
        <ele>267.545</ele>
        <time>2019-09-19T14:46:07.001Z</time>
      </trkpt>
      <trkpt lat="50.02644" lon="4.15979">
        <ele>267.693</ele>
        <time>2019-09-19T14:46:10.001Z</time>
      </trkpt>
      <trkpt lat="50.02656" lon="4.15988">
        <ele>267.376</ele>
        <time>2019-09-19T14:46:13.001Z</time>
      </trkpt>
      <trkpt lat="50.02669" lon="4.15997">
        <ele>267.225</ele>
        <time>2019-09-19T14:46:16.000Z</time>
      </trkpt>
      <trkpt lat="50.02682" lon="4.16005">
        <ele>266.988</ele>
        <time>2019-09-19T14:46:19.001Z</time>
      </trkpt>
      <trkpt lat="50.0269" lon="4.16013">
        <ele>266.675</ele>
        <time>2019-09-19T14:46:22.001Z</time>
      </trkpt>
      <trkpt lat="50.02699" lon="4.16021">
        <ele>267.075</ele>
        <time>2019-09-19T14:46:25.001Z</time>
      </trkpt>
      <trkpt lat="50.02713" lon="4.16027">
        <ele>267.339</ele>
        <time>2019-09-19T14:46:28.001Z</time>
      </trkpt>
      <trkpt lat="50.02727" lon="4.16036">
        <ele>267.773</ele>
        <time>2019-09-19T14:46:31.001Z</time>
      </trkpt>
      <trkpt lat="50.02742" lon="4.16048">
        <ele>266.96</ele>
        <time>2019-09-19T14:46:34.001Z</time>
      </trkpt>
      <trkpt lat="50.02757" lon="4.16063">
        <ele>265.085</ele>
        <time>2019-09-19T14:46:37.001Z</time>
      </trkpt>
      <trkpt lat="50.02775" lon="4.16081">
        <ele>261.625</ele>
        <time>2019-09-19T14:46:40.001Z</time>
      </trkpt>
      <trkpt lat="50.02791" lon="4.16098">
        <ele>260.335</ele>
        <time>2019-09-19T14:46:43.001Z</time>
      </trkpt>
      <trkpt lat="50.02806" lon="4.16116">
        <ele>259.341</ele>
        <time>2019-09-19T14:46:46.001Z</time>
      </trkpt>
      <trkpt lat="50.0282" lon="4.16132">
        <ele>258.571</ele>
        <time>2019-09-19T14:46:49.001Z</time>
      </trkpt>
      <trkpt lat="50.02834" lon="4.16148">
        <ele>257.633</ele>
        <time>2019-09-19T14:46:52.001Z</time>
      </trkpt>
      <trkpt lat="50.02847" lon="4.16162">
        <ele>256.703</ele>
        <time>2019-09-19T14:46:55.001Z</time>
      </trkpt>
      <trkpt lat="50.0286" lon="4.16177">
        <ele>255.564</ele>
        <time>2019-09-19T14:46:58.001Z</time>
      </trkpt>
      <trkpt lat="50.02872" lon="4.16191">
        <ele>254.83</ele>
        <time>2019-09-19T14:47:01.001Z</time>
      </trkpt>
      <trkpt lat="50.02885" lon="4.16204">
        <ele>254.505</ele>
        <time>2019-09-19T14:47:04.001Z</time>
      </trkpt>
      <trkpt lat="50.02896" lon="4.1622">
        <ele>254.62</ele>
        <time>2019-09-19T14:47:07.001Z</time>
      </trkpt>
      <trkpt lat="50.02906" lon="4.16236">
        <ele>254.239</ele>
        <time>2019-09-19T14:47:10.001Z</time>
      </trkpt>
      <trkpt lat="50.02916" lon="4.16254">
        <ele>254.278</ele>
        <time>2019-09-19T14:47:13.001Z</time>
      </trkpt>
      <trkpt lat="50.02926" lon="4.16271">
        <ele>253.368</ele>
        <time>2019-09-19T14:47:16.000Z</time>
      </trkpt>
      <trkpt lat="50.02935" lon="4.1629">
        <ele>253.652</ele>
        <time>2019-09-19T14:47:19.001Z</time>
      </trkpt>
      <trkpt lat="50.02944" lon="4.16308">
        <ele>253.813</ele>
        <time>2019-09-19T14:47:22.001Z</time>
      </trkpt>
      <trkpt lat="50.02952" lon="4.16326">
        <ele>253.02</ele>
        <time>2019-09-19T14:47:25.001Z</time>
      </trkpt>
      <trkpt lat="50.02961" lon="4.16344">
        <ele>252.68</ele>
        <time>2019-09-19T14:47:28.001Z</time>
      </trkpt>
      <trkpt lat="50.02968" lon="4.16362">
        <ele>252.289</ele>
        <time>2019-09-19T14:47:31.001Z</time>
      </trkpt>
      <trkpt lat="50.02976" lon="4.16379">
        <ele>252.086</ele>
        <time>2019-09-19T14:47:34.001Z</time>
      </trkpt>
      <trkpt lat="50.02983" lon="4.16398">
        <ele>252.457</ele>
        <time>2019-09-19T14:47:37.001Z</time>
      </trkpt>
      <trkpt lat="50.02986" lon="4.16419">
        <ele>253.572</ele>
        <time>2019-09-19T14:47:40.001Z</time>
      </trkpt>
      <trkpt lat="50.02987" lon="4.16439">
        <ele>254.06</ele>
        <time>2019-09-19T14:47:43.001Z</time>
      </trkpt>
      <trkpt lat="50.02987" lon="4.16458">
        <ele>254.862</ele>
        <time>2019-09-19T14:47:46.001Z</time>
      </trkpt>
      <trkpt lat="50.02987" lon="4.16474">
        <ele>256.86</ele>
        <time>2019-09-19T14:47:49.001Z</time>
      </trkpt>
      <trkpt lat="50.02988" lon="4.16493">
        <ele>257.667</ele>
        <time>2019-09-19T14:47:52.001Z</time>
      </trkpt>
      <trkpt lat="50.02991" lon="4.16512">
        <ele>260.422</ele>
        <time>2019-09-19T14:47:55.001Z</time>
      </trkpt>
      <trkpt lat="50.02996" lon="4.16534">
        <ele>260.119</ele>
        <time>2019-09-19T14:47:58.001Z</time>
      </trkpt>
      <trkpt lat="50.02994" lon="4.16555">
        <ele>259.331</ele>
        <time>2019-09-19T14:48:01.001Z</time>
      </trkpt>
      <trkpt lat="50.02984" lon="4.16571">
        <ele>258.702</ele>
        <time>2019-09-19T14:48:04.001Z</time>
      </trkpt>
      <trkpt lat="50.02974" lon="4.16582">
        <ele>258.296</ele>
        <time>2019-09-19T14:48:07.001Z</time>
      </trkpt>
      <trkpt lat="50.02971" lon="4.16593">
        <ele>257.472</ele>
        <time>2019-09-19T14:48:10.001Z</time>
      </trkpt>
      <trkpt lat="50.0297" lon="4.16601">
        <ele>257.718</ele>
        <time>2019-09-19T14:48:13.001Z</time>
      </trkpt>
      <trkpt lat="50.0297" lon="4.16602">
        <ele>257.563</ele>
        <time>2019-09-19T14:48:16.000Z</time>
      </trkpt>
      <trkpt lat="50.0297" lon="4.16602">
        <ele>257.563</ele>
        <time>2019-09-19T14:48:52.001Z</time>
      </trkpt>
      <trkpt lat="50.0297" lon="4.16603">
        <ele>257.879</ele>
        <time>2019-09-19T14:48:55.001Z</time>
      </trkpt>
      <trkpt lat="50.02974" lon="4.16605">
        <ele>257.326</ele>
        <time>2019-09-19T14:49:04.001Z</time>
      </trkpt>
      <trkpt lat="50.02973" lon="4.16605">
        <ele>257.349</ele>
        <time>2019-09-19T14:49:07.001Z</time>
      </trkpt>
      <trkpt lat="50.02973" lon="4.16605">
        <ele>257.349</ele>
        <time>2019-09-19T14:49:10.001Z</time>
      </trkpt>
      <trkpt lat="50.02971" lon="4.16602">
        <ele>258.215</ele>
        <time>2019-09-19T14:49:13.001Z</time>
      </trkpt>
      <trkpt lat="50.02971" lon="4.16604">
        <ele>258.497</ele>
        <time>2019-09-19T14:49:16.000Z</time>
      </trkpt>
      <trkpt lat="50.02971" lon="4.16604">
        <ele>258.499</ele>
        <time>2019-09-19T14:50:13.001Z</time>
      </trkpt>
      <trkpt lat="50.02971" lon="4.16602">
        <ele>258.623</ele>
        <time>2019-09-19T14:50:16.000Z</time>
      </trkpt>
      <trkpt lat="50.02969" lon="4.16606">
        <ele>258.713</ele>
        <time>2019-09-19T14:50:19.001Z</time>
      </trkpt>
      <trkpt lat="50.02967" lon="4.16606">
        <ele>259.133</ele>
        <time>2019-09-19T14:50:22.001Z</time>
      </trkpt>
      <trkpt lat="50.02967" lon="4.16606">
        <ele>259.133</ele>
        <time>2019-09-19T14:50:40.001Z</time>
      </trkpt>
      <trkpt lat="50.02968" lon="4.16599">
        <ele>260.478</ele>
        <time>2019-09-19T14:50:43.001Z</time>
      </trkpt>
      <trkpt lat="50.02968" lon="4.16599">
        <ele>260.478</ele>
        <time>2019-09-19T14:50:46.001Z</time>
      </trkpt>
      <trkpt lat="50.02968" lon="4.16596">
        <ele>259.8</ele>
        <time>2019-09-19T14:50:58.001Z</time>
      </trkpt>
      <trkpt lat="50.02967" lon="4.16598">
        <ele>259.114</ele>
        <time>2019-09-19T14:51:01.001Z</time>
      </trkpt>
      <trkpt lat="50.02967" lon="4.16597">
        <ele>259.465</ele>
        <time>2019-09-19T14:51:04.001Z</time>
      </trkpt>
      <trkpt lat="50.02967" lon="4.16597">
        <ele>259.465</ele>
        <time>2019-09-19T14:51:22.001Z</time>
      </trkpt>
      <trkpt lat="50.02967" lon="4.16597">
        <ele>258.999</ele>
        <time>2019-09-19T14:51:25.001Z</time>
      </trkpt>
      <trkpt lat="50.02967" lon="4.16597">
        <ele>258.987</ele>
        <time>2019-09-19T14:51:28.001Z</time>
      </trkpt>
      <trkpt lat="50.02967" lon="4.16597">
        <ele>258.987</ele>
        <time>2019-09-19T14:51:31.001Z</time>
      </trkpt>
      <trkpt lat="50.02967" lon="4.16597">
        <ele>258.63</ele>
        <time>2019-09-19T14:52:31.001Z</time>
      </trkpt>
      <trkpt lat="50.02966" lon="4.16598">
        <ele>259.683</ele>
        <time>2019-09-19T14:52:34.001Z</time>
      </trkpt>
      <trkpt lat="50.02965" lon="4.16597">
        <ele>260.433</ele>
        <time>2019-09-19T14:52:52.001Z</time>
      </trkpt>
      <trkpt lat="50.02965" lon="4.16596">
        <ele>260.433</ele>
        <time>2019-09-19T14:52:55.001Z</time>
      </trkpt>
      <trkpt lat="50.0295" lon="4.16581">
        <ele>260.534</ele>
        <time>2019-09-19T14:53:28.001Z</time>
      </trkpt>
      <trkpt lat="50.02945" lon="4.16606">
        <ele>251.139</ele>
        <time>2019-09-19T16:23:27.000Z</time>
      </trkpt>
      <trkpt lat="50.02951" lon="4.16598">
        <ele>251.139</ele>
        <time>2019-09-19T16:23:30.000Z</time>
      </trkpt>
      <trkpt lat="50.02951" lon="4.16598">
        <ele>251.139</ele>
        <time>2019-09-19T16:23:33.000Z</time>
      </trkpt>
      <trkpt lat="50.02951" lon="4.16598">
        <ele>251.139</ele>
        <time>2019-09-19T16:23:39.000Z</time>
      </trkpt>
      <trkpt lat="50.02952" lon="4.16598">
        <ele>251.139</ele>
        <time>2019-09-19T16:23:42.000Z</time>
      </trkpt>
      <trkpt lat="50.02952" lon="4.16598">
        <ele>251.139</ele>
        <time>2019-09-19T16:23:45.000Z</time>
      </trkpt>
      <trkpt lat="50.02952" lon="4.16598">
        <ele>251.139</ele>
        <time>2019-09-19T16:23:48.000Z</time>
      </trkpt>
      <trkpt lat="50.02952" lon="4.16598">
        <ele>251.139</ele>
        <time>2019-09-19T16:24:12.000Z</time>
      </trkpt>
      <trkpt lat="50.02952" lon="4.16598">
        <ele>251.139</ele>
        <time>2019-09-19T16:24:15.000Z</time>
      </trkpt>
      <trkpt lat="50.02952" lon="4.16598">
        <ele>251.139</ele>
        <time>2019-09-19T16:24:18.000Z</time>
      </trkpt>
      <trkpt lat="50.02952" lon="4.16598">
        <ele>251.139</ele>
        <time>2019-09-19T16:24:27.000Z</time>
      </trkpt>
      <trkpt lat="50.02951" lon="4.16598">
        <ele>251.707</ele>
        <time>2019-09-19T16:24:30.000Z</time>
      </trkpt>
      <trkpt lat="50.02951" lon="4.16598">
        <ele>251.707</ele>
        <time>2019-09-19T16:24:36.000Z</time>
      </trkpt>
      <trkpt lat="50.02951" lon="4.16598">
        <ele>251.707</ele>
        <time>2019-09-19T16:24:39.000Z</time>
      </trkpt>
      <trkpt lat="50.02951" lon="4.16598">
        <ele>251.707</ele>
        <time>2019-09-19T16:24:45.000Z</time>
      </trkpt>
      <trkpt lat="50.02951" lon="4.16598">
        <ele>251.707</ele>
        <time>2019-09-19T16:24:48.000Z</time>
      </trkpt>
      <trkpt lat="50.02951" lon="4.16598">
        <ele>251.707</ele>
        <time>2019-09-19T16:24:51.000Z</time>
      </trkpt>
      <trkpt lat="50.02951" lon="4.16598">
        <ele>251.707</ele>
        <time>2019-09-19T16:25:24.000Z</time>
      </trkpt>
      <trkpt lat="50.02951" lon="4.16598">
        <ele>251.707</ele>
        <time>2019-09-19T16:25:27.000Z</time>
      </trkpt>
      <trkpt lat="50.02951" lon="4.16598">
        <ele>251.707</ele>
        <time>2019-09-19T16:25:30.000Z</time>
      </trkpt>
      <trkpt lat="50.02951" lon="4.16598">
        <ele>251.707</ele>
        <time>2019-09-19T16:25:33.000Z</time>
      </trkpt>
      <trkpt lat="50.02951" lon="4.16598">
        <ele>251.707</ele>
        <time>2019-09-19T16:25:39.000Z</time>
      </trkpt>
      <trkpt lat="50.02951" lon="4.16598">
        <ele>251.707</ele>
        <time>2019-09-19T16:25:42.000Z</time>
      </trkpt>
      <trkpt lat="50.02951" lon="4.16598">
        <ele>251.707</ele>
        <time>2019-09-19T16:25:45.000Z</time>
      </trkpt>
      <trkpt lat="50.02951" lon="4.16598">
        <ele>251.707</ele>
        <time>2019-09-19T16:25:48.000Z</time>
      </trkpt>
      <trkpt lat="50.02951" lon="4.16598">
        <ele>251.707</ele>
        <time>2019-09-19T16:25:51.000Z</time>
      </trkpt>
      <trkpt lat="50.02951" lon="4.16598">
        <ele>251.707</ele>
        <time>2019-09-19T16:25:54.000Z</time>
      </trkpt>
      <trkpt lat="50.02951" lon="4.16598">
        <ele>251.707</ele>
        <time>2019-09-19T16:25:57.000Z</time>
      </trkpt>
      <trkpt lat="50.02951" lon="4.16598">
        <ele>251.707</ele>
        <time>2019-09-19T16:26:51.000Z</time>
      </trkpt>
      <trkpt lat="50.02951" lon="4.16598">
        <ele>251.711</ele>
        <time>2019-09-19T16:26:54.000Z</time>
      </trkpt>
      <trkpt lat="50.02953" lon="4.166">
        <ele>251.641</ele>
        <time>2019-09-19T16:27:06.000Z</time>
      </trkpt>
      <trkpt lat="50.02953" lon="4.166">
        <ele>251.641</ele>
        <time>2019-09-19T16:27:09.000Z</time>
      </trkpt>
      <trkpt lat="50.02953" lon="4.166">
        <ele>251.641</ele>
        <time>2019-09-19T16:27:15.000Z</time>
      </trkpt>
      <trkpt lat="50.02953" lon="4.16601">
        <ele>251.578</ele>
        <time>2019-09-19T16:27:18.000Z</time>
      </trkpt>
      <trkpt lat="50.02959" lon="4.16601">
        <ele>251.52</ele>
        <time>2019-09-19T16:27:21.000Z</time>
      </trkpt>
      <trkpt lat="50.02965" lon="4.16596">
        <ele>252.521</ele>
        <time>2019-09-19T16:27:24.000Z</time>
      </trkpt>
      <trkpt lat="50.0298" lon="4.16575">
        <ele>253.611</ele>
        <time>2019-09-19T16:27:27.000Z</time>
      </trkpt>
      <trkpt lat="50.02987" lon="4.16562">
        <ele>252.792</ele>
        <time>2019-09-19T16:27:30.000Z</time>
      </trkpt>
      <trkpt lat="50.02995" lon="4.1655">
        <ele>252.298</ele>
        <time>2019-09-19T16:27:33.000Z</time>
      </trkpt>
      <trkpt lat="50.03004" lon="4.1655">
        <ele>251.48</ele>
        <time>2019-09-19T16:27:36.000Z</time>
      </trkpt>
      <trkpt lat="50.03012" lon="4.1656">
        <ele>250.975</ele>
        <time>2019-09-19T16:27:39.000Z</time>
      </trkpt>
      <trkpt lat="50.03021" lon="4.16566">
        <ele>251.036</ele>
        <time>2019-09-19T16:27:42.000Z</time>
      </trkpt>
      <trkpt lat="50.03032" lon="4.1657">
        <ele>251.641</ele>
        <time>2019-09-19T16:27:45.000Z</time>
      </trkpt>
      <trkpt lat="50.03046" lon="4.16577">
        <ele>251.838</ele>
        <time>2019-09-19T16:27:48.000Z</time>
      </trkpt>
      <trkpt lat="50.03059" lon="4.16588">
        <ele>251.535</ele>
        <time>2019-09-19T16:27:51.000Z</time>
      </trkpt>
      <trkpt lat="50.03072" lon="4.16603">
        <ele>251.49</ele>
        <time>2019-09-19T16:27:54.000Z</time>
      </trkpt>
      <trkpt lat="50.03085" lon="4.1662">
        <ele>249.68</ele>
        <time>2019-09-19T16:27:57.000Z</time>
      </trkpt>
      <trkpt lat="50.031" lon="4.16637">
        <ele>247.733</ele>
        <time>2019-09-19T16:28:00.000Z</time>
      </trkpt>
      <trkpt lat="50.03109" lon="4.16655">
        <ele>247.244</ele>
        <time>2019-09-19T16:28:03.000Z</time>
      </trkpt>
      <trkpt lat="50.03114" lon="4.16676">
        <ele>246.629</ele>
        <time>2019-09-19T16:28:06.000Z</time>
      </trkpt>
      <trkpt lat="50.03121" lon="4.16696">
        <ele>246.248</ele>
        <time>2019-09-19T16:28:09.000Z</time>
      </trkpt>
      <trkpt lat="50.0313" lon="4.16712">
        <ele>245.768</ele>
        <time>2019-09-19T16:28:12.000Z</time>
      </trkpt>
      <trkpt lat="50.03141" lon="4.16729">
        <ele>246.261</ele>
        <time>2019-09-19T16:28:15.000Z</time>
      </trkpt>
      <trkpt lat="50.03151" lon="4.16745">
        <ele>246.028</ele>
        <time>2019-09-19T16:28:18.000Z</time>
      </trkpt>
      <trkpt lat="50.03158" lon="4.16759">
        <ele>244.851</ele>
        <time>2019-09-19T16:28:21.000Z</time>
      </trkpt>
      <trkpt lat="50.03163" lon="4.16771">
        <ele>243.791</ele>
        <time>2019-09-19T16:28:24.000Z</time>
      </trkpt>
      <trkpt lat="50.03161" lon="4.16781">
        <ele>243.233</ele>
        <time>2019-09-19T16:28:27.000Z</time>
      </trkpt>
      <trkpt lat="50.03154" lon="4.16785">
        <ele>243.201</ele>
        <time>2019-09-19T16:28:30.000Z</time>
      </trkpt>
      <trkpt lat="50.03147" lon="4.1679">
        <ele>243.749</ele>
        <time>2019-09-19T16:28:33.000Z</time>
      </trkpt>
      <trkpt lat="50.0314" lon="4.16795">
        <ele>244.025</ele>
        <time>2019-09-19T16:28:36.000Z</time>
      </trkpt>
      <trkpt lat="50.03138" lon="4.16803">
        <ele>243.921</ele>
        <time>2019-09-19T16:28:39.000Z</time>
      </trkpt>
      <trkpt lat="50.03143" lon="4.16808">
        <ele>243.724</ele>
        <time>2019-09-19T16:28:42.000Z</time>
      </trkpt>
      <trkpt lat="50.03146" lon="4.16808">
        <ele>243.319</ele>
        <time>2019-09-19T16:28:45.000Z</time>
      </trkpt>
      <trkpt lat="50.03146" lon="4.16807">
        <ele>243.229</ele>
        <time>2019-09-19T16:28:48.000Z</time>
      </trkpt>
      <trkpt lat="50.03146" lon="4.16807">
        <ele>243.229</ele>
        <time>2019-09-19T16:28:54.000Z</time>
      </trkpt>
      <trkpt lat="50.03147" lon="4.16804">
        <ele>243.209</ele>
        <time>2019-09-19T16:28:57.000Z</time>
      </trkpt>
      <trkpt lat="50.03148" lon="4.16804">
        <ele>242.996</ele>
        <time>2019-09-19T16:29:00.000Z</time>
      </trkpt>
      <trkpt lat="50.03146" lon="4.168">
        <ele>245.003</ele>
        <time>2019-09-19T16:29:30.000Z</time>
      </trkpt>
      <trkpt lat="50.03148" lon="4.16796">
        <ele>244.678</ele>
        <time>2019-09-19T16:29:33.000Z</time>
      </trkpt>
      <trkpt lat="50.03152" lon="4.16795">
        <ele>243.975</ele>
        <time>2019-09-19T16:30:00.000Z</time>
      </trkpt>
      <trkpt lat="50.03152" lon="4.16795">
        <ele>243.975</ele>
        <time>2019-09-19T16:30:03.000Z</time>
      </trkpt>
      <trkpt lat="50.03152" lon="4.16795">
        <ele>243.784</ele>
        <time>2019-09-19T16:30:15.000Z</time>
      </trkpt>
      <trkpt lat="50.03157" lon="4.168">
        <ele>243.957</ele>
        <time>2019-09-19T16:30:18.000Z</time>
      </trkpt>
      <trkpt lat="50.03151" lon="4.16796">
        <ele>243.497</ele>
        <time>2019-09-19T16:30:24.000Z</time>
      </trkpt>
      <trkpt lat="50.03149" lon="4.16795">
        <ele>242.557</ele>
        <time>2019-09-19T16:30:27.000Z</time>
      </trkpt>
      <trkpt lat="50.03149" lon="4.16795">
        <ele>240.493</ele>
        <time>2019-09-19T16:30:39.000Z</time>
      </trkpt>
      <trkpt lat="50.03144" lon="4.16789">
        <ele>240.455</ele>
        <time>2019-09-19T16:30:42.000Z</time>
      </trkpt>
      <trkpt lat="50.03147" lon="4.16797">
        <ele>239.734</ele>
        <time>2019-09-19T16:30:51.000Z</time>
      </trkpt>
      <trkpt lat="50.03149" lon="4.16805">
        <ele>239.068</ele>
        <time>2019-09-19T16:31:06.000Z</time>
      </trkpt>
      <trkpt lat="50.03152" lon="4.16815">
        <ele>240.477</ele>
        <time>2019-09-19T16:31:15.000Z</time>
      </trkpt>
      <trkpt lat="50.03147" lon="4.1682">
        <ele>241.308</ele>
        <time>2019-09-19T16:31:21.000Z</time>
      </trkpt>
      <trkpt lat="50.0314" lon="4.16824">
        <ele>241.473</ele>
        <time>2019-09-19T16:31:24.000Z</time>
      </trkpt>
      <trkpt lat="50.03135" lon="4.16829">
        <ele>240.925</ele>
        <time>2019-09-19T16:31:27.000Z</time>
      </trkpt>
      <trkpt lat="50.0313" lon="4.16833">
        <ele>240.145</ele>
        <time>2019-09-19T16:31:33.000Z</time>
      </trkpt>
      <trkpt lat="50.03127" lon="4.16838">
        <ele>239.012</ele>
        <time>2019-09-19T16:31:54.000Z</time>
      </trkpt>
      <trkpt lat="50.03127" lon="4.16838">
        <ele>238.826</ele>
        <time>2019-09-19T16:31:57.000Z</time>
      </trkpt>
      <trkpt lat="50.03125" lon="4.16837">
        <ele>238.538</ele>
        <time>2019-09-19T16:32:00.000Z</time>
      </trkpt>
      <trkpt lat="50.03123" lon="4.16836">
        <ele>239.451</ele>
        <time>2019-09-19T16:32:03.000Z</time>
      </trkpt>
      <trkpt lat="50.03122" lon="4.16836">
        <ele>238.199</ele>
        <time>2019-09-19T16:32:06.000Z</time>
      </trkpt>
      <trkpt lat="50.03124" lon="4.16836">
        <ele>238.575</ele>
        <time>2019-09-19T16:32:09.000Z</time>
      </trkpt>
      <trkpt lat="50.0313" lon="4.16838">
        <ele>239.733</ele>
        <time>2019-09-19T16:32:15.000Z</time>
      </trkpt>
      <trkpt lat="50.03131" lon="4.16838">
        <ele>239.834</ele>
        <time>2019-09-19T16:32:18.000Z</time>
      </trkpt>
      <trkpt lat="50.03149" lon="4.16834">
        <ele>240.285</ele>
        <time>2019-09-19T16:32:33.000Z</time>
      </trkpt>
      <trkpt lat="50.03164" lon="4.16816">
        <ele>240.847</ele>
        <time>2019-09-19T16:32:39.000Z</time>
      </trkpt>
      <trkpt lat="50.03171" lon="4.16809">
        <ele>241.503</ele>
        <time>2019-09-19T16:32:42.000Z</time>
      </trkpt>
      <trkpt lat="50.03176" lon="4.16804">
        <ele>242.038</ele>
        <time>2019-09-19T16:32:45.000Z</time>
      </trkpt>
      <trkpt lat="50.03183" lon="4.168">
        <ele>242.842</ele>
        <time>2019-09-19T16:32:48.000Z</time>
      </trkpt>
      <trkpt lat="50.03191" lon="4.16797">
        <ele>243.634</ele>
        <time>2019-09-19T16:32:51.000Z</time>
      </trkpt>
      <trkpt lat="50.03196" lon="4.16795">
        <ele>243.999</ele>
        <time>2019-09-19T16:32:54.000Z</time>
      </trkpt>
      <trkpt lat="50.03189" lon="4.16794">
        <ele>240.161</ele>
        <time>2019-09-19T16:33:06.000Z</time>
      </trkpt>
      <trkpt lat="50.03177" lon="4.168">
        <ele>240.392</ele>
        <time>2019-09-19T16:33:09.000Z</time>
      </trkpt>
      <trkpt lat="50.03168" lon="4.16805">
        <ele>239.961</ele>
        <time>2019-09-19T16:33:12.000Z</time>
      </trkpt>
      <trkpt lat="50.03163" lon="4.16808">
        <ele>238.409</ele>
        <time>2019-09-19T16:33:15.000Z</time>
      </trkpt>
      <trkpt lat="50.03159" lon="4.16816">
        <ele>237.584</ele>
        <time>2019-09-19T16:33:21.000Z</time>
      </trkpt>
      <trkpt lat="50.03158" lon="4.16817">
        <ele>236.56</ele>
        <time>2019-09-19T16:33:24.000Z</time>
      </trkpt>
      <trkpt lat="50.03156" lon="4.16819">
        <ele>247.309</ele>
        <time>2019-09-19T16:33:27.000Z</time>
      </trkpt>
      <trkpt lat="50.03153" lon="4.16816">
        <ele>243.613</ele>
        <time>2019-09-19T16:33:33.000Z</time>
      </trkpt>
      <trkpt lat="50.03153" lon="4.16814">
        <ele>243.613</ele>
        <time>2019-09-19T16:33:36.000Z</time>
      </trkpt>
      <trkpt lat="50.03153" lon="4.16814">
        <ele>243.564</ele>
        <time>2019-09-19T16:34:21.000Z</time>
      </trkpt>
      <trkpt lat="50.03142" lon="4.16813">
        <ele>245.223</ele>
        <time>2019-09-19T16:34:24.000Z</time>
      </trkpt>
      <trkpt lat="50.03147" lon="4.16813">
        <ele>245.337</ele>
        <time>2019-09-19T16:34:30.000Z</time>
      </trkpt>
      <trkpt lat="50.03156" lon="4.16813">
        <ele>246.091</ele>
        <time>2019-09-19T16:34:36.000Z</time>
      </trkpt>
      <trkpt lat="50.03164" lon="4.16816">
        <ele>246.606</ele>
        <time>2019-09-19T16:34:42.000Z</time>
      </trkpt>
      <trkpt lat="50.03165" lon="4.16825">
        <ele>246.951</ele>
        <time>2019-09-19T16:34:48.000Z</time>
      </trkpt>
      <trkpt lat="50.03162" lon="4.16817">
        <ele>245.683</ele>
        <time>2019-09-19T16:35:06.000Z</time>
      </trkpt>
      <trkpt lat="50.03161" lon="4.1681">
        <ele>244.974</ele>
        <time>2019-09-19T16:35:09.000Z</time>
      </trkpt>
      <trkpt lat="50.03161" lon="4.16809">
        <ele>244.974</ele>
        <time>2019-09-19T16:35:12.000Z</time>
      </trkpt>
      <trkpt lat="50.03161" lon="4.16809">
        <ele>246.412</ele>
        <time>2019-09-19T16:36:00.000Z</time>
      </trkpt>
      <trkpt lat="50.03159" lon="4.16797">
        <ele>247.661</ele>
        <time>2019-09-19T16:36:03.000Z</time>
      </trkpt>
      <trkpt lat="50.03159" lon="4.16792">
        <ele>246.759</ele>
        <time>2019-09-19T16:36:06.000Z</time>
      </trkpt>
      <trkpt lat="50.03159" lon="4.1679">
        <ele>247.864</ele>
        <time>2019-09-19T16:36:09.000Z</time>
      </trkpt>
      <trkpt lat="50.03159" lon="4.1679">
        <ele>246.937</ele>
        <time>2019-09-19T16:36:57.000Z</time>
      </trkpt>
      <trkpt lat="50.03163" lon="4.16781">
        <ele>246.937</ele>
        <time>2019-09-19T16:37:00.000Z</time>
      </trkpt>
      <trkpt lat="50.03158" lon="4.16789">
        <ele>244.301</ele>
        <time>2019-09-19T16:37:09.000Z</time>
      </trkpt>
      <trkpt lat="50.03153" lon="4.16792">
        <ele>244.234</ele>
        <time>2019-09-19T16:37:15.000Z</time>
      </trkpt>
      <trkpt lat="50.03149" lon="4.16795">
        <ele>245.48</ele>
        <time>2019-09-19T16:37:27.000Z</time>
      </trkpt>
      <trkpt lat="50.03149" lon="4.16795">
        <ele>245.48</ele>
        <time>2019-09-19T16:37:30.000Z</time>
      </trkpt>
      <trkpt lat="50.03149" lon="4.16795">
        <ele>246.66</ele>
        <time>2019-09-19T16:38:48.000Z</time>
      </trkpt>
      <trkpt lat="50.03147" lon="4.16796">
        <ele>246.454</ele>
        <time>2019-09-19T16:38:51.000Z</time>
      </trkpt>
      <trkpt lat="50.03145" lon="4.16795">
        <ele>248.091</ele>
        <time>2019-09-19T16:38:57.000Z</time>
      </trkpt>
      <trkpt lat="50.03144" lon="4.16795">
        <ele>248.091</ele>
        <time>2019-09-19T16:39:00.000Z</time>
      </trkpt>
      <trkpt lat="50.03144" lon="4.16795">
        <ele>248.091</ele>
        <time>2019-09-19T16:39:33.000Z</time>
      </trkpt>
      <trkpt lat="50.03143" lon="4.16794">
        <ele>248.091</ele>
        <time>2019-09-19T16:39:36.000Z</time>
      </trkpt>
      <trkpt lat="50.03143" lon="4.16794">
        <ele>248.091</ele>
        <time>2019-09-19T16:39:45.000Z</time>
      </trkpt>
      <trkpt lat="50.03143" lon="4.16795">
        <ele>248.091</ele>
        <time>2019-09-19T16:39:48.000Z</time>
      </trkpt>
      <trkpt lat="50.03143" lon="4.16795">
        <ele>248.091</ele>
        <time>2019-09-19T16:39:54.000Z</time>
      </trkpt>
      <trkpt lat="50.03143" lon="4.16794">
        <ele>248.091</ele>
        <time>2019-09-19T16:39:57.000Z</time>
      </trkpt>
      <trkpt lat="50.03143" lon="4.16794">
        <ele>248.091</ele>
        <time>2019-09-19T16:40:00.000Z</time>
      </trkpt>
      <trkpt lat="50.03143" lon="4.16794">
        <ele>247.979</ele>
        <time>2019-09-19T16:40:36.000Z</time>
      </trkpt>
      <trkpt lat="50.03142" lon="4.16795">
        <ele>247.845</ele>
        <time>2019-09-19T16:40:39.000Z</time>
      </trkpt>
      <trkpt lat="50.03142" lon="4.16794">
        <ele>247.765</ele>
        <time>2019-09-19T16:40:42.000Z</time>
      </trkpt>
      <trkpt lat="50.03142" lon="4.16794">
        <ele>248.007</ele>
        <time>2019-09-19T16:40:48.000Z</time>
      </trkpt>
      <trkpt lat="50.03141" lon="4.16789">
        <ele>248.566</ele>
        <time>2019-09-19T16:40:51.000Z</time>
      </trkpt>
      <trkpt lat="50.03142" lon="4.16788">
        <ele>247.951</ele>
        <time>2019-09-19T16:40:57.000Z</time>
      </trkpt>
      <trkpt lat="50.03142" lon="4.16788">
        <ele>247.951</ele>
        <time>2019-09-19T16:41:00.000Z</time>
      </trkpt>
      <trkpt lat="50.03143" lon="4.16788">
        <ele>247.866</ele>
        <time>2019-09-19T16:41:03.000Z</time>
      </trkpt>
      <trkpt lat="50.03143" lon="4.1679">
        <ele>248.821</ele>
        <time>2019-09-19T16:41:09.000Z</time>
      </trkpt>
      <trkpt lat="50.03143" lon="4.1679">
        <ele>248.821</ele>
        <time>2019-09-19T16:41:12.000Z</time>
      </trkpt>
      <trkpt lat="50.03143" lon="4.1679">
        <ele>248.558</ele>
        <time>2019-09-19T16:41:27.000Z</time>
      </trkpt>
      <trkpt lat="50.03143" lon="4.16791">
        <ele>247.257</ele>
        <time>2019-09-19T16:41:30.000Z</time>
      </trkpt>
      <trkpt lat="50.03146" lon="4.16796">
        <ele>245.836</ele>
        <time>2019-09-19T16:41:48.000Z</time>
      </trkpt>
      <trkpt lat="50.03142" lon="4.16799">
        <ele>246.087</ele>
        <time>2019-09-19T16:42:18.000Z</time>
      </trkpt>
      <trkpt lat="50.03145" lon="4.16792">
        <ele>245.794</ele>
        <time>2019-09-19T16:42:30.000Z</time>
      </trkpt>
      <trkpt lat="50.03146" lon="4.16792">
        <ele>245.736</ele>
        <time>2019-09-19T16:42:39.000Z</time>
      </trkpt>
      <trkpt lat="50.03146" lon="4.16792">
        <ele>245.782</ele>
        <time>2019-09-19T16:42:42.000Z</time>
      </trkpt>
      <trkpt lat="50.03148" lon="4.16789">
        <ele>245.815</ele>
        <time>2019-09-19T16:42:45.000Z</time>
      </trkpt>
      <trkpt lat="50.03152" lon="4.16783">
        <ele>245.632</ele>
        <time>2019-09-19T16:42:48.000Z</time>
      </trkpt>
      <trkpt lat="50.03155" lon="4.16778">
        <ele>245.641</ele>
        <time>2019-09-19T16:42:51.000Z</time>
      </trkpt>
      <trkpt lat="50.03156" lon="4.16769">
        <ele>245.64</ele>
        <time>2019-09-19T16:42:54.000Z</time>
      </trkpt>
      <trkpt lat="50.03154" lon="4.16759">
        <ele>245.984</ele>
        <time>2019-09-19T16:42:57.000Z</time>
      </trkpt>
      <trkpt lat="50.0315" lon="4.16749">
        <ele>246.482</ele>
        <time>2019-09-19T16:43:00.000Z</time>
      </trkpt>
      <trkpt lat="50.03145" lon="4.16738">
        <ele>247.316</ele>
        <time>2019-09-19T16:43:03.000Z</time>
      </trkpt>
      <trkpt lat="50.03141" lon="4.16727">
        <ele>248.282</ele>
        <time>2019-09-19T16:43:06.000Z</time>
      </trkpt>
      <trkpt lat="50.0314" lon="4.16717">
        <ele>249.59</ele>
        <time>2019-09-19T16:43:09.000Z</time>
      </trkpt>
      <trkpt lat="50.03132" lon="4.16693">
        <ele>250.024</ele>
        <time>2019-09-19T16:43:12.000Z</time>
      </trkpt>
      <trkpt lat="50.03125" lon="4.16682">
        <ele>250.246</ele>
        <time>2019-09-19T16:43:15.000Z</time>
      </trkpt>
      <trkpt lat="50.03116" lon="4.16672">
        <ele>250.959</ele>
        <time>2019-09-19T16:43:18.000Z</time>
      </trkpt>
      <trkpt lat="50.03109" lon="4.16661">
        <ele>251.58</ele>
        <time>2019-09-19T16:43:21.000Z</time>
      </trkpt>
      <trkpt lat="50.03103" lon="4.16648">
        <ele>252.408</ele>
        <time>2019-09-19T16:43:24.000Z</time>
      </trkpt>
      <trkpt lat="50.03096" lon="4.16636">
        <ele>253.016</ele>
        <time>2019-09-19T16:43:27.000Z</time>
      </trkpt>
      <trkpt lat="50.0309" lon="4.16623">
        <ele>253.416</ele>
        <time>2019-09-19T16:43:30.000Z</time>
      </trkpt>
      <trkpt lat="50.03082" lon="4.16612">
        <ele>254.131</ele>
        <time>2019-09-19T16:43:33.000Z</time>
      </trkpt>
      <trkpt lat="50.03075" lon="4.16602">
        <ele>254.769</ele>
        <time>2019-09-19T16:43:36.000Z</time>
      </trkpt>
      <trkpt lat="50.03066" lon="4.16593">
        <ele>254.827</ele>
        <time>2019-09-19T16:43:39.000Z</time>
      </trkpt>
      <trkpt lat="50.03056" lon="4.16585">
        <ele>254.903</ele>
        <time>2019-09-19T16:43:42.000Z</time>
      </trkpt>
      <trkpt lat="50.03045" lon="4.16578">
        <ele>255.147</ele>
        <time>2019-09-19T16:43:45.000Z</time>
      </trkpt>
      <trkpt lat="50.03035" lon="4.16573">
        <ele>254.836</ele>
        <time>2019-09-19T16:43:48.000Z</time>
      </trkpt>
      <trkpt lat="50.03027" lon="4.1657">
        <ele>255.152</ele>
        <time>2019-09-19T16:43:51.000Z</time>
      </trkpt>
      <trkpt lat="50.03019" lon="4.16567">
        <ele>255.449</ele>
        <time>2019-09-19T16:43:54.000Z</time>
      </trkpt>
      <trkpt lat="50.03012" lon="4.16565">
        <ele>255.859</ele>
        <time>2019-09-19T16:43:57.000Z</time>
      </trkpt>
      <trkpt lat="50.03006" lon="4.16567">
        <ele>255.942</ele>
        <time>2019-09-19T16:44:00.000Z</time>
      </trkpt>
      <trkpt lat="50.03003" lon="4.16573">
        <ele>256.392</ele>
        <time>2019-09-19T16:44:03.000Z</time>
      </trkpt>
      <trkpt lat="50.03007" lon="4.16579">
        <ele>256.008</ele>
        <time>2019-09-19T16:44:09.000Z</time>
      </trkpt>
      <trkpt lat="50.03009" lon="4.16581">
        <ele>255.401</ele>
        <time>2019-09-19T16:44:12.000Z</time>
      </trkpt>
      <trkpt lat="50.03009" lon="4.16582">
        <ele>255.327</ele>
        <time>2019-09-19T16:44:15.000Z</time>
      </trkpt>
      <trkpt lat="50.03009" lon="4.16582">
        <ele>255.327</ele>
        <time>2019-09-19T16:44:18.000Z</time>
      </trkpt>
      <trkpt lat="50.03009" lon="4.16582">
        <ele>255.348</ele>
        <time>2019-09-19T16:44:21.000Z</time>
      </trkpt>
      <trkpt lat="50.03007" lon="4.1658">
        <ele>256.075</ele>
        <time>2019-09-19T16:44:27.000Z</time>
      </trkpt>
      <trkpt lat="50.03007" lon="4.16578">
        <ele>256.771</ele>
        <time>2019-09-19T16:44:30.000Z</time>
      </trkpt>
      <trkpt lat="50.03007" lon="4.16579">
        <ele>256.365</ele>
        <time>2019-09-19T16:44:33.000Z</time>
      </trkpt>
      <trkpt lat="50.03007" lon="4.16582">
        <ele>256.035</ele>
        <time>2019-09-19T16:44:36.000Z</time>
      </trkpt>
      <trkpt lat="50.03007" lon="4.16582">
        <ele>256.035</ele>
        <time>2019-09-19T16:44:39.000Z</time>
      </trkpt>
      <trkpt lat="50.03007" lon="4.16582">
        <ele>256.035</ele>
        <time>2019-09-19T16:45:00.000Z</time>
      </trkpt>
      <trkpt lat="50.03006" lon="4.16581">
        <ele>256.424</ele>
        <time>2019-09-19T16:45:03.000Z</time>
      </trkpt>
      <trkpt lat="50.03006" lon="4.16581">
        <ele>256.371</ele>
        <time>2019-09-19T16:45:06.000Z</time>
      </trkpt>
      <trkpt lat="50.03006" lon="4.16581">
        <ele>256.371</ele>
        <time>2019-09-19T16:45:24.000Z</time>
      </trkpt>
      <trkpt lat="50.03006" lon="4.16582">
        <ele>256.235</ele>
        <time>2019-09-19T16:45:27.000Z</time>
      </trkpt>
      <trkpt lat="50.03006" lon="4.16582">
        <ele>256.063</ele>
        <time>2019-09-19T16:45:30.000Z</time>
      </trkpt>
      <trkpt lat="50.03006" lon="4.1658">
        <ele>255.601</ele>
        <time>2019-09-19T16:45:33.000Z</time>
      </trkpt>
      <trkpt lat="50.03009" lon="4.16572">
        <ele>252.284</ele>
        <time>2019-09-19T16:45:42.000Z</time>
      </trkpt>
      <trkpt lat="50.0301" lon="4.16571">
        <ele>251.368</ele>
        <time>2019-09-19T16:45:45.000Z</time>
      </trkpt>
      <trkpt lat="50.0301" lon="4.16571">
        <ele>251.415</ele>
        <time>2019-09-19T16:45:48.000Z</time>
      </trkpt>
      <trkpt lat="50.0301" lon="4.16571">
        <ele>251.415</ele>
        <time>2019-09-19T16:45:57.000Z</time>
      </trkpt>
      <trkpt lat="50.0301" lon="4.16571">
        <ele>251.415</ele>
        <time>2019-09-19T16:46:00.000Z</time>
      </trkpt>
      <trkpt lat="50.0301" lon="4.16571">
        <ele>251.426</ele>
        <time>2019-09-19T16:46:03.000Z</time>
      </trkpt>
      <trkpt lat="50.0301" lon="4.16571">
        <ele>251.536</ele>
        <time>2019-09-19T16:46:06.000Z</time>
      </trkpt>
      <trkpt lat="50.0301" lon="4.16571">
        <ele>253.184</ele>
        <time>2019-09-19T16:47:18.000Z</time>
      </trkpt>
      <trkpt lat="50.03023" lon="4.16553">
        <ele>251.26</ele>
        <time>2019-09-19T16:47:21.000Z</time>
      </trkpt>
      <trkpt lat="50.03024" lon="4.16586">
        <ele>246.326</ele>
        <time>2019-09-19T16:47:30.000Z</time>
      </trkpt>
      <trkpt lat="50.03024" lon="4.16592">
        <ele>245.956</ele>
        <time>2019-09-19T16:47:33.000Z</time>
      </trkpt>
      <trkpt lat="50.03024" lon="4.16592">
        <ele>247.488</ele>
        <time>2019-09-19T16:47:36.000Z</time>
      </trkpt>
      <trkpt lat="50.03021" lon="4.16591">
        <ele>247.938</ele>
        <time>2019-09-19T16:47:39.000Z</time>
      </trkpt>
      <trkpt lat="50.03013" lon="4.16584">
        <ele>255.994</ele>
        <time>2019-09-19T16:47:45.000Z</time>
      </trkpt>
      <trkpt lat="50.03005" lon="4.16576">
        <ele>256.821</ele>
        <time>2019-09-19T16:47:48.000Z</time>
      </trkpt>
      <trkpt lat="50.03001" lon="4.16573">
        <ele>261.596</ele>
        <time>2019-09-19T16:47:51.000Z</time>
      </trkpt>
      <trkpt lat="50.03" lon="4.16572">
        <ele>261.596</ele>
        <time>2019-09-19T16:47:54.000Z</time>
      </trkpt>
      <trkpt lat="50.03" lon="4.16572">
        <ele>261.596</ele>
        <time>2019-09-19T16:47:57.000Z</time>
      </trkpt>
      <trkpt lat="50.03" lon="4.16572">
        <ele>261.596</ele>
        <time>2019-09-19T16:48:03.000Z</time>
      </trkpt>
      <trkpt lat="50.02999" lon="4.1657">
        <ele>261.596</ele>
        <time>2019-09-19T16:48:06.000Z</time>
      </trkpt>
      <trkpt lat="50.02999" lon="4.16571">
        <ele>261.286</ele>
        <time>2019-09-19T16:48:33.000Z</time>
      </trkpt>
      <trkpt lat="50.02999" lon="4.16571">
        <ele>261.286</ele>
        <time>2019-09-19T16:48:36.000Z</time>
      </trkpt>
      <trkpt lat="50.02999" lon="4.16571">
        <ele>261.286</ele>
        <time>2019-09-19T16:49:12.000Z</time>
      </trkpt>
      <trkpt lat="50.02999" lon="4.1657">
        <ele>261.286</ele>
        <time>2019-09-19T16:49:15.000Z</time>
      </trkpt>
      <trkpt lat="50.02999" lon="4.1657">
        <ele>261.286</ele>
        <time>2019-09-19T16:49:18.000Z</time>
      </trkpt>
      <trkpt lat="50.02999" lon="4.1657">
        <ele>261.286</ele>
        <time>2019-09-19T16:49:21.000Z</time>
      </trkpt>
      <trkpt lat="50.02999" lon="4.1657">
        <ele>261.286</ele>
        <time>2019-09-19T16:49:42.000Z</time>
      </trkpt>
      <trkpt lat="50.02999" lon="4.1657">
        <ele>262.477</ele>
        <time>2019-09-19T16:49:45.000Z</time>
      </trkpt>
      <trkpt lat="50.02998" lon="4.16568">
        <ele>262.657</ele>
        <time>2019-09-19T16:49:54.000Z</time>
      </trkpt>
      <trkpt lat="50.02998" lon="4.16568">
        <ele>262.657</ele>
        <time>2019-09-19T16:49:57.000Z</time>
      </trkpt>
      <trkpt lat="50.02998" lon="4.16568">
        <ele>262.657</ele>
        <time>2019-09-19T16:52:03.001Z</time>
      </trkpt>
      <trkpt lat="50.02998" lon="4.16568">
        <ele>262.657</ele>
        <time>2019-09-19T16:52:06.001Z</time>
      </trkpt>
      <trkpt lat="50.02998" lon="4.16568">
        <ele>262.657</ele>
        <time>2019-09-19T16:52:09.001Z</time>
      </trkpt>
      <trkpt lat="50.02998" lon="4.16568">
        <ele>262.657</ele>
        <time>2019-09-19T16:52:36.001Z</time>
      </trkpt>
      <trkpt lat="50.02997" lon="4.16569">
        <ele>262.674</ele>
        <time>2019-09-19T16:52:39.001Z</time>
      </trkpt>
      <trkpt lat="50.02998" lon="4.16567">
        <ele>262.283</ele>
        <time>2019-09-19T16:52:48.001Z</time>
      </trkpt>
      <trkpt lat="50.02998" lon="4.16567">
        <ele>262.283</ele>
        <time>2019-09-19T16:52:51.001Z</time>
      </trkpt>
      <trkpt lat="50.02998" lon="4.16567">
        <ele>256.038</ele>
        <time>2019-09-19T17:12:57.001Z</time>
      </trkpt>
      <trkpt lat="50.03003" lon="4.16566">
        <ele>256.522</ele>
        <time>2019-09-19T17:13:00.000Z</time>
      </trkpt>
      <trkpt lat="50.03005" lon="4.16569">
        <ele>255.139</ele>
        <time>2019-09-19T17:13:15.001Z</time>
      </trkpt>
      <trkpt lat="50.03006" lon="4.1657">
        <ele>255.139</ele>
        <time>2019-09-19T17:13:18.001Z</time>
      </trkpt>
      <trkpt lat="50.03006" lon="4.1657">
        <ele>255.139</ele>
        <time>2019-09-19T17:13:36.001Z</time>
      </trkpt>
      <trkpt lat="50.03007" lon="4.16574">
        <ele>255.139</ele>
        <time>2019-09-19T17:13:39.001Z</time>
      </trkpt>
      <trkpt lat="50.03007" lon="4.16574">
        <ele>255.139</ele>
        <time>2019-09-19T17:13:42.001Z</time>
      </trkpt>
      <trkpt lat="50.03007" lon="4.16574">
        <ele>255.139</ele>
        <time>2019-09-19T17:13:45.001Z</time>
      </trkpt>
      <trkpt lat="50.03007" lon="4.16574">
        <ele>255.095</ele>
        <time>2019-09-19T17:14:03.001Z</time>
      </trkpt>
      <trkpt lat="50.03005" lon="4.16573">
        <ele>254.28</ele>
        <time>2019-09-19T17:14:06.001Z</time>
      </trkpt>
      <trkpt lat="50.03003" lon="4.16573">
        <ele>252.645</ele>
        <time>2019-09-19T17:14:18.001Z</time>
      </trkpt>
      <trkpt lat="50.03003" lon="4.16573">
        <ele>252.63</ele>
        <time>2019-09-19T17:14:21.001Z</time>
      </trkpt>
      <trkpt lat="50.03003" lon="4.16573">
        <ele>252.63</ele>
        <time>2019-09-19T17:14:24.001Z</time>
      </trkpt>
      <trkpt lat="50.03001" lon="4.1657">
        <ele>251.906</ele>
        <time>2019-09-19T17:14:51.001Z</time>
      </trkpt>
      <trkpt lat="50.03001" lon="4.1657">
        <ele>251.887</ele>
        <time>2019-09-19T17:14:54.001Z</time>
      </trkpt>
      <trkpt lat="50.03" lon="4.16572">
        <ele>251.535</ele>
        <time>2019-09-19T17:14:57.001Z</time>
      </trkpt>
      <trkpt lat="50.03005" lon="4.16579">
        <ele>251.561</ele>
        <time>2019-09-19T17:15:03.001Z</time>
      </trkpt>
      <trkpt lat="50.03006" lon="4.16582">
        <ele>250.372</ele>
        <time>2019-09-19T17:15:06.001Z</time>
      </trkpt>
      <trkpt lat="50.03007" lon="4.16583">
        <ele>250.372</ele>
        <time>2019-09-19T17:15:09.001Z</time>
      </trkpt>
      <trkpt lat="50.03007" lon="4.16583">
        <ele>249.529</ele>
        <time>2019-09-19T17:15:36.001Z</time>
      </trkpt>
      <trkpt lat="50.03008" lon="4.16587">
        <ele>249.529</ele>
        <time>2019-09-19T17:15:39.001Z</time>
      </trkpt>
      <trkpt lat="50.03008" lon="4.16588">
        <ele>249.529</ele>
        <time>2019-09-19T17:15:45.001Z</time>
      </trkpt>
      <trkpt lat="50.03008" lon="4.16588">
        <ele>249.529</ele>
        <time>2019-09-19T17:15:48.001Z</time>
      </trkpt>
      <trkpt lat="50.03008" lon="4.16588">
        <ele>249.529</ele>
        <time>2019-09-19T17:15:54.001Z</time>
      </trkpt>
      <trkpt lat="50.03008" lon="4.16588">
        <ele>249.529</ele>
        <time>2019-09-19T17:15:57.001Z</time>
      </trkpt>
      <trkpt lat="50.03004" lon="4.1658">
        <ele>249.164</ele>
        <time>2019-09-19T17:16:06.001Z</time>
      </trkpt>
      <trkpt lat="50.03002" lon="4.16575">
        <ele>250.738</ele>
        <time>2019-09-19T17:16:12.001Z</time>
      </trkpt>
      <trkpt lat="50.02995" lon="4.16571">
        <ele>251.77</ele>
        <time>2019-09-19T17:16:18.001Z</time>
      </trkpt>
      <trkpt lat="50.02992" lon="4.16571">
        <ele>251.76</ele>
        <time>2019-09-19T17:16:30.001Z</time>
      </trkpt>
      <trkpt lat="50.02992" lon="4.16571">
        <ele>251.76</ele>
        <time>2019-09-19T17:16:33.001Z</time>
      </trkpt>
      <trkpt lat="50.02992" lon="4.16571">
        <ele>251.152</ele>
        <time>2019-09-19T17:16:39.001Z</time>
      </trkpt>
      <trkpt lat="50.02989" lon="4.16571">
        <ele>249.575</ele>
        <time>2019-09-19T17:16:42.001Z</time>
      </trkpt>
      <trkpt lat="50.02981" lon="4.16577">
        <ele>248.381</ele>
        <time>2019-09-19T17:16:48.001Z</time>
      </trkpt>
      <trkpt lat="50.02977" lon="4.16581">
        <ele>247.689</ele>
        <time>2019-09-19T17:16:51.001Z</time>
      </trkpt>
      <trkpt lat="50.02973" lon="4.16588">
        <ele>247.178</ele>
        <time>2019-09-19T17:16:54.001Z</time>
      </trkpt>
      <trkpt lat="50.02971" lon="4.16598">
        <ele>245.712</ele>
        <time>2019-09-19T17:16:57.001Z</time>
      </trkpt>
      <trkpt lat="50.02969" lon="4.16609">
        <ele>244.529</ele>
        <time>2019-09-19T17:17:00.000Z</time>
      </trkpt>
      <trkpt lat="50.0296" lon="4.16651">
        <ele>243.892</ele>
        <time>2019-09-19T17:17:03.001Z</time>
      </trkpt>
      <trkpt lat="50.02956" lon="4.16669">
        <ele>244.085</ele>
        <time>2019-09-19T17:17:06.001Z</time>
      </trkpt>
      <trkpt lat="50.02949" lon="4.16688">
        <ele>244.131</ele>
        <time>2019-09-19T17:17:09.001Z</time>
      </trkpt>
      <trkpt lat="50.02942" lon="4.16709">
        <ele>244.708</ele>
        <time>2019-09-19T17:17:12.001Z</time>
      </trkpt>
      <trkpt lat="50.02937" lon="4.16726">
        <ele>244.869</ele>
        <time>2019-09-19T17:17:15.001Z</time>
      </trkpt>
      <trkpt lat="50.02932" lon="4.16742">
        <ele>245.194</ele>
        <time>2019-09-19T17:17:18.001Z</time>
      </trkpt>
      <trkpt lat="50.02926" lon="4.16759">
        <ele>245.442</ele>
        <time>2019-09-19T17:17:21.001Z</time>
      </trkpt>
      <trkpt lat="50.02918" lon="4.16777">
        <ele>246.262</ele>
        <time>2019-09-19T17:17:24.001Z</time>
      </trkpt>
      <trkpt lat="50.02911" lon="4.16792">
        <ele>247.016</ele>
        <time>2019-09-19T17:17:27.001Z</time>
      </trkpt>
      <trkpt lat="50.02904" lon="4.16809">
        <ele>248.112</ele>
        <time>2019-09-19T17:17:30.001Z</time>
      </trkpt>
      <trkpt lat="50.02898" lon="4.16823">
        <ele>248.976</ele>
        <time>2019-09-19T17:17:33.001Z</time>
      </trkpt>
      <trkpt lat="50.02892" lon="4.16834">
        <ele>249.268</ele>
        <time>2019-09-19T17:17:36.001Z</time>
      </trkpt>
      <trkpt lat="50.02887" lon="4.16844">
        <ele>249.546</ele>
        <time>2019-09-19T17:17:39.001Z</time>
      </trkpt>
      <trkpt lat="50.02882" lon="4.16853">
        <ele>250.994</ele>
        <time>2019-09-19T17:17:42.001Z</time>
      </trkpt>
      <trkpt lat="50.02875" lon="4.16864">
        <ele>251.851</ele>
        <time>2019-09-19T17:17:45.001Z</time>
      </trkpt>
      <trkpt lat="50.02867" lon="4.16874">
        <ele>253.008</ele>
        <time>2019-09-19T17:17:48.001Z</time>
      </trkpt>
      <trkpt lat="50.0286" lon="4.16883">
        <ele>253.966</ele>
        <time>2019-09-19T17:17:51.001Z</time>
      </trkpt>
      <trkpt lat="50.02854" lon="4.16891">
        <ele>255.069</ele>
        <time>2019-09-19T17:17:54.001Z</time>
      </trkpt>
      <trkpt lat="50.02847" lon="4.16899">
        <ele>255.939</ele>
        <time>2019-09-19T17:17:57.001Z</time>
      </trkpt>
      <trkpt lat="50.02838" lon="4.16905">
        <ele>256.411</ele>
        <time>2019-09-19T17:18:00.000Z</time>
      </trkpt>
      <trkpt lat="50.02831" lon="4.16907">
        <ele>257.501</ele>
        <time>2019-09-19T17:18:03.001Z</time>
      </trkpt>
      <trkpt lat="50.02822" lon="4.16911">
        <ele>258.697</ele>
        <time>2019-09-19T17:18:06.001Z</time>
      </trkpt>
      <trkpt lat="50.02814" lon="4.16911">
        <ele>259.59</ele>
        <time>2019-09-19T17:18:09.001Z</time>
      </trkpt>
      <trkpt lat="50.02805" lon="4.16913">
        <ele>260.325</ele>
        <time>2019-09-19T17:18:12.001Z</time>
      </trkpt>
      <trkpt lat="50.02797" lon="4.16913">
        <ele>260.778</ele>
        <time>2019-09-19T17:18:15.001Z</time>
      </trkpt>
      <trkpt lat="50.02789" lon="4.16915">
        <ele>260.971</ele>
        <time>2019-09-19T17:18:18.001Z</time>
      </trkpt>
      <trkpt lat="50.0278" lon="4.1692">
        <ele>261.511</ele>
        <time>2019-09-19T17:18:21.001Z</time>
      </trkpt>
      <trkpt lat="50.02772" lon="4.16924">
        <ele>261.408</ele>
        <time>2019-09-19T17:18:24.001Z</time>
      </trkpt>
      <trkpt lat="50.02764" lon="4.16928">
        <ele>261.63</ele>
        <time>2019-09-19T17:18:27.001Z</time>
      </trkpt>
      <trkpt lat="50.02757" lon="4.16933">
        <ele>261.486</ele>
        <time>2019-09-19T17:18:30.001Z</time>
      </trkpt>
      <trkpt lat="50.02749" lon="4.16947">
        <ele>261.101</ele>
        <time>2019-09-19T17:18:33.001Z</time>
      </trkpt>
      <trkpt lat="50.0274" lon="4.16958">
        <ele>260.483</ele>
        <time>2019-09-19T17:18:36.001Z</time>
      </trkpt>
      <trkpt lat="50.02733" lon="4.16965">
        <ele>260.098</ele>
        <time>2019-09-19T17:18:39.001Z</time>
      </trkpt>
      <trkpt lat="50.02726" lon="4.16975">
        <ele>259.255</ele>
        <time>2019-09-19T17:18:42.001Z</time>
      </trkpt>
      <trkpt lat="50.02718" lon="4.16984">
        <ele>258.347</ele>
        <time>2019-09-19T17:18:45.001Z</time>
      </trkpt>
      <trkpt lat="50.02708" lon="4.16993">
        <ele>258.429</ele>
        <time>2019-09-19T17:18:48.001Z</time>
      </trkpt>
      <trkpt lat="50.02701" lon="4.17">
        <ele>257.992</ele>
        <time>2019-09-19T17:18:51.001Z</time>
      </trkpt>
      <trkpt lat="50.02693" lon="4.17009">
        <ele>257.789</ele>
        <time>2019-09-19T17:18:54.001Z</time>
      </trkpt>
      <trkpt lat="50.02686" lon="4.17016">
        <ele>257.951</ele>
        <time>2019-09-19T17:18:57.001Z</time>
      </trkpt>
      <trkpt lat="50.02679" lon="4.17025">
        <ele>258.494</ele>
        <time>2019-09-19T17:19:00.000Z</time>
      </trkpt>
      <trkpt lat="50.02674" lon="4.17036">
        <ele>258.734</ele>
        <time>2019-09-19T17:19:03.001Z</time>
      </trkpt>
      <trkpt lat="50.02669" lon="4.17041">
        <ele>260.242</ele>
        <time>2019-09-19T17:19:06.001Z</time>
      </trkpt>
      <trkpt lat="50.02665" lon="4.17047">
        <ele>261.886</ele>
        <time>2019-09-19T17:19:09.001Z</time>
      </trkpt>
      <trkpt lat="50.02663" lon="4.17056">
        <ele>262.655</ele>
        <time>2019-09-19T17:19:12.001Z</time>
      </trkpt>
      <trkpt lat="50.02663" lon="4.17067">
        <ele>262.329</ele>
        <time>2019-09-19T17:19:18.001Z</time>
      </trkpt>
      <trkpt lat="50.02665" lon="4.17085">
        <ele>262.062</ele>
        <time>2019-09-19T17:19:24.001Z</time>
      </trkpt>
      <trkpt lat="50.02666" lon="4.17098">
        <ele>262.347</ele>
        <time>2019-09-19T17:19:27.001Z</time>
      </trkpt>
      <trkpt lat="50.02667" lon="4.17113">
        <ele>262.399</ele>
        <time>2019-09-19T17:19:30.001Z</time>
      </trkpt>
      <trkpt lat="50.02665" lon="4.17136">
        <ele>262.842</ele>
        <time>2019-09-19T17:19:33.001Z</time>
      </trkpt>
      <trkpt lat="50.02662" lon="4.17157">
        <ele>263.758</ele>
        <time>2019-09-19T17:19:36.001Z</time>
      </trkpt>
      <trkpt lat="50.02664" lon="4.17172">
        <ele>263.628</ele>
        <time>2019-09-19T17:19:39.001Z</time>
      </trkpt>
      <trkpt lat="50.02666" lon="4.17188">
        <ele>263.543</ele>
        <time>2019-09-19T17:19:42.001Z</time>
      </trkpt>
      <trkpt lat="50.02667" lon="4.17207">
        <ele>263.304</ele>
        <time>2019-09-19T17:19:45.001Z</time>
      </trkpt>
      <trkpt lat="50.02668" lon="4.17226">
        <ele>262.446</ele>
        <time>2019-09-19T17:19:48.001Z</time>
      </trkpt>
      <trkpt lat="50.02668" lon="4.17246">
        <ele>262.155</ele>
        <time>2019-09-19T17:19:51.002Z</time>
      </trkpt>
      <trkpt lat="50.02669" lon="4.17264">
        <ele>263.438</ele>
        <time>2019-09-19T17:19:54.001Z</time>
      </trkpt>
      <trkpt lat="50.02671" lon="4.17279">
        <ele>264.476</ele>
        <time>2019-09-19T17:19:57.001Z</time>
      </trkpt>
      <trkpt lat="50.02674" lon="4.17293">
        <ele>265.879</ele>
        <time>2019-09-19T17:20:00.000Z</time>
      </trkpt>
      <trkpt lat="50.02676" lon="4.17307">
        <ele>267.115</ele>
        <time>2019-09-19T17:20:03.001Z</time>
      </trkpt>
      <trkpt lat="50.02677" lon="4.17324">
        <ele>269.201</ele>
        <time>2019-09-19T17:20:06.001Z</time>
      </trkpt>
      <trkpt lat="50.02678" lon="4.17342">
        <ele>270.309</ele>
        <time>2019-09-19T17:20:09.001Z</time>
      </trkpt>
      <trkpt lat="50.02679" lon="4.17359">
        <ele>271.326</ele>
        <time>2019-09-19T17:20:12.001Z</time>
      </trkpt>
      <trkpt lat="50.0268" lon="4.17375">
        <ele>271.932</ele>
        <time>2019-09-19T17:20:15.001Z</time>
      </trkpt>
      <trkpt lat="50.02679" lon="4.17392">
        <ele>272.462</ele>
        <time>2019-09-19T17:20:18.001Z</time>
      </trkpt>
      <trkpt lat="50.0268" lon="4.17403">
        <ele>274.251</ele>
        <time>2019-09-19T17:20:21.001Z</time>
      </trkpt>
      <trkpt lat="50.0268" lon="4.17416">
        <ele>275.872</ele>
        <time>2019-09-19T17:20:24.001Z</time>
      </trkpt>
      <trkpt lat="50.0268" lon="4.17426">
        <ele>275.281</ele>
        <time>2019-09-19T17:20:27.001Z</time>
      </trkpt>
      <trkpt lat="50.02683" lon="4.17436">
        <ele>274.203</ele>
        <time>2019-09-19T17:20:30.001Z</time>
      </trkpt>
      <trkpt lat="50.02683" lon="4.17447">
        <ele>273.711</ele>
        <time>2019-09-19T17:20:33.001Z</time>
      </trkpt>
      <trkpt lat="50.02683" lon="4.17459">
        <ele>272.923</ele>
        <time>2019-09-19T17:20:36.001Z</time>
      </trkpt>
      <trkpt lat="50.02684" lon="4.17471">
        <ele>271.892</ele>
        <time>2019-09-19T17:20:39.001Z</time>
      </trkpt>
      <trkpt lat="50.02686" lon="4.17485">
        <ele>270.702</ele>
        <time>2019-09-19T17:20:42.001Z</time>
      </trkpt>
      <trkpt lat="50.02685" lon="4.17499">
        <ele>269.15</ele>
        <time>2019-09-19T17:20:45.001Z</time>
      </trkpt>
      <trkpt lat="50.02685" lon="4.17514">
        <ele>268.26</ele>
        <time>2019-09-19T17:20:48.001Z</time>
      </trkpt>
      <trkpt lat="50.02684" lon="4.1753">
        <ele>267.371</ele>
        <time>2019-09-19T17:20:51.001Z</time>
      </trkpt>
      <trkpt lat="50.02685" lon="4.17546">
        <ele>267.197</ele>
        <time>2019-09-19T17:20:54.001Z</time>
      </trkpt>
      <trkpt lat="50.02686" lon="4.17561">
        <ele>267.059</ele>
        <time>2019-09-19T17:20:57.001Z</time>
      </trkpt>
      <trkpt lat="50.02687" lon="4.17579">
        <ele>267.241</ele>
        <time>2019-09-19T17:21:00.000Z</time>
      </trkpt>
      <trkpt lat="50.02687" lon="4.17592">
        <ele>266.685</ele>
        <time>2019-09-19T17:21:03.001Z</time>
      </trkpt>
      <trkpt lat="50.02687" lon="4.17604">
        <ele>266.221</ele>
        <time>2019-09-19T17:21:06.001Z</time>
      </trkpt>
      <trkpt lat="50.02685" lon="4.17615">
        <ele>265.778</ele>
        <time>2019-09-19T17:21:09.001Z</time>
      </trkpt>
      <trkpt lat="50.02686" lon="4.17627">
        <ele>264.477</ele>
        <time>2019-09-19T17:21:12.001Z</time>
      </trkpt>
      <trkpt lat="50.02685" lon="4.17638">
        <ele>262.86</ele>
        <time>2019-09-19T17:21:15.001Z</time>
      </trkpt>
      <trkpt lat="50.02685" lon="4.17645">
        <ele>262.314</ele>
        <time>2019-09-19T17:21:18.001Z</time>
      </trkpt>
      <trkpt lat="50.02687" lon="4.17654">
        <ele>264.421</ele>
        <time>2019-09-19T17:21:24.001Z</time>
      </trkpt>
      <trkpt lat="50.02687" lon="4.17668">
        <ele>265.346</ele>
        <time>2019-09-19T17:21:27.001Z</time>
      </trkpt>
      <trkpt lat="50.02686" lon="4.17687">
        <ele>266.406</ele>
        <time>2019-09-19T17:21:30.001Z</time>
      </trkpt>
      <trkpt lat="50.02687" lon="4.17703">
        <ele>267.095</ele>
        <time>2019-09-19T17:21:33.001Z</time>
      </trkpt>
      <trkpt lat="50.0269" lon="4.17718">
        <ele>267.394</ele>
        <time>2019-09-19T17:21:36.001Z</time>
      </trkpt>
      <trkpt lat="50.02692" lon="4.17737">
        <ele>267.391</ele>
        <time>2019-09-19T17:21:39.001Z</time>
      </trkpt>
      <trkpt lat="50.02693" lon="4.17758">
        <ele>267.579</ele>
        <time>2019-09-19T17:21:42.001Z</time>
      </trkpt>
      <trkpt lat="50.02694" lon="4.17777">
        <ele>267.581</ele>
        <time>2019-09-19T17:21:45.001Z</time>
      </trkpt>
      <trkpt lat="50.02695" lon="4.17798">
        <ele>266.942</ele>
        <time>2019-09-19T17:21:48.001Z</time>
      </trkpt>
      <trkpt lat="50.02698" lon="4.1782">
        <ele>266.193</ele>
        <time>2019-09-19T17:21:51.001Z</time>
      </trkpt>
      <trkpt lat="50.02698" lon="4.17839">
        <ele>266.211</ele>
        <time>2019-09-19T17:21:54.001Z</time>
      </trkpt>
      <trkpt lat="50.027" lon="4.17859">
        <ele>266.017</ele>
        <time>2019-09-19T17:21:57.001Z</time>
      </trkpt>
      <trkpt lat="50.02704" lon="4.17883">
        <ele>265.572</ele>
        <time>2019-09-19T17:22:00.000Z</time>
      </trkpt>
      <trkpt lat="50.02705" lon="4.17908">
        <ele>265.708</ele>
        <time>2019-09-19T17:22:03.001Z</time>
      </trkpt>
      <trkpt lat="50.02704" lon="4.17931">
        <ele>267.345</ele>
        <time>2019-09-19T17:22:06.001Z</time>
      </trkpt>
      <trkpt lat="50.02705" lon="4.17951">
        <ele>268.282</ele>
        <time>2019-09-19T17:22:09.001Z</time>
      </trkpt>
      <trkpt lat="50.02708" lon="4.17971">
        <ele>268.519</ele>
        <time>2019-09-19T17:22:12.001Z</time>
      </trkpt>
      <trkpt lat="50.02707" lon="4.17993">
        <ele>268.238</ele>
        <time>2019-09-19T17:22:15.001Z</time>
      </trkpt>
      <trkpt lat="50.02705" lon="4.18018">
        <ele>268.122</ele>
        <time>2019-09-19T17:22:18.001Z</time>
      </trkpt>
      <trkpt lat="50.02707" lon="4.18043">
        <ele>268.856</ele>
        <time>2019-09-19T17:22:21.001Z</time>
      </trkpt>
      <trkpt lat="50.02707" lon="4.18069">
        <ele>269.282</ele>
        <time>2019-09-19T17:22:24.001Z</time>
      </trkpt>
      <trkpt lat="50.02706" lon="4.1809">
        <ele>269.034</ele>
        <time>2019-09-19T17:22:27.001Z</time>
      </trkpt>
      <trkpt lat="50.02708" lon="4.18112">
        <ele>268.601</ele>
        <time>2019-09-19T17:22:30.001Z</time>
      </trkpt>
      <trkpt lat="50.02709" lon="4.18133">
        <ele>268.002</ele>
        <time>2019-09-19T17:22:33.001Z</time>
      </trkpt>
      <trkpt lat="50.02711" lon="4.18153">
        <ele>267.826</ele>
        <time>2019-09-19T17:22:36.001Z</time>
      </trkpt>
      <trkpt lat="50.02714" lon="4.18174">
        <ele>267.829</ele>
        <time>2019-09-19T17:22:39.001Z</time>
      </trkpt>
      <trkpt lat="50.02714" lon="4.18197">
        <ele>268.414</ele>
        <time>2019-09-19T17:22:42.001Z</time>
      </trkpt>
      <trkpt lat="50.02715" lon="4.18221">
        <ele>268.725</ele>
        <time>2019-09-19T17:22:45.001Z</time>
      </trkpt>
      <trkpt lat="50.02717" lon="4.18246">
        <ele>269.317</ele>
        <time>2019-09-19T17:22:48.001Z</time>
      </trkpt>
      <trkpt lat="50.02719" lon="4.1827">
        <ele>269.961</ele>
        <time>2019-09-19T17:22:51.001Z</time>
      </trkpt>
      <trkpt lat="50.0272" lon="4.18293">
        <ele>269.851</ele>
        <time>2019-09-19T17:22:54.001Z</time>
      </trkpt>
      <trkpt lat="50.02721" lon="4.18316">
        <ele>269.113</ele>
        <time>2019-09-19T17:22:57.001Z</time>
      </trkpt>
      <trkpt lat="50.02721" lon="4.18338">
        <ele>267.658</ele>
        <time>2019-09-19T17:23:00.000Z</time>
      </trkpt>
      <trkpt lat="50.02721" lon="4.1836">
        <ele>265.779</ele>
        <time>2019-09-19T17:23:03.001Z</time>
      </trkpt>
      <trkpt lat="50.02722" lon="4.18382">
        <ele>264.5</ele>
        <time>2019-09-19T17:23:06.001Z</time>
      </trkpt>
      <trkpt lat="50.02724" lon="4.18405">
        <ele>264.189</ele>
        <time>2019-09-19T17:23:09.001Z</time>
      </trkpt>
      <trkpt lat="50.02724" lon="4.18427">
        <ele>264.714</ele>
        <time>2019-09-19T17:23:12.001Z</time>
      </trkpt>
      <trkpt lat="50.02724" lon="4.1845">
        <ele>264.979</ele>
        <time>2019-09-19T17:23:15.001Z</time>
      </trkpt>
      <trkpt lat="50.02725" lon="4.18475">
        <ele>264.821</ele>
        <time>2019-09-19T17:23:18.001Z</time>
      </trkpt>
      <trkpt lat="50.02727" lon="4.185">
        <ele>264.543</ele>
        <time>2019-09-19T17:23:21.001Z</time>
      </trkpt>
      <trkpt lat="50.0273" lon="4.18524">
        <ele>264.661</ele>
        <time>2019-09-19T17:23:24.001Z</time>
      </trkpt>
      <trkpt lat="50.02734" lon="4.18546">
        <ele>264.788</ele>
        <time>2019-09-19T17:23:27.001Z</time>
      </trkpt>
      <trkpt lat="50.02736" lon="4.1857">
        <ele>264.629</ele>
        <time>2019-09-19T17:23:30.001Z</time>
      </trkpt>
      <trkpt lat="50.02737" lon="4.18594">
        <ele>264.521</ele>
        <time>2019-09-19T17:23:33.001Z</time>
      </trkpt>
      <trkpt lat="50.02737" lon="4.18615">
        <ele>264.103</ele>
        <time>2019-09-19T17:23:36.001Z</time>
      </trkpt>
      <trkpt lat="50.02737" lon="4.18639">
        <ele>264.475</ele>
        <time>2019-09-19T17:23:39.001Z</time>
      </trkpt>
      <trkpt lat="50.02739" lon="4.18662">
        <ele>265.367</ele>
        <time>2019-09-19T17:23:42.001Z</time>
      </trkpt>
      <trkpt lat="50.02739" lon="4.18687">
        <ele>265.889</ele>
        <time>2019-09-19T17:23:45.001Z</time>
      </trkpt>
      <trkpt lat="50.02738" lon="4.1871">
        <ele>266.181</ele>
        <time>2019-09-19T17:23:48.001Z</time>
      </trkpt>
      <trkpt lat="50.02738" lon="4.18731">
        <ele>266.629</ele>
        <time>2019-09-19T17:23:51.001Z</time>
      </trkpt>
      <trkpt lat="50.02739" lon="4.18753">
        <ele>267.311</ele>
        <time>2019-09-19T17:23:54.001Z</time>
      </trkpt>
      <trkpt lat="50.02739" lon="4.18774">
        <ele>267.963</ele>
        <time>2019-09-19T17:23:57.001Z</time>
      </trkpt>
      <trkpt lat="50.02739" lon="4.18795">
        <ele>268.23</ele>
        <time>2019-09-19T17:24:00.000Z</time>
      </trkpt>
      <trkpt lat="50.02739" lon="4.18817">
        <ele>268.263</ele>
        <time>2019-09-19T17:24:03.001Z</time>
      </trkpt>
      <trkpt lat="50.02739" lon="4.18839">
        <ele>267.903</ele>
        <time>2019-09-19T17:24:06.001Z</time>
      </trkpt>
      <trkpt lat="50.02739" lon="4.18862">
        <ele>267.94</ele>
        <time>2019-09-19T17:24:09.001Z</time>
      </trkpt>
      <trkpt lat="50.02737" lon="4.18882">
        <ele>267.531</ele>
        <time>2019-09-19T17:24:12.001Z</time>
      </trkpt>
      <trkpt lat="50.02735" lon="4.189">
        <ele>267.947</ele>
        <time>2019-09-19T17:24:15.001Z</time>
      </trkpt>
      <trkpt lat="50.02732" lon="4.18919">
        <ele>268.786</ele>
        <time>2019-09-19T17:24:18.001Z</time>
      </trkpt>
      <trkpt lat="50.02731" lon="4.18939">
        <ele>269.498</ele>
        <time>2019-09-19T17:24:21.001Z</time>
      </trkpt>
      <trkpt lat="50.02728" lon="4.1896">
        <ele>269.445</ele>
        <time>2019-09-19T17:24:24.001Z</time>
      </trkpt>
      <trkpt lat="50.02726" lon="4.18982">
        <ele>269.377</ele>
        <time>2019-09-19T17:24:27.001Z</time>
      </trkpt>
      <trkpt lat="50.02721" lon="4.19004">
        <ele>270.656</ele>
        <time>2019-09-19T17:24:30.001Z</time>
      </trkpt>
      <trkpt lat="50.02717" lon="4.19024">
        <ele>271.498</ele>
        <time>2019-09-19T17:24:33.001Z</time>
      </trkpt>
      <trkpt lat="50.02715" lon="4.19041">
        <ele>272.187</ele>
        <time>2019-09-19T17:24:36.001Z</time>
      </trkpt>
      <trkpt lat="50.0271" lon="4.1906">
        <ele>273.883</ele>
        <time>2019-09-19T17:24:39.001Z</time>
      </trkpt>
      <trkpt lat="50.02709" lon="4.1908">
        <ele>275.087</ele>
        <time>2019-09-19T17:24:42.001Z</time>
      </trkpt>
      <trkpt lat="50.02706" lon="4.19097">
        <ele>276.303</ele>
        <time>2019-09-19T17:24:45.001Z</time>
      </trkpt>
      <trkpt lat="50.02704" lon="4.19116">
        <ele>277.739</ele>
        <time>2019-09-19T17:24:48.001Z</time>
      </trkpt>
      <trkpt lat="50.02702" lon="4.19134">
        <ele>279.253</ele>
        <time>2019-09-19T17:24:51.001Z</time>
      </trkpt>
      <trkpt lat="50.02699" lon="4.19153">
        <ele>279.538</ele>
        <time>2019-09-19T17:24:54.001Z</time>
      </trkpt>
      <trkpt lat="50.02696" lon="4.19174">
        <ele>279.376</ele>
        <time>2019-09-19T17:24:57.001Z</time>
      </trkpt>
      <trkpt lat="50.02694" lon="4.19193">
        <ele>279.761</ele>
        <time>2019-09-19T17:25:00.000Z</time>
      </trkpt>
      <trkpt lat="50.02692" lon="4.19211">
        <ele>280.668</ele>
        <time>2019-09-19T17:25:03.001Z</time>
      </trkpt>
      <trkpt lat="50.0269" lon="4.19231">
        <ele>280.798</ele>
        <time>2019-09-19T17:25:06.001Z</time>
      </trkpt>
      <trkpt lat="50.0269" lon="4.19255">
        <ele>281.275</ele>
        <time>2019-09-19T17:25:09.001Z</time>
      </trkpt>
      <trkpt lat="50.02686" lon="4.19278">
        <ele>280.866</ele>
        <time>2019-09-19T17:25:12.001Z</time>
      </trkpt>
      <trkpt lat="50.02682" lon="4.19302">
        <ele>279.924</ele>
        <time>2019-09-19T17:25:15.001Z</time>
      </trkpt>
      <trkpt lat="50.02679" lon="4.19323">
        <ele>278.7</ele>
        <time>2019-09-19T17:25:18.001Z</time>
      </trkpt>
      <trkpt lat="50.02675" lon="4.19342">
        <ele>277.819</ele>
        <time>2019-09-19T17:25:21.001Z</time>
      </trkpt>
      <trkpt lat="50.02673" lon="4.1936">
        <ele>277.399</ele>
        <time>2019-09-19T17:25:24.001Z</time>
      </trkpt>
      <trkpt lat="50.02672" lon="4.1938">
        <ele>276.878</ele>
        <time>2019-09-19T17:25:27.001Z</time>
      </trkpt>
      <trkpt lat="50.02671" lon="4.19398">
        <ele>276.472</ele>
        <time>2019-09-19T17:25:30.001Z</time>
      </trkpt>
      <trkpt lat="50.02671" lon="4.19415">
        <ele>275.493</ele>
        <time>2019-09-19T17:25:33.001Z</time>
      </trkpt>
      <trkpt lat="50.02669" lon="4.19434">
        <ele>274.319</ele>
        <time>2019-09-19T17:25:36.001Z</time>
      </trkpt>
      <trkpt lat="50.02665" lon="4.19454">
        <ele>273.785</ele>
        <time>2019-09-19T17:25:39.001Z</time>
      </trkpt>
      <trkpt lat="50.02661" lon="4.19474">
        <ele>272.723</ele>
        <time>2019-09-19T17:25:42.001Z</time>
      </trkpt>
      <trkpt lat="50.02658" lon="4.1949">
        <ele>272.154</ele>
        <time>2019-09-19T17:25:45.001Z</time>
      </trkpt>
      <trkpt lat="50.02659" lon="4.19503">
        <ele>272.142</ele>
        <time>2019-09-19T17:25:48.001Z</time>
      </trkpt>
      <trkpt lat="50.02657" lon="4.19519">
        <ele>271.908</ele>
        <time>2019-09-19T17:25:51.001Z</time>
      </trkpt>
      <trkpt lat="50.02655" lon="4.19539">
        <ele>272.057</ele>
        <time>2019-09-19T17:25:54.001Z</time>
      </trkpt>
      <trkpt lat="50.02651" lon="4.19559">
        <ele>272.207</ele>
        <time>2019-09-19T17:25:57.001Z</time>
      </trkpt>
      <trkpt lat="50.02644" lon="4.19578">
        <ele>272.381</ele>
        <time>2019-09-19T17:26:00.000Z</time>
      </trkpt>
      <trkpt lat="50.02646" lon="4.19594">
        <ele>272.606</ele>
        <time>2019-09-19T17:26:03.001Z</time>
      </trkpt>
      <trkpt lat="50.02646" lon="4.19612">
        <ele>272.434</ele>
        <time>2019-09-19T17:26:06.001Z</time>
      </trkpt>
      <trkpt lat="50.02643" lon="4.1963">
        <ele>271.981</ele>
        <time>2019-09-19T17:26:09.001Z</time>
      </trkpt>
      <trkpt lat="50.02641" lon="4.19647">
        <ele>272.61</ele>
        <time>2019-09-19T17:26:12.001Z</time>
      </trkpt>
      <trkpt lat="50.0264" lon="4.19664">
        <ele>273.992</ele>
        <time>2019-09-19T17:26:15.001Z</time>
      </trkpt>
      <trkpt lat="50.0264" lon="4.19678">
        <ele>274.989</ele>
        <time>2019-09-19T17:26:18.001Z</time>
      </trkpt>
      <trkpt lat="50.02634" lon="4.19698">
        <ele>276.715</ele>
        <time>2019-09-19T17:26:21.001Z</time>
      </trkpt>
      <trkpt lat="50.02629" lon="4.19717">
        <ele>278.408</ele>
        <time>2019-09-19T17:26:24.001Z</time>
      </trkpt>
      <trkpt lat="50.02627" lon="4.19734">
        <ele>279.707</ele>
        <time>2019-09-19T17:26:27.001Z</time>
      </trkpt>
      <trkpt lat="50.0263" lon="4.1975">
        <ele>280.101</ele>
        <time>2019-09-19T17:26:30.001Z</time>
      </trkpt>
      <trkpt lat="50.0263" lon="4.19772">
        <ele>281.574</ele>
        <time>2019-09-19T17:26:33.001Z</time>
      </trkpt>
      <trkpt lat="50.02627" lon="4.198">
        <ele>284.126</ele>
        <time>2019-09-19T17:26:36.001Z</time>
      </trkpt>
      <trkpt lat="50.02623" lon="4.19818">
        <ele>282.195</ele>
        <time>2019-09-19T17:26:39.001Z</time>
      </trkpt>
      <trkpt lat="50.0262" lon="4.19833">
        <ele>280.492</ele>
        <time>2019-09-19T17:26:42.001Z</time>
      </trkpt>
      <trkpt lat="50.02617" lon="4.1985">
        <ele>280.167</ele>
        <time>2019-09-19T17:26:45.001Z</time>
      </trkpt>
      <trkpt lat="50.02614" lon="4.19867">
        <ele>280.305</ele>
        <time>2019-09-19T17:26:48.001Z</time>
      </trkpt>
      <trkpt lat="50.02612" lon="4.19882">
        <ele>280.24</ele>
        <time>2019-09-19T17:26:51.001Z</time>
      </trkpt>
      <trkpt lat="50.02611" lon="4.19898">
        <ele>279.852</ele>
        <time>2019-09-19T17:26:54.001Z</time>
      </trkpt>
      <trkpt lat="50.02608" lon="4.19918">
        <ele>279.562</ele>
        <time>2019-09-19T17:26:57.001Z</time>
      </trkpt>
      <trkpt lat="50.02603" lon="4.1994">
        <ele>279.288</ele>
        <time>2019-09-19T17:27:00.000Z</time>
      </trkpt>
      <trkpt lat="50.02599" lon="4.19962">
        <ele>279.371</ele>
        <time>2019-09-19T17:27:03.001Z</time>
      </trkpt>
      <trkpt lat="50.02597" lon="4.1998">
        <ele>279.961</ele>
        <time>2019-09-19T17:27:06.001Z</time>
      </trkpt>
      <trkpt lat="50.02595" lon="4.19996">
        <ele>279.642</ele>
        <time>2019-09-19T17:27:09.001Z</time>
      </trkpt>
      <trkpt lat="50.02594" lon="4.20015">
        <ele>277.487</ele>
        <time>2019-09-19T17:27:12.001Z</time>
      </trkpt>
      <trkpt lat="50.0259" lon="4.20038">
        <ele>277.43</ele>
        <time>2019-09-19T17:27:15.001Z</time>
      </trkpt>
      <trkpt lat="50.02586" lon="4.20062">
        <ele>278.34</ele>
        <time>2019-09-19T17:27:18.001Z</time>
      </trkpt>
      <trkpt lat="50.02583" lon="4.20086">
        <ele>278.898</ele>
        <time>2019-09-19T17:27:21.001Z</time>
      </trkpt>
      <trkpt lat="50.02581" lon="4.20111">
        <ele>279.878</ele>
        <time>2019-09-19T17:27:24.001Z</time>
      </trkpt>
      <trkpt lat="50.0258" lon="4.20132">
        <ele>279.577</ele>
        <time>2019-09-19T17:27:27.001Z</time>
      </trkpt>
      <trkpt lat="50.0258" lon="4.2015">
        <ele>279.473</ele>
        <time>2019-09-19T17:27:30.001Z</time>
      </trkpt>
      <trkpt lat="50.02579" lon="4.20166">
        <ele>278.411</ele>
        <time>2019-09-19T17:27:33.001Z</time>
      </trkpt>
      <trkpt lat="50.02579" lon="4.2018">
        <ele>278.503</ele>
        <time>2019-09-19T17:27:36.001Z</time>
      </trkpt>
      <trkpt lat="50.02578" lon="4.20194">
        <ele>279.454</ele>
        <time>2019-09-19T17:27:39.001Z</time>
      </trkpt>
      <trkpt lat="50.02576" lon="4.20205">
        <ele>281.405</ele>
        <time>2019-09-19T17:27:42.001Z</time>
      </trkpt>
      <trkpt lat="50.02576" lon="4.20214">
        <ele>283.187</ele>
        <time>2019-09-19T17:27:45.001Z</time>
      </trkpt>
      <trkpt lat="50.02574" lon="4.20224">
        <ele>282.789</ele>
        <time>2019-09-19T17:27:48.001Z</time>
      </trkpt>
      <trkpt lat="50.02571" lon="4.20231">
        <ele>282.229</ele>
        <time>2019-09-19T17:27:51.001Z</time>
      </trkpt>
      <trkpt lat="50.02571" lon="4.20238">
        <ele>281.629</ele>
        <time>2019-09-19T17:27:54.001Z</time>
      </trkpt>
      <trkpt lat="50.02569" lon="4.20248">
        <ele>279.75</ele>
        <time>2019-09-19T17:27:57.001Z</time>
      </trkpt>
      <trkpt lat="50.02565" lon="4.20261">
        <ele>279.419</ele>
        <time>2019-09-19T17:28:00.000Z</time>
      </trkpt>
      <trkpt lat="50.02563" lon="4.20275">
        <ele>277.568</ele>
        <time>2019-09-19T17:28:03.001Z</time>
      </trkpt>
      <trkpt lat="50.02561" lon="4.20293">
        <ele>275.644</ele>
        <time>2019-09-19T17:28:06.001Z</time>
      </trkpt>
      <trkpt lat="50.02559" lon="4.20311">
        <ele>274.73</ele>
        <time>2019-09-19T17:28:09.001Z</time>
      </trkpt>
      <trkpt lat="50.02555" lon="4.20329">
        <ele>274.314</ele>
        <time>2019-09-19T17:28:12.001Z</time>
      </trkpt>
      <trkpt lat="50.02552" lon="4.20348">
        <ele>274.403</ele>
        <time>2019-09-19T17:28:15.001Z</time>
      </trkpt>
      <trkpt lat="50.02548" lon="4.20369">
        <ele>274.403</ele>
        <time>2019-09-19T17:28:18.001Z</time>
      </trkpt>
      <trkpt lat="50.02545" lon="4.20391">
        <ele>274.746</ele>
        <time>2019-09-19T17:28:21.001Z</time>
      </trkpt>
      <trkpt lat="50.02542" lon="4.20411">
        <ele>275.254</ele>
        <time>2019-09-19T17:28:24.001Z</time>
      </trkpt>
      <trkpt lat="50.02539" lon="4.20431">
        <ele>275.916</ele>
        <time>2019-09-19T17:28:27.001Z</time>
      </trkpt>
      <trkpt lat="50.02535" lon="4.20448">
        <ele>276.825</ele>
        <time>2019-09-19T17:28:30.001Z</time>
      </trkpt>
      <trkpt lat="50.02534" lon="4.20464">
        <ele>277.72</ele>
        <time>2019-09-19T17:28:33.001Z</time>
      </trkpt>
      <trkpt lat="50.02533" lon="4.20483">
        <ele>277.794</ele>
        <time>2019-09-19T17:28:36.001Z</time>
      </trkpt>
      <trkpt lat="50.02532" lon="4.20505">
        <ele>277.884</ele>
        <time>2019-09-19T17:28:39.001Z</time>
      </trkpt>
      <trkpt lat="50.0253" lon="4.20531">
        <ele>277.896</ele>
        <time>2019-09-19T17:28:42.001Z</time>
      </trkpt>
      <trkpt lat="50.02528" lon="4.20556">
        <ele>277.756</ele>
        <time>2019-09-19T17:28:45.001Z</time>
      </trkpt>
      <trkpt lat="50.02527" lon="4.20576">
        <ele>278.096</ele>
        <time>2019-09-19T17:28:48.001Z</time>
      </trkpt>
      <trkpt lat="50.02525" lon="4.20597">
        <ele>278.294</ele>
        <time>2019-09-19T17:28:51.001Z</time>
      </trkpt>
      <trkpt lat="50.02522" lon="4.20619">
        <ele>278.88</ele>
        <time>2019-09-19T17:28:54.001Z</time>
      </trkpt>
      <trkpt lat="50.02518" lon="4.20642">
        <ele>279.231</ele>
        <time>2019-09-19T17:28:57.001Z</time>
      </trkpt>
      <trkpt lat="50.02515" lon="4.20659">
        <ele>280.276</ele>
        <time>2019-09-19T17:29:00.000Z</time>
      </trkpt>
      <trkpt lat="50.02513" lon="4.20678">
        <ele>281.053</ele>
        <time>2019-09-19T17:29:03.001Z</time>
      </trkpt>
      <trkpt lat="50.0251" lon="4.20699">
        <ele>281.468</ele>
        <time>2019-09-19T17:29:06.001Z</time>
      </trkpt>
      <trkpt lat="50.02507" lon="4.20721">
        <ele>282.456</ele>
        <time>2019-09-19T17:29:09.001Z</time>
      </trkpt>
      <trkpt lat="50.02504" lon="4.2074">
        <ele>283.106</ele>
        <time>2019-09-19T17:29:12.001Z</time>
      </trkpt>
      <trkpt lat="50.02502" lon="4.2076">
        <ele>282.981</ele>
        <time>2019-09-19T17:29:15.001Z</time>
      </trkpt>
      <trkpt lat="50.025" lon="4.20777">
        <ele>282.708</ele>
        <time>2019-09-19T17:29:18.001Z</time>
      </trkpt>
      <trkpt lat="50.02496" lon="4.20795">
        <ele>282.224</ele>
        <time>2019-09-19T17:29:21.001Z</time>
      </trkpt>
      <trkpt lat="50.02492" lon="4.20819">
        <ele>282.3</ele>
        <time>2019-09-19T17:29:24.001Z</time>
      </trkpt>
      <trkpt lat="50.02489" lon="4.20846">
        <ele>282.084</ele>
        <time>2019-09-19T17:29:27.001Z</time>
      </trkpt>
      <trkpt lat="50.02484" lon="4.20871">
        <ele>282.421</ele>
        <time>2019-09-19T17:29:30.001Z</time>
      </trkpt>
      <trkpt lat="50.02481" lon="4.20892">
        <ele>281.903</ele>
        <time>2019-09-19T17:29:33.001Z</time>
      </trkpt>
      <trkpt lat="50.02479" lon="4.20914">
        <ele>282.006</ele>
        <time>2019-09-19T17:29:36.001Z</time>
      </trkpt>
      <trkpt lat="50.02477" lon="4.20937">
        <ele>282.753</ele>
        <time>2019-09-19T17:29:39.001Z</time>
      </trkpt>
      <trkpt lat="50.02473" lon="4.20963">
        <ele>282.394</ele>
        <time>2019-09-19T17:29:42.001Z</time>
      </trkpt>
      <trkpt lat="50.0247" lon="4.20991">
        <ele>281.99</ele>
        <time>2019-09-19T17:29:45.001Z</time>
      </trkpt>
      <trkpt lat="50.02465" lon="4.21015">
        <ele>282.829</ele>
        <time>2019-09-19T17:29:48.001Z</time>
      </trkpt>
      <trkpt lat="50.02461" lon="4.21035">
        <ele>283.137</ele>
        <time>2019-09-19T17:29:51.001Z</time>
      </trkpt>
      <trkpt lat="50.02457" lon="4.21054">
        <ele>282.693</ele>
        <time>2019-09-19T17:29:54.001Z</time>
      </trkpt>
      <trkpt lat="50.02453" lon="4.2107">
        <ele>282.747</ele>
        <time>2019-09-19T17:29:57.001Z</time>
      </trkpt>
      <trkpt lat="50.0245" lon="4.2109">
        <ele>282.865</ele>
        <time>2019-09-19T17:30:00.000Z</time>
      </trkpt>
      <trkpt lat="50.02444" lon="4.21117">
        <ele>282.899</ele>
        <time>2019-09-19T17:30:03.001Z</time>
      </trkpt>
      <trkpt lat="50.02437" lon="4.21142">
        <ele>283.046</ele>
        <time>2019-09-19T17:30:06.001Z</time>
      </trkpt>
      <trkpt lat="50.0243" lon="4.2117">
        <ele>283.068</ele>
        <time>2019-09-19T17:30:09.001Z</time>
      </trkpt>
      <trkpt lat="50.02424" lon="4.21192">
        <ele>283.193</ele>
        <time>2019-09-19T17:30:12.001Z</time>
      </trkpt>
      <trkpt lat="50.02419" lon="4.21206">
        <ele>281.63</ele>
        <time>2019-09-19T17:30:15.001Z</time>
      </trkpt>
      <trkpt lat="50.02414" lon="4.21218">
        <ele>280.087</ele>
        <time>2019-09-19T17:30:18.001Z</time>
      </trkpt>
      <trkpt lat="50.02414" lon="4.21218">
        <ele>278.321</ele>
        <time>2019-09-19T17:32:09.001Z</time>
      </trkpt>
      <trkpt lat="50.02399" lon="4.21247">
        <ele>277.132</ele>
        <time>2019-09-19T17:32:12.001Z</time>
      </trkpt>
      <trkpt lat="50.02396" lon="4.21257">
        <ele>276.023</ele>
        <time>2019-09-19T17:32:15.001Z</time>
      </trkpt>
      <trkpt lat="50.02391" lon="4.21269">
        <ele>275.124</ele>
        <time>2019-09-19T17:32:18.001Z</time>
      </trkpt>
      <trkpt lat="50.02386" lon="4.21283">
        <ele>274.105</ele>
        <time>2019-09-19T17:32:21.001Z</time>
      </trkpt>
      <trkpt lat="50.02381" lon="4.21297">
        <ele>273.369</ele>
        <time>2019-09-19T17:32:24.001Z</time>
      </trkpt>
      <trkpt lat="50.0236" lon="4.21346">
        <ele>272.643</ele>
        <time>2019-09-19T17:32:27.001Z</time>
      </trkpt>
      <trkpt lat="50.02351" lon="4.21364">
        <ele>271.887</ele>
        <time>2019-09-19T17:32:30.001Z</time>
      </trkpt>
      <trkpt lat="50.02342" lon="4.21383">
        <ele>271.059</ele>
        <time>2019-09-19T17:32:33.001Z</time>
      </trkpt>
      <trkpt lat="50.02336" lon="4.21397">
        <ele>270.411</ele>
        <time>2019-09-19T17:32:36.001Z</time>
      </trkpt>
      <trkpt lat="50.0233" lon="4.2141">
        <ele>269.845</ele>
        <time>2019-09-19T17:32:39.001Z</time>
      </trkpt>
      <trkpt lat="50.02324" lon="4.21427">
        <ele>269.367</ele>
        <time>2019-09-19T17:32:42.001Z</time>
      </trkpt>
      <trkpt lat="50.02316" lon="4.21441">
        <ele>269.542</ele>
        <time>2019-09-19T17:32:45.001Z</time>
      </trkpt>
      <trkpt lat="50.02307" lon="4.21458">
        <ele>269.654</ele>
        <time>2019-09-19T17:32:48.001Z</time>
      </trkpt>
      <trkpt lat="50.02299" lon="4.21476">
        <ele>269.913</ele>
        <time>2019-09-19T17:32:51.001Z</time>
      </trkpt>
      <trkpt lat="50.02293" lon="4.21486">
        <ele>270.875</ele>
        <time>2019-09-19T17:32:54.001Z</time>
      </trkpt>
      <trkpt lat="50.02288" lon="4.21499">
        <ele>271.481</ele>
        <time>2019-09-19T17:32:57.001Z</time>
      </trkpt>
      <trkpt lat="50.02282" lon="4.21513">
        <ele>272.413</ele>
        <time>2019-09-19T17:33:00.000Z</time>
      </trkpt>
      <trkpt lat="50.02276" lon="4.21523">
        <ele>273.11</ele>
        <time>2019-09-19T17:33:03.001Z</time>
      </trkpt>
      <trkpt lat="50.02273" lon="4.21537">
        <ele>273.879</ele>
        <time>2019-09-19T17:33:06.001Z</time>
      </trkpt>
      <trkpt lat="50.02267" lon="4.21552">
        <ele>273.583</ele>
        <time>2019-09-19T17:33:09.001Z</time>
      </trkpt>
      <trkpt lat="50.02258" lon="4.21565">
        <ele>273.199</ele>
        <time>2019-09-19T17:33:12.001Z</time>
      </trkpt>
      <trkpt lat="50.02257" lon="4.21568">
        <ele>272.985</ele>
        <time>2019-09-19T17:33:15.001Z</time>
      </trkpt>
      <trkpt lat="50.02257" lon="4.21568">
        <ele>272.985</ele>
        <time>2019-09-19T17:33:24.001Z</time>
      </trkpt>
      <trkpt lat="50.02256" lon="4.2157">
        <ele>272.554</ele>
        <time>2019-09-19T17:33:27.001Z</time>
      </trkpt>
      <trkpt lat="50.02253" lon="4.2158">
        <ele>271.288</ele>
        <time>2019-09-19T17:33:33.001Z</time>
      </trkpt>
      <trkpt lat="50.0225" lon="4.21572">
        <ele>269.638</ele>
        <time>2019-09-19T17:33:39.001Z</time>
      </trkpt>
      <trkpt lat="50.02248" lon="4.21566">
        <ele>269.85</ele>
        <time>2019-09-19T17:33:42.001Z</time>
      </trkpt>
      <trkpt lat="50.02248" lon="4.21565">
        <ele>270.456</ele>
        <time>2019-09-19T17:33:45.001Z</time>
      </trkpt>
      <trkpt lat="50.02247" lon="4.21564">
        <ele>271.781</ele>
        <time>2019-09-19T17:33:48.001Z</time>
      </trkpt>
      <trkpt lat="50.02246" lon="4.21561">
        <ele>273.875</ele>
        <time>2019-09-19T17:33:51.001Z</time>
      </trkpt>
      <trkpt lat="50.02248" lon="4.21559">
        <ele>274.694</ele>
        <time>2019-09-19T17:33:54.001Z</time>
      </trkpt>
      <trkpt lat="50.02249" lon="4.21559">
        <ele>275.046</ele>
        <time>2019-09-19T17:33:57.001Z</time>
      </trkpt>
      <trkpt lat="50.02249" lon="4.21558">
        <ele>275.704</ele>
        <time>2019-09-19T17:34:00.000Z</time>
      </trkpt>
      <trkpt lat="50.02249" lon="4.21558">
        <ele>275.272</ele>
        <time>2019-09-19T17:34:39.001Z</time>
      </trkpt>
      <trkpt lat="50.0225" lon="4.21555">
        <ele>274.367</ele>
        <time>2019-09-19T17:34:42.001Z</time>
      </trkpt>
      <trkpt lat="50.02247" lon="4.21545">
        <ele>271.148</ele>
        <time>2019-09-19T17:34:51.001Z</time>
      </trkpt>
      <trkpt lat="50.02245" lon="4.21537">
        <ele>271.968</ele>
        <time>2019-09-19T17:34:57.001Z</time>
      </trkpt>
      <trkpt lat="50.02244" lon="4.2153">
        <ele>276.083</ele>
        <time>2019-09-19T17:35:21.001Z</time>
      </trkpt>
      <trkpt lat="50.02244" lon="4.21529">
        <ele>276.083</ele>
        <time>2019-09-19T17:35:24.001Z</time>
      </trkpt>
      <trkpt lat="50.02244" lon="4.21529">
        <ele>276.083</ele>
        <time>2019-09-19T17:35:27.001Z</time>
      </trkpt>
      <trkpt lat="50.02244" lon="4.21528">
        <ele>276.742</ele>
        <time>2019-09-19T17:35:30.001Z</time>
      </trkpt>
      <trkpt lat="50.02247" lon="4.2152">
        <ele>279.805</ele>
        <time>2019-09-19T17:35:36.001Z</time>
      </trkpt>
      <trkpt lat="50.02248" lon="4.21514">
        <ele>282.671</ele>
        <time>2019-09-19T17:35:42.001Z</time>
      </trkpt>
      <trkpt lat="50.02248" lon="4.21506">
        <ele>284.24</ele>
        <time>2019-09-19T17:35:48.001Z</time>
      </trkpt>
      <trkpt lat="50.02246" lon="4.21515">
        <ele>283.55</ele>
        <time>2019-09-19T17:36:06.001Z</time>
      </trkpt>
      <trkpt lat="50.02244" lon="4.21523">
        <ele>283.524</ele>
        <time>2019-09-19T17:36:12.001Z</time>
      </trkpt>
      <trkpt lat="50.02243" lon="4.21529">
        <ele>283.524</ele>
        <time>2019-09-19T17:36:18.001Z</time>
      </trkpt>
      <trkpt lat="50.02243" lon="4.21529">
        <ele>283.524</ele>
        <time>2019-09-19T17:36:21.001Z</time>
      </trkpt>
      <trkpt lat="50.02243" lon="4.21529">
        <ele>282.412</ele>
        <time>2019-09-19T17:39:00.000Z</time>
      </trkpt>
      <trkpt lat="50.02234" lon="4.21533">
        <ele>282.411</ele>
        <time>2019-09-19T17:39:03.001Z</time>
      </trkpt>
      <trkpt lat="50.02235" lon="4.21532">
        <ele>282.525</ele>
        <time>2019-09-19T17:39:27.001Z</time>
      </trkpt>
      <trkpt lat="50.02235" lon="4.21532">
        <ele>282.525</ele>
        <time>2019-09-19T17:39:30.001Z</time>
      </trkpt>
      <trkpt lat="50.02235" lon="4.21532">
        <ele>282.962</ele>
        <time>2019-09-19T17:39:36.001Z</time>
      </trkpt>
      <trkpt lat="50.02236" lon="4.21531">
        <ele>283.389</ele>
        <time>2019-09-19T17:39:39.001Z</time>
      </trkpt>
      <trkpt lat="50.02237" lon="4.21531">
        <ele>283.389</ele>
        <time>2019-09-19T17:39:42.001Z</time>
      </trkpt>
      <trkpt lat="50.02237" lon="4.21531">
        <ele>283.389</ele>
        <time>2019-09-19T17:39:45.001Z</time>
      </trkpt>
      <trkpt lat="50.02237" lon="4.21531">
        <ele>283.389</ele>
        <time>2019-09-19T17:39:48.001Z</time>
      </trkpt>
      <trkpt lat="50.02237" lon="4.21532">
        <ele>283.389</ele>
        <time>2019-09-19T17:39:51.001Z</time>
      </trkpt>
      <trkpt lat="50.02237" lon="4.21532">
        <ele>283.389</ele>
        <time>2019-09-19T17:39:54.001Z</time>
      </trkpt>
      <trkpt lat="50.02238" lon="4.21532">
        <ele>283.389</ele>
        <time>2019-09-19T17:39:57.001Z</time>
      </trkpt>
      <trkpt lat="50.02239" lon="4.21533">
        <ele>280.576</ele>
        <time>2019-09-19T17:40:06.001Z</time>
      </trkpt>
      <trkpt lat="50.0224" lon="4.21533">
        <ele>280.576</ele>
        <time>2019-09-19T17:40:09.001Z</time>
      </trkpt>
      <trkpt lat="50.02241" lon="4.21534">
        <ele>280.576</ele>
        <time>2019-09-19T17:40:12.001Z</time>
      </trkpt>
      <trkpt lat="50.02242" lon="4.21534">
        <ele>280.576</ele>
        <time>2019-09-19T17:40:15.001Z</time>
      </trkpt>
      <trkpt lat="50.02242" lon="4.21534">
        <ele>280.576</ele>
        <time>2019-09-19T17:40:18.001Z</time>
      </trkpt>
      <trkpt lat="50.02242" lon="4.21534">
        <ele>280.653</ele>
        <time>2019-09-19T17:40:45.001Z</time>
      </trkpt>
      <trkpt lat="50.02242" lon="4.21533">
        <ele>281.498</ele>
        <time>2019-09-19T17:40:48.001Z</time>
      </trkpt>
      <trkpt lat="50.02243" lon="4.21531">
        <ele>281.495</ele>
        <time>2019-09-19T17:40:54.001Z</time>
      </trkpt>
      <trkpt lat="50.02243" lon="4.21531">
        <ele>281.495</ele>
        <time>2019-09-19T17:40:57.001Z</time>
      </trkpt>
      <trkpt lat="50.02243" lon="4.21531">
        <ele>275.3</ele>
        <time>2019-09-19T17:41:21.001Z</time>
      </trkpt>
      <trkpt lat="50.02227" lon="4.21558">
        <ele>284.845</ele>
        <time>2019-09-19T17:41:24.001Z</time>
      </trkpt>
      <trkpt lat="50.02236" lon="4.21555">
        <ele>295.231</ele>
        <time>2019-09-19T17:41:27.001Z</time>
      </trkpt>
      <trkpt lat="50.02235" lon="4.21555">
        <ele>301.328</ele>
        <time>2019-09-19T17:41:30.001Z</time>
      </trkpt>
      <trkpt lat="50.02237" lon="4.21555">
        <ele>305.207</ele>
        <time>2019-09-19T17:41:33.001Z</time>
      </trkpt>
      <trkpt lat="50.02247" lon="4.21531">
        <ele>279.793</ele>
        <time>2019-09-19T17:44:30.001Z</time>
      </trkpt>
      <trkpt lat="50.02247" lon="4.21531">
        <ele>279.669</ele>
        <time>2019-09-19T17:47:39.001Z</time>
      </trkpt>
      <trkpt lat="50.02242" lon="4.21532">
        <ele>280.264</ele>
        <time>2019-09-19T17:47:42.001Z</time>
      </trkpt>
      <trkpt lat="50.02248" lon="4.21534">
        <ele>278.895</ele>
        <time>2019-09-19T17:47:51.001Z</time>
      </trkpt>
      <trkpt lat="50.02248" lon="4.21534">
        <ele>278.895</ele>
        <time>2019-09-19T17:47:54.001Z</time>
      </trkpt>
      <trkpt lat="50.02248" lon="4.21534">
        <ele>276.152</ele>
        <time>2019-09-19T17:47:57.001Z</time>
      </trkpt>
      <trkpt lat="50.02249" lon="4.21535">
        <ele>276.487</ele>
        <time>2019-09-19T17:48:00.000Z</time>
      </trkpt>
      <trkpt lat="50.02248" lon="4.21536">
        <ele>276.118</ele>
        <time>2019-09-19T17:48:03.001Z</time>
      </trkpt>
      <trkpt lat="50.02248" lon="4.21536">
        <ele>276.932</ele>
        <time>2019-09-19T17:48:06.001Z</time>
      </trkpt>
      <trkpt lat="50.02248" lon="4.21536">
        <ele>275.1</ele>
        <time>2019-09-19T17:49:18.001Z</time>
      </trkpt>
      <trkpt lat="50.02246" lon="4.21452">
        <ele>280.618</ele>
        <time>2019-09-19T17:49:21.001Z</time>
      </trkpt>
      <trkpt lat="50.02265" lon="4.21497">
        <ele>289.209</ele>
        <time>2019-09-19T17:49:24.001Z</time>
      </trkpt>
      <trkpt lat="50.02266" lon="4.21504">
        <ele>274.568</ele>
        <time>2019-09-19T17:49:27.001Z</time>
      </trkpt>
      <trkpt lat="50.02253" lon="4.21525">
        <ele>273.776</ele>
        <time>2019-09-19T17:50:00.000Z</time>
      </trkpt>
      <trkpt lat="50.02253" lon="4.21525">
        <ele>278.954</ele>
        <time>2019-09-19T17:52:42.001Z</time>
      </trkpt>
      <trkpt lat="50.02241" lon="4.21523">
        <ele>279.949</ele>
        <time>2019-09-19T17:52:45.001Z</time>
      </trkpt>
      <trkpt lat="50.0224" lon="4.21521">
        <ele>279.949</ele>
        <time>2019-09-19T17:52:48.001Z</time>
      </trkpt>
      <trkpt lat="50.0224" lon="4.21521">
        <ele>279.949</ele>
        <time>2019-09-19T17:52:51.001Z</time>
      </trkpt>
      <trkpt lat="50.02238" lon="4.21518">
        <ele>280.033</ele>
        <time>2019-09-19T17:52:54.001Z</time>
      </trkpt>
      <trkpt lat="50.02236" lon="4.21517">
        <ele>279.981</ele>
        <time>2019-09-19T17:52:57.001Z</time>
      </trkpt>
      <trkpt lat="50.02235" lon="4.21517">
        <ele>279.98</ele>
        <time>2019-09-19T17:53:00.000Z</time>
      </trkpt>
      <trkpt lat="50.02235" lon="4.21517">
        <ele>276.373</ele>
        <time>2019-09-19T17:53:48.001Z</time>
      </trkpt>
      <trkpt lat="50.02246" lon="4.21539">
        <ele>273.72</ele>
        <time>2019-09-19T17:53:51.001Z</time>
      </trkpt>
      <trkpt lat="50.02242" lon="4.21542">
        <ele>273.383</ele>
        <time>2019-09-19T17:53:54.001Z</time>
      </trkpt>
      <trkpt lat="50.02241" lon="4.21543">
        <ele>273.383</ele>
        <time>2019-09-19T17:53:57.001Z</time>
      </trkpt>
      <trkpt lat="50.02241" lon="4.21543">
        <ele>273.383</ele>
        <time>2019-09-19T17:54:18.001Z</time>
      </trkpt>
      <trkpt lat="50.02238" lon="4.21544">
        <ele>273.383</ele>
        <time>2019-09-19T17:54:21.001Z</time>
      </trkpt>
      <trkpt lat="50.02238" lon="4.21544">
        <ele>272.619</ele>
        <time>2019-09-19T17:54:27.001Z</time>
      </trkpt>
      <trkpt lat="50.02237" lon="4.21544">
        <ele>272.366</ele>
        <time>2019-09-19T17:54:30.001Z</time>
      </trkpt>
      <trkpt lat="50.02236" lon="4.21541">
        <ele>272.199</ele>
        <time>2019-09-19T17:54:33.001Z</time>
      </trkpt>
      <trkpt lat="50.02236" lon="4.2154">
        <ele>271.26</ele>
        <time>2019-09-19T17:54:36.001Z</time>
      </trkpt>
      <trkpt lat="50.02236" lon="4.2154">
        <ele>275.047</ele>
        <time>2019-09-19T17:54:54.001Z</time>
      </trkpt>
      <trkpt lat="50.02244" lon="4.2153">
        <ele>275.13</ele>
        <time>2019-09-19T17:54:57.001Z</time>
      </trkpt>
      <trkpt lat="50.02247" lon="4.2153">
        <ele>275.13</ele>
        <time>2019-09-19T17:55:03.001Z</time>
      </trkpt>
      <trkpt lat="50.02248" lon="4.2153">
        <ele>275.13</ele>
        <time>2019-09-19T17:55:06.001Z</time>
      </trkpt>
      <trkpt lat="50.02248" lon="4.2153">
        <ele>268.692</ele>
        <time>2019-09-19T17:55:30.001Z</time>
      </trkpt>
      <trkpt lat="50.0225" lon="4.21532">
        <ele>268.147</ele>
        <time>2019-09-19T17:55:33.001Z</time>
      </trkpt>
      <trkpt lat="50.02248" lon="4.21531">
        <ele>268.279</ele>
        <time>2019-09-19T17:55:36.001Z</time>
      </trkpt>
      <trkpt lat="50.02248" lon="4.21531">
        <ele>267.861</ele>
        <time>2019-09-19T17:55:39.001Z</time>
      </trkpt>
      <trkpt lat="50.02248" lon="4.21531">
        <ele>269.693</ele>
        <time>2019-09-19T17:56:30.001Z</time>
      </trkpt>
      <trkpt lat="50.02239" lon="4.21523">
        <ele>269.693</ele>
        <time>2019-09-19T17:56:33.001Z</time>
      </trkpt>
      <trkpt lat="50.0224" lon="4.21525">
        <ele>270.882</ele>
        <time>2019-09-19T17:56:45.001Z</time>
      </trkpt>
      <trkpt lat="50.02241" lon="4.21526">
        <ele>270.882</ele>
        <time>2019-09-19T17:56:48.001Z</time>
      </trkpt>
      <trkpt lat="50.02241" lon="4.21526">
        <ele>270.953</ele>
        <time>2019-09-19T17:57:06.001Z</time>
      </trkpt>
      <trkpt lat="50.02242" lon="4.21528">
        <ele>276.579</ele>
        <time>2019-09-19T17:57:09.001Z</time>
      </trkpt>
      <trkpt lat="50.02239" lon="4.21532">
        <ele>276.579</ele>
        <time>2019-09-19T17:57:24.001Z</time>
      </trkpt>
      <trkpt lat="50.02239" lon="4.21532">
        <ele>276.579</ele>
        <time>2019-09-19T17:57:27.001Z</time>
      </trkpt>
      <trkpt lat="50.02239" lon="4.21532">
        <ele>275.927</ele>
        <time>2019-09-19T17:57:45.001Z</time>
      </trkpt>
      <trkpt lat="50.02237" lon="4.21534">
        <ele>275.822</ele>
        <time>2019-09-19T17:57:48.001Z</time>
      </trkpt>
      <trkpt lat="50.02236" lon="4.21542">
        <ele>277.397</ele>
        <time>2019-09-19T17:58:09.001Z</time>
      </trkpt>
      <trkpt lat="50.02238" lon="4.21542">
        <ele>278.197</ele>
        <time>2019-09-19T17:58:12.001Z</time>
      </trkpt>
      <trkpt lat="50.02238" lon="4.21542">
        <ele>278.197</ele>
        <time>2019-09-19T17:58:15.001Z</time>
      </trkpt>
      <trkpt lat="50.0224" lon="4.21542">
        <ele>278.197</ele>
        <time>2019-09-19T17:58:18.001Z</time>
      </trkpt>
      <trkpt lat="50.0224" lon="4.21541">
        <ele>278.197</ele>
        <time>2019-09-19T17:58:21.001Z</time>
      </trkpt>
      <trkpt lat="50.0224" lon="4.21541">
        <ele>278.197</ele>
        <time>2019-09-19T17:58:24.001Z</time>
      </trkpt>
      <trkpt lat="50.0224" lon="4.21541">
        <ele>278.546</ele>
        <time>2019-09-19T17:58:27.001Z</time>
      </trkpt>
      <trkpt lat="50.02241" lon="4.21541">
        <ele>278.129</ele>
        <time>2019-09-19T17:58:30.001Z</time>
      </trkpt>
      <trkpt lat="50.02242" lon="4.21539">
        <ele>277.803</ele>
        <time>2019-09-19T17:58:33.001Z</time>
      </trkpt>
      <trkpt lat="50.02242" lon="4.21539">
        <ele>277.803</ele>
        <time>2019-09-19T17:58:36.001Z</time>
      </trkpt>
      <trkpt lat="50.02242" lon="4.21539">
        <ele>277.803</ele>
        <time>2019-09-19T17:58:42.001Z</time>
      </trkpt>
      <trkpt lat="50.02242" lon="4.21537">
        <ele>277.189</ele>
        <time>2019-09-19T17:58:45.001Z</time>
      </trkpt>
      <trkpt lat="50.02242" lon="4.21538">
        <ele>276.746</ele>
        <time>2019-09-19T17:58:48.001Z</time>
      </trkpt>
      <trkpt lat="50.02242" lon="4.21538">
        <ele>276.746</ele>
        <time>2019-09-19T17:58:51.001Z</time>
      </trkpt>
      <trkpt lat="50.02242" lon="4.21538">
        <ele>276.746</ele>
        <time>2019-09-19T17:58:57.001Z</time>
      </trkpt>
      <trkpt lat="50.0224" lon="4.21538">
        <ele>276.746</ele>
        <time>2019-09-19T17:59:00.000Z</time>
      </trkpt>
      <trkpt lat="50.02238" lon="4.21535">
        <ele>277.073</ele>
        <time>2019-09-19T17:59:09.001Z</time>
      </trkpt>
      <trkpt lat="50.02238" lon="4.21535">
        <ele>277.073</ele>
        <time>2019-09-19T17:59:12.001Z</time>
      </trkpt>
      <trkpt lat="50.02238" lon="4.21534">
        <ele>277.073</ele>
        <time>2019-09-19T17:59:15.001Z</time>
      </trkpt>
      <trkpt lat="50.02238" lon="4.21533">
        <ele>277.073</ele>
        <time>2019-09-19T17:59:21.001Z</time>
      </trkpt>
      <trkpt lat="50.02238" lon="4.21533">
        <ele>277.073</ele>
        <time>2019-09-19T17:59:24.001Z</time>
      </trkpt>
      <trkpt lat="50.02238" lon="4.21533">
        <ele>277.297</ele>
        <time>2019-09-19T17:59:45.001Z</time>
      </trkpt>
      <trkpt lat="50.02236" lon="4.21534">
        <ele>276.27</ele>
        <time>2019-09-19T17:59:48.001Z</time>
      </trkpt>
      <trkpt lat="50.02236" lon="4.21533">
        <ele>276.27</ele>
        <time>2019-09-19T17:59:54.001Z</time>
      </trkpt>
      <trkpt lat="50.02236" lon="4.21533">
        <ele>276.27</ele>
        <time>2019-09-19T17:59:57.001Z</time>
      </trkpt>
      <trkpt lat="50.02236" lon="4.21533">
        <ele>276.27</ele>
        <time>2019-09-19T18:00:12.001Z</time>
      </trkpt>
      <trkpt lat="50.02236" lon="4.21533">
        <ele>276.27</ele>
        <time>2019-09-19T18:00:15.001Z</time>
      </trkpt>
      <trkpt lat="50.02236" lon="4.21533">
        <ele>276.27</ele>
        <time>2019-09-19T18:00:30.001Z</time>
      </trkpt>
      <trkpt lat="50.02236" lon="4.21533">
        <ele>276.27</ele>
        <time>2019-09-19T18:00:33.001Z</time>
      </trkpt>
      <trkpt lat="50.02236" lon="4.21533">
        <ele>276.27</ele>
        <time>2019-09-19T18:00:36.001Z</time>
      </trkpt>
      <trkpt lat="50.02236" lon="4.21533">
        <ele>276.27</ele>
        <time>2019-09-19T18:00:39.001Z</time>
      </trkpt>
      <trkpt lat="50.02238" lon="4.2153">
        <ele>276.74</ele>
        <time>2019-09-19T18:00:54.001Z</time>
      </trkpt>
      <trkpt lat="50.02238" lon="4.2153">
        <ele>276.74</ele>
        <time>2019-09-19T18:00:57.001Z</time>
      </trkpt>
      <trkpt lat="50.02238" lon="4.2153">
        <ele>271.568</ele>
        <time>2019-09-19T18:01:21.001Z</time>
      </trkpt>
      <trkpt lat="50.02232" lon="4.21536">
        <ele>270.621</ele>
        <time>2019-09-19T18:01:24.001Z</time>
      </trkpt>
      <trkpt lat="50.02234" lon="4.21539">
        <ele>271.596</ele>
        <time>2019-09-19T18:01:42.001Z</time>
      </trkpt>
      <trkpt lat="50.02235" lon="4.21538">
        <ele>271.596</ele>
        <time>2019-09-19T18:01:45.001Z</time>
      </trkpt>
      <trkpt lat="50.02235" lon="4.21538">
        <ele>274.916</ele>
        <time>2019-09-19T18:02:21.001Z</time>
      </trkpt>
      <trkpt lat="50.02236" lon="4.21532">
        <ele>273.295</ele>
        <time>2019-09-19T18:02:24.001Z</time>
      </trkpt>
      <trkpt lat="50.02236" lon="4.21531">
        <ele>274.694</ele>
        <time>2019-09-19T18:02:27.001Z</time>
      </trkpt>
      <trkpt lat="50.02235" lon="4.2153">
        <ele>274.694</ele>
        <time>2019-09-19T18:02:30.001Z</time>
      </trkpt>
      <trkpt lat="50.02235" lon="4.21529">
        <ele>274.694</ele>
        <time>2019-09-19T18:02:33.001Z</time>
      </trkpt>
      <trkpt lat="50.02235" lon="4.21529">
        <ele>274.694</ele>
        <time>2019-09-19T18:02:36.001Z</time>
      </trkpt>
      <trkpt lat="50.02235" lon="4.21528">
        <ele>274.694</ele>
        <time>2019-09-19T18:02:39.001Z</time>
      </trkpt>
      <trkpt lat="50.02235" lon="4.21528">
        <ele>275.5</ele>
        <time>2019-09-19T18:03:24.001Z</time>
      </trkpt>
      <trkpt lat="50.02251" lon="4.21519">
        <ele>298.752</ele>
        <time>2019-09-19T18:03:27.001Z</time>
      </trkpt>
      <trkpt lat="50.02242" lon="4.21526">
        <ele>287.398</ele>
        <time>2019-09-19T18:03:42.001Z</time>
      </trkpt>
      <trkpt lat="50.0224" lon="4.21529">
        <ele>278.713</ele>
        <time>2019-09-19T18:03:45.001Z</time>
      </trkpt>
      <trkpt lat="50.0224" lon="4.21529">
        <ele>270.646</ele>
        <time>2019-09-19T18:04:30.001Z</time>
      </trkpt>
      <trkpt lat="50.02233" lon="4.21531">
        <ele>270.646</ele>
        <time>2019-09-19T18:04:33.001Z</time>
      </trkpt>
      <trkpt lat="50.02233" lon="4.21531">
        <ele>270.646</ele>
        <time>2019-09-19T18:04:36.001Z</time>
      </trkpt>
      <trkpt lat="50.02233" lon="4.21531">
        <ele>268.055</ele>
        <time>2019-09-19T18:05:33.001Z</time>
      </trkpt>
      <trkpt lat="50.02229" lon="4.21532">
        <ele>268.055</ele>
        <time>2019-09-19T18:05:36.001Z</time>
      </trkpt>
      <trkpt lat="50.02231" lon="4.21532">
        <ele>269.486</ele>
        <time>2019-09-19T18:05:42.001Z</time>
      </trkpt>
      <trkpt lat="50.02231" lon="4.21532">
        <ele>271.794</ele>
        <time>2019-09-19T18:05:45.001Z</time>
      </trkpt>
      <trkpt lat="50.02231" lon="4.21532">
        <ele>273.18</ele>
        <time>2019-09-19T18:05:51.001Z</time>
      </trkpt>
      <trkpt lat="50.02242" lon="4.21527">
        <ele>273.181</ele>
        <time>2019-09-19T18:05:54.001Z</time>
      </trkpt>
      <trkpt lat="50.02243" lon="4.21526">
        <ele>273.181</ele>
        <time>2019-09-19T18:05:57.001Z</time>
      </trkpt>
      <trkpt lat="50.02243" lon="4.21526">
        <ele>273.181</ele>
        <time>2019-09-19T18:06:00.000Z</time>
      </trkpt>
      <trkpt lat="50.02243" lon="4.21526">
        <ele>272.639</ele>
        <time>2019-09-19T18:06:51.001Z</time>
      </trkpt>
      <trkpt lat="50.02245" lon="4.21527">
        <ele>268.684</ele>
        <time>2019-09-19T18:06:54.001Z</time>
      </trkpt>
      <trkpt lat="50.02239" lon="4.21528">
        <ele>268.684</ele>
        <time>2019-09-19T18:06:57.001Z</time>
      </trkpt>
      <trkpt lat="50.02235" lon="4.21529">
        <ele>268.684</ele>
        <time>2019-09-19T18:07:00.000Z</time>
      </trkpt>
      <trkpt lat="50.02234" lon="4.21529">
        <ele>268.684</ele>
        <time>2019-09-19T18:07:03.001Z</time>
      </trkpt>
      <trkpt lat="50.02234" lon="4.21529">
        <ele>261.245</ele>
        <time>2019-09-19T18:07:18.001Z</time>
      </trkpt>
      <trkpt lat="50.02248" lon="4.21532">
        <ele>265.347</ele>
        <time>2019-09-19T18:07:21.001Z</time>
      </trkpt>
      <trkpt lat="50.02247" lon="4.21539">
        <ele>265.347</ele>
        <time>2019-09-19T18:07:27.001Z</time>
      </trkpt>
      <trkpt lat="50.02246" lon="4.21542">
        <ele>265.347</ele>
        <time>2019-09-19T18:07:33.001Z</time>
      </trkpt>
      <trkpt lat="50.02246" lon="4.21543">
        <ele>265.347</ele>
        <time>2019-09-19T18:07:36.001Z</time>
      </trkpt>
      <trkpt lat="50.02246" lon="4.21543">
        <ele>266.803</ele>
        <time>2019-09-19T18:07:39.001Z</time>
      </trkpt>
      <trkpt lat="50.02245" lon="4.21544">
        <ele>267.453</ele>
        <time>2019-09-19T18:07:42.001Z</time>
      </trkpt>
      <trkpt lat="50.02245" lon="4.21544">
        <ele>267.453</ele>
        <time>2019-09-19T18:07:45.001Z</time>
      </trkpt>
      <trkpt lat="50.02245" lon="4.21544">
        <ele>267.936</ele>
        <time>2019-09-19T18:07:51.001Z</time>
      </trkpt>
      <trkpt lat="50.02244" lon="4.21544">
        <ele>269.326</ele>
        <time>2019-09-19T18:07:54.001Z</time>
      </trkpt>
      <trkpt lat="50.02242" lon="4.21543">
        <ele>269.537</ele>
        <time>2019-09-19T18:08:00.000Z</time>
      </trkpt>
      <trkpt lat="50.02242" lon="4.21543">
        <ele>269.537</ele>
        <time>2019-09-19T18:08:03.001Z</time>
      </trkpt>
      <trkpt lat="50.02242" lon="4.21543">
        <ele>268.784</ele>
        <time>2019-09-19T18:08:06.001Z</time>
      </trkpt>
      <trkpt lat="50.02242" lon="4.21542">
        <ele>268.507</ele>
        <time>2019-09-19T18:08:09.001Z</time>
      </trkpt>
      <trkpt lat="50.02243" lon="4.21543">
        <ele>268.507</ele>
        <time>2019-09-19T18:08:12.001Z</time>
      </trkpt>
      <trkpt lat="50.02243" lon="4.21543">
        <ele>268.507</ele>
        <time>2019-09-19T18:08:15.001Z</time>
      </trkpt>
      <trkpt lat="50.02243" lon="4.21543">
        <ele>268.507</ele>
        <time>2019-09-19T18:08:24.001Z</time>
      </trkpt>
      <trkpt lat="50.02243" lon="4.21542">
        <ele>269.355</ele>
        <time>2019-09-19T18:08:27.001Z</time>
      </trkpt>
      <trkpt lat="50.02243" lon="4.21534">
        <ele>271.343</ele>
        <time>2019-09-19T18:08:33.001Z</time>
      </trkpt>
      <trkpt lat="50.02243" lon="4.21534">
        <ele>271.343</ele>
        <time>2019-09-19T18:08:36.001Z</time>
      </trkpt>
      <trkpt lat="50.02243" lon="4.21534">
        <ele>271.343</ele>
        <time>2019-09-19T18:09:06.001Z</time>
      </trkpt>
      <trkpt lat="50.02243" lon="4.21528">
        <ele>271.541</ele>
        <time>2019-09-19T18:09:09.001Z</time>
      </trkpt>
      <trkpt lat="50.02244" lon="4.21533">
        <ele>271.723</ele>
        <time>2019-09-19T18:09:21.001Z</time>
      </trkpt>
      <trkpt lat="50.02244" lon="4.21533">
        <ele>271.723</ele>
        <time>2019-09-19T18:09:24.001Z</time>
      </trkpt>
      <trkpt lat="50.02244" lon="4.21533">
        <ele>278.132</ele>
        <time>2019-09-19T18:10:03.001Z</time>
      </trkpt>
      <trkpt lat="50.02236" lon="4.21531">
        <ele>278.278</ele>
        <time>2019-09-19T18:10:06.001Z</time>
      </trkpt>
      <trkpt lat="50.0224" lon="4.21535">
        <ele>279.41</ele>
        <time>2019-09-19T18:10:18.001Z</time>
      </trkpt>
      <trkpt lat="50.0224" lon="4.21535">
        <ele>279.85</ele>
        <time>2019-09-19T18:10:21.001Z</time>
      </trkpt>
      <trkpt lat="50.0224" lon="4.21535">
        <ele>278.946</ele>
        <time>2019-09-19T18:10:33.001Z</time>
      </trkpt>
      <trkpt lat="50.02242" lon="4.21534">
        <ele>278.946</ele>
        <time>2019-09-19T18:10:36.001Z</time>
      </trkpt>
      <trkpt lat="50.02244" lon="4.21527">
        <ele>281.301</ele>
        <time>2019-09-19T18:10:45.001Z</time>
      </trkpt>
      <trkpt lat="50.02244" lon="4.21527">
        <ele>281.301</ele>
        <time>2019-09-19T18:10:48.001Z</time>
      </trkpt>
      <trkpt lat="50.02244" lon="4.21527">
        <ele>281.301</ele>
        <time>2019-09-19T18:11:00.000Z</time>
      </trkpt>
      <trkpt lat="50.02245" lon="4.21525">
        <ele>280.913</ele>
        <time>2019-09-19T18:11:03.001Z</time>
      </trkpt>
      <trkpt lat="50.02242" lon="4.21528">
        <ele>280.794</ele>
        <time>2019-09-19T18:11:09.001Z</time>
      </trkpt>
      <trkpt lat="50.02242" lon="4.21528">
        <ele>280.794</ele>
        <time>2019-09-19T18:11:12.001Z</time>
      </trkpt>
      <trkpt lat="50.02242" lon="4.21528">
        <ele>280.794</ele>
        <time>2019-09-19T18:11:39.001Z</time>
      </trkpt>
      <trkpt lat="50.02241" lon="4.21529">
        <ele>280.794</ele>
        <time>2019-09-19T18:11:42.001Z</time>
      </trkpt>
      <trkpt lat="50.02241" lon="4.21529">
        <ele>280.794</ele>
        <time>2019-09-19T18:11:45.001Z</time>
      </trkpt>
      <trkpt lat="50.02241" lon="4.21529">
        <ele>280.794</ele>
        <time>2019-09-19T18:11:48.001Z</time>
      </trkpt>
      <trkpt lat="50.02241" lon="4.21529">
        <ele>279.395</ele>
        <time>2019-09-19T18:12:27.001Z</time>
      </trkpt>
      <trkpt lat="50.02239" lon="4.21534">
        <ele>279.395</ele>
        <time>2019-09-19T18:12:30.001Z</time>
      </trkpt>
      <trkpt lat="50.02239" lon="4.21534">
        <ele>279.395</ele>
        <time>2019-09-19T18:12:33.001Z</time>
      </trkpt>
      <trkpt lat="50.02239" lon="4.21534">
        <ele>280.231</ele>
        <time>2019-09-19T18:13:48.001Z</time>
      </trkpt>
      <trkpt lat="50.0224" lon="4.21538">
        <ele>282.969</ele>
        <time>2019-09-19T18:13:51.001Z</time>
      </trkpt>
      <trkpt lat="50.02243" lon="4.21537">
        <ele>283.328</ele>
        <time>2019-09-19T18:13:57.001Z</time>
      </trkpt>
      <trkpt lat="50.02243" lon="4.21537">
        <ele>283.328</ele>
        <time>2019-09-19T18:14:00.000Z</time>
      </trkpt>
      <trkpt lat="50.02243" lon="4.21537">
        <ele>282.514</ele>
        <time>2019-09-19T18:15:21.001Z</time>
      </trkpt>
      <trkpt lat="50.02232" lon="4.21541">
        <ele>282.78</ele>
        <time>2019-09-19T18:15:24.001Z</time>
      </trkpt>
      <trkpt lat="50.02233" lon="4.21545">
        <ele>282.5</ele>
        <time>2019-09-19T18:15:33.001Z</time>
      </trkpt>
      <trkpt lat="50.02233" lon="4.21545">
        <ele>282.5</ele>
        <time>2019-09-19T18:15:36.001Z</time>
      </trkpt>
      <trkpt lat="50.02233" lon="4.21545">
        <ele>283.078</ele>
        <time>2019-09-19T18:16:06.001Z</time>
      </trkpt>
      <trkpt lat="50.02243" lon="4.21542">
        <ele>283.412</ele>
        <time>2019-09-19T18:16:09.001Z</time>
      </trkpt>
      <trkpt lat="50.02245" lon="4.2154">
        <ele>282.76</ele>
        <time>2019-09-19T18:16:21.001Z</time>
      </trkpt>
      <trkpt lat="50.02245" lon="4.21539">
        <ele>282.76</ele>
        <time>2019-09-19T18:16:24.001Z</time>
      </trkpt>
      <trkpt lat="50.02245" lon="4.21539">
        <ele>290.583</ele>
        <time>2019-09-19T18:21:27.001Z</time>
      </trkpt>
      <trkpt lat="50.02247" lon="4.2154">
        <ele>290.583</ele>
        <time>2019-09-19T18:21:30.001Z</time>
      </trkpt>
      <trkpt lat="50.02248" lon="4.2154">
        <ele>290.896</ele>
        <time>2019-09-19T18:21:36.001Z</time>
      </trkpt>
      <trkpt lat="50.02249" lon="4.2154">
        <ele>290.896</ele>
        <time>2019-09-19T18:21:39.001Z</time>
      </trkpt>
      <trkpt lat="50.02249" lon="4.2154">
        <ele>290.896</ele>
        <time>2019-09-19T18:21:42.001Z</time>
      </trkpt>
      <trkpt lat="50.0225" lon="4.21539">
        <ele>290.896</ele>
        <time>2019-09-19T18:21:45.001Z</time>
      </trkpt>
      <trkpt lat="50.02249" lon="4.21539">
        <ele>289.463</ele>
        <time>2019-09-19T18:21:54.001Z</time>
      </trkpt>
      <trkpt lat="50.02249" lon="4.21539">
        <ele>288.703</ele>
        <time>2019-09-19T18:21:57.001Z</time>
      </trkpt>
      <trkpt lat="50.02249" lon="4.21539">
        <ele>288.453</ele>
        <time>2019-09-19T18:22:00.000Z</time>
      </trkpt>
      <trkpt lat="50.02248" lon="4.2154">
        <ele>289.189</ele>
        <time>2019-09-19T18:22:03.001Z</time>
      </trkpt>
      <trkpt lat="50.02247" lon="4.21533">
        <ele>287.169</ele>
        <time>2019-09-19T18:22:21.001Z</time>
      </trkpt>
      <trkpt lat="50.02246" lon="4.21531">
        <ele>287.169</ele>
        <time>2019-09-19T18:22:27.001Z</time>
      </trkpt>
      <trkpt lat="50.02246" lon="4.21531">
        <ele>287.169</ele>
        <time>2019-09-19T18:22:30.001Z</time>
      </trkpt>
      <trkpt lat="50.02246" lon="4.21531">
        <ele>287.169</ele>
        <time>2019-09-19T18:22:39.001Z</time>
      </trkpt>
      <trkpt lat="50.02246" lon="4.21531">
        <ele>287.793</ele>
        <time>2019-09-19T18:22:42.001Z</time>
      </trkpt>
      <trkpt lat="50.02246" lon="4.21529">
        <ele>288.13</ele>
        <time>2019-09-19T18:22:45.001Z</time>
      </trkpt>
      <trkpt lat="50.02246" lon="4.21528">
        <ele>288.755</ele>
        <time>2019-09-19T18:22:48.001Z</time>
      </trkpt>
      <trkpt lat="50.02246" lon="4.21528">
        <ele>288.755</ele>
        <time>2019-09-19T18:23:00.000Z</time>
      </trkpt>
      <trkpt lat="50.02246" lon="4.21527">
        <ele>287.017</ele>
        <time>2019-09-19T18:23:03.001Z</time>
      </trkpt>
      <trkpt lat="50.02245" lon="4.21535">
        <ele>285.229</ele>
        <time>2019-09-19T18:23:18.001Z</time>
      </trkpt>
      <trkpt lat="50.02244" lon="4.21537">
        <ele>285.229</ele>
        <time>2019-09-19T18:23:21.001Z</time>
      </trkpt>
      <trkpt lat="50.02244" lon="4.21537">
        <ele>285.229</ele>
        <time>2019-09-19T18:23:24.001Z</time>
      </trkpt>
      <trkpt lat="50.02244" lon="4.21537">
        <ele>288.003</ele>
        <time>2019-09-19T18:24:24.001Z</time>
      </trkpt>
      <trkpt lat="50.02243" lon="4.21539">
        <ele>288.605</ele>
        <time>2019-09-19T18:24:27.001Z</time>
      </trkpt>
      <trkpt lat="50.02242" lon="4.2154">
        <ele>288.32</ele>
        <time>2019-09-19T18:24:30.001Z</time>
      </trkpt>
      <trkpt lat="50.02241" lon="4.2154">
        <ele>287.125</ele>
        <time>2019-09-19T18:24:33.001Z</time>
      </trkpt>
      <trkpt lat="50.02241" lon="4.2154">
        <ele>287.125</ele>
        <time>2019-09-19T18:24:51.001Z</time>
      </trkpt>
      <trkpt lat="50.02236" lon="4.21541">
        <ele>287.703</ele>
        <time>2019-09-19T18:24:54.001Z</time>
      </trkpt>
      <trkpt lat="50.02238" lon="4.21539">
        <ele>288.259</ele>
        <time>2019-09-19T18:25:03.001Z</time>
      </trkpt>
      <trkpt lat="50.02238" lon="4.21539">
        <ele>288.259</ele>
        <time>2019-09-19T18:25:06.001Z</time>
      </trkpt>
      <trkpt lat="50.02238" lon="4.21539">
        <ele>287.682</ele>
        <time>2019-09-19T18:25:27.001Z</time>
      </trkpt>
      <trkpt lat="50.02241" lon="4.21537">
        <ele>287.483</ele>
        <time>2019-09-19T18:25:30.001Z</time>
      </trkpt>
      <trkpt lat="50.0224" lon="4.21538">
        <ele>288.777</ele>
        <time>2019-09-19T18:25:42.001Z</time>
      </trkpt>
      <trkpt lat="50.0224" lon="4.21538">
        <ele>288.777</ele>
        <time>2019-09-19T18:25:45.001Z</time>
      </trkpt>
      <trkpt lat="50.0224" lon="4.21538">
        <ele>284.36</ele>
        <time>2019-09-19T18:26:06.001Z</time>
      </trkpt>
      <trkpt lat="50.02241" lon="4.21545">
        <ele>283.839</ele>
        <time>2019-09-19T18:26:09.001Z</time>
      </trkpt>
      <trkpt lat="50.02241" lon="4.21544">
        <ele>284.569</ele>
        <time>2019-09-19T18:26:15.001Z</time>
      </trkpt>
      <trkpt lat="50.02241" lon="4.21544">
        <ele>284.569</ele>
        <time>2019-09-19T18:26:18.001Z</time>
      </trkpt>
      <trkpt lat="50.02241" lon="4.21544">
        <ele>284.602</ele>
        <time>2019-09-19T18:26:45.001Z</time>
      </trkpt>
      <trkpt lat="50.02239" lon="4.21539">
        <ele>284.602</ele>
        <time>2019-09-19T18:26:48.001Z</time>
      </trkpt>
      <trkpt lat="50.02245" lon="4.21534">
        <ele>281.607</ele>
        <time>2019-09-19T18:26:57.001Z</time>
      </trkpt>
      <trkpt lat="50.02245" lon="4.21533">
        <ele>281.607</ele>
        <time>2019-09-19T18:27:00.000Z</time>
      </trkpt>
      <trkpt lat="50.02245" lon="4.21533">
        <ele>281.607</ele>
        <time>2019-09-19T18:27:12.001Z</time>
      </trkpt>
      <trkpt lat="50.02246" lon="4.2153">
        <ele>281.607</ele>
        <time>2019-09-19T18:27:15.001Z</time>
      </trkpt>
      <trkpt lat="50.02246" lon="4.21529">
        <ele>281.607</ele>
        <time>2019-09-19T18:27:18.001Z</time>
      </trkpt>
      <trkpt lat="50.02247" lon="4.21529">
        <ele>281.607</ele>
        <time>2019-09-19T18:27:21.001Z</time>
      </trkpt>
      <trkpt lat="50.02247" lon="4.21529">
        <ele>281.607</ele>
        <time>2019-09-19T18:27:27.001Z</time>
      </trkpt>
      <trkpt lat="50.02247" lon="4.21529">
        <ele>281.607</ele>
        <time>2019-09-19T18:27:30.001Z</time>
      </trkpt>
      <trkpt lat="50.02249" lon="4.21536">
        <ele>280.117</ele>
        <time>2019-09-19T18:27:57.001Z</time>
      </trkpt>
      <trkpt lat="50.0225" lon="4.21526">
        <ele>279.052</ele>
        <time>2019-09-19T18:28:15.001Z</time>
      </trkpt>
      <trkpt lat="50.02247" lon="4.2152">
        <ele>278.518</ele>
        <time>2019-09-19T18:28:27.001Z</time>
      </trkpt>
      <trkpt lat="50.02247" lon="4.21519">
        <ele>278.518</ele>
        <time>2019-09-19T18:28:33.001Z</time>
      </trkpt>
      <trkpt lat="50.02247" lon="4.21519">
        <ele>278.518</ele>
        <time>2019-09-19T18:28:36.001Z</time>
      </trkpt>
      <trkpt lat="50.02247" lon="4.21519">
        <ele>278.518</ele>
        <time>2019-09-19T18:28:45.001Z</time>
      </trkpt>
      <trkpt lat="50.02247" lon="4.21519">
        <ele>278.518</ele>
        <time>2019-09-19T18:28:48.001Z</time>
      </trkpt>
      <trkpt lat="50.02247" lon="4.21519">
        <ele>278.518</ele>
        <time>2019-09-19T18:28:51.001Z</time>
      </trkpt>
      <trkpt lat="50.02247" lon="4.21519">
        <ele>278.518</ele>
        <time>2019-09-19T18:28:54.001Z</time>
      </trkpt>
      <trkpt lat="50.02247" lon="4.21519">
        <ele>278.518</ele>
        <time>2019-09-19T18:29:00.000Z</time>
      </trkpt>
      <trkpt lat="50.02247" lon="4.21519">
        <ele>278.518</ele>
        <time>2019-09-19T18:29:03.001Z</time>
      </trkpt>
      <trkpt lat="50.02246" lon="4.21519">
        <ele>277.917</ele>
        <time>2019-09-19T18:29:06.001Z</time>
      </trkpt>
      <trkpt lat="50.02246" lon="4.21519">
        <ele>277.684</ele>
        <time>2019-09-19T18:29:09.001Z</time>
      </trkpt>
      <trkpt lat="50.02246" lon="4.21519">
        <ele>278.538</ele>
        <time>2019-09-19T18:30:39.001Z</time>
      </trkpt>
      <trkpt lat="50.02235" lon="4.21522">
        <ele>278.538</ele>
        <time>2019-09-19T18:30:42.001Z</time>
      </trkpt>
      <trkpt lat="50.02238" lon="4.2153">
        <ele>281.061</ele>
        <time>2019-09-19T18:30:51.001Z</time>
      </trkpt>
      <trkpt lat="50.0224" lon="4.21538">
        <ele>281.339</ele>
        <time>2019-09-19T18:31:00.000Z</time>
      </trkpt>
      <trkpt lat="50.02246" lon="4.21532">
        <ele>278.792</ele>
        <time>2019-09-19T18:31:09.001Z</time>
      </trkpt>
      <trkpt lat="50.02246" lon="4.21529">
        <ele>277.237</ele>
        <time>2019-09-19T18:31:12.001Z</time>
      </trkpt>
      <trkpt lat="50.02246" lon="4.21529">
        <ele>276.941</ele>
        <time>2019-09-19T18:31:15.001Z</time>
      </trkpt>
      <trkpt lat="50.02246" lon="4.21529">
        <ele>278.26</ele>
        <time>2019-09-19T18:31:33.001Z</time>
      </trkpt>
      <trkpt lat="50.02246" lon="4.21526">
        <ele>278.26</ele>
        <time>2019-09-19T18:31:36.001Z</time>
      </trkpt>
      <trkpt lat="50.02245" lon="4.21526">
        <ele>278.26</ele>
        <time>2019-09-19T18:31:39.001Z</time>
      </trkpt>
      <trkpt lat="50.02245" lon="4.21526">
        <ele>278.26</ele>
        <time>2019-09-19T18:31:42.001Z</time>
      </trkpt>
      <trkpt lat="50.02245" lon="4.21526">
        <ele>279.65</ele>
        <time>2019-09-19T18:31:54.001Z</time>
      </trkpt>
      <trkpt lat="50.02243" lon="4.21531">
        <ele>279.754</ele>
        <time>2019-09-19T18:31:57.001Z</time>
      </trkpt>
      <trkpt lat="50.02243" lon="4.21532">
        <ele>280.008</ele>
        <time>2019-09-19T18:32:00.000Z</time>
      </trkpt>
      <trkpt lat="50.02243" lon="4.21533">
        <ele>280.008</ele>
        <time>2019-09-19T18:32:03.001Z</time>
      </trkpt>
      <trkpt lat="50.02244" lon="4.21534">
        <ele>280.008</ele>
        <time>2019-09-19T18:32:06.001Z</time>
      </trkpt>
      <trkpt lat="50.02244" lon="4.21534">
        <ele>280.008</ele>
        <time>2019-09-19T18:32:09.001Z</time>
      </trkpt>
      <trkpt lat="50.02244" lon="4.21534">
        <ele>280.008</ele>
        <time>2019-09-19T18:32:18.001Z</time>
      </trkpt>
      <trkpt lat="50.02244" lon="4.21535">
        <ele>280.008</ele>
        <time>2019-09-19T18:32:21.001Z</time>
      </trkpt>
      <trkpt lat="50.02245" lon="4.21534">
        <ele>278.921</ele>
        <time>2019-09-19T18:32:27.001Z</time>
      </trkpt>
      <trkpt lat="50.02245" lon="4.21534">
        <ele>278.814</ele>
        <time>2019-09-19T18:32:30.001Z</time>
      </trkpt>
      <trkpt lat="50.02245" lon="4.21534">
        <ele>278.814</ele>
        <time>2019-09-19T18:32:36.001Z</time>
      </trkpt>
      <trkpt lat="50.02246" lon="4.21531">
        <ele>277.848</ele>
        <time>2019-09-19T18:32:39.001Z</time>
      </trkpt>
      <trkpt lat="50.02246" lon="4.2153">
        <ele>277.848</ele>
        <time>2019-09-19T18:32:48.001Z</time>
      </trkpt>
      <trkpt lat="50.02246" lon="4.2153">
        <ele>277.848</ele>
        <time>2019-09-19T18:32:51.001Z</time>
      </trkpt>
      <trkpt lat="50.02246" lon="4.2153">
        <ele>278.769</ele>
        <time>2019-09-19T18:33:15.001Z</time>
      </trkpt>
      <trkpt lat="50.02248" lon="4.21529">
        <ele>278.723</ele>
        <time>2019-09-19T18:33:18.001Z</time>
      </trkpt>
      <trkpt lat="50.0225" lon="4.21531">
        <ele>277.607</ele>
        <time>2019-09-19T18:33:27.001Z</time>
      </trkpt>
      <trkpt lat="50.0225" lon="4.21531">
        <ele>277.607</ele>
        <time>2019-09-19T18:33:30.001Z</time>
      </trkpt>
      <trkpt lat="50.0225" lon="4.21531">
        <ele>276.369</ele>
        <time>2019-09-19T18:33:48.001Z</time>
      </trkpt>
      <trkpt lat="50.02243" lon="4.21535">
        <ele>276.369</ele>
        <time>2019-09-19T18:33:51.001Z</time>
      </trkpt>
      <trkpt lat="50.02241" lon="4.21536">
        <ele>276.369</ele>
        <time>2019-09-19T18:34:03.001Z</time>
      </trkpt>
      <trkpt lat="50.02241" lon="4.21536">
        <ele>276.835</ele>
        <time>2019-09-19T18:34:06.001Z</time>
      </trkpt>
      <trkpt lat="50.02241" lon="4.21536">
        <ele>277.531</ele>
        <time>2019-09-19T18:34:15.001Z</time>
      </trkpt>
      <trkpt lat="50.02241" lon="4.21537">
        <ele>277.531</ele>
        <time>2019-09-19T18:34:18.001Z</time>
      </trkpt>
      <trkpt lat="50.02241" lon="4.21537">
        <ele>277.531</ele>
        <time>2019-09-19T18:34:21.001Z</time>
      </trkpt>
      <trkpt lat="50.02241" lon="4.21537">
        <ele>282.37</ele>
        <time>2019-09-19T18:37:09.001Z</time>
      </trkpt>
      <trkpt lat="50.02228" lon="4.21525">
        <ele>282.37</ele>
        <time>2019-09-19T18:37:12.001Z</time>
      </trkpt>
      <trkpt lat="50.02228" lon="4.21525">
        <ele>282.37</ele>
        <time>2019-09-19T18:37:15.001Z</time>
      </trkpt>
      <trkpt lat="50.02228" lon="4.21525">
        <ele>282.37</ele>
        <time>2019-09-19T18:37:18.001Z</time>
      </trkpt>
      <trkpt lat="50.02228" lon="4.21525">
        <ele>281.051</ele>
        <time>2019-09-19T18:40:24.001Z</time>
      </trkpt>
      <trkpt lat="50.02231" lon="4.21532">
        <ele>281.051</ele>
        <time>2019-09-19T18:40:27.001Z</time>
      </trkpt>
      <trkpt lat="50.02231" lon="4.21533">
        <ele>281.051</ele>
        <time>2019-09-19T18:40:30.001Z</time>
      </trkpt>
    </trkseg>
  </trk>
</gpx>